<?xml version="1.0" encoding="UTF-8" standalone="no" ?><gpx xmlns="http://www.topografix.com/GPX/1/1" xmlns:gpxx="http://www.garmin.com/xmlschemas/GpxExtensions/v3" xmlns:wptx1="http://www.garmin.com/xmlschemas/WaypointExtension/v1" xmlns:gpxtpx="http://www.garmin.com/xmlschemas/TrackPointExtension/v1" creator="GuideVTT.com" version="1.1" xmlns:xsi="http://www.w3.org/2001/XMLSchema-instance" xsi:schemaLocation="http://www.topografix.com/GPX/1/1 http://www.topografix.com/GPX/1/1/gpx.xsd http://www.garmin.com/xmlschemas/GpxExtensions/v3 http://www8.garmin.com/xmlschemas/GpxExtensionsv3.xsd http://www.garmin.com/xmlschemas/WaypointExtension/v1 http://www8.garmin.com/xmlschemas/WaypointExtensionv1.xsd http://www.garmin.com/xmlschemas/TrackPointExtension/v1 http://www.garmin.com/xmlschemas/TrackPointExtensionv1.xsd">
<metadata><link href="http://www.garmin.com"><text>Garmin International</text></link><time>2013-06-22T15:13:50Z</time></metadata>
<trk><name>saillon_veysonnaz_20160828-0843.gpx</name><extensions><gpxx:TrackExtension><gpxx:DisplayColor>Cyan</gpxx:DisplayColor></gpxx:TrackExtension></extensions><trkseg>
<trkpt lat="46.17047" lon="7.19212"><ele>474</ele><time>2016-08-28T07:43:52Z</time></trkpt>
<trkpt lat="46.17047" lon="7.19213"><ele>474</ele><time>2016-08-28T07:43:55Z</time></trkpt>
<trkpt lat="46.17047" lon="7.19213"><ele>474</ele><time>2016-08-28T07:43:57Z</time></trkpt>
<trkpt lat="46.17047" lon="7.19213"><ele>474</ele><time>2016-08-28T07:43:59Z</time></trkpt>
<trkpt lat="46.17047" lon="7.19214"><ele>474.2</ele><time>2016-08-28T07:44:01Z</time></trkpt>
<trkpt lat="46.17047" lon="7.19214"><ele>474.2</ele><time>2016-08-28T07:44:03Z</time></trkpt>
<trkpt lat="46.17047" lon="7.19214"><ele>474.2</ele><time>2016-08-28T07:44:05Z</time></trkpt>
<trkpt lat="46.17047" lon="7.19214"><ele>474.2</ele><time>2016-08-28T07:44:06Z</time></trkpt>
<trkpt lat="46.17049" lon="7.19215"><ele>474.2</ele><time>2016-08-28T07:44:07Z</time></trkpt>
<trkpt lat="46.17052" lon="7.19217"><ele>474.2</ele><time>2016-08-28T07:44:09Z</time></trkpt>
<trkpt lat="46.17055" lon="7.1922"><ele>474.4</ele><time>2016-08-28T07:44:11Z</time></trkpt>
<trkpt lat="46.17056" lon="7.19229"><ele>474.4</ele><time>2016-08-28T07:44:13Z</time></trkpt>
<trkpt lat="46.17057" lon="7.19233"><ele>474.4</ele><time>2016-08-28T07:44:14Z</time></trkpt>
<trkpt lat="46.17054" lon="7.19238"><ele>474.4</ele><time>2016-08-28T07:44:15Z</time></trkpt>
<trkpt lat="46.17048" lon="7.19249"><ele>474.4</ele><time>2016-08-28T07:44:17Z</time></trkpt>
<trkpt lat="46.17042" lon="7.19259"><ele>474.4</ele><time>2016-08-28T07:44:19Z</time></trkpt>
<trkpt lat="46.17035" lon="7.1927"><ele>474.6</ele><time>2016-08-28T07:44:21Z</time></trkpt>
<trkpt lat="46.17029" lon="7.1928"><ele>474.6</ele><time>2016-08-28T07:44:23Z</time></trkpt>
<trkpt lat="46.17026" lon="7.19286"><ele>474.6</ele><time>2016-08-28T07:44:24Z</time></trkpt>
<trkpt lat="46.17023" lon="7.1929"><ele>474.6</ele><time>2016-08-28T07:44:25Z</time></trkpt>
<trkpt lat="46.17018" lon="7.19299"><ele>474.6</ele><time>2016-08-28T07:44:27Z</time></trkpt>
<trkpt lat="46.17013" lon="7.19308"><ele>474.6</ele><time>2016-08-28T07:44:29Z</time></trkpt>
<trkpt lat="46.17008" lon="7.19317"><ele>474.8</ele><time>2016-08-28T07:44:31Z</time></trkpt>
<trkpt lat="46.17003" lon="7.19326"><ele>474.8</ele><time>2016-08-28T07:44:33Z</time></trkpt>
<trkpt lat="46.16998" lon="7.19335"><ele>474.8</ele><time>2016-08-28T07:44:35Z</time></trkpt>
<trkpt lat="46.16996" lon="7.1934"><ele>474.8</ele><time>2016-08-28T07:44:36Z</time></trkpt>
<trkpt lat="46.16994" lon="7.19344"><ele>474.8</ele><time>2016-08-28T07:44:37Z</time></trkpt>
<trkpt lat="46.16991" lon="7.19351"><ele>474.8</ele><time>2016-08-28T07:44:39Z</time></trkpt>
<trkpt lat="46.16988" lon="7.19357"><ele>475</ele><time>2016-08-28T07:44:41Z</time></trkpt>
<trkpt lat="46.16985" lon="7.19364"><ele>475</ele><time>2016-08-28T07:44:43Z</time></trkpt>
<trkpt lat="46.16982" lon="7.19371"><ele>475</ele><time>2016-08-28T07:44:45Z</time></trkpt>
<trkpt lat="46.16979" lon="7.19378"><ele>475</ele><time>2016-08-28T07:44:47Z</time></trkpt>
<trkpt lat="46.16978" lon="7.19382"><ele>475</ele><time>2016-08-28T07:44:48Z</time></trkpt>
<trkpt lat="46.16979" lon="7.19386"><ele>475</ele><time>2016-08-28T07:44:49Z</time></trkpt>
<trkpt lat="46.16982" lon="7.19394"><ele>475.2</ele><time>2016-08-28T07:44:51Z</time></trkpt>
<trkpt lat="46.16988" lon="7.194"><ele>475.2</ele><time>2016-08-28T07:44:53Z</time></trkpt>
<trkpt lat="46.16995" lon="7.19405"><ele>475.2</ele><time>2016-08-28T07:44:55Z</time></trkpt>
<trkpt lat="46.17002" lon="7.19411"><ele>475.2</ele><time>2016-08-28T07:44:57Z</time></trkpt>
<trkpt lat="46.17009" lon="7.19417"><ele>475.2</ele><time>2016-08-28T07:44:59Z</time></trkpt>
<trkpt lat="46.17016" lon="7.19422"><ele>475.4</ele><time>2016-08-28T07:45:01Z</time></trkpt>
<trkpt lat="46.17023" lon="7.19428"><ele>475.4</ele><time>2016-08-28T07:45:03Z</time></trkpt>
<trkpt lat="46.17029" lon="7.19433"><ele>475.4</ele><time>2016-08-28T07:45:05Z</time></trkpt>
<trkpt lat="46.17036" lon="7.19439"><ele>475.4</ele><time>2016-08-28T07:45:07Z</time></trkpt>
<trkpt lat="46.17042" lon="7.19444"><ele>475.4</ele><time>2016-08-28T07:45:09Z</time></trkpt>
<trkpt lat="46.17048" lon="7.1945"><ele>475.6</ele><time>2016-08-28T07:45:11Z</time></trkpt>
<trkpt lat="46.17055" lon="7.19456"><ele>475.6</ele><time>2016-08-28T07:45:13Z</time></trkpt>
<trkpt lat="46.17061" lon="7.19461"><ele>475.6</ele><time>2016-08-28T07:45:15Z</time></trkpt>
<trkpt lat="46.17064" lon="7.19464"><ele>475.6</ele><time>2016-08-28T07:45:16Z</time></trkpt>
<trkpt lat="46.17067" lon="7.19467"><ele>475.6</ele><time>2016-08-28T07:45:17Z</time></trkpt>
<trkpt lat="46.17073" lon="7.19472"><ele>475.6</ele><time>2016-08-28T07:45:19Z</time></trkpt>
<trkpt lat="46.1708" lon="7.19477"><ele>475.8</ele><time>2016-08-28T07:45:21Z</time></trkpt>
<trkpt lat="46.17086" lon="7.19483"><ele>475.8</ele><time>2016-08-28T07:45:23Z</time></trkpt>
<trkpt lat="46.17092" lon="7.19488"><ele>475.8</ele><time>2016-08-28T07:45:25Z</time></trkpt>
<trkpt lat="46.17093" lon="7.19497"><ele>475.8</ele><time>2016-08-28T07:45:27Z</time></trkpt>
<trkpt lat="46.17088" lon="7.19505"><ele>475.8</ele><time>2016-08-28T07:45:29Z</time></trkpt>
<trkpt lat="46.17082" lon="7.19514"><ele>476</ele><time>2016-08-28T07:45:31Z</time></trkpt>
<trkpt lat="46.17077" lon="7.19522"><ele>476</ele><time>2016-08-28T07:45:33Z</time></trkpt>
<trkpt lat="46.17072" lon="7.19531"><ele>476</ele><time>2016-08-28T07:45:35Z</time></trkpt>
<trkpt lat="46.17066" lon="7.19539"><ele>476</ele><time>2016-08-28T07:45:37Z</time></trkpt>
<trkpt lat="46.17061" lon="7.19548"><ele>476</ele><time>2016-08-28T07:45:39Z</time></trkpt>
<trkpt lat="46.17056" lon="7.19557"><ele>476.2</ele><time>2016-08-28T07:45:41Z</time></trkpt>
<trkpt lat="46.17052" lon="7.19567"><ele>476.2</ele><time>2016-08-28T07:45:43Z</time></trkpt>
<trkpt lat="46.17047" lon="7.19577"><ele>476.2</ele><time>2016-08-28T07:45:45Z</time></trkpt>
<trkpt lat="46.17043" lon="7.19587"><ele>476.2</ele><time>2016-08-28T07:45:47Z</time></trkpt>
<trkpt lat="46.17038" lon="7.19596"><ele>476.2</ele><time>2016-08-28T07:45:49Z</time></trkpt>
<trkpt lat="46.17036" lon="7.19601"><ele>476.4</ele><time>2016-08-28T07:45:50Z</time></trkpt>
<trkpt lat="46.17034" lon="7.19606"><ele>476.4</ele><time>2016-08-28T07:45:51Z</time></trkpt>
<trkpt lat="46.17029" lon="7.19615"><ele>476.4</ele><time>2016-08-28T07:45:53Z</time></trkpt>
<trkpt lat="46.17025" lon="7.19624"><ele>476.4</ele><time>2016-08-28T07:45:55Z</time></trkpt>
<trkpt lat="46.1702" lon="7.19634"><ele>476.4</ele><time>2016-08-28T07:45:57Z</time></trkpt>
<trkpt lat="46.17016" lon="7.19643"><ele>476.4</ele><time>2016-08-28T07:45:59Z</time></trkpt>
<trkpt lat="46.17011" lon="7.19652"><ele>476.6</ele><time>2016-08-28T07:46:01Z</time></trkpt>
<trkpt lat="46.17009" lon="7.19657"><ele>476.6</ele><time>2016-08-28T07:46:02Z</time></trkpt>
<trkpt lat="46.17007" lon="7.19662"><ele>476.6</ele><time>2016-08-28T07:46:03Z</time></trkpt>
<trkpt lat="46.17002" lon="7.19671"><ele>476.6</ele><time>2016-08-28T07:46:05Z</time></trkpt>
<trkpt lat="46.16997" lon="7.1968"><ele>476.6</ele><time>2016-08-28T07:46:07Z</time></trkpt>
<trkpt lat="46.16993" lon="7.1969"><ele>476.6</ele><time>2016-08-28T07:46:09Z</time></trkpt>
<trkpt lat="46.16988" lon="7.19699"><ele>476.8</ele><time>2016-08-28T07:46:11Z</time></trkpt>
<trkpt lat="46.16983" lon="7.19709"><ele>476.8</ele><time>2016-08-28T07:46:13Z</time></trkpt>
<trkpt lat="46.16981" lon="7.19714"><ele>476.8</ele><time>2016-08-28T07:46:14Z</time></trkpt>
<trkpt lat="46.16978" lon="7.19719"><ele>476.8</ele><time>2016-08-28T07:46:15Z</time></trkpt>
<trkpt lat="46.16973" lon="7.1973"><ele>476.8</ele><time>2016-08-28T07:46:17Z</time></trkpt>
<trkpt lat="46.16968" lon="7.19741"><ele>476.8</ele><time>2016-08-28T07:46:19Z</time></trkpt>
<trkpt lat="46.16963" lon="7.19752"><ele>477</ele><time>2016-08-28T07:46:21Z</time></trkpt>
<trkpt lat="46.16958" lon="7.19763"><ele>477</ele><time>2016-08-28T07:46:23Z</time></trkpt>
<trkpt lat="46.16956" lon="7.19769"><ele>477</ele><time>2016-08-28T07:46:24Z</time></trkpt>
<trkpt lat="46.16953" lon="7.19774"><ele>477</ele><time>2016-08-28T07:46:25Z</time></trkpt>
<trkpt lat="46.16948" lon="7.19786"><ele>477</ele><time>2016-08-28T07:46:27Z</time></trkpt>
<trkpt lat="46.16943" lon="7.19797"><ele>477</ele><time>2016-08-28T07:46:29Z</time></trkpt>
<trkpt lat="46.16938" lon="7.19809"><ele>477.2</ele><time>2016-08-28T07:46:31Z</time></trkpt>
<trkpt lat="46.16932" lon="7.1982"><ele>477.2</ele><time>2016-08-28T07:46:33Z</time></trkpt>
<trkpt lat="46.1693" lon="7.19826"><ele>477.2</ele><time>2016-08-28T07:46:34Z</time></trkpt>
<trkpt lat="46.16927" lon="7.19831"><ele>477.2</ele><time>2016-08-28T07:46:35Z</time></trkpt>
<trkpt lat="46.16922" lon="7.19842"><ele>477.2</ele><time>2016-08-28T07:46:37Z</time></trkpt>
<trkpt lat="46.16917" lon="7.19853"><ele>477.2</ele><time>2016-08-28T07:46:39Z</time></trkpt>
<trkpt lat="46.16911" lon="7.19864"><ele>477.4</ele><time>2016-08-28T07:46:41Z</time></trkpt>
<trkpt lat="46.16906" lon="7.19875"><ele>477.4</ele><time>2016-08-28T07:46:43Z</time></trkpt>
<trkpt lat="46.16904" lon="7.1988"><ele>477.4</ele><time>2016-08-28T07:46:44Z</time></trkpt>
<trkpt lat="46.16902" lon="7.19885"><ele>477.4</ele><time>2016-08-28T07:46:45Z</time></trkpt>
<trkpt lat="46.16899" lon="7.19893"><ele>477.4</ele><time>2016-08-28T07:46:47Z</time></trkpt>
<trkpt lat="46.16895" lon="7.19902"><ele>477.4</ele><time>2016-08-28T07:46:49Z</time></trkpt>
<trkpt lat="46.16892" lon="7.19911"><ele>477.6</ele><time>2016-08-28T07:46:51Z</time></trkpt>
<trkpt lat="46.16891" lon="7.19915"><ele>477.6</ele><time>2016-08-28T07:46:52Z</time></trkpt>
<trkpt lat="46.16891" lon="7.1992"><ele>477.6</ele><time>2016-08-28T07:46:53Z</time></trkpt>
<trkpt lat="46.16892" lon="7.19924"><ele>477.8</ele><time>2016-08-28T07:46:54Z</time></trkpt>
<trkpt lat="46.16896" lon="7.19925"><ele>477.8</ele><time>2016-08-28T07:46:55Z</time></trkpt>
<trkpt lat="46.16906" lon="7.19926"><ele>478</ele><time>2016-08-28T07:46:57Z</time></trkpt>
<trkpt lat="46.16917" lon="7.19928"><ele>478.2</ele><time>2016-08-28T07:46:59Z</time></trkpt>
<trkpt lat="46.16927" lon="7.19929"><ele>478.4</ele><time>2016-08-28T07:47:01Z</time></trkpt>
<trkpt lat="46.16937" lon="7.1993"><ele>478.6</ele><time>2016-08-28T07:47:03Z</time></trkpt>
<trkpt lat="46.16947" lon="7.19932"><ele>478.8</ele><time>2016-08-28T07:47:05Z</time></trkpt>
<trkpt lat="46.16958" lon="7.19933"><ele>479</ele><time>2016-08-28T07:47:07Z</time></trkpt>
<trkpt lat="46.16968" lon="7.19934"><ele>479.2</ele><time>2016-08-28T07:47:09Z</time></trkpt>
<trkpt lat="46.16974" lon="7.19935"><ele>479.2</ele><time>2016-08-28T07:47:10Z</time></trkpt>
<trkpt lat="46.16979" lon="7.19936"><ele>479.2</ele><time>2016-08-28T07:47:11Z</time></trkpt>
<trkpt lat="46.16984" lon="7.19937"><ele>479.2</ele><time>2016-08-28T07:47:12Z</time></trkpt>
<trkpt lat="46.1699" lon="7.19937"><ele>479.2</ele><time>2016-08-28T07:47:13Z</time></trkpt>
<trkpt lat="46.17" lon="7.19939"><ele>479.2</ele><time>2016-08-28T07:47:15Z</time></trkpt>
<trkpt lat="46.17011" lon="7.1994"><ele>479.2</ele><time>2016-08-28T07:47:17Z</time></trkpt>
<trkpt lat="46.17022" lon="7.19942"><ele>479.2</ele><time>2016-08-28T07:47:19Z</time></trkpt>
<trkpt lat="46.17032" lon="7.19944"><ele>479.2</ele><time>2016-08-28T07:47:21Z</time></trkpt>
<trkpt lat="46.17043" lon="7.19945"><ele>479.2</ele><time>2016-08-28T07:47:23Z</time></trkpt>
<trkpt lat="46.17054" lon="7.19947"><ele>479.2</ele><time>2016-08-28T07:47:25Z</time></trkpt>
<trkpt lat="46.17065" lon="7.19949"><ele>479.2</ele><time>2016-08-28T07:47:27Z</time></trkpt>
<trkpt lat="46.17075" lon="7.19951"><ele>479.2</ele><time>2016-08-28T07:47:29Z</time></trkpt>
<trkpt lat="46.17081" lon="7.19952"><ele>479.2</ele><time>2016-08-28T07:47:30Z</time></trkpt>
<trkpt lat="46.17086" lon="7.19952"><ele>479.2</ele><time>2016-08-28T07:47:31Z</time></trkpt>
<trkpt lat="46.17096" lon="7.19954"><ele>479.2</ele><time>2016-08-28T07:47:33Z</time></trkpt>
<trkpt lat="46.17106" lon="7.19955"><ele>479.2</ele><time>2016-08-28T07:47:35Z</time></trkpt>
<trkpt lat="46.17116" lon="7.19957"><ele>479.2</ele><time>2016-08-28T07:47:37Z</time></trkpt>
<trkpt lat="46.17126" lon="7.19958"><ele>479.2</ele><time>2016-08-28T07:47:39Z</time></trkpt>
<trkpt lat="46.17136" lon="7.1996"><ele>479.2</ele><time>2016-08-28T07:47:41Z</time></trkpt>
<trkpt lat="46.17146" lon="7.19962"><ele>479.2</ele><time>2016-08-28T07:47:43Z</time></trkpt>
<trkpt lat="46.17157" lon="7.19964"><ele>479.2</ele><time>2016-08-28T07:47:45Z</time></trkpt>
<trkpt lat="46.17167" lon="7.19966"><ele>479.2</ele><time>2016-08-28T07:47:47Z</time></trkpt>
<trkpt lat="46.17172" lon="7.19967"><ele>479.2</ele><time>2016-08-28T07:47:48Z</time></trkpt>
<trkpt lat="46.17177" lon="7.19968"><ele>479.2</ele><time>2016-08-28T07:47:49Z</time></trkpt>
<trkpt lat="46.17187" lon="7.19969"><ele>479.2</ele><time>2016-08-28T07:47:51Z</time></trkpt>
<trkpt lat="46.17197" lon="7.1997"><ele>479.2</ele><time>2016-08-28T07:47:53Z</time></trkpt>
<trkpt lat="46.17207" lon="7.19972"><ele>479.2</ele><time>2016-08-28T07:47:55Z</time></trkpt>
<trkpt lat="46.17218" lon="7.19973"><ele>479.2</ele><time>2016-08-28T07:47:57Z</time></trkpt>
<trkpt lat="46.17228" lon="7.19975"><ele>479.2</ele><time>2016-08-28T07:47:59Z</time></trkpt>
<trkpt lat="46.17239" lon="7.19976"><ele>479.2</ele><time>2016-08-28T07:48:01Z</time></trkpt>
<trkpt lat="46.1725" lon="7.19977"><ele>479</ele><time>2016-08-28T07:48:03Z</time></trkpt>
<trkpt lat="46.17261" lon="7.19979"><ele>479</ele><time>2016-08-28T07:48:05Z</time></trkpt>
<trkpt lat="46.17266" lon="7.1998"><ele>479</ele><time>2016-08-28T07:48:06Z</time></trkpt>
<trkpt lat="46.17271" lon="7.19981"><ele>479</ele><time>2016-08-28T07:48:07Z</time></trkpt>
<trkpt lat="46.17282" lon="7.19984"><ele>479</ele><time>2016-08-28T07:48:09Z</time></trkpt>
<trkpt lat="46.17293" lon="7.19987"><ele>479</ele><time>2016-08-28T07:48:11Z</time></trkpt>
<trkpt lat="46.17304" lon="7.1999"><ele>479</ele><time>2016-08-28T07:48:13Z</time></trkpt>
<trkpt lat="46.17315" lon="7.19993"><ele>479</ele><time>2016-08-28T07:48:15Z</time></trkpt>
<trkpt lat="46.17324" lon="7.19997"><ele>479</ele><time>2016-08-28T07:48:17Z</time></trkpt>
<trkpt lat="46.17334" lon="7.20001"><ele>479</ele><time>2016-08-28T07:48:19Z</time></trkpt>
<trkpt lat="46.17343" lon="7.20006"><ele>479</ele><time>2016-08-28T07:48:21Z</time></trkpt>
<trkpt lat="46.17352" lon="7.2001"><ele>479</ele><time>2016-08-28T07:48:23Z</time></trkpt>
<trkpt lat="46.17362" lon="7.20015"><ele>479</ele><time>2016-08-28T07:48:25Z</time></trkpt>
<trkpt lat="46.17371" lon="7.20021"><ele>479</ele><time>2016-08-28T07:48:27Z</time></trkpt>
<trkpt lat="46.1738" lon="7.20027"><ele>479</ele><time>2016-08-28T07:48:29Z</time></trkpt>
<trkpt lat="46.1739" lon="7.20033"><ele>479</ele><time>2016-08-28T07:48:31Z</time></trkpt>
<trkpt lat="46.17399" lon="7.20038"><ele>479</ele><time>2016-08-28T07:48:33Z</time></trkpt>
<trkpt lat="46.17404" lon="7.20041"><ele>479</ele><time>2016-08-28T07:48:34Z</time></trkpt>
<trkpt lat="46.17409" lon="7.20045"><ele>479</ele><time>2016-08-28T07:48:35Z</time></trkpt>
<trkpt lat="46.17418" lon="7.20052"><ele>479</ele><time>2016-08-28T07:48:37Z</time></trkpt>
<trkpt lat="46.17427" lon="7.20059"><ele>479</ele><time>2016-08-28T07:48:39Z</time></trkpt>
<trkpt lat="46.17437" lon="7.20065"><ele>479</ele><time>2016-08-28T07:48:41Z</time></trkpt>
<trkpt lat="46.17446" lon="7.20072"><ele>479</ele><time>2016-08-28T07:48:43Z</time></trkpt>
<trkpt lat="46.17455" lon="7.2008"><ele>479</ele><time>2016-08-28T07:48:45Z</time></trkpt>
<trkpt lat="46.17464" lon="7.20088"><ele>479</ele><time>2016-08-28T07:48:47Z</time></trkpt>
<trkpt lat="46.17474" lon="7.20096"><ele>479</ele><time>2016-08-28T07:48:49Z</time></trkpt>
<trkpt lat="46.17483" lon="7.20104"><ele>479</ele><time>2016-08-28T07:48:51Z</time></trkpt>
<trkpt lat="46.17487" lon="7.20108"><ele>479</ele><time>2016-08-28T07:48:52Z</time></trkpt>
<trkpt lat="46.17492" lon="7.20113"><ele>479</ele><time>2016-08-28T07:48:53Z</time></trkpt>
<trkpt lat="46.175" lon="7.20123"><ele>479</ele><time>2016-08-28T07:48:55Z</time></trkpt>
<trkpt lat="46.17509" lon="7.20134"><ele>479</ele><time>2016-08-28T07:48:57Z</time></trkpt>
<trkpt lat="46.17518" lon="7.20144"><ele>479</ele><time>2016-08-28T07:48:59Z</time></trkpt>
<trkpt lat="46.17522" lon="7.20149"><ele>479</ele><time>2016-08-28T07:49:00Z</time></trkpt>
<trkpt lat="46.17525" lon="7.20155"><ele>479</ele><time>2016-08-28T07:49:01Z</time></trkpt>
<trkpt lat="46.17532" lon="7.20166"><ele>479</ele><time>2016-08-28T07:49:03Z</time></trkpt>
<trkpt lat="46.17539" lon="7.20177"><ele>479</ele><time>2016-08-28T07:49:05Z</time></trkpt>
<trkpt lat="46.17546" lon="7.20188"><ele>479</ele><time>2016-08-28T07:49:07Z</time></trkpt>
<trkpt lat="46.17553" lon="7.20199"><ele>479</ele><time>2016-08-28T07:49:09Z</time></trkpt>
<trkpt lat="46.1756" lon="7.20209"><ele>479</ele><time>2016-08-28T07:49:11Z</time></trkpt>
<trkpt lat="46.17568" lon="7.20219"><ele>479</ele><time>2016-08-28T07:49:13Z</time></trkpt>
<trkpt lat="46.17575" lon="7.2023"><ele>479</ele><time>2016-08-28T07:49:15Z</time></trkpt>
<trkpt lat="46.17582" lon="7.2024"><ele>479</ele><time>2016-08-28T07:49:17Z</time></trkpt>
<trkpt lat="46.17586" lon="7.20245"><ele>479</ele><time>2016-08-28T07:49:18Z</time></trkpt>
<trkpt lat="46.1759" lon="7.20251"><ele>479</ele><time>2016-08-28T07:49:19Z</time></trkpt>
<trkpt lat="46.17597" lon="7.20263"><ele>479</ele><time>2016-08-28T07:49:21Z</time></trkpt>
<trkpt lat="46.17605" lon="7.20276"><ele>479</ele><time>2016-08-28T07:49:23Z</time></trkpt>
<trkpt lat="46.17612" lon="7.20288"><ele>479</ele><time>2016-08-28T07:49:25Z</time></trkpt>
<trkpt lat="46.17616" lon="7.20294"><ele>479</ele><time>2016-08-28T07:49:26Z</time></trkpt>
<trkpt lat="46.17619" lon="7.20299"><ele>479</ele><time>2016-08-28T07:49:27Z</time></trkpt>
<trkpt lat="46.17625" lon="7.2031"><ele>479</ele><time>2016-08-28T07:49:29Z</time></trkpt>
<trkpt lat="46.17627" lon="7.20324"><ele>479</ele><time>2016-08-28T07:49:31Z</time></trkpt>
<trkpt lat="46.17634" lon="7.20335"><ele>479</ele><time>2016-08-28T07:49:33Z</time></trkpt>
<trkpt lat="46.17642" lon="7.20347"><ele>479</ele><time>2016-08-28T07:49:35Z</time></trkpt>
<trkpt lat="46.1765" lon="7.20358"><ele>478.8</ele><time>2016-08-28T07:49:37Z</time></trkpt>
<trkpt lat="46.17658" lon="7.20369"><ele>478.8</ele><time>2016-08-28T07:49:39Z</time></trkpt>
<trkpt lat="46.17661" lon="7.20375"><ele>478.8</ele><time>2016-08-28T07:49:40Z</time></trkpt>
<trkpt lat="46.17665" lon="7.20381"><ele>478.8</ele><time>2016-08-28T07:49:41Z</time></trkpt>
<trkpt lat="46.17672" lon="7.20394"><ele>478.8</ele><time>2016-08-28T07:49:43Z</time></trkpt>
<trkpt lat="46.1768" lon="7.20406"><ele>478.8</ele><time>2016-08-28T07:49:45Z</time></trkpt>
<trkpt lat="46.17687" lon="7.20419"><ele>478.8</ele><time>2016-08-28T07:49:47Z</time></trkpt>
<trkpt lat="46.17694" lon="7.20431"><ele>478.8</ele><time>2016-08-28T07:49:49Z</time></trkpt>
<trkpt lat="46.177" lon="7.20444"><ele>478.8</ele><time>2016-08-28T07:49:51Z</time></trkpt>
<trkpt lat="46.17706" lon="7.20457"><ele>478.8</ele><time>2016-08-28T07:49:53Z</time></trkpt>
<trkpt lat="46.17712" lon="7.20469"><ele>478.8</ele><time>2016-08-28T07:49:55Z</time></trkpt>
<trkpt lat="46.17717" lon="7.20482"><ele>478.8</ele><time>2016-08-28T07:49:57Z</time></trkpt>
<trkpt lat="46.1772" lon="7.20488"><ele>478.8</ele><time>2016-08-28T07:49:58Z</time></trkpt>
<trkpt lat="46.17723" lon="7.20495"><ele>478.8</ele><time>2016-08-28T07:49:59Z</time></trkpt>
<trkpt lat="46.17729" lon="7.2051"><ele>478.8</ele><time>2016-08-28T07:50:01Z</time></trkpt>
<trkpt lat="46.17734" lon="7.20524"><ele>478.8</ele><time>2016-08-28T07:50:03Z</time></trkpt>
<trkpt lat="46.1774" lon="7.20539"><ele>478.8</ele><time>2016-08-28T07:50:05Z</time></trkpt>
<trkpt lat="46.17742" lon="7.20546"><ele>478.8</ele><time>2016-08-28T07:50:06Z</time></trkpt>
<trkpt lat="46.17745" lon="7.20553"><ele>478.8</ele><time>2016-08-28T07:50:07Z</time></trkpt>
<trkpt lat="46.17751" lon="7.20568"><ele>478.8</ele><time>2016-08-28T07:50:09Z</time></trkpt>
<trkpt lat="46.17757" lon="7.20583"><ele>478.8</ele><time>2016-08-28T07:50:11Z</time></trkpt>
<trkpt lat="46.17763" lon="7.20598"><ele>478.8</ele><time>2016-08-28T07:50:13Z</time></trkpt>
<trkpt lat="46.17766" lon="7.20606"><ele>478.8</ele><time>2016-08-28T07:50:14Z</time></trkpt>
<trkpt lat="46.17768" lon="7.20613"><ele>478.8</ele><time>2016-08-28T07:50:15Z</time></trkpt>
<trkpt lat="46.17773" lon="7.20628"><ele>478.8</ele><time>2016-08-28T07:50:17Z</time></trkpt>
<trkpt lat="46.17778" lon="7.20643"><ele>478.8</ele><time>2016-08-28T07:50:19Z</time></trkpt>
<trkpt lat="46.17783" lon="7.20658"><ele>478.8</ele><time>2016-08-28T07:50:21Z</time></trkpt>
<trkpt lat="46.17786" lon="7.20665"><ele>478.8</ele><time>2016-08-28T07:50:22Z</time></trkpt>
<trkpt lat="46.17788" lon="7.20674"><ele>478.8</ele><time>2016-08-28T07:50:23Z</time></trkpt>
<trkpt lat="46.17792" lon="7.2069"><ele>478.8</ele><time>2016-08-28T07:50:25Z</time></trkpt>
<trkpt lat="46.17795" lon="7.20707"><ele>478.8</ele><time>2016-08-28T07:50:27Z</time></trkpt>
<trkpt lat="46.17799" lon="7.20724"><ele>478.8</ele><time>2016-08-28T07:50:29Z</time></trkpt>
<trkpt lat="46.17801" lon="7.20732"><ele>478.8</ele><time>2016-08-28T07:50:30Z</time></trkpt>
<trkpt lat="46.17803" lon="7.2074"><ele>478.8</ele><time>2016-08-28T07:50:31Z</time></trkpt>
<trkpt lat="46.17806" lon="7.20757"><ele>478.8</ele><time>2016-08-28T07:50:33Z</time></trkpt>
<trkpt lat="46.17809" lon="7.20773"><ele>478.8</ele><time>2016-08-28T07:50:35Z</time></trkpt>
<trkpt lat="46.17813" lon="7.20789"><ele>478.8</ele><time>2016-08-28T07:50:37Z</time></trkpt>
<trkpt lat="46.17815" lon="7.20797"><ele>478.8</ele><time>2016-08-28T07:50:38Z</time></trkpt>
<trkpt lat="46.17816" lon="7.20806"><ele>478.8</ele><time>2016-08-28T07:50:39Z</time></trkpt>
<trkpt lat="46.17819" lon="7.20823"><ele>478.8</ele><time>2016-08-28T07:50:41Z</time></trkpt>
<trkpt lat="46.17822" lon="7.2084"><ele>478.8</ele><time>2016-08-28T07:50:43Z</time></trkpt>
<trkpt lat="46.17824" lon="7.20858"><ele>478.8</ele><time>2016-08-28T07:50:45Z</time></trkpt>
<trkpt lat="46.17826" lon="7.20866"><ele>478.8</ele><time>2016-08-28T07:50:46Z</time></trkpt>
<trkpt lat="46.17827" lon="7.20875"><ele>478.8</ele><time>2016-08-28T07:50:47Z</time></trkpt>
<trkpt lat="46.17828" lon="7.20891"><ele>478.8</ele><time>2016-08-28T07:50:49Z</time></trkpt>
<trkpt lat="46.17829" lon="7.20907"><ele>478.8</ele><time>2016-08-28T07:50:51Z</time></trkpt>
<trkpt lat="46.1783" lon="7.20923"><ele>478.8</ele><time>2016-08-28T07:50:53Z</time></trkpt>
<trkpt lat="46.17832" lon="7.20939"><ele>478.8</ele><time>2016-08-28T07:50:55Z</time></trkpt>
<trkpt lat="46.17833" lon="7.20957"><ele>478.8</ele><time>2016-08-28T07:50:57Z</time></trkpt>
<trkpt lat="46.17835" lon="7.20974"><ele>478.8</ele><time>2016-08-28T07:50:59Z</time></trkpt>
<trkpt lat="46.17836" lon="7.20992"><ele>478.8</ele><time>2016-08-28T07:51:01Z</time></trkpt>
<trkpt lat="46.17838" lon="7.2101"><ele>478.8</ele><time>2016-08-28T07:51:03Z</time></trkpt>
<trkpt lat="46.17839" lon="7.21027"><ele>478.8</ele><time>2016-08-28T07:51:05Z</time></trkpt>
<trkpt lat="46.1784" lon="7.21044"><ele>478.8</ele><time>2016-08-28T07:51:07Z</time></trkpt>
<trkpt lat="46.17841" lon="7.21061"><ele>478.6</ele><time>2016-08-28T07:51:09Z</time></trkpt>
<trkpt lat="46.17841" lon="7.21078"><ele>478.6</ele><time>2016-08-28T07:51:11Z</time></trkpt>
<trkpt lat="46.17842" lon="7.21095"><ele>478.6</ele><time>2016-08-28T07:51:13Z</time></trkpt>
<trkpt lat="46.17843" lon="7.21112"><ele>478.6</ele><time>2016-08-28T07:51:15Z</time></trkpt>
<trkpt lat="46.17844" lon="7.21129"><ele>478.6</ele><time>2016-08-28T07:51:17Z</time></trkpt>
<trkpt lat="46.17845" lon="7.21146"><ele>478.6</ele><time>2016-08-28T07:51:19Z</time></trkpt>
<trkpt lat="46.17846" lon="7.21163"><ele>478.6</ele><time>2016-08-28T07:51:21Z</time></trkpt>
<trkpt lat="46.17847" lon="7.2118"><ele>478.6</ele><time>2016-08-28T07:51:23Z</time></trkpt>
<trkpt lat="46.17847" lon="7.21198"><ele>478.6</ele><time>2016-08-28T07:51:25Z</time></trkpt>
<trkpt lat="46.17848" lon="7.21215"><ele>478.6</ele><time>2016-08-28T07:51:27Z</time></trkpt>
<trkpt lat="46.17848" lon="7.21231"><ele>478.6</ele><time>2016-08-28T07:51:29Z</time></trkpt>
<trkpt lat="46.17849" lon="7.21247"><ele>478.6</ele><time>2016-08-28T07:51:31Z</time></trkpt>
<trkpt lat="46.17849" lon="7.21263"><ele>478.6</ele><time>2016-08-28T07:51:33Z</time></trkpt>
<trkpt lat="46.1785" lon="7.21279"><ele>478.6</ele><time>2016-08-28T07:51:35Z</time></trkpt>
<trkpt lat="46.1785" lon="7.21286"><ele>478.6</ele><time>2016-08-28T07:51:36Z</time></trkpt>
<trkpt lat="46.17851" lon="7.21294"><ele>478.6</ele><time>2016-08-28T07:51:37Z</time></trkpt>
<trkpt lat="46.17851" lon="7.21309"><ele>478.6</ele><time>2016-08-28T07:51:39Z</time></trkpt>
<trkpt lat="46.17852" lon="7.21323"><ele>478.6</ele><time>2016-08-28T07:51:41Z</time></trkpt>
<trkpt lat="46.17853" lon="7.21338"><ele>478.6</ele><time>2016-08-28T07:51:43Z</time></trkpt>
<trkpt lat="46.17853" lon="7.21346"><ele>478.6</ele><time>2016-08-28T07:51:44Z</time></trkpt>
<trkpt lat="46.17854" lon="7.21354"><ele>478.6</ele><time>2016-08-28T07:51:45Z</time></trkpt>
<trkpt lat="46.17856" lon="7.2137"><ele>478.6</ele><time>2016-08-28T07:51:47Z</time></trkpt>
<trkpt lat="46.17859" lon="7.21387"><ele>478.6</ele><time>2016-08-28T07:51:49Z</time></trkpt>
<trkpt lat="46.17861" lon="7.21403"><ele>478.6</ele><time>2016-08-28T07:51:51Z</time></trkpt>
<trkpt lat="46.17862" lon="7.21412"><ele>478.6</ele><time>2016-08-28T07:51:52Z</time></trkpt>
<trkpt lat="46.17864" lon="7.21422"><ele>478.6</ele><time>2016-08-28T07:51:53Z</time></trkpt>
<trkpt lat="46.17867" lon="7.21442"><ele>478.6</ele><time>2016-08-28T07:51:55Z</time></trkpt>
<trkpt lat="46.1787" lon="7.21463"><ele>478.6</ele><time>2016-08-28T07:51:57Z</time></trkpt>
<trkpt lat="46.17869" lon="7.21485"><ele>478.6</ele><time>2016-08-28T07:51:59Z</time></trkpt>
<trkpt lat="46.17868" lon="7.21507"><ele>478.6</ele><time>2016-08-28T07:52:01Z</time></trkpt>
<trkpt lat="46.17867" lon="7.2153"><ele>479.4</ele><time>2016-08-28T07:52:03Z</time></trkpt>
<trkpt lat="46.17867" lon="7.21548"><ele>480</ele><time>2016-08-28T07:52:05Z</time></trkpt>
<trkpt lat="46.17866" lon="7.21565"><ele>480.8</ele><time>2016-08-28T07:52:07Z</time></trkpt>
<trkpt lat="46.17866" lon="7.21583"><ele>480.8</ele><time>2016-08-28T07:52:09Z</time></trkpt>
<trkpt lat="46.17866" lon="7.21601"><ele>480.8</ele><time>2016-08-28T07:52:11Z</time></trkpt>
<trkpt lat="46.17866" lon="7.21618"><ele>480.8</ele><time>2016-08-28T07:52:13Z</time></trkpt>
<trkpt lat="46.17867" lon="7.21636"><ele>480.8</ele><time>2016-08-28T07:52:15Z</time></trkpt>
<trkpt lat="46.17868" lon="7.21653"><ele>480.6</ele><time>2016-08-28T07:52:17Z</time></trkpt>
<trkpt lat="46.17868" lon="7.21671"><ele>480.6</ele><time>2016-08-28T07:52:19Z</time></trkpt>
<trkpt lat="46.17868" lon="7.21687"><ele>480.6</ele><time>2016-08-28T07:52:21Z</time></trkpt>
<trkpt lat="46.17869" lon="7.21703"><ele>480.6</ele><time>2016-08-28T07:52:23Z</time></trkpt>
<trkpt lat="46.17869" lon="7.21718"><ele>480.6</ele><time>2016-08-28T07:52:25Z</time></trkpt>
<trkpt lat="46.17869" lon="7.21734"><ele>480.4</ele><time>2016-08-28T07:52:27Z</time></trkpt>
<trkpt lat="46.17869" lon="7.21742"><ele>480.4</ele><time>2016-08-28T07:52:28Z</time></trkpt>
<trkpt lat="46.1787" lon="7.21748"><ele>480.4</ele><time>2016-08-28T07:52:29Z</time></trkpt>
<trkpt lat="46.17872" lon="7.21761"><ele>480.4</ele><time>2016-08-28T07:52:31Z</time></trkpt>
<trkpt lat="46.17874" lon="7.21773"><ele>480.4</ele><time>2016-08-28T07:52:33Z</time></trkpt>
<trkpt lat="46.17876" lon="7.21786"><ele>480.4</ele><time>2016-08-28T07:52:35Z</time></trkpt>
<trkpt lat="46.1787" lon="7.21791"><ele>480.2</ele><time>2016-08-28T07:52:37Z</time></trkpt>
<trkpt lat="46.17867" lon="7.21793"><ele>480.2</ele><time>2016-08-28T07:52:38Z</time></trkpt>
<trkpt lat="46.17862" lon="7.21794"><ele>480.2</ele><time>2016-08-28T07:52:39Z</time></trkpt>
<trkpt lat="46.17853" lon="7.21795"><ele>480.2</ele><time>2016-08-28T07:52:41Z</time></trkpt>
<trkpt lat="46.17844" lon="7.21797"><ele>480.2</ele><time>2016-08-28T07:52:43Z</time></trkpt>
<trkpt lat="46.17834" lon="7.21798"><ele>480</ele><time>2016-08-28T07:52:45Z</time></trkpt>
<trkpt lat="46.17825" lon="7.218"><ele>480</ele><time>2016-08-28T07:52:47Z</time></trkpt>
<trkpt lat="46.1782" lon="7.218"><ele>480</ele><time>2016-08-28T07:52:48Z</time></trkpt>
<trkpt lat="46.17815" lon="7.21802"><ele>480</ele><time>2016-08-28T07:52:49Z</time></trkpt>
<trkpt lat="46.17805" lon="7.21804"><ele>480</ele><time>2016-08-28T07:52:51Z</time></trkpt>
<trkpt lat="46.17795" lon="7.21807"><ele>480</ele><time>2016-08-28T07:52:53Z</time></trkpt>
<trkpt lat="46.17784" lon="7.2181"><ele>479.8</ele><time>2016-08-28T07:52:55Z</time></trkpt>
<trkpt lat="46.17774" lon="7.21813"><ele>479.8</ele><time>2016-08-28T07:52:57Z</time></trkpt>
<trkpt lat="46.17763" lon="7.21821"><ele>479.8</ele><time>2016-08-28T07:52:59Z</time></trkpt>
<trkpt lat="46.17751" lon="7.2183"><ele>479.8</ele><time>2016-08-28T07:53:01Z</time></trkpt>
<trkpt lat="46.1774" lon="7.21838"><ele>479.8</ele><time>2016-08-28T07:53:03Z</time></trkpt>
<trkpt lat="46.17728" lon="7.21847"><ele>479.6</ele><time>2016-08-28T07:53:05Z</time></trkpt>
<trkpt lat="46.17716" lon="7.21863"><ele>479.6</ele><time>2016-08-28T07:53:07Z</time></trkpt>
<trkpt lat="46.17704" lon="7.21879"><ele>479.6</ele><time>2016-08-28T07:53:09Z</time></trkpt>
<trkpt lat="46.17691" lon="7.21896"><ele>479.6</ele><time>2016-08-28T07:53:11Z</time></trkpt>
<trkpt lat="46.17685" lon="7.21904"><ele>479.6</ele><time>2016-08-28T07:53:12Z</time></trkpt>
<trkpt lat="46.17679" lon="7.21912"><ele>479.4</ele><time>2016-08-28T07:53:13Z</time></trkpt>
<trkpt lat="46.17666" lon="7.21929"><ele>479.2</ele><time>2016-08-28T07:53:15Z</time></trkpt>
<trkpt lat="46.17653" lon="7.21945"><ele>479</ele><time>2016-08-28T07:53:17Z</time></trkpt>
<trkpt lat="46.17642" lon="7.2196"><ele>478.8</ele><time>2016-08-28T07:53:19Z</time></trkpt>
<trkpt lat="46.17631" lon="7.21975"><ele>478.8</ele><time>2016-08-28T07:53:21Z</time></trkpt>
<trkpt lat="46.1762" lon="7.2199"><ele>478.6</ele><time>2016-08-28T07:53:23Z</time></trkpt>
<trkpt lat="46.17615" lon="7.21997"><ele>478.4</ele><time>2016-08-28T07:53:24Z</time></trkpt>
<trkpt lat="46.17607" lon="7.22003"><ele>478.4</ele><time>2016-08-28T07:53:25Z</time></trkpt>
<trkpt lat="46.17598" lon="7.22017"><ele>478.2</ele><time>2016-08-28T07:53:27Z</time></trkpt>
<trkpt lat="46.17589" lon="7.22031"><ele>478</ele><time>2016-08-28T07:53:29Z</time></trkpt>
<trkpt lat="46.17584" lon="7.22038"><ele>478</ele><time>2016-08-28T07:53:30Z</time></trkpt>
<trkpt lat="46.1758" lon="7.22043"><ele>478.2</ele><time>2016-08-28T07:53:31Z</time></trkpt>
<trkpt lat="46.17573" lon="7.22052"><ele>478.6</ele><time>2016-08-28T07:53:33Z</time></trkpt>
<trkpt lat="46.17565" lon="7.22062"><ele>478.8</ele><time>2016-08-28T07:53:35Z</time></trkpt>
<trkpt lat="46.17557" lon="7.22071"><ele>479.2</ele><time>2016-08-28T07:53:37Z</time></trkpt>
<trkpt lat="46.17549" lon="7.22081"><ele>479.6</ele><time>2016-08-28T07:53:39Z</time></trkpt>
<trkpt lat="46.1754" lon="7.22084"><ele>479.8</ele><time>2016-08-28T07:53:41Z</time></trkpt>
<trkpt lat="46.17531" lon="7.22086"><ele>480.2</ele><time>2016-08-28T07:53:43Z</time></trkpt>
<trkpt lat="46.17522" lon="7.22089"><ele>480.4</ele><time>2016-08-28T07:53:45Z</time></trkpt>
<trkpt lat="46.17517" lon="7.2209"><ele>480.6</ele><time>2016-08-28T07:53:46Z</time></trkpt>
<trkpt lat="46.17513" lon="7.22087"><ele>480.8</ele><time>2016-08-28T07:53:47Z</time></trkpt>
<trkpt lat="46.17507" lon="7.22079"><ele>481.2</ele><time>2016-08-28T07:53:49Z</time></trkpt>
<trkpt lat="46.175" lon="7.22072"><ele>481.6</ele><time>2016-08-28T07:53:51Z</time></trkpt>
<trkpt lat="46.17494" lon="7.22064"><ele>482</ele><time>2016-08-28T07:53:53Z</time></trkpt>
<trkpt lat="46.17487" lon="7.22057"><ele>482.4</ele><time>2016-08-28T07:53:55Z</time></trkpt>
<trkpt lat="46.1748" lon="7.22049"><ele>482.8</ele><time>2016-08-28T07:53:57Z</time></trkpt>
<trkpt lat="46.17474" lon="7.2204"><ele>483.2</ele><time>2016-08-28T07:53:59Z</time></trkpt>
<trkpt lat="46.17468" lon="7.2203"><ele>483.4</ele><time>2016-08-28T07:54:01Z</time></trkpt>
<trkpt lat="46.17462" lon="7.2202"><ele>483.8</ele><time>2016-08-28T07:54:03Z</time></trkpt>
<trkpt lat="46.17457" lon="7.2201"><ele>484</ele><time>2016-08-28T07:54:05Z</time></trkpt>
<trkpt lat="46.17451" lon="7.22"><ele>484.4</ele><time>2016-08-28T07:54:07Z</time></trkpt>
<trkpt lat="46.17445" lon="7.21992"><ele>484.6</ele><time>2016-08-28T07:54:09Z</time></trkpt>
<trkpt lat="46.17442" lon="7.21988"><ele>484.8</ele><time>2016-08-28T07:54:10Z</time></trkpt>
<trkpt lat="46.17439" lon="7.21988"><ele>484.8</ele><time>2016-08-28T07:54:11Z</time></trkpt>
<trkpt lat="46.17435" lon="7.21988"><ele>485</ele><time>2016-08-28T07:54:12Z</time></trkpt>
<trkpt lat="46.17432" lon="7.21992"><ele>485.2</ele><time>2016-08-28T07:54:13Z</time></trkpt>
<trkpt lat="46.17426" lon="7.22001"><ele>485.4</ele><time>2016-08-28T07:54:15Z</time></trkpt>
<trkpt lat="46.1742" lon="7.2201"><ele>485.6</ele><time>2016-08-28T07:54:17Z</time></trkpt>
<trkpt lat="46.17414" lon="7.22019"><ele>486</ele><time>2016-08-28T07:54:19Z</time></trkpt>
<trkpt lat="46.17408" lon="7.22029"><ele>486.2</ele><time>2016-08-28T07:54:21Z</time></trkpt>
<trkpt lat="46.17405" lon="7.22036"><ele>486.6</ele><time>2016-08-28T07:54:23Z</time></trkpt>
<trkpt lat="46.17404" lon="7.2204"><ele>486.6</ele><time>2016-08-28T07:54:24Z</time></trkpt>
<trkpt lat="46.17402" lon="7.22043"><ele>486.8</ele><time>2016-08-28T07:54:25Z</time></trkpt>
<trkpt lat="46.174" lon="7.22051"><ele>487.2</ele><time>2016-08-28T07:54:27Z</time></trkpt>
<trkpt lat="46.17397" lon="7.22058"><ele>487.6</ele><time>2016-08-28T07:54:29Z</time></trkpt>
<trkpt lat="46.17394" lon="7.22065"><ele>488</ele><time>2016-08-28T07:54:31Z</time></trkpt>
<trkpt lat="46.17392" lon="7.22072"><ele>488.6</ele><time>2016-08-28T07:54:33Z</time></trkpt>
<trkpt lat="46.17389" lon="7.2208"><ele>489</ele><time>2016-08-28T07:54:35Z</time></trkpt>
<trkpt lat="46.17386" lon="7.22087"><ele>489.4</ele><time>2016-08-28T07:54:37Z</time></trkpt>
<trkpt lat="46.17384" lon="7.22093"><ele>489.8</ele><time>2016-08-28T07:54:39Z</time></trkpt>
<trkpt lat="46.17383" lon="7.22096"><ele>490</ele><time>2016-08-28T07:54:40Z</time></trkpt>
<trkpt lat="46.17382" lon="7.22099"><ele>490.2</ele><time>2016-08-28T07:54:41Z</time></trkpt>
<trkpt lat="46.1738" lon="7.22105"><ele>490.4</ele><time>2016-08-28T07:54:43Z</time></trkpt>
<trkpt lat="46.17378" lon="7.2211"><ele>490.8</ele><time>2016-08-28T07:54:45Z</time></trkpt>
<trkpt lat="46.17376" lon="7.22116"><ele>491</ele><time>2016-08-28T07:54:47Z</time></trkpt>
<trkpt lat="46.17374" lon="7.22122"><ele>491.4</ele><time>2016-08-28T07:54:49Z</time></trkpt>
<trkpt lat="46.17372" lon="7.22128"><ele>491.6</ele><time>2016-08-28T07:54:51Z</time></trkpt>
<trkpt lat="46.1737" lon="7.22134"><ele>492</ele><time>2016-08-28T07:54:53Z</time></trkpt>
<trkpt lat="46.17368" lon="7.2214"><ele>492.2</ele><time>2016-08-28T07:54:55Z</time></trkpt>
<trkpt lat="46.17366" lon="7.22146"><ele>492.6</ele><time>2016-08-28T07:54:57Z</time></trkpt>
<trkpt lat="46.17363" lon="7.22151"><ele>492.8</ele><time>2016-08-28T07:54:59Z</time></trkpt>
<trkpt lat="46.1736" lon="7.22157"><ele>493.2</ele><time>2016-08-28T07:55:01Z</time></trkpt>
<trkpt lat="46.17357" lon="7.22162"><ele>493.4</ele><time>2016-08-28T07:55:03Z</time></trkpt>
<trkpt lat="46.17355" lon="7.22167"><ele>493.8</ele><time>2016-08-28T07:55:05Z</time></trkpt>
<trkpt lat="46.17352" lon="7.22173"><ele>494.2</ele><time>2016-08-28T07:55:07Z</time></trkpt>
<trkpt lat="46.17349" lon="7.22178"><ele>494.4</ele><time>2016-08-28T07:55:09Z</time></trkpt>
<trkpt lat="46.17346" lon="7.22184"><ele>494.8</ele><time>2016-08-28T07:55:11Z</time></trkpt>
<trkpt lat="46.17344" lon="7.22189"><ele>495.2</ele><time>2016-08-28T07:55:13Z</time></trkpt>
<trkpt lat="46.17341" lon="7.22195"><ele>495.4</ele><time>2016-08-28T07:55:15Z</time></trkpt>
<trkpt lat="46.17338" lon="7.222"><ele>495.8</ele><time>2016-08-28T07:55:17Z</time></trkpt>
<trkpt lat="46.17335" lon="7.22205"><ele>496.2</ele><time>2016-08-28T07:55:19Z</time></trkpt>
<trkpt lat="46.17331" lon="7.2221"><ele>496.4</ele><time>2016-08-28T07:55:21Z</time></trkpt>
<trkpt lat="46.17328" lon="7.22215"><ele>496.8</ele><time>2016-08-28T07:55:23Z</time></trkpt>
<trkpt lat="46.17325" lon="7.2222"><ele>497.2</ele><time>2016-08-28T07:55:25Z</time></trkpt>
<trkpt lat="46.17321" lon="7.22225"><ele>497.4</ele><time>2016-08-28T07:55:27Z</time></trkpt>
<trkpt lat="46.17318" lon="7.2223"><ele>497.4</ele><time>2016-08-28T07:55:29Z</time></trkpt>
<trkpt lat="46.17315" lon="7.22235"><ele>497.6</ele><time>2016-08-28T07:55:31Z</time></trkpt>
<trkpt lat="46.17312" lon="7.2224"><ele>497.8</ele><time>2016-08-28T07:55:33Z</time></trkpt>
<trkpt lat="46.17308" lon="7.22245"><ele>498</ele><time>2016-08-28T07:55:35Z</time></trkpt>
<trkpt lat="46.17307" lon="7.22248"><ele>498</ele><time>2016-08-28T07:55:36Z</time></trkpt>
<trkpt lat="46.17305" lon="7.2225"><ele>498.2</ele><time>2016-08-28T07:55:37Z</time></trkpt>
<trkpt lat="46.17301" lon="7.22254"><ele>498.4</ele><time>2016-08-28T07:55:39Z</time></trkpt>
<trkpt lat="46.17298" lon="7.22258"><ele>498.4</ele><time>2016-08-28T07:55:41Z</time></trkpt>
<trkpt lat="46.17294" lon="7.22263"><ele>498.8</ele><time>2016-08-28T07:55:43Z</time></trkpt>
<trkpt lat="46.17291" lon="7.22267"><ele>499.4</ele><time>2016-08-28T07:55:45Z</time></trkpt>
<trkpt lat="46.17287" lon="7.22271"><ele>499.8</ele><time>2016-08-28T07:55:47Z</time></trkpt>
<trkpt lat="46.17284" lon="7.22275"><ele>500.2</ele><time>2016-08-28T07:55:49Z</time></trkpt>
<trkpt lat="46.1728" lon="7.2228"><ele>500.6</ele><time>2016-08-28T07:55:51Z</time></trkpt>
<trkpt lat="46.17277" lon="7.22284"><ele>501</ele><time>2016-08-28T07:55:53Z</time></trkpt>
<trkpt lat="46.17273" lon="7.22288"><ele>501.4</ele><time>2016-08-28T07:55:55Z</time></trkpt>
<trkpt lat="46.17271" lon="7.2229"><ele>501.8</ele><time>2016-08-28T07:55:56Z</time></trkpt>
<trkpt lat="46.1727" lon="7.22293"><ele>502</ele><time>2016-08-28T07:55:57Z</time></trkpt>
<trkpt lat="46.17266" lon="7.22299"><ele>502.4</ele><time>2016-08-28T07:55:59Z</time></trkpt>
<trkpt lat="46.17263" lon="7.22304"><ele>502.8</ele><time>2016-08-28T07:56:01Z</time></trkpt>
<trkpt lat="46.1726" lon="7.2231"><ele>503.2</ele><time>2016-08-28T07:56:03Z</time></trkpt>
<trkpt lat="46.17257" lon="7.22316"><ele>503.8</ele><time>2016-08-28T07:56:05Z</time></trkpt>
<trkpt lat="46.17253" lon="7.22321"><ele>504.2</ele><time>2016-08-28T07:56:07Z</time></trkpt>
<trkpt lat="46.17252" lon="7.22324"><ele>504.4</ele><time>2016-08-28T07:56:08Z</time></trkpt>
<trkpt lat="46.1725" lon="7.22327"><ele>504.6</ele><time>2016-08-28T07:56:09Z</time></trkpt>
<trkpt lat="46.17247" lon="7.22333"><ele>505</ele><time>2016-08-28T07:56:11Z</time></trkpt>
<trkpt lat="46.17244" lon="7.22339"><ele>505.4</ele><time>2016-08-28T07:56:13Z</time></trkpt>
<trkpt lat="46.17242" lon="7.22341"><ele>505.6</ele><time>2016-08-28T07:56:14Z</time></trkpt>
<trkpt lat="46.1724" lon="7.22344"><ele>505.8</ele><time>2016-08-28T07:56:15Z</time></trkpt>
<trkpt lat="46.17237" lon="7.22349"><ele>506.2</ele><time>2016-08-28T07:56:17Z</time></trkpt>
<trkpt lat="46.17234" lon="7.22355"><ele>506.6</ele><time>2016-08-28T07:56:19Z</time></trkpt>
<trkpt lat="46.17231" lon="7.2236"><ele>507</ele><time>2016-08-28T07:56:21Z</time></trkpt>
<trkpt lat="46.17228" lon="7.22365"><ele>507.4</ele><time>2016-08-28T07:56:23Z</time></trkpt>
<trkpt lat="46.17226" lon="7.22368"><ele>507.6</ele><time>2016-08-28T07:56:24Z</time></trkpt>
<trkpt lat="46.17223" lon="7.22366"><ele>507.8</ele><time>2016-08-28T07:56:25Z</time></trkpt>
<trkpt lat="46.17216" lon="7.22361"><ele>507.8</ele><time>2016-08-28T07:56:27Z</time></trkpt>
<trkpt lat="46.1721" lon="7.22356"><ele>507.8</ele><time>2016-08-28T07:56:29Z</time></trkpt>
<trkpt lat="46.17203" lon="7.22351"><ele>507.6</ele><time>2016-08-28T07:56:31Z</time></trkpt>
<trkpt lat="46.17196" lon="7.22345"><ele>507.6</ele><time>2016-08-28T07:56:33Z</time></trkpt>
<trkpt lat="46.1719" lon="7.2234"><ele>507.6</ele><time>2016-08-28T07:56:35Z</time></trkpt>
<trkpt lat="46.17183" lon="7.22335"><ele>507.6</ele><time>2016-08-28T07:56:37Z</time></trkpt>
<trkpt lat="46.17175" lon="7.22329"><ele>507.8</ele><time>2016-08-28T07:56:39Z</time></trkpt>
<trkpt lat="46.17167" lon="7.22323"><ele>507.8</ele><time>2016-08-28T07:56:41Z</time></trkpt>
<trkpt lat="46.17159" lon="7.22316"><ele>508</ele><time>2016-08-28T07:56:43Z</time></trkpt>
<trkpt lat="46.17151" lon="7.2231"><ele>508</ele><time>2016-08-28T07:56:45Z</time></trkpt>
<trkpt lat="46.17148" lon="7.22315"><ele>508</ele><time>2016-08-28T07:56:47Z</time></trkpt>
<trkpt lat="46.17145" lon="7.2232"><ele>508.2</ele><time>2016-08-28T07:56:49Z</time></trkpt>
<trkpt lat="46.17143" lon="7.22322"><ele>508.2</ele><time>2016-08-28T07:56:50Z</time></trkpt>
<trkpt lat="46.17142" lon="7.22324"><ele>508.2</ele><time>2016-08-28T07:56:51Z</time></trkpt>
<trkpt lat="46.1714" lon="7.22328"><ele>508.4</ele><time>2016-08-28T07:56:53Z</time></trkpt>
<trkpt lat="46.17138" lon="7.22331"><ele>508.4</ele><time>2016-08-28T07:56:55Z</time></trkpt>
<trkpt lat="46.17136" lon="7.22335"><ele>508.4</ele><time>2016-08-28T07:56:57Z</time></trkpt>
<trkpt lat="46.17135" lon="7.22339"><ele>508.6</ele><time>2016-08-28T07:56:59Z</time></trkpt>
<trkpt lat="46.17133" lon="7.22342"><ele>508.6</ele><time>2016-08-28T07:57:01Z</time></trkpt>
<trkpt lat="46.17131" lon="7.22346"><ele>508.8</ele><time>2016-08-28T07:57:03Z</time></trkpt>
<trkpt lat="46.17129" lon="7.22349"><ele>508.8</ele><time>2016-08-28T07:57:05Z</time></trkpt>
<trkpt lat="46.17127" lon="7.22353"><ele>509</ele><time>2016-08-28T07:57:07Z</time></trkpt>
<trkpt lat="46.17126" lon="7.22355"><ele>509</ele><time>2016-08-28T07:57:08Z</time></trkpt>
<trkpt lat="46.17125" lon="7.22356"><ele>509.2</ele><time>2016-08-28T07:57:09Z</time></trkpt>
<trkpt lat="46.17123" lon="7.2236"><ele>509.4</ele><time>2016-08-28T07:57:11Z</time></trkpt>
<trkpt lat="46.17121" lon="7.22364"><ele>509.8</ele><time>2016-08-28T07:57:13Z</time></trkpt>
<trkpt lat="46.17119" lon="7.22367"><ele>510</ele><time>2016-08-28T07:57:15Z</time></trkpt>
<trkpt lat="46.17117" lon="7.22371"><ele>510.4</ele><time>2016-08-28T07:57:17Z</time></trkpt>
<trkpt lat="46.17116" lon="7.22374"><ele>510.8</ele><time>2016-08-28T07:57:19Z</time></trkpt>
<trkpt lat="46.17111" lon="7.22373"><ele>511</ele><time>2016-08-28T07:57:21Z</time></trkpt>
<trkpt lat="46.17106" lon="7.22371"><ele>511.4</ele><time>2016-08-28T07:57:23Z</time></trkpt>
<trkpt lat="46.171" lon="7.22369"><ele>511.6</ele><time>2016-08-28T07:57:25Z</time></trkpt>
<trkpt lat="46.17095" lon="7.22367"><ele>512</ele><time>2016-08-28T07:57:27Z</time></trkpt>
<trkpt lat="46.1709" lon="7.22365"><ele>512.4</ele><time>2016-08-28T07:57:29Z</time></trkpt>
<trkpt lat="46.17085" lon="7.22363"><ele>512.4</ele><time>2016-08-28T07:57:31Z</time></trkpt>
<trkpt lat="46.1708" lon="7.22361"><ele>512.4</ele><time>2016-08-28T07:57:33Z</time></trkpt>
<trkpt lat="46.17075" lon="7.22359"><ele>512.4</ele><time>2016-08-28T07:57:35Z</time></trkpt>
<trkpt lat="46.1707" lon="7.22358"><ele>512.6</ele><time>2016-08-28T07:57:37Z</time></trkpt>
<trkpt lat="46.17063" lon="7.22355"><ele>512.6</ele><time>2016-08-28T07:57:39Z</time></trkpt>
<trkpt lat="46.1706" lon="7.22354"><ele>512.6</ele><time>2016-08-28T07:57:40Z</time></trkpt>
<trkpt lat="46.17057" lon="7.22352"><ele>512.6</ele><time>2016-08-28T07:57:41Z</time></trkpt>
<trkpt lat="46.1705" lon="7.2235"><ele>512.4</ele><time>2016-08-28T07:57:43Z</time></trkpt>
<trkpt lat="46.17044" lon="7.22347"><ele>512.2</ele><time>2016-08-28T07:57:45Z</time></trkpt>
<trkpt lat="46.17037" lon="7.22345"><ele>512</ele><time>2016-08-28T07:57:47Z</time></trkpt>
<trkpt lat="46.17034" lon="7.22344"><ele>511.8</ele><time>2016-08-28T07:57:48Z</time></trkpt>
<trkpt lat="46.17029" lon="7.22344"><ele>511.8</ele><time>2016-08-28T07:57:49Z</time></trkpt>
<trkpt lat="46.17018" lon="7.22345"><ele>511.6</ele><time>2016-08-28T07:57:51Z</time></trkpt>
<trkpt lat="46.17007" lon="7.22345"><ele>511.4</ele><time>2016-08-28T07:57:53Z</time></trkpt>
<trkpt lat="46.16996" lon="7.22346"><ele>511.2</ele><time>2016-08-28T07:57:55Z</time></trkpt>
<trkpt lat="46.16985" lon="7.22347"><ele>511</ele><time>2016-08-28T07:57:57Z</time></trkpt>
<trkpt lat="46.16972" lon="7.22347"><ele>510.8</ele><time>2016-08-28T07:57:59Z</time></trkpt>
<trkpt lat="46.1696" lon="7.22346"><ele>510.6</ele><time>2016-08-28T07:58:01Z</time></trkpt>
<trkpt lat="46.16948" lon="7.22345"><ele>510.4</ele><time>2016-08-28T07:58:03Z</time></trkpt>
<trkpt lat="46.16936" lon="7.22345"><ele>510.2</ele><time>2016-08-28T07:58:05Z</time></trkpt>
<trkpt lat="46.16925" lon="7.22341"><ele>510.2</ele><time>2016-08-28T07:58:07Z</time></trkpt>
<trkpt lat="46.1692" lon="7.22338"><ele>510</ele><time>2016-08-28T07:58:08Z</time></trkpt>
<trkpt lat="46.16914" lon="7.22336"><ele>509.8</ele><time>2016-08-28T07:58:09Z</time></trkpt>
<trkpt lat="46.16903" lon="7.22331"><ele>509.2</ele><time>2016-08-28T07:58:11Z</time></trkpt>
<trkpt lat="46.16892" lon="7.22327"><ele>508.6</ele><time>2016-08-28T07:58:13Z</time></trkpt>
<trkpt lat="46.16881" lon="7.22321"><ele>508</ele><time>2016-08-28T07:58:15Z</time></trkpt>
<trkpt lat="46.1687" lon="7.22315"><ele>507.4</ele><time>2016-08-28T07:58:17Z</time></trkpt>
<trkpt lat="46.16861" lon="7.22299"><ele>506.8</ele><time>2016-08-28T07:58:19Z</time></trkpt>
<trkpt lat="46.16856" lon="7.2228"><ele>506.2</ele><time>2016-08-28T07:58:21Z</time></trkpt>
<trkpt lat="46.16854" lon="7.22271"><ele>505.8</ele><time>2016-08-28T07:58:22Z</time></trkpt>
<trkpt lat="46.16851" lon="7.22264"><ele>505.6</ele><time>2016-08-28T07:58:23Z</time></trkpt>
<trkpt lat="46.16846" lon="7.22261"><ele>505.2</ele><time>2016-08-28T07:58:24Z</time></trkpt>
<trkpt lat="46.1684" lon="7.22261"><ele>505.2</ele><time>2016-08-28T07:58:25Z</time></trkpt>
<trkpt lat="46.16832" lon="7.22271"><ele>504.8</ele><time>2016-08-28T07:58:27Z</time></trkpt>
<trkpt lat="46.16824" lon="7.22282"><ele>504.6</ele><time>2016-08-28T07:58:29Z</time></trkpt>
<trkpt lat="46.16816" lon="7.22293"><ele>504.4</ele><time>2016-08-28T07:58:31Z</time></trkpt>
<trkpt lat="46.16808" lon="7.22304"><ele>504</ele><time>2016-08-28T07:58:33Z</time></trkpt>
<trkpt lat="46.16804" lon="7.22309"><ele>504</ele><time>2016-08-28T07:58:34Z</time></trkpt>
<trkpt lat="46.168" lon="7.22314"><ele>503.8</ele><time>2016-08-28T07:58:35Z</time></trkpt>
<trkpt lat="46.16796" lon="7.22319"><ele>503.6</ele><time>2016-08-28T07:58:36Z</time></trkpt>
<trkpt lat="46.16793" lon="7.22324"><ele>503.8</ele><time>2016-08-28T07:58:37Z</time></trkpt>
<trkpt lat="46.16785" lon="7.22334"><ele>504</ele><time>2016-08-28T07:58:39Z</time></trkpt>
<trkpt lat="46.16778" lon="7.22344"><ele>504.2</ele><time>2016-08-28T07:58:41Z</time></trkpt>
<trkpt lat="46.1677" lon="7.22354"><ele>504.4</ele><time>2016-08-28T07:58:43Z</time></trkpt>
<trkpt lat="46.16764" lon="7.22364"><ele>504.6</ele><time>2016-08-28T07:58:45Z</time></trkpt>
<trkpt lat="46.16759" lon="7.22374"><ele>504.8</ele><time>2016-08-28T07:58:47Z</time></trkpt>
<trkpt lat="46.16756" lon="7.22379"><ele>505</ele><time>2016-08-28T07:58:48Z</time></trkpt>
<trkpt lat="46.16753" lon="7.22384"><ele>505.2</ele><time>2016-08-28T07:58:49Z</time></trkpt>
<trkpt lat="46.16746" lon="7.22391"><ele>505.6</ele><time>2016-08-28T07:58:51Z</time></trkpt>
<trkpt lat="46.16739" lon="7.22398"><ele>506</ele><time>2016-08-28T07:58:53Z</time></trkpt>
<trkpt lat="46.16735" lon="7.22401"><ele>506.2</ele><time>2016-08-28T07:58:54Z</time></trkpt>
<trkpt lat="46.16731" lon="7.22404"><ele>506.4</ele><time>2016-08-28T07:58:55Z</time></trkpt>
<trkpt lat="46.16724" lon="7.22411"><ele>507</ele><time>2016-08-28T07:58:57Z</time></trkpt>
<trkpt lat="46.16721" lon="7.22415"><ele>507.2</ele><time>2016-08-28T07:58:58Z</time></trkpt>
<trkpt lat="46.16719" lon="7.22415"><ele>507.4</ele><time>2016-08-28T07:58:59Z</time></trkpt>
<trkpt lat="46.16715" lon="7.22413"><ele>507.8</ele><time>2016-08-28T07:59:01Z</time></trkpt>
<trkpt lat="46.16711" lon="7.22411"><ele>508.2</ele><time>2016-08-28T07:59:03Z</time></trkpt>
<trkpt lat="46.16707" lon="7.22409"><ele>508.8</ele><time>2016-08-28T07:59:05Z</time></trkpt>
<trkpt lat="46.16703" lon="7.22408"><ele>509.2</ele><time>2016-08-28T07:59:07Z</time></trkpt>
<trkpt lat="46.167" lon="7.22406"><ele>509.6</ele><time>2016-08-28T07:59:09Z</time></trkpt>
<trkpt lat="46.16696" lon="7.22404"><ele>510</ele><time>2016-08-28T07:59:11Z</time></trkpt>
<trkpt lat="46.16692" lon="7.22402"><ele>510.4</ele><time>2016-08-28T07:59:13Z</time></trkpt>
<trkpt lat="46.16688" lon="7.22401"><ele>510.6</ele><time>2016-08-28T07:59:15Z</time></trkpt>
<trkpt lat="46.16684" lon="7.22399"><ele>511</ele><time>2016-08-28T07:59:17Z</time></trkpt>
<trkpt lat="46.1668" lon="7.22397"><ele>511.2</ele><time>2016-08-28T07:59:19Z</time></trkpt>
<trkpt lat="46.16677" lon="7.22395"><ele>511.6</ele><time>2016-08-28T07:59:21Z</time></trkpt>
<trkpt lat="46.16673" lon="7.22394"><ele>512</ele><time>2016-08-28T07:59:23Z</time></trkpt>
<trkpt lat="46.1667" lon="7.22392"><ele>512.2</ele><time>2016-08-28T07:59:25Z</time></trkpt>
<trkpt lat="46.16667" lon="7.22391"><ele>512.6</ele><time>2016-08-28T07:59:27Z</time></trkpt>
<trkpt lat="46.16664" lon="7.22389"><ele>513</ele><time>2016-08-28T07:59:29Z</time></trkpt>
<trkpt lat="46.16661" lon="7.22388"><ele>513.2</ele><time>2016-08-28T07:59:31Z</time></trkpt>
<trkpt lat="46.16658" lon="7.22386"><ele>513.6</ele><time>2016-08-28T07:59:33Z</time></trkpt>
<trkpt lat="46.16654" lon="7.22385"><ele>513.8</ele><time>2016-08-28T07:59:35Z</time></trkpt>
<trkpt lat="46.16651" lon="7.22383"><ele>514.2</ele><time>2016-08-28T07:59:37Z</time></trkpt>
<trkpt lat="46.16648" lon="7.22382"><ele>514.6</ele><time>2016-08-28T07:59:39Z</time></trkpt>
<trkpt lat="46.16645" lon="7.2238"><ele>514.8</ele><time>2016-08-28T07:59:41Z</time></trkpt>
<trkpt lat="46.16642" lon="7.22379"><ele>515.2</ele><time>2016-08-28T07:59:43Z</time></trkpt>
<trkpt lat="46.16638" lon="7.22377"><ele>515.6</ele><time>2016-08-28T07:59:45Z</time></trkpt>
<trkpt lat="46.16635" lon="7.22376"><ele>515.8</ele><time>2016-08-28T07:59:47Z</time></trkpt>
<trkpt lat="46.16632" lon="7.22375"><ele>516.2</ele><time>2016-08-28T07:59:49Z</time></trkpt>
<trkpt lat="46.16629" lon="7.22372"><ele>516.4</ele><time>2016-08-28T07:59:51Z</time></trkpt>
<trkpt lat="46.16627" lon="7.22369"><ele>516.8</ele><time>2016-08-28T07:59:53Z</time></trkpt>
<trkpt lat="46.16625" lon="7.22367"><ele>517</ele><time>2016-08-28T07:59:55Z</time></trkpt>
<trkpt lat="46.16622" lon="7.22364"><ele>517.2</ele><time>2016-08-28T07:59:57Z</time></trkpt>
<trkpt lat="46.1662" lon="7.22361"><ele>517.4</ele><time>2016-08-28T07:59:59Z</time></trkpt>
<trkpt lat="46.16617" lon="7.22359"><ele>517.6</ele><time>2016-08-28T08:00:01Z</time></trkpt>
<trkpt lat="46.16615" lon="7.22356"><ele>517.8</ele><time>2016-08-28T08:00:03Z</time></trkpt>
<trkpt lat="46.16612" lon="7.22353"><ele>518</ele><time>2016-08-28T08:00:05Z</time></trkpt>
<trkpt lat="46.1661" lon="7.22351"><ele>518.4</ele><time>2016-08-28T08:00:07Z</time></trkpt>
<trkpt lat="46.16607" lon="7.22348"><ele>518.8</ele><time>2016-08-28T08:00:09Z</time></trkpt>
<trkpt lat="46.16606" lon="7.22347"><ele>518.8</ele><time>2016-08-28T08:00:10Z</time></trkpt>
<trkpt lat="46.16605" lon="7.22346"><ele>519</ele><time>2016-08-28T08:00:11Z</time></trkpt>
<trkpt lat="46.16602" lon="7.22343"><ele>519.4</ele><time>2016-08-28T08:00:13Z</time></trkpt>
<trkpt lat="46.166" lon="7.2234"><ele>519.8</ele><time>2016-08-28T08:00:15Z</time></trkpt>
<trkpt lat="46.16597" lon="7.22338"><ele>520.2</ele><time>2016-08-28T08:00:17Z</time></trkpt>
<trkpt lat="46.16595" lon="7.22335"><ele>520.6</ele><time>2016-08-28T08:00:19Z</time></trkpt>
<trkpt lat="46.16592" lon="7.22331"><ele>521</ele><time>2016-08-28T08:00:21Z</time></trkpt>
<trkpt lat="46.16589" lon="7.22328"><ele>521.4</ele><time>2016-08-28T08:00:23Z</time></trkpt>
<trkpt lat="46.16586" lon="7.22324"><ele>521.8</ele><time>2016-08-28T08:00:25Z</time></trkpt>
<trkpt lat="46.16583" lon="7.22321"><ele>522.2</ele><time>2016-08-28T08:00:27Z</time></trkpt>
<trkpt lat="46.1658" lon="7.22317"><ele>522.6</ele><time>2016-08-28T08:00:29Z</time></trkpt>
<trkpt lat="46.16577" lon="7.22314"><ele>523</ele><time>2016-08-28T08:00:31Z</time></trkpt>
<trkpt lat="46.16574" lon="7.2231"><ele>523.6</ele><time>2016-08-28T08:00:33Z</time></trkpt>
<trkpt lat="46.16571" lon="7.22306"><ele>524</ele><time>2016-08-28T08:00:35Z</time></trkpt>
<trkpt lat="46.16568" lon="7.22303"><ele>524.4</ele><time>2016-08-28T08:00:37Z</time></trkpt>
<trkpt lat="46.16565" lon="7.22299"><ele>525</ele><time>2016-08-28T08:00:39Z</time></trkpt>
<trkpt lat="46.16562" lon="7.22296"><ele>525.4</ele><time>2016-08-28T08:00:41Z</time></trkpt>
<trkpt lat="46.1656" lon="7.22292"><ele>525.8</ele><time>2016-08-28T08:00:43Z</time></trkpt>
<trkpt lat="46.16556" lon="7.22289"><ele>526.2</ele><time>2016-08-28T08:00:45Z</time></trkpt>
<trkpt lat="46.16553" lon="7.22286"><ele>526.4</ele><time>2016-08-28T08:00:47Z</time></trkpt>
<trkpt lat="46.16549" lon="7.22283"><ele>526.8</ele><time>2016-08-28T08:00:49Z</time></trkpt>
<trkpt lat="46.16546" lon="7.2228"><ele>527</ele><time>2016-08-28T08:00:51Z</time></trkpt>
<trkpt lat="46.16542" lon="7.22277"><ele>527.4</ele><time>2016-08-28T08:00:53Z</time></trkpt>
<trkpt lat="46.16539" lon="7.22275"><ele>527.8</ele><time>2016-08-28T08:00:55Z</time></trkpt>
<trkpt lat="46.16535" lon="7.22272"><ele>528</ele><time>2016-08-28T08:00:57Z</time></trkpt>
<trkpt lat="46.16532" lon="7.22269"><ele>528.4</ele><time>2016-08-28T08:00:59Z</time></trkpt>
<trkpt lat="46.16528" lon="7.22266"><ele>528.6</ele><time>2016-08-28T08:01:01Z</time></trkpt>
<trkpt lat="46.16525" lon="7.22263"><ele>529</ele><time>2016-08-28T08:01:03Z</time></trkpt>
<trkpt lat="46.16521" lon="7.2226"><ele>529.2</ele><time>2016-08-28T08:01:05Z</time></trkpt>
<trkpt lat="46.16519" lon="7.22258"><ele>529.4</ele><time>2016-08-28T08:01:06Z</time></trkpt>
<trkpt lat="46.16518" lon="7.22257"><ele>529.6</ele><time>2016-08-28T08:01:07Z</time></trkpt>
<trkpt lat="46.16514" lon="7.22254"><ele>530.2</ele><time>2016-08-28T08:01:09Z</time></trkpt>
<trkpt lat="46.16511" lon="7.22251"><ele>530.6</ele><time>2016-08-28T08:01:11Z</time></trkpt>
<trkpt lat="46.16508" lon="7.22247"><ele>531</ele><time>2016-08-28T08:01:13Z</time></trkpt>
<trkpt lat="46.16504" lon="7.22244"><ele>531.4</ele><time>2016-08-28T08:01:15Z</time></trkpt>
<trkpt lat="46.16501" lon="7.22241"><ele>531.8</ele><time>2016-08-28T08:01:17Z</time></trkpt>
<trkpt lat="46.16498" lon="7.22238"><ele>532.2</ele><time>2016-08-28T08:01:19Z</time></trkpt>
<trkpt lat="46.16494" lon="7.22235"><ele>532.6</ele><time>2016-08-28T08:01:21Z</time></trkpt>
<trkpt lat="46.16491" lon="7.22232"><ele>533</ele><time>2016-08-28T08:01:23Z</time></trkpt>
<trkpt lat="46.16488" lon="7.22229"><ele>533.4</ele><time>2016-08-28T08:01:25Z</time></trkpt>
<trkpt lat="46.16484" lon="7.22225"><ele>533.8</ele><time>2016-08-28T08:01:27Z</time></trkpt>
<trkpt lat="46.16481" lon="7.22222"><ele>534.2</ele><time>2016-08-28T08:01:29Z</time></trkpt>
<trkpt lat="46.16479" lon="7.22219"><ele>534.6</ele><time>2016-08-28T08:01:31Z</time></trkpt>
<trkpt lat="46.16476" lon="7.22215"><ele>535</ele><time>2016-08-28T08:01:33Z</time></trkpt>
<trkpt lat="46.16474" lon="7.22211"><ele>535.4</ele><time>2016-08-28T08:01:35Z</time></trkpt>
<trkpt lat="46.16471" lon="7.22207"><ele>535.8</ele><time>2016-08-28T08:01:37Z</time></trkpt>
<trkpt lat="46.16469" lon="7.22203"><ele>536.2</ele><time>2016-08-28T08:01:39Z</time></trkpt>
<trkpt lat="46.16466" lon="7.22199"><ele>536.4</ele><time>2016-08-28T08:01:41Z</time></trkpt>
<trkpt lat="46.16464" lon="7.22195"><ele>536.8</ele><time>2016-08-28T08:01:43Z</time></trkpt>
<trkpt lat="46.16461" lon="7.22191"><ele>537.2</ele><time>2016-08-28T08:01:45Z</time></trkpt>
<trkpt lat="46.16459" lon="7.22188"><ele>537.6</ele><time>2016-08-28T08:01:47Z</time></trkpt>
<trkpt lat="46.16456" lon="7.22184"><ele>538</ele><time>2016-08-28T08:01:49Z</time></trkpt>
<trkpt lat="46.16454" lon="7.2218"><ele>538.4</ele><time>2016-08-28T08:01:51Z</time></trkpt>
<trkpt lat="46.16451" lon="7.22176"><ele>538.8</ele><time>2016-08-28T08:01:53Z</time></trkpt>
<trkpt lat="46.1645" lon="7.22174"><ele>539</ele><time>2016-08-28T08:01:54Z</time></trkpt>
<trkpt lat="46.16449" lon="7.22172"><ele>539.2</ele><time>2016-08-28T08:01:55Z</time></trkpt>
<trkpt lat="46.16445" lon="7.22169"><ele>539.6</ele><time>2016-08-28T08:01:57Z</time></trkpt>
<trkpt lat="46.16442" lon="7.22166"><ele>540</ele><time>2016-08-28T08:01:59Z</time></trkpt>
<trkpt lat="46.1644" lon="7.22165"><ele>540.2</ele><time>2016-08-28T08:02:00Z</time></trkpt>
<trkpt lat="46.16439" lon="7.22163"><ele>540.4</ele><time>2016-08-28T08:02:01Z</time></trkpt>
<trkpt lat="46.16435" lon="7.2216"><ele>540.8</ele><time>2016-08-28T08:02:03Z</time></trkpt>
<trkpt lat="46.16432" lon="7.22157"><ele>541.2</ele><time>2016-08-28T08:02:05Z</time></trkpt>
<trkpt lat="46.16429" lon="7.22154"><ele>541.4</ele><time>2016-08-28T08:02:07Z</time></trkpt>
<trkpt lat="46.16425" lon="7.22151"><ele>541.8</ele><time>2016-08-28T08:02:09Z</time></trkpt>
<trkpt lat="46.16422" lon="7.22147"><ele>542.2</ele><time>2016-08-28T08:02:11Z</time></trkpt>
<trkpt lat="46.16419" lon="7.22144"><ele>542.6</ele><time>2016-08-28T08:02:13Z</time></trkpt>
<trkpt lat="46.16415" lon="7.22141"><ele>543</ele><time>2016-08-28T08:02:15Z</time></trkpt>
<trkpt lat="46.16412" lon="7.22138"><ele>543.4</ele><time>2016-08-28T08:02:17Z</time></trkpt>
<trkpt lat="46.16409" lon="7.22134"><ele>543.8</ele><time>2016-08-28T08:02:19Z</time></trkpt>
<trkpt lat="46.16407" lon="7.2213"><ele>544.2</ele><time>2016-08-28T08:02:21Z</time></trkpt>
<trkpt lat="46.16406" lon="7.22128"><ele>544.4</ele><time>2016-08-28T08:02:22Z</time></trkpt>
<trkpt lat="46.16405" lon="7.22126"><ele>544.4</ele><time>2016-08-28T08:02:23Z</time></trkpt>
<trkpt lat="46.16402" lon="7.22122"><ele>544.8</ele><time>2016-08-28T08:02:25Z</time></trkpt>
<trkpt lat="46.164" lon="7.22118"><ele>545.2</ele><time>2016-08-28T08:02:27Z</time></trkpt>
<trkpt lat="46.16397" lon="7.22113"><ele>545.6</ele><time>2016-08-28T08:02:29Z</time></trkpt>
<trkpt lat="46.16395" lon="7.22109"><ele>546</ele><time>2016-08-28T08:02:31Z</time></trkpt>
<trkpt lat="46.16392" lon="7.22105"><ele>546.4</ele><time>2016-08-28T08:02:33Z</time></trkpt>
<trkpt lat="46.1639" lon="7.22101"><ele>546.8</ele><time>2016-08-28T08:02:35Z</time></trkpt>
<trkpt lat="46.16388" lon="7.22097"><ele>547.2</ele><time>2016-08-28T08:02:37Z</time></trkpt>
<trkpt lat="46.16385" lon="7.22093"><ele>547.6</ele><time>2016-08-28T08:02:39Z</time></trkpt>
<trkpt lat="46.16383" lon="7.22089"><ele>548</ele><time>2016-08-28T08:02:41Z</time></trkpt>
<trkpt lat="46.16382" lon="7.22087"><ele>548.2</ele><time>2016-08-28T08:02:42Z</time></trkpt>
<trkpt lat="46.1638" lon="7.22085"><ele>548.2</ele><time>2016-08-28T08:02:43Z</time></trkpt>
<trkpt lat="46.16376" lon="7.22083"><ele>548.6</ele><time>2016-08-28T08:02:45Z</time></trkpt>
<trkpt lat="46.16373" lon="7.22081"><ele>549</ele><time>2016-08-28T08:02:47Z</time></trkpt>
<trkpt lat="46.16369" lon="7.22079"><ele>549.4</ele><time>2016-08-28T08:02:49Z</time></trkpt>
<trkpt lat="46.16366" lon="7.22076"><ele>549.6</ele><time>2016-08-28T08:02:51Z</time></trkpt>
<trkpt lat="46.16362" lon="7.22074"><ele>550</ele><time>2016-08-28T08:02:53Z</time></trkpt>
<trkpt lat="46.16359" lon="7.22072"><ele>550.4</ele><time>2016-08-28T08:02:55Z</time></trkpt>
<trkpt lat="46.16355" lon="7.2207"><ele>550.6</ele><time>2016-08-28T08:02:57Z</time></trkpt>
<trkpt lat="46.16352" lon="7.22068"><ele>551</ele><time>2016-08-28T08:02:59Z</time></trkpt>
<trkpt lat="46.16348" lon="7.22065"><ele>551.4</ele><time>2016-08-28T08:03:01Z</time></trkpt>
<trkpt lat="46.16345" lon="7.22063"><ele>551.6</ele><time>2016-08-28T08:03:03Z</time></trkpt>
<trkpt lat="46.16343" lon="7.22062"><ele>551.8</ele><time>2016-08-28T08:03:04Z</time></trkpt>
<trkpt lat="46.16341" lon="7.22061"><ele>552</ele><time>2016-08-28T08:03:05Z</time></trkpt>
<trkpt lat="46.1634" lon="7.2206"><ele>552.2</ele><time>2016-08-28T08:03:06Z</time></trkpt>
<trkpt lat="46.16338" lon="7.22059"><ele>552.4</ele><time>2016-08-28T08:03:07Z</time></trkpt>
<trkpt lat="46.16335" lon="7.22058"><ele>552.8</ele><time>2016-08-28T08:03:09Z</time></trkpt>
<trkpt lat="46.16331" lon="7.22057"><ele>553.2</ele><time>2016-08-28T08:03:11Z</time></trkpt>
<trkpt lat="46.16328" lon="7.22055"><ele>553.4</ele><time>2016-08-28T08:03:13Z</time></trkpt>
<trkpt lat="46.16324" lon="7.22054"><ele>553.8</ele><time>2016-08-28T08:03:15Z</time></trkpt>
<trkpt lat="46.16321" lon="7.22053"><ele>554.2</ele><time>2016-08-28T08:03:17Z</time></trkpt>
<trkpt lat="46.16318" lon="7.22052"><ele>554.6</ele><time>2016-08-28T08:03:19Z</time></trkpt>
<trkpt lat="46.16314" lon="7.2205"><ele>555</ele><time>2016-08-28T08:03:21Z</time></trkpt>
<trkpt lat="46.16311" lon="7.22049"><ele>555.2</ele><time>2016-08-28T08:03:23Z</time></trkpt>
<trkpt lat="46.16307" lon="7.22048"><ele>555.6</ele><time>2016-08-28T08:03:25Z</time></trkpt>
<trkpt lat="46.16306" lon="7.22047"><ele>555.8</ele><time>2016-08-28T08:03:26Z</time></trkpt>
<trkpt lat="46.16304" lon="7.22047"><ele>556</ele><time>2016-08-28T08:03:27Z</time></trkpt>
<trkpt lat="46.16301" lon="7.22045"><ele>556.4</ele><time>2016-08-28T08:03:29Z</time></trkpt>
<trkpt lat="46.16297" lon="7.22044"><ele>556.8</ele><time>2016-08-28T08:03:31Z</time></trkpt>
<trkpt lat="46.16295" lon="7.22043"><ele>557</ele><time>2016-08-28T08:03:32Z</time></trkpt>
<trkpt lat="46.16294" lon="7.22043"><ele>557</ele><time>2016-08-28T08:03:33Z</time></trkpt>
<trkpt lat="46.1629" lon="7.22042"><ele>557.4</ele><time>2016-08-28T08:03:35Z</time></trkpt>
<trkpt lat="46.16286" lon="7.22041"><ele>557.8</ele><time>2016-08-28T08:03:37Z</time></trkpt>
<trkpt lat="46.16282" lon="7.2204"><ele>558.2</ele><time>2016-08-28T08:03:39Z</time></trkpt>
<trkpt lat="46.16279" lon="7.22039"><ele>558.6</ele><time>2016-08-28T08:03:41Z</time></trkpt>
<trkpt lat="46.16275" lon="7.22038"><ele>558.8</ele><time>2016-08-28T08:03:43Z</time></trkpt>
<trkpt lat="46.16271" lon="7.22037"><ele>559.2</ele><time>2016-08-28T08:03:45Z</time></trkpt>
<trkpt lat="46.16268" lon="7.22036"><ele>559.6</ele><time>2016-08-28T08:03:47Z</time></trkpt>
<trkpt lat="46.16264" lon="7.22034"><ele>560</ele><time>2016-08-28T08:03:49Z</time></trkpt>
<trkpt lat="46.1626" lon="7.22033"><ele>560.2</ele><time>2016-08-28T08:03:51Z</time></trkpt>
<trkpt lat="46.16257" lon="7.22032"><ele>560.6</ele><time>2016-08-28T08:03:53Z</time></trkpt>
<trkpt lat="46.16253" lon="7.22031"><ele>561</ele><time>2016-08-28T08:03:55Z</time></trkpt>
<trkpt lat="46.16251" lon="7.22031"><ele>561.2</ele><time>2016-08-28T08:03:56Z</time></trkpt>
<trkpt lat="46.16249" lon="7.2203"><ele>561.4</ele><time>2016-08-28T08:03:57Z</time></trkpt>
<trkpt lat="46.16246" lon="7.22028"><ele>561.8</ele><time>2016-08-28T08:03:59Z</time></trkpt>
<trkpt lat="46.16243" lon="7.22025"><ele>562</ele><time>2016-08-28T08:04:01Z</time></trkpt>
<trkpt lat="46.1624" lon="7.22023"><ele>562.4</ele><time>2016-08-28T08:04:03Z</time></trkpt>
<trkpt lat="46.16238" lon="7.22022"><ele>562.6</ele><time>2016-08-28T08:04:04Z</time></trkpt>
<trkpt lat="46.16236" lon="7.22021"><ele>562.8</ele><time>2016-08-28T08:04:05Z</time></trkpt>
<trkpt lat="46.16233" lon="7.22019"><ele>563.2</ele><time>2016-08-28T08:04:07Z</time></trkpt>
<trkpt lat="46.1623" lon="7.22017"><ele>563.6</ele><time>2016-08-28T08:04:09Z</time></trkpt>
<trkpt lat="46.16227" lon="7.22014"><ele>564</ele><time>2016-08-28T08:04:11Z</time></trkpt>
<trkpt lat="46.16223" lon="7.22012"><ele>564.2</ele><time>2016-08-28T08:04:13Z</time></trkpt>
<trkpt lat="46.1622" lon="7.2201"><ele>564.6</ele><time>2016-08-28T08:04:15Z</time></trkpt>
<trkpt lat="46.16217" lon="7.22008"><ele>565</ele><time>2016-08-28T08:04:17Z</time></trkpt>
<trkpt lat="46.16214" lon="7.22006"><ele>565.4</ele><time>2016-08-28T08:04:19Z</time></trkpt>
<trkpt lat="46.16212" lon="7.22004"><ele>565.6</ele><time>2016-08-28T08:04:20Z</time></trkpt>
<trkpt lat="46.1621" lon="7.22003"><ele>565.8</ele><time>2016-08-28T08:04:21Z</time></trkpt>
<trkpt lat="46.16209" lon="7.22002"><ele>566</ele><time>2016-08-28T08:04:22Z</time></trkpt>
<trkpt lat="46.16207" lon="7.22001"><ele>566</ele><time>2016-08-28T08:04:23Z</time></trkpt>
<trkpt lat="46.16204" lon="7.21998"><ele>566.4</ele><time>2016-08-28T08:04:25Z</time></trkpt>
<trkpt lat="46.16201" lon="7.21996"><ele>566.8</ele><time>2016-08-28T08:04:27Z</time></trkpt>
<trkpt lat="46.16198" lon="7.21993"><ele>567</ele><time>2016-08-28T08:04:29Z</time></trkpt>
<trkpt lat="46.16194" lon="7.21991"><ele>567.4</ele><time>2016-08-28T08:04:31Z</time></trkpt>
<trkpt lat="46.16191" lon="7.21989"><ele>567.6</ele><time>2016-08-28T08:04:33Z</time></trkpt>
<trkpt lat="46.16188" lon="7.21986"><ele>568</ele><time>2016-08-28T08:04:35Z</time></trkpt>
<trkpt lat="46.16185" lon="7.21984"><ele>568.4</ele><time>2016-08-28T08:04:37Z</time></trkpt>
<trkpt lat="46.16182" lon="7.21981"><ele>568.6</ele><time>2016-08-28T08:04:39Z</time></trkpt>
<trkpt lat="46.16178" lon="7.21979"><ele>569</ele><time>2016-08-28T08:04:41Z</time></trkpt>
<trkpt lat="46.16175" lon="7.21976"><ele>569.2</ele><time>2016-08-28T08:04:43Z</time></trkpt>
<trkpt lat="46.16172" lon="7.21974"><ele>569.6</ele><time>2016-08-28T08:04:45Z</time></trkpt>
<trkpt lat="46.16169" lon="7.21971"><ele>570.2</ele><time>2016-08-28T08:04:47Z</time></trkpt>
<trkpt lat="46.16166" lon="7.21968"><ele>570.6</ele><time>2016-08-28T08:04:49Z</time></trkpt>
<trkpt lat="46.16163" lon="7.21965"><ele>571</ele><time>2016-08-28T08:04:51Z</time></trkpt>
<trkpt lat="46.1616" lon="7.21961"><ele>571.4</ele><time>2016-08-28T08:04:53Z</time></trkpt>
<trkpt lat="46.16157" lon="7.21958"><ele>571.8</ele><time>2016-08-28T08:04:55Z</time></trkpt>
<trkpt lat="46.16154" lon="7.21955"><ele>572.4</ele><time>2016-08-28T08:04:57Z</time></trkpt>
<trkpt lat="46.16152" lon="7.21953"><ele>572.6</ele><time>2016-08-28T08:04:58Z</time></trkpt>
<trkpt lat="46.16151" lon="7.21952"><ele>572.8</ele><time>2016-08-28T08:04:59Z</time></trkpt>
<trkpt lat="46.16148" lon="7.21948"><ele>573</ele><time>2016-08-28T08:05:01Z</time></trkpt>
<trkpt lat="46.16145" lon="7.21945"><ele>573.4</ele><time>2016-08-28T08:05:03Z</time></trkpt>
<trkpt lat="46.16142" lon="7.21942"><ele>573.8</ele><time>2016-08-28T08:05:05Z</time></trkpt>
<trkpt lat="46.16139" lon="7.21939"><ele>574.2</ele><time>2016-08-28T08:05:07Z</time></trkpt>
<trkpt lat="46.16135" lon="7.21936"><ele>574.4</ele><time>2016-08-28T08:05:09Z</time></trkpt>
<trkpt lat="46.16132" lon="7.21932"><ele>574.8</ele><time>2016-08-28T08:05:11Z</time></trkpt>
<trkpt lat="46.1613" lon="7.21929"><ele>575.2</ele><time>2016-08-28T08:05:13Z</time></trkpt>
<trkpt lat="46.16127" lon="7.21925"><ele>575.4</ele><time>2016-08-28T08:05:15Z</time></trkpt>
<trkpt lat="46.16124" lon="7.21922"><ele>575.8</ele><time>2016-08-28T08:05:17Z</time></trkpt>
<trkpt lat="46.16121" lon="7.21918"><ele>576.2</ele><time>2016-08-28T08:05:19Z</time></trkpt>
<trkpt lat="46.16118" lon="7.21914"><ele>576.6</ele><time>2016-08-28T08:05:21Z</time></trkpt>
<trkpt lat="46.16116" lon="7.21911"><ele>576.8</ele><time>2016-08-28T08:05:23Z</time></trkpt>
<trkpt lat="46.16113" lon="7.21907"><ele>577.2</ele><time>2016-08-28T08:05:25Z</time></trkpt>
<trkpt lat="46.1611" lon="7.21904"><ele>577.6</ele><time>2016-08-28T08:05:27Z</time></trkpt>
<trkpt lat="46.16107" lon="7.219"><ele>578</ele><time>2016-08-28T08:05:29Z</time></trkpt>
<trkpt lat="46.16104" lon="7.21897"><ele>578.2</ele><time>2016-08-28T08:05:31Z</time></trkpt>
<trkpt lat="46.16102" lon="7.21893"><ele>578.6</ele><time>2016-08-28T08:05:33Z</time></trkpt>
<trkpt lat="46.16099" lon="7.21889"><ele>579</ele><time>2016-08-28T08:05:35Z</time></trkpt>
<trkpt lat="46.16096" lon="7.21886"><ele>579.4</ele><time>2016-08-28T08:05:37Z</time></trkpt>
<trkpt lat="46.16093" lon="7.21883"><ele>579.6</ele><time>2016-08-28T08:05:39Z</time></trkpt>
<trkpt lat="46.16089" lon="7.2188"><ele>580</ele><time>2016-08-28T08:05:41Z</time></trkpt>
<trkpt lat="46.16086" lon="7.21877"><ele>580.4</ele><time>2016-08-28T08:05:43Z</time></trkpt>
<trkpt lat="46.16083" lon="7.21873"><ele>580.8</ele><time>2016-08-28T08:05:45Z</time></trkpt>
<trkpt lat="46.1608" lon="7.2187"><ele>581.2</ele><time>2016-08-28T08:05:47Z</time></trkpt>
<trkpt lat="46.16077" lon="7.21867"><ele>581.6</ele><time>2016-08-28T08:05:49Z</time></trkpt>
<trkpt lat="46.16074" lon="7.21864"><ele>582</ele><time>2016-08-28T08:05:51Z</time></trkpt>
<trkpt lat="46.1607" lon="7.21861"><ele>582.4</ele><time>2016-08-28T08:05:53Z</time></trkpt>
<trkpt lat="46.16067" lon="7.21857"><ele>582.8</ele><time>2016-08-28T08:05:55Z</time></trkpt>
<trkpt lat="46.16066" lon="7.21856"><ele>583</ele><time>2016-08-28T08:05:56Z</time></trkpt>
<trkpt lat="46.16064" lon="7.21854"><ele>583</ele><time>2016-08-28T08:05:57Z</time></trkpt>
<trkpt lat="46.16061" lon="7.21851"><ele>583.4</ele><time>2016-08-28T08:05:59Z</time></trkpt>
<trkpt lat="46.16058" lon="7.21848"><ele>583.6</ele><time>2016-08-28T08:06:01Z</time></trkpt>
<trkpt lat="46.16055" lon="7.21846"><ele>584</ele><time>2016-08-28T08:06:03Z</time></trkpt>
<trkpt lat="46.16052" lon="7.21843"><ele>584.2</ele><time>2016-08-28T08:06:05Z</time></trkpt>
<trkpt lat="46.16049" lon="7.2184"><ele>584.4</ele><time>2016-08-28T08:06:07Z</time></trkpt>
<trkpt lat="46.16046" lon="7.21837"><ele>584.8</ele><time>2016-08-28T08:06:09Z</time></trkpt>
<trkpt lat="46.16042" lon="7.21835"><ele>585</ele><time>2016-08-28T08:06:11Z</time></trkpt>
<trkpt lat="46.16039" lon="7.21832"><ele>585.4</ele><time>2016-08-28T08:06:13Z</time></trkpt>
<trkpt lat="46.16036" lon="7.21829"><ele>585.6</ele><time>2016-08-28T08:06:15Z</time></trkpt>
<trkpt lat="46.16033" lon="7.21827"><ele>586</ele><time>2016-08-28T08:06:17Z</time></trkpt>
<trkpt lat="46.1603" lon="7.21831"><ele>586.2</ele><time>2016-08-28T08:06:19Z</time></trkpt>
<trkpt lat="46.16028" lon="7.21835"><ele>586.4</ele><time>2016-08-28T08:06:21Z</time></trkpt>
<trkpt lat="46.16025" lon="7.2184"><ele>586.4</ele><time>2016-08-28T08:06:23Z</time></trkpt>
<trkpt lat="46.16024" lon="7.21842"><ele>586.6</ele><time>2016-08-28T08:06:24Z</time></trkpt>
<trkpt lat="46.16022" lon="7.21845"><ele>586.6</ele><time>2016-08-28T08:06:25Z</time></trkpt>
<trkpt lat="46.16026" lon="7.21848"><ele>587</ele><time>2016-08-28T08:06:27Z</time></trkpt>
<trkpt lat="46.1603" lon="7.21851"><ele>587.2</ele><time>2016-08-28T08:06:29Z</time></trkpt>
<trkpt lat="46.16035" lon="7.21854"><ele>587.4</ele><time>2016-08-28T08:06:31Z</time></trkpt>
<trkpt lat="46.16039" lon="7.21857"><ele>587.6</ele><time>2016-08-28T08:06:33Z</time></trkpt>
<trkpt lat="46.16043" lon="7.2186"><ele>588</ele><time>2016-08-28T08:06:35Z</time></trkpt>
<trkpt lat="46.16047" lon="7.21863"><ele>588.2</ele><time>2016-08-28T08:06:37Z</time></trkpt>
<trkpt lat="46.16051" lon="7.21866"><ele>588.4</ele><time>2016-08-28T08:06:39Z</time></trkpt>
<trkpt lat="46.16056" lon="7.21869"><ele>588.8</ele><time>2016-08-28T08:06:41Z</time></trkpt>
<trkpt lat="46.1606" lon="7.21872"><ele>589</ele><time>2016-08-28T08:06:43Z</time></trkpt>
<trkpt lat="46.16064" lon="7.21875"><ele>589.2</ele><time>2016-08-28T08:06:45Z</time></trkpt>
<trkpt lat="46.16067" lon="7.21879"><ele>589.6</ele><time>2016-08-28T08:06:47Z</time></trkpt>
<trkpt lat="46.1607" lon="7.21884"><ele>589.8</ele><time>2016-08-28T08:06:49Z</time></trkpt>
<trkpt lat="46.16072" lon="7.21888"><ele>590</ele><time>2016-08-28T08:06:51Z</time></trkpt>
<trkpt lat="46.16075" lon="7.21892"><ele>590.2</ele><time>2016-08-28T08:06:53Z</time></trkpt>
<trkpt lat="46.16077" lon="7.21897"><ele>590.6</ele><time>2016-08-28T08:06:55Z</time></trkpt>
<trkpt lat="46.16079" lon="7.21899"><ele>590.6</ele><time>2016-08-28T08:06:56Z</time></trkpt>
<trkpt lat="46.1608" lon="7.21901"><ele>590.8</ele><time>2016-08-28T08:06:57Z</time></trkpt>
<trkpt lat="46.16083" lon="7.21905"><ele>591.2</ele><time>2016-08-28T08:06:59Z</time></trkpt>
<trkpt lat="46.16085" lon="7.2191"><ele>591.6</ele><time>2016-08-28T08:07:01Z</time></trkpt>
<trkpt lat="46.16088" lon="7.21914"><ele>592</ele><time>2016-08-28T08:07:03Z</time></trkpt>
<trkpt lat="46.1609" lon="7.21919"><ele>592.4</ele><time>2016-08-28T08:07:05Z</time></trkpt>
<trkpt lat="46.16093" lon="7.21923"><ele>592.8</ele><time>2016-08-28T08:07:07Z</time></trkpt>
<trkpt lat="46.16094" lon="7.21925"><ele>593</ele><time>2016-08-28T08:07:08Z</time></trkpt>
<trkpt lat="46.16096" lon="7.21927"><ele>593.2</ele><time>2016-08-28T08:07:09Z</time></trkpt>
<trkpt lat="46.16098" lon="7.21932"><ele>593.6</ele><time>2016-08-28T08:07:11Z</time></trkpt>
<trkpt lat="46.161" lon="7.21937"><ele>594</ele><time>2016-08-28T08:07:13Z</time></trkpt>
<trkpt lat="46.16101" lon="7.21939"><ele>594.2</ele><time>2016-08-28T08:07:14Z</time></trkpt>
<trkpt lat="46.16103" lon="7.21942"><ele>594.4</ele><time>2016-08-28T08:07:15Z</time></trkpt>
<trkpt lat="46.16105" lon="7.21946"><ele>594.8</ele><time>2016-08-28T08:07:17Z</time></trkpt>
<trkpt lat="46.16107" lon="7.21951"><ele>595.2</ele><time>2016-08-28T08:07:19Z</time></trkpt>
<trkpt lat="46.1611" lon="7.21956"><ele>595.4</ele><time>2016-08-28T08:07:21Z</time></trkpt>
<trkpt lat="46.16112" lon="7.21961"><ele>595.8</ele><time>2016-08-28T08:07:23Z</time></trkpt>
<trkpt lat="46.16114" lon="7.21965"><ele>596.2</ele><time>2016-08-28T08:07:25Z</time></trkpt>
<trkpt lat="46.16117" lon="7.2197"><ele>596.6</ele><time>2016-08-28T08:07:27Z</time></trkpt>
<trkpt lat="46.16119" lon="7.21975"><ele>597</ele><time>2016-08-28T08:07:29Z</time></trkpt>
<trkpt lat="46.16121" lon="7.2198"><ele>597.4</ele><time>2016-08-28T08:07:31Z</time></trkpt>
<trkpt lat="46.16123" lon="7.21982"><ele>597.6</ele><time>2016-08-28T08:07:32Z</time></trkpt>
<trkpt lat="46.16124" lon="7.21984"><ele>597.8</ele><time>2016-08-28T08:07:33Z</time></trkpt>
<trkpt lat="46.16127" lon="7.21988"><ele>598.2</ele><time>2016-08-28T08:07:35Z</time></trkpt>
<trkpt lat="46.16129" lon="7.21992"><ele>598.4</ele><time>2016-08-28T08:07:37Z</time></trkpt>
<trkpt lat="46.16132" lon="7.21996"><ele>598.8</ele><time>2016-08-28T08:07:39Z</time></trkpt>
<trkpt lat="46.16135" lon="7.22"><ele>599.2</ele><time>2016-08-28T08:07:41Z</time></trkpt>
<trkpt lat="46.16137" lon="7.22004"><ele>599.6</ele><time>2016-08-28T08:07:43Z</time></trkpt>
<trkpt lat="46.1614" lon="7.22008"><ele>600</ele><time>2016-08-28T08:07:45Z</time></trkpt>
<trkpt lat="46.16143" lon="7.22012"><ele>600.4</ele><time>2016-08-28T08:07:47Z</time></trkpt>
<trkpt lat="46.16146" lon="7.22016"><ele>600.6</ele><time>2016-08-28T08:07:49Z</time></trkpt>
<trkpt lat="46.16148" lon="7.2202"><ele>601</ele><time>2016-08-28T08:07:51Z</time></trkpt>
<trkpt lat="46.16151" lon="7.22024"><ele>601.4</ele><time>2016-08-28T08:07:53Z</time></trkpt>
<trkpt lat="46.16154" lon="7.22028"><ele>601.8</ele><time>2016-08-28T08:07:55Z</time></trkpt>
<trkpt lat="46.16157" lon="7.22031"><ele>602.2</ele><time>2016-08-28T08:07:57Z</time></trkpt>
<trkpt lat="46.1616" lon="7.22034"><ele>602.6</ele><time>2016-08-28T08:07:59Z</time></trkpt>
<trkpt lat="46.16163" lon="7.22038"><ele>603</ele><time>2016-08-28T08:08:01Z</time></trkpt>
<trkpt lat="46.16167" lon="7.22041"><ele>603.4</ele><time>2016-08-28T08:08:03Z</time></trkpt>
<trkpt lat="46.1617" lon="7.22044"><ele>603.8</ele><time>2016-08-28T08:08:05Z</time></trkpt>
<trkpt lat="46.16173" lon="7.22048"><ele>604.2</ele><time>2016-08-28T08:08:07Z</time></trkpt>
<trkpt lat="46.16177" lon="7.22051"><ele>604.6</ele><time>2016-08-28T08:08:09Z</time></trkpt>
<trkpt lat="46.16178" lon="7.22053"><ele>604.8</ele><time>2016-08-28T08:08:10Z</time></trkpt>
<trkpt lat="46.1618" lon="7.22054"><ele>605</ele><time>2016-08-28T08:08:11Z</time></trkpt>
<trkpt lat="46.16183" lon="7.22058"><ele>605.2</ele><time>2016-08-28T08:08:13Z</time></trkpt>
<trkpt lat="46.16186" lon="7.22061"><ele>605.6</ele><time>2016-08-28T08:08:15Z</time></trkpt>
<trkpt lat="46.1619" lon="7.22064"><ele>606</ele><time>2016-08-28T08:08:17Z</time></trkpt>
<trkpt lat="46.16191" lon="7.22066"><ele>606.2</ele><time>2016-08-28T08:08:18Z</time></trkpt>
<trkpt lat="46.16193" lon="7.22067"><ele>606.4</ele><time>2016-08-28T08:08:19Z</time></trkpt>
<trkpt lat="46.16197" lon="7.22071"><ele>606.6</ele><time>2016-08-28T08:08:21Z</time></trkpt>
<trkpt lat="46.162" lon="7.22074"><ele>607</ele><time>2016-08-28T08:08:23Z</time></trkpt>
<trkpt lat="46.16204" lon="7.22077"><ele>607.4</ele><time>2016-08-28T08:08:25Z</time></trkpt>
<trkpt lat="46.16207" lon="7.2208"><ele>607.8</ele><time>2016-08-28T08:08:27Z</time></trkpt>
<trkpt lat="46.16211" lon="7.22083"><ele>608</ele><time>2016-08-28T08:08:29Z</time></trkpt>
<trkpt lat="46.16214" lon="7.22086"><ele>608.4</ele><time>2016-08-28T08:08:31Z</time></trkpt>
<trkpt lat="46.16216" lon="7.22088"><ele>608.6</ele><time>2016-08-28T08:08:32Z</time></trkpt>
<trkpt lat="46.16218" lon="7.2209"><ele>608.8</ele><time>2016-08-28T08:08:33Z</time></trkpt>
<trkpt lat="46.16222" lon="7.22093"><ele>609.2</ele><time>2016-08-28T08:08:35Z</time></trkpt>
<trkpt lat="46.16225" lon="7.22096"><ele>609.4</ele><time>2016-08-28T08:08:37Z</time></trkpt>
<trkpt lat="46.16229" lon="7.22099"><ele>609.8</ele><time>2016-08-28T08:08:39Z</time></trkpt>
<trkpt lat="46.1623" lon="7.22101"><ele>610</ele><time>2016-08-28T08:08:40Z</time></trkpt>
<trkpt lat="46.16232" lon="7.22102"><ele>610.2</ele><time>2016-08-28T08:08:41Z</time></trkpt>
<trkpt lat="46.16236" lon="7.22105"><ele>610.6</ele><time>2016-08-28T08:08:43Z</time></trkpt>
<trkpt lat="46.1624" lon="7.22109"><ele>611</ele><time>2016-08-28T08:08:45Z</time></trkpt>
<trkpt lat="46.16244" lon="7.22112"><ele>611.4</ele><time>2016-08-28T08:08:47Z</time></trkpt>
<trkpt lat="46.16248" lon="7.22115"><ele>611.6</ele><time>2016-08-28T08:08:49Z</time></trkpt>
<trkpt lat="46.16251" lon="7.22118"><ele>612</ele><time>2016-08-28T08:08:51Z</time></trkpt>
<trkpt lat="46.16255" lon="7.22121"><ele>612.6</ele><time>2016-08-28T08:08:53Z</time></trkpt>
<trkpt lat="46.16259" lon="7.22124"><ele>613</ele><time>2016-08-28T08:08:55Z</time></trkpt>
<trkpt lat="46.16263" lon="7.22127"><ele>613.4</ele><time>2016-08-28T08:08:57Z</time></trkpt>
<trkpt lat="46.16267" lon="7.2213"><ele>613.8</ele><time>2016-08-28T08:08:59Z</time></trkpt>
<trkpt lat="46.1627" lon="7.22133"><ele>614.2</ele><time>2016-08-28T08:09:01Z</time></trkpt>
<trkpt lat="46.16273" lon="7.22138"><ele>614.6</ele><time>2016-08-28T08:09:03Z</time></trkpt>
<trkpt lat="46.16276" lon="7.22142"><ele>615</ele><time>2016-08-28T08:09:05Z</time></trkpt>
<trkpt lat="46.16277" lon="7.22145"><ele>615.2</ele><time>2016-08-28T08:09:06Z</time></trkpt>
<trkpt lat="46.16279" lon="7.22147"><ele>615.4</ele><time>2016-08-28T08:09:07Z</time></trkpt>
<trkpt lat="46.16282" lon="7.22151"><ele>615.8</ele><time>2016-08-28T08:09:09Z</time></trkpt>
<trkpt lat="46.16284" lon="7.22156"><ele>616.2</ele><time>2016-08-28T08:09:11Z</time></trkpt>
<trkpt lat="46.16287" lon="7.22161"><ele>616.6</ele><time>2016-08-28T08:09:13Z</time></trkpt>
<trkpt lat="46.1629" lon="7.22165"><ele>617</ele><time>2016-08-28T08:09:15Z</time></trkpt>
<trkpt lat="46.16293" lon="7.2217"><ele>617.2</ele><time>2016-08-28T08:09:17Z</time></trkpt>
<trkpt lat="46.16295" lon="7.22174"><ele>617.6</ele><time>2016-08-28T08:09:19Z</time></trkpt>
<trkpt lat="46.16298" lon="7.22179"><ele>618</ele><time>2016-08-28T08:09:21Z</time></trkpt>
<trkpt lat="46.16301" lon="7.22183"><ele>618.4</ele><time>2016-08-28T08:09:23Z</time></trkpt>
<trkpt lat="46.16303" lon="7.22188"><ele>618.8</ele><time>2016-08-28T08:09:25Z</time></trkpt>
<trkpt lat="46.16306" lon="7.22193"><ele>619.2</ele><time>2016-08-28T08:09:27Z</time></trkpt>
<trkpt lat="46.16308" lon="7.22198"><ele>619.6</ele><time>2016-08-28T08:09:29Z</time></trkpt>
<trkpt lat="46.1631" lon="7.22204"><ele>619.8</ele><time>2016-08-28T08:09:31Z</time></trkpt>
<trkpt lat="46.16312" lon="7.22209"><ele>620.2</ele><time>2016-08-28T08:09:33Z</time></trkpt>
<trkpt lat="46.16315" lon="7.22214"><ele>620.6</ele><time>2016-08-28T08:09:35Z</time></trkpt>
<trkpt lat="46.16317" lon="7.22219"><ele>621</ele><time>2016-08-28T08:09:37Z</time></trkpt>
<trkpt lat="46.16319" lon="7.22224"><ele>621.4</ele><time>2016-08-28T08:09:39Z</time></trkpt>
<trkpt lat="46.1632" lon="7.22227"><ele>621.6</ele><time>2016-08-28T08:09:40Z</time></trkpt>
<trkpt lat="46.16321" lon="7.22229"><ele>621.8</ele><time>2016-08-28T08:09:41Z</time></trkpt>
<trkpt lat="46.16324" lon="7.22234"><ele>622</ele><time>2016-08-28T08:09:43Z</time></trkpt>
<trkpt lat="46.16326" lon="7.22239"><ele>622.2</ele><time>2016-08-28T08:09:45Z</time></trkpt>
<trkpt lat="46.16329" lon="7.22244"><ele>622.6</ele><time>2016-08-28T08:09:47Z</time></trkpt>
<trkpt lat="46.16332" lon="7.22248"><ele>622.8</ele><time>2016-08-28T08:09:49Z</time></trkpt>
<trkpt lat="46.16335" lon="7.22252"><ele>623.2</ele><time>2016-08-28T08:09:51Z</time></trkpt>
<trkpt lat="46.16338" lon="7.22257"><ele>623.4</ele><time>2016-08-28T08:09:53Z</time></trkpt>
<trkpt lat="46.16341" lon="7.22261"><ele>623.6</ele><time>2016-08-28T08:09:55Z</time></trkpt>
<trkpt lat="46.16344" lon="7.22266"><ele>624</ele><time>2016-08-28T08:09:57Z</time></trkpt>
<trkpt lat="46.16347" lon="7.2227"><ele>624.2</ele><time>2016-08-28T08:09:59Z</time></trkpt>
<trkpt lat="46.1635" lon="7.22274"><ele>624.6</ele><time>2016-08-28T08:10:01Z</time></trkpt>
<trkpt lat="46.16353" lon="7.22279"><ele>624.8</ele><time>2016-08-28T08:10:03Z</time></trkpt>
<trkpt lat="46.16356" lon="7.22283"><ele>625.2</ele><time>2016-08-28T08:10:05Z</time></trkpt>
<trkpt lat="46.16354" lon="7.22287"><ele>625.4</ele><time>2016-08-28T08:10:07Z</time></trkpt>
<trkpt lat="46.16352" lon="7.22292"><ele>625.8</ele><time>2016-08-28T08:10:09Z</time></trkpt>
<trkpt lat="46.16349" lon="7.22288"><ele>626</ele><time>2016-08-28T08:10:11Z</time></trkpt>
<trkpt lat="46.16346" lon="7.22284"><ele>626.4</ele><time>2016-08-28T08:10:13Z</time></trkpt>
<trkpt lat="46.16342" lon="7.22279"><ele>626.8</ele><time>2016-08-28T08:10:15Z</time></trkpt>
<trkpt lat="46.16339" lon="7.22275"><ele>627</ele><time>2016-08-28T08:10:17Z</time></trkpt>
<trkpt lat="46.16336" lon="7.22271"><ele>627.4</ele><time>2016-08-28T08:10:19Z</time></trkpt>
<trkpt lat="46.16333" lon="7.22267"><ele>627.6</ele><time>2016-08-28T08:10:21Z</time></trkpt>
<trkpt lat="46.1633" lon="7.22262"><ele>628</ele><time>2016-08-28T08:10:23Z</time></trkpt>
<trkpt lat="46.16328" lon="7.2226"><ele>628.2</ele><time>2016-08-28T08:10:24Z</time></trkpt>
<trkpt lat="46.16326" lon="7.22258"><ele>628.4</ele><time>2016-08-28T08:10:25Z</time></trkpt>
<trkpt lat="46.16323" lon="7.22254"><ele>628.6</ele><time>2016-08-28T08:10:27Z</time></trkpt>
<trkpt lat="46.1632" lon="7.22249"><ele>629</ele><time>2016-08-28T08:10:29Z</time></trkpt>
<trkpt lat="46.16318" lon="7.22247"><ele>629.2</ele><time>2016-08-28T08:10:30Z</time></trkpt>
<trkpt lat="46.16317" lon="7.22245"><ele>629.4</ele><time>2016-08-28T08:10:31Z</time></trkpt>
<trkpt lat="46.16313" lon="7.22241"><ele>629.8</ele><time>2016-08-28T08:10:33Z</time></trkpt>
<trkpt lat="46.1631" lon="7.22237"><ele>630.2</ele><time>2016-08-28T08:10:35Z</time></trkpt>
<trkpt lat="46.16307" lon="7.22233"><ele>630.6</ele><time>2016-08-28T08:10:37Z</time></trkpt>
<trkpt lat="46.16304" lon="7.22229"><ele>630.8</ele><time>2016-08-28T08:10:39Z</time></trkpt>
<trkpt lat="46.16301" lon="7.22224"><ele>631.2</ele><time>2016-08-28T08:10:41Z</time></trkpt>
<trkpt lat="46.16297" lon="7.2222"><ele>631.6</ele><time>2016-08-28T08:10:43Z</time></trkpt>
<trkpt lat="46.16294" lon="7.22216"><ele>632</ele><time>2016-08-28T08:10:45Z</time></trkpt>
<trkpt lat="46.16291" lon="7.22212"><ele>632.4</ele><time>2016-08-28T08:10:47Z</time></trkpt>
<trkpt lat="46.16288" lon="7.22208"><ele>632.6</ele><time>2016-08-28T08:10:49Z</time></trkpt>
<trkpt lat="46.16284" lon="7.22204"><ele>633</ele><time>2016-08-28T08:10:51Z</time></trkpt>
<trkpt lat="46.16281" lon="7.22201"><ele>633.4</ele><time>2016-08-28T08:10:53Z</time></trkpt>
<trkpt lat="46.16277" lon="7.22198"><ele>633.8</ele><time>2016-08-28T08:10:55Z</time></trkpt>
<trkpt lat="46.16274" lon="7.22195"><ele>634.2</ele><time>2016-08-28T08:10:57Z</time></trkpt>
<trkpt lat="46.1627" lon="7.22192"><ele>634.4</ele><time>2016-08-28T08:10:59Z</time></trkpt>
<trkpt lat="46.16267" lon="7.22189"><ele>634.8</ele><time>2016-08-28T08:11:01Z</time></trkpt>
<trkpt lat="46.16263" lon="7.22186"><ele>635.2</ele><time>2016-08-28T08:11:03Z</time></trkpt>
<trkpt lat="46.1626" lon="7.22183"><ele>635.6</ele><time>2016-08-28T08:11:05Z</time></trkpt>
<trkpt lat="46.16256" lon="7.2218"><ele>636</ele><time>2016-08-28T08:11:07Z</time></trkpt>
<trkpt lat="46.16254" lon="7.22178"><ele>636</ele><time>2016-08-28T08:11:08Z</time></trkpt>
<trkpt lat="46.16253" lon="7.22177"><ele>636.2</ele><time>2016-08-28T08:11:09Z</time></trkpt>
<trkpt lat="46.16249" lon="7.22174"><ele>636.6</ele><time>2016-08-28T08:11:11Z</time></trkpt>
<trkpt lat="46.16246" lon="7.22171"><ele>637</ele><time>2016-08-28T08:11:13Z</time></trkpt>
<trkpt lat="46.16244" lon="7.22169"><ele>637.2</ele><time>2016-08-28T08:11:14Z</time></trkpt>
<trkpt lat="46.16242" lon="7.22168"><ele>637.4</ele><time>2016-08-28T08:11:15Z</time></trkpt>
<trkpt lat="46.16238" lon="7.22166"><ele>637.8</ele><time>2016-08-28T08:11:17Z</time></trkpt>
<trkpt lat="46.16234" lon="7.22163"><ele>638</ele><time>2016-08-28T08:11:19Z</time></trkpt>
<trkpt lat="46.1623" lon="7.22161"><ele>638.4</ele><time>2016-08-28T08:11:21Z</time></trkpt>
<trkpt lat="46.16226" lon="7.22158"><ele>638.8</ele><time>2016-08-28T08:11:23Z</time></trkpt>
<trkpt lat="46.16222" lon="7.22156"><ele>639.2</ele><time>2016-08-28T08:11:25Z</time></trkpt>
<trkpt lat="46.1622" lon="7.22155"><ele>639.4</ele><time>2016-08-28T08:11:26Z</time></trkpt>
<trkpt lat="46.16218" lon="7.22153"><ele>639.6</ele><time>2016-08-28T08:11:27Z</time></trkpt>
<trkpt lat="46.16214" lon="7.22151"><ele>639.8</ele><time>2016-08-28T08:11:29Z</time></trkpt>
<trkpt lat="46.1621" lon="7.22148"><ele>640.2</ele><time>2016-08-28T08:11:31Z</time></trkpt>
<trkpt lat="46.16206" lon="7.22146"><ele>640.6</ele><time>2016-08-28T08:11:33Z</time></trkpt>
<trkpt lat="46.16202" lon="7.22144"><ele>641</ele><time>2016-08-28T08:11:35Z</time></trkpt>
<trkpt lat="46.16198" lon="7.22141"><ele>641.4</ele><time>2016-08-28T08:11:37Z</time></trkpt>
<trkpt lat="46.16195" lon="7.22139"><ele>641.6</ele><time>2016-08-28T08:11:39Z</time></trkpt>
<trkpt lat="46.16191" lon="7.22137"><ele>642</ele><time>2016-08-28T08:11:41Z</time></trkpt>
<trkpt lat="46.16187" lon="7.22135"><ele>642.4</ele><time>2016-08-28T08:11:43Z</time></trkpt>
<trkpt lat="46.16184" lon="7.22133"><ele>642.8</ele><time>2016-08-28T08:11:45Z</time></trkpt>
<trkpt lat="46.1618" lon="7.22131"><ele>643.2</ele><time>2016-08-28T08:11:47Z</time></trkpt>
<trkpt lat="46.16176" lon="7.22129"><ele>643.6</ele><time>2016-08-28T08:11:49Z</time></trkpt>
<trkpt lat="46.16173" lon="7.22127"><ele>644</ele><time>2016-08-28T08:11:51Z</time></trkpt>
<trkpt lat="46.16169" lon="7.22125"><ele>644.4</ele><time>2016-08-28T08:11:53Z</time></trkpt>
<trkpt lat="46.16165" lon="7.22122"><ele>644.8</ele><time>2016-08-28T08:11:55Z</time></trkpt>
<trkpt lat="46.16162" lon="7.2212"><ele>645.2</ele><time>2016-08-28T08:11:57Z</time></trkpt>
<trkpt lat="46.1616" lon="7.22119"><ele>645.4</ele><time>2016-08-28T08:11:58Z</time></trkpt>
<trkpt lat="46.16158" lon="7.22118"><ele>645.6</ele><time>2016-08-28T08:11:59Z</time></trkpt>
<trkpt lat="46.16154" lon="7.22116"><ele>646</ele><time>2016-08-28T08:12:01Z</time></trkpt>
<trkpt lat="46.16151" lon="7.22114"><ele>646.2</ele><time>2016-08-28T08:12:03Z</time></trkpt>
<trkpt lat="46.16149" lon="7.22113"><ele>646.4</ele><time>2016-08-28T08:12:04Z</time></trkpt>
<trkpt lat="46.16148" lon="7.22112"><ele>646.6</ele><time>2016-08-28T08:12:05Z</time></trkpt>
<trkpt lat="46.16144" lon="7.2211"><ele>647</ele><time>2016-08-28T08:12:07Z</time></trkpt>
<trkpt lat="46.16141" lon="7.22107"><ele>647.4</ele><time>2016-08-28T08:12:09Z</time></trkpt>
<trkpt lat="46.16137" lon="7.22105"><ele>647.8</ele><time>2016-08-28T08:12:11Z</time></trkpt>
<trkpt lat="46.16134" lon="7.22103"><ele>648.2</ele><time>2016-08-28T08:12:13Z</time></trkpt>
<trkpt lat="46.1613" lon="7.22101"><ele>648.6</ele><time>2016-08-28T08:12:15Z</time></trkpt>
<trkpt lat="46.16127" lon="7.22099"><ele>648.8</ele><time>2016-08-28T08:12:17Z</time></trkpt>
<trkpt lat="46.16123" lon="7.22097"><ele>649.2</ele><time>2016-08-28T08:12:19Z</time></trkpt>
<trkpt lat="46.1612" lon="7.22095"><ele>649.6</ele><time>2016-08-28T08:12:21Z</time></trkpt>
<trkpt lat="46.16118" lon="7.22093"><ele>649.8</ele><time>2016-08-28T08:12:22Z</time></trkpt>
<trkpt lat="46.16116" lon="7.22092"><ele>650</ele><time>2016-08-28T08:12:23Z</time></trkpt>
<trkpt lat="46.16113" lon="7.22089"><ele>650.4</ele><time>2016-08-28T08:12:25Z</time></trkpt>
<trkpt lat="46.16111" lon="7.22088"><ele>650.6</ele><time>2016-08-28T08:12:26Z</time></trkpt>
<trkpt lat="46.1611" lon="7.22086"><ele>650.8</ele><time>2016-08-28T08:12:27Z</time></trkpt>
<trkpt lat="46.16107" lon="7.22083"><ele>651.2</ele><time>2016-08-28T08:12:29Z</time></trkpt>
<trkpt lat="46.16103" lon="7.2208"><ele>651.4</ele><time>2016-08-28T08:12:31Z</time></trkpt>
<trkpt lat="46.161" lon="7.22077"><ele>651.8</ele><time>2016-08-28T08:12:33Z</time></trkpt>
<trkpt lat="46.16097" lon="7.22074"><ele>652.2</ele><time>2016-08-28T08:12:35Z</time></trkpt>
<trkpt lat="46.16094" lon="7.22072"><ele>652.6</ele><time>2016-08-28T08:12:37Z</time></trkpt>
<trkpt lat="46.1609" lon="7.22069"><ele>653</ele><time>2016-08-28T08:12:39Z</time></trkpt>
<trkpt lat="46.16087" lon="7.22066"><ele>653.4</ele><time>2016-08-28T08:12:41Z</time></trkpt>
<trkpt lat="46.16084" lon="7.22063"><ele>653.8</ele><time>2016-08-28T08:12:43Z</time></trkpt>
<trkpt lat="46.1608" lon="7.2206"><ele>654</ele><time>2016-08-28T08:12:45Z</time></trkpt>
<trkpt lat="46.16079" lon="7.22058"><ele>654.2</ele><time>2016-08-28T08:12:46Z</time></trkpt>
<trkpt lat="46.16077" lon="7.22057"><ele>654.4</ele><time>2016-08-28T08:12:47Z</time></trkpt>
<trkpt lat="46.16073" lon="7.22054"><ele>654.8</ele><time>2016-08-28T08:12:49Z</time></trkpt>
<trkpt lat="46.1607" lon="7.22051"><ele>655.2</ele><time>2016-08-28T08:12:51Z</time></trkpt>
<trkpt lat="46.16066" lon="7.22048"><ele>655.4</ele><time>2016-08-28T08:12:53Z</time></trkpt>
<trkpt lat="46.16063" lon="7.22045"><ele>655.8</ele><time>2016-08-28T08:12:55Z</time></trkpt>
<trkpt lat="46.16059" lon="7.22042"><ele>656.2</ele><time>2016-08-28T08:12:57Z</time></trkpt>
<trkpt lat="46.16056" lon="7.2204"><ele>656.6</ele><time>2016-08-28T08:12:59Z</time></trkpt>
<trkpt lat="46.16052" lon="7.22037"><ele>656.8</ele><time>2016-08-28T08:13:01Z</time></trkpt>
<trkpt lat="46.16048" lon="7.22034"><ele>657.2</ele><time>2016-08-28T08:13:03Z</time></trkpt>
<trkpt lat="46.16045" lon="7.22031"><ele>657.6</ele><time>2016-08-28T08:13:05Z</time></trkpt>
<trkpt lat="46.16041" lon="7.22028"><ele>658</ele><time>2016-08-28T08:13:07Z</time></trkpt>
<trkpt lat="46.16039" lon="7.22027"><ele>658.2</ele><time>2016-08-28T08:13:08Z</time></trkpt>
<trkpt lat="46.16038" lon="7.22025"><ele>658.4</ele><time>2016-08-28T08:13:09Z</time></trkpt>
<trkpt lat="46.16035" lon="7.22022"><ele>658.8</ele><time>2016-08-28T08:13:11Z</time></trkpt>
<trkpt lat="46.16031" lon="7.22019"><ele>659</ele><time>2016-08-28T08:13:13Z</time></trkpt>
<trkpt lat="46.16028" lon="7.22016"><ele>659.4</ele><time>2016-08-28T08:13:15Z</time></trkpt>
<trkpt lat="46.16025" lon="7.22013"><ele>659.8</ele><time>2016-08-28T08:13:17Z</time></trkpt>
<trkpt lat="46.16022" lon="7.2201"><ele>660.2</ele><time>2016-08-28T08:13:19Z</time></trkpt>
<trkpt lat="46.16019" lon="7.22007"><ele>660.6</ele><time>2016-08-28T08:13:21Z</time></trkpt>
<trkpt lat="46.16017" lon="7.22005"><ele>660.6</ele><time>2016-08-28T08:13:22Z</time></trkpt>
<trkpt lat="46.16016" lon="7.22004"><ele>660.8</ele><time>2016-08-28T08:13:23Z</time></trkpt>
<trkpt lat="46.16012" lon="7.22001"><ele>661.2</ele><time>2016-08-28T08:13:25Z</time></trkpt>
<trkpt lat="46.16009" lon="7.21997"><ele>661.6</ele><time>2016-08-28T08:13:27Z</time></trkpt>
<trkpt lat="46.16006" lon="7.21994"><ele>662</ele><time>2016-08-28T08:13:29Z</time></trkpt>
<trkpt lat="46.16003" lon="7.21991"><ele>662.4</ele><time>2016-08-28T08:13:31Z</time></trkpt>
<trkpt lat="46.16001" lon="7.2199"><ele>662.6</ele><time>2016-08-28T08:13:32Z</time></trkpt>
<trkpt lat="46.16" lon="7.21988"><ele>662.8</ele><time>2016-08-28T08:13:33Z</time></trkpt>
<trkpt lat="46.15997" lon="7.21985"><ele>663</ele><time>2016-08-28T08:13:35Z</time></trkpt>
<trkpt lat="46.15993" lon="7.21982"><ele>663.4</ele><time>2016-08-28T08:13:37Z</time></trkpt>
<trkpt lat="46.1599" lon="7.21979"><ele>663.8</ele><time>2016-08-28T08:13:39Z</time></trkpt>
<trkpt lat="46.15987" lon="7.21976"><ele>664.2</ele><time>2016-08-28T08:13:41Z</time></trkpt>
<trkpt lat="46.15984" lon="7.21973"><ele>664.6</ele><time>2016-08-28T08:13:43Z</time></trkpt>
<trkpt lat="46.15981" lon="7.2197"><ele>665</ele><time>2016-08-28T08:13:45Z</time></trkpt>
<trkpt lat="46.15978" lon="7.21967"><ele>665.4</ele><time>2016-08-28T08:13:47Z</time></trkpt>
<trkpt lat="46.15975" lon="7.21964"><ele>665.8</ele><time>2016-08-28T08:13:49Z</time></trkpt>
<trkpt lat="46.15971" lon="7.21961"><ele>666.2</ele><time>2016-08-28T08:13:51Z</time></trkpt>
<trkpt lat="46.15968" lon="7.21958"><ele>666.4</ele><time>2016-08-28T08:13:53Z</time></trkpt>
<trkpt lat="46.15965" lon="7.21955"><ele>666.8</ele><time>2016-08-28T08:13:55Z</time></trkpt>
<trkpt lat="46.15963" lon="7.21953"><ele>667</ele><time>2016-08-28T08:13:56Z</time></trkpt>
<trkpt lat="46.15962" lon="7.21952"><ele>667.2</ele><time>2016-08-28T08:13:57Z</time></trkpt>
<trkpt lat="46.15959" lon="7.21948"><ele>667.6</ele><time>2016-08-28T08:13:59Z</time></trkpt>
<trkpt lat="46.15956" lon="7.21945"><ele>668</ele><time>2016-08-28T08:14:01Z</time></trkpt>
<trkpt lat="46.15953" lon="7.21941"><ele>668.2</ele><time>2016-08-28T08:14:03Z</time></trkpt>
<trkpt lat="46.1595" lon="7.21938"><ele>668.6</ele><time>2016-08-28T08:14:05Z</time></trkpt>
<trkpt lat="46.15947" lon="7.21934"><ele>669</ele><time>2016-08-28T08:14:07Z</time></trkpt>
<trkpt lat="46.15944" lon="7.21931"><ele>669.2</ele><time>2016-08-28T08:14:09Z</time></trkpt>
<trkpt lat="46.15941" lon="7.21927"><ele>669.6</ele><time>2016-08-28T08:14:11Z</time></trkpt>
<trkpt lat="46.15938" lon="7.21924"><ele>670</ele><time>2016-08-28T08:14:13Z</time></trkpt>
<trkpt lat="46.15935" lon="7.2192"><ele>670.4</ele><time>2016-08-28T08:14:15Z</time></trkpt>
<trkpt lat="46.15932" lon="7.21917"><ele>670.6</ele><time>2016-08-28T08:14:17Z</time></trkpt>
<trkpt lat="46.15929" lon="7.21913"><ele>671</ele><time>2016-08-28T08:14:19Z</time></trkpt>
<trkpt lat="46.15928" lon="7.21912"><ele>671.2</ele><time>2016-08-28T08:14:20Z</time></trkpt>
<trkpt lat="46.15926" lon="7.2191"><ele>671.4</ele><time>2016-08-28T08:14:21Z</time></trkpt>
<trkpt lat="46.15924" lon="7.21907"><ele>671.8</ele><time>2016-08-28T08:14:23Z</time></trkpt>
<trkpt lat="46.15921" lon="7.21903"><ele>672.2</ele><time>2016-08-28T08:14:25Z</time></trkpt>
<trkpt lat="46.15918" lon="7.219"><ele>672.4</ele><time>2016-08-28T08:14:27Z</time></trkpt>
<trkpt lat="46.15916" lon="7.21897"><ele>672.8</ele><time>2016-08-28T08:14:29Z</time></trkpt>
<trkpt lat="46.15913" lon="7.21894"><ele>673.2</ele><time>2016-08-28T08:14:31Z</time></trkpt>
<trkpt lat="46.1591" lon="7.2189"><ele>673.6</ele><time>2016-08-28T08:14:33Z</time></trkpt>
<trkpt lat="46.15908" lon="7.21887"><ele>674</ele><time>2016-08-28T08:14:35Z</time></trkpt>
<trkpt lat="46.15905" lon="7.21884"><ele>674.4</ele><time>2016-08-28T08:14:37Z</time></trkpt>
<trkpt lat="46.15902" lon="7.21881"><ele>674.8</ele><time>2016-08-28T08:14:39Z</time></trkpt>
<trkpt lat="46.159" lon="7.21877"><ele>675</ele><time>2016-08-28T08:14:41Z</time></trkpt>
<trkpt lat="46.15898" lon="7.21876"><ele>675.2</ele><time>2016-08-28T08:14:42Z</time></trkpt>
<trkpt lat="46.15897" lon="7.21874"><ele>675.4</ele><time>2016-08-28T08:14:43Z</time></trkpt>
<trkpt lat="46.15894" lon="7.21871"><ele>675.8</ele><time>2016-08-28T08:14:45Z</time></trkpt>
<trkpt lat="46.15893" lon="7.21869"><ele>676</ele><time>2016-08-28T08:14:46Z</time></trkpt>
<trkpt lat="46.15889" lon="7.21867"><ele>676.2</ele><time>2016-08-28T08:14:47Z</time></trkpt>
<trkpt lat="46.15881" lon="7.21864"><ele>676.6</ele><time>2016-08-28T08:14:49Z</time></trkpt>
<trkpt lat="46.15874" lon="7.2186"><ele>677</ele><time>2016-08-28T08:14:51Z</time></trkpt>
<trkpt lat="46.15866" lon="7.21857"><ele>677.4</ele><time>2016-08-28T08:14:53Z</time></trkpt>
<trkpt lat="46.15858" lon="7.21853"><ele>677.8</ele><time>2016-08-28T08:14:55Z</time></trkpt>
<trkpt lat="46.1585" lon="7.2185"><ele>678.2</ele><time>2016-08-28T08:14:57Z</time></trkpt>
<trkpt lat="46.15843" lon="7.21846"><ele>678.6</ele><time>2016-08-28T08:14:59Z</time></trkpt>
<trkpt lat="46.15839" lon="7.21845"><ele>678.8</ele><time>2016-08-28T08:15:00Z</time></trkpt>
<trkpt lat="46.15839" lon="7.21841"><ele>679</ele><time>2016-08-28T08:15:01Z</time></trkpt>
<trkpt lat="46.15839" lon="7.21835"><ele>679.4</ele><time>2016-08-28T08:15:03Z</time></trkpt>
<trkpt lat="46.15839" lon="7.21828"><ele>679.8</ele><time>2016-08-28T08:15:05Z</time></trkpt>
<trkpt lat="46.15839" lon="7.21821"><ele>680.2</ele><time>2016-08-28T08:15:07Z</time></trkpt>
<trkpt lat="46.1584" lon="7.21818"><ele>680.4</ele><time>2016-08-28T08:15:08Z</time></trkpt>
<trkpt lat="46.1584" lon="7.21815"><ele>680.6</ele><time>2016-08-28T08:15:09Z</time></trkpt>
<trkpt lat="46.1584" lon="7.21808"><ele>681</ele><time>2016-08-28T08:15:11Z</time></trkpt>
<trkpt lat="46.1584" lon="7.21801"><ele>681.4</ele><time>2016-08-28T08:15:13Z</time></trkpt>
<trkpt lat="46.1584" lon="7.21795"><ele>681.8</ele><time>2016-08-28T08:15:15Z</time></trkpt>
<trkpt lat="46.15841" lon="7.21788"><ele>682</ele><time>2016-08-28T08:15:17Z</time></trkpt>
<trkpt lat="46.15841" lon="7.21781"><ele>682.4</ele><time>2016-08-28T08:15:19Z</time></trkpt>
<trkpt lat="46.15841" lon="7.21775"><ele>682.8</ele><time>2016-08-28T08:15:21Z</time></trkpt>
<trkpt lat="46.15841" lon="7.21768"><ele>683.2</ele><time>2016-08-28T08:15:23Z</time></trkpt>
<trkpt lat="46.15842" lon="7.21761"><ele>683.6</ele><time>2016-08-28T08:15:25Z</time></trkpt>
<trkpt lat="46.15842" lon="7.21755"><ele>683.8</ele><time>2016-08-28T08:15:27Z</time></trkpt>
<trkpt lat="46.15842" lon="7.21748"><ele>684.2</ele><time>2016-08-28T08:15:29Z</time></trkpt>
<trkpt lat="46.15842" lon="7.21744"><ele>684.6</ele><time>2016-08-28T08:15:31Z</time></trkpt>
<trkpt lat="46.15842" lon="7.21739"><ele>685</ele><time>2016-08-28T08:15:33Z</time></trkpt>
<trkpt lat="46.15841" lon="7.21737"><ele>685.2</ele><time>2016-08-28T08:15:34Z</time></trkpt>
<trkpt lat="46.15841" lon="7.21735"><ele>685.4</ele><time>2016-08-28T08:15:35Z</time></trkpt>
<trkpt lat="46.15841" lon="7.2173"><ele>685.8</ele><time>2016-08-28T08:15:37Z</time></trkpt>
<trkpt lat="46.15841" lon="7.21726"><ele>686.2</ele><time>2016-08-28T08:15:39Z</time></trkpt>
<trkpt lat="46.1584" lon="7.21722"><ele>686.6</ele><time>2016-08-28T08:15:41Z</time></trkpt>
<trkpt lat="46.1584" lon="7.21717"><ele>687</ele><time>2016-08-28T08:15:43Z</time></trkpt>
<trkpt lat="46.1584" lon="7.21713"><ele>687.4</ele><time>2016-08-28T08:15:45Z</time></trkpt>
<trkpt lat="46.1584" lon="7.21708"><ele>687.8</ele><time>2016-08-28T08:15:47Z</time></trkpt>
<trkpt lat="46.15829" lon="7.2168"><ele>690.2</ele><time>2016-08-28T08:15:50Z</time></trkpt>
<trkpt lat="46.15829" lon="7.2168"><ele>690.2</ele><time>2016-08-28T08:17:47Z</time></trkpt>
<trkpt lat="46.15818" lon="7.21656"><ele>692.2</ele><time>2016-08-28T08:17:49Z</time></trkpt>
<trkpt lat="46.15816" lon="7.21654"><ele>692.2</ele><time>2016-08-28T08:17:51Z</time></trkpt>
<trkpt lat="46.15815" lon="7.21652"><ele>692.2</ele><time>2016-08-28T08:17:53Z</time></trkpt>
<trkpt lat="46.15813" lon="7.2165"><ele>692.2</ele><time>2016-08-28T08:17:55Z</time></trkpt>
<trkpt lat="46.15812" lon="7.21648"><ele>692.4</ele><time>2016-08-28T08:17:57Z</time></trkpt>
<trkpt lat="46.1581" lon="7.21646"><ele>692.4</ele><time>2016-08-28T08:17:59Z</time></trkpt>
<trkpt lat="46.1581" lon="7.21645"><ele>692.4</ele><time>2016-08-28T08:18:00Z</time></trkpt>
<trkpt lat="46.15809" lon="7.21644"><ele>692.6</ele><time>2016-08-28T08:18:01Z</time></trkpt>
<trkpt lat="46.15807" lon="7.21642"><ele>693</ele><time>2016-08-28T08:18:03Z</time></trkpt>
<trkpt lat="46.15807" lon="7.21641"><ele>693.2</ele><time>2016-08-28T08:18:04Z</time></trkpt>
<trkpt lat="46.15805" lon="7.2164"><ele>693.4</ele><time>2016-08-28T08:18:05Z</time></trkpt>
<trkpt lat="46.15802" lon="7.21636"><ele>693.8</ele><time>2016-08-28T08:18:07Z</time></trkpt>
<trkpt lat="46.15799" lon="7.21632"><ele>694.2</ele><time>2016-08-28T08:18:09Z</time></trkpt>
<trkpt lat="46.15795" lon="7.21629"><ele>694.6</ele><time>2016-08-28T08:18:11Z</time></trkpt>
<trkpt lat="46.15792" lon="7.21625"><ele>695</ele><time>2016-08-28T08:18:13Z</time></trkpt>
<trkpt lat="46.15789" lon="7.21622"><ele>695.4</ele><time>2016-08-28T08:18:15Z</time></trkpt>
<trkpt lat="46.15786" lon="7.21618"><ele>695.6</ele><time>2016-08-28T08:18:17Z</time></trkpt>
<trkpt lat="46.15784" lon="7.21616"><ele>695.8</ele><time>2016-08-28T08:18:18Z</time></trkpt>
<trkpt lat="46.15783" lon="7.21614"><ele>696</ele><time>2016-08-28T08:18:19Z</time></trkpt>
<trkpt lat="46.15779" lon="7.21611"><ele>696.4</ele><time>2016-08-28T08:18:21Z</time></trkpt>
<trkpt lat="46.15776" lon="7.21607"><ele>696.8</ele><time>2016-08-28T08:18:23Z</time></trkpt>
<trkpt lat="46.15773" lon="7.21603"><ele>697.2</ele><time>2016-08-28T08:18:25Z</time></trkpt>
<trkpt lat="46.1577" lon="7.216"><ele>697.6</ele><time>2016-08-28T08:18:27Z</time></trkpt>
<trkpt lat="46.15767" lon="7.21596"><ele>698</ele><time>2016-08-28T08:18:29Z</time></trkpt>
<trkpt lat="46.15764" lon="7.21592"><ele>698.4</ele><time>2016-08-28T08:18:31Z</time></trkpt>
<trkpt lat="46.15761" lon="7.21589"><ele>698.8</ele><time>2016-08-28T08:18:33Z</time></trkpt>
<trkpt lat="46.15759" lon="7.21585"><ele>699</ele><time>2016-08-28T08:18:35Z</time></trkpt>
<trkpt lat="46.15756" lon="7.21581"><ele>699.4</ele><time>2016-08-28T08:18:37Z</time></trkpt>
<trkpt lat="46.15753" lon="7.21577"><ele>699.8</ele><time>2016-08-28T08:18:39Z</time></trkpt>
<trkpt lat="46.15751" lon="7.21574"><ele>700.2</ele><time>2016-08-28T08:18:41Z</time></trkpt>
<trkpt lat="46.15748" lon="7.2157"><ele>700.6</ele><time>2016-08-28T08:18:43Z</time></trkpt>
<trkpt lat="46.15745" lon="7.21566"><ele>701</ele><time>2016-08-28T08:18:45Z</time></trkpt>
<trkpt lat="46.15742" lon="7.21562"><ele>701.4</ele><time>2016-08-28T08:18:47Z</time></trkpt>
<trkpt lat="46.1574" lon="7.21559"><ele>701.8</ele><time>2016-08-28T08:18:49Z</time></trkpt>
<trkpt lat="46.15737" lon="7.21555"><ele>702</ele><time>2016-08-28T08:18:51Z</time></trkpt>
<trkpt lat="46.15734" lon="7.21551"><ele>702.4</ele><time>2016-08-28T08:18:53Z</time></trkpt>
<trkpt lat="46.15731" lon="7.21548"><ele>702.8</ele><time>2016-08-28T08:18:55Z</time></trkpt>
<trkpt lat="46.15729" lon="7.21546"><ele>703</ele><time>2016-08-28T08:18:56Z</time></trkpt>
<trkpt lat="46.15728" lon="7.21544"><ele>703.2</ele><time>2016-08-28T08:18:57Z</time></trkpt>
<trkpt lat="46.15725" lon="7.21541"><ele>703.6</ele><time>2016-08-28T08:18:59Z</time></trkpt>
<trkpt lat="46.15722" lon="7.21537"><ele>704</ele><time>2016-08-28T08:19:01Z</time></trkpt>
<trkpt lat="46.15719" lon="7.21534"><ele>704.4</ele><time>2016-08-28T08:19:03Z</time></trkpt>
<trkpt lat="46.15716" lon="7.2153"><ele>704.8</ele><time>2016-08-28T08:19:05Z</time></trkpt>
<trkpt lat="46.15713" lon="7.21527"><ele>705.2</ele><time>2016-08-28T08:19:07Z</time></trkpt>
<trkpt lat="46.1571" lon="7.21523"><ele>705.6</ele><time>2016-08-28T08:19:09Z</time></trkpt>
<trkpt lat="46.15707" lon="7.2152"><ele>706</ele><time>2016-08-28T08:19:11Z</time></trkpt>
<trkpt lat="46.15704" lon="7.21516"><ele>706.2</ele><time>2016-08-28T08:19:13Z</time></trkpt>
<trkpt lat="46.15701" lon="7.21513"><ele>706.6</ele><time>2016-08-28T08:19:15Z</time></trkpt>
<trkpt lat="46.15698" lon="7.2151"><ele>707</ele><time>2016-08-28T08:19:17Z</time></trkpt>
<trkpt lat="46.15694" lon="7.21507"><ele>707.4</ele><time>2016-08-28T08:19:19Z</time></trkpt>
<trkpt lat="46.15691" lon="7.21504"><ele>707.8</ele><time>2016-08-28T08:19:21Z</time></trkpt>
<trkpt lat="46.15688" lon="7.21502"><ele>708.2</ele><time>2016-08-28T08:19:23Z</time></trkpt>
<trkpt lat="46.15684" lon="7.21499"><ele>708.6</ele><time>2016-08-28T08:19:25Z</time></trkpt>
<trkpt lat="46.15681" lon="7.21496"><ele>709</ele><time>2016-08-28T08:19:27Z</time></trkpt>
<trkpt lat="46.15677" lon="7.21494"><ele>709.4</ele><time>2016-08-28T08:19:29Z</time></trkpt>
<trkpt lat="46.15676" lon="7.21492"><ele>709.6</ele><time>2016-08-28T08:19:30Z</time></trkpt>
<trkpt lat="46.15674" lon="7.21491"><ele>709.8</ele><time>2016-08-28T08:19:31Z</time></trkpt>
<trkpt lat="46.15671" lon="7.21488"><ele>710</ele><time>2016-08-28T08:19:33Z</time></trkpt>
<trkpt lat="46.15667" lon="7.21485"><ele>710.4</ele><time>2016-08-28T08:19:35Z</time></trkpt>
<trkpt lat="46.15664" lon="7.21483"><ele>710.8</ele><time>2016-08-28T08:19:37Z</time></trkpt>
<trkpt lat="46.15661" lon="7.2148"><ele>711</ele><time>2016-08-28T08:19:39Z</time></trkpt>
<trkpt lat="46.15657" lon="7.21477"><ele>711.4</ele><time>2016-08-28T08:19:41Z</time></trkpt>
<trkpt lat="46.15654" lon="7.21474"><ele>711.8</ele><time>2016-08-28T08:19:43Z</time></trkpt>
<trkpt lat="46.1565" lon="7.21471"><ele>712.2</ele><time>2016-08-28T08:19:45Z</time></trkpt>
<trkpt lat="46.15647" lon="7.21468"><ele>712.4</ele><time>2016-08-28T08:19:47Z</time></trkpt>
<trkpt lat="46.15644" lon="7.21466"><ele>712.8</ele><time>2016-08-28T08:19:49Z</time></trkpt>
<trkpt lat="46.1564" lon="7.21463"><ele>713.2</ele><time>2016-08-28T08:19:51Z</time></trkpt>
<trkpt lat="46.15639" lon="7.21461"><ele>713.4</ele><time>2016-08-28T08:19:52Z</time></trkpt>
<trkpt lat="46.15637" lon="7.2146"><ele>713.6</ele><time>2016-08-28T08:19:53Z</time></trkpt>
<trkpt lat="46.15633" lon="7.21457"><ele>713.8</ele><time>2016-08-28T08:19:55Z</time></trkpt>
<trkpt lat="46.1563" lon="7.21454"><ele>714.2</ele><time>2016-08-28T08:19:57Z</time></trkpt>
<trkpt lat="46.15627" lon="7.21451"><ele>714.6</ele><time>2016-08-28T08:19:59Z</time></trkpt>
<trkpt lat="46.15623" lon="7.21448"><ele>715</ele><time>2016-08-28T08:20:01Z</time></trkpt>
<trkpt lat="46.15622" lon="7.21447"><ele>715.2</ele><time>2016-08-28T08:20:02Z</time></trkpt>
<trkpt lat="46.1562" lon="7.21445"><ele>715.2</ele><time>2016-08-28T08:20:03Z</time></trkpt>
<trkpt lat="46.15617" lon="7.21443"><ele>715.6</ele><time>2016-08-28T08:20:05Z</time></trkpt>
<trkpt lat="46.15613" lon="7.2144"><ele>716</ele><time>2016-08-28T08:20:07Z</time></trkpt>
<trkpt lat="46.1561" lon="7.21437"><ele>716.4</ele><time>2016-08-28T08:20:09Z</time></trkpt>
<trkpt lat="46.15607" lon="7.21434"><ele>716.6</ele><time>2016-08-28T08:20:11Z</time></trkpt>
<trkpt lat="46.15604" lon="7.21431"><ele>717</ele><time>2016-08-28T08:20:13Z</time></trkpt>
<trkpt lat="46.15601" lon="7.21428"><ele>717.4</ele><time>2016-08-28T08:20:15Z</time></trkpt>
<trkpt lat="46.15597" lon="7.21425"><ele>717.8</ele><time>2016-08-28T08:20:17Z</time></trkpt>
<trkpt lat="46.15594" lon="7.21422"><ele>718.2</ele><time>2016-08-28T08:20:19Z</time></trkpt>
<trkpt lat="46.15591" lon="7.21419"><ele>718.6</ele><time>2016-08-28T08:20:21Z</time></trkpt>
<trkpt lat="46.15588" lon="7.21416"><ele>719</ele><time>2016-08-28T08:20:23Z</time></trkpt>
<trkpt lat="46.15584" lon="7.21413"><ele>719.2</ele><time>2016-08-28T08:20:25Z</time></trkpt>
<trkpt lat="46.15583" lon="7.21412"><ele>719.4</ele><time>2016-08-28T08:20:26Z</time></trkpt>
<trkpt lat="46.15581" lon="7.2141"><ele>719.6</ele><time>2016-08-28T08:20:27Z</time></trkpt>
<trkpt lat="46.15578" lon="7.21407"><ele>720</ele><time>2016-08-28T08:20:29Z</time></trkpt>
<trkpt lat="46.15575" lon="7.21404"><ele>720.4</ele><time>2016-08-28T08:20:31Z</time></trkpt>
<trkpt lat="46.15572" lon="7.214"><ele>720.8</ele><time>2016-08-28T08:20:33Z</time></trkpt>
<trkpt lat="46.15569" lon="7.21397"><ele>721.2</ele><time>2016-08-28T08:20:35Z</time></trkpt>
<trkpt lat="46.15566" lon="7.21394"><ele>721.4</ele><time>2016-08-28T08:20:37Z</time></trkpt>
<trkpt lat="46.15563" lon="7.21391"><ele>721.8</ele><time>2016-08-28T08:20:39Z</time></trkpt>
<trkpt lat="46.1556" lon="7.21387"><ele>722.2</ele><time>2016-08-28T08:20:41Z</time></trkpt>
<trkpt lat="46.15557" lon="7.21384"><ele>722.6</ele><time>2016-08-28T08:20:43Z</time></trkpt>
<trkpt lat="46.15553" lon="7.21381"><ele>723</ele><time>2016-08-28T08:20:45Z</time></trkpt>
<trkpt lat="46.1555" lon="7.21377"><ele>723.2</ele><time>2016-08-28T08:20:47Z</time></trkpt>
<trkpt lat="46.15547" lon="7.21374"><ele>723.6</ele><time>2016-08-28T08:20:49Z</time></trkpt>
<trkpt lat="46.15546" lon="7.21372"><ele>723.8</ele><time>2016-08-28T08:20:50Z</time></trkpt>
<trkpt lat="46.15544" lon="7.21372"><ele>724</ele><time>2016-08-28T08:20:51Z</time></trkpt>
<trkpt lat="46.15542" lon="7.21372"><ele>724.2</ele><time>2016-08-28T08:20:52Z</time></trkpt>
<trkpt lat="46.1554" lon="7.21372"><ele>724.2</ele><time>2016-08-28T08:20:53Z</time></trkpt>
<trkpt lat="46.15536" lon="7.21371"><ele>724.4</ele><time>2016-08-28T08:20:55Z</time></trkpt>
<trkpt lat="46.15532" lon="7.21371"><ele>724.6</ele><time>2016-08-28T08:20:57Z</time></trkpt>
<trkpt lat="46.1553" lon="7.21377"><ele>724.8</ele><time>2016-08-28T08:20:59Z</time></trkpt>
<trkpt lat="46.15529" lon="7.21384"><ele>725</ele><time>2016-08-28T08:21:01Z</time></trkpt>
<trkpt lat="46.15527" lon="7.2139"><ele>725.2</ele><time>2016-08-28T08:21:03Z</time></trkpt>
<trkpt lat="46.1553" lon="7.21395"><ele>725.4</ele><time>2016-08-28T08:21:05Z</time></trkpt>
<trkpt lat="46.15533" lon="7.214"><ele>725.6</ele><time>2016-08-28T08:21:07Z</time></trkpt>
<trkpt lat="46.15536" lon="7.21405"><ele>725.8</ele><time>2016-08-28T08:21:09Z</time></trkpt>
<trkpt lat="46.15538" lon="7.2141"><ele>726</ele><time>2016-08-28T08:21:11Z</time></trkpt>
<trkpt lat="46.15541" lon="7.21415"><ele>726.4</ele><time>2016-08-28T08:21:13Z</time></trkpt>
<trkpt lat="46.15544" lon="7.21419"><ele>726.6</ele><time>2016-08-28T08:21:15Z</time></trkpt>
<trkpt lat="46.15547" lon="7.21424"><ele>727</ele><time>2016-08-28T08:21:17Z</time></trkpt>
<trkpt lat="46.1555" lon="7.21429"><ele>727.2</ele><time>2016-08-28T08:21:19Z</time></trkpt>
<trkpt lat="46.15553" lon="7.21434"><ele>727.6</ele><time>2016-08-28T08:21:21Z</time></trkpt>
<trkpt lat="46.15556" lon="7.21439"><ele>727.8</ele><time>2016-08-28T08:21:23Z</time></trkpt>
<trkpt lat="46.15557" lon="7.21441"><ele>728</ele><time>2016-08-28T08:21:24Z</time></trkpt>
<trkpt lat="46.15558" lon="7.21443"><ele>728.2</ele><time>2016-08-28T08:21:25Z</time></trkpt>
<trkpt lat="46.1556" lon="7.21446"><ele>728.4</ele><time>2016-08-28T08:21:26Z</time></trkpt>
<trkpt lat="46.15561" lon="7.21448"><ele>728.6</ele><time>2016-08-28T08:21:27Z</time></trkpt>
<trkpt lat="46.15564" lon="7.21452"><ele>728.8</ele><time>2016-08-28T08:21:29Z</time></trkpt>
<trkpt lat="46.15566" lon="7.21457"><ele>729.2</ele><time>2016-08-28T08:21:31Z</time></trkpt>
<trkpt lat="46.15569" lon="7.21461"><ele>729.6</ele><time>2016-08-28T08:21:33Z</time></trkpt>
<trkpt lat="46.15572" lon="7.21466"><ele>730</ele><time>2016-08-28T08:21:35Z</time></trkpt>
<trkpt lat="46.15575" lon="7.2147"><ele>730.4</ele><time>2016-08-28T08:21:37Z</time></trkpt>
<trkpt lat="46.15577" lon="7.21474"><ele>730.8</ele><time>2016-08-28T08:21:39Z</time></trkpt>
<trkpt lat="46.1558" lon="7.21479"><ele>731.2</ele><time>2016-08-28T08:21:41Z</time></trkpt>
<trkpt lat="46.15581" lon="7.21481"><ele>731.4</ele><time>2016-08-28T08:21:42Z</time></trkpt>
<trkpt lat="46.15583" lon="7.21483"><ele>731.6</ele><time>2016-08-28T08:21:43Z</time></trkpt>
<trkpt lat="46.15585" lon="7.21488"><ele>732</ele><time>2016-08-28T08:21:45Z</time></trkpt>
<trkpt lat="46.15588" lon="7.21492"><ele>732.4</ele><time>2016-08-28T08:21:47Z</time></trkpt>
<trkpt lat="46.15591" lon="7.21497"><ele>732.8</ele><time>2016-08-28T08:21:49Z</time></trkpt>
<trkpt lat="46.15594" lon="7.21501"><ele>733</ele><time>2016-08-28T08:21:51Z</time></trkpt>
<trkpt lat="46.15596" lon="7.21506"><ele>733.4</ele><time>2016-08-28T08:21:53Z</time></trkpt>
<trkpt lat="46.15599" lon="7.21511"><ele>733.8</ele><time>2016-08-28T08:21:55Z</time></trkpt>
<trkpt lat="46.15602" lon="7.21515"><ele>734.2</ele><time>2016-08-28T08:21:57Z</time></trkpt>
<trkpt lat="46.15604" lon="7.2152"><ele>734.6</ele><time>2016-08-28T08:21:59Z</time></trkpt>
<trkpt lat="46.15607" lon="7.21524"><ele>735</ele><time>2016-08-28T08:22:01Z</time></trkpt>
<trkpt lat="46.1561" lon="7.21529"><ele>735.2</ele><time>2016-08-28T08:22:03Z</time></trkpt>
<trkpt lat="46.15613" lon="7.21534"><ele>735.6</ele><time>2016-08-28T08:22:05Z</time></trkpt>
<trkpt lat="46.15615" lon="7.21538"><ele>736</ele><time>2016-08-28T08:22:07Z</time></trkpt>
<trkpt lat="46.15618" lon="7.21543"><ele>736.6</ele><time>2016-08-28T08:22:09Z</time></trkpt>
<trkpt lat="46.1562" lon="7.21548"><ele>737</ele><time>2016-08-28T08:22:11Z</time></trkpt>
<trkpt lat="46.15623" lon="7.21553"><ele>737.4</ele><time>2016-08-28T08:22:13Z</time></trkpt>
<trkpt lat="46.15625" lon="7.21557"><ele>737.8</ele><time>2016-08-28T08:22:15Z</time></trkpt>
<trkpt lat="46.15628" lon="7.21562"><ele>738.2</ele><time>2016-08-28T08:22:17Z</time></trkpt>
<trkpt lat="46.1563" lon="7.21567"><ele>738.6</ele><time>2016-08-28T08:22:19Z</time></trkpt>
<trkpt lat="46.15632" lon="7.21572"><ele>739</ele><time>2016-08-28T08:22:21Z</time></trkpt>
<trkpt lat="46.15634" lon="7.21574"><ele>739.4</ele><time>2016-08-28T08:22:22Z</time></trkpt>
<trkpt lat="46.15635" lon="7.21577"><ele>739.4</ele><time>2016-08-28T08:22:23Z</time></trkpt>
<trkpt lat="46.15637" lon="7.21582"><ele>739.8</ele><time>2016-08-28T08:22:25Z</time></trkpt>
<trkpt lat="46.1564" lon="7.21586"><ele>740.2</ele><time>2016-08-28T08:22:27Z</time></trkpt>
<trkpt lat="46.15642" lon="7.21591"><ele>740.6</ele><time>2016-08-28T08:22:29Z</time></trkpt>
<trkpt lat="46.15644" lon="7.21596"><ele>741</ele><time>2016-08-28T08:22:31Z</time></trkpt>
<trkpt lat="46.15646" lon="7.21601"><ele>741.4</ele><time>2016-08-28T08:22:33Z</time></trkpt>
<trkpt lat="46.15648" lon="7.21606"><ele>741.8</ele><time>2016-08-28T08:22:35Z</time></trkpt>
<trkpt lat="46.1565" lon="7.2161"><ele>742.2</ele><time>2016-08-28T08:22:37Z</time></trkpt>
<trkpt lat="46.15652" lon="7.21615"><ele>742.6</ele><time>2016-08-28T08:22:39Z</time></trkpt>
<trkpt lat="46.15653" lon="7.2162"><ele>742.8</ele><time>2016-08-28T08:22:41Z</time></trkpt>
<trkpt lat="46.15655" lon="7.21625"><ele>743.2</ele><time>2016-08-28T08:22:43Z</time></trkpt>
<trkpt lat="46.15657" lon="7.21629"><ele>743.6</ele><time>2016-08-28T08:22:45Z</time></trkpt>
<trkpt lat="46.15659" lon="7.21634"><ele>743.8</ele><time>2016-08-28T08:22:47Z</time></trkpt>
<trkpt lat="46.15661" lon="7.21639"><ele>744.2</ele><time>2016-08-28T08:22:49Z</time></trkpt>
<trkpt lat="46.15663" lon="7.21644"><ele>744.6</ele><time>2016-08-28T08:22:51Z</time></trkpt>
<trkpt lat="46.15664" lon="7.21649"><ele>744.8</ele><time>2016-08-28T08:22:53Z</time></trkpt>
<trkpt lat="46.15666" lon="7.21653"><ele>745.2</ele><time>2016-08-28T08:22:55Z</time></trkpt>
<trkpt lat="46.15668" lon="7.21658"><ele>745.6</ele><time>2016-08-28T08:22:57Z</time></trkpt>
<trkpt lat="46.15669" lon="7.21664"><ele>746</ele><time>2016-08-28T08:22:59Z</time></trkpt>
<trkpt lat="46.1567" lon="7.21666"><ele>746</ele><time>2016-08-28T08:23:00Z</time></trkpt>
<trkpt lat="46.15671" lon="7.21669"><ele>746.2</ele><time>2016-08-28T08:23:01Z</time></trkpt>
<trkpt lat="46.15673" lon="7.21674"><ele>746.6</ele><time>2016-08-28T08:23:03Z</time></trkpt>
<trkpt lat="46.15674" lon="7.21679"><ele>747</ele><time>2016-08-28T08:23:05Z</time></trkpt>
<trkpt lat="46.15676" lon="7.21684"><ele>747.4</ele><time>2016-08-28T08:23:07Z</time></trkpt>
<trkpt lat="46.15677" lon="7.21689"><ele>747.8</ele><time>2016-08-28T08:23:09Z</time></trkpt>
<trkpt lat="46.15679" lon="7.21694"><ele>748.2</ele><time>2016-08-28T08:23:11Z</time></trkpt>
<trkpt lat="46.1568" lon="7.21699"><ele>748.6</ele><time>2016-08-28T08:23:13Z</time></trkpt>
<trkpt lat="46.15682" lon="7.21704"><ele>749</ele><time>2016-08-28T08:23:15Z</time></trkpt>
<trkpt lat="46.15684" lon="7.2171"><ele>749.4</ele><time>2016-08-28T08:23:17Z</time></trkpt>
<trkpt lat="46.15684" lon="7.21712"><ele>749.6</ele><time>2016-08-28T08:23:18Z</time></trkpt>
<trkpt lat="46.15685" lon="7.21715"><ele>749.8</ele><time>2016-08-28T08:23:19Z</time></trkpt>
<trkpt lat="46.15689" lon="7.21719"><ele>750.2</ele><time>2016-08-28T08:23:21Z</time></trkpt>
<trkpt lat="46.15692" lon="7.21723"><ele>750.6</ele><time>2016-08-28T08:23:23Z</time></trkpt>
<trkpt lat="46.15696" lon="7.21727"><ele>751</ele><time>2016-08-28T08:23:25Z</time></trkpt>
<trkpt lat="46.157" lon="7.21731"><ele>751.4</ele><time>2016-08-28T08:23:27Z</time></trkpt>
<trkpt lat="46.15704" lon="7.21734"><ele>751.8</ele><time>2016-08-28T08:23:29Z</time></trkpt>
<trkpt lat="46.15707" lon="7.21738"><ele>752.2</ele><time>2016-08-28T08:23:31Z</time></trkpt>
<trkpt lat="46.15711" lon="7.21742"><ele>752.6</ele><time>2016-08-28T08:23:33Z</time></trkpt>
<trkpt lat="46.15715" lon="7.21746"><ele>753</ele><time>2016-08-28T08:23:35Z</time></trkpt>
<trkpt lat="46.15718" lon="7.2175"><ele>753.4</ele><time>2016-08-28T08:23:37Z</time></trkpt>
<trkpt lat="46.15722" lon="7.21754"><ele>753.8</ele><time>2016-08-28T08:23:39Z</time></trkpt>
<trkpt lat="46.15726" lon="7.21758"><ele>754.2</ele><time>2016-08-28T08:23:41Z</time></trkpt>
<trkpt lat="46.15729" lon="7.21761"><ele>754.4</ele><time>2016-08-28T08:23:43Z</time></trkpt>
<trkpt lat="46.15732" lon="7.21764"><ele>754.8</ele><time>2016-08-28T08:23:45Z</time></trkpt>
<trkpt lat="46.15736" lon="7.21768"><ele>755.2</ele><time>2016-08-28T08:23:47Z</time></trkpt>
<trkpt lat="46.15739" lon="7.21771"><ele>755.6</ele><time>2016-08-28T08:23:49Z</time></trkpt>
<trkpt lat="46.15742" lon="7.21775"><ele>756</ele><time>2016-08-28T08:23:51Z</time></trkpt>
<trkpt lat="46.15746" lon="7.21778"><ele>756.4</ele><time>2016-08-28T08:23:53Z</time></trkpt>
<trkpt lat="46.15749" lon="7.21781"><ele>756.8</ele><time>2016-08-28T08:23:55Z</time></trkpt>
<trkpt lat="46.15753" lon="7.21785"><ele>757.2</ele><time>2016-08-28T08:23:57Z</time></trkpt>
<trkpt lat="46.15756" lon="7.21788"><ele>757.6</ele><time>2016-08-28T08:23:59Z</time></trkpt>
<trkpt lat="46.15759" lon="7.21791"><ele>758</ele><time>2016-08-28T08:24:01Z</time></trkpt>
<trkpt lat="46.15762" lon="7.21795"><ele>758.4</ele><time>2016-08-28T08:24:03Z</time></trkpt>
<trkpt lat="46.15765" lon="7.21799"><ele>758.8</ele><time>2016-08-28T08:24:05Z</time></trkpt>
<trkpt lat="46.15768" lon="7.21803"><ele>759.2</ele><time>2016-08-28T08:24:07Z</time></trkpt>
<trkpt lat="46.15771" lon="7.21806"><ele>759.8</ele><time>2016-08-28T08:24:09Z</time></trkpt>
<trkpt lat="46.15774" lon="7.2181"><ele>760.2</ele><time>2016-08-28T08:24:11Z</time></trkpt>
<trkpt lat="46.15777" lon="7.21814"><ele>760.4</ele><time>2016-08-28T08:24:13Z</time></trkpt>
<trkpt lat="46.1578" lon="7.21817"><ele>760.8</ele><time>2016-08-28T08:24:15Z</time></trkpt>
<trkpt lat="46.15783" lon="7.21821"><ele>761.2</ele><time>2016-08-28T08:24:17Z</time></trkpt>
<trkpt lat="46.15786" lon="7.21825"><ele>761.6</ele><time>2016-08-28T08:24:19Z</time></trkpt>
<trkpt lat="46.15789" lon="7.21828"><ele>762</ele><time>2016-08-28T08:24:21Z</time></trkpt>
<trkpt lat="46.15792" lon="7.21832"><ele>762.4</ele><time>2016-08-28T08:24:23Z</time></trkpt>
<trkpt lat="46.15795" lon="7.21836"><ele>762.8</ele><time>2016-08-28T08:24:25Z</time></trkpt>
<trkpt lat="46.15798" lon="7.21839"><ele>763</ele><time>2016-08-28T08:24:27Z</time></trkpt>
<trkpt lat="46.15802" lon="7.21842"><ele>763.4</ele><time>2016-08-28T08:24:29Z</time></trkpt>
<trkpt lat="46.15805" lon="7.21845"><ele>763.8</ele><time>2016-08-28T08:24:31Z</time></trkpt>
<trkpt lat="46.15809" lon="7.21848"><ele>764</ele><time>2016-08-28T08:24:33Z</time></trkpt>
<trkpt lat="46.15812" lon="7.21851"><ele>764.4</ele><time>2016-08-28T08:24:35Z</time></trkpt>
<trkpt lat="46.15816" lon="7.21854"><ele>764.8</ele><time>2016-08-28T08:24:37Z</time></trkpt>
<trkpt lat="46.1582" lon="7.21858"><ele>765</ele><time>2016-08-28T08:24:39Z</time></trkpt>
<trkpt lat="46.15823" lon="7.21861"><ele>765.4</ele><time>2016-08-28T08:24:41Z</time></trkpt>
<trkpt lat="46.15821" lon="7.21866"><ele>765.6</ele><time>2016-08-28T08:24:43Z</time></trkpt>
<trkpt lat="46.15818" lon="7.21871"><ele>766</ele><time>2016-08-28T08:24:45Z</time></trkpt>
<trkpt lat="46.15817" lon="7.21874"><ele>766.2</ele><time>2016-08-28T08:24:46Z</time></trkpt>
<trkpt lat="46.15815" lon="7.21873"><ele>766.4</ele><time>2016-08-28T08:24:47Z</time></trkpt>
<trkpt lat="46.15811" lon="7.2187"><ele>766.6</ele><time>2016-08-28T08:24:49Z</time></trkpt>
<trkpt lat="46.15807" lon="7.21867"><ele>766.8</ele><time>2016-08-28T08:24:51Z</time></trkpt>
<trkpt lat="46.15802" lon="7.21864"><ele>767.2</ele><time>2016-08-28T08:24:53Z</time></trkpt>
<trkpt lat="46.15798" lon="7.21861"><ele>767.4</ele><time>2016-08-28T08:24:55Z</time></trkpt>
<trkpt lat="46.15794" lon="7.21858"><ele>767.6</ele><time>2016-08-28T08:24:57Z</time></trkpt>
<trkpt lat="46.1579" lon="7.21855"><ele>768</ele><time>2016-08-28T08:24:59Z</time></trkpt>
<trkpt lat="46.15786" lon="7.21852"><ele>768.2</ele><time>2016-08-28T08:25:01Z</time></trkpt>
<trkpt lat="46.15782" lon="7.21849"><ele>768.4</ele><time>2016-08-28T08:25:03Z</time></trkpt>
<trkpt lat="46.15778" lon="7.21847"><ele>768.8</ele><time>2016-08-28T08:25:05Z</time></trkpt>
<trkpt lat="46.15776" lon="7.21845"><ele>768.8</ele><time>2016-08-28T08:25:06Z</time></trkpt>
<trkpt lat="46.15774" lon="7.21844"><ele>769</ele><time>2016-08-28T08:25:07Z</time></trkpt>
<trkpt lat="46.15771" lon="7.21841"><ele>769.2</ele><time>2016-08-28T08:25:09Z</time></trkpt>
<trkpt lat="46.15768" lon="7.21838"><ele>769.6</ele><time>2016-08-28T08:25:11Z</time></trkpt>
<trkpt lat="46.15764" lon="7.21835"><ele>770</ele><time>2016-08-28T08:25:13Z</time></trkpt>
<trkpt lat="46.15761" lon="7.21832"><ele>770.6</ele><time>2016-08-28T08:25:15Z</time></trkpt>
<trkpt lat="46.15758" lon="7.21829"><ele>771</ele><time>2016-08-28T08:25:17Z</time></trkpt>
<trkpt lat="46.15755" lon="7.21826"><ele>771.2</ele><time>2016-08-28T08:25:19Z</time></trkpt>
<trkpt lat="46.15752" lon="7.21823"><ele>771.6</ele><time>2016-08-28T08:25:21Z</time></trkpt>
<trkpt lat="46.15749" lon="7.2182"><ele>772</ele><time>2016-08-28T08:25:23Z</time></trkpt>
<trkpt lat="46.15745" lon="7.21817"><ele>772.4</ele><time>2016-08-28T08:25:25Z</time></trkpt>
<trkpt lat="46.15742" lon="7.21815"><ele>772.8</ele><time>2016-08-28T08:25:27Z</time></trkpt>
<trkpt lat="46.15739" lon="7.21812"><ele>773.2</ele><time>2016-08-28T08:25:29Z</time></trkpt>
<trkpt lat="46.15737" lon="7.2181"><ele>773.4</ele><time>2016-08-28T08:25:30Z</time></trkpt>
<trkpt lat="46.15736" lon="7.21809"><ele>773.6</ele><time>2016-08-28T08:25:31Z</time></trkpt>
<trkpt lat="46.15734" lon="7.21807"><ele>773.8</ele><time>2016-08-28T08:25:32Z</time></trkpt>
<trkpt lat="46.15732" lon="7.21805"><ele>774</ele><time>2016-08-28T08:25:33Z</time></trkpt>
<trkpt lat="46.15729" lon="7.21802"><ele>774.4</ele><time>2016-08-28T08:25:35Z</time></trkpt>
<trkpt lat="46.15725" lon="7.21798"><ele>774.8</ele><time>2016-08-28T08:25:37Z</time></trkpt>
<trkpt lat="46.15722" lon="7.21795"><ele>775.2</ele><time>2016-08-28T08:25:39Z</time></trkpt>
<trkpt lat="46.15719" lon="7.21792"><ele>775.6</ele><time>2016-08-28T08:25:41Z</time></trkpt>
<trkpt lat="46.15715" lon="7.21788"><ele>775.8</ele><time>2016-08-28T08:25:43Z</time></trkpt>
<trkpt lat="46.15712" lon="7.21785"><ele>776.2</ele><time>2016-08-28T08:25:45Z</time></trkpt>
<trkpt lat="46.15708" lon="7.21781"><ele>776.6</ele><time>2016-08-28T08:25:47Z</time></trkpt>
<trkpt lat="46.15705" lon="7.21778"><ele>777</ele><time>2016-08-28T08:25:49Z</time></trkpt>
<trkpt lat="46.15701" lon="7.21775"><ele>777.4</ele><time>2016-08-28T08:25:51Z</time></trkpt>
<trkpt lat="46.157" lon="7.21773"><ele>777.6</ele><time>2016-08-28T08:25:52Z</time></trkpt>
<trkpt lat="46.15698" lon="7.21771"><ele>777.8</ele><time>2016-08-28T08:25:53Z</time></trkpt>
<trkpt lat="46.15695" lon="7.21768"><ele>778.2</ele><time>2016-08-28T08:25:55Z</time></trkpt>
<trkpt lat="46.15692" lon="7.21765"><ele>778.4</ele><time>2016-08-28T08:25:57Z</time></trkpt>
<trkpt lat="46.15688" lon="7.21761"><ele>778.8</ele><time>2016-08-28T08:25:59Z</time></trkpt>
<trkpt lat="46.15685" lon="7.21758"><ele>779.2</ele><time>2016-08-28T08:26:01Z</time></trkpt>
<trkpt lat="46.15682" lon="7.21755"><ele>779.6</ele><time>2016-08-28T08:26:03Z</time></trkpt>
<trkpt lat="46.15679" lon="7.21752"><ele>780</ele><time>2016-08-28T08:26:05Z</time></trkpt>
<trkpt lat="46.15675" lon="7.21748"><ele>780.4</ele><time>2016-08-28T08:26:07Z</time></trkpt>
<trkpt lat="46.15672" lon="7.21745"><ele>780.6</ele><time>2016-08-28T08:26:09Z</time></trkpt>
<trkpt lat="46.15669" lon="7.21742"><ele>781</ele><time>2016-08-28T08:26:11Z</time></trkpt>
<trkpt lat="46.15666" lon="7.21738"><ele>781.4</ele><time>2016-08-28T08:26:13Z</time></trkpt>
<trkpt lat="46.15662" lon="7.21735"><ele>781.8</ele><time>2016-08-28T08:26:15Z</time></trkpt>
<trkpt lat="46.15659" lon="7.21732"><ele>782.2</ele><time>2016-08-28T08:26:17Z</time></trkpt>
<trkpt lat="46.15655" lon="7.21729"><ele>782.6</ele><time>2016-08-28T08:26:19Z</time></trkpt>
<trkpt lat="46.15652" lon="7.21726"><ele>782.8</ele><time>2016-08-28T08:26:21Z</time></trkpt>
<trkpt lat="46.15648" lon="7.21722"><ele>783.2</ele><time>2016-08-28T08:26:23Z</time></trkpt>
<trkpt lat="46.15645" lon="7.21719"><ele>783.6</ele><time>2016-08-28T08:26:25Z</time></trkpt>
<trkpt lat="46.15641" lon="7.21716"><ele>784</ele><time>2016-08-28T08:26:27Z</time></trkpt>
<trkpt lat="46.15638" lon="7.21713"><ele>784.4</ele><time>2016-08-28T08:26:29Z</time></trkpt>
<trkpt lat="46.15634" lon="7.2171"><ele>784.8</ele><time>2016-08-28T08:26:31Z</time></trkpt>
<trkpt lat="46.15631" lon="7.21707"><ele>785</ele><time>2016-08-28T08:26:33Z</time></trkpt>
<trkpt lat="46.15627" lon="7.21703"><ele>785.4</ele><time>2016-08-28T08:26:35Z</time></trkpt>
<trkpt lat="46.15624" lon="7.217"><ele>785.8</ele><time>2016-08-28T08:26:37Z</time></trkpt>
<trkpt lat="46.15621" lon="7.21696"><ele>786.2</ele><time>2016-08-28T08:26:39Z</time></trkpt>
<trkpt lat="46.15617" lon="7.21693"><ele>786.6</ele><time>2016-08-28T08:26:41Z</time></trkpt>
<trkpt lat="46.15614" lon="7.21689"><ele>787</ele><time>2016-08-28T08:26:43Z</time></trkpt>
<trkpt lat="46.15611" lon="7.21685"><ele>787.4</ele><time>2016-08-28T08:26:45Z</time></trkpt>
<trkpt lat="46.15608" lon="7.21681"><ele>787.8</ele><time>2016-08-28T08:26:47Z</time></trkpt>
<trkpt lat="46.15605" lon="7.21677"><ele>788.2</ele><time>2016-08-28T08:26:49Z</time></trkpt>
<trkpt lat="46.15602" lon="7.21673"><ele>788.6</ele><time>2016-08-28T08:26:51Z</time></trkpt>
<trkpt lat="46.15599" lon="7.2167"><ele>789</ele><time>2016-08-28T08:26:53Z</time></trkpt>
<trkpt lat="46.15596" lon="7.21666"><ele>789.4</ele><time>2016-08-28T08:26:55Z</time></trkpt>
<trkpt lat="46.15592" lon="7.21662"><ele>789.8</ele><time>2016-08-28T08:26:57Z</time></trkpt>
<trkpt lat="46.15589" lon="7.21658"><ele>790.4</ele><time>2016-08-28T08:26:59Z</time></trkpt>
<trkpt lat="46.15586" lon="7.21654"><ele>790.8</ele><time>2016-08-28T08:27:01Z</time></trkpt>
<trkpt lat="46.15584" lon="7.2165"><ele>791.2</ele><time>2016-08-28T08:27:03Z</time></trkpt>
<trkpt lat="46.15581" lon="7.21646"><ele>791.6</ele><time>2016-08-28T08:27:05Z</time></trkpt>
<trkpt lat="46.15579" lon="7.21644"><ele>791.8</ele><time>2016-08-28T08:27:06Z</time></trkpt>
<trkpt lat="46.15578" lon="7.21642"><ele>792</ele><time>2016-08-28T08:27:07Z</time></trkpt>
<trkpt lat="46.15575" lon="7.21639"><ele>792.4</ele><time>2016-08-28T08:27:09Z</time></trkpt>
<trkpt lat="46.15572" lon="7.21635"><ele>792.8</ele><time>2016-08-28T08:27:11Z</time></trkpt>
<trkpt lat="46.15569" lon="7.21631"><ele>793</ele><time>2016-08-28T08:27:13Z</time></trkpt>
<trkpt lat="46.15566" lon="7.21627"><ele>793.4</ele><time>2016-08-28T08:27:15Z</time></trkpt>
<trkpt lat="46.15564" lon="7.21623"><ele>793.8</ele><time>2016-08-28T08:27:17Z</time></trkpt>
<trkpt lat="46.15561" lon="7.21619"><ele>794.2</ele><time>2016-08-28T08:27:19Z</time></trkpt>
<trkpt lat="46.15558" lon="7.21615"><ele>794.6</ele><time>2016-08-28T08:27:21Z</time></trkpt>
<trkpt lat="46.15555" lon="7.21611"><ele>794.8</ele><time>2016-08-28T08:27:23Z</time></trkpt>
<trkpt lat="46.15552" lon="7.21607"><ele>795.2</ele><time>2016-08-28T08:27:25Z</time></trkpt>
<trkpt lat="46.15548" lon="7.21604"><ele>795.6</ele><time>2016-08-28T08:27:27Z</time></trkpt>
<trkpt lat="46.15545" lon="7.216"><ele>795.8</ele><time>2016-08-28T08:27:29Z</time></trkpt>
<trkpt lat="46.15542" lon="7.21596"><ele>796.2</ele><time>2016-08-28T08:27:31Z</time></trkpt>
<trkpt lat="46.15539" lon="7.21592"><ele>796.4</ele><time>2016-08-28T08:27:33Z</time></trkpt>
<trkpt lat="46.15535" lon="7.21588"><ele>796.8</ele><time>2016-08-28T08:27:35Z</time></trkpt>
<trkpt lat="46.15532" lon="7.21585"><ele>797</ele><time>2016-08-28T08:27:37Z</time></trkpt>
<trkpt lat="46.15529" lon="7.21581"><ele>797.4</ele><time>2016-08-28T08:27:39Z</time></trkpt>
<trkpt lat="46.15525" lon="7.21577"><ele>797.8</ele><time>2016-08-28T08:27:41Z</time></trkpt>
<trkpt lat="46.15522" lon="7.21573"><ele>798</ele><time>2016-08-28T08:27:43Z</time></trkpt>
<trkpt lat="46.1552" lon="7.21571"><ele>798.2</ele><time>2016-08-28T08:27:44Z</time></trkpt>
<trkpt lat="46.15519" lon="7.21572"><ele>798.4</ele><time>2016-08-28T08:27:45Z</time></trkpt>
<trkpt lat="46.15515" lon="7.21575"><ele>798.6</ele><time>2016-08-28T08:27:47Z</time></trkpt>
<trkpt lat="46.15511" lon="7.21577"><ele>798.8</ele><time>2016-08-28T08:27:49Z</time></trkpt>
<trkpt lat="46.15514" lon="7.21582"><ele>799</ele><time>2016-08-28T08:27:51Z</time></trkpt>
<trkpt lat="46.15517" lon="7.21587"><ele>799.2</ele><time>2016-08-28T08:27:53Z</time></trkpt>
<trkpt lat="46.15519" lon="7.21592"><ele>799.4</ele><time>2016-08-28T08:27:55Z</time></trkpt>
<trkpt lat="46.15522" lon="7.21597"><ele>799.6</ele><time>2016-08-28T08:27:57Z</time></trkpt>
<trkpt lat="46.15525" lon="7.21602"><ele>800</ele><time>2016-08-28T08:27:59Z</time></trkpt>
<trkpt lat="46.15528" lon="7.21607"><ele>800.2</ele><time>2016-08-28T08:28:01Z</time></trkpt>
<trkpt lat="46.15531" lon="7.21612"><ele>800.6</ele><time>2016-08-28T08:28:03Z</time></trkpt>
<trkpt lat="46.15533" lon="7.21616"><ele>800.8</ele><time>2016-08-28T08:28:05Z</time></trkpt>
<trkpt lat="46.15536" lon="7.21621"><ele>801.2</ele><time>2016-08-28T08:28:07Z</time></trkpt>
<trkpt lat="46.15539" lon="7.21626"><ele>801.4</ele><time>2016-08-28T08:28:09Z</time></trkpt>
<trkpt lat="46.1554" lon="7.21629"><ele>801.6</ele><time>2016-08-28T08:28:10Z</time></trkpt>
<trkpt lat="46.15541" lon="7.21631"><ele>801.8</ele><time>2016-08-28T08:28:11Z</time></trkpt>
<trkpt lat="46.15542" lon="7.21634"><ele>801.8</ele><time>2016-08-28T08:28:12Z</time></trkpt>
<trkpt lat="46.15543" lon="7.21636"><ele>802</ele><time>2016-08-28T08:28:13Z</time></trkpt>
<trkpt lat="46.15546" lon="7.21641"><ele>802.4</ele><time>2016-08-28T08:28:15Z</time></trkpt>
<trkpt lat="46.15548" lon="7.21646"><ele>802.8</ele><time>2016-08-28T08:28:17Z</time></trkpt>
<trkpt lat="46.1555" lon="7.21651"><ele>803.2</ele><time>2016-08-28T08:28:19Z</time></trkpt>
<trkpt lat="46.15552" lon="7.21655"><ele>803.4</ele><time>2016-08-28T08:28:21Z</time></trkpt>
<trkpt lat="46.15554" lon="7.2166"><ele>803.8</ele><time>2016-08-28T08:28:23Z</time></trkpt>
<trkpt lat="46.15556" lon="7.21665"><ele>804.2</ele><time>2016-08-28T08:28:25Z</time></trkpt>
<trkpt lat="46.15558" lon="7.2167"><ele>804.6</ele><time>2016-08-28T08:28:27Z</time></trkpt>
<trkpt lat="46.1556" lon="7.21675"><ele>804.8</ele><time>2016-08-28T08:28:29Z</time></trkpt>
<trkpt lat="46.15562" lon="7.2168"><ele>805.2</ele><time>2016-08-28T08:28:31Z</time></trkpt>
<trkpt lat="46.15564" lon="7.21685"><ele>805.6</ele><time>2016-08-28T08:28:33Z</time></trkpt>
<trkpt lat="46.15564" lon="7.21687"><ele>805.8</ele><time>2016-08-28T08:28:34Z</time></trkpt>
<trkpt lat="46.15565" lon="7.2169"><ele>806</ele><time>2016-08-28T08:28:35Z</time></trkpt>
<trkpt lat="46.15567" lon="7.21695"><ele>806.4</ele><time>2016-08-28T08:28:37Z</time></trkpt>
<trkpt lat="46.15568" lon="7.21699"><ele>806.8</ele><time>2016-08-28T08:28:39Z</time></trkpt>
<trkpt lat="46.15569" lon="7.21704"><ele>807</ele><time>2016-08-28T08:28:41Z</time></trkpt>
<trkpt lat="46.15571" lon="7.21709"><ele>807.4</ele><time>2016-08-28T08:28:43Z</time></trkpt>
<trkpt lat="46.15572" lon="7.21714"><ele>807.8</ele><time>2016-08-28T08:28:45Z</time></trkpt>
<trkpt lat="46.15574" lon="7.21719"><ele>808.2</ele><time>2016-08-28T08:28:47Z</time></trkpt>
<trkpt lat="46.15575" lon="7.21724"><ele>808.6</ele><time>2016-08-28T08:28:49Z</time></trkpt>
<trkpt lat="46.15576" lon="7.21729"><ele>809</ele><time>2016-08-28T08:28:51Z</time></trkpt>
<trkpt lat="46.15578" lon="7.21734"><ele>809.4</ele><time>2016-08-28T08:28:53Z</time></trkpt>
<trkpt lat="46.15579" lon="7.21739"><ele>809.8</ele><time>2016-08-28T08:28:55Z</time></trkpt>
<trkpt lat="46.15581" lon="7.21744"><ele>810</ele><time>2016-08-28T08:28:57Z</time></trkpt>
<trkpt lat="46.15581" lon="7.21746"><ele>810.2</ele><time>2016-08-28T08:28:58Z</time></trkpt>
<trkpt lat="46.15583" lon="7.21749"><ele>810.4</ele><time>2016-08-28T08:28:59Z</time></trkpt>
<trkpt lat="46.15585" lon="7.21753"><ele>810.8</ele><time>2016-08-28T08:29:01Z</time></trkpt>
<trkpt lat="46.15588" lon="7.21758"><ele>811.2</ele><time>2016-08-28T08:29:03Z</time></trkpt>
<trkpt lat="46.1559" lon="7.21762"><ele>811.6</ele><time>2016-08-28T08:29:05Z</time></trkpt>
<trkpt lat="46.15593" lon="7.21767"><ele>812</ele><time>2016-08-28T08:29:07Z</time></trkpt>
<trkpt lat="46.15594" lon="7.21769"><ele>812.2</ele><time>2016-08-28T08:29:08Z</time></trkpt>
<trkpt lat="46.15595" lon="7.21772"><ele>812.4</ele><time>2016-08-28T08:29:09Z</time></trkpt>
<trkpt lat="46.15598" lon="7.21776"><ele>812.8</ele><time>2016-08-28T08:29:11Z</time></trkpt>
<trkpt lat="46.15601" lon="7.21781"><ele>813.2</ele><time>2016-08-28T08:29:13Z</time></trkpt>
<trkpt lat="46.15603" lon="7.21785"><ele>813.6</ele><time>2016-08-28T08:29:15Z</time></trkpt>
<trkpt lat="46.15606" lon="7.2179"><ele>813.8</ele><time>2016-08-28T08:29:17Z</time></trkpt>
<trkpt lat="46.15608" lon="7.21794"><ele>814.2</ele><time>2016-08-28T08:29:19Z</time></trkpt>
<trkpt lat="46.1561" lon="7.21797"><ele>814.4</ele><time>2016-08-28T08:29:20Z</time></trkpt>
<trkpt lat="46.15611" lon="7.21799"><ele>814.6</ele><time>2016-08-28T08:29:21Z</time></trkpt>
<trkpt lat="46.15614" lon="7.21802"><ele>815</ele><time>2016-08-28T08:29:23Z</time></trkpt>
<trkpt lat="46.15617" lon="7.21806"><ele>815.4</ele><time>2016-08-28T08:29:25Z</time></trkpt>
<trkpt lat="46.15621" lon="7.21809"><ele>815.8</ele><time>2016-08-28T08:29:27Z</time></trkpt>
<trkpt lat="46.15624" lon="7.21813"><ele>816.2</ele><time>2016-08-28T08:29:29Z</time></trkpt>
<trkpt lat="46.15627" lon="7.21817"><ele>816.4</ele><time>2016-08-28T08:29:31Z</time></trkpt>
<trkpt lat="46.1563" lon="7.2182"><ele>816.8</ele><time>2016-08-28T08:29:33Z</time></trkpt>
<trkpt lat="46.15633" lon="7.21824"><ele>817.2</ele><time>2016-08-28T08:29:35Z</time></trkpt>
<trkpt lat="46.15636" lon="7.21827"><ele>817.6</ele><time>2016-08-28T08:29:37Z</time></trkpt>
<trkpt lat="46.15639" lon="7.21831"><ele>818</ele><time>2016-08-28T08:29:39Z</time></trkpt>
<trkpt lat="46.15643" lon="7.21835"><ele>818.4</ele><time>2016-08-28T08:29:41Z</time></trkpt>
<trkpt lat="46.15644" lon="7.21837"><ele>818.6</ele><time>2016-08-28T08:29:42Z</time></trkpt>
<trkpt lat="46.15646" lon="7.21838"><ele>818.8</ele><time>2016-08-28T08:29:43Z</time></trkpt>
<trkpt lat="46.15649" lon="7.21842"><ele>819</ele><time>2016-08-28T08:29:45Z</time></trkpt>
<trkpt lat="46.15652" lon="7.21845"><ele>819.4</ele><time>2016-08-28T08:29:47Z</time></trkpt>
<trkpt lat="46.15655" lon="7.21849"><ele>819.8</ele><time>2016-08-28T08:29:49Z</time></trkpt>
<trkpt lat="46.15658" lon="7.21852"><ele>820.2</ele><time>2016-08-28T08:29:51Z</time></trkpt>
<trkpt lat="46.15661" lon="7.21856"><ele>820.6</ele><time>2016-08-28T08:29:53Z</time></trkpt>
<trkpt lat="46.15664" lon="7.2186"><ele>821</ele><time>2016-08-28T08:29:55Z</time></trkpt>
<trkpt lat="46.15667" lon="7.21863"><ele>821.4</ele><time>2016-08-28T08:29:57Z</time></trkpt>
<trkpt lat="46.15668" lon="7.21865"><ele>821.6</ele><time>2016-08-28T08:29:58Z</time></trkpt>
<trkpt lat="46.1567" lon="7.21867"><ele>821.8</ele><time>2016-08-28T08:29:59Z</time></trkpt>
<trkpt lat="46.15673" lon="7.2187"><ele>822.2</ele><time>2016-08-28T08:30:01Z</time></trkpt>
<trkpt lat="46.15676" lon="7.21874"><ele>822.4</ele><time>2016-08-28T08:30:03Z</time></trkpt>
<trkpt lat="46.15679" lon="7.21877"><ele>822.8</ele><time>2016-08-28T08:30:05Z</time></trkpt>
<trkpt lat="46.15682" lon="7.21881"><ele>823.2</ele><time>2016-08-28T08:30:07Z</time></trkpt>
<trkpt lat="46.15685" lon="7.21884"><ele>823.6</ele><time>2016-08-28T08:30:09Z</time></trkpt>
<trkpt lat="46.15688" lon="7.21887"><ele>824</ele><time>2016-08-28T08:30:11Z</time></trkpt>
<trkpt lat="46.15692" lon="7.2189"><ele>824.2</ele><time>2016-08-28T08:30:13Z</time></trkpt>
<trkpt lat="46.15695" lon="7.21894"><ele>824.6</ele><time>2016-08-28T08:30:15Z</time></trkpt>
<trkpt lat="46.15697" lon="7.21895"><ele>824.8</ele><time>2016-08-28T08:30:16Z</time></trkpt>
<trkpt lat="46.15698" lon="7.21897"><ele>825</ele><time>2016-08-28T08:30:17Z</time></trkpt>
<trkpt lat="46.15702" lon="7.219"><ele>825.4</ele><time>2016-08-28T08:30:19Z</time></trkpt>
<trkpt lat="46.15705" lon="7.21903"><ele>825.8</ele><time>2016-08-28T08:30:21Z</time></trkpt>
<trkpt lat="46.15708" lon="7.21906"><ele>826.2</ele><time>2016-08-28T08:30:23Z</time></trkpt>
<trkpt lat="46.15712" lon="7.2191"><ele>826.6</ele><time>2016-08-28T08:30:25Z</time></trkpt>
<trkpt lat="46.15715" lon="7.21913"><ele>827</ele><time>2016-08-28T08:30:27Z</time></trkpt>
<trkpt lat="46.15718" lon="7.21916"><ele>827.4</ele><time>2016-08-28T08:30:29Z</time></trkpt>
<trkpt lat="46.1572" lon="7.21918"><ele>827.6</ele><time>2016-08-28T08:30:30Z</time></trkpt>
<trkpt lat="46.15722" lon="7.21919"><ele>827.8</ele><time>2016-08-28T08:30:31Z</time></trkpt>
<trkpt lat="46.15725" lon="7.21923"><ele>828.2</ele><time>2016-08-28T08:30:33Z</time></trkpt>
<trkpt lat="46.15728" lon="7.21926"><ele>828.6</ele><time>2016-08-28T08:30:35Z</time></trkpt>
<trkpt lat="46.15731" lon="7.2193"><ele>829</ele><time>2016-08-28T08:30:37Z</time></trkpt>
<trkpt lat="46.15734" lon="7.21934"><ele>829.4</ele><time>2016-08-28T08:30:39Z</time></trkpt>
<trkpt lat="46.15737" lon="7.21937"><ele>829.8</ele><time>2016-08-28T08:30:41Z</time></trkpt>
<trkpt lat="46.15741" lon="7.21941"><ele>830.2</ele><time>2016-08-28T08:30:43Z</time></trkpt>
<trkpt lat="46.15744" lon="7.21944"><ele>830.6</ele><time>2016-08-28T08:30:45Z</time></trkpt>
<trkpt lat="46.15747" lon="7.21948"><ele>831</ele><time>2016-08-28T08:30:47Z</time></trkpt>
<trkpt lat="46.1575" lon="7.21951"><ele>831.4</ele><time>2016-08-28T08:30:49Z</time></trkpt>
<trkpt lat="46.15753" lon="7.21955"><ele>831.6</ele><time>2016-08-28T08:30:51Z</time></trkpt>
<trkpt lat="46.15756" lon="7.21958"><ele>832</ele><time>2016-08-28T08:30:53Z</time></trkpt>
<trkpt lat="46.15759" lon="7.21962"><ele>832.4</ele><time>2016-08-28T08:30:55Z</time></trkpt>
<trkpt lat="46.15763" lon="7.21965"><ele>832.8</ele><time>2016-08-28T08:30:57Z</time></trkpt>
<trkpt lat="46.15766" lon="7.21968"><ele>833.2</ele><time>2016-08-28T08:30:59Z</time></trkpt>
<trkpt lat="46.15769" lon="7.21971"><ele>833.6</ele><time>2016-08-28T08:31:01Z</time></trkpt>
<trkpt lat="46.15773" lon="7.21975"><ele>833.8</ele><time>2016-08-28T08:31:03Z</time></trkpt>
<trkpt lat="46.15776" lon="7.21978"><ele>834.2</ele><time>2016-08-28T08:31:05Z</time></trkpt>
<trkpt lat="46.15779" lon="7.21981"><ele>834.6</ele><time>2016-08-28T08:31:07Z</time></trkpt>
<trkpt lat="46.15783" lon="7.21984"><ele>835</ele><time>2016-08-28T08:31:09Z</time></trkpt>
<trkpt lat="46.15786" lon="7.21988"><ele>835.4</ele><time>2016-08-28T08:31:11Z</time></trkpt>
<trkpt lat="46.15789" lon="7.21991"><ele>835.8</ele><time>2016-08-28T08:31:13Z</time></trkpt>
<trkpt lat="46.15792" lon="7.21994"><ele>836.2</ele><time>2016-08-28T08:31:15Z</time></trkpt>
<trkpt lat="46.15794" lon="7.21996"><ele>836.4</ele><time>2016-08-28T08:31:16Z</time></trkpt>
<trkpt lat="46.15796" lon="7.21998"><ele>836.6</ele><time>2016-08-28T08:31:17Z</time></trkpt>
<trkpt lat="46.15799" lon="7.22001"><ele>837</ele><time>2016-08-28T08:31:19Z</time></trkpt>
<trkpt lat="46.15802" lon="7.22005"><ele>837.4</ele><time>2016-08-28T08:31:21Z</time></trkpt>
<trkpt lat="46.15804" lon="7.22008"><ele>837.8</ele><time>2016-08-28T08:31:23Z</time></trkpt>
<trkpt lat="46.15806" lon="7.2201"><ele>838</ele><time>2016-08-28T08:31:24Z</time></trkpt>
<trkpt lat="46.15807" lon="7.22012"><ele>838.2</ele><time>2016-08-28T08:31:25Z</time></trkpt>
<trkpt lat="46.1581" lon="7.22016"><ele>838.6</ele><time>2016-08-28T08:31:27Z</time></trkpt>
<trkpt lat="46.15813" lon="7.22019"><ele>839</ele><time>2016-08-28T08:31:29Z</time></trkpt>
<trkpt lat="46.15816" lon="7.22023"><ele>839.4</ele><time>2016-08-28T08:31:31Z</time></trkpt>
<trkpt lat="46.15819" lon="7.22026"><ele>839.6</ele><time>2016-08-28T08:31:33Z</time></trkpt>
<trkpt lat="46.15822" lon="7.2203"><ele>840</ele><time>2016-08-28T08:31:35Z</time></trkpt>
<trkpt lat="46.15825" lon="7.22034"><ele>840.4</ele><time>2016-08-28T08:31:37Z</time></trkpt>
<trkpt lat="46.15828" lon="7.22037"><ele>840.8</ele><time>2016-08-28T08:31:39Z</time></trkpt>
<trkpt lat="46.15829" lon="7.22039"><ele>841</ele><time>2016-08-28T08:31:40Z</time></trkpt>
<trkpt lat="46.15831" lon="7.22041"><ele>841.2</ele><time>2016-08-28T08:31:41Z</time></trkpt>
<trkpt lat="46.15833" lon="7.22046"><ele>841.6</ele><time>2016-08-28T08:31:43Z</time></trkpt>
<trkpt lat="46.15835" lon="7.22051"><ele>841.8</ele><time>2016-08-28T08:31:45Z</time></trkpt>
<trkpt lat="46.15837" lon="7.22053"><ele>842</ele><time>2016-08-28T08:31:46Z</time></trkpt>
<trkpt lat="46.15838" lon="7.22056"><ele>842.2</ele><time>2016-08-28T08:31:47Z</time></trkpt>
<trkpt lat="46.1584" lon="7.2206"><ele>842.6</ele><time>2016-08-28T08:31:49Z</time></trkpt>
<trkpt lat="46.15843" lon="7.22065"><ele>843</ele><time>2016-08-28T08:31:51Z</time></trkpt>
<trkpt lat="46.15845" lon="7.2207"><ele>843.2</ele><time>2016-08-28T08:31:53Z</time></trkpt>
<trkpt lat="46.15847" lon="7.22075"><ele>843.6</ele><time>2016-08-28T08:31:55Z</time></trkpt>
<trkpt lat="46.1585" lon="7.22079"><ele>844</ele><time>2016-08-28T08:31:57Z</time></trkpt>
<trkpt lat="46.15852" lon="7.22084"><ele>844.4</ele><time>2016-08-28T08:31:59Z</time></trkpt>
<trkpt lat="46.15855" lon="7.22089"><ele>844.6</ele><time>2016-08-28T08:32:01Z</time></trkpt>
<trkpt lat="46.15857" lon="7.22094"><ele>845</ele><time>2016-08-28T08:32:03Z</time></trkpt>
<trkpt lat="46.1586" lon="7.22099"><ele>845.4</ele><time>2016-08-28T08:32:05Z</time></trkpt>
<trkpt lat="46.15862" lon="7.22104"><ele>845.6</ele><time>2016-08-28T08:32:07Z</time></trkpt>
<trkpt lat="46.15864" lon="7.22106"><ele>845.8</ele><time>2016-08-28T08:32:08Z</time></trkpt>
<trkpt lat="46.15865" lon="7.22109"><ele>846</ele><time>2016-08-28T08:32:09Z</time></trkpt>
<trkpt lat="46.15868" lon="7.22114"><ele>846.4</ele><time>2016-08-28T08:32:11Z</time></trkpt>
<trkpt lat="46.1587" lon="7.22119"><ele>846.8</ele><time>2016-08-28T08:32:13Z</time></trkpt>
<trkpt lat="46.15873" lon="7.22124"><ele>847.2</ele><time>2016-08-28T08:32:15Z</time></trkpt>
<trkpt lat="46.15876" lon="7.2213"><ele>847.6</ele><time>2016-08-28T08:32:17Z</time></trkpt>
<trkpt lat="46.15878" lon="7.22135"><ele>848</ele><time>2016-08-28T08:32:19Z</time></trkpt>
<trkpt lat="46.15881" lon="7.2214"><ele>848.4</ele><time>2016-08-28T08:32:21Z</time></trkpt>
<trkpt lat="46.15882" lon="7.22142"><ele>848.6</ele><time>2016-08-28T08:32:22Z</time></trkpt>
<trkpt lat="46.15882" lon="7.22144"><ele>848.8</ele><time>2016-08-28T08:32:23Z</time></trkpt>
<trkpt lat="46.1588" lon="7.22149"><ele>849.2</ele><time>2016-08-28T08:32:25Z</time></trkpt>
<trkpt lat="46.15879" lon="7.22151"><ele>849.4</ele><time>2016-08-28T08:32:26Z</time></trkpt>
<trkpt lat="46.15878" lon="7.22149"><ele>849.8</ele><time>2016-08-28T08:32:27Z</time></trkpt>
<trkpt lat="46.15875" lon="7.22145"><ele>850.2</ele><time>2016-08-28T08:32:29Z</time></trkpt>
<trkpt lat="46.15872" lon="7.22141"><ele>850.6</ele><time>2016-08-28T08:32:31Z</time></trkpt>
<trkpt lat="46.15869" lon="7.22137"><ele>851</ele><time>2016-08-28T08:32:33Z</time></trkpt>
<trkpt lat="46.15866" lon="7.22133"><ele>851.4</ele><time>2016-08-28T08:32:35Z</time></trkpt>
<trkpt lat="46.15863" lon="7.22129"><ele>851.8</ele><time>2016-08-28T08:32:37Z</time></trkpt>
<trkpt lat="46.1586" lon="7.22125"><ele>852.2</ele><time>2016-08-28T08:32:39Z</time></trkpt>
<trkpt lat="46.15857" lon="7.22121"><ele>852.6</ele><time>2016-08-28T08:32:41Z</time></trkpt>
<trkpt lat="46.15854" lon="7.22117"><ele>853</ele><time>2016-08-28T08:32:43Z</time></trkpt>
<trkpt lat="46.15851" lon="7.22113"><ele>853.4</ele><time>2016-08-28T08:32:45Z</time></trkpt>
<trkpt lat="46.15848" lon="7.22109"><ele>853.6</ele><time>2016-08-28T08:32:47Z</time></trkpt>
<trkpt lat="46.15845" lon="7.22105"><ele>854</ele><time>2016-08-28T08:32:49Z</time></trkpt>
<trkpt lat="46.15843" lon="7.22102"><ele>854.4</ele><time>2016-08-28T08:32:51Z</time></trkpt>
<trkpt lat="46.1584" lon="7.22098"><ele>854.8</ele><time>2016-08-28T08:32:53Z</time></trkpt>
<trkpt lat="46.15837" lon="7.22095"><ele>855.2</ele><time>2016-08-28T08:32:55Z</time></trkpt>
<trkpt lat="46.15835" lon="7.22091"><ele>855.4</ele><time>2016-08-28T08:32:57Z</time></trkpt>
<trkpt lat="46.15833" lon="7.22089"><ele>855.6</ele><time>2016-08-28T08:32:58Z</time></trkpt>
<trkpt lat="46.15832" lon="7.22087"><ele>855.8</ele><time>2016-08-28T08:32:59Z</time></trkpt>
<trkpt lat="46.1583" lon="7.22084"><ele>856.2</ele><time>2016-08-28T08:33:01Z</time></trkpt>
<trkpt lat="46.15827" lon="7.2208"><ele>856.6</ele><time>2016-08-28T08:33:03Z</time></trkpt>
<trkpt lat="46.15824" lon="7.22077"><ele>857</ele><time>2016-08-28T08:33:05Z</time></trkpt>
<trkpt lat="46.15822" lon="7.22073"><ele>857.2</ele><time>2016-08-28T08:33:07Z</time></trkpt>
<trkpt lat="46.15819" lon="7.22069"><ele>857.6</ele><time>2016-08-28T08:33:09Z</time></trkpt>
<trkpt lat="46.15816" lon="7.22066"><ele>858</ele><time>2016-08-28T08:33:11Z</time></trkpt>
<trkpt lat="46.15814" lon="7.22062"><ele>858.4</ele><time>2016-08-28T08:33:13Z</time></trkpt>
<trkpt lat="46.15813" lon="7.2206"><ele>858.6</ele><time>2016-08-28T08:33:14Z</time></trkpt>
<trkpt lat="46.15811" lon="7.22059"><ele>858.8</ele><time>2016-08-28T08:33:15Z</time></trkpt>
<trkpt lat="46.15808" lon="7.22057"><ele>859</ele><time>2016-08-28T08:33:17Z</time></trkpt>
<trkpt lat="46.15805" lon="7.22054"><ele>859.4</ele><time>2016-08-28T08:33:19Z</time></trkpt>
<trkpt lat="46.15803" lon="7.22053"><ele>859.6</ele><time>2016-08-28T08:33:20Z</time></trkpt>
<trkpt lat="46.15802" lon="7.22051"><ele>859.8</ele><time>2016-08-28T08:33:21Z</time></trkpt>
<trkpt lat="46.15799" lon="7.22049"><ele>860.2</ele><time>2016-08-28T08:33:23Z</time></trkpt>
<trkpt lat="46.15796" lon="7.22046"><ele>860.6</ele><time>2016-08-28T08:33:25Z</time></trkpt>
<trkpt lat="46.15792" lon="7.22044"><ele>860.8</ele><time>2016-08-28T08:33:27Z</time></trkpt>
<trkpt lat="46.15789" lon="7.22041"><ele>861.2</ele><time>2016-08-28T08:33:29Z</time></trkpt>
<trkpt lat="46.15786" lon="7.22038"><ele>861.6</ele><time>2016-08-28T08:33:31Z</time></trkpt>
<trkpt lat="46.15783" lon="7.22036"><ele>862</ele><time>2016-08-28T08:33:33Z</time></trkpt>
<trkpt lat="46.1578" lon="7.22033"><ele>862.4</ele><time>2016-08-28T08:33:35Z</time></trkpt>
<trkpt lat="46.15777" lon="7.22031"><ele>862.6</ele><time>2016-08-28T08:33:37Z</time></trkpt>
<trkpt lat="46.15774" lon="7.22028"><ele>863</ele><time>2016-08-28T08:33:39Z</time></trkpt>
<trkpt lat="46.15772" lon="7.22027"><ele>863.2</ele><time>2016-08-28T08:33:40Z</time></trkpt>
<trkpt lat="46.1577" lon="7.22026"><ele>863.4</ele><time>2016-08-28T08:33:41Z</time></trkpt>
<trkpt lat="46.15767" lon="7.22024"><ele>863.8</ele><time>2016-08-28T08:33:43Z</time></trkpt>
<trkpt lat="46.15763" lon="7.22023"><ele>864.2</ele><time>2016-08-28T08:33:45Z</time></trkpt>
<trkpt lat="46.15759" lon="7.22021"><ele>864.4</ele><time>2016-08-28T08:33:47Z</time></trkpt>
<trkpt lat="46.15755" lon="7.22019"><ele>864.8</ele><time>2016-08-28T08:33:49Z</time></trkpt>
<trkpt lat="46.15751" lon="7.22017"><ele>865.2</ele><time>2016-08-28T08:33:51Z</time></trkpt>
<trkpt lat="46.15747" lon="7.22016"><ele>865.6</ele><time>2016-08-28T08:33:53Z</time></trkpt>
<trkpt lat="46.15744" lon="7.22014"><ele>866</ele><time>2016-08-28T08:33:55Z</time></trkpt>
<trkpt lat="46.1574" lon="7.22012"><ele>866.4</ele><time>2016-08-28T08:33:57Z</time></trkpt>
<trkpt lat="46.15736" lon="7.22011"><ele>866.6</ele><time>2016-08-28T08:33:59Z</time></trkpt>
<trkpt lat="46.15732" lon="7.22009"><ele>867</ele><time>2016-08-28T08:34:01Z</time></trkpt>
<trkpt lat="46.15728" lon="7.22007"><ele>867.6</ele><time>2016-08-28T08:34:03Z</time></trkpt>
<trkpt lat="46.15724" lon="7.22007"><ele>868</ele><time>2016-08-28T08:34:05Z</time></trkpt>
<trkpt lat="46.15721" lon="7.22007"><ele>868.4</ele><time>2016-08-28T08:34:07Z</time></trkpt>
<trkpt lat="46.15717" lon="7.22006"><ele>868.8</ele><time>2016-08-28T08:34:09Z</time></trkpt>
<trkpt lat="46.15713" lon="7.22006"><ele>869.2</ele><time>2016-08-28T08:34:11Z</time></trkpt>
<trkpt lat="46.15709" lon="7.22006"><ele>869.6</ele><time>2016-08-28T08:34:13Z</time></trkpt>
<trkpt lat="46.15705" lon="7.22005"><ele>870.2</ele><time>2016-08-28T08:34:15Z</time></trkpt>
<trkpt lat="46.15703" lon="7.22005"><ele>870.4</ele><time>2016-08-28T08:34:16Z</time></trkpt>
<trkpt lat="46.15701" lon="7.22005"><ele>870.6</ele><time>2016-08-28T08:34:17Z</time></trkpt>
<trkpt lat="46.15697" lon="7.22005"><ele>870.8</ele><time>2016-08-28T08:34:19Z</time></trkpt>
<trkpt lat="46.15694" lon="7.22004"><ele>871.2</ele><time>2016-08-28T08:34:21Z</time></trkpt>
<trkpt lat="46.1569" lon="7.22004"><ele>871.6</ele><time>2016-08-28T08:34:23Z</time></trkpt>
<trkpt lat="46.15686" lon="7.22004"><ele>871.8</ele><time>2016-08-28T08:34:25Z</time></trkpt>
<trkpt lat="46.15682" lon="7.22003"><ele>872.2</ele><time>2016-08-28T08:34:27Z</time></trkpt>
<trkpt lat="46.15678" lon="7.22002"><ele>872.6</ele><time>2016-08-28T08:34:29Z</time></trkpt>
<trkpt lat="46.15674" lon="7.22001"><ele>873</ele><time>2016-08-28T08:34:31Z</time></trkpt>
<trkpt lat="46.15671" lon="7.21999"><ele>873.2</ele><time>2016-08-28T08:34:33Z</time></trkpt>
<trkpt lat="46.15667" lon="7.21998"><ele>873.6</ele><time>2016-08-28T08:34:35Z</time></trkpt>
<trkpt lat="46.15663" lon="7.21996"><ele>874</ele><time>2016-08-28T08:34:37Z</time></trkpt>
<trkpt lat="46.1566" lon="7.21995"><ele>874.2</ele><time>2016-08-28T08:34:39Z</time></trkpt>
<trkpt lat="46.15656" lon="7.21993"><ele>874.6</ele><time>2016-08-28T08:34:41Z</time></trkpt>
<trkpt lat="46.15652" lon="7.21992"><ele>875</ele><time>2016-08-28T08:34:43Z</time></trkpt>
<trkpt lat="46.15648" lon="7.21991"><ele>875.4</ele><time>2016-08-28T08:34:45Z</time></trkpt>
<trkpt lat="46.15645" lon="7.21989"><ele>875.6</ele><time>2016-08-28T08:34:47Z</time></trkpt>
<trkpt lat="46.15641" lon="7.21988"><ele>876</ele><time>2016-08-28T08:34:49Z</time></trkpt>
<trkpt lat="46.15637" lon="7.21986"><ele>876.4</ele><time>2016-08-28T08:34:51Z</time></trkpt>
<trkpt lat="46.15634" lon="7.21985"><ele>876.8</ele><time>2016-08-28T08:34:53Z</time></trkpt>
<trkpt lat="46.15631" lon="7.21983"><ele>877</ele><time>2016-08-28T08:34:55Z</time></trkpt>
<trkpt lat="46.15628" lon="7.21981"><ele>877.4</ele><time>2016-08-28T08:34:57Z</time></trkpt>
<trkpt lat="46.15624" lon="7.21979"><ele>877.8</ele><time>2016-08-28T08:34:59Z</time></trkpt>
<trkpt lat="46.15621" lon="7.21977"><ele>878.2</ele><time>2016-08-28T08:35:01Z</time></trkpt>
<trkpt lat="46.15618" lon="7.21976"><ele>878.6</ele><time>2016-08-28T08:35:03Z</time></trkpt>
<trkpt lat="46.15615" lon="7.21974"><ele>878.8</ele><time>2016-08-28T08:35:05Z</time></trkpt>
<trkpt lat="46.15611" lon="7.21972"><ele>879.2</ele><time>2016-08-28T08:35:07Z</time></trkpt>
<trkpt lat="46.15608" lon="7.2197"><ele>879.6</ele><time>2016-08-28T08:35:09Z</time></trkpt>
<trkpt lat="46.15605" lon="7.21969"><ele>880</ele><time>2016-08-28T08:35:11Z</time></trkpt>
<trkpt lat="46.15602" lon="7.21967"><ele>880.4</ele><time>2016-08-28T08:35:13Z</time></trkpt>
<trkpt lat="46.15598" lon="7.21965"><ele>880.8</ele><time>2016-08-28T08:35:15Z</time></trkpt>
<trkpt lat="46.15595" lon="7.21963"><ele>881.2</ele><time>2016-08-28T08:35:17Z</time></trkpt>
<trkpt lat="46.15592" lon="7.21961"><ele>881.6</ele><time>2016-08-28T08:35:19Z</time></trkpt>
<trkpt lat="46.15588" lon="7.21958"><ele>882</ele><time>2016-08-28T08:35:21Z</time></trkpt>
<trkpt lat="46.15585" lon="7.21956"><ele>882.2</ele><time>2016-08-28T08:35:23Z</time></trkpt>
<trkpt lat="46.15581" lon="7.21953"><ele>882.6</ele><time>2016-08-28T08:35:25Z</time></trkpt>
<trkpt lat="46.15578" lon="7.2195"><ele>883</ele><time>2016-08-28T08:35:27Z</time></trkpt>
<trkpt lat="46.15574" lon="7.21948"><ele>883.4</ele><time>2016-08-28T08:35:29Z</time></trkpt>
<trkpt lat="46.1557" lon="7.21945"><ele>883.8</ele><time>2016-08-28T08:35:31Z</time></trkpt>
<trkpt lat="46.15569" lon="7.21944"><ele>884</ele><time>2016-08-28T08:35:32Z</time></trkpt>
<trkpt lat="46.15567" lon="7.21943"><ele>884.2</ele><time>2016-08-28T08:35:33Z</time></trkpt>
<trkpt lat="46.15563" lon="7.2194"><ele>884.6</ele><time>2016-08-28T08:35:35Z</time></trkpt>
<trkpt lat="46.1556" lon="7.21938"><ele>884.8</ele><time>2016-08-28T08:35:37Z</time></trkpt>
<trkpt lat="46.15556" lon="7.21935"><ele>885.2</ele><time>2016-08-28T08:35:39Z</time></trkpt>
<trkpt lat="46.15555" lon="7.21934"><ele>885.4</ele><time>2016-08-28T08:35:40Z</time></trkpt>
<trkpt lat="46.15553" lon="7.21933"><ele>885.6</ele><time>2016-08-28T08:35:41Z</time></trkpt>
<trkpt lat="46.15549" lon="7.21931"><ele>886</ele><time>2016-08-28T08:35:43Z</time></trkpt>
<trkpt lat="46.15546" lon="7.2193"><ele>886.4</ele><time>2016-08-28T08:35:45Z</time></trkpt>
<trkpt lat="46.15542" lon="7.21928"><ele>886.6</ele><time>2016-08-28T08:35:47Z</time></trkpt>
<trkpt lat="46.15539" lon="7.21927"><ele>887</ele><time>2016-08-28T08:35:49Z</time></trkpt>
<trkpt lat="46.15535" lon="7.21925"><ele>887.4</ele><time>2016-08-28T08:35:51Z</time></trkpt>
<trkpt lat="46.15532" lon="7.21924"><ele>887.8</ele><time>2016-08-28T08:35:53Z</time></trkpt>
<trkpt lat="46.15528" lon="7.21922"><ele>888.2</ele><time>2016-08-28T08:35:55Z</time></trkpt>
<trkpt lat="46.15524" lon="7.21921"><ele>888.6</ele><time>2016-08-28T08:35:57Z</time></trkpt>
<trkpt lat="46.15521" lon="7.2192"><ele>889</ele><time>2016-08-28T08:35:59Z</time></trkpt>
<trkpt lat="46.15517" lon="7.21918"><ele>889.4</ele><time>2016-08-28T08:36:01Z</time></trkpt>
<trkpt lat="46.15514" lon="7.21917"><ele>889.8</ele><time>2016-08-28T08:36:03Z</time></trkpt>
<trkpt lat="46.1551" lon="7.21915"><ele>890.2</ele><time>2016-08-28T08:36:05Z</time></trkpt>
<trkpt lat="46.15507" lon="7.21913"><ele>890.6</ele><time>2016-08-28T08:36:07Z</time></trkpt>
<trkpt lat="46.15503" lon="7.2191"><ele>890.8</ele><time>2016-08-28T08:36:09Z</time></trkpt>
<trkpt lat="46.155" lon="7.21908"><ele>891.2</ele><time>2016-08-28T08:36:11Z</time></trkpt>
<trkpt lat="46.15496" lon="7.21905"><ele>891.6</ele><time>2016-08-28T08:36:13Z</time></trkpt>
<trkpt lat="46.15492" lon="7.21903"><ele>892</ele><time>2016-08-28T08:36:15Z</time></trkpt>
<trkpt lat="46.15489" lon="7.219"><ele>892.2</ele><time>2016-08-28T08:36:17Z</time></trkpt>
<trkpt lat="46.15485" lon="7.21898"><ele>892.6</ele><time>2016-08-28T08:36:19Z</time></trkpt>
<trkpt lat="46.15482" lon="7.21895"><ele>893</ele><time>2016-08-28T08:36:21Z</time></trkpt>
<trkpt lat="46.15478" lon="7.21893"><ele>893.4</ele><time>2016-08-28T08:36:23Z</time></trkpt>
<trkpt lat="46.15474" lon="7.21891"><ele>893.8</ele><time>2016-08-28T08:36:25Z</time></trkpt>
<trkpt lat="46.15471" lon="7.21888"><ele>894</ele><time>2016-08-28T08:36:27Z</time></trkpt>
<trkpt lat="46.15469" lon="7.21887"><ele>894.2</ele><time>2016-08-28T08:36:28Z</time></trkpt>
<trkpt lat="46.15467" lon="7.21885"><ele>894.4</ele><time>2016-08-28T08:36:29Z</time></trkpt>
<trkpt lat="46.15465" lon="7.21882"><ele>894.8</ele><time>2016-08-28T08:36:31Z</time></trkpt>
<trkpt lat="46.15462" lon="7.21879"><ele>895.2</ele><time>2016-08-28T08:36:33Z</time></trkpt>
<trkpt lat="46.15459" lon="7.21876"><ele>895.6</ele><time>2016-08-28T08:36:35Z</time></trkpt>
<trkpt lat="46.15456" lon="7.21873"><ele>895.8</ele><time>2016-08-28T08:36:37Z</time></trkpt>
<trkpt lat="46.15453" lon="7.2187"><ele>896.2</ele><time>2016-08-28T08:36:39Z</time></trkpt>
<trkpt lat="46.15452" lon="7.21868"><ele>896.4</ele><time>2016-08-28T08:36:40Z</time></trkpt>
<trkpt lat="46.1545" lon="7.21866"><ele>896.6</ele><time>2016-08-28T08:36:41Z</time></trkpt>
<trkpt lat="46.15447" lon="7.21863"><ele>897</ele><time>2016-08-28T08:36:43Z</time></trkpt>
<trkpt lat="46.15444" lon="7.2186"><ele>897.4</ele><time>2016-08-28T08:36:45Z</time></trkpt>
<trkpt lat="46.15442" lon="7.21857"><ele>897.8</ele><time>2016-08-28T08:36:47Z</time></trkpt>
<trkpt lat="46.15439" lon="7.21854"><ele>898.2</ele><time>2016-08-28T08:36:49Z</time></trkpt>
<trkpt lat="46.15436" lon="7.21851"><ele>898.6</ele><time>2016-08-28T08:36:51Z</time></trkpt>
<trkpt lat="46.15433" lon="7.21848"><ele>899</ele><time>2016-08-28T08:36:53Z</time></trkpt>
<trkpt lat="46.1543" lon="7.21844"><ele>899.4</ele><time>2016-08-28T08:36:55Z</time></trkpt>
<trkpt lat="46.15428" lon="7.2184"><ele>899.8</ele><time>2016-08-28T08:36:57Z</time></trkpt>
<trkpt lat="46.15426" lon="7.21836"><ele>900.2</ele><time>2016-08-28T08:36:59Z</time></trkpt>
<trkpt lat="46.15423" lon="7.21833"><ele>900.6</ele><time>2016-08-28T08:37:01Z</time></trkpt>
<trkpt lat="46.15422" lon="7.21831"><ele>900.8</ele><time>2016-08-28T08:37:02Z</time></trkpt>
<trkpt lat="46.15421" lon="7.21829"><ele>901</ele><time>2016-08-28T08:37:03Z</time></trkpt>
<trkpt lat="46.15418" lon="7.21825"><ele>901.2</ele><time>2016-08-28T08:37:05Z</time></trkpt>
<trkpt lat="46.15416" lon="7.21821"><ele>901.6</ele><time>2016-08-28T08:37:07Z</time></trkpt>
<trkpt lat="46.15413" lon="7.21817"><ele>902</ele><time>2016-08-28T08:37:09Z</time></trkpt>
<trkpt lat="46.15411" lon="7.21814"><ele>902.2</ele><time>2016-08-28T08:37:11Z</time></trkpt>
<trkpt lat="46.15408" lon="7.2181"><ele>902.6</ele><time>2016-08-28T08:37:13Z</time></trkpt>
<trkpt lat="46.15406" lon="7.21806"><ele>903</ele><time>2016-08-28T08:37:15Z</time></trkpt>
<trkpt lat="46.15403" lon="7.21802"><ele>903.2</ele><time>2016-08-28T08:37:17Z</time></trkpt>
<trkpt lat="46.15401" lon="7.21799"><ele>903.6</ele><time>2016-08-28T08:37:19Z</time></trkpt>
<trkpt lat="46.15398" lon="7.21795"><ele>904</ele><time>2016-08-28T08:37:21Z</time></trkpt>
<trkpt lat="46.15395" lon="7.21792"><ele>904.2</ele><time>2016-08-28T08:37:23Z</time></trkpt>
<trkpt lat="46.15392" lon="7.21788"><ele>904.6</ele><time>2016-08-28T08:37:25Z</time></trkpt>
<trkpt lat="46.15389" lon="7.21785"><ele>905</ele><time>2016-08-28T08:37:27Z</time></trkpt>
<trkpt lat="46.15386" lon="7.21782"><ele>905.4</ele><time>2016-08-28T08:37:29Z</time></trkpt>
<trkpt lat="46.15383" lon="7.21778"><ele>905.6</ele><time>2016-08-28T08:37:31Z</time></trkpt>
<trkpt lat="46.1538" lon="7.21775"><ele>906</ele><time>2016-08-28T08:37:33Z</time></trkpt>
<trkpt lat="46.15377" lon="7.21771"><ele>906.4</ele><time>2016-08-28T08:37:35Z</time></trkpt>
<trkpt lat="46.15374" lon="7.21768"><ele>906.6</ele><time>2016-08-28T08:37:37Z</time></trkpt>
<trkpt lat="46.15371" lon="7.21764"><ele>907</ele><time>2016-08-28T08:37:39Z</time></trkpt>
<trkpt lat="46.15368" lon="7.21761"><ele>907.4</ele><time>2016-08-28T08:37:41Z</time></trkpt>
<trkpt lat="46.15365" lon="7.21758"><ele>907.8</ele><time>2016-08-28T08:37:43Z</time></trkpt>
<trkpt lat="46.15361" lon="7.21755"><ele>908</ele><time>2016-08-28T08:37:45Z</time></trkpt>
<trkpt lat="46.15357" lon="7.21753"><ele>908.4</ele><time>2016-08-28T08:37:47Z</time></trkpt>
<trkpt lat="46.15352" lon="7.21751"><ele>908.8</ele><time>2016-08-28T08:37:49Z</time></trkpt>
<trkpt lat="46.15348" lon="7.21749"><ele>909.2</ele><time>2016-08-28T08:37:51Z</time></trkpt>
<trkpt lat="46.15344" lon="7.21747"><ele>909.4</ele><time>2016-08-28T08:37:53Z</time></trkpt>
<trkpt lat="46.15339" lon="7.21745"><ele>909.8</ele><time>2016-08-28T08:37:55Z</time></trkpt>
<trkpt lat="46.15335" lon="7.21743"><ele>910.2</ele><time>2016-08-28T08:37:57Z</time></trkpt>
<trkpt lat="46.1533" lon="7.21741"><ele>910.6</ele><time>2016-08-28T08:37:59Z</time></trkpt>
<trkpt lat="46.15326" lon="7.21739"><ele>911</ele><time>2016-08-28T08:38:01Z</time></trkpt>
<trkpt lat="46.15322" lon="7.21737"><ele>911.2</ele><time>2016-08-28T08:38:03Z</time></trkpt>
<trkpt lat="46.15315" lon="7.21736"><ele>911.6</ele><time>2016-08-28T08:38:05Z</time></trkpt>
<trkpt lat="46.15309" lon="7.21735"><ele>912</ele><time>2016-08-28T08:38:07Z</time></trkpt>
<trkpt lat="46.15301" lon="7.21722"><ele>912.2</ele><time>2016-08-28T08:38:08Z</time></trkpt>
<trkpt lat="46.15299" lon="7.21719"><ele>912.4</ele><time>2016-08-28T08:38:09Z</time></trkpt>
<trkpt lat="46.15298" lon="7.21715"><ele>912.8</ele><time>2016-08-28T08:38:11Z</time></trkpt>
<trkpt lat="46.15297" lon="7.21712"><ele>913.2</ele><time>2016-08-28T08:38:13Z</time></trkpt>
<trkpt lat="46.15296" lon="7.21709"><ele>913.6</ele><time>2016-08-28T08:38:15Z</time></trkpt>
<trkpt lat="46.15294" lon="7.21705"><ele>914</ele><time>2016-08-28T08:38:17Z</time></trkpt>
<trkpt lat="46.15293" lon="7.21702"><ele>914.4</ele><time>2016-08-28T08:38:19Z</time></trkpt>
<trkpt lat="46.15292" lon="7.21699"><ele>914.8</ele><time>2016-08-28T08:38:21Z</time></trkpt>
<trkpt lat="46.15291" lon="7.21695"><ele>915.2</ele><time>2016-08-28T08:38:23Z</time></trkpt>
<trkpt lat="46.1529" lon="7.21692"><ele>915.6</ele><time>2016-08-28T08:38:25Z</time></trkpt>
<trkpt lat="46.15288" lon="7.21688"><ele>916</ele><time>2016-08-28T08:38:27Z</time></trkpt>
<trkpt lat="46.15287" lon="7.21685"><ele>916.4</ele><time>2016-08-28T08:38:29Z</time></trkpt>
<trkpt lat="46.15286" lon="7.21682"><ele>916.6</ele><time>2016-08-28T08:38:31Z</time></trkpt>
<trkpt lat="46.15285" lon="7.21678"><ele>917</ele><time>2016-08-28T08:38:33Z</time></trkpt>
<trkpt lat="46.15284" lon="7.21675"><ele>917.4</ele><time>2016-08-28T08:38:35Z</time></trkpt>
<trkpt lat="46.15282" lon="7.21672"><ele>917.6</ele><time>2016-08-28T08:38:37Z</time></trkpt>
<trkpt lat="46.15281" lon="7.21668"><ele>918</ele><time>2016-08-28T08:38:39Z</time></trkpt>
<trkpt lat="46.1528" lon="7.21665"><ele>918.4</ele><time>2016-08-28T08:38:41Z</time></trkpt>
<trkpt lat="46.15279" lon="7.21661"><ele>918.6</ele><time>2016-08-28T08:38:43Z</time></trkpt>
<trkpt lat="46.15279" lon="7.21661"><ele>919</ele><time>2016-08-28T08:38:45Z</time></trkpt>
<trkpt lat="46.15278" lon="7.2166"><ele>919.4</ele><time>2016-08-28T08:38:47Z</time></trkpt>
<trkpt lat="46.15278" lon="7.21659"><ele>919.6</ele><time>2016-08-28T08:38:49Z</time></trkpt>
<trkpt lat="46.15278" lon="7.21659"><ele>919.8</ele><time>2016-08-28T08:38:51Z</time></trkpt>
<trkpt lat="46.15278" lon="7.21658"><ele>920.2</ele><time>2016-08-28T08:38:53Z</time></trkpt>
<trkpt lat="46.15278" lon="7.21658"><ele>920.4</ele><time>2016-08-28T08:38:55Z</time></trkpt>
<trkpt lat="46.15278" lon="7.21657"><ele>920.6</ele><time>2016-08-28T08:38:57Z</time></trkpt>
<trkpt lat="46.15265" lon="7.21628"><ele>923.2</ele><time>2016-08-28T08:39:00Z</time></trkpt>
<trkpt lat="46.15265" lon="7.21628"><ele>923.2</ele><time>2016-08-28T08:41:30Z</time></trkpt>
<trkpt lat="46.15252" lon="7.21599"><ele>925.4</ele><time>2016-08-28T08:41:31Z</time></trkpt>
<trkpt lat="46.15251" lon="7.21597"><ele>925.4</ele><time>2016-08-28T08:41:33Z</time></trkpt>
<trkpt lat="46.15249" lon="7.21594"><ele>925.6</ele><time>2016-08-28T08:41:35Z</time></trkpt>
<trkpt lat="46.15248" lon="7.21592"><ele>925.6</ele><time>2016-08-28T08:41:37Z</time></trkpt>
<trkpt lat="46.15246" lon="7.21589"><ele>925.6</ele><time>2016-08-28T08:41:39Z</time></trkpt>
<trkpt lat="46.15245" lon="7.21586"><ele>925.6</ele><time>2016-08-28T08:41:41Z</time></trkpt>
<trkpt lat="46.15243" lon="7.21584"><ele>925.8</ele><time>2016-08-28T08:41:43Z</time></trkpt>
<trkpt lat="46.15242" lon="7.21583"><ele>925.8</ele><time>2016-08-28T08:41:44Z</time></trkpt>
<trkpt lat="46.15242" lon="7.21581"><ele>925.8</ele><time>2016-08-28T08:41:45Z</time></trkpt>
<trkpt lat="46.1524" lon="7.21579"><ele>926</ele><time>2016-08-28T08:41:47Z</time></trkpt>
<trkpt lat="46.15239" lon="7.21576"><ele>926.4</ele><time>2016-08-28T08:41:49Z</time></trkpt>
<trkpt lat="46.15237" lon="7.21574"><ele>926.6</ele><time>2016-08-28T08:41:51Z</time></trkpt>
<trkpt lat="46.15236" lon="7.21571"><ele>926.8</ele><time>2016-08-28T08:41:53Z</time></trkpt>
<trkpt lat="46.15234" lon="7.21569"><ele>927.2</ele><time>2016-08-28T08:41:55Z</time></trkpt>
<trkpt lat="46.15233" lon="7.21567"><ele>927.2</ele><time>2016-08-28T08:41:56Z</time></trkpt>
<trkpt lat="46.15232" lon="7.21567"><ele>927.4</ele><time>2016-08-28T08:41:57Z</time></trkpt>
<trkpt lat="46.15229" lon="7.21567"><ele>927.6</ele><time>2016-08-28T08:41:59Z</time></trkpt>
<trkpt lat="46.15226" lon="7.21567"><ele>928</ele><time>2016-08-28T08:42:01Z</time></trkpt>
<trkpt lat="46.15224" lon="7.21567"><ele>928.2</ele><time>2016-08-28T08:42:03Z</time></trkpt>
<trkpt lat="46.15221" lon="7.21567"><ele>928.6</ele><time>2016-08-28T08:42:05Z</time></trkpt>
<trkpt lat="46.15218" lon="7.21567"><ele>928.8</ele><time>2016-08-28T08:42:07Z</time></trkpt>
<trkpt lat="46.15215" lon="7.21567"><ele>929.2</ele><time>2016-08-28T08:42:09Z</time></trkpt>
<trkpt lat="46.15212" lon="7.21567"><ele>929.4</ele><time>2016-08-28T08:42:11Z</time></trkpt>
<trkpt lat="46.15209" lon="7.21566"><ele>929.8</ele><time>2016-08-28T08:42:13Z</time></trkpt>
<trkpt lat="46.15207" lon="7.21566"><ele>930</ele><time>2016-08-28T08:42:15Z</time></trkpt>
<trkpt lat="46.15204" lon="7.21566"><ele>930.2</ele><time>2016-08-28T08:42:17Z</time></trkpt>
<trkpt lat="46.15202" lon="7.21566"><ele>930.4</ele><time>2016-08-28T08:42:18Z</time></trkpt>
<trkpt lat="46.15201" lon="7.21566"><ele>930.6</ele><time>2016-08-28T08:42:19Z</time></trkpt>
<trkpt lat="46.15198" lon="7.21566"><ele>930.8</ele><time>2016-08-28T08:42:21Z</time></trkpt>
<trkpt lat="46.15195" lon="7.21566"><ele>931.2</ele><time>2016-08-28T08:42:23Z</time></trkpt>
<trkpt lat="46.15193" lon="7.21566"><ele>931.6</ele><time>2016-08-28T08:42:25Z</time></trkpt>
<trkpt lat="46.1519" lon="7.21566"><ele>931.8</ele><time>2016-08-28T08:42:27Z</time></trkpt>
<trkpt lat="46.15187" lon="7.21566"><ele>932.2</ele><time>2016-08-28T08:42:29Z</time></trkpt>
<trkpt lat="46.15183" lon="7.21566"><ele>932.4</ele><time>2016-08-28T08:42:31Z</time></trkpt>
<trkpt lat="46.1518" lon="7.21567"><ele>932.8</ele><time>2016-08-28T08:42:33Z</time></trkpt>
<trkpt lat="46.15176" lon="7.21567"><ele>933</ele><time>2016-08-28T08:42:35Z</time></trkpt>
<trkpt lat="46.15172" lon="7.21567"><ele>933.4</ele><time>2016-08-28T08:42:37Z</time></trkpt>
<trkpt lat="46.15169" lon="7.21568"><ele>933.6</ele><time>2016-08-28T08:42:39Z</time></trkpt>
<trkpt lat="46.15167" lon="7.21568"><ele>933.8</ele><time>2016-08-28T08:42:40Z</time></trkpt>
<trkpt lat="46.15165" lon="7.21568"><ele>934</ele><time>2016-08-28T08:42:41Z</time></trkpt>
<trkpt lat="46.15161" lon="7.21569"><ele>934.4</ele><time>2016-08-28T08:42:43Z</time></trkpt>
<trkpt lat="46.15158" lon="7.21569"><ele>934.8</ele><time>2016-08-28T08:42:45Z</time></trkpt>
<trkpt lat="46.15154" lon="7.21569"><ele>935.2</ele><time>2016-08-28T08:42:47Z</time></trkpt>
<trkpt lat="46.1515" lon="7.2157"><ele>935.4</ele><time>2016-08-28T08:42:49Z</time></trkpt>
<trkpt lat="46.15147" lon="7.2157"><ele>935.8</ele><time>2016-08-28T08:42:51Z</time></trkpt>
<trkpt lat="46.15143" lon="7.21571"><ele>936.2</ele><time>2016-08-28T08:42:53Z</time></trkpt>
<trkpt lat="46.15141" lon="7.21571"><ele>936.4</ele><time>2016-08-28T08:42:54Z</time></trkpt>
<trkpt lat="46.1514" lon="7.2157"><ele>936.6</ele><time>2016-08-28T08:42:55Z</time></trkpt>
<trkpt lat="46.15136" lon="7.21569"><ele>937</ele><time>2016-08-28T08:42:57Z</time></trkpt>
<trkpt lat="46.15133" lon="7.21567"><ele>937.2</ele><time>2016-08-28T08:42:59Z</time></trkpt>
<trkpt lat="46.1513" lon="7.21565"><ele>937.6</ele><time>2016-08-28T08:43:01Z</time></trkpt>
<trkpt lat="46.15127" lon="7.21564"><ele>938</ele><time>2016-08-28T08:43:03Z</time></trkpt>
<trkpt lat="46.15124" lon="7.21562"><ele>938.2</ele><time>2016-08-28T08:43:05Z</time></trkpt>
<trkpt lat="46.15121" lon="7.21561"><ele>938.6</ele><time>2016-08-28T08:43:07Z</time></trkpt>
<trkpt lat="46.15118" lon="7.21559"><ele>939</ele><time>2016-08-28T08:43:09Z</time></trkpt>
<trkpt lat="46.15114" lon="7.21557"><ele>939.2</ele><time>2016-08-28T08:43:11Z</time></trkpt>
<trkpt lat="46.15111" lon="7.21556"><ele>939.6</ele><time>2016-08-28T08:43:13Z</time></trkpt>
<trkpt lat="46.15108" lon="7.21554"><ele>940</ele><time>2016-08-28T08:43:15Z</time></trkpt>
<trkpt lat="46.15105" lon="7.21552"><ele>940.2</ele><time>2016-08-28T08:43:17Z</time></trkpt>
<trkpt lat="46.15102" lon="7.21551"><ele>940.6</ele><time>2016-08-28T08:43:19Z</time></trkpt>
<trkpt lat="46.15099" lon="7.21549"><ele>941</ele><time>2016-08-28T08:43:21Z</time></trkpt>
<trkpt lat="46.15096" lon="7.21547"><ele>941.4</ele><time>2016-08-28T08:43:23Z</time></trkpt>
<trkpt lat="46.15093" lon="7.21545"><ele>941.6</ele><time>2016-08-28T08:43:25Z</time></trkpt>
<trkpt lat="46.1509" lon="7.21543"><ele>942</ele><time>2016-08-28T08:43:27Z</time></trkpt>
<trkpt lat="46.15087" lon="7.21541"><ele>942.4</ele><time>2016-08-28T08:43:29Z</time></trkpt>
<trkpt lat="46.15084" lon="7.21539"><ele>942.6</ele><time>2016-08-28T08:43:31Z</time></trkpt>
<trkpt lat="46.15081" lon="7.21537"><ele>943</ele><time>2016-08-28T08:43:33Z</time></trkpt>
<trkpt lat="46.15078" lon="7.21535"><ele>943.4</ele><time>2016-08-28T08:43:35Z</time></trkpt>
<trkpt lat="46.15075" lon="7.21533"><ele>943.6</ele><time>2016-08-28T08:43:37Z</time></trkpt>
<trkpt lat="46.15072" lon="7.21531"><ele>944</ele><time>2016-08-28T08:43:39Z</time></trkpt>
<trkpt lat="46.15069" lon="7.21529"><ele>944.4</ele><time>2016-08-28T08:43:41Z</time></trkpt>
<trkpt lat="46.15066" lon="7.21527"><ele>944.8</ele><time>2016-08-28T08:43:43Z</time></trkpt>
<trkpt lat="46.15063" lon="7.21525"><ele>945.2</ele><time>2016-08-28T08:43:45Z</time></trkpt>
<trkpt lat="46.1506" lon="7.21523"><ele>945.6</ele><time>2016-08-28T08:43:47Z</time></trkpt>
<trkpt lat="46.15057" lon="7.21521"><ele>946</ele><time>2016-08-28T08:43:49Z</time></trkpt>
<trkpt lat="46.15055" lon="7.21518"><ele>946.4</ele><time>2016-08-28T08:43:51Z</time></trkpt>
<trkpt lat="46.15053" lon="7.21515"><ele>946.6</ele><time>2016-08-28T08:43:53Z</time></trkpt>
<trkpt lat="46.15052" lon="7.21513"><ele>946.8</ele><time>2016-08-28T08:43:54Z</time></trkpt>
<trkpt lat="46.15051" lon="7.21512"><ele>947</ele><time>2016-08-28T08:43:55Z</time></trkpt>
<trkpt lat="46.15048" lon="7.21509"><ele>947.2</ele><time>2016-08-28T08:43:57Z</time></trkpt>
<trkpt lat="46.15046" lon="7.21506"><ele>947.4</ele><time>2016-08-28T08:43:59Z</time></trkpt>
<trkpt lat="46.15044" lon="7.21503"><ele>947.6</ele><time>2016-08-28T08:44:01Z</time></trkpt>
<trkpt lat="46.15041" lon="7.215"><ele>948</ele><time>2016-08-28T08:44:03Z</time></trkpt>
<trkpt lat="46.15038" lon="7.21499"><ele>948.2</ele><time>2016-08-28T08:44:05Z</time></trkpt>
<trkpt lat="46.15035" lon="7.21499"><ele>948.4</ele><time>2016-08-28T08:44:07Z</time></trkpt>
<trkpt lat="46.15031" lon="7.21498"><ele>948.6</ele><time>2016-08-28T08:44:09Z</time></trkpt>
<trkpt lat="46.15028" lon="7.21498"><ele>948.8</ele><time>2016-08-28T08:44:11Z</time></trkpt>
<trkpt lat="46.15024" lon="7.21497"><ele>949.2</ele><time>2016-08-28T08:44:13Z</time></trkpt>
<trkpt lat="46.15021" lon="7.21497"><ele>949.4</ele><time>2016-08-28T08:44:15Z</time></trkpt>
<trkpt lat="46.15017" lon="7.21496"><ele>949.8</ele><time>2016-08-28T08:44:17Z</time></trkpt>
<trkpt lat="46.15014" lon="7.21496"><ele>950.2</ele><time>2016-08-28T08:44:19Z</time></trkpt>
<trkpt lat="46.1501" lon="7.21495"><ele>950.4</ele><time>2016-08-28T08:44:21Z</time></trkpt>
<trkpt lat="46.15007" lon="7.21495"><ele>950.8</ele><time>2016-08-28T08:44:23Z</time></trkpt>
<trkpt lat="46.15004" lon="7.21494"><ele>951</ele><time>2016-08-28T08:44:25Z</time></trkpt>
<trkpt lat="46.15" lon="7.21494"><ele>951.4</ele><time>2016-08-28T08:44:27Z</time></trkpt>
<trkpt lat="46.14997" lon="7.21494"><ele>951.6</ele><time>2016-08-28T08:44:29Z</time></trkpt>
<trkpt lat="46.14993" lon="7.21493"><ele>951.8</ele><time>2016-08-28T08:44:31Z</time></trkpt>
<trkpt lat="46.14989" lon="7.21493"><ele>952.2</ele><time>2016-08-28T08:44:33Z</time></trkpt>
<trkpt lat="46.14985" lon="7.21492"><ele>952.6</ele><time>2016-08-28T08:44:35Z</time></trkpt>
<trkpt lat="46.14982" lon="7.21492"><ele>953</ele><time>2016-08-28T08:44:37Z</time></trkpt>
<trkpt lat="46.14978" lon="7.21492"><ele>953.2</ele><time>2016-08-28T08:44:39Z</time></trkpt>
<trkpt lat="46.14974" lon="7.21491"><ele>953.6</ele><time>2016-08-28T08:44:41Z</time></trkpt>
<trkpt lat="46.1497" lon="7.21491"><ele>954</ele><time>2016-08-28T08:44:43Z</time></trkpt>
<trkpt lat="46.14966" lon="7.2149"><ele>954.2</ele><time>2016-08-28T08:44:45Z</time></trkpt>
<trkpt lat="46.14963" lon="7.2149"><ele>954.6</ele><time>2016-08-28T08:44:47Z</time></trkpt>
<trkpt lat="46.14959" lon="7.2149"><ele>955</ele><time>2016-08-28T08:44:49Z</time></trkpt>
<trkpt lat="46.14955" lon="7.21489"><ele>955.2</ele><time>2016-08-28T08:44:51Z</time></trkpt>
<trkpt lat="46.14953" lon="7.21489"><ele>955.4</ele><time>2016-08-28T08:44:52Z</time></trkpt>
<trkpt lat="46.14951" lon="7.21489"><ele>955.6</ele><time>2016-08-28T08:44:53Z</time></trkpt>
<trkpt lat="46.14948" lon="7.21487"><ele>956</ele><time>2016-08-28T08:44:55Z</time></trkpt>
<trkpt lat="46.14944" lon="7.21485"><ele>956.4</ele><time>2016-08-28T08:44:57Z</time></trkpt>
<trkpt lat="46.14941" lon="7.21484"><ele>956.6</ele><time>2016-08-28T08:44:59Z</time></trkpt>
<trkpt lat="46.14938" lon="7.21482"><ele>957</ele><time>2016-08-28T08:45:01Z</time></trkpt>
<trkpt lat="46.14934" lon="7.2148"><ele>957.4</ele><time>2016-08-28T08:45:03Z</time></trkpt>
<trkpt lat="46.14931" lon="7.21478"><ele>957.8</ele><time>2016-08-28T08:45:05Z</time></trkpt>
<trkpt lat="46.14927" lon="7.21477"><ele>958.2</ele><time>2016-08-28T08:45:07Z</time></trkpt>
<trkpt lat="46.14924" lon="7.21475"><ele>958.6</ele><time>2016-08-28T08:45:09Z</time></trkpt>
<trkpt lat="46.1492" lon="7.21473"><ele>958.8</ele><time>2016-08-28T08:45:11Z</time></trkpt>
<trkpt lat="46.14917" lon="7.21471"><ele>959.2</ele><time>2016-08-28T08:45:13Z</time></trkpt>
<trkpt lat="46.14913" lon="7.21469"><ele>959.6</ele><time>2016-08-28T08:45:15Z</time></trkpt>
<trkpt lat="46.1491" lon="7.21468"><ele>960</ele><time>2016-08-28T08:45:17Z</time></trkpt>
<trkpt lat="46.14908" lon="7.21467"><ele>960.2</ele><time>2016-08-28T08:45:18Z</time></trkpt>
<trkpt lat="46.14907" lon="7.21466"><ele>960.4</ele><time>2016-08-28T08:45:19Z</time></trkpt>
<trkpt lat="46.14904" lon="7.21463"><ele>960.8</ele><time>2016-08-28T08:45:21Z</time></trkpt>
<trkpt lat="46.14901" lon="7.21461"><ele>961</ele><time>2016-08-28T08:45:23Z</time></trkpt>
<trkpt lat="46.14898" lon="7.21458"><ele>961.4</ele><time>2016-08-28T08:45:25Z</time></trkpt>
<trkpt lat="46.14894" lon="7.21456"><ele>961.8</ele><time>2016-08-28T08:45:27Z</time></trkpt>
<trkpt lat="46.14891" lon="7.21453"><ele>962.2</ele><time>2016-08-28T08:45:29Z</time></trkpt>
<trkpt lat="46.14888" lon="7.21451"><ele>962.6</ele><time>2016-08-28T08:45:31Z</time></trkpt>
<trkpt lat="46.14885" lon="7.21449"><ele>962.8</ele><time>2016-08-28T08:45:33Z</time></trkpt>
<trkpt lat="46.14882" lon="7.21446"><ele>963.2</ele><time>2016-08-28T08:45:35Z</time></trkpt>
<trkpt lat="46.14879" lon="7.21444"><ele>963.4</ele><time>2016-08-28T08:45:37Z</time></trkpt>
<trkpt lat="46.14876" lon="7.21441"><ele>963.8</ele><time>2016-08-28T08:45:39Z</time></trkpt>
<trkpt lat="46.14873" lon="7.21439"><ele>964</ele><time>2016-08-28T08:45:41Z</time></trkpt>
<trkpt lat="46.14872" lon="7.21438"><ele>964.2</ele><time>2016-08-28T08:45:42Z</time></trkpt>
<trkpt lat="46.14871" lon="7.21439"><ele>964.4</ele><time>2016-08-28T08:45:43Z</time></trkpt>
<trkpt lat="46.1487" lon="7.21443"><ele>964.6</ele><time>2016-08-28T08:45:45Z</time></trkpt>
<trkpt lat="46.14869" lon="7.21447"><ele>965</ele><time>2016-08-28T08:45:47Z</time></trkpt>
<trkpt lat="46.14868" lon="7.21449"><ele>965</ele><time>2016-08-28T08:45:48Z</time></trkpt>
<trkpt lat="46.1487" lon="7.21451"><ele>965.2</ele><time>2016-08-28T08:45:49Z</time></trkpt>
<trkpt lat="46.14872" lon="7.21455"><ele>965.6</ele><time>2016-08-28T08:45:51Z</time></trkpt>
<trkpt lat="46.14875" lon="7.21458"><ele>965.8</ele><time>2016-08-28T08:45:53Z</time></trkpt>
<trkpt lat="46.14877" lon="7.2146"><ele>966</ele><time>2016-08-28T08:45:54Z</time></trkpt>
<trkpt lat="46.14878" lon="7.21462"><ele>966</ele><time>2016-08-28T08:45:55Z</time></trkpt>
<trkpt lat="46.14881" lon="7.21466"><ele>966.2</ele><time>2016-08-28T08:45:57Z</time></trkpt>
<trkpt lat="46.14884" lon="7.21469"><ele>966.4</ele><time>2016-08-28T08:45:59Z</time></trkpt>
<trkpt lat="46.14886" lon="7.21473"><ele>966.6</ele><time>2016-08-28T08:46:01Z</time></trkpt>
<trkpt lat="46.14889" lon="7.21477"><ele>967</ele><time>2016-08-28T08:46:03Z</time></trkpt>
<trkpt lat="46.14892" lon="7.21481"><ele>967.2</ele><time>2016-08-28T08:46:05Z</time></trkpt>
<trkpt lat="46.14895" lon="7.21484"><ele>967.4</ele><time>2016-08-28T08:46:07Z</time></trkpt>
<trkpt lat="46.14898" lon="7.21488"><ele>967.6</ele><time>2016-08-28T08:46:09Z</time></trkpt>
<trkpt lat="46.149" lon="7.21492"><ele>968</ele><time>2016-08-28T08:46:11Z</time></trkpt>
<trkpt lat="46.14902" lon="7.21493"><ele>968</ele><time>2016-08-28T08:46:12Z</time></trkpt>
<trkpt lat="46.14903" lon="7.21495"><ele>968.2</ele><time>2016-08-28T08:46:13Z</time></trkpt>
<trkpt lat="46.14907" lon="7.21498"><ele>968.4</ele><time>2016-08-28T08:46:15Z</time></trkpt>
<trkpt lat="46.1491" lon="7.215"><ele>968.8</ele><time>2016-08-28T08:46:17Z</time></trkpt>
<trkpt lat="46.14913" lon="7.21503"><ele>969</ele><time>2016-08-28T08:46:19Z</time></trkpt>
<trkpt lat="46.14914" lon="7.21505"><ele>969.2</ele><time>2016-08-28T08:46:20Z</time></trkpt>
<trkpt lat="46.14916" lon="7.21506"><ele>969.4</ele><time>2016-08-28T08:46:21Z</time></trkpt>
<trkpt lat="46.14919" lon="7.21509"><ele>969.8</ele><time>2016-08-28T08:46:23Z</time></trkpt>
<trkpt lat="46.14922" lon="7.21511"><ele>970</ele><time>2016-08-28T08:46:25Z</time></trkpt>
<trkpt lat="46.14925" lon="7.21514"><ele>970.4</ele><time>2016-08-28T08:46:27Z</time></trkpt>
<trkpt lat="46.14928" lon="7.21517"><ele>970.8</ele><time>2016-08-28T08:46:29Z</time></trkpt>
<trkpt lat="46.14931" lon="7.2152"><ele>971.2</ele><time>2016-08-28T08:46:31Z</time></trkpt>
<trkpt lat="46.14934" lon="7.21523"><ele>971.6</ele><time>2016-08-28T08:46:33Z</time></trkpt>
<trkpt lat="46.14937" lon="7.21525"><ele>972</ele><time>2016-08-28T08:46:35Z</time></trkpt>
<trkpt lat="46.1494" lon="7.21528"><ele>972.4</ele><time>2016-08-28T08:46:37Z</time></trkpt>
<trkpt lat="46.14944" lon="7.2153"><ele>972.8</ele><time>2016-08-28T08:46:39Z</time></trkpt>
<trkpt lat="46.14948" lon="7.21532"><ele>973</ele><time>2016-08-28T08:46:41Z</time></trkpt>
<trkpt lat="46.14951" lon="7.21534"><ele>973.4</ele><time>2016-08-28T08:46:43Z</time></trkpt>
<trkpt lat="46.14955" lon="7.21536"><ele>973.8</ele><time>2016-08-28T08:46:45Z</time></trkpt>
<trkpt lat="46.14959" lon="7.21538"><ele>974.2</ele><time>2016-08-28T08:46:47Z</time></trkpt>
<trkpt lat="46.14962" lon="7.2154"><ele>974.4</ele><time>2016-08-28T08:46:49Z</time></trkpt>
<trkpt lat="46.14966" lon="7.21542"><ele>974.8</ele><time>2016-08-28T08:46:51Z</time></trkpt>
<trkpt lat="46.1497" lon="7.21545"><ele>975.2</ele><time>2016-08-28T08:46:53Z</time></trkpt>
<trkpt lat="46.14973" lon="7.21547"><ele>975.4</ele><time>2016-08-28T08:46:55Z</time></trkpt>
<trkpt lat="46.14977" lon="7.21549"><ele>975.8</ele><time>2016-08-28T08:46:57Z</time></trkpt>
<trkpt lat="46.14979" lon="7.2155"><ele>976</ele><time>2016-08-28T08:46:58Z</time></trkpt>
<trkpt lat="46.14981" lon="7.21551"><ele>976.2</ele><time>2016-08-28T08:46:59Z</time></trkpt>
<trkpt lat="46.14982" lon="7.21552"><ele>976.4</ele><time>2016-08-28T08:47:00Z</time></trkpt>
<trkpt lat="46.14984" lon="7.21553"><ele>976.6</ele><time>2016-08-28T08:47:01Z</time></trkpt>
<trkpt lat="46.14987" lon="7.21555"><ele>977</ele><time>2016-08-28T08:47:03Z</time></trkpt>
<trkpt lat="46.1499" lon="7.21556"><ele>977.2</ele><time>2016-08-28T08:47:05Z</time></trkpt>
<trkpt lat="46.14993" lon="7.21558"><ele>977.6</ele><time>2016-08-28T08:47:07Z</time></trkpt>
<trkpt lat="46.14996" lon="7.2156"><ele>978</ele><time>2016-08-28T08:47:09Z</time></trkpt>
<trkpt lat="46.14999" lon="7.21562"><ele>978.4</ele><time>2016-08-28T08:47:11Z</time></trkpt>
<trkpt lat="46.15003" lon="7.21564"><ele>978.8</ele><time>2016-08-28T08:47:13Z</time></trkpt>
<trkpt lat="46.15006" lon="7.21566"><ele>979.2</ele><time>2016-08-28T08:47:15Z</time></trkpt>
<trkpt lat="46.15009" lon="7.21568"><ele>979.4</ele><time>2016-08-28T08:47:17Z</time></trkpt>
<trkpt lat="46.15012" lon="7.2157"><ele>979.8</ele><time>2016-08-28T08:47:19Z</time></trkpt>
<trkpt lat="46.15015" lon="7.21572"><ele>980</ele><time>2016-08-28T08:47:21Z</time></trkpt>
<trkpt lat="46.15018" lon="7.21573"><ele>980.4</ele><time>2016-08-28T08:47:23Z</time></trkpt>
<trkpt lat="46.15021" lon="7.21575"><ele>980.6</ele><time>2016-08-28T08:47:25Z</time></trkpt>
<trkpt lat="46.15024" lon="7.21577"><ele>981</ele><time>2016-08-28T08:47:27Z</time></trkpt>
<trkpt lat="46.15027" lon="7.2158"><ele>981.2</ele><time>2016-08-28T08:47:29Z</time></trkpt>
<trkpt lat="46.1503" lon="7.21583"><ele>981.6</ele><time>2016-08-28T08:47:31Z</time></trkpt>
<trkpt lat="46.15033" lon="7.21586"><ele>981.8</ele><time>2016-08-28T08:47:33Z</time></trkpt>
<trkpt lat="46.15036" lon="7.21589"><ele>982.2</ele><time>2016-08-28T08:47:35Z</time></trkpt>
<trkpt lat="46.15038" lon="7.21592"><ele>982.4</ele><time>2016-08-28T08:47:37Z</time></trkpt>
<trkpt lat="46.15041" lon="7.21596"><ele>982.8</ele><time>2016-08-28T08:47:39Z</time></trkpt>
<trkpt lat="46.15044" lon="7.21599"><ele>983.2</ele><time>2016-08-28T08:47:41Z</time></trkpt>
<trkpt lat="46.15047" lon="7.21602"><ele>983.4</ele><time>2016-08-28T08:47:43Z</time></trkpt>
<trkpt lat="46.1505" lon="7.21605"><ele>983.8</ele><time>2016-08-28T08:47:45Z</time></trkpt>
<trkpt lat="46.15052" lon="7.21608"><ele>984.2</ele><time>2016-08-28T08:47:47Z</time></trkpt>
<trkpt lat="46.15055" lon="7.21611"><ele>984.4</ele><time>2016-08-28T08:47:49Z</time></trkpt>
<trkpt lat="46.15058" lon="7.21614"><ele>984.8</ele><time>2016-08-28T08:47:51Z</time></trkpt>
<trkpt lat="46.15061" lon="7.21617"><ele>985.2</ele><time>2016-08-28T08:47:53Z</time></trkpt>
<trkpt lat="46.15064" lon="7.2162"><ele>985.4</ele><time>2016-08-28T08:47:55Z</time></trkpt>
<trkpt lat="46.15067" lon="7.21624"><ele>985.8</ele><time>2016-08-28T08:47:57Z</time></trkpt>
<trkpt lat="46.15069" lon="7.21627"><ele>986.2</ele><time>2016-08-28T08:47:59Z</time></trkpt>
<trkpt lat="46.15071" lon="7.21629"><ele>986.2</ele><time>2016-08-28T08:48:00Z</time></trkpt>
<trkpt lat="46.15072" lon="7.2163"><ele>986.4</ele><time>2016-08-28T08:48:01Z</time></trkpt>
<trkpt lat="46.15075" lon="7.21634"><ele>986.8</ele><time>2016-08-28T08:48:03Z</time></trkpt>
<trkpt lat="46.15078" lon="7.21637"><ele>987.2</ele><time>2016-08-28T08:48:05Z</time></trkpt>
<trkpt lat="46.15081" lon="7.2164"><ele>987.6</ele><time>2016-08-28T08:48:07Z</time></trkpt>
<trkpt lat="46.15083" lon="7.21644"><ele>988</ele><time>2016-08-28T08:48:09Z</time></trkpt>
<trkpt lat="46.15086" lon="7.21647"><ele>988.4</ele><time>2016-08-28T08:48:11Z</time></trkpt>
<trkpt lat="46.15089" lon="7.2165"><ele>988.8</ele><time>2016-08-28T08:48:13Z</time></trkpt>
<trkpt lat="46.15092" lon="7.21654"><ele>989.2</ele><time>2016-08-28T08:48:15Z</time></trkpt>
<trkpt lat="46.15095" lon="7.21657"><ele>989.6</ele><time>2016-08-28T08:48:17Z</time></trkpt>
<trkpt lat="46.15096" lon="7.21659"><ele>989.8</ele><time>2016-08-28T08:48:18Z</time></trkpt>
<trkpt lat="46.15097" lon="7.2166"><ele>990</ele><time>2016-08-28T08:48:19Z</time></trkpt>
<trkpt lat="46.15101" lon="7.21664"><ele>990.4</ele><time>2016-08-28T08:48:21Z</time></trkpt>
<trkpt lat="46.15104" lon="7.21667"><ele>990.6</ele><time>2016-08-28T08:48:23Z</time></trkpt>
<trkpt lat="46.15107" lon="7.2167"><ele>991</ele><time>2016-08-28T08:48:25Z</time></trkpt>
<trkpt lat="46.1511" lon="7.21673"><ele>991.4</ele><time>2016-08-28T08:48:27Z</time></trkpt>
<trkpt lat="46.15114" lon="7.21677"><ele>991.6</ele><time>2016-08-28T08:48:29Z</time></trkpt>
<trkpt lat="46.15117" lon="7.2168"><ele>992</ele><time>2016-08-28T08:48:31Z</time></trkpt>
<trkpt lat="46.1512" lon="7.21683"><ele>992.4</ele><time>2016-08-28T08:48:33Z</time></trkpt>
<trkpt lat="46.15123" lon="7.21687"><ele>992.6</ele><time>2016-08-28T08:48:35Z</time></trkpt>
<trkpt lat="46.15126" lon="7.2169"><ele>993</ele><time>2016-08-28T08:48:37Z</time></trkpt>
<trkpt lat="46.1513" lon="7.21693"><ele>993.4</ele><time>2016-08-28T08:48:39Z</time></trkpt>
<trkpt lat="46.15131" lon="7.21695"><ele>993.6</ele><time>2016-08-28T08:48:40Z</time></trkpt>
<trkpt lat="46.15133" lon="7.21696"><ele>993.8</ele><time>2016-08-28T08:48:41Z</time></trkpt>
<trkpt lat="46.15135" lon="7.21701"><ele>994</ele><time>2016-08-28T08:48:43Z</time></trkpt>
<trkpt lat="46.15137" lon="7.21705"><ele>994.4</ele><time>2016-08-28T08:48:45Z</time></trkpt>
<trkpt lat="46.1514" lon="7.21709"><ele>994.8</ele><time>2016-08-28T08:48:47Z</time></trkpt>
<trkpt lat="46.15142" lon="7.21713"><ele>995.2</ele><time>2016-08-28T08:48:49Z</time></trkpt>
<trkpt lat="46.15144" lon="7.21717"><ele>995.6</ele><time>2016-08-28T08:48:51Z</time></trkpt>
<trkpt lat="46.15147" lon="7.21721"><ele>996</ele><time>2016-08-28T08:48:53Z</time></trkpt>
<trkpt lat="46.15149" lon="7.21726"><ele>996.4</ele><time>2016-08-28T08:48:55Z</time></trkpt>
<trkpt lat="46.15151" lon="7.2173"><ele>996.6</ele><time>2016-08-28T08:48:57Z</time></trkpt>
<trkpt lat="46.15154" lon="7.21734"><ele>997</ele><time>2016-08-28T08:48:59Z</time></trkpt>
<trkpt lat="46.15156" lon="7.21738"><ele>997.4</ele><time>2016-08-28T08:49:01Z</time></trkpt>
<trkpt lat="46.15157" lon="7.2174"><ele>997.6</ele><time>2016-08-28T08:49:02Z</time></trkpt>
<trkpt lat="46.15158" lon="7.21742"><ele>997.8</ele><time>2016-08-28T08:49:03Z</time></trkpt>
<trkpt lat="46.15161" lon="7.21747"><ele>998.2</ele><time>2016-08-28T08:49:05Z</time></trkpt>
<trkpt lat="46.15162" lon="7.21749"><ele>998.4</ele><time>2016-08-28T08:49:06Z</time></trkpt>
<trkpt lat="46.15163" lon="7.21751"><ele>998.6</ele><time>2016-08-28T08:49:07Z</time></trkpt>
<trkpt lat="46.15164" lon="7.21756"><ele>998.8</ele><time>2016-08-28T08:49:09Z</time></trkpt>
<trkpt lat="46.15166" lon="7.21761"><ele>999.2</ele><time>2016-08-28T08:49:11Z</time></trkpt>
<trkpt lat="46.15168" lon="7.21765"><ele>999.6</ele><time>2016-08-28T08:49:13Z</time></trkpt>
<trkpt lat="46.1517" lon="7.2177"><ele>1000</ele><time>2016-08-28T08:49:15Z</time></trkpt>
<trkpt lat="46.15171" lon="7.21775"><ele>1000.4</ele><time>2016-08-28T08:49:17Z</time></trkpt>
<trkpt lat="46.15173" lon="7.2178"><ele>1000.8</ele><time>2016-08-28T08:49:19Z</time></trkpt>
<trkpt lat="46.15174" lon="7.21782"><ele>1001</ele><time>2016-08-28T08:49:20Z</time></trkpt>
<trkpt lat="46.15175" lon="7.21784"><ele>1001.2</ele><time>2016-08-28T08:49:21Z</time></trkpt>
<trkpt lat="46.15176" lon="7.21789"><ele>1001.6</ele><time>2016-08-28T08:49:23Z</time></trkpt>
<trkpt lat="46.15178" lon="7.21794"><ele>1002</ele><time>2016-08-28T08:49:25Z</time></trkpt>
<trkpt lat="46.1518" lon="7.21799"><ele>1002.4</ele><time>2016-08-28T08:49:27Z</time></trkpt>
<trkpt lat="46.15182" lon="7.21804"><ele>1002.8</ele><time>2016-08-28T08:49:29Z</time></trkpt>
<trkpt lat="46.15183" lon="7.21806"><ele>1003</ele><time>2016-08-28T08:49:30Z</time></trkpt>
<trkpt lat="46.15184" lon="7.21808"><ele>1003.2</ele><time>2016-08-28T08:49:31Z</time></trkpt>
<trkpt lat="46.15188" lon="7.21812"><ele>1003.6</ele><time>2016-08-28T08:49:33Z</time></trkpt>
<trkpt lat="46.15191" lon="7.21816"><ele>1004</ele><time>2016-08-28T08:49:35Z</time></trkpt>
<trkpt lat="46.15194" lon="7.2182"><ele>1004.4</ele><time>2016-08-28T08:49:37Z</time></trkpt>
<trkpt lat="46.15198" lon="7.21824"><ele>1004.6</ele><time>2016-08-28T08:49:39Z</time></trkpt>
<trkpt lat="46.15201" lon="7.21828"><ele>1004.8</ele><time>2016-08-28T08:49:41Z</time></trkpt>
<trkpt lat="46.15204" lon="7.21832"><ele>1005.2</ele><time>2016-08-28T08:49:43Z</time></trkpt>
<trkpt lat="46.15208" lon="7.21836"><ele>1005.4</ele><time>2016-08-28T08:49:45Z</time></trkpt>
<trkpt lat="46.15211" lon="7.2184"><ele>1005.6</ele><time>2016-08-28T08:49:47Z</time></trkpt>
<trkpt lat="46.15215" lon="7.21844"><ele>1006</ele><time>2016-08-28T08:49:49Z</time></trkpt>
<trkpt lat="46.15218" lon="7.21848"><ele>1006.2</ele><time>2016-08-28T08:49:51Z</time></trkpt>
<trkpt lat="46.15219" lon="7.2185"><ele>1006.4</ele><time>2016-08-28T08:49:53Z</time></trkpt>
<trkpt lat="46.1522" lon="7.21851"><ele>1006.8</ele><time>2016-08-28T08:49:55Z</time></trkpt>
<trkpt lat="46.15221" lon="7.21853"><ele>1007</ele><time>2016-08-28T08:49:57Z</time></trkpt>
<trkpt lat="46.15222" lon="7.21854"><ele>1007.2</ele><time>2016-08-28T08:49:59Z</time></trkpt>
<trkpt lat="46.15223" lon="7.21856"><ele>1007.6</ele><time>2016-08-28T08:50:01Z</time></trkpt>
<trkpt lat="46.15224" lon="7.21857"><ele>1007.8</ele><time>2016-08-28T08:50:03Z</time></trkpt>
<trkpt lat="46.15225" lon="7.21859"><ele>1008</ele><time>2016-08-28T08:50:05Z</time></trkpt>
<trkpt lat="46.15226" lon="7.2186"><ele>1008</ele><time>2016-08-28T08:50:07Z</time></trkpt>
<trkpt lat="46.15227" lon="7.21862"><ele>1008.2</ele><time>2016-08-28T08:50:09Z</time></trkpt>
<trkpt lat="46.15228" lon="7.21863"><ele>1008.2</ele><time>2016-08-28T08:50:11Z</time></trkpt>
<trkpt lat="46.15229" lon="7.21865"><ele>1008.4</ele><time>2016-08-28T08:50:13Z</time></trkpt>
<trkpt lat="46.1523" lon="7.21866"><ele>1008.6</ele><time>2016-08-28T08:50:15Z</time></trkpt>
<trkpt lat="46.15231" lon="7.21868"><ele>1008.8</ele><time>2016-08-28T08:50:17Z</time></trkpt>
<trkpt lat="46.15232" lon="7.21869"><ele>1008.8</ele><time>2016-08-28T08:50:18Z</time></trkpt>
<trkpt lat="46.15231" lon="7.21871"><ele>1009</ele><time>2016-08-28T08:50:19Z</time></trkpt>
<trkpt lat="46.1523" lon="7.21875"><ele>1009.2</ele><time>2016-08-28T08:50:21Z</time></trkpt>
<trkpt lat="46.15233" lon="7.2188"><ele>1009.4</ele><time>2016-08-28T08:50:23Z</time></trkpt>
<trkpt lat="46.15235" lon="7.21884"><ele>1009.6</ele><time>2016-08-28T08:50:25Z</time></trkpt>
<trkpt lat="46.15238" lon="7.21889"><ele>1009.8</ele><time>2016-08-28T08:50:27Z</time></trkpt>
<trkpt lat="46.1524" lon="7.21893"><ele>1010</ele><time>2016-08-28T08:50:29Z</time></trkpt>
<trkpt lat="46.15243" lon="7.21898"><ele>1010.2</ele><time>2016-08-28T08:50:31Z</time></trkpt>
<trkpt lat="46.15246" lon="7.21902"><ele>1010.4</ele><time>2016-08-28T08:50:33Z</time></trkpt>
<trkpt lat="46.15248" lon="7.21907"><ele>1010.6</ele><time>2016-08-28T08:50:35Z</time></trkpt>
<trkpt lat="46.15251" lon="7.21911"><ele>1010.8</ele><time>2016-08-28T08:50:37Z</time></trkpt>
<trkpt lat="46.15253" lon="7.21916"><ele>1011</ele><time>2016-08-28T08:50:39Z</time></trkpt>
<trkpt lat="46.15256" lon="7.2192"><ele>1011.2</ele><time>2016-08-28T08:50:41Z</time></trkpt>
<trkpt lat="46.15258" lon="7.21925"><ele>1011.4</ele><time>2016-08-28T08:50:43Z</time></trkpt>
<trkpt lat="46.1526" lon="7.21927"><ele>1011.4</ele><time>2016-08-28T08:50:44Z</time></trkpt>
<trkpt lat="46.15261" lon="7.21929"><ele>1011.6</ele><time>2016-08-28T08:50:45Z</time></trkpt>
<trkpt lat="46.15264" lon="7.21934"><ele>1011.8</ele><time>2016-08-28T08:50:47Z</time></trkpt>
<trkpt lat="46.15266" lon="7.21939"><ele>1012</ele><time>2016-08-28T08:50:49Z</time></trkpt>
<trkpt lat="46.15269" lon="7.21943"><ele>1012.2</ele><time>2016-08-28T08:50:51Z</time></trkpt>
<trkpt lat="46.15272" lon="7.21948"><ele>1012.6</ele><time>2016-08-28T08:50:53Z</time></trkpt>
<trkpt lat="46.15274" lon="7.21953"><ele>1013</ele><time>2016-08-28T08:50:55Z</time></trkpt>
<trkpt lat="46.15277" lon="7.21957"><ele>1013.4</ele><time>2016-08-28T08:50:57Z</time></trkpt>
<trkpt lat="46.1528" lon="7.21962"><ele>1013.8</ele><time>2016-08-28T08:50:59Z</time></trkpt>
<trkpt lat="46.15282" lon="7.21967"><ele>1014.2</ele><time>2016-08-28T08:51:01Z</time></trkpt>
<trkpt lat="46.15285" lon="7.21971"><ele>1014.4</ele><time>2016-08-28T08:51:03Z</time></trkpt>
<trkpt lat="46.15288" lon="7.21976"><ele>1014.8</ele><time>2016-08-28T08:51:05Z</time></trkpt>
<trkpt lat="46.15289" lon="7.21978"><ele>1015</ele><time>2016-08-28T08:51:06Z</time></trkpt>
<trkpt lat="46.15291" lon="7.2198"><ele>1015.2</ele><time>2016-08-28T08:51:07Z</time></trkpt>
<trkpt lat="46.15292" lon="7.21982"><ele>1015.4</ele><time>2016-08-28T08:51:08Z</time></trkpt>
<trkpt lat="46.15294" lon="7.21984"><ele>1015.6</ele><time>2016-08-28T08:51:09Z</time></trkpt>
<trkpt lat="46.15298" lon="7.21987"><ele>1016</ele><time>2016-08-28T08:51:11Z</time></trkpt>
<trkpt lat="46.15301" lon="7.21991"><ele>1016.4</ele><time>2016-08-28T08:51:13Z</time></trkpt>
<trkpt lat="46.15305" lon="7.21994"><ele>1016.8</ele><time>2016-08-28T08:51:15Z</time></trkpt>
<trkpt lat="46.15309" lon="7.21997"><ele>1017.2</ele><time>2016-08-28T08:51:17Z</time></trkpt>
<trkpt lat="46.15312" lon="7.22001"><ele>1017.6</ele><time>2016-08-28T08:51:19Z</time></trkpt>
<trkpt lat="46.15316" lon="7.22004"><ele>1017.8</ele><time>2016-08-28T08:51:21Z</time></trkpt>
<trkpt lat="46.15319" lon="7.22008"><ele>1018.2</ele><time>2016-08-28T08:51:23Z</time></trkpt>
<trkpt lat="46.15323" lon="7.22011"><ele>1018.6</ele><time>2016-08-28T08:51:25Z</time></trkpt>
<trkpt lat="46.15325" lon="7.22013"><ele>1018.8</ele><time>2016-08-28T08:51:26Z</time></trkpt>
<trkpt lat="46.15327" lon="7.22015"><ele>1019</ele><time>2016-08-28T08:51:27Z</time></trkpt>
<trkpt lat="46.1533" lon="7.22017"><ele>1019.4</ele><time>2016-08-28T08:51:29Z</time></trkpt>
<trkpt lat="46.15334" lon="7.2202"><ele>1019.8</ele><time>2016-08-28T08:51:31Z</time></trkpt>
<trkpt lat="46.15338" lon="7.22022"><ele>1020.2</ele><time>2016-08-28T08:51:33Z</time></trkpt>
<trkpt lat="46.15342" lon="7.22024"><ele>1020.6</ele><time>2016-08-28T08:51:35Z</time></trkpt>
<trkpt lat="46.15345" lon="7.22027"><ele>1021</ele><time>2016-08-28T08:51:37Z</time></trkpt>
<trkpt lat="46.15349" lon="7.22029"><ele>1021.2</ele><time>2016-08-28T08:51:39Z</time></trkpt>
<trkpt lat="46.15353" lon="7.22031"><ele>1021.6</ele><time>2016-08-28T08:51:41Z</time></trkpt>
<trkpt lat="46.15357" lon="7.22034"><ele>1022</ele><time>2016-08-28T08:51:43Z</time></trkpt>
<trkpt lat="46.15361" lon="7.22036"><ele>1022.4</ele><time>2016-08-28T08:51:45Z</time></trkpt>
<trkpt lat="46.15364" lon="7.22038"><ele>1022.8</ele><time>2016-08-28T08:51:47Z</time></trkpt>
<trkpt lat="46.15366" lon="7.2204"><ele>1023</ele><time>2016-08-28T08:51:48Z</time></trkpt>
<trkpt lat="46.15368" lon="7.22041"><ele>1023.2</ele><time>2016-08-28T08:51:49Z</time></trkpt>
<trkpt lat="46.15371" lon="7.22044"><ele>1023.6</ele><time>2016-08-28T08:51:51Z</time></trkpt>
<trkpt lat="46.15374" lon="7.22048"><ele>1024</ele><time>2016-08-28T08:51:53Z</time></trkpt>
<trkpt lat="46.15377" lon="7.22052"><ele>1024.2</ele><time>2016-08-28T08:51:55Z</time></trkpt>
<trkpt lat="46.15379" lon="7.22056"><ele>1024.6</ele><time>2016-08-28T08:51:57Z</time></trkpt>
<trkpt lat="46.15382" lon="7.22059"><ele>1025</ele><time>2016-08-28T08:51:59Z</time></trkpt>
<trkpt lat="46.15385" lon="7.22063"><ele>1025.4</ele><time>2016-08-28T08:52:01Z</time></trkpt>
<trkpt lat="46.15388" lon="7.22067"><ele>1025.8</ele><time>2016-08-28T08:52:03Z</time></trkpt>
<trkpt lat="46.1539" lon="7.22071"><ele>1026.2</ele><time>2016-08-28T08:52:05Z</time></trkpt>
<trkpt lat="46.15393" lon="7.22074"><ele>1026.4</ele><time>2016-08-28T08:52:07Z</time></trkpt>
<trkpt lat="46.15396" lon="7.22078"><ele>1026.8</ele><time>2016-08-28T08:52:09Z</time></trkpt>
<trkpt lat="46.15399" lon="7.22082"><ele>1027.2</ele><time>2016-08-28T08:52:11Z</time></trkpt>
<trkpt lat="46.15402" lon="7.22085"><ele>1027.6</ele><time>2016-08-28T08:52:13Z</time></trkpt>
<trkpt lat="46.15404" lon="7.22089"><ele>1027.8</ele><time>2016-08-28T08:52:15Z</time></trkpt>
<trkpt lat="46.15407" lon="7.22093"><ele>1028.2</ele><time>2016-08-28T08:52:17Z</time></trkpt>
<trkpt lat="46.1541" lon="7.22097"><ele>1028.6</ele><time>2016-08-28T08:52:19Z</time></trkpt>
<trkpt lat="46.15413" lon="7.22101"><ele>1029</ele><time>2016-08-28T08:52:21Z</time></trkpt>
<trkpt lat="46.15416" lon="7.22105"><ele>1029.2</ele><time>2016-08-28T08:52:23Z</time></trkpt>
<trkpt lat="46.15419" lon="7.22109"><ele>1029.6</ele><time>2016-08-28T08:52:25Z</time></trkpt>
<trkpt lat="46.1542" lon="7.22111"><ele>1029.8</ele><time>2016-08-28T08:52:26Z</time></trkpt>
<trkpt lat="46.15422" lon="7.22113"><ele>1030</ele><time>2016-08-28T08:52:27Z</time></trkpt>
<trkpt lat="46.15424" lon="7.22116"><ele>1030.4</ele><time>2016-08-28T08:52:29Z</time></trkpt>
<trkpt lat="46.15427" lon="7.2212"><ele>1030.8</ele><time>2016-08-28T08:52:31Z</time></trkpt>
<trkpt lat="46.1543" lon="7.22124"><ele>1031.2</ele><time>2016-08-28T08:52:33Z</time></trkpt>
<trkpt lat="46.15433" lon="7.22128"><ele>1031.4</ele><time>2016-08-28T08:52:35Z</time></trkpt>
<trkpt lat="46.15434" lon="7.2213"><ele>1031.6</ele><time>2016-08-28T08:52:36Z</time></trkpt>
<trkpt lat="46.15436" lon="7.22132"><ele>1031.8</ele><time>2016-08-28T08:52:37Z</time></trkpt>
<trkpt lat="46.15438" lon="7.22137"><ele>1032.2</ele><time>2016-08-28T08:52:39Z</time></trkpt>
<trkpt lat="46.15441" lon="7.22141"><ele>1032.6</ele><time>2016-08-28T08:52:41Z</time></trkpt>
<trkpt lat="46.15443" lon="7.22146"><ele>1033</ele><time>2016-08-28T08:52:43Z</time></trkpt>
<trkpt lat="46.15446" lon="7.2215"><ele>1033.4</ele><time>2016-08-28T08:52:45Z</time></trkpt>
<trkpt lat="46.15448" lon="7.22155"><ele>1033.6</ele><time>2016-08-28T08:52:47Z</time></trkpt>
<trkpt lat="46.15451" lon="7.22159"><ele>1034</ele><time>2016-08-28T08:52:49Z</time></trkpt>
<trkpt lat="46.15453" lon="7.22164"><ele>1034.4</ele><time>2016-08-28T08:52:51Z</time></trkpt>
<trkpt lat="46.15456" lon="7.22168"><ele>1034.8</ele><time>2016-08-28T08:52:53Z</time></trkpt>
<trkpt lat="46.15458" lon="7.22173"><ele>1035.2</ele><time>2016-08-28T08:52:55Z</time></trkpt>
<trkpt lat="46.15461" lon="7.22177"><ele>1035.6</ele><time>2016-08-28T08:52:57Z</time></trkpt>
<trkpt lat="46.15463" lon="7.22182"><ele>1035.8</ele><time>2016-08-28T08:52:59Z</time></trkpt>
<trkpt lat="46.15467" lon="7.22185"><ele>1036.2</ele><time>2016-08-28T08:53:01Z</time></trkpt>
<trkpt lat="46.1547" lon="7.22188"><ele>1036.6</ele><time>2016-08-28T08:53:03Z</time></trkpt>
<trkpt lat="46.15473" lon="7.22192"><ele>1037</ele><time>2016-08-28T08:53:05Z</time></trkpt>
<trkpt lat="46.15476" lon="7.22195"><ele>1037.4</ele><time>2016-08-28T08:53:07Z</time></trkpt>
<trkpt lat="46.15479" lon="7.22199"><ele>1037.8</ele><time>2016-08-28T08:53:09Z</time></trkpt>
<trkpt lat="46.15482" lon="7.22202"><ele>1038</ele><time>2016-08-28T08:53:11Z</time></trkpt>
<trkpt lat="46.15485" lon="7.22205"><ele>1038.4</ele><time>2016-08-28T08:53:13Z</time></trkpt>
<trkpt lat="46.15489" lon="7.22209"><ele>1038.8</ele><time>2016-08-28T08:53:15Z</time></trkpt>
<trkpt lat="46.15492" lon="7.22212"><ele>1039.2</ele><time>2016-08-28T08:53:17Z</time></trkpt>
<trkpt lat="46.15495" lon="7.22216"><ele>1039.4</ele><time>2016-08-28T08:53:19Z</time></trkpt>
<trkpt lat="46.15498" lon="7.22219"><ele>1039.8</ele><time>2016-08-28T08:53:21Z</time></trkpt>
<trkpt lat="46.15499" lon="7.22221"><ele>1040</ele><time>2016-08-28T08:53:22Z</time></trkpt>
<trkpt lat="46.15501" lon="7.22222"><ele>1040.2</ele><time>2016-08-28T08:53:23Z</time></trkpt>
<trkpt lat="46.15504" lon="7.22225"><ele>1040.6</ele><time>2016-08-28T08:53:25Z</time></trkpt>
<trkpt lat="46.15508" lon="7.22228"><ele>1040.8</ele><time>2016-08-28T08:53:27Z</time></trkpt>
<trkpt lat="46.15511" lon="7.22231"><ele>1041.2</ele><time>2016-08-28T08:53:29Z</time></trkpt>
<trkpt lat="46.15514" lon="7.22234"><ele>1041.6</ele><time>2016-08-28T08:53:31Z</time></trkpt>
<trkpt lat="46.15517" lon="7.22237"><ele>1042</ele><time>2016-08-28T08:53:33Z</time></trkpt>
<trkpt lat="46.15519" lon="7.22239"><ele>1042.2</ele><time>2016-08-28T08:53:34Z</time></trkpt>
<trkpt lat="46.1552" lon="7.2224"><ele>1042.4</ele><time>2016-08-28T08:53:35Z</time></trkpt>
<trkpt lat="46.15524" lon="7.22243"><ele>1042.8</ele><time>2016-08-28T08:53:37Z</time></trkpt>
<trkpt lat="46.15527" lon="7.22246"><ele>1043.2</ele><time>2016-08-28T08:53:39Z</time></trkpt>
<trkpt lat="46.1553" lon="7.22249"><ele>1043.6</ele><time>2016-08-28T08:53:41Z</time></trkpt>
<trkpt lat="46.15533" lon="7.22252"><ele>1043.8</ele><time>2016-08-28T08:53:43Z</time></trkpt>
<trkpt lat="46.15537" lon="7.22255"><ele>1044.2</ele><time>2016-08-28T08:53:45Z</time></trkpt>
<trkpt lat="46.15538" lon="7.22256"><ele>1044.4</ele><time>2016-08-28T08:53:46Z</time></trkpt>
<trkpt lat="46.1554" lon="7.22258"><ele>1044.6</ele><time>2016-08-28T08:53:47Z</time></trkpt>
<trkpt lat="46.15542" lon="7.22262"><ele>1045</ele><time>2016-08-28T08:53:49Z</time></trkpt>
<trkpt lat="46.15543" lon="7.22264"><ele>1045.2</ele><time>2016-08-28T08:53:50Z</time></trkpt>
<trkpt lat="46.15545" lon="7.22265"><ele>1045.4</ele><time>2016-08-28T08:53:51Z</time></trkpt>
<trkpt lat="46.15547" lon="7.22269"><ele>1045.8</ele><time>2016-08-28T08:53:53Z</time></trkpt>
<trkpt lat="46.1555" lon="7.22272"><ele>1046.2</ele><time>2016-08-28T08:53:55Z</time></trkpt>
<trkpt lat="46.15552" lon="7.22276"><ele>1046.6</ele><time>2016-08-28T08:53:57Z</time></trkpt>
<trkpt lat="46.15555" lon="7.2228"><ele>1047</ele><time>2016-08-28T08:53:59Z</time></trkpt>
<trkpt lat="46.15557" lon="7.22283"><ele>1047.4</ele><time>2016-08-28T08:54:01Z</time></trkpt>
<trkpt lat="46.1556" lon="7.22287"><ele>1047.8</ele><time>2016-08-28T08:54:03Z</time></trkpt>
<trkpt lat="46.15562" lon="7.2229"><ele>1048.2</ele><time>2016-08-28T08:54:05Z</time></trkpt>
<trkpt lat="46.15565" lon="7.22294"><ele>1048.6</ele><time>2016-08-28T08:54:07Z</time></trkpt>
<trkpt lat="46.15567" lon="7.22297"><ele>1049</ele><time>2016-08-28T08:54:09Z</time></trkpt>
<trkpt lat="46.1557" lon="7.22301"><ele>1049.2</ele><time>2016-08-28T08:54:11Z</time></trkpt>
<trkpt lat="46.15571" lon="7.22303"><ele>1049.4</ele><time>2016-08-28T08:54:12Z</time></trkpt>
<trkpt lat="46.15573" lon="7.22304"><ele>1049.6</ele><time>2016-08-28T08:54:13Z</time></trkpt>
<trkpt lat="46.15576" lon="7.22307"><ele>1050</ele><time>2016-08-28T08:54:15Z</time></trkpt>
<trkpt lat="46.15579" lon="7.2231"><ele>1050.2</ele><time>2016-08-28T08:54:17Z</time></trkpt>
<trkpt lat="46.15582" lon="7.22313"><ele>1050.6</ele><time>2016-08-28T08:54:19Z</time></trkpt>
<trkpt lat="46.15585" lon="7.22316"><ele>1050.8</ele><time>2016-08-28T08:54:21Z</time></trkpt>
<trkpt lat="46.15588" lon="7.2232"><ele>1051.2</ele><time>2016-08-28T08:54:23Z</time></trkpt>
<trkpt lat="46.15591" lon="7.22323"><ele>1051.6</ele><time>2016-08-28T08:54:25Z</time></trkpt>
<trkpt lat="46.15594" lon="7.22326"><ele>1051.8</ele><time>2016-08-28T08:54:27Z</time></trkpt>
<trkpt lat="46.15597" lon="7.22329"><ele>1052.2</ele><time>2016-08-28T08:54:29Z</time></trkpt>
<trkpt lat="46.15598" lon="7.2233"><ele>1052.4</ele><time>2016-08-28T08:54:30Z</time></trkpt>
<trkpt lat="46.156" lon="7.22332"><ele>1052.6</ele><time>2016-08-28T08:54:31Z</time></trkpt>
<trkpt lat="46.15603" lon="7.22335"><ele>1052.8</ele><time>2016-08-28T08:54:33Z</time></trkpt>
<trkpt lat="46.15606" lon="7.22338"><ele>1053.2</ele><time>2016-08-28T08:54:35Z</time></trkpt>
<trkpt lat="46.15609" lon="7.22341"><ele>1053.4</ele><time>2016-08-28T08:54:37Z</time></trkpt>
<trkpt lat="46.15613" lon="7.22343"><ele>1053.8</ele><time>2016-08-28T08:54:39Z</time></trkpt>
<trkpt lat="46.15618" lon="7.22345"><ele>1054.2</ele><time>2016-08-28T08:54:41Z</time></trkpt>
<trkpt lat="46.15622" lon="7.22347"><ele>1054.4</ele><time>2016-08-28T08:54:43Z</time></trkpt>
<trkpt lat="46.15626" lon="7.22349"><ele>1054.8</ele><time>2016-08-28T08:54:45Z</time></trkpt>
<trkpt lat="46.15631" lon="7.22352"><ele>1055</ele><time>2016-08-28T08:54:47Z</time></trkpt>
<trkpt lat="46.15635" lon="7.22354"><ele>1055.4</ele><time>2016-08-28T08:54:49Z</time></trkpt>
<trkpt lat="46.1564" lon="7.22356"><ele>1055.6</ele><time>2016-08-28T08:54:51Z</time></trkpt>
<trkpt lat="46.15644" lon="7.22358"><ele>1056</ele><time>2016-08-28T08:54:53Z</time></trkpt>
<trkpt lat="46.15649" lon="7.2236"><ele>1056.4</ele><time>2016-08-28T08:54:55Z</time></trkpt>
<trkpt lat="46.15653" lon="7.22362"><ele>1056.8</ele><time>2016-08-28T08:54:57Z</time></trkpt>
<trkpt lat="46.15657" lon="7.22364"><ele>1057.2</ele><time>2016-08-28T08:54:59Z</time></trkpt>
<trkpt lat="46.15662" lon="7.22367"><ele>1057.4</ele><time>2016-08-28T08:55:01Z</time></trkpt>
<trkpt lat="46.15666" lon="7.22369"><ele>1057.8</ele><time>2016-08-28T08:55:03Z</time></trkpt>
<trkpt lat="46.15671" lon="7.22371"><ele>1058.2</ele><time>2016-08-28T08:55:05Z</time></trkpt>
<trkpt lat="46.15675" lon="7.22373"><ele>1058.6</ele><time>2016-08-28T08:55:07Z</time></trkpt>
<trkpt lat="46.1568" lon="7.22375"><ele>1059</ele><time>2016-08-28T08:55:09Z</time></trkpt>
<trkpt lat="46.15684" lon="7.22377"><ele>1059.4</ele><time>2016-08-28T08:55:11Z</time></trkpt>
<trkpt lat="46.15688" lon="7.2238"><ele>1059.6</ele><time>2016-08-28T08:55:13Z</time></trkpt>
<trkpt lat="46.15691" lon="7.22381"><ele>1059.8</ele><time>2016-08-28T08:55:14Z</time></trkpt>
<trkpt lat="46.15692" lon="7.22381"><ele>1060</ele><time>2016-08-28T08:55:15Z</time></trkpt>
<trkpt lat="46.15694" lon="7.22383"><ele>1060.4</ele><time>2016-08-28T08:55:17Z</time></trkpt>
<trkpt lat="46.15697" lon="7.22385"><ele>1060.6</ele><time>2016-08-28T08:55:19Z</time></trkpt>
<trkpt lat="46.15699" lon="7.22387"><ele>1061</ele><time>2016-08-28T08:55:21Z</time></trkpt>
<trkpt lat="46.15702" lon="7.22388"><ele>1061.4</ele><time>2016-08-28T08:55:23Z</time></trkpt>
<trkpt lat="46.15704" lon="7.2239"><ele>1061.6</ele><time>2016-08-28T08:55:25Z</time></trkpt>
<trkpt lat="46.15707" lon="7.22392"><ele>1062</ele><time>2016-08-28T08:55:27Z</time></trkpt>
<trkpt lat="46.15709" lon="7.22393"><ele>1062.2</ele><time>2016-08-28T08:55:29Z</time></trkpt>
<trkpt lat="46.15711" lon="7.22395"><ele>1062.6</ele><time>2016-08-28T08:55:31Z</time></trkpt>
<trkpt lat="46.15714" lon="7.22397"><ele>1063</ele><time>2016-08-28T08:55:33Z</time></trkpt>
<trkpt lat="46.15716" lon="7.22398"><ele>1063.2</ele><time>2016-08-28T08:55:35Z</time></trkpt>
<trkpt lat="46.15719" lon="7.224"><ele>1063.6</ele><time>2016-08-28T08:55:37Z</time></trkpt>
<trkpt lat="46.15721" lon="7.22402"><ele>1064</ele><time>2016-08-28T08:55:39Z</time></trkpt>
<trkpt lat="46.15724" lon="7.22404"><ele>1064.4</ele><time>2016-08-28T08:55:41Z</time></trkpt>
<trkpt lat="46.15726" lon="7.22405"><ele>1064.8</ele><time>2016-08-28T08:55:43Z</time></trkpt>
<trkpt lat="46.15729" lon="7.22407"><ele>1065.2</ele><time>2016-08-28T08:55:45Z</time></trkpt>
<trkpt lat="46.15731" lon="7.22409"><ele>1065.6</ele><time>2016-08-28T08:55:47Z</time></trkpt>
<trkpt lat="46.15733" lon="7.2241"><ele>1065.8</ele><time>2016-08-28T08:55:49Z</time></trkpt>
<trkpt lat="46.15736" lon="7.22412"><ele>1066.2</ele><time>2016-08-28T08:55:51Z</time></trkpt>
<trkpt lat="46.15738" lon="7.22414"><ele>1066.6</ele><time>2016-08-28T08:55:53Z</time></trkpt>
<trkpt lat="46.1574" lon="7.22415"><ele>1066.8</ele><time>2016-08-28T08:55:54Z</time></trkpt>
<trkpt lat="46.15741" lon="7.22415"><ele>1067</ele><time>2016-08-28T08:55:55Z</time></trkpt>
<trkpt lat="46.15743" lon="7.22417"><ele>1067.4</ele><time>2016-08-28T08:55:57Z</time></trkpt>
<trkpt lat="46.15744" lon="7.22418"><ele>1067.6</ele><time>2016-08-28T08:55:58Z</time></trkpt>
<trkpt lat="46.15746" lon="7.2242"><ele>1067.8</ele><time>2016-08-28T08:55:59Z</time></trkpt>
<trkpt lat="46.15751" lon="7.22424"><ele>1068</ele><time>2016-08-28T08:56:01Z</time></trkpt>
<trkpt lat="46.15755" lon="7.22427"><ele>1068.4</ele><time>2016-08-28T08:56:03Z</time></trkpt>
<trkpt lat="46.15759" lon="7.22431"><ele>1068.6</ele><time>2016-08-28T08:56:05Z</time></trkpt>
<trkpt lat="46.15764" lon="7.22435"><ele>1069</ele><time>2016-08-28T08:56:07Z</time></trkpt>
<trkpt lat="46.15768" lon="7.22438"><ele>1069.4</ele><time>2016-08-28T08:56:09Z</time></trkpt>
<trkpt lat="46.15772" lon="7.22442"><ele>1069.6</ele><time>2016-08-28T08:56:11Z</time></trkpt>
<trkpt lat="46.15777" lon="7.22446"><ele>1070</ele><time>2016-08-28T08:56:13Z</time></trkpt>
<trkpt lat="46.15779" lon="7.22447"><ele>1070.2</ele><time>2016-08-28T08:56:14Z</time></trkpt>
<trkpt lat="46.15781" lon="7.22449"><ele>1070.4</ele><time>2016-08-28T08:56:15Z</time></trkpt>
<trkpt lat="46.15785" lon="7.22453"><ele>1070.8</ele><time>2016-08-28T08:56:17Z</time></trkpt>
<trkpt lat="46.1579" lon="7.22457"><ele>1071.2</ele><time>2016-08-28T08:56:19Z</time></trkpt>
<trkpt lat="46.15807" lon="7.22472"><ele>1071.6</ele><time>2016-08-28T08:56:21Z</time></trkpt>
<trkpt lat="46.15826" lon="7.22487"><ele>1072</ele><time>2016-08-28T08:56:23Z</time></trkpt>
<trkpt lat="46.15835" lon="7.22494"><ele>1072.2</ele><time>2016-08-28T08:56:24Z</time></trkpt>
<trkpt lat="46.1584" lon="7.22497"><ele>1072.4</ele><time>2016-08-28T08:56:25Z</time></trkpt>
<trkpt lat="46.1585" lon="7.22502"><ele>1072.8</ele><time>2016-08-28T08:56:27Z</time></trkpt>
<trkpt lat="46.15859" lon="7.22508"><ele>1073.2</ele><time>2016-08-28T08:56:29Z</time></trkpt>
<trkpt lat="46.15869" lon="7.22513"><ele>1073.6</ele><time>2016-08-28T08:56:31Z</time></trkpt>
<trkpt lat="46.15871" lon="7.22513"><ele>1074</ele><time>2016-08-28T08:56:33Z</time></trkpt>
<trkpt lat="46.15874" lon="7.22513"><ele>1074.4</ele><time>2016-08-28T08:56:35Z</time></trkpt>
<trkpt lat="46.15876" lon="7.22513"><ele>1074.8</ele><time>2016-08-28T08:56:37Z</time></trkpt>
<trkpt lat="46.15878" lon="7.22513"><ele>1075.2</ele><time>2016-08-28T08:56:39Z</time></trkpt>
<trkpt lat="46.15879" lon="7.22513"><ele>1075.4</ele><time>2016-08-28T08:56:40Z</time></trkpt>
<trkpt lat="46.15877" lon="7.22511"><ele>1075.6</ele><time>2016-08-28T08:56:41Z</time></trkpt>
<trkpt lat="46.15873" lon="7.22509"><ele>1075.8</ele><time>2016-08-28T08:56:43Z</time></trkpt>
<trkpt lat="46.1587" lon="7.22506"><ele>1076.2</ele><time>2016-08-28T08:56:45Z</time></trkpt>
<trkpt lat="46.15868" lon="7.22505"><ele>1076.4</ele><time>2016-08-28T08:56:46Z</time></trkpt>
<trkpt lat="46.15874" lon="7.22509"><ele>1076.6</ele><time>2016-08-28T08:56:47Z</time></trkpt>
<trkpt lat="46.15886" lon="7.22517"><ele>1077</ele><time>2016-08-28T08:56:49Z</time></trkpt>
<trkpt lat="46.15898" lon="7.22526"><ele>1077.2</ele><time>2016-08-28T08:56:51Z</time></trkpt>
<trkpt lat="46.15891" lon="7.22502"><ele>1077.6</ele><time>2016-08-28T08:56:53Z</time></trkpt>
<trkpt lat="46.15883" lon="7.22477"><ele>1078</ele><time>2016-08-28T08:56:55Z</time></trkpt>
<trkpt lat="46.15874" lon="7.22451"><ele>1078.4</ele><time>2016-08-28T08:56:57Z</time></trkpt>
<trkpt lat="46.15869" lon="7.22423"><ele>1078.4</ele><time>2016-08-28T08:56:58Z</time></trkpt>
<trkpt lat="46.15872" lon="7.22459"><ele>1078.6</ele><time>2016-08-28T08:56:59Z</time></trkpt>
<trkpt lat="46.15867" lon="7.22466"><ele>1079</ele><time>2016-08-28T08:57:01Z</time></trkpt>
<trkpt lat="46.15864" lon="7.22468"><ele>1079.2</ele><time>2016-08-28T08:57:02Z</time></trkpt>
<trkpt lat="46.15863" lon="7.22472"><ele>1079.4</ele><time>2016-08-28T08:57:03Z</time></trkpt>
<trkpt lat="46.15863" lon="7.2248"><ele>1079.8</ele><time>2016-08-28T08:57:05Z</time></trkpt>
<trkpt lat="46.15862" lon="7.22489"><ele>1080.2</ele><time>2016-08-28T08:57:07Z</time></trkpt>
<trkpt lat="46.15862" lon="7.22497"><ele>1080.6</ele><time>2016-08-28T08:57:09Z</time></trkpt>
<trkpt lat="46.15862" lon="7.22501"><ele>1080.6</ele><time>2016-08-28T08:57:10Z</time></trkpt>
<trkpt lat="46.15864" lon="7.22507"><ele>1080.8</ele><time>2016-08-28T08:57:11Z</time></trkpt>
<trkpt lat="46.1587" lon="7.22518"><ele>1081.2</ele><time>2016-08-28T08:57:13Z</time></trkpt>
<trkpt lat="46.15876" lon="7.2253"><ele>1081.6</ele><time>2016-08-28T08:57:15Z</time></trkpt>
<trkpt lat="46.15882" lon="7.22542"><ele>1082</ele><time>2016-08-28T08:57:17Z</time></trkpt>
<trkpt lat="46.15888" lon="7.22553"><ele>1082.4</ele><time>2016-08-28T08:57:19Z</time></trkpt>
<trkpt lat="46.15891" lon="7.22556"><ele>1082.8</ele><time>2016-08-28T08:57:21Z</time></trkpt>
<trkpt lat="46.15893" lon="7.22557"><ele>1083</ele><time>2016-08-28T08:57:22Z</time></trkpt>
<trkpt lat="46.15895" lon="7.22558"><ele>1083.2</ele><time>2016-08-28T08:57:23Z</time></trkpt>
<trkpt lat="46.15898" lon="7.2256"><ele>1083.4</ele><time>2016-08-28T08:57:25Z</time></trkpt>
<trkpt lat="46.15901" lon="7.22563"><ele>1083.8</ele><time>2016-08-28T08:57:27Z</time></trkpt>
<trkpt lat="46.15904" lon="7.22565"><ele>1084.2</ele><time>2016-08-28T08:57:29Z</time></trkpt>
<trkpt lat="46.15907" lon="7.22567"><ele>1084.6</ele><time>2016-08-28T08:57:31Z</time></trkpt>
<trkpt lat="46.1591" lon="7.2257"><ele>1085</ele><time>2016-08-28T08:57:33Z</time></trkpt>
<trkpt lat="46.15913" lon="7.22572"><ele>1085.4</ele><time>2016-08-28T08:57:35Z</time></trkpt>
<trkpt lat="46.15916" lon="7.22574"><ele>1085.6</ele><time>2016-08-28T08:57:37Z</time></trkpt>
<trkpt lat="46.1592" lon="7.22577"><ele>1086</ele><time>2016-08-28T08:57:39Z</time></trkpt>
<trkpt lat="46.15923" lon="7.22579"><ele>1086.4</ele><time>2016-08-28T08:57:41Z</time></trkpt>
<trkpt lat="46.15926" lon="7.22581"><ele>1086.8</ele><time>2016-08-28T08:57:43Z</time></trkpt>
<trkpt lat="46.15929" lon="7.22583"><ele>1087.2</ele><time>2016-08-28T08:57:45Z</time></trkpt>
<trkpt lat="46.15932" lon="7.22587"><ele>1087.4</ele><time>2016-08-28T08:57:47Z</time></trkpt>
<trkpt lat="46.15934" lon="7.22591"><ele>1087.8</ele><time>2016-08-28T08:57:49Z</time></trkpt>
<trkpt lat="46.15937" lon="7.22595"><ele>1088.2</ele><time>2016-08-28T08:57:51Z</time></trkpt>
<trkpt lat="46.1594" lon="7.22599"><ele>1088.4</ele><time>2016-08-28T08:57:53Z</time></trkpt>
<trkpt lat="46.15942" lon="7.22603"><ele>1088.8</ele><time>2016-08-28T08:57:55Z</time></trkpt>
<trkpt lat="46.15945" lon="7.22607"><ele>1089.2</ele><time>2016-08-28T08:57:57Z</time></trkpt>
<trkpt lat="46.15948" lon="7.22611"><ele>1089.4</ele><time>2016-08-28T08:57:59Z</time></trkpt>
<trkpt lat="46.1595" lon="7.22615"><ele>1089.8</ele><time>2016-08-28T08:58:01Z</time></trkpt>
<trkpt lat="46.15953" lon="7.2262"><ele>1090.2</ele><time>2016-08-28T08:58:03Z</time></trkpt>
<trkpt lat="46.15956" lon="7.22624"><ele>1090.4</ele><time>2016-08-28T08:58:05Z</time></trkpt>
<trkpt lat="46.15958" lon="7.22628"><ele>1090.8</ele><time>2016-08-28T08:58:07Z</time></trkpt>
<trkpt lat="46.1596" lon="7.2263"><ele>1091</ele><time>2016-08-28T08:58:08Z</time></trkpt>
<trkpt lat="46.15961" lon="7.22632"><ele>1091.2</ele><time>2016-08-28T08:58:09Z</time></trkpt>
<trkpt lat="46.15964" lon="7.22635"><ele>1091.4</ele><time>2016-08-28T08:58:11Z</time></trkpt>
<trkpt lat="46.15966" lon="7.22639"><ele>1091.8</ele><time>2016-08-28T08:58:13Z</time></trkpt>
<trkpt lat="46.15969" lon="7.22643"><ele>1092.2</ele><time>2016-08-28T08:58:15Z</time></trkpt>
<trkpt lat="46.15972" lon="7.22647"><ele>1092.4</ele><time>2016-08-28T08:58:17Z</time></trkpt>
<trkpt lat="46.15974" lon="7.22651"><ele>1092.8</ele><time>2016-08-28T08:58:19Z</time></trkpt>
<trkpt lat="46.15977" lon="7.22655"><ele>1093.2</ele><time>2016-08-28T08:58:21Z</time></trkpt>
<trkpt lat="46.1598" lon="7.22659"><ele>1093.6</ele><time>2016-08-28T08:58:23Z</time></trkpt>
<trkpt lat="46.15982" lon="7.22662"><ele>1093.8</ele><time>2016-08-28T08:58:25Z</time></trkpt>
<trkpt lat="46.15985" lon="7.22666"><ele>1094.2</ele><time>2016-08-28T08:58:27Z</time></trkpt>
<trkpt lat="46.15988" lon="7.2267"><ele>1094.6</ele><time>2016-08-28T08:58:29Z</time></trkpt>
<trkpt lat="46.1599" lon="7.22674"><ele>1094.8</ele><time>2016-08-28T08:58:31Z</time></trkpt>
<trkpt lat="46.15992" lon="7.22676"><ele>1095</ele><time>2016-08-28T08:58:32Z</time></trkpt>
<trkpt lat="46.15993" lon="7.22678"><ele>1095.2</ele><time>2016-08-28T08:58:33Z</time></trkpt>
<trkpt lat="46.15996" lon="7.22682"><ele>1095.6</ele><time>2016-08-28T08:58:35Z</time></trkpt>
<trkpt lat="46.15998" lon="7.22687"><ele>1096</ele><time>2016-08-28T08:58:37Z</time></trkpt>
<trkpt lat="46.16001" lon="7.22691"><ele>1096.2</ele><time>2016-08-28T08:58:39Z</time></trkpt>
<trkpt lat="46.16004" lon="7.22696"><ele>1096.6</ele><time>2016-08-28T08:58:41Z</time></trkpt>
<trkpt lat="46.16006" lon="7.227"><ele>1097</ele><time>2016-08-28T08:58:43Z</time></trkpt>
<trkpt lat="46.16009" lon="7.22705"><ele>1097.4</ele><time>2016-08-28T08:58:45Z</time></trkpt>
<trkpt lat="46.16012" lon="7.2271"><ele>1097.8</ele><time>2016-08-28T08:58:47Z</time></trkpt>
<trkpt lat="46.16015" lon="7.22714"><ele>1098</ele><time>2016-08-28T08:58:49Z</time></trkpt>
<trkpt lat="46.16017" lon="7.22719"><ele>1098.4</ele><time>2016-08-28T08:58:51Z</time></trkpt>
<trkpt lat="46.1602" lon="7.22723"><ele>1098.8</ele><time>2016-08-28T08:58:53Z</time></trkpt>
<trkpt lat="46.16021" lon="7.22725"><ele>1099</ele><time>2016-08-28T08:58:54Z</time></trkpt>
<trkpt lat="46.16023" lon="7.22728"><ele>1099.2</ele><time>2016-08-28T08:58:55Z</time></trkpt>
<trkpt lat="46.16025" lon="7.22732"><ele>1099.6</ele><time>2016-08-28T08:58:57Z</time></trkpt>
<trkpt lat="46.16028" lon="7.22737"><ele>1100</ele><time>2016-08-28T08:58:59Z</time></trkpt>
<trkpt lat="46.1603" lon="7.22741"><ele>1100.4</ele><time>2016-08-28T08:59:01Z</time></trkpt>
<trkpt lat="46.16033" lon="7.22746"><ele>1100.6</ele><time>2016-08-28T08:59:03Z</time></trkpt>
<trkpt lat="46.16035" lon="7.2275"><ele>1101</ele><time>2016-08-28T08:59:05Z</time></trkpt>
<trkpt lat="46.16038" lon="7.22755"><ele>1101.4</ele><time>2016-08-28T08:59:07Z</time></trkpt>
<trkpt lat="46.1604" lon="7.22759"><ele>1101.8</ele><time>2016-08-28T08:59:09Z</time></trkpt>
<trkpt lat="46.16043" lon="7.22764"><ele>1102.2</ele><time>2016-08-28T08:59:11Z</time></trkpt>
<trkpt lat="46.16045" lon="7.22768"><ele>1102.6</ele><time>2016-08-28T08:59:13Z</time></trkpt>
<trkpt lat="46.16048" lon="7.22773"><ele>1103</ele><time>2016-08-28T08:59:15Z</time></trkpt>
<trkpt lat="46.1605" lon="7.22777"><ele>1103.4</ele><time>2016-08-28T08:59:17Z</time></trkpt>
<trkpt lat="46.16051" lon="7.22779"><ele>1103.6</ele><time>2016-08-28T08:59:18Z</time></trkpt>
<trkpt lat="46.16052" lon="7.22781"><ele>1103.8</ele><time>2016-08-28T08:59:19Z</time></trkpt>
<trkpt lat="46.16054" lon="7.22785"><ele>1104.4</ele><time>2016-08-28T08:59:21Z</time></trkpt>
<trkpt lat="46.16056" lon="7.22788"><ele>1104.8</ele><time>2016-08-28T08:59:23Z</time></trkpt>
<trkpt lat="46.16058" lon="7.22791"><ele>1105.2</ele><time>2016-08-28T08:59:25Z</time></trkpt>
<trkpt lat="46.1606" lon="7.22794"><ele>1105.6</ele><time>2016-08-28T08:59:27Z</time></trkpt>
<trkpt lat="46.16061" lon="7.22796"><ele>1105.8</ele><time>2016-08-28T08:59:28Z</time></trkpt>
<trkpt lat="46.16062" lon="7.22798"><ele>1106</ele><time>2016-08-28T08:59:29Z</time></trkpt>
<trkpt lat="46.16064" lon="7.22801"><ele>1106.2</ele><time>2016-08-28T08:59:31Z</time></trkpt>
<trkpt lat="46.16065" lon="7.22804"><ele>1106.4</ele><time>2016-08-28T08:59:33Z</time></trkpt>
<trkpt lat="46.16067" lon="7.22807"><ele>1106.6</ele><time>2016-08-28T08:59:35Z</time></trkpt>
<trkpt lat="46.16069" lon="7.22811"><ele>1106.8</ele><time>2016-08-28T08:59:37Z</time></trkpt>
<trkpt lat="46.16071" lon="7.22814"><ele>1107</ele><time>2016-08-28T08:59:39Z</time></trkpt>
<trkpt lat="46.16073" lon="7.22817"><ele>1107.2</ele><time>2016-08-28T08:59:41Z</time></trkpt>
<trkpt lat="46.16075" lon="7.2282"><ele>1107.6</ele><time>2016-08-28T08:59:43Z</time></trkpt>
<trkpt lat="46.16076" lon="7.22824"><ele>1107.8</ele><time>2016-08-28T08:59:45Z</time></trkpt>
<trkpt lat="46.16078" lon="7.22827"><ele>1108</ele><time>2016-08-28T08:59:47Z</time></trkpt>
<trkpt lat="46.1608" lon="7.2283"><ele>1108.2</ele><time>2016-08-28T08:59:49Z</time></trkpt>
<trkpt lat="46.16081" lon="7.22831"><ele>1108.4</ele><time>2016-08-28T08:59:51Z</time></trkpt>
<trkpt lat="46.16081" lon="7.22832"><ele>1108.6</ele><time>2016-08-28T08:59:53Z</time></trkpt>
<trkpt lat="46.16081" lon="7.22832"><ele>1108.8</ele><time>2016-08-28T08:59:55Z</time></trkpt>
<trkpt lat="46.16103" lon="7.22864"><ele>1110.6</ele><time>2016-08-28T08:59:57Z</time></trkpt>
<trkpt lat="46.16103" lon="7.22864"><ele>1110.6</ele><time>2016-08-28T09:03:07Z</time></trkpt>
<trkpt lat="46.16124" lon="7.22896"><ele>1112.2</ele><time>2016-08-28T09:03:09Z</time></trkpt>
<trkpt lat="46.16125" lon="7.22897"><ele>1112.2</ele><time>2016-08-28T09:03:11Z</time></trkpt>
<trkpt lat="46.16125" lon="7.22897"><ele>1112.2</ele><time>2016-08-28T09:03:13Z</time></trkpt>
<trkpt lat="46.16126" lon="7.22898"><ele>1112.4</ele><time>2016-08-28T09:03:15Z</time></trkpt>
<trkpt lat="46.16126" lon="7.22899"><ele>1112.8</ele><time>2016-08-28T09:03:17Z</time></trkpt>
<trkpt lat="46.16127" lon="7.229"><ele>1113.2</ele><time>2016-08-28T09:03:19Z</time></trkpt>
<trkpt lat="46.16127" lon="7.229"><ele>1113.4</ele><time>2016-08-28T09:03:21Z</time></trkpt>
<trkpt lat="46.16128" lon="7.22901"><ele>1113.8</ele><time>2016-08-28T09:03:23Z</time></trkpt>
<trkpt lat="46.16128" lon="7.22902"><ele>1114</ele><time>2016-08-28T09:03:24Z</time></trkpt>
<trkpt lat="46.16129" lon="7.22904"><ele>1114.2</ele><time>2016-08-28T09:03:25Z</time></trkpt>
<trkpt lat="46.16131" lon="7.22908"><ele>1114.6</ele><time>2016-08-28T09:03:27Z</time></trkpt>
<trkpt lat="46.16134" lon="7.22913"><ele>1115</ele><time>2016-08-28T09:03:29Z</time></trkpt>
<trkpt lat="46.16136" lon="7.22918"><ele>1115.2</ele><time>2016-08-28T09:03:31Z</time></trkpt>
<trkpt lat="46.16138" lon="7.22923"><ele>1115.6</ele><time>2016-08-28T09:03:33Z</time></trkpt>
<trkpt lat="46.16141" lon="7.22928"><ele>1116</ele><time>2016-08-28T09:03:35Z</time></trkpt>
<trkpt lat="46.16143" lon="7.22932"><ele>1116.4</ele><time>2016-08-28T09:03:37Z</time></trkpt>
<trkpt lat="46.16145" lon="7.22937"><ele>1116.8</ele><time>2016-08-28T09:03:39Z</time></trkpt>
<trkpt lat="46.16147" lon="7.22942"><ele>1117.2</ele><time>2016-08-28T09:03:41Z</time></trkpt>
<trkpt lat="46.1615" lon="7.22947"><ele>1117.6</ele><time>2016-08-28T09:03:43Z</time></trkpt>
<trkpt lat="46.16151" lon="7.22949"><ele>1117.8</ele><time>2016-08-28T09:03:44Z</time></trkpt>
<trkpt lat="46.1615" lon="7.22951"><ele>1118</ele><time>2016-08-28T09:03:45Z</time></trkpt>
<trkpt lat="46.16147" lon="7.22955"><ele>1118.4</ele><time>2016-08-28T09:03:47Z</time></trkpt>
<trkpt lat="46.16144" lon="7.22959"><ele>1118.8</ele><time>2016-08-28T09:03:49Z</time></trkpt>
<trkpt lat="46.1614" lon="7.22963"><ele>1119.2</ele><time>2016-08-28T09:03:51Z</time></trkpt>
<trkpt lat="46.16137" lon="7.22967"><ele>1119.6</ele><time>2016-08-28T09:03:53Z</time></trkpt>
<trkpt lat="46.16134" lon="7.22971"><ele>1120</ele><time>2016-08-28T09:03:55Z</time></trkpt>
<trkpt lat="46.16131" lon="7.22975"><ele>1120.4</ele><time>2016-08-28T09:03:57Z</time></trkpt>
<trkpt lat="46.1613" lon="7.22977"><ele>1120.6</ele><time>2016-08-28T09:03:58Z</time></trkpt>
<trkpt lat="46.16128" lon="7.22979"><ele>1120.8</ele><time>2016-08-28T09:03:59Z</time></trkpt>
<trkpt lat="46.16125" lon="7.22978"><ele>1121.2</ele><time>2016-08-28T09:04:01Z</time></trkpt>
<trkpt lat="46.16121" lon="7.22977"><ele>1121.6</ele><time>2016-08-28T09:04:03Z</time></trkpt>
<trkpt lat="46.16117" lon="7.22975"><ele>1121.8</ele><time>2016-08-28T09:04:05Z</time></trkpt>
<trkpt lat="46.16114" lon="7.22974"><ele>1122.2</ele><time>2016-08-28T09:04:07Z</time></trkpt>
<trkpt lat="46.1611" lon="7.22973"><ele>1122.6</ele><time>2016-08-28T09:04:09Z</time></trkpt>
<trkpt lat="46.16107" lon="7.22971"><ele>1122.8</ele><time>2016-08-28T09:04:11Z</time></trkpt>
<trkpt lat="46.16103" lon="7.2297"><ele>1123.2</ele><time>2016-08-28T09:04:13Z</time></trkpt>
<trkpt lat="46.161" lon="7.22969"><ele>1123.6</ele><time>2016-08-28T09:04:15Z</time></trkpt>
<trkpt lat="46.16096" lon="7.22967"><ele>1123.8</ele><time>2016-08-28T09:04:17Z</time></trkpt>
<trkpt lat="46.16092" lon="7.22966"><ele>1124.2</ele><time>2016-08-28T09:04:19Z</time></trkpt>
<trkpt lat="46.16091" lon="7.22967"><ele>1124.4</ele><time>2016-08-28T09:04:21Z</time></trkpt>
<trkpt lat="46.1609" lon="7.22969"><ele>1124.6</ele><time>2016-08-28T09:04:23Z</time></trkpt>
<trkpt lat="46.16088" lon="7.22971"><ele>1124.6</ele><time>2016-08-28T09:04:25Z</time></trkpt>
<trkpt lat="46.16088" lon="7.22972"><ele>1124.6</ele><time>2016-08-28T09:04:26Z</time></trkpt>
<trkpt lat="46.16087" lon="7.22973"><ele>1124.6</ele><time>2016-08-28T09:04:27Z</time></trkpt>
<trkpt lat="46.16086" lon="7.22975"><ele>1125</ele><time>2016-08-28T09:04:29Z</time></trkpt>
<trkpt lat="46.16085" lon="7.22977"><ele>1125.4</ele><time>2016-08-28T09:04:31Z</time></trkpt>
<trkpt lat="46.16083" lon="7.22979"><ele>1125.8</ele><time>2016-08-28T09:04:33Z</time></trkpt>
<trkpt lat="46.16082" lon="7.22981"><ele>1126</ele><time>2016-08-28T09:04:35Z</time></trkpt>
<trkpt lat="46.16081" lon="7.22983"><ele>1126.4</ele><time>2016-08-28T09:04:37Z</time></trkpt>
<trkpt lat="46.16063" lon="7.22981"><ele>1126.8</ele><time>2016-08-28T09:04:39Z</time></trkpt>
<trkpt lat="46.16044" lon="7.2298"><ele>1127.2</ele><time>2016-08-28T09:04:41Z</time></trkpt>
<trkpt lat="46.16025" lon="7.22978"><ele>1127.4</ele><time>2016-08-28T09:04:43Z</time></trkpt>
<trkpt lat="46.16016" lon="7.22977"><ele>1127.6</ele><time>2016-08-28T09:04:44Z</time></trkpt>
<trkpt lat="46.16015" lon="7.22984"><ele>1127.8</ele><time>2016-08-28T09:04:45Z</time></trkpt>
<trkpt lat="46.16015" lon="7.22999"><ele>1128.2</ele><time>2016-08-28T09:04:47Z</time></trkpt>
<trkpt lat="46.16015" lon="7.23014"><ele>1128.4</ele><time>2016-08-28T09:04:49Z</time></trkpt>
<trkpt lat="46.16015" lon="7.23029"><ele>1128.8</ele><time>2016-08-28T09:04:51Z</time></trkpt>
<trkpt lat="46.16015" lon="7.23044"><ele>1129</ele><time>2016-08-28T09:04:53Z</time></trkpt>
<trkpt lat="46.16015" lon="7.23059"><ele>1129.4</ele><time>2016-08-28T09:04:55Z</time></trkpt>
<trkpt lat="46.16015" lon="7.23074"><ele>1129.6</ele><time>2016-08-28T09:04:57Z</time></trkpt>
<trkpt lat="46.16015" lon="7.23088"><ele>1130</ele><time>2016-08-28T09:04:59Z</time></trkpt>
<trkpt lat="46.16014" lon="7.23103"><ele>1130.2</ele><time>2016-08-28T09:05:01Z</time></trkpt>
<trkpt lat="46.16014" lon="7.23118"><ele>1130.6</ele><time>2016-08-28T09:05:03Z</time></trkpt>
<trkpt lat="46.16014" lon="7.23126"><ele>1130.6</ele><time>2016-08-28T09:05:04Z</time></trkpt>
<trkpt lat="46.16014" lon="7.23133"><ele>1130.8</ele><time>2016-08-28T09:05:05Z</time></trkpt>
<trkpt lat="46.16014" lon="7.23148"><ele>1131.2</ele><time>2016-08-28T09:05:07Z</time></trkpt>
<trkpt lat="46.16014" lon="7.23163"><ele>1131.6</ele><time>2016-08-28T09:05:09Z</time></trkpt>
<trkpt lat="46.16014" lon="7.23178"><ele>1131.8</ele><time>2016-08-28T09:05:11Z</time></trkpt>
<trkpt lat="46.16014" lon="7.23193"><ele>1132.2</ele><time>2016-08-28T09:05:13Z</time></trkpt>
<trkpt lat="46.16014" lon="7.23208"><ele>1132.6</ele><time>2016-08-28T09:05:15Z</time></trkpt>
<trkpt lat="46.16014" lon="7.23223"><ele>1133</ele><time>2016-08-28T09:05:17Z</time></trkpt>
<trkpt lat="46.16013" lon="7.23238"><ele>1133.2</ele><time>2016-08-28T09:05:19Z</time></trkpt>
<trkpt lat="46.16013" lon="7.23245"><ele>1133.4</ele><time>2016-08-28T09:05:20Z</time></trkpt>
<trkpt lat="46.16011" lon="7.23246"><ele>1133.6</ele><time>2016-08-28T09:05:21Z</time></trkpt>
<trkpt lat="46.16006" lon="7.23246"><ele>1134</ele><time>2016-08-28T09:05:23Z</time></trkpt>
<trkpt lat="46.16001" lon="7.23246"><ele>1134.4</ele><time>2016-08-28T09:05:25Z</time></trkpt>
<trkpt lat="46.15996" lon="7.23246"><ele>1134.6</ele><time>2016-08-28T09:05:27Z</time></trkpt>
<trkpt lat="46.15991" lon="7.23247"><ele>1135</ele><time>2016-08-28T09:05:29Z</time></trkpt>
<trkpt lat="46.15987" lon="7.23247"><ele>1135.4</ele><time>2016-08-28T09:05:31Z</time></trkpt>
<trkpt lat="46.15982" lon="7.23247"><ele>1135.8</ele><time>2016-08-28T09:05:33Z</time></trkpt>
<trkpt lat="46.15977" lon="7.23247"><ele>1136</ele><time>2016-08-28T09:05:35Z</time></trkpt>
<trkpt lat="46.15972" lon="7.23248"><ele>1136.4</ele><time>2016-08-28T09:05:37Z</time></trkpt>
<trkpt lat="46.15967" lon="7.23248"><ele>1136.8</ele><time>2016-08-28T09:05:39Z</time></trkpt>
<trkpt lat="46.15962" lon="7.2325"><ele>1137</ele><time>2016-08-28T09:05:41Z</time></trkpt>
<trkpt lat="46.15957" lon="7.23252"><ele>1137.4</ele><time>2016-08-28T09:05:43Z</time></trkpt>
<trkpt lat="46.15952" lon="7.23255"><ele>1137.8</ele><time>2016-08-28T09:05:45Z</time></trkpt>
<trkpt lat="46.15948" lon="7.23257"><ele>1138</ele><time>2016-08-28T09:05:47Z</time></trkpt>
<trkpt lat="46.15943" lon="7.23259"><ele>1138.2</ele><time>2016-08-28T09:05:49Z</time></trkpt>
<trkpt lat="46.15938" lon="7.23261"><ele>1138.6</ele><time>2016-08-28T09:05:51Z</time></trkpt>
<trkpt lat="46.15933" lon="7.23264"><ele>1138.8</ele><time>2016-08-28T09:05:53Z</time></trkpt>
<trkpt lat="46.15928" lon="7.23266"><ele>1139</ele><time>2016-08-28T09:05:55Z</time></trkpt>
<trkpt lat="46.15924" lon="7.23268"><ele>1139.2</ele><time>2016-08-28T09:05:57Z</time></trkpt>
<trkpt lat="46.15919" lon="7.23269"><ele>1139.6</ele><time>2016-08-28T09:05:59Z</time></trkpt>
<trkpt lat="46.15914" lon="7.23269"><ele>1139.8</ele><time>2016-08-28T09:06:01Z</time></trkpt>
<trkpt lat="46.15911" lon="7.2327"><ele>1140</ele><time>2016-08-28T09:06:02Z</time></trkpt>
<trkpt lat="46.15909" lon="7.2327"><ele>1140</ele><time>2016-08-28T09:06:03Z</time></trkpt>
<trkpt lat="46.15904" lon="7.23271"><ele>1140.4</ele><time>2016-08-28T09:06:05Z</time></trkpt>
<trkpt lat="46.15899" lon="7.23271"><ele>1140.6</ele><time>2016-08-28T09:06:07Z</time></trkpt>
<trkpt lat="46.15894" lon="7.23272"><ele>1140.8</ele><time>2016-08-28T09:06:09Z</time></trkpt>
<trkpt lat="46.15889" lon="7.23272"><ele>1141.2</ele><time>2016-08-28T09:06:11Z</time></trkpt>
<trkpt lat="46.15884" lon="7.23273"><ele>1141.4</ele><time>2016-08-28T09:06:13Z</time></trkpt>
<trkpt lat="46.15879" lon="7.23273"><ele>1141.6</ele><time>2016-08-28T09:06:15Z</time></trkpt>
<trkpt lat="46.15877" lon="7.23273"><ele>1141.8</ele><time>2016-08-28T09:06:16Z</time></trkpt>
<trkpt lat="46.15874" lon="7.23274"><ele>1142</ele><time>2016-08-28T09:06:17Z</time></trkpt>
<trkpt lat="46.15872" lon="7.23274"><ele>1142.2</ele><time>2016-08-28T09:06:18Z</time></trkpt>
<trkpt lat="46.1587" lon="7.23274"><ele>1142.2</ele><time>2016-08-28T09:06:19Z</time></trkpt>
<trkpt lat="46.15865" lon="7.23274"><ele>1142.4</ele><time>2016-08-28T09:06:21Z</time></trkpt>
<trkpt lat="46.1586" lon="7.23275"><ele>1142.6</ele><time>2016-08-28T09:06:23Z</time></trkpt>
<trkpt lat="46.15855" lon="7.23275"><ele>1142.8</ele><time>2016-08-28T09:06:25Z</time></trkpt>
<trkpt lat="46.15851" lon="7.23276"><ele>1143</ele><time>2016-08-28T09:06:27Z</time></trkpt>
<trkpt lat="46.15846" lon="7.23276"><ele>1143.2</ele><time>2016-08-28T09:06:29Z</time></trkpt>
<trkpt lat="46.15841" lon="7.23281"><ele>1143.4</ele><time>2016-08-28T09:06:30Z</time></trkpt>
<trkpt lat="46.15836" lon="7.23287"><ele>1143</ele><time>2016-08-28T09:06:31Z</time></trkpt>
<trkpt lat="46.15827" lon="7.23299"><ele>1142.4</ele><time>2016-08-28T09:06:33Z</time></trkpt>
<trkpt lat="46.15817" lon="7.23311"><ele>1141.8</ele><time>2016-08-28T09:06:35Z</time></trkpt>
<trkpt lat="46.15807" lon="7.23323"><ele>1141</ele><time>2016-08-28T09:06:37Z</time></trkpt>
<trkpt lat="46.15794" lon="7.23342"><ele>1140.4</ele><time>2016-08-28T09:06:39Z</time></trkpt>
<trkpt lat="46.15787" lon="7.23351"><ele>1140</ele><time>2016-08-28T09:06:40Z</time></trkpt>
<trkpt lat="46.15781" lon="7.23364"><ele>1139.6</ele><time>2016-08-28T09:06:41Z</time></trkpt>
<trkpt lat="46.1577" lon="7.23391"><ele>1137.8</ele><time>2016-08-28T09:06:43Z</time></trkpt>
<trkpt lat="46.15759" lon="7.23418"><ele>1135.8</ele><time>2016-08-28T09:06:45Z</time></trkpt>
<trkpt lat="46.15755" lon="7.23434"><ele>1134.8</ele><time>2016-08-28T09:06:46Z</time></trkpt>
<trkpt lat="46.15753" lon="7.2345"><ele>1133.8</ele><time>2016-08-28T09:06:47Z</time></trkpt>
<trkpt lat="46.15749" lon="7.23483"><ele>1131.8</ele><time>2016-08-28T09:06:49Z</time></trkpt>
<trkpt lat="46.15739" lon="7.23512"><ele>1130</ele><time>2016-08-28T09:06:51Z</time></trkpt>
<trkpt lat="46.15732" lon="7.23524"><ele>1129</ele><time>2016-08-28T09:06:52Z</time></trkpt>
<trkpt lat="46.15724" lon="7.23536"><ele>1128.4</ele><time>2016-08-28T09:06:53Z</time></trkpt>
<trkpt lat="46.15717" lon="7.23548"><ele>1127.6</ele><time>2016-08-28T09:06:54Z</time></trkpt>
<trkpt lat="46.15711" lon="7.23563"><ele>1127</ele><time>2016-08-28T09:06:55Z</time></trkpt>
<trkpt lat="46.157" lon="7.23594"><ele>1125.6</ele><time>2016-08-28T09:06:57Z</time></trkpt>
<trkpt lat="46.15683" lon="7.23617"><ele>1124.4</ele><time>2016-08-28T09:06:59Z</time></trkpt>
<trkpt lat="46.15666" lon="7.23638"><ele>1123.4</ele><time>2016-08-28T09:07:01Z</time></trkpt>
<trkpt lat="46.15657" lon="7.23649"><ele>1122.8</ele><time>2016-08-28T09:07:02Z</time></trkpt>
<trkpt lat="46.15647" lon="7.23655"><ele>1122.4</ele><time>2016-08-28T09:07:03Z</time></trkpt>
<trkpt lat="46.15631" lon="7.23674"><ele>1121.4</ele><time>2016-08-28T09:07:05Z</time></trkpt>
<trkpt lat="46.15623" lon="7.23683"><ele>1120.8</ele><time>2016-08-28T09:07:06Z</time></trkpt>
<trkpt lat="46.15616" lon="7.23693"><ele>1120.4</ele><time>2016-08-28T09:07:07Z</time></trkpt>
<trkpt lat="46.15608" lon="7.23716"><ele>1119.4</ele><time>2016-08-28T09:07:09Z</time></trkpt>
<trkpt lat="46.156" lon="7.2374"><ele>1118.2</ele><time>2016-08-28T09:07:11Z</time></trkpt>
<trkpt lat="46.15598" lon="7.23769"><ele>1117.2</ele><time>2016-08-28T09:07:13Z</time></trkpt>
<trkpt lat="46.15599" lon="7.23783"><ele>1116.8</ele><time>2016-08-28T09:07:14Z</time></trkpt>
<trkpt lat="46.15607" lon="7.23793"><ele>1116.2</ele><time>2016-08-28T09:07:15Z</time></trkpt>
<trkpt lat="46.15615" lon="7.23819"><ele>1115.2</ele><time>2016-08-28T09:07:17Z</time></trkpt>
<trkpt lat="46.15619" lon="7.23831"><ele>1114.8</ele><time>2016-08-28T09:07:18Z</time></trkpt>
<trkpt lat="46.1561" lon="7.23843"><ele>1114.2</ele><time>2016-08-28T09:07:19Z</time></trkpt>
<trkpt lat="46.1559" lon="7.23866"><ele>1112.2</ele><time>2016-08-28T09:07:21Z</time></trkpt>
<trkpt lat="46.15575" lon="7.23892"><ele>1110.2</ele><time>2016-08-28T09:07:23Z</time></trkpt>
<trkpt lat="46.15568" lon="7.23905"><ele>1109.2</ele><time>2016-08-28T09:07:24Z</time></trkpt>
<trkpt lat="46.15566" lon="7.23921"><ele>1108.4</ele><time>2016-08-28T09:07:25Z</time></trkpt>
<trkpt lat="46.15557" lon="7.23954"><ele>1106.4</ele><time>2016-08-28T09:07:27Z</time></trkpt>
<trkpt lat="46.15552" lon="7.23971"><ele>1105.6</ele><time>2016-08-28T09:07:28Z</time></trkpt>
<trkpt lat="46.15546" lon="7.23985"><ele>1104.6</ele><time>2016-08-28T09:07:29Z</time></trkpt>
<trkpt lat="46.15539" lon="7.23999"><ele>1103.6</ele><time>2016-08-28T09:07:30Z</time></trkpt>
<trkpt lat="46.15531" lon="7.24011"><ele>1103</ele><time>2016-08-28T09:07:31Z</time></trkpt>
<trkpt lat="46.15514" lon="7.24034"><ele>1101.6</ele><time>2016-08-28T09:07:33Z</time></trkpt>
<trkpt lat="46.15503" lon="7.24065"><ele>1100.4</ele><time>2016-08-28T09:07:35Z</time></trkpt>
<trkpt lat="46.15492" lon="7.24095"><ele>1098.6</ele><time>2016-08-28T09:07:37Z</time></trkpt>
<trkpt lat="46.15486" lon="7.24126"><ele>1097</ele><time>2016-08-28T09:07:39Z</time></trkpt>
<trkpt lat="46.1548" lon="7.24157"><ele>1095.2</ele><time>2016-08-28T09:07:41Z</time></trkpt>
<trkpt lat="46.15477" lon="7.24187"><ele>1093.8</ele><time>2016-08-28T09:07:43Z</time></trkpt>
<trkpt lat="46.15474" lon="7.24216"><ele>1092.6</ele><time>2016-08-28T09:07:45Z</time></trkpt>
<trkpt lat="46.15472" lon="7.24231"><ele>1091.8</ele><time>2016-08-28T09:07:46Z</time></trkpt>
<trkpt lat="46.15469" lon="7.24245"><ele>1091.2</ele><time>2016-08-28T09:07:47Z</time></trkpt>
<trkpt lat="46.15465" lon="7.24258"><ele>1090.6</ele><time>2016-08-28T09:07:48Z</time></trkpt>
<trkpt lat="46.1546" lon="7.24271"><ele>1089.8</ele><time>2016-08-28T09:07:49Z</time></trkpt>
<trkpt lat="46.15455" lon="7.24284"><ele>1089.2</ele><time>2016-08-28T09:07:50Z</time></trkpt>
<trkpt lat="46.15452" lon="7.24299"><ele>1088.4</ele><time>2016-08-28T09:07:51Z</time></trkpt>
<trkpt lat="46.15449" lon="7.24315"><ele>1087.6</ele><time>2016-08-28T09:07:52Z</time></trkpt>
<trkpt lat="46.15446" lon="7.24331"><ele>1087</ele><time>2016-08-28T09:07:53Z</time></trkpt>
<trkpt lat="46.15446" lon="7.24361"><ele>1085.8</ele><time>2016-08-28T09:07:55Z</time></trkpt>
<trkpt lat="46.15445" lon="7.24391"><ele>1084.4</ele><time>2016-08-28T09:07:57Z</time></trkpt>
<trkpt lat="46.15445" lon="7.24407"><ele>1083.8</ele><time>2016-08-28T09:07:58Z</time></trkpt>
<trkpt lat="46.15444" lon="7.24424"><ele>1083.2</ele><time>2016-08-28T09:07:59Z</time></trkpt>
<trkpt lat="46.15444" lon="7.24442"><ele>1082.6</ele><time>2016-08-28T09:08:00Z</time></trkpt>
<trkpt lat="46.1544" lon="7.24458"><ele>1082</ele><time>2016-08-28T09:08:01Z</time></trkpt>
<trkpt lat="46.15441" lon="7.24492"><ele>1080.6</ele><time>2016-08-28T09:08:03Z</time></trkpt>
<trkpt lat="46.15442" lon="7.24525"><ele>1078.2</ele><time>2016-08-28T09:08:05Z</time></trkpt>
<trkpt lat="46.15434" lon="7.24537"><ele>1077</ele><time>2016-08-28T09:08:06Z</time></trkpt>
<trkpt lat="46.15429" lon="7.24551"><ele>1075.8</ele><time>2016-08-28T09:08:07Z</time></trkpt>
<trkpt lat="46.15414" lon="7.24574"><ele>1073.4</ele><time>2016-08-28T09:08:09Z</time></trkpt>
<trkpt lat="46.15401" lon="7.24581"><ele>1072.2</ele><time>2016-08-28T09:08:10Z</time></trkpt>
<trkpt lat="46.1539" lon="7.2459"><ele>1071</ele><time>2016-08-28T09:08:11Z</time></trkpt>
<trkpt lat="46.15374" lon="7.2462"><ele>1068.4</ele><time>2016-08-28T09:08:13Z</time></trkpt>
<trkpt lat="46.15371" lon="7.24654"><ele>1066</ele><time>2016-08-28T09:08:15Z</time></trkpt>
<trkpt lat="46.15368" lon="7.24689"><ele>1064.6</ele><time>2016-08-28T09:08:17Z</time></trkpt>
<trkpt lat="46.15366" lon="7.2472"><ele>1063.4</ele><time>2016-08-28T09:08:19Z</time></trkpt>
<trkpt lat="46.15366" lon="7.24735"><ele>1062.8</ele><time>2016-08-28T09:08:20Z</time></trkpt>
<trkpt lat="46.15362" lon="7.2475"><ele>1061.6</ele><time>2016-08-28T09:08:21Z</time></trkpt>
<trkpt lat="46.15354" lon="7.24779"><ele>1059.2</ele><time>2016-08-28T09:08:23Z</time></trkpt>
<trkpt lat="46.15353" lon="7.24796"><ele>1056.8</ele><time>2016-08-28T09:08:25Z</time></trkpt>
<trkpt lat="46.15352" lon="7.24804"><ele>1055.8</ele><time>2016-08-28T09:08:26Z</time></trkpt>
<trkpt lat="46.1536" lon="7.24826"><ele>1055</ele><time>2016-08-28T09:08:27Z</time></trkpt>
<trkpt lat="46.1536" lon="7.24826"><ele>1055</ele><time>2016-08-28T09:09:43Z</time></trkpt>
<trkpt lat="46.15368" lon="7.2484"><ele>1054.4</ele><time>2016-08-28T09:09:44Z</time></trkpt>
<trkpt lat="46.15373" lon="7.24845"><ele>1054.4</ele><time>2016-08-28T09:09:45Z</time></trkpt>
<trkpt lat="46.15379" lon="7.2485"><ele>1054.6</ele><time>2016-08-28T09:09:46Z</time></trkpt>
<trkpt lat="46.15387" lon="7.24852"><ele>1054.6</ele><time>2016-08-28T09:09:47Z</time></trkpt>
<trkpt lat="46.15405" lon="7.24855"><ele>1054.6</ele><time>2016-08-28T09:09:49Z</time></trkpt>
<trkpt lat="46.15414" lon="7.24853"><ele>1054.6</ele><time>2016-08-28T09:09:50Z</time></trkpt>
<trkpt lat="46.15419" lon="7.24848"><ele>1054.6</ele><time>2016-08-28T09:09:51Z</time></trkpt>
<trkpt lat="46.15429" lon="7.24835"><ele>1054.8</ele><time>2016-08-28T09:09:53Z</time></trkpt>
<trkpt lat="46.15439" lon="7.24823"><ele>1054.8</ele><time>2016-08-28T09:09:55Z</time></trkpt>
<trkpt lat="46.15448" lon="7.24811"><ele>1054.8</ele><time>2016-08-28T09:09:57Z</time></trkpt>
<trkpt lat="46.15457" lon="7.24799"><ele>1055</ele><time>2016-08-28T09:09:59Z</time></trkpt>
<trkpt lat="46.15461" lon="7.24793"><ele>1055</ele><time>2016-08-28T09:10:00Z</time></trkpt>
<trkpt lat="46.15466" lon="7.24791"><ele>1055</ele><time>2016-08-28T09:10:01Z</time></trkpt>
<trkpt lat="46.15471" lon="7.24791"><ele>1055</ele><time>2016-08-28T09:10:02Z</time></trkpt>
<trkpt lat="46.15476" lon="7.24795"><ele>1055</ele><time>2016-08-28T09:10:03Z</time></trkpt>
<trkpt lat="46.15485" lon="7.24804"><ele>1055.2</ele><time>2016-08-28T09:10:05Z</time></trkpt>
<trkpt lat="46.15493" lon="7.24814"><ele>1055.2</ele><time>2016-08-28T09:10:07Z</time></trkpt>
<trkpt lat="46.15498" lon="7.24818"><ele>1055.2</ele><time>2016-08-28T09:10:08Z</time></trkpt>
<trkpt lat="46.15502" lon="7.24819"><ele>1055.2</ele><time>2016-08-28T09:10:09Z</time></trkpt>
<trkpt lat="46.15511" lon="7.24819"><ele>1055.4</ele><time>2016-08-28T09:10:11Z</time></trkpt>
<trkpt lat="46.15519" lon="7.24819"><ele>1055.4</ele><time>2016-08-28T09:10:13Z</time></trkpt>
<trkpt lat="46.15528" lon="7.24819"><ele>1055.4</ele><time>2016-08-28T09:10:15Z</time></trkpt>
<trkpt lat="46.15531" lon="7.24815"><ele>1055.6</ele><time>2016-08-28T09:10:17Z</time></trkpt>
<trkpt lat="46.15535" lon="7.24811"><ele>1055.6</ele><time>2016-08-28T09:10:19Z</time></trkpt>
<trkpt lat="46.15536" lon="7.24809"><ele>1055.6</ele><time>2016-08-28T09:10:20Z</time></trkpt>
<trkpt lat="46.15538" lon="7.24807"><ele>1055.8</ele><time>2016-08-28T09:10:21Z</time></trkpt>
<trkpt lat="46.15541" lon="7.24802"><ele>1056.2</ele><time>2016-08-28T09:10:23Z</time></trkpt>
<trkpt lat="46.15544" lon="7.24798"><ele>1056.4</ele><time>2016-08-28T09:10:25Z</time></trkpt>
<trkpt lat="46.15548" lon="7.24794"><ele>1056.8</ele><time>2016-08-28T09:10:27Z</time></trkpt>
<trkpt lat="46.15551" lon="7.2479"><ele>1057.2</ele><time>2016-08-28T09:10:29Z</time></trkpt>
<trkpt lat="46.15554" lon="7.24786"><ele>1057.6</ele><time>2016-08-28T09:10:31Z</time></trkpt>
<trkpt lat="46.15557" lon="7.24782"><ele>1058</ele><time>2016-08-28T09:10:33Z</time></trkpt>
<trkpt lat="46.1556" lon="7.24778"><ele>1058.4</ele><time>2016-08-28T09:10:35Z</time></trkpt>
<trkpt lat="46.15562" lon="7.24776"><ele>1058.6</ele><time>2016-08-28T09:10:36Z</time></trkpt>
<trkpt lat="46.15564" lon="7.24774"><ele>1058.8</ele><time>2016-08-28T09:10:37Z</time></trkpt>
<trkpt lat="46.15567" lon="7.2477"><ele>1059</ele><time>2016-08-28T09:10:39Z</time></trkpt>
<trkpt lat="46.1557" lon="7.24767"><ele>1059.4</ele><time>2016-08-28T09:10:41Z</time></trkpt>
<trkpt lat="46.15571" lon="7.24765"><ele>1059.6</ele><time>2016-08-28T09:10:42Z</time></trkpt>
<trkpt lat="46.15573" lon="7.24764"><ele>1059.8</ele><time>2016-08-28T09:10:43Z</time></trkpt>
<trkpt lat="46.15576" lon="7.2476"><ele>1060.2</ele><time>2016-08-28T09:10:45Z</time></trkpt>
<trkpt lat="46.15579" lon="7.24757"><ele>1060.6</ele><time>2016-08-28T09:10:47Z</time></trkpt>
<trkpt lat="46.15582" lon="7.24753"><ele>1061</ele><time>2016-08-28T09:10:49Z</time></trkpt>
<trkpt lat="46.15585" lon="7.2475"><ele>1061.4</ele><time>2016-08-28T09:10:51Z</time></trkpt>
<trkpt lat="46.15588" lon="7.24747"><ele>1061.8</ele><time>2016-08-28T09:10:53Z</time></trkpt>
<trkpt lat="46.15591" lon="7.24743"><ele>1062</ele><time>2016-08-28T09:10:55Z</time></trkpt>
<trkpt lat="46.15594" lon="7.2474"><ele>1062.4</ele><time>2016-08-28T09:10:57Z</time></trkpt>
<trkpt lat="46.15596" lon="7.24738"><ele>1062.6</ele><time>2016-08-28T09:10:58Z</time></trkpt>
<trkpt lat="46.15598" lon="7.24738"><ele>1062.8</ele><time>2016-08-28T09:10:59Z</time></trkpt>
<trkpt lat="46.15602" lon="7.24738"><ele>1063.2</ele><time>2016-08-28T09:11:01Z</time></trkpt>
<trkpt lat="46.15606" lon="7.24738"><ele>1063.4</ele><time>2016-08-28T09:11:03Z</time></trkpt>
<trkpt lat="46.1561" lon="7.24738"><ele>1063.6</ele><time>2016-08-28T09:11:05Z</time></trkpt>
<trkpt lat="46.15614" lon="7.24737"><ele>1064</ele><time>2016-08-28T09:11:07Z</time></trkpt>
<trkpt lat="46.15618" lon="7.24737"><ele>1064.2</ele><time>2016-08-28T09:11:09Z</time></trkpt>
<trkpt lat="46.15622" lon="7.24737"><ele>1064.4</ele><time>2016-08-28T09:11:11Z</time></trkpt>
<trkpt lat="46.15626" lon="7.24737"><ele>1064.8</ele><time>2016-08-28T09:11:13Z</time></trkpt>
<trkpt lat="46.1563" lon="7.24737"><ele>1065</ele><time>2016-08-28T09:11:15Z</time></trkpt>
<trkpt lat="46.15635" lon="7.24737"><ele>1065.4</ele><time>2016-08-28T09:11:17Z</time></trkpt>
<trkpt lat="46.15639" lon="7.24737"><ele>1065.6</ele><time>2016-08-28T09:11:19Z</time></trkpt>
<trkpt lat="46.15641" lon="7.24737"><ele>1065.8</ele><time>2016-08-28T09:11:20Z</time></trkpt>
<trkpt lat="46.15642" lon="7.24737"><ele>1065.8</ele><time>2016-08-28T09:11:21Z</time></trkpt>
<trkpt lat="46.15646" lon="7.24737"><ele>1066</ele><time>2016-08-28T09:11:23Z</time></trkpt>
<trkpt lat="46.15649" lon="7.24737"><ele>1066.4</ele><time>2016-08-28T09:11:25Z</time></trkpt>
<trkpt lat="46.15651" lon="7.24737"><ele>1066.4</ele><time>2016-08-28T09:11:26Z</time></trkpt>
<trkpt lat="46.15653" lon="7.24737"><ele>1066.6</ele><time>2016-08-28T09:11:27Z</time></trkpt>
<trkpt lat="46.15656" lon="7.24737"><ele>1066.6</ele><time>2016-08-28T09:11:29Z</time></trkpt>
<trkpt lat="46.1566" lon="7.24737"><ele>1066.8</ele><time>2016-08-28T09:11:31Z</time></trkpt>
<trkpt lat="46.15663" lon="7.24737"><ele>1067</ele><time>2016-08-28T09:11:33Z</time></trkpt>
<trkpt lat="46.15667" lon="7.24737"><ele>1067.2</ele><time>2016-08-28T09:11:35Z</time></trkpt>
<trkpt lat="46.1567" lon="7.24737"><ele>1067.4</ele><time>2016-08-28T09:11:37Z</time></trkpt>
<trkpt lat="46.15674" lon="7.24738"><ele>1067.6</ele><time>2016-08-28T09:11:39Z</time></trkpt>
<trkpt lat="46.15676" lon="7.24738"><ele>1067.6</ele><time>2016-08-28T09:11:40Z</time></trkpt>
<trkpt lat="46.15677" lon="7.24736"><ele>1067.6</ele><time>2016-08-28T09:11:41Z</time></trkpt>
<trkpt lat="46.1568" lon="7.24734"><ele>1067.8</ele><time>2016-08-28T09:11:43Z</time></trkpt>
<trkpt lat="46.15683" lon="7.24732"><ele>1068</ele><time>2016-08-28T09:11:45Z</time></trkpt>
<trkpt lat="46.15687" lon="7.24729"><ele>1068.2</ele><time>2016-08-28T09:11:47Z</time></trkpt>
<trkpt lat="46.1569" lon="7.24727"><ele>1068.4</ele><time>2016-08-28T09:11:49Z</time></trkpt>
<trkpt lat="46.15693" lon="7.24725"><ele>1068.6</ele><time>2016-08-28T09:11:51Z</time></trkpt>
<trkpt lat="46.15696" lon="7.24723"><ele>1068.6</ele><time>2016-08-28T09:11:53Z</time></trkpt>
<trkpt lat="46.15699" lon="7.2472"><ele>1068.8</ele><time>2016-08-28T09:11:55Z</time></trkpt>
<trkpt lat="46.15702" lon="7.24718"><ele>1069</ele><time>2016-08-28T09:11:57Z</time></trkpt>
<trkpt lat="46.15705" lon="7.24716"><ele>1069.2</ele><time>2016-08-28T09:11:59Z</time></trkpt>
<trkpt lat="46.15709" lon="7.24713"><ele>1069.4</ele><time>2016-08-28T09:12:01Z</time></trkpt>
<trkpt lat="46.15712" lon="7.24711"><ele>1069.6</ele><time>2016-08-28T09:12:03Z</time></trkpt>
<trkpt lat="46.15713" lon="7.2471"><ele>1069.6</ele><time>2016-08-28T09:12:04Z</time></trkpt>
<trkpt lat="46.15715" lon="7.24709"><ele>1069.6</ele><time>2016-08-28T09:12:05Z</time></trkpt>
<trkpt lat="46.15718" lon="7.24711"><ele>1069.8</ele><time>2016-08-28T09:12:07Z</time></trkpt>
<trkpt lat="46.15722" lon="7.24713"><ele>1070</ele><time>2016-08-28T09:12:09Z</time></trkpt>
<trkpt lat="46.15725" lon="7.24716"><ele>1070.2</ele><time>2016-08-28T09:12:11Z</time></trkpt>
<trkpt lat="46.15728" lon="7.24718"><ele>1070.4</ele><time>2016-08-28T09:12:13Z</time></trkpt>
<trkpt lat="46.15732" lon="7.2472"><ele>1070.6</ele><time>2016-08-28T09:12:15Z</time></trkpt>
<trkpt lat="46.15735" lon="7.24723"><ele>1070.8</ele><time>2016-08-28T09:12:17Z</time></trkpt>
<trkpt lat="46.15738" lon="7.24725"><ele>1071</ele><time>2016-08-28T09:12:19Z</time></trkpt>
<trkpt lat="46.15742" lon="7.24728"><ele>1071.2</ele><time>2016-08-28T09:12:21Z</time></trkpt>
<trkpt lat="46.15745" lon="7.2473"><ele>1071.2</ele><time>2016-08-28T09:12:23Z</time></trkpt>
<trkpt lat="46.15748" lon="7.24733"><ele>1071.4</ele><time>2016-08-28T09:12:25Z</time></trkpt>
<trkpt lat="46.15752" lon="7.24735"><ele>1071.6</ele><time>2016-08-28T09:12:27Z</time></trkpt>
<trkpt lat="46.15755" lon="7.24737"><ele>1071.8</ele><time>2016-08-28T09:12:29Z</time></trkpt>
<trkpt lat="46.15759" lon="7.24737"><ele>1072</ele><time>2016-08-28T09:12:31Z</time></trkpt>
<trkpt lat="46.15762" lon="7.24736"><ele>1072.2</ele><time>2016-08-28T09:12:33Z</time></trkpt>
<trkpt lat="46.15765" lon="7.24734"><ele>1072.4</ele><time>2016-08-28T09:12:35Z</time></trkpt>
<trkpt lat="46.15769" lon="7.24733"><ele>1072.6</ele><time>2016-08-28T09:12:37Z</time></trkpt>
<trkpt lat="46.15771" lon="7.24733"><ele>1072.6</ele><time>2016-08-28T09:12:38Z</time></trkpt>
<trkpt lat="46.15772" lon="7.24732"><ele>1072.6</ele><time>2016-08-28T09:12:39Z</time></trkpt>
<trkpt lat="46.15776" lon="7.24731"><ele>1072.8</ele><time>2016-08-28T09:12:41Z</time></trkpt>
<trkpt lat="46.15779" lon="7.2473"><ele>1073</ele><time>2016-08-28T09:12:43Z</time></trkpt>
<trkpt lat="46.15782" lon="7.24729"><ele>1073.2</ele><time>2016-08-28T09:12:45Z</time></trkpt>
<trkpt lat="46.15786" lon="7.24728"><ele>1073.4</ele><time>2016-08-28T09:12:47Z</time></trkpt>
<trkpt lat="46.15789" lon="7.24727"><ele>1073.4</ele><time>2016-08-28T09:12:49Z</time></trkpt>
<trkpt lat="46.15792" lon="7.24722"><ele>1073.6</ele><time>2016-08-28T09:12:51Z</time></trkpt>
<trkpt lat="46.15794" lon="7.24717"><ele>1073.8</ele><time>2016-08-28T09:12:53Z</time></trkpt>
<trkpt lat="46.15797" lon="7.24712"><ele>1074</ele><time>2016-08-28T09:12:55Z</time></trkpt>
<trkpt lat="46.15799" lon="7.24708"><ele>1074.2</ele><time>2016-08-28T09:12:57Z</time></trkpt>
<trkpt lat="46.15801" lon="7.24703"><ele>1074.2</ele><time>2016-08-28T09:12:59Z</time></trkpt>
<trkpt lat="46.15804" lon="7.24698"><ele>1074.4</ele><time>2016-08-28T09:13:01Z</time></trkpt>
<trkpt lat="46.15806" lon="7.24693"><ele>1074.6</ele><time>2016-08-28T09:13:03Z</time></trkpt>
<trkpt lat="46.15809" lon="7.24688"><ele>1074.8</ele><time>2016-08-28T09:13:05Z</time></trkpt>
<trkpt lat="46.15811" lon="7.24683"><ele>1075</ele><time>2016-08-28T09:13:07Z</time></trkpt>
<trkpt lat="46.15813" lon="7.24678"><ele>1075</ele><time>2016-08-28T09:13:09Z</time></trkpt>
<trkpt lat="46.15816" lon="7.24674"><ele>1075.2</ele><time>2016-08-28T09:13:11Z</time></trkpt>
<trkpt lat="46.1582" lon="7.24673"><ele>1075.4</ele><time>2016-08-28T09:13:13Z</time></trkpt>
<trkpt lat="46.15824" lon="7.24673"><ele>1075.6</ele><time>2016-08-28T09:13:15Z</time></trkpt>
<trkpt lat="46.15828" lon="7.24673"><ele>1075.6</ele><time>2016-08-28T09:13:17Z</time></trkpt>
<trkpt lat="46.15832" lon="7.24674"><ele>1075.8</ele><time>2016-08-28T09:13:19Z</time></trkpt>
<trkpt lat="46.15836" lon="7.24674"><ele>1076</ele><time>2016-08-28T09:13:21Z</time></trkpt>
<trkpt lat="46.1584" lon="7.24674"><ele>1076</ele><time>2016-08-28T09:13:23Z</time></trkpt>
<trkpt lat="46.15844" lon="7.24674"><ele>1076.2</ele><time>2016-08-28T09:13:25Z</time></trkpt>
<trkpt lat="46.15849" lon="7.24674"><ele>1076.2</ele><time>2016-08-28T09:13:27Z</time></trkpt>
<trkpt lat="46.15853" lon="7.24674"><ele>1076.2</ele><time>2016-08-28T09:13:29Z</time></trkpt>
<trkpt lat="46.15857" lon="7.24674"><ele>1076.4</ele><time>2016-08-28T09:13:31Z</time></trkpt>
<trkpt lat="46.15861" lon="7.24674"><ele>1076.4</ele><time>2016-08-28T09:13:33Z</time></trkpt>
<trkpt lat="46.15863" lon="7.2467"><ele>1076.6</ele><time>2016-08-28T09:13:35Z</time></trkpt>
<trkpt lat="46.15864" lon="7.24665"><ele>1076.6</ele><time>2016-08-28T09:13:37Z</time></trkpt>
<trkpt lat="46.15866" lon="7.2466"><ele>1076.8</ele><time>2016-08-28T09:13:39Z</time></trkpt>
<trkpt lat="46.15868" lon="7.24655"><ele>1076.8</ele><time>2016-08-28T09:13:41Z</time></trkpt>
<trkpt lat="46.15869" lon="7.24651"><ele>1076.8</ele><time>2016-08-28T09:13:43Z</time></trkpt>
<trkpt lat="46.15871" lon="7.24646"><ele>1077</ele><time>2016-08-28T09:13:45Z</time></trkpt>
<trkpt lat="46.15873" lon="7.24641"><ele>1077</ele><time>2016-08-28T09:13:47Z</time></trkpt>
<trkpt lat="46.15874" lon="7.24636"><ele>1077.2</ele><time>2016-08-28T09:13:49Z</time></trkpt>
<trkpt lat="46.15876" lon="7.24632"><ele>1077.2</ele><time>2016-08-28T09:13:51Z</time></trkpt>
<trkpt lat="46.15878" lon="7.24627"><ele>1077.4</ele><time>2016-08-28T09:13:53Z</time></trkpt>
<trkpt lat="46.1588" lon="7.24622"><ele>1077.4</ele><time>2016-08-28T09:13:55Z</time></trkpt>
<trkpt lat="46.15881" lon="7.24617"><ele>1077.4</ele><time>2016-08-28T09:13:57Z</time></trkpt>
<trkpt lat="46.15882" lon="7.24615"><ele>1077.6</ele><time>2016-08-28T09:13:58Z</time></trkpt>
<trkpt lat="46.15884" lon="7.24614"><ele>1077.6</ele><time>2016-08-28T09:13:59Z</time></trkpt>
<trkpt lat="46.15887" lon="7.24613"><ele>1077.6</ele><time>2016-08-28T09:14:01Z</time></trkpt>
<trkpt lat="46.1589" lon="7.24611"><ele>1077.8</ele><time>2016-08-28T09:14:03Z</time></trkpt>
<trkpt lat="46.15893" lon="7.2461"><ele>1077.8</ele><time>2016-08-28T09:14:05Z</time></trkpt>
<trkpt lat="46.15896" lon="7.24609"><ele>1078</ele><time>2016-08-28T09:14:07Z</time></trkpt>
<trkpt lat="46.15899" lon="7.24607"><ele>1078</ele><time>2016-08-28T09:14:09Z</time></trkpt>
<trkpt lat="46.15902" lon="7.24606"><ele>1078.2</ele><time>2016-08-28T09:14:11Z</time></trkpt>
<trkpt lat="46.15906" lon="7.24604"><ele>1078.2</ele><time>2016-08-28T09:14:13Z</time></trkpt>
<trkpt lat="46.15909" lon="7.24603"><ele>1078.2</ele><time>2016-08-28T09:14:15Z</time></trkpt>
<trkpt lat="46.15912" lon="7.24602"><ele>1078.4</ele><time>2016-08-28T09:14:17Z</time></trkpt>
<trkpt lat="46.15915" lon="7.246"><ele>1078.4</ele><time>2016-08-28T09:14:19Z</time></trkpt>
<trkpt lat="46.15918" lon="7.24599"><ele>1078.6</ele><time>2016-08-28T09:14:21Z</time></trkpt>
<trkpt lat="46.15921" lon="7.24597"><ele>1078.6</ele><time>2016-08-28T09:14:23Z</time></trkpt>
<trkpt lat="46.15923" lon="7.24597"><ele>1078.6</ele><time>2016-08-28T09:14:24Z</time></trkpt>
<trkpt lat="46.15926" lon="7.24597"><ele>1078.8</ele><time>2016-08-28T09:14:25Z</time></trkpt>
<trkpt lat="46.15932" lon="7.24598"><ele>1078.8</ele><time>2016-08-28T09:14:27Z</time></trkpt>
<trkpt lat="46.15935" lon="7.24598"><ele>1078.8</ele><time>2016-08-28T09:14:28Z</time></trkpt>
<trkpt lat="46.15938" lon="7.24595"><ele>1078.8</ele><time>2016-08-28T09:14:29Z</time></trkpt>
<trkpt lat="46.15942" lon="7.24587"><ele>1079</ele><time>2016-08-28T09:14:31Z</time></trkpt>
<trkpt lat="46.15947" lon="7.2458"><ele>1079</ele><time>2016-08-28T09:14:33Z</time></trkpt>
<trkpt lat="46.1595" lon="7.24576"><ele>1079</ele><time>2016-08-28T09:14:34Z</time></trkpt>
<trkpt lat="46.15952" lon="7.24572"><ele>1079.2</ele><time>2016-08-28T09:14:35Z</time></trkpt>
<trkpt lat="46.15957" lon="7.24564"><ele>1079.2</ele><time>2016-08-28T09:14:37Z</time></trkpt>
<trkpt lat="46.15961" lon="7.24556"><ele>1079.4</ele><time>2016-08-28T09:14:39Z</time></trkpt>
<trkpt lat="46.15966" lon="7.24549"><ele>1079.4</ele><time>2016-08-28T09:14:41Z</time></trkpt>
<trkpt lat="46.15971" lon="7.24546"><ele>1079.6</ele><time>2016-08-28T09:14:43Z</time></trkpt>
<trkpt lat="46.15976" lon="7.24545"><ele>1079.6</ele><time>2016-08-28T09:14:45Z</time></trkpt>
<trkpt lat="46.15981" lon="7.24543"><ele>1079.8</ele><time>2016-08-28T09:14:47Z</time></trkpt>
<trkpt lat="46.15986" lon="7.24541"><ele>1080</ele><time>2016-08-28T09:14:49Z</time></trkpt>
<trkpt lat="46.15991" lon="7.24539"><ele>1080</ele><time>2016-08-28T09:14:51Z</time></trkpt>
<trkpt lat="46.15996" lon="7.24537"><ele>1080.2</ele><time>2016-08-28T09:14:53Z</time></trkpt>
<trkpt lat="46.16001" lon="7.24535"><ele>1080.2</ele><time>2016-08-28T09:14:55Z</time></trkpt>
<trkpt lat="46.16006" lon="7.24533"><ele>1080.4</ele><time>2016-08-28T09:14:57Z</time></trkpt>
<trkpt lat="46.16011" lon="7.24531"><ele>1080.4</ele><time>2016-08-28T09:14:59Z</time></trkpt>
<trkpt lat="46.16017" lon="7.24531"><ele>1080.6</ele><time>2016-08-28T09:15:01Z</time></trkpt>
<trkpt lat="46.16024" lon="7.2453"><ele>1080.6</ele><time>2016-08-28T09:15:03Z</time></trkpt>
<trkpt lat="46.16031" lon="7.2453"><ele>1080.8</ele><time>2016-08-28T09:15:05Z</time></trkpt>
<trkpt lat="46.16037" lon="7.24529"><ele>1080.8</ele><time>2016-08-28T09:15:07Z</time></trkpt>
<trkpt lat="46.16044" lon="7.24529"><ele>1081</ele><time>2016-08-28T09:15:09Z</time></trkpt>
<trkpt lat="46.1605" lon="7.24529"><ele>1081</ele><time>2016-08-28T09:15:11Z</time></trkpt>
<trkpt lat="46.16057" lon="7.24528"><ele>1081.2</ele><time>2016-08-28T09:15:13Z</time></trkpt>
<trkpt lat="46.1606" lon="7.24528"><ele>1081.2</ele><time>2016-08-28T09:15:15Z</time></trkpt>
<trkpt lat="46.16064" lon="7.24528"><ele>1081.4</ele><time>2016-08-28T09:15:17Z</time></trkpt>
<trkpt lat="46.16067" lon="7.24529"><ele>1081.6</ele><time>2016-08-28T09:15:19Z</time></trkpt>
<trkpt lat="46.1607" lon="7.24529"><ele>1081.6</ele><time>2016-08-28T09:15:21Z</time></trkpt>
<trkpt lat="46.16073" lon="7.24529"><ele>1081.8</ele><time>2016-08-28T09:15:23Z</time></trkpt>
<trkpt lat="46.16076" lon="7.24529"><ele>1081.8</ele><time>2016-08-28T09:15:25Z</time></trkpt>
<trkpt lat="46.16079" lon="7.24529"><ele>1082</ele><time>2016-08-28T09:15:27Z</time></trkpt>
<trkpt lat="46.16082" lon="7.24529"><ele>1082</ele><time>2016-08-28T09:15:29Z</time></trkpt>
<trkpt lat="46.16084" lon="7.2453"><ele>1082</ele><time>2016-08-28T09:15:30Z</time></trkpt>
<trkpt lat="46.16086" lon="7.2453"><ele>1082.2</ele><time>2016-08-28T09:15:31Z</time></trkpt>
<trkpt lat="46.16089" lon="7.2453"><ele>1082.6</ele><time>2016-08-28T09:15:33Z</time></trkpt>
<trkpt lat="46.16092" lon="7.2453"><ele>1082.8</ele><time>2016-08-28T09:15:35Z</time></trkpt>
<trkpt lat="46.16093" lon="7.2453"><ele>1083</ele><time>2016-08-28T09:15:36Z</time></trkpt>
<trkpt lat="46.16095" lon="7.2453"><ele>1083.2</ele><time>2016-08-28T09:15:37Z</time></trkpt>
<trkpt lat="46.16098" lon="7.2453"><ele>1083.6</ele><time>2016-08-28T09:15:39Z</time></trkpt>
<trkpt lat="46.16101" lon="7.2453"><ele>1084</ele><time>2016-08-28T09:15:41Z</time></trkpt>
<trkpt lat="46.16103" lon="7.24531"><ele>1084.2</ele><time>2016-08-28T09:15:42Z</time></trkpt>
<trkpt lat="46.16104" lon="7.2453"><ele>1084.4</ele><time>2016-08-28T09:15:43Z</time></trkpt>
<trkpt lat="46.16107" lon="7.24528"><ele>1084.8</ele><time>2016-08-28T09:15:45Z</time></trkpt>
<trkpt lat="46.16109" lon="7.24527"><ele>1085.2</ele><time>2016-08-28T09:15:47Z</time></trkpt>
<trkpt lat="46.16112" lon="7.24526"><ele>1085.8</ele><time>2016-08-28T09:15:49Z</time></trkpt>
<trkpt lat="46.16115" lon="7.24524"><ele>1086.2</ele><time>2016-08-28T09:15:51Z</time></trkpt>
<trkpt lat="46.16117" lon="7.24523"><ele>1086.6</ele><time>2016-08-28T09:15:53Z</time></trkpt>
<trkpt lat="46.1612" lon="7.24521"><ele>1087</ele><time>2016-08-28T09:15:55Z</time></trkpt>
<trkpt lat="46.16122" lon="7.2452"><ele>1087.4</ele><time>2016-08-28T09:15:57Z</time></trkpt>
<trkpt lat="46.16125" lon="7.24519"><ele>1087.8</ele><time>2016-08-28T09:15:59Z</time></trkpt>
<trkpt lat="46.16128" lon="7.24517"><ele>1088.2</ele><time>2016-08-28T09:16:01Z</time></trkpt>
<trkpt lat="46.1613" lon="7.24516"><ele>1088.6</ele><time>2016-08-28T09:16:03Z</time></trkpt>
<trkpt lat="46.16133" lon="7.24515"><ele>1089</ele><time>2016-08-28T09:16:05Z</time></trkpt>
<trkpt lat="46.16135" lon="7.24513"><ele>1089.4</ele><time>2016-08-28T09:16:07Z</time></trkpt>
<trkpt lat="46.16138" lon="7.24512"><ele>1089.8</ele><time>2016-08-28T09:16:09Z</time></trkpt>
<trkpt lat="46.16141" lon="7.2451"><ele>1090.2</ele><time>2016-08-28T09:16:11Z</time></trkpt>
<trkpt lat="46.16143" lon="7.24509"><ele>1090.4</ele><time>2016-08-28T09:16:13Z</time></trkpt>
<trkpt lat="46.16146" lon="7.24507"><ele>1090.8</ele><time>2016-08-28T09:16:15Z</time></trkpt>
<trkpt lat="46.16148" lon="7.24506"><ele>1091.2</ele><time>2016-08-28T09:16:17Z</time></trkpt>
<trkpt lat="46.16149" lon="7.24505"><ele>1091.4</ele><time>2016-08-28T09:16:18Z</time></trkpt>
<trkpt lat="46.16151" lon="7.24506"><ele>1091.6</ele><time>2016-08-28T09:16:19Z</time></trkpt>
<trkpt lat="46.16153" lon="7.24507"><ele>1091.8</ele><time>2016-08-28T09:16:21Z</time></trkpt>
<trkpt lat="46.16155" lon="7.24507"><ele>1092.2</ele><time>2016-08-28T09:16:23Z</time></trkpt>
<trkpt lat="46.16157" lon="7.24508"><ele>1092.6</ele><time>2016-08-28T09:16:25Z</time></trkpt>
<trkpt lat="46.1616" lon="7.24509"><ele>1093</ele><time>2016-08-28T09:16:27Z</time></trkpt>
<trkpt lat="46.16161" lon="7.24506"><ele>1093.4</ele><time>2016-08-28T09:16:29Z</time></trkpt>
<trkpt lat="46.16161" lon="7.24504"><ele>1093.4</ele><time>2016-08-28T09:16:30Z</time></trkpt>
<trkpt lat="46.16163" lon="7.24503"><ele>1093.6</ele><time>2016-08-28T09:16:31Z</time></trkpt>
<trkpt lat="46.16166" lon="7.24501"><ele>1094</ele><time>2016-08-28T09:16:33Z</time></trkpt>
<trkpt lat="46.16169" lon="7.24499"><ele>1094.2</ele><time>2016-08-28T09:16:35Z</time></trkpt>
<trkpt lat="46.16172" lon="7.24496"><ele>1094.4</ele><time>2016-08-28T09:16:37Z</time></trkpt>
<trkpt lat="46.16175" lon="7.24494"><ele>1094.6</ele><time>2016-08-28T09:16:39Z</time></trkpt>
<trkpt lat="46.16178" lon="7.24492"><ele>1095</ele><time>2016-08-28T09:16:41Z</time></trkpt>
<trkpt lat="46.16181" lon="7.24489"><ele>1095.2</ele><time>2016-08-28T09:16:43Z</time></trkpt>
<trkpt lat="46.16184" lon="7.24487"><ele>1095.4</ele><time>2016-08-28T09:16:45Z</time></trkpt>
<trkpt lat="46.16187" lon="7.24485"><ele>1095.6</ele><time>2016-08-28T09:16:47Z</time></trkpt>
<trkpt lat="46.16189" lon="7.24483"><ele>1095.8</ele><time>2016-08-28T09:16:48Z</time></trkpt>
<trkpt lat="46.1619" lon="7.24482"><ele>1095.8</ele><time>2016-08-28T09:16:49Z</time></trkpt>
<trkpt lat="46.16193" lon="7.2448"><ele>1096</ele><time>2016-08-28T09:16:51Z</time></trkpt>
<trkpt lat="46.16196" lon="7.24478"><ele>1096.2</ele><time>2016-08-28T09:16:53Z</time></trkpt>
<trkpt lat="46.16199" lon="7.24475"><ele>1096.4</ele><time>2016-08-28T09:16:55Z</time></trkpt>
<trkpt lat="46.16202" lon="7.24473"><ele>1096.4</ele><time>2016-08-28T09:16:57Z</time></trkpt>
<trkpt lat="46.16207" lon="7.24471"><ele>1096.6</ele><time>2016-08-28T09:16:59Z</time></trkpt>
<trkpt lat="46.16211" lon="7.24468"><ele>1096.8</ele><time>2016-08-28T09:17:01Z</time></trkpt>
<trkpt lat="46.16216" lon="7.24466"><ele>1097</ele><time>2016-08-28T09:17:03Z</time></trkpt>
<trkpt lat="46.1622" lon="7.24463"><ele>1097.2</ele><time>2016-08-28T09:17:05Z</time></trkpt>
<trkpt lat="46.16225" lon="7.24461"><ele>1097.2</ele><time>2016-08-28T09:17:07Z</time></trkpt>
<trkpt lat="46.16229" lon="7.24458"><ele>1097.4</ele><time>2016-08-28T09:17:09Z</time></trkpt>
<trkpt lat="46.16234" lon="7.24456"><ele>1097.6</ele><time>2016-08-28T09:17:11Z</time></trkpt>
<trkpt lat="46.16238" lon="7.24453"><ele>1097.8</ele><time>2016-08-28T09:17:13Z</time></trkpt>
<trkpt lat="46.16243" lon="7.24451"><ele>1097.8</ele><time>2016-08-28T09:17:15Z</time></trkpt>
<trkpt lat="46.16245" lon="7.24449"><ele>1098</ele><time>2016-08-28T09:17:16Z</time></trkpt>
<trkpt lat="46.16247" lon="7.24449"><ele>1098</ele><time>2016-08-28T09:17:17Z</time></trkpt>
<trkpt lat="46.16251" lon="7.24448"><ele>1098.2</ele><time>2016-08-28T09:17:19Z</time></trkpt>
<trkpt lat="46.16253" lon="7.24448"><ele>1098.2</ele><time>2016-08-28T09:17:20Z</time></trkpt>
<trkpt lat="46.16255" lon="7.24448"><ele>1098.4</ele><time>2016-08-28T09:17:21Z</time></trkpt>
<trkpt lat="46.16259" lon="7.24447"><ele>1098.4</ele><time>2016-08-28T09:17:23Z</time></trkpt>
<trkpt lat="46.16263" lon="7.24446"><ele>1098.4</ele><time>2016-08-28T09:17:25Z</time></trkpt>
<trkpt lat="46.16267" lon="7.24446"><ele>1098.4</ele><time>2016-08-28T09:17:27Z</time></trkpt>
<trkpt lat="46.16271" lon="7.24445"><ele>1098.4</ele><time>2016-08-28T09:17:29Z</time></trkpt>
<trkpt lat="46.16275" lon="7.24445"><ele>1098.4</ele><time>2016-08-28T09:17:31Z</time></trkpt>
<trkpt lat="46.16279" lon="7.24444"><ele>1098.6</ele><time>2016-08-28T09:17:33Z</time></trkpt>
<trkpt lat="46.16283" lon="7.24443"><ele>1099</ele><time>2016-08-28T09:17:35Z</time></trkpt>
<trkpt lat="46.16287" lon="7.24443"><ele>1099.2</ele><time>2016-08-28T09:17:37Z</time></trkpt>
<trkpt lat="46.16291" lon="7.24442"><ele>1099.4</ele><time>2016-08-28T09:17:39Z</time></trkpt>
<trkpt lat="46.16297" lon="7.24441"><ele>1099.8</ele><time>2016-08-28T09:17:41Z</time></trkpt>
<trkpt lat="46.16304" lon="7.2444"><ele>1100</ele><time>2016-08-28T09:17:43Z</time></trkpt>
<trkpt lat="46.1631" lon="7.2444"><ele>1100.2</ele><time>2016-08-28T09:17:45Z</time></trkpt>
<trkpt lat="46.16317" lon="7.24439"><ele>1100.6</ele><time>2016-08-28T09:17:47Z</time></trkpt>
<trkpt lat="46.16323" lon="7.24438"><ele>1100.8</ele><time>2016-08-28T09:17:49Z</time></trkpt>
<trkpt lat="46.1633" lon="7.24437"><ele>1101</ele><time>2016-08-28T09:17:51Z</time></trkpt>
<trkpt lat="46.16336" lon="7.24436"><ele>1101.2</ele><time>2016-08-28T09:17:53Z</time></trkpt>
<trkpt lat="46.1634" lon="7.24435"><ele>1101.4</ele><time>2016-08-28T09:17:54Z</time></trkpt>
<trkpt lat="46.16344" lon="7.24433"><ele>1101.6</ele><time>2016-08-28T09:17:55Z</time></trkpt>
<trkpt lat="46.16352" lon="7.24428"><ele>1101.8</ele><time>2016-08-28T09:17:57Z</time></trkpt>
<trkpt lat="46.1636" lon="7.24423"><ele>1102</ele><time>2016-08-28T09:17:59Z</time></trkpt>
<trkpt lat="46.16368" lon="7.24418"><ele>1102.4</ele><time>2016-08-28T09:18:01Z</time></trkpt>
<trkpt lat="46.16376" lon="7.24413"><ele>1102.6</ele><time>2016-08-28T09:18:03Z</time></trkpt>
<trkpt lat="46.1638" lon="7.2441"><ele>1102.8</ele><time>2016-08-28T09:18:04Z</time></trkpt>
<trkpt lat="46.16385" lon="7.2441"><ele>1102.8</ele><time>2016-08-28T09:18:05Z</time></trkpt>
<trkpt lat="46.16394" lon="7.2441"><ele>1103</ele><time>2016-08-28T09:18:07Z</time></trkpt>
<trkpt lat="46.16404" lon="7.24411"><ele>1103.4</ele><time>2016-08-28T09:18:09Z</time></trkpt>
<trkpt lat="46.16413" lon="7.24411"><ele>1103.6</ele><time>2016-08-28T09:18:11Z</time></trkpt>
<trkpt lat="46.16422" lon="7.24411"><ele>1103.8</ele><time>2016-08-28T09:18:13Z</time></trkpt>
<trkpt lat="46.16427" lon="7.24411"><ele>1104</ele><time>2016-08-28T09:18:14Z</time></trkpt>
<trkpt lat="46.16431" lon="7.24412"><ele>1104.2</ele><time>2016-08-28T09:18:15Z</time></trkpt>
<trkpt lat="46.16438" lon="7.24413"><ele>1105.2</ele><time>2016-08-28T09:18:17Z</time></trkpt>
<trkpt lat="46.16445" lon="7.24414"><ele>1106.4</ele><time>2016-08-28T09:18:19Z</time></trkpt>
<trkpt lat="46.16452" lon="7.24415"><ele>1107.6</ele><time>2016-08-28T09:18:21Z</time></trkpt>
<trkpt lat="46.16459" lon="7.24416"><ele>1109</ele><time>2016-08-28T09:18:23Z</time></trkpt>
<trkpt lat="46.16466" lon="7.24418"><ele>1110.6</ele><time>2016-08-28T09:18:25Z</time></trkpt>
<trkpt lat="46.1647" lon="7.24418"><ele>1111.2</ele><time>2016-08-28T09:18:26Z</time></trkpt>
<trkpt lat="46.16473" lon="7.24419"><ele>1111.4</ele><time>2016-08-28T09:18:27Z</time></trkpt>
<trkpt lat="46.16476" lon="7.2442"><ele>1111.6</ele><time>2016-08-28T09:18:29Z</time></trkpt>
<trkpt lat="46.16478" lon="7.24421"><ele>1112</ele><time>2016-08-28T09:18:31Z</time></trkpt>
<trkpt lat="46.1648" lon="7.24422"><ele>1112.2</ele><time>2016-08-28T09:18:33Z</time></trkpt>
<trkpt lat="46.16483" lon="7.24423"><ele>1112.4</ele><time>2016-08-28T09:18:35Z</time></trkpt>
<trkpt lat="46.16485" lon="7.24425"><ele>1112.6</ele><time>2016-08-28T09:18:37Z</time></trkpt>
<trkpt lat="46.16488" lon="7.24426"><ele>1112.8</ele><time>2016-08-28T09:18:39Z</time></trkpt>
<trkpt lat="46.1649" lon="7.24427"><ele>1113</ele><time>2016-08-28T09:18:41Z</time></trkpt>
<trkpt lat="46.16492" lon="7.24428"><ele>1113.4</ele><time>2016-08-28T09:18:43Z</time></trkpt>
<trkpt lat="46.16495" lon="7.24429"><ele>1113.4</ele><time>2016-08-28T09:18:45Z</time></trkpt>
<trkpt lat="46.16497" lon="7.2443"><ele>1113.4</ele><time>2016-08-28T09:18:47Z</time></trkpt>
<trkpt lat="46.16498" lon="7.24431"><ele>1113.4</ele><time>2016-08-28T09:18:48Z</time></trkpt>
<trkpt lat="46.16499" lon="7.24432"><ele>1113.4</ele><time>2016-08-28T09:18:49Z</time></trkpt>
<trkpt lat="46.16502" lon="7.24433"><ele>1113.2</ele><time>2016-08-28T09:18:51Z</time></trkpt>
<trkpt lat="46.16504" lon="7.24434"><ele>1113.2</ele><time>2016-08-28T09:18:53Z</time></trkpt>
<trkpt lat="46.16507" lon="7.24435"><ele>1113.2</ele><time>2016-08-28T09:18:55Z</time></trkpt>
<trkpt lat="46.16509" lon="7.24436"><ele>1113</ele><time>2016-08-28T09:18:57Z</time></trkpt>
<trkpt lat="46.16511" lon="7.24437"><ele>1113</ele><time>2016-08-28T09:18:59Z</time></trkpt>
<trkpt lat="46.16514" lon="7.24439"><ele>1113</ele><time>2016-08-28T09:19:01Z</time></trkpt>
<trkpt lat="46.16516" lon="7.2444"><ele>1112.8</ele><time>2016-08-28T09:19:03Z</time></trkpt>
<trkpt lat="46.16521" lon="7.2444"><ele>1112.8</ele><time>2016-08-28T09:19:05Z</time></trkpt>
<trkpt lat="46.16526" lon="7.2444"><ele>1112.8</ele><time>2016-08-28T09:19:07Z</time></trkpt>
<trkpt lat="46.16531" lon="7.2444"><ele>1112.8</ele><time>2016-08-28T09:19:09Z</time></trkpt>
<trkpt lat="46.16536" lon="7.24441"><ele>1112.6</ele><time>2016-08-28T09:19:11Z</time></trkpt>
<trkpt lat="46.16541" lon="7.24441"><ele>1112.6</ele><time>2016-08-28T09:19:13Z</time></trkpt>
<trkpt lat="46.16546" lon="7.24441"><ele>1112.6</ele><time>2016-08-28T09:19:15Z</time></trkpt>
<trkpt lat="46.16551" lon="7.24441"><ele>1112.4</ele><time>2016-08-28T09:19:17Z</time></trkpt>
<trkpt lat="46.16556" lon="7.24441"><ele>1112.4</ele><time>2016-08-28T09:19:19Z</time></trkpt>
<trkpt lat="46.16561" lon="7.24442"><ele>1112.4</ele><time>2016-08-28T09:19:21Z</time></trkpt>
<trkpt lat="46.16564" lon="7.24442"><ele>1112.4</ele><time>2016-08-28T09:19:22Z</time></trkpt>
<trkpt lat="46.16566" lon="7.2444"><ele>1112.4</ele><time>2016-08-28T09:19:23Z</time></trkpt>
<trkpt lat="46.1657" lon="7.24434"><ele>1112.2</ele><time>2016-08-28T09:19:25Z</time></trkpt>
<trkpt lat="46.16575" lon="7.24429"><ele>1112.2</ele><time>2016-08-28T09:19:27Z</time></trkpt>
<trkpt lat="46.16579" lon="7.24424"><ele>1112.2</ele><time>2016-08-28T09:19:29Z</time></trkpt>
<trkpt lat="46.16584" lon="7.24419"><ele>1112</ele><time>2016-08-28T09:19:31Z</time></trkpt>
<trkpt lat="46.16588" lon="7.24414"><ele>1112</ele><time>2016-08-28T09:19:33Z</time></trkpt>
<trkpt lat="46.16593" lon="7.24409"><ele>1112</ele><time>2016-08-28T09:19:35Z</time></trkpt>
<trkpt lat="46.16597" lon="7.24404"><ele>1112</ele><time>2016-08-28T09:19:37Z</time></trkpt>
<trkpt lat="46.16599" lon="7.24401"><ele>1111.8</ele><time>2016-08-28T09:19:38Z</time></trkpt>
<trkpt lat="46.16602" lon="7.244"><ele>1111.8</ele><time>2016-08-28T09:19:39Z</time></trkpt>
<trkpt lat="46.16609" lon="7.24399"><ele>1111.8</ele><time>2016-08-28T09:19:41Z</time></trkpt>
<trkpt lat="46.16615" lon="7.24397"><ele>1111.8</ele><time>2016-08-28T09:19:43Z</time></trkpt>
<trkpt lat="46.16621" lon="7.24395"><ele>1111.6</ele><time>2016-08-28T09:19:45Z</time></trkpt>
<trkpt lat="46.16627" lon="7.24394"><ele>1111.6</ele><time>2016-08-28T09:19:47Z</time></trkpt>
<trkpt lat="46.16633" lon="7.24392"><ele>1111.6</ele><time>2016-08-28T09:19:49Z</time></trkpt>
<trkpt lat="46.16639" lon="7.2439"><ele>1111.6</ele><time>2016-08-28T09:19:51Z</time></trkpt>
<trkpt lat="46.16645" lon="7.24389"><ele>1111.4</ele><time>2016-08-28T09:19:53Z</time></trkpt>
<trkpt lat="46.16652" lon="7.24384"><ele>1111.4</ele><time>2016-08-28T09:19:55Z</time></trkpt>
<trkpt lat="46.16658" lon="7.2438"><ele>1111.4</ele><time>2016-08-28T09:19:57Z</time></trkpt>
<trkpt lat="46.16665" lon="7.24375"><ele>1111.2</ele><time>2016-08-28T09:19:59Z</time></trkpt>
<trkpt lat="46.16672" lon="7.2437"><ele>1111.2</ele><time>2016-08-28T09:20:01Z</time></trkpt>
<trkpt lat="46.16679" lon="7.24372"><ele>1111.2</ele><time>2016-08-28T09:20:03Z</time></trkpt>
<trkpt lat="46.16687" lon="7.24374"><ele>1111</ele><time>2016-08-28T09:20:05Z</time></trkpt>
<trkpt lat="46.16695" lon="7.24376"><ele>1111</ele><time>2016-08-28T09:20:07Z</time></trkpt>
<trkpt lat="46.16702" lon="7.24378"><ele>1111</ele><time>2016-08-28T09:20:09Z</time></trkpt>
<trkpt lat="46.1671" lon="7.2438"><ele>1111</ele><time>2016-08-28T09:20:11Z</time></trkpt>
<trkpt lat="46.16718" lon="7.24381"><ele>1110.8</ele><time>2016-08-28T09:20:13Z</time></trkpt>
<trkpt lat="46.16728" lon="7.24384"><ele>1110.8</ele><time>2016-08-28T09:20:15Z</time></trkpt>
<trkpt lat="46.16738" lon="7.24386"><ele>1110.8</ele><time>2016-08-28T09:20:17Z</time></trkpt>
<trkpt lat="46.16743" lon="7.24388"><ele>1110.8</ele><time>2016-08-28T09:20:18Z</time></trkpt>
<trkpt lat="46.16748" lon="7.24386"><ele>1110.6</ele><time>2016-08-28T09:20:19Z</time></trkpt>
<trkpt lat="46.16759" lon="7.24383"><ele>1110.6</ele><time>2016-08-28T09:20:21Z</time></trkpt>
<trkpt lat="46.16767" lon="7.24378"><ele>1110.6</ele><time>2016-08-28T09:20:23Z</time></trkpt>
<trkpt lat="46.16775" lon="7.24372"><ele>1110.6</ele><time>2016-08-28T09:20:25Z</time></trkpt>
<trkpt lat="46.16782" lon="7.24367"><ele>1110.4</ele><time>2016-08-28T09:20:27Z</time></trkpt>
<trkpt lat="46.16788" lon="7.24362"><ele>1110.4</ele><time>2016-08-28T09:20:29Z</time></trkpt>
<trkpt lat="46.16795" lon="7.24357"><ele>1110.4</ele><time>2016-08-28T09:20:31Z</time></trkpt>
<trkpt lat="46.16802" lon="7.24351"><ele>1110.2</ele><time>2016-08-28T09:20:33Z</time></trkpt>
<trkpt lat="46.16805" lon="7.24349"><ele>1110.2</ele><time>2016-08-28T09:20:34Z</time></trkpt>
<trkpt lat="46.16809" lon="7.24346"><ele>1110.2</ele><time>2016-08-28T09:20:35Z</time></trkpt>
<trkpt lat="46.16815" lon="7.24341"><ele>1110.2</ele><time>2016-08-28T09:20:37Z</time></trkpt>
<trkpt lat="46.1682" lon="7.24334"><ele>1110.2</ele><time>2016-08-28T09:20:39Z</time></trkpt>
<trkpt lat="46.16825" lon="7.24327"><ele>1110.2</ele><time>2016-08-28T09:20:41Z</time></trkpt>
<trkpt lat="46.1683" lon="7.2432"><ele>1110.2</ele><time>2016-08-28T09:20:43Z</time></trkpt>
<trkpt lat="46.16835" lon="7.24313"><ele>1110.2</ele><time>2016-08-28T09:20:45Z</time></trkpt>
<trkpt lat="46.1684" lon="7.24305"><ele>1110.2</ele><time>2016-08-28T09:20:47Z</time></trkpt>
<trkpt lat="46.16842" lon="7.24302"><ele>1110.2</ele><time>2016-08-28T09:20:48Z</time></trkpt>
<trkpt lat="46.16845" lon="7.24303"><ele>1110.2</ele><time>2016-08-28T09:20:49Z</time></trkpt>
<trkpt lat="46.16851" lon="7.24308"><ele>1110.2</ele><time>2016-08-28T09:20:51Z</time></trkpt>
<trkpt lat="46.16857" lon="7.24312"><ele>1110.2</ele><time>2016-08-28T09:20:53Z</time></trkpt>
<trkpt lat="46.16862" lon="7.24317"><ele>1110</ele><time>2016-08-28T09:20:55Z</time></trkpt>
<trkpt lat="46.16868" lon="7.24321"><ele>1110</ele><time>2016-08-28T09:20:57Z</time></trkpt>
<trkpt lat="46.16874" lon="7.24326"><ele>1110</ele><time>2016-08-28T09:20:59Z</time></trkpt>
<trkpt lat="46.1688" lon="7.2433"><ele>1110</ele><time>2016-08-28T09:21:01Z</time></trkpt>
<trkpt lat="46.16883" lon="7.24333"><ele>1110</ele><time>2016-08-28T09:21:02Z</time></trkpt>
<trkpt lat="46.16887" lon="7.24335"><ele>1110</ele><time>2016-08-28T09:21:03Z</time></trkpt>
<trkpt lat="46.16895" lon="7.2434"><ele>1110</ele><time>2016-08-28T09:21:05Z</time></trkpt>
<trkpt lat="46.169" lon="7.24342"><ele>1110</ele><time>2016-08-28T09:21:06Z</time></trkpt>
<trkpt lat="46.16905" lon="7.24343"><ele>1110</ele><time>2016-08-28T09:21:07Z</time></trkpt>
<trkpt lat="46.16916" lon="7.24343"><ele>1110</ele><time>2016-08-28T09:21:09Z</time></trkpt>
<trkpt lat="46.16926" lon="7.24344"><ele>1110</ele><time>2016-08-28T09:21:11Z</time></trkpt>
<trkpt lat="46.16932" lon="7.24344"><ele>1110</ele><time>2016-08-28T09:21:12Z</time></trkpt>
<trkpt lat="46.16936" lon="7.24341"><ele>1110</ele><time>2016-08-28T09:21:13Z</time></trkpt>
<trkpt lat="46.16945" lon="7.24335"><ele>1110</ele><time>2016-08-28T09:21:15Z</time></trkpt>
<trkpt lat="46.16954" lon="7.24329"><ele>1110</ele><time>2016-08-28T09:21:17Z</time></trkpt>
<trkpt lat="46.16958" lon="7.24318"><ele>1110</ele><time>2016-08-28T09:21:19Z</time></trkpt>
<trkpt lat="46.1696" lon="7.24313"><ele>1109.8</ele><time>2016-08-28T09:21:20Z</time></trkpt>
<trkpt lat="46.16958" lon="7.2431"><ele>1109.8</ele><time>2016-08-28T09:21:21Z</time></trkpt>
<trkpt lat="46.16954" lon="7.24306"><ele>1109.8</ele><time>2016-08-28T09:21:24Z</time></trkpt>
<trkpt lat="46.17074" lon="7.24252"><ele>1096.2</ele><time>2016-08-28T09:35:35Z</time></trkpt>
<trkpt lat="46.17074" lon="7.24252"><ele>1096.2</ele><time>2016-08-28T09:35:38Z</time></trkpt>
<trkpt lat="46.1702" lon="7.2427"><ele>1096.2</ele><time>2016-08-28T09:35:40Z</time></trkpt>
<trkpt lat="46.1696" lon="7.2429"><ele>1096</ele><time>2016-08-28T09:35:42Z</time></trkpt>
<trkpt lat="46.16958" lon="7.24294"><ele>1096</ele><time>2016-08-28T09:35:44Z</time></trkpt>
<trkpt lat="46.16958" lon="7.24298"><ele>1096</ele><time>2016-08-28T09:35:46Z</time></trkpt>
<trkpt lat="46.16957" lon="7.24301"><ele>1095.8</ele><time>2016-08-28T09:35:48Z</time></trkpt>
<trkpt lat="46.16957" lon="7.24305"><ele>1095.8</ele><time>2016-08-28T09:35:50Z</time></trkpt>
<trkpt lat="46.16957" lon="7.24308"><ele>1095.8</ele><time>2016-08-28T09:35:52Z</time></trkpt>
<trkpt lat="46.16957" lon="7.24312"><ele>1095.6</ele><time>2016-08-28T09:35:54Z</time></trkpt>
<trkpt lat="46.16957" lon="7.24315"><ele>1095.6</ele><time>2016-08-28T09:35:56Z</time></trkpt>
<trkpt lat="46.1696" lon="7.24312"><ele>1095.6</ele><time>2016-08-28T09:35:58Z</time></trkpt>
<trkpt lat="46.16963" lon="7.24308"><ele>1095.4</ele><time>2016-08-28T09:36:00Z</time></trkpt>
<trkpt lat="46.16966" lon="7.24304"><ele>1095.4</ele><time>2016-08-28T09:36:02Z</time></trkpt>
<trkpt lat="46.16969" lon="7.243"><ele>1095.2</ele><time>2016-08-28T09:36:04Z</time></trkpt>
<trkpt lat="46.16972" lon="7.24297"><ele>1095.2</ele><time>2016-08-28T09:36:06Z</time></trkpt>
<trkpt lat="46.16975" lon="7.24293"><ele>1095.2</ele><time>2016-08-28T09:36:08Z</time></trkpt>
<trkpt lat="46.16978" lon="7.24289"><ele>1095</ele><time>2016-08-28T09:36:10Z</time></trkpt>
<trkpt lat="46.16981" lon="7.24285"><ele>1095</ele><time>2016-08-28T09:36:12Z</time></trkpt>
<trkpt lat="46.16988" lon="7.24287"><ele>1095</ele><time>2016-08-28T09:36:14Z</time></trkpt>
<trkpt lat="46.16995" lon="7.2429"><ele>1094.8</ele><time>2016-08-28T09:36:16Z</time></trkpt>
<trkpt lat="46.17003" lon="7.24292"><ele>1094.8</ele><time>2016-08-28T09:36:18Z</time></trkpt>
<trkpt lat="46.17006" lon="7.24294"><ele>1094.8</ele><time>2016-08-28T09:36:19Z</time></trkpt>
<trkpt lat="46.17009" lon="7.24298"><ele>1094.6</ele><time>2016-08-28T09:36:20Z</time></trkpt>
<trkpt lat="46.17015" lon="7.24308"><ele>1094.6</ele><time>2016-08-28T09:36:22Z</time></trkpt>
<trkpt lat="46.1702" lon="7.24318"><ele>1094.6</ele><time>2016-08-28T09:36:24Z</time></trkpt>
<trkpt lat="46.17026" lon="7.24328"><ele>1094.4</ele><time>2016-08-28T09:36:26Z</time></trkpt>
<trkpt lat="46.17029" lon="7.24333"><ele>1094.4</ele><time>2016-08-28T09:36:27Z</time></trkpt>
<trkpt lat="46.17029" lon="7.2434"><ele>1094.4</ele><time>2016-08-28T09:36:28Z</time></trkpt>
<trkpt lat="46.1703" lon="7.24354"><ele>1094.4</ele><time>2016-08-28T09:36:30Z</time></trkpt>
<trkpt lat="46.1703" lon="7.24368"><ele>1094.2</ele><time>2016-08-28T09:36:32Z</time></trkpt>
<trkpt lat="46.17031" lon="7.24383"><ele>1094.2</ele><time>2016-08-28T09:36:34Z</time></trkpt>
<trkpt lat="46.17031" lon="7.24397"><ele>1094.2</ele><time>2016-08-28T09:36:36Z</time></trkpt>
<trkpt lat="46.17037" lon="7.24412"><ele>1094</ele><time>2016-08-28T09:36:38Z</time></trkpt>
<trkpt lat="46.1704" lon="7.24419"><ele>1094</ele><time>2016-08-28T09:36:39Z</time></trkpt>
<trkpt lat="46.1704" lon="7.24428"><ele>1094</ele><time>2016-08-28T09:36:40Z</time></trkpt>
<trkpt lat="46.1704" lon="7.24438"><ele>1094</ele><time>2016-08-28T09:36:41Z</time></trkpt>
<trkpt lat="46.17037" lon="7.24446"><ele>1093.8</ele><time>2016-08-28T09:36:42Z</time></trkpt>
<trkpt lat="46.17031" lon="7.24463"><ele>1093.8</ele><time>2016-08-28T09:36:44Z</time></trkpt>
<trkpt lat="46.1703" lon="7.24483"><ele>1093.8</ele><time>2016-08-28T09:36:46Z</time></trkpt>
<trkpt lat="46.17029" lon="7.24503"><ele>1093.6</ele><time>2016-08-28T09:36:48Z</time></trkpt>
<trkpt lat="46.17021" lon="7.2452"><ele>1093.6</ele><time>2016-08-28T09:36:50Z</time></trkpt>
<trkpt lat="46.17014" lon="7.24537"><ele>1093.6</ele><time>2016-08-28T09:36:52Z</time></trkpt>
<trkpt lat="46.17006" lon="7.24554"><ele>1093.4</ele><time>2016-08-28T09:36:54Z</time></trkpt>
<trkpt lat="46.17002" lon="7.24562"><ele>1093.4</ele><time>2016-08-28T09:36:55Z</time></trkpt>
<trkpt lat="46.16999" lon="7.24572"><ele>1093.4</ele><time>2016-08-28T09:36:56Z</time></trkpt>
<trkpt lat="46.16995" lon="7.24591"><ele>1093.2</ele><time>2016-08-28T09:36:58Z</time></trkpt>
<trkpt lat="46.16992" lon="7.24601"><ele>1093.2</ele><time>2016-08-28T09:36:59Z</time></trkpt>
<trkpt lat="46.16993" lon="7.24611"><ele>1093.2</ele><time>2016-08-28T09:37:00Z</time></trkpt>
<trkpt lat="46.16995" lon="7.24632"><ele>1093.2</ele><time>2016-08-28T09:37:02Z</time></trkpt>
<trkpt lat="46.17004" lon="7.24652"><ele>1093</ele><time>2016-08-28T09:37:04Z</time></trkpt>
<trkpt lat="46.17014" lon="7.24673"><ele>1093</ele><time>2016-08-28T09:37:06Z</time></trkpt>
<trkpt lat="46.17018" lon="7.24683"><ele>1093</ele><time>2016-08-28T09:37:07Z</time></trkpt>
<trkpt lat="46.17023" lon="7.24693"><ele>1093</ele><time>2016-08-28T09:37:08Z</time></trkpt>
<trkpt lat="46.17032" lon="7.24713"><ele>1092.8</ele><time>2016-08-28T09:37:10Z</time></trkpt>
<trkpt lat="46.17031" lon="7.24734"><ele>1092.6</ele><time>2016-08-28T09:37:12Z</time></trkpt>
<trkpt lat="46.17035" lon="7.24744"><ele>1092.4</ele><time>2016-08-28T09:37:13Z</time></trkpt>
<trkpt lat="46.17042" lon="7.24756"><ele>1092.2</ele><time>2016-08-28T09:37:14Z</time></trkpt>
<trkpt lat="46.17047" lon="7.24776"><ele>1092</ele><time>2016-08-28T09:37:16Z</time></trkpt>
<trkpt lat="46.17052" lon="7.24796"><ele>1091.6</ele><time>2016-08-28T09:37:18Z</time></trkpt>
<trkpt lat="46.17055" lon="7.24806"><ele>1091.4</ele><time>2016-08-28T09:37:19Z</time></trkpt>
<trkpt lat="46.17058" lon="7.24814"><ele>1091.4</ele><time>2016-08-28T09:37:20Z</time></trkpt>
<trkpt lat="46.17065" lon="7.24829"><ele>1091</ele><time>2016-08-28T09:37:22Z</time></trkpt>
<trkpt lat="46.17072" lon="7.24843"><ele>1090.6</ele><time>2016-08-28T09:37:24Z</time></trkpt>
<trkpt lat="46.1708" lon="7.24858"><ele>1090.4</ele><time>2016-08-28T09:37:26Z</time></trkpt>
<trkpt lat="46.17087" lon="7.24873"><ele>1090</ele><time>2016-08-28T09:37:28Z</time></trkpt>
<trkpt lat="46.17094" lon="7.24888"><ele>1089.8</ele><time>2016-08-28T09:37:30Z</time></trkpt>
<trkpt lat="46.1713" lon="7.24902"><ele>1089.4</ele><time>2016-08-28T09:37:32Z</time></trkpt>
<trkpt lat="46.17167" lon="7.24917"><ele>1089.2</ele><time>2016-08-28T09:37:34Z</time></trkpt>
<trkpt lat="46.17204" lon="7.24932"><ele>1088.8</ele><time>2016-08-28T09:37:36Z</time></trkpt>
<trkpt lat="46.1724" lon="7.24947"><ele>1088.4</ele><time>2016-08-28T09:37:38Z</time></trkpt>
<trkpt lat="46.17258" lon="7.24954"><ele>1088.4</ele><time>2016-08-28T09:37:39Z</time></trkpt>
<trkpt lat="46.17261" lon="7.24953"><ele>1088.2</ele><time>2016-08-28T09:37:40Z</time></trkpt>
<trkpt lat="46.17266" lon="7.24951"><ele>1087.8</ele><time>2016-08-28T09:37:42Z</time></trkpt>
<trkpt lat="46.17271" lon="7.24949"><ele>1087.4</ele><time>2016-08-28T09:37:44Z</time></trkpt>
<trkpt lat="46.17275" lon="7.24947"><ele>1087</ele><time>2016-08-28T09:37:46Z</time></trkpt>
<trkpt lat="46.1728" lon="7.24945"><ele>1086.8</ele><time>2016-08-28T09:37:48Z</time></trkpt>
<trkpt lat="46.17285" lon="7.24943"><ele>1086.4</ele><time>2016-08-28T09:37:50Z</time></trkpt>
<trkpt lat="46.17288" lon="7.24943"><ele>1086.2</ele><time>2016-08-28T09:37:51Z</time></trkpt>
<trkpt lat="46.17294" lon="7.24944"><ele>1086</ele><time>2016-08-28T09:37:52Z</time></trkpt>
<trkpt lat="46.17307" lon="7.24949"><ele>1085.6</ele><time>2016-08-28T09:37:54Z</time></trkpt>
<trkpt lat="46.17329" lon="7.24952"><ele>1085.4</ele><time>2016-08-28T09:37:56Z</time></trkpt>
<trkpt lat="46.1734" lon="7.24953"><ele>1085.2</ele><time>2016-08-28T09:37:57Z</time></trkpt>
<trkpt lat="46.17351" lon="7.24957"><ele>1085</ele><time>2016-08-28T09:37:58Z</time></trkpt>
<trkpt lat="46.17365" lon="7.24973"><ele>1084.6</ele><time>2016-08-28T09:38:00Z</time></trkpt>
<trkpt lat="46.17372" lon="7.24981"><ele>1084.4</ele><time>2016-08-28T09:38:01Z</time></trkpt>
<trkpt lat="46.17381" lon="7.24983"><ele>1084.4</ele><time>2016-08-28T09:38:02Z</time></trkpt>
<trkpt lat="46.174" lon="7.24986"><ele>1084.2</ele><time>2016-08-28T09:38:04Z</time></trkpt>
<trkpt lat="46.1741" lon="7.24987"><ele>1084</ele><time>2016-08-28T09:38:05Z</time></trkpt>
<trkpt lat="46.17418" lon="7.24992"><ele>1084</ele><time>2016-08-28T09:38:06Z</time></trkpt>
<trkpt lat="46.17433" lon="7.25001"><ele>1083.8</ele><time>2016-08-28T09:38:08Z</time></trkpt>
<trkpt lat="46.17448" lon="7.25015"><ele>1083.6</ele><time>2016-08-28T09:38:10Z</time></trkpt>
<trkpt lat="46.17463" lon="7.2503"><ele>1083.4</ele><time>2016-08-28T09:38:12Z</time></trkpt>
<trkpt lat="46.17472" lon="7.25049"><ele>1083</ele><time>2016-08-28T09:38:14Z</time></trkpt>
<trkpt lat="46.17481" lon="7.25069"><ele>1082.8</ele><time>2016-08-28T09:38:16Z</time></trkpt>
<trkpt lat="46.17493" lon="7.25086"><ele>1082.6</ele><time>2016-08-28T09:38:18Z</time></trkpt>
<trkpt lat="46.17499" lon="7.25094"><ele>1082.4</ele><time>2016-08-28T09:38:19Z</time></trkpt>
<trkpt lat="46.17503" lon="7.25104"><ele>1082.2</ele><time>2016-08-28T09:38:20Z</time></trkpt>
<trkpt lat="46.1751" lon="7.25127"><ele>1081.6</ele><time>2016-08-28T09:38:22Z</time></trkpt>
<trkpt lat="46.17513" lon="7.25138"><ele>1081.4</ele><time>2016-08-28T09:38:23Z</time></trkpt>
<trkpt lat="46.17515" lon="7.25149"><ele>1081.2</ele><time>2016-08-28T09:38:24Z</time></trkpt>
<trkpt lat="46.17518" lon="7.25173"><ele>1080.4</ele><time>2016-08-28T09:38:26Z</time></trkpt>
<trkpt lat="46.17521" lon="7.25196"><ele>1079.8</ele><time>2016-08-28T09:38:28Z</time></trkpt>
<trkpt lat="46.17525" lon="7.25221"><ele>1079</ele><time>2016-08-28T09:38:30Z</time></trkpt>
<trkpt lat="46.1753" lon="7.25248"><ele>1078.4</ele><time>2016-08-28T09:38:32Z</time></trkpt>
<trkpt lat="46.17535" lon="7.25276"><ele>1077.6</ele><time>2016-08-28T09:38:34Z</time></trkpt>
<trkpt lat="46.17542" lon="7.25301"><ele>1076.8</ele><time>2016-08-28T09:38:36Z</time></trkpt>
<trkpt lat="46.1755" lon="7.25325"><ele>1076</ele><time>2016-08-28T09:38:38Z</time></trkpt>
<trkpt lat="46.17554" lon="7.25337"><ele>1075.6</ele><time>2016-08-28T09:38:39Z</time></trkpt>
<trkpt lat="46.17559" lon="7.25348"><ele>1075.2</ele><time>2016-08-28T09:38:40Z</time></trkpt>
<trkpt lat="46.17569" lon="7.25371"><ele>1074.4</ele><time>2016-08-28T09:38:42Z</time></trkpt>
<trkpt lat="46.17579" lon="7.25394"><ele>1073.6</ele><time>2016-08-28T09:38:44Z</time></trkpt>
<trkpt lat="46.17588" lon="7.25416"><ele>1073.4</ele><time>2016-08-28T09:38:46Z</time></trkpt>
<trkpt lat="46.17598" lon="7.25438"><ele>1073</ele><time>2016-08-28T09:38:48Z</time></trkpt>
<trkpt lat="46.17603" lon="7.25448"><ele>1072.8</ele><time>2016-08-28T09:38:49Z</time></trkpt>
<trkpt lat="46.17608" lon="7.25458"><ele>1072.6</ele><time>2016-08-28T09:38:50Z</time></trkpt>
<trkpt lat="46.17618" lon="7.25477"><ele>1072.4</ele><time>2016-08-28T09:38:52Z</time></trkpt>
<trkpt lat="46.17627" lon="7.25496"><ele>1072</ele><time>2016-08-28T09:38:54Z</time></trkpt>
<trkpt lat="46.17632" lon="7.25506"><ele>1071.8</ele><time>2016-08-28T09:38:55Z</time></trkpt>
<trkpt lat="46.17637" lon="7.25515"><ele>1071.6</ele><time>2016-08-28T09:38:56Z</time></trkpt>
<trkpt lat="46.17646" lon="7.25534"><ele>1071.4</ele><time>2016-08-28T09:38:58Z</time></trkpt>
<trkpt lat="46.17649" lon="7.25554"><ele>1071.2</ele><time>2016-08-28T09:39:00Z</time></trkpt>
<trkpt lat="46.17653" lon="7.25575"><ele>1071</ele><time>2016-08-28T09:39:02Z</time></trkpt>
<trkpt lat="46.17656" lon="7.25596"><ele>1070.8</ele><time>2016-08-28T09:39:04Z</time></trkpt>
<trkpt lat="46.17657" lon="7.25606"><ele>1070.6</ele><time>2016-08-28T09:39:05Z</time></trkpt>
<trkpt lat="46.17659" lon="7.25616"><ele>1070.6</ele><time>2016-08-28T09:39:06Z</time></trkpt>
<trkpt lat="46.17662" lon="7.25637"><ele>1070.4</ele><time>2016-08-28T09:39:08Z</time></trkpt>
<trkpt lat="46.17665" lon="7.25657"><ele>1070.2</ele><time>2016-08-28T09:39:10Z</time></trkpt>
<trkpt lat="46.17668" lon="7.25677"><ele>1070</ele><time>2016-08-28T09:39:12Z</time></trkpt>
<trkpt lat="46.17672" lon="7.25694"><ele>1069.8</ele><time>2016-08-28T09:39:14Z</time></trkpt>
<trkpt lat="46.17676" lon="7.25712"><ele>1069.6</ele><time>2016-08-28T09:39:16Z</time></trkpt>
<trkpt lat="46.17675" lon="7.25718"><ele>1069.4</ele><time>2016-08-28T09:39:17Z</time></trkpt>
<trkpt lat="46.17675" lon="7.25723"><ele>1069.6</ele><time>2016-08-28T09:39:18Z</time></trkpt>
<trkpt lat="46.17673" lon="7.25735"><ele>1070.2</ele><time>2016-08-28T09:39:20Z</time></trkpt>
<trkpt lat="46.17672" lon="7.25747"><ele>1070.6</ele><time>2016-08-28T09:39:22Z</time></trkpt>
<trkpt lat="46.17671" lon="7.25758"><ele>1071.2</ele><time>2016-08-28T09:39:24Z</time></trkpt>
<trkpt lat="46.17672" lon="7.25766"><ele>1071.6</ele><time>2016-08-28T09:39:26Z</time></trkpt>
<trkpt lat="46.17672" lon="7.25773"><ele>1072.2</ele><time>2016-08-28T09:39:28Z</time></trkpt>
<trkpt lat="46.17673" lon="7.25781"><ele>1072.6</ele><time>2016-08-28T09:39:30Z</time></trkpt>
<trkpt lat="46.17674" lon="7.25789"><ele>1073.2</ele><time>2016-08-28T09:39:32Z</time></trkpt>
<trkpt lat="46.17674" lon="7.25792"><ele>1073.4</ele><time>2016-08-28T09:39:33Z</time></trkpt>
<trkpt lat="46.17675" lon="7.25796"><ele>1073.6</ele><time>2016-08-28T09:39:34Z</time></trkpt>
<trkpt lat="46.17676" lon="7.25804"><ele>1073.8</ele><time>2016-08-28T09:39:36Z</time></trkpt>
<trkpt lat="46.17676" lon="7.25811"><ele>1074</ele><time>2016-08-28T09:39:38Z</time></trkpt>
<trkpt lat="46.17677" lon="7.25819"><ele>1074.2</ele><time>2016-08-28T09:39:40Z</time></trkpt>
<trkpt lat="46.17678" lon="7.25823"><ele>1074.4</ele><time>2016-08-28T09:39:41Z</time></trkpt>
<trkpt lat="46.17678" lon="7.25826"><ele>1074.4</ele><time>2016-08-28T09:39:42Z</time></trkpt>
<trkpt lat="46.17679" lon="7.25833"><ele>1074.6</ele><time>2016-08-28T09:39:44Z</time></trkpt>
<trkpt lat="46.17679" lon="7.25841"><ele>1074.8</ele><time>2016-08-28T09:39:46Z</time></trkpt>
<trkpt lat="46.1768" lon="7.25848"><ele>1075.2</ele><time>2016-08-28T09:39:48Z</time></trkpt>
<trkpt lat="46.1768" lon="7.25855"><ele>1075.4</ele><time>2016-08-28T09:39:50Z</time></trkpt>
<trkpt lat="46.17681" lon="7.25862"><ele>1075.6</ele><time>2016-08-28T09:39:52Z</time></trkpt>
<trkpt lat="46.17681" lon="7.2587"><ele>1075.8</ele><time>2016-08-28T09:39:54Z</time></trkpt>
<trkpt lat="46.17682" lon="7.25877"><ele>1076</ele><time>2016-08-28T09:39:56Z</time></trkpt>
<trkpt lat="46.17683" lon="7.25884"><ele>1076.2</ele><time>2016-08-28T09:39:58Z</time></trkpt>
<trkpt lat="46.17683" lon="7.25888"><ele>1076.2</ele><time>2016-08-28T09:39:59Z</time></trkpt>
<trkpt lat="46.17684" lon="7.25891"><ele>1076.4</ele><time>2016-08-28T09:40:00Z</time></trkpt>
<trkpt lat="46.17686" lon="7.25898"><ele>1076.4</ele><time>2016-08-28T09:40:02Z</time></trkpt>
<trkpt lat="46.17688" lon="7.25905"><ele>1076.6</ele><time>2016-08-28T09:40:04Z</time></trkpt>
<trkpt lat="46.1769" lon="7.25912"><ele>1076.8</ele><time>2016-08-28T09:40:06Z</time></trkpt>
<trkpt lat="46.17692" lon="7.25919"><ele>1077</ele><time>2016-08-28T09:40:08Z</time></trkpt>
<trkpt lat="46.17694" lon="7.25926"><ele>1077.2</ele><time>2016-08-28T09:40:10Z</time></trkpt>
<trkpt lat="46.17695" lon="7.25933"><ele>1077.2</ele><time>2016-08-28T09:40:12Z</time></trkpt>
<trkpt lat="46.17697" lon="7.2594"><ele>1077.4</ele><time>2016-08-28T09:40:14Z</time></trkpt>
<trkpt lat="46.17699" lon="7.25947"><ele>1077.6</ele><time>2016-08-28T09:40:16Z</time></trkpt>
<trkpt lat="46.177" lon="7.25951"><ele>1077.6</ele><time>2016-08-28T09:40:17Z</time></trkpt>
<trkpt lat="46.17702" lon="7.25954"><ele>1077.8</ele><time>2016-08-28T09:40:18Z</time></trkpt>
<trkpt lat="46.17704" lon="7.25961"><ele>1078</ele><time>2016-08-28T09:40:20Z</time></trkpt>
<trkpt lat="46.17707" lon="7.25968"><ele>1078</ele><time>2016-08-28T09:40:22Z</time></trkpt>
<trkpt lat="46.17709" lon="7.25975"><ele>1078.2</ele><time>2016-08-28T09:40:24Z</time></trkpt>
<trkpt lat="46.17712" lon="7.25982"><ele>1078.4</ele><time>2016-08-28T09:40:26Z</time></trkpt>
<trkpt lat="46.17714" lon="7.25989"><ele>1078.6</ele><time>2016-08-28T09:40:28Z</time></trkpt>
<trkpt lat="46.17717" lon="7.25996"><ele>1078.8</ele><time>2016-08-28T09:40:30Z</time></trkpt>
<trkpt lat="46.17719" lon="7.26003"><ele>1078.8</ele><time>2016-08-28T09:40:32Z</time></trkpt>
<trkpt lat="46.17722" lon="7.2601"><ele>1079</ele><time>2016-08-28T09:40:34Z</time></trkpt>
<trkpt lat="46.17725" lon="7.26016"><ele>1079.2</ele><time>2016-08-28T09:40:36Z</time></trkpt>
<trkpt lat="46.17727" lon="7.26022"><ele>1079.4</ele><time>2016-08-28T09:40:38Z</time></trkpt>
<trkpt lat="46.1773" lon="7.26029"><ele>1079.6</ele><time>2016-08-28T09:40:40Z</time></trkpt>
<trkpt lat="46.17731" lon="7.26032"><ele>1079.6</ele><time>2016-08-28T09:40:41Z</time></trkpt>
<trkpt lat="46.17732" lon="7.26035"><ele>1079.8</ele><time>2016-08-28T09:40:42Z</time></trkpt>
<trkpt lat="46.17735" lon="7.26041"><ele>1080</ele><time>2016-08-28T09:40:44Z</time></trkpt>
<trkpt lat="46.17738" lon="7.26048"><ele>1080.2</ele><time>2016-08-28T09:40:46Z</time></trkpt>
<trkpt lat="46.1774" lon="7.26054"><ele>1080.6</ele><time>2016-08-28T09:40:48Z</time></trkpt>
<trkpt lat="46.17743" lon="7.26061"><ele>1080.8</ele><time>2016-08-28T09:40:50Z</time></trkpt>
<trkpt lat="46.17746" lon="7.26067"><ele>1081</ele><time>2016-08-28T09:40:52Z</time></trkpt>
<trkpt lat="46.17749" lon="7.26073"><ele>1081.2</ele><time>2016-08-28T09:40:54Z</time></trkpt>
<trkpt lat="46.17751" lon="7.2608"><ele>1081.6</ele><time>2016-08-28T09:40:56Z</time></trkpt>
<trkpt lat="46.17753" lon="7.26083"><ele>1081.6</ele><time>2016-08-28T09:40:57Z</time></trkpt>
<trkpt lat="46.17754" lon="7.26086"><ele>1081.8</ele><time>2016-08-28T09:40:58Z</time></trkpt>
<trkpt lat="46.17757" lon="7.26092"><ele>1082</ele><time>2016-08-28T09:41:00Z</time></trkpt>
<trkpt lat="46.1776" lon="7.26099"><ele>1082.4</ele><time>2016-08-28T09:41:02Z</time></trkpt>
<trkpt lat="46.17761" lon="7.26102"><ele>1082.4</ele><time>2016-08-28T09:41:03Z</time></trkpt>
<trkpt lat="46.17763" lon="7.26105"><ele>1082.6</ele><time>2016-08-28T09:41:04Z</time></trkpt>
<trkpt lat="46.17766" lon="7.26112"><ele>1082.8</ele><time>2016-08-28T09:41:06Z</time></trkpt>
<trkpt lat="46.17769" lon="7.26118"><ele>1083.2</ele><time>2016-08-28T09:41:08Z</time></trkpt>
<trkpt lat="46.1777" lon="7.26121"><ele>1083.4</ele><time>2016-08-28T09:41:09Z</time></trkpt>
<trkpt lat="46.17771" lon="7.26124"><ele>1083.4</ele><time>2016-08-28T09:41:10Z</time></trkpt>
<trkpt lat="46.17773" lon="7.26131"><ele>1083.6</ele><time>2016-08-28T09:41:12Z</time></trkpt>
<trkpt lat="46.17775" lon="7.26138"><ele>1083.8</ele><time>2016-08-28T09:41:14Z</time></trkpt>
<trkpt lat="46.17775" lon="7.26141"><ele>1083.8</ele><time>2016-08-28T09:41:15Z</time></trkpt>
<trkpt lat="46.17776" lon="7.26145"><ele>1083.8</ele><time>2016-08-28T09:41:16Z</time></trkpt>
<trkpt lat="46.17778" lon="7.26151"><ele>1084</ele><time>2016-08-28T09:41:18Z</time></trkpt>
<trkpt lat="46.17779" lon="7.26158"><ele>1084</ele><time>2016-08-28T09:41:20Z</time></trkpt>
<trkpt lat="46.17781" lon="7.26165"><ele>1084.2</ele><time>2016-08-28T09:41:22Z</time></trkpt>
<trkpt lat="46.17782" lon="7.26172"><ele>1084.2</ele><time>2016-08-28T09:41:24Z</time></trkpt>
<trkpt lat="46.17786" lon="7.26213"><ele>1085.6</ele><time>2016-08-28T09:41:26Z</time></trkpt>
<trkpt lat="46.17786" lon="7.26213"><ele>1085.6</ele><time>2016-08-28T09:42:47Z</time></trkpt>
<trkpt lat="46.17788" lon="7.26248"><ele>1087</ele><time>2016-08-28T09:42:48Z</time></trkpt>
<trkpt lat="46.17788" lon="7.2625"><ele>1087.2</ele><time>2016-08-28T09:42:50Z</time></trkpt>
<trkpt lat="46.17788" lon="7.26251"><ele>1087.2</ele><time>2016-08-28T09:42:52Z</time></trkpt>
<trkpt lat="46.17788" lon="7.26253"><ele>1087.4</ele><time>2016-08-28T09:42:54Z</time></trkpt>
<trkpt lat="46.17788" lon="7.26254"><ele>1087.8</ele><time>2016-08-28T09:42:56Z</time></trkpt>
<trkpt lat="46.17788" lon="7.26256"><ele>1088</ele><time>2016-08-28T09:42:58Z</time></trkpt>
<trkpt lat="46.17788" lon="7.26257"><ele>1088.2</ele><time>2016-08-28T09:42:59Z</time></trkpt>
<trkpt lat="46.17788" lon="7.26261"><ele>1088.4</ele><time>2016-08-28T09:43:00Z</time></trkpt>
<trkpt lat="46.17789" lon="7.2627"><ele>1088.8</ele><time>2016-08-28T09:43:02Z</time></trkpt>
<trkpt lat="46.17789" lon="7.26275"><ele>1088.8</ele><time>2016-08-28T09:43:03Z</time></trkpt>
<trkpt lat="46.17789" lon="7.26279"><ele>1089</ele><time>2016-08-28T09:43:04Z</time></trkpt>
<trkpt lat="46.17789" lon="7.26289"><ele>1089.2</ele><time>2016-08-28T09:43:06Z</time></trkpt>
<trkpt lat="46.1779" lon="7.26298"><ele>1089.4</ele><time>2016-08-28T09:43:08Z</time></trkpt>
<trkpt lat="46.1779" lon="7.26307"><ele>1089.6</ele><time>2016-08-28T09:43:10Z</time></trkpt>
<trkpt lat="46.1779" lon="7.26316"><ele>1089.8</ele><time>2016-08-28T09:43:12Z</time></trkpt>
<trkpt lat="46.17791" lon="7.26326"><ele>1090</ele><time>2016-08-28T09:43:14Z</time></trkpt>
<trkpt lat="46.17791" lon="7.26335"><ele>1090.2</ele><time>2016-08-28T09:43:16Z</time></trkpt>
<trkpt lat="46.17791" lon="7.26345"><ele>1090.4</ele><time>2016-08-28T09:43:18Z</time></trkpt>
<trkpt lat="46.17791" lon="7.26354"><ele>1090.6</ele><time>2016-08-28T09:43:20Z</time></trkpt>
<trkpt lat="46.17791" lon="7.26364"><ele>1091</ele><time>2016-08-28T09:43:22Z</time></trkpt>
<trkpt lat="46.17791" lon="7.26374"><ele>1091.2</ele><time>2016-08-28T09:43:24Z</time></trkpt>
<trkpt lat="46.17792" lon="7.26383"><ele>1091.6</ele><time>2016-08-28T09:43:26Z</time></trkpt>
<trkpt lat="46.17792" lon="7.26393"><ele>1091.8</ele><time>2016-08-28T09:43:28Z</time></trkpt>
<trkpt lat="46.17792" lon="7.26401"><ele>1092.2</ele><time>2016-08-28T09:43:30Z</time></trkpt>
<trkpt lat="46.17793" lon="7.26405"><ele>1092.2</ele><time>2016-08-28T09:43:31Z</time></trkpt>
<trkpt lat="46.17793" lon="7.26409"><ele>1092.4</ele><time>2016-08-28T09:43:32Z</time></trkpt>
<trkpt lat="46.17793" lon="7.26418"><ele>1092.6</ele><time>2016-08-28T09:43:34Z</time></trkpt>
<trkpt lat="46.17794" lon="7.26426"><ele>1092.8</ele><time>2016-08-28T09:43:36Z</time></trkpt>
<trkpt lat="46.17795" lon="7.26434"><ele>1093</ele><time>2016-08-28T09:43:38Z</time></trkpt>
<trkpt lat="46.17795" lon="7.26442"><ele>1093.4</ele><time>2016-08-28T09:43:40Z</time></trkpt>
<trkpt lat="46.17795" lon="7.26447"><ele>1093.6</ele><time>2016-08-28T09:43:41Z</time></trkpt>
<trkpt lat="46.17796" lon="7.26451"><ele>1093.6</ele><time>2016-08-28T09:43:42Z</time></trkpt>
<trkpt lat="46.17796" lon="7.26459"><ele>1093.6</ele><time>2016-08-28T09:43:44Z</time></trkpt>
<trkpt lat="46.178" lon="7.26474"><ele>1093.4</ele><time>2016-08-28T09:43:46Z</time></trkpt>
<trkpt lat="46.17804" lon="7.26489"><ele>1093.2</ele><time>2016-08-28T09:43:48Z</time></trkpt>
<trkpt lat="46.17808" lon="7.26504"><ele>1093</ele><time>2016-08-28T09:43:50Z</time></trkpt>
<trkpt lat="46.17812" lon="7.26519"><ele>1092.6</ele><time>2016-08-28T09:43:52Z</time></trkpt>
<trkpt lat="46.17814" lon="7.26526"><ele>1092.4</ele><time>2016-08-28T09:43:53Z</time></trkpt>
<trkpt lat="46.17817" lon="7.26534"><ele>1092.4</ele><time>2016-08-28T09:43:54Z</time></trkpt>
<trkpt lat="46.17822" lon="7.2655"><ele>1092</ele><time>2016-08-28T09:43:56Z</time></trkpt>
<trkpt lat="46.17827" lon="7.26567"><ele>1091.8</ele><time>2016-08-28T09:43:58Z</time></trkpt>
<trkpt lat="46.17832" lon="7.26583"><ele>1091.4</ele><time>2016-08-28T09:44:00Z</time></trkpt>
<trkpt lat="46.17835" lon="7.26591"><ele>1091.2</ele><time>2016-08-28T09:44:01Z</time></trkpt>
<trkpt lat="46.17836" lon="7.26596"><ele>1091.2</ele><time>2016-08-28T09:44:02Z</time></trkpt>
<trkpt lat="46.1784" lon="7.26607"><ele>1090.8</ele><time>2016-08-28T09:44:04Z</time></trkpt>
<trkpt lat="46.17843" lon="7.26618"><ele>1091.2</ele><time>2016-08-28T09:44:06Z</time></trkpt>
<trkpt lat="46.17847" lon="7.26629"><ele>1091.6</ele><time>2016-08-28T09:44:08Z</time></trkpt>
<trkpt lat="46.17849" lon="7.26634"><ele>1092</ele><time>2016-08-28T09:44:09Z</time></trkpt>
<trkpt lat="46.1785" lon="7.26639"><ele>1092.2</ele><time>2016-08-28T09:44:10Z</time></trkpt>
<trkpt lat="46.17854" lon="7.2665"><ele>1092.4</ele><time>2016-08-28T09:44:12Z</time></trkpt>
<trkpt lat="46.17858" lon="7.2666"><ele>1092.8</ele><time>2016-08-28T09:44:14Z</time></trkpt>
<trkpt lat="46.17863" lon="7.2667"><ele>1093.2</ele><time>2016-08-28T09:44:16Z</time></trkpt>
<trkpt lat="46.17867" lon="7.2668"><ele>1093.6</ele><time>2016-08-28T09:44:18Z</time></trkpt>
<trkpt lat="46.1787" lon="7.26685"><ele>1093.8</ele><time>2016-08-28T09:44:19Z</time></trkpt>
<trkpt lat="46.17872" lon="7.26691"><ele>1094</ele><time>2016-08-28T09:44:20Z</time></trkpt>
<trkpt lat="46.17877" lon="7.26701"><ele>1094.2</ele><time>2016-08-28T09:44:22Z</time></trkpt>
<trkpt lat="46.17879" lon="7.26706"><ele>1094.4</ele><time>2016-08-28T09:44:23Z</time></trkpt>
<trkpt lat="46.17881" lon="7.26709"><ele>1094.6</ele><time>2016-08-28T09:44:24Z</time></trkpt>
<trkpt lat="46.17886" lon="7.26715"><ele>1094.8</ele><time>2016-08-28T09:44:26Z</time></trkpt>
<trkpt lat="46.17891" lon="7.26721"><ele>1095.2</ele><time>2016-08-28T09:44:28Z</time></trkpt>
<trkpt lat="46.17895" lon="7.26726"><ele>1095.4</ele><time>2016-08-28T09:44:30Z</time></trkpt>
<trkpt lat="46.179" lon="7.26732"><ele>1095.8</ele><time>2016-08-28T09:44:32Z</time></trkpt>
<trkpt lat="46.17905" lon="7.26738"><ele>1096.2</ele><time>2016-08-28T09:44:34Z</time></trkpt>
<trkpt lat="46.17909" lon="7.26744"><ele>1096.4</ele><time>2016-08-28T09:44:36Z</time></trkpt>
<trkpt lat="46.17914" lon="7.2675"><ele>1096.8</ele><time>2016-08-28T09:44:38Z</time></trkpt>
<trkpt lat="46.17916" lon="7.26755"><ele>1097</ele><time>2016-08-28T09:44:40Z</time></trkpt>
<trkpt lat="46.17917" lon="7.26757"><ele>1097.2</ele><time>2016-08-28T09:44:41Z</time></trkpt>
<trkpt lat="46.17918" lon="7.2676"><ele>1097.4</ele><time>2016-08-28T09:44:42Z</time></trkpt>
<trkpt lat="46.17919" lon="7.26765"><ele>1097.8</ele><time>2016-08-28T09:44:44Z</time></trkpt>
<trkpt lat="46.17921" lon="7.2677"><ele>1098.2</ele><time>2016-08-28T09:44:46Z</time></trkpt>
<trkpt lat="46.17923" lon="7.26775"><ele>1098.6</ele><time>2016-08-28T09:44:48Z</time></trkpt>
<trkpt lat="46.17925" lon="7.2678"><ele>1099.2</ele><time>2016-08-28T09:44:50Z</time></trkpt>
<trkpt lat="46.17927" lon="7.26785"><ele>1099.6</ele><time>2016-08-28T09:44:52Z</time></trkpt>
<trkpt lat="46.17928" lon="7.2679"><ele>1100</ele><time>2016-08-28T09:44:54Z</time></trkpt>
<trkpt lat="46.1793" lon="7.26795"><ele>1100.4</ele><time>2016-08-28T09:44:56Z</time></trkpt>
<trkpt lat="46.17931" lon="7.26798"><ele>1100.6</ele><time>2016-08-28T09:44:57Z</time></trkpt>
<trkpt lat="46.17932" lon="7.268"><ele>1100.8</ele><time>2016-08-28T09:44:58Z</time></trkpt>
<trkpt lat="46.17934" lon="7.26805"><ele>1101.2</ele><time>2016-08-28T09:45:00Z</time></trkpt>
<trkpt lat="46.17935" lon="7.26808"><ele>1101.4</ele><time>2016-08-28T09:45:01Z</time></trkpt>
<trkpt lat="46.17935" lon="7.2681"><ele>1101.6</ele><time>2016-08-28T09:45:02Z</time></trkpt>
<trkpt lat="46.17936" lon="7.26815"><ele>1102</ele><time>2016-08-28T09:45:04Z</time></trkpt>
<trkpt lat="46.17937" lon="7.2682"><ele>1102.4</ele><time>2016-08-28T09:45:06Z</time></trkpt>
<trkpt lat="46.17938" lon="7.26825"><ele>1102.8</ele><time>2016-08-28T09:45:08Z</time></trkpt>
<trkpt lat="46.17938" lon="7.26829"><ele>1103.2</ele><time>2016-08-28T09:45:10Z</time></trkpt>
<trkpt lat="46.17939" lon="7.26834"><ele>1103.6</ele><time>2016-08-28T09:45:12Z</time></trkpt>
<trkpt lat="46.1794" lon="7.26839"><ele>1104</ele><time>2016-08-28T09:45:14Z</time></trkpt>
<trkpt lat="46.17941" lon="7.26841"><ele>1104.2</ele><time>2016-08-28T09:45:15Z</time></trkpt>
<trkpt lat="46.17941" lon="7.26844"><ele>1104.2</ele><time>2016-08-28T09:45:16Z</time></trkpt>
<trkpt lat="46.17942" lon="7.26849"><ele>1104.4</ele><time>2016-08-28T09:45:18Z</time></trkpt>
<trkpt lat="46.17943" lon="7.26853"><ele>1104.6</ele><time>2016-08-28T09:45:20Z</time></trkpt>
<trkpt lat="46.17943" lon="7.26858"><ele>1104.8</ele><time>2016-08-28T09:45:22Z</time></trkpt>
<trkpt lat="46.17944" lon="7.26863"><ele>1105</ele><time>2016-08-28T09:45:24Z</time></trkpt>
<trkpt lat="46.17945" lon="7.26868"><ele>1105.2</ele><time>2016-08-28T09:45:26Z</time></trkpt>
<trkpt lat="46.17946" lon="7.26873"><ele>1105.2</ele><time>2016-08-28T09:45:28Z</time></trkpt>
<trkpt lat="46.17949" lon="7.26878"><ele>1105.4</ele><time>2016-08-28T09:45:30Z</time></trkpt>
<trkpt lat="46.17952" lon="7.26884"><ele>1105.6</ele><time>2016-08-28T09:45:32Z</time></trkpt>
<trkpt lat="46.17955" lon="7.2689"><ele>1105.8</ele><time>2016-08-28T09:45:34Z</time></trkpt>
<trkpt lat="46.17958" lon="7.26896"><ele>1106</ele><time>2016-08-28T09:45:36Z</time></trkpt>
<trkpt lat="46.17961" lon="7.26902"><ele>1106.2</ele><time>2016-08-28T09:45:38Z</time></trkpt>
<trkpt lat="46.17964" lon="7.26908"><ele>1106.4</ele><time>2016-08-28T09:45:40Z</time></trkpt>
<trkpt lat="46.17967" lon="7.26914"><ele>1106.6</ele><time>2016-08-28T09:45:42Z</time></trkpt>
<trkpt lat="46.1797" lon="7.2692"><ele>1106.8</ele><time>2016-08-28T09:45:44Z</time></trkpt>
<trkpt lat="46.17973" lon="7.26926"><ele>1107</ele><time>2016-08-28T09:45:46Z</time></trkpt>
<trkpt lat="46.17974" lon="7.26932"><ele>1107.2</ele><time>2016-08-28T09:45:48Z</time></trkpt>
<trkpt lat="46.17975" lon="7.26938"><ele>1107.4</ele><time>2016-08-28T09:45:50Z</time></trkpt>
<trkpt lat="46.17976" lon="7.26944"><ele>1107.6</ele><time>2016-08-28T09:45:52Z</time></trkpt>
<trkpt lat="46.17976" lon="7.26951"><ele>1107.8</ele><time>2016-08-28T09:45:54Z</time></trkpt>
<trkpt lat="46.17977" lon="7.26957"><ele>1108</ele><time>2016-08-28T09:45:56Z</time></trkpt>
<trkpt lat="46.17978" lon="7.26963"><ele>1108.2</ele><time>2016-08-28T09:45:58Z</time></trkpt>
<trkpt lat="46.17979" lon="7.2697"><ele>1108.4</ele><time>2016-08-28T09:46:00Z</time></trkpt>
<trkpt lat="46.17979" lon="7.26976"><ele>1108.6</ele><time>2016-08-28T09:46:02Z</time></trkpt>
<trkpt lat="46.1798" lon="7.26979"><ele>1108.6</ele><time>2016-08-28T09:46:03Z</time></trkpt>
<trkpt lat="46.1798" lon="7.26982"><ele>1108.8</ele><time>2016-08-28T09:46:04Z</time></trkpt>
<trkpt lat="46.17981" lon="7.26988"><ele>1109</ele><time>2016-08-28T09:46:06Z</time></trkpt>
<trkpt lat="46.17981" lon="7.26992"><ele>1109.2</ele><time>2016-08-28T09:46:07Z</time></trkpt>
<trkpt lat="46.17981" lon="7.26995"><ele>1109.4</ele><time>2016-08-28T09:46:08Z</time></trkpt>
<trkpt lat="46.1798" lon="7.27003"><ele>1109.6</ele><time>2016-08-28T09:46:10Z</time></trkpt>
<trkpt lat="46.1798" lon="7.27011"><ele>1109.8</ele><time>2016-08-28T09:46:12Z</time></trkpt>
<trkpt lat="46.17979" lon="7.27018"><ele>1110.2</ele><time>2016-08-28T09:46:14Z</time></trkpt>
<trkpt lat="46.17981" lon="7.27022"><ele>1110.2</ele><time>2016-08-28T09:46:15Z</time></trkpt>
<trkpt lat="46.17983" lon="7.27026"><ele>1110.4</ele><time>2016-08-28T09:46:16Z</time></trkpt>
<trkpt lat="46.17986" lon="7.27034"><ele>1110.6</ele><time>2016-08-28T09:46:18Z</time></trkpt>
<trkpt lat="46.1799" lon="7.27042"><ele>1110.6</ele><time>2016-08-28T09:46:20Z</time></trkpt>
<trkpt lat="46.17994" lon="7.27049"><ele>1110.8</ele><time>2016-08-28T09:46:22Z</time></trkpt>
<trkpt lat="46.17998" lon="7.27057"><ele>1111</ele><time>2016-08-28T09:46:24Z</time></trkpt>
<trkpt lat="46.18001" lon="7.27065"><ele>1111.2</ele><time>2016-08-28T09:46:26Z</time></trkpt>
<trkpt lat="46.18003" lon="7.27069"><ele>1111.2</ele><time>2016-08-28T09:46:27Z</time></trkpt>
<trkpt lat="46.18005" lon="7.27073"><ele>1111.4</ele><time>2016-08-28T09:46:28Z</time></trkpt>
<trkpt lat="46.18007" lon="7.27079"><ele>1111.8</ele><time>2016-08-28T09:46:30Z</time></trkpt>
<trkpt lat="46.18008" lon="7.27084"><ele>1112.2</ele><time>2016-08-28T09:46:32Z</time></trkpt>
<trkpt lat="46.18009" lon="7.2709"><ele>1112.8</ele><time>2016-08-28T09:46:34Z</time></trkpt>
<trkpt lat="46.1801" lon="7.27096"><ele>1113.2</ele><time>2016-08-28T09:46:36Z</time></trkpt>
<trkpt lat="46.18011" lon="7.27101"><ele>1113.6</ele><time>2016-08-28T09:46:38Z</time></trkpt>
<trkpt lat="46.18013" lon="7.27107"><ele>1114</ele><time>2016-08-28T09:46:40Z</time></trkpt>
<trkpt lat="46.18014" lon="7.27113"><ele>1114.4</ele><time>2016-08-28T09:46:42Z</time></trkpt>
<trkpt lat="46.18015" lon="7.27118"><ele>1114.8</ele><time>2016-08-28T09:46:44Z</time></trkpt>
<trkpt lat="46.18016" lon="7.27124"><ele>1115.2</ele><time>2016-08-28T09:46:46Z</time></trkpt>
<trkpt lat="46.18017" lon="7.2713"><ele>1115.8</ele><time>2016-08-28T09:46:48Z</time></trkpt>
<trkpt lat="46.18018" lon="7.27135"><ele>1116.2</ele><time>2016-08-28T09:46:50Z</time></trkpt>
<trkpt lat="46.1802" lon="7.2714"><ele>1116.8</ele><time>2016-08-28T09:46:52Z</time></trkpt>
<trkpt lat="46.18021" lon="7.27145"><ele>1117.2</ele><time>2016-08-28T09:46:54Z</time></trkpt>
<trkpt lat="46.18022" lon="7.27149"><ele>1117.6</ele><time>2016-08-28T09:46:56Z</time></trkpt>
<trkpt lat="46.18024" lon="7.27154"><ele>1118.2</ele><time>2016-08-28T09:46:58Z</time></trkpt>
<trkpt lat="46.18025" lon="7.27158"><ele>1118.4</ele><time>2016-08-28T09:47:00Z</time></trkpt>
<trkpt lat="46.18026" lon="7.27163"><ele>1118.8</ele><time>2016-08-28T09:47:02Z</time></trkpt>
<trkpt lat="46.18027" lon="7.27168"><ele>1119</ele><time>2016-08-28T09:47:04Z</time></trkpt>
<trkpt lat="46.18027" lon="7.27173"><ele>1119.4</ele><time>2016-08-28T09:47:06Z</time></trkpt>
<trkpt lat="46.18027" lon="7.27178"><ele>1119.8</ele><time>2016-08-28T09:47:08Z</time></trkpt>
<trkpt lat="46.18027" lon="7.27184"><ele>1120</ele><time>2016-08-28T09:47:10Z</time></trkpt>
<trkpt lat="46.18027" lon="7.27189"><ele>1120.4</ele><time>2016-08-28T09:47:12Z</time></trkpt>
<trkpt lat="46.18028" lon="7.27194"><ele>1120.6</ele><time>2016-08-28T09:47:14Z</time></trkpt>
<trkpt lat="46.1803" lon="7.27199"><ele>1121</ele><time>2016-08-28T09:47:16Z</time></trkpt>
<trkpt lat="46.18033" lon="7.27204"><ele>1121.2</ele><time>2016-08-28T09:47:18Z</time></trkpt>
<trkpt lat="46.18036" lon="7.27209"><ele>1121.6</ele><time>2016-08-28T09:47:20Z</time></trkpt>
<trkpt lat="46.18039" lon="7.27214"><ele>1122</ele><time>2016-08-28T09:47:22Z</time></trkpt>
<trkpt lat="46.18042" lon="7.27219"><ele>1122.2</ele><time>2016-08-28T09:47:24Z</time></trkpt>
<trkpt lat="46.18045" lon="7.27225"><ele>1122.6</ele><time>2016-08-28T09:47:26Z</time></trkpt>
<trkpt lat="46.18048" lon="7.2723"><ele>1123</ele><time>2016-08-28T09:47:28Z</time></trkpt>
<trkpt lat="46.18051" lon="7.27235"><ele>1123.2</ele><time>2016-08-28T09:47:30Z</time></trkpt>
<trkpt lat="46.18053" lon="7.2724"><ele>1123.6</ele><time>2016-08-28T09:47:32Z</time></trkpt>
<trkpt lat="46.18056" lon="7.27245"><ele>1124</ele><time>2016-08-28T09:47:34Z</time></trkpt>
<trkpt lat="46.18059" lon="7.2725"><ele>1124.2</ele><time>2016-08-28T09:47:36Z</time></trkpt>
<trkpt lat="46.18061" lon="7.27255"><ele>1124.6</ele><time>2016-08-28T09:47:38Z</time></trkpt>
<trkpt lat="46.18063" lon="7.2726"><ele>1125</ele><time>2016-08-28T09:47:40Z</time></trkpt>
<trkpt lat="46.18066" lon="7.27265"><ele>1125.4</ele><time>2016-08-28T09:47:42Z</time></trkpt>
<trkpt lat="46.18068" lon="7.2727"><ele>1125.6</ele><time>2016-08-28T09:47:44Z</time></trkpt>
<trkpt lat="46.18071" lon="7.27275"><ele>1125.6</ele><time>2016-08-28T09:47:46Z</time></trkpt>
<trkpt lat="46.18073" lon="7.2728"><ele>1125.8</ele><time>2016-08-28T09:47:48Z</time></trkpt>
<trkpt lat="46.18075" lon="7.27285"><ele>1126</ele><time>2016-08-28T09:47:50Z</time></trkpt>
<trkpt lat="46.18078" lon="7.2729"><ele>1126.2</ele><time>2016-08-28T09:47:52Z</time></trkpt>
<trkpt lat="46.1808" lon="7.27295"><ele>1126.4</ele><time>2016-08-28T09:47:54Z</time></trkpt>
<trkpt lat="46.18082" lon="7.273"><ele>1126.8</ele><time>2016-08-28T09:47:56Z</time></trkpt>
<trkpt lat="46.18084" lon="7.27305"><ele>1127</ele><time>2016-08-28T09:47:58Z</time></trkpt>
<trkpt lat="46.18086" lon="7.2731"><ele>1127.2</ele><time>2016-08-28T09:48:00Z</time></trkpt>
<trkpt lat="46.18088" lon="7.27314"><ele>1127.4</ele><time>2016-08-28T09:48:02Z</time></trkpt>
<trkpt lat="46.1809" lon="7.27319"><ele>1127.8</ele><time>2016-08-28T09:48:04Z</time></trkpt>
<trkpt lat="46.18092" lon="7.27323"><ele>1128</ele><time>2016-08-28T09:48:06Z</time></trkpt>
<trkpt lat="46.18094" lon="7.27328"><ele>1128.2</ele><time>2016-08-28T09:48:08Z</time></trkpt>
<trkpt lat="46.18096" lon="7.27333"><ele>1128.4</ele><time>2016-08-28T09:48:10Z</time></trkpt>
<trkpt lat="46.18098" lon="7.27337"><ele>1128.8</ele><time>2016-08-28T09:48:12Z</time></trkpt>
<trkpt lat="46.181" lon="7.27342"><ele>1129</ele><time>2016-08-28T09:48:14Z</time></trkpt>
<trkpt lat="46.18102" lon="7.27346"><ele>1129.2</ele><time>2016-08-28T09:48:16Z</time></trkpt>
<trkpt lat="46.18104" lon="7.27351"><ele>1129.4</ele><time>2016-08-28T09:48:18Z</time></trkpt>
<trkpt lat="46.18105" lon="7.27353"><ele>1129.6</ele><time>2016-08-28T09:48:19Z</time></trkpt>
<trkpt lat="46.18105" lon="7.27355"><ele>1129.8</ele><time>2016-08-28T09:48:20Z</time></trkpt>
<trkpt lat="46.18105" lon="7.27357"><ele>1129.8</ele><time>2016-08-28T09:48:21Z</time></trkpt>
<trkpt lat="46.18106" lon="7.2736"><ele>1130</ele><time>2016-08-28T09:48:22Z</time></trkpt>
<trkpt lat="46.18106" lon="7.27364"><ele>1130.4</ele><time>2016-08-28T09:48:24Z</time></trkpt>
<trkpt lat="46.18107" lon="7.27368"><ele>1130.6</ele><time>2016-08-28T09:48:26Z</time></trkpt>
<trkpt lat="46.18107" lon="7.27373"><ele>1131</ele><time>2016-08-28T09:48:28Z</time></trkpt>
<trkpt lat="46.18108" lon="7.27377"><ele>1131.4</ele><time>2016-08-28T09:48:30Z</time></trkpt>
<trkpt lat="46.18109" lon="7.27381"><ele>1131.8</ele><time>2016-08-28T09:48:32Z</time></trkpt>
<trkpt lat="46.18109" lon="7.27386"><ele>1132</ele><time>2016-08-28T09:48:34Z</time></trkpt>
<trkpt lat="46.1811" lon="7.2739"><ele>1132.4</ele><time>2016-08-28T09:48:36Z</time></trkpt>
<trkpt lat="46.1811" lon="7.27394"><ele>1132.8</ele><time>2016-08-28T09:48:38Z</time></trkpt>
<trkpt lat="46.18111" lon="7.27399"><ele>1133</ele><time>2016-08-28T09:48:40Z</time></trkpt>
<trkpt lat="46.18111" lon="7.27401"><ele>1133.2</ele><time>2016-08-28T09:48:41Z</time></trkpt>
<trkpt lat="46.18113" lon="7.27403"><ele>1133.4</ele><time>2016-08-28T09:48:42Z</time></trkpt>
<trkpt lat="46.18115" lon="7.27404"><ele>1133.6</ele><time>2016-08-28T09:48:43Z</time></trkpt>
<trkpt lat="46.18116" lon="7.27406"><ele>1133.8</ele><time>2016-08-28T09:48:44Z</time></trkpt>
<trkpt lat="46.1812" lon="7.27409"><ele>1134</ele><time>2016-08-28T09:48:46Z</time></trkpt>
<trkpt lat="46.18123" lon="7.27413"><ele>1134.4</ele><time>2016-08-28T09:48:48Z</time></trkpt>
<trkpt lat="46.18127" lon="7.27416"><ele>1134.6</ele><time>2016-08-28T09:48:50Z</time></trkpt>
<trkpt lat="46.1813" lon="7.2742"><ele>1134.8</ele><time>2016-08-28T09:48:52Z</time></trkpt>
<trkpt lat="46.18131" lon="7.27426"><ele>1135.2</ele><time>2016-08-28T09:48:54Z</time></trkpt>
<trkpt lat="46.18132" lon="7.27433"><ele>1135.4</ele><time>2016-08-28T09:48:56Z</time></trkpt>
<trkpt lat="46.18132" lon="7.2744"><ele>1135.8</ele><time>2016-08-28T09:48:58Z</time></trkpt>
<trkpt lat="46.18133" lon="7.27447"><ele>1136</ele><time>2016-08-28T09:49:00Z</time></trkpt>
<trkpt lat="46.18134" lon="7.27454"><ele>1136.4</ele><time>2016-08-28T09:49:02Z</time></trkpt>
<trkpt lat="46.18134" lon="7.27461"><ele>1136.6</ele><time>2016-08-28T09:49:04Z</time></trkpt>
<trkpt lat="46.18135" lon="7.27465"><ele>1136.8</ele><time>2016-08-28T09:49:05Z</time></trkpt>
<trkpt lat="46.18135" lon="7.27468"><ele>1136.8</ele><time>2016-08-28T09:49:06Z</time></trkpt>
<trkpt lat="46.18136" lon="7.27475"><ele>1137</ele><time>2016-08-28T09:49:08Z</time></trkpt>
<trkpt lat="46.18136" lon="7.27482"><ele>1137.4</ele><time>2016-08-28T09:49:10Z</time></trkpt>
<trkpt lat="46.18137" lon="7.27486"><ele>1137.4</ele><time>2016-08-28T09:49:11Z</time></trkpt>
<trkpt lat="46.18137" lon="7.27489"><ele>1137.4</ele><time>2016-08-28T09:49:12Z</time></trkpt>
<trkpt lat="46.18139" lon="7.27496"><ele>1137.6</ele><time>2016-08-28T09:49:14Z</time></trkpt>
<trkpt lat="46.18141" lon="7.27503"><ele>1137.8</ele><time>2016-08-28T09:49:16Z</time></trkpt>
<trkpt lat="46.18143" lon="7.2751"><ele>1138</ele><time>2016-08-28T09:49:18Z</time></trkpt>
<trkpt lat="46.18145" lon="7.27517"><ele>1138.2</ele><time>2016-08-28T09:49:20Z</time></trkpt>
<trkpt lat="46.18147" lon="7.27523"><ele>1138.2</ele><time>2016-08-28T09:49:22Z</time></trkpt>
<trkpt lat="46.18149" lon="7.2753"><ele>1138.4</ele><time>2016-08-28T09:49:24Z</time></trkpt>
<trkpt lat="46.1815" lon="7.27534"><ele>1138.6</ele><time>2016-08-28T09:49:25Z</time></trkpt>
<trkpt lat="46.18151" lon="7.27537"><ele>1138.6</ele><time>2016-08-28T09:49:26Z</time></trkpt>
<trkpt lat="46.18155" lon="7.27543"><ele>1138.8</ele><time>2016-08-28T09:49:28Z</time></trkpt>
<trkpt lat="46.18159" lon="7.27549"><ele>1138.8</ele><time>2016-08-28T09:49:30Z</time></trkpt>
<trkpt lat="46.18162" lon="7.27555"><ele>1139</ele><time>2016-08-28T09:49:32Z</time></trkpt>
<trkpt lat="46.18166" lon="7.27561"><ele>1139.2</ele><time>2016-08-28T09:49:34Z</time></trkpt>
<trkpt lat="46.18169" lon="7.27567"><ele>1139.4</ele><time>2016-08-28T09:49:36Z</time></trkpt>
<trkpt lat="46.18173" lon="7.27573"><ele>1139.6</ele><time>2016-08-28T09:49:38Z</time></trkpt>
<trkpt lat="46.18177" lon="7.27579"><ele>1139.6</ele><time>2016-08-28T09:49:40Z</time></trkpt>
<trkpt lat="46.1818" lon="7.27585"><ele>1139.8</ele><time>2016-08-28T09:49:42Z</time></trkpt>
<trkpt lat="46.18183" lon="7.27593"><ele>1140</ele><time>2016-08-28T09:49:44Z</time></trkpt>
<trkpt lat="46.18186" lon="7.27601"><ele>1140.2</ele><time>2016-08-28T09:49:46Z</time></trkpt>
<trkpt lat="46.18189" lon="7.2761"><ele>1140.2</ele><time>2016-08-28T09:49:48Z</time></trkpt>
<trkpt lat="46.1819" lon="7.27614"><ele>1140.4</ele><time>2016-08-28T09:49:49Z</time></trkpt>
<trkpt lat="46.18192" lon="7.27618"><ele>1140.4</ele><time>2016-08-28T09:49:50Z</time></trkpt>
<trkpt lat="46.18195" lon="7.27626"><ele>1140.6</ele><time>2016-08-28T09:49:52Z</time></trkpt>
<trkpt lat="46.18197" lon="7.27634"><ele>1140.8</ele><time>2016-08-28T09:49:54Z</time></trkpt>
<trkpt lat="46.182" lon="7.27643"><ele>1141</ele><time>2016-08-28T09:49:56Z</time></trkpt>
<trkpt lat="46.18202" lon="7.27647"><ele>1141.2</ele><time>2016-08-28T09:49:57Z</time></trkpt>
<trkpt lat="46.18203" lon="7.27651"><ele>1141.2</ele><time>2016-08-28T09:49:58Z</time></trkpt>
<trkpt lat="46.18207" lon="7.27658"><ele>1141.4</ele><time>2016-08-28T09:50:00Z</time></trkpt>
<trkpt lat="46.1821" lon="7.27666"><ele>1141.6</ele><time>2016-08-28T09:50:02Z</time></trkpt>
<trkpt lat="46.18213" lon="7.27673"><ele>1141.8</ele><time>2016-08-28T09:50:04Z</time></trkpt>
<trkpt lat="46.18217" lon="7.27681"><ele>1142</ele><time>2016-08-28T09:50:06Z</time></trkpt>
<trkpt lat="46.1822" lon="7.27688"><ele>1142.2</ele><time>2016-08-28T09:50:08Z</time></trkpt>
<trkpt lat="46.18223" lon="7.27695"><ele>1142.4</ele><time>2016-08-28T09:50:10Z</time></trkpt>
<trkpt lat="46.18226" lon="7.27703"><ele>1142.6</ele><time>2016-08-28T09:50:12Z</time></trkpt>
<trkpt lat="46.18228" lon="7.27707"><ele>1142.8</ele><time>2016-08-28T09:50:14Z</time></trkpt>
<trkpt lat="46.1823" lon="7.27712"><ele>1143</ele><time>2016-08-28T09:50:16Z</time></trkpt>
<trkpt lat="46.18231" lon="7.27716"><ele>1143.2</ele><time>2016-08-28T09:50:18Z</time></trkpt>
<trkpt lat="46.18233" lon="7.2772"><ele>1143.4</ele><time>2016-08-28T09:50:20Z</time></trkpt>
<trkpt lat="46.18234" lon="7.27725"><ele>1143.6</ele><time>2016-08-28T09:50:22Z</time></trkpt>
<trkpt lat="46.18235" lon="7.27727"><ele>1143.8</ele><time>2016-08-28T09:50:23Z</time></trkpt>
<trkpt lat="46.18236" lon="7.27729"><ele>1144</ele><time>2016-08-28T09:50:24Z</time></trkpt>
<trkpt lat="46.18237" lon="7.27733"><ele>1144.2</ele><time>2016-08-28T09:50:26Z</time></trkpt>
<trkpt lat="46.18239" lon="7.27738"><ele>1144.6</ele><time>2016-08-28T09:50:28Z</time></trkpt>
<trkpt lat="46.1824" lon="7.27742"><ele>1144.8</ele><time>2016-08-28T09:50:30Z</time></trkpt>
<trkpt lat="46.18242" lon="7.27746"><ele>1145.2</ele><time>2016-08-28T09:50:32Z</time></trkpt>
<trkpt lat="46.18243" lon="7.27751"><ele>1145.4</ele><time>2016-08-28T09:50:34Z</time></trkpt>
<trkpt lat="46.18245" lon="7.27755"><ele>1145.8</ele><time>2016-08-28T09:50:36Z</time></trkpt>
<trkpt lat="46.18246" lon="7.27759"><ele>1146</ele><time>2016-08-28T09:50:38Z</time></trkpt>
<trkpt lat="46.18247" lon="7.27761"><ele>1146.2</ele><time>2016-08-28T09:50:39Z</time></trkpt>
<trkpt lat="46.18248" lon="7.27763"><ele>1146.4</ele><time>2016-08-28T09:50:40Z</time></trkpt>
<trkpt lat="46.1825" lon="7.27766"><ele>1146.6</ele><time>2016-08-28T09:50:42Z</time></trkpt>
<trkpt lat="46.18252" lon="7.2777"><ele>1147</ele><time>2016-08-28T09:50:44Z</time></trkpt>
<trkpt lat="46.18254" lon="7.27773"><ele>1147.4</ele><time>2016-08-28T09:50:46Z</time></trkpt>
<trkpt lat="46.18255" lon="7.27776"><ele>1147.8</ele><time>2016-08-28T09:50:48Z</time></trkpt>
<trkpt lat="46.18257" lon="7.2778"><ele>1148.4</ele><time>2016-08-28T09:50:50Z</time></trkpt>
<trkpt lat="46.18259" lon="7.27783"><ele>1149</ele><time>2016-08-28T09:50:52Z</time></trkpt>
<trkpt lat="46.18261" lon="7.27786"><ele>1149.6</ele><time>2016-08-28T09:50:54Z</time></trkpt>
<trkpt lat="46.18262" lon="7.27788"><ele>1150</ele><time>2016-08-28T09:50:55Z</time></trkpt>
<trkpt lat="46.18262" lon="7.2779"><ele>1150.2</ele><time>2016-08-28T09:50:56Z</time></trkpt>
<trkpt lat="46.18262" lon="7.27792"><ele>1150.6</ele><time>2016-08-28T09:50:57Z</time></trkpt>
<trkpt lat="46.18262" lon="7.27794"><ele>1150.8</ele><time>2016-08-28T09:50:58Z</time></trkpt>
<trkpt lat="46.18263" lon="7.27799"><ele>1151.2</ele><time>2016-08-28T09:51:00Z</time></trkpt>
<trkpt lat="46.18263" lon="7.27803"><ele>1151.8</ele><time>2016-08-28T09:51:02Z</time></trkpt>
<trkpt lat="46.18263" lon="7.27805"><ele>1152</ele><time>2016-08-28T09:51:03Z</time></trkpt>
<trkpt lat="46.18263" lon="7.27807"><ele>1152.2</ele><time>2016-08-28T09:51:04Z</time></trkpt>
<trkpt lat="46.18263" lon="7.27811"><ele>1152.6</ele><time>2016-08-28T09:51:06Z</time></trkpt>
<trkpt lat="46.18263" lon="7.27816"><ele>1153</ele><time>2016-08-28T09:51:08Z</time></trkpt>
<trkpt lat="46.18263" lon="7.2782"><ele>1153.2</ele><time>2016-08-28T09:51:10Z</time></trkpt>
<trkpt lat="46.18264" lon="7.27824"><ele>1153.6</ele><time>2016-08-28T09:51:12Z</time></trkpt>
<trkpt lat="46.18264" lon="7.27828"><ele>1153.8</ele><time>2016-08-28T09:51:14Z</time></trkpt>
<trkpt lat="46.18264" lon="7.27833"><ele>1154</ele><time>2016-08-28T09:51:16Z</time></trkpt>
<trkpt lat="46.18264" lon="7.27837"><ele>1154.4</ele><time>2016-08-28T09:51:18Z</time></trkpt>
<trkpt lat="46.18264" lon="7.27841"><ele>1154.6</ele><time>2016-08-28T09:51:20Z</time></trkpt>
<trkpt lat="46.18264" lon="7.27845"><ele>1154.8</ele><time>2016-08-28T09:51:22Z</time></trkpt>
<trkpt lat="46.18264" lon="7.2785"><ele>1155.2</ele><time>2016-08-28T09:51:24Z</time></trkpt>
<trkpt lat="46.18265" lon="7.27854"><ele>1155.4</ele><time>2016-08-28T09:51:26Z</time></trkpt>
<trkpt lat="46.18266" lon="7.27857"><ele>1155.8</ele><time>2016-08-28T09:51:28Z</time></trkpt>
<trkpt lat="46.18268" lon="7.2786"><ele>1156</ele><time>2016-08-28T09:51:30Z</time></trkpt>
<trkpt lat="46.1827" lon="7.27863"><ele>1156.2</ele><time>2016-08-28T09:51:32Z</time></trkpt>
<trkpt lat="46.18272" lon="7.27866"><ele>1156.6</ele><time>2016-08-28T09:51:34Z</time></trkpt>
<trkpt lat="46.18274" lon="7.27869"><ele>1156.8</ele><time>2016-08-28T09:51:36Z</time></trkpt>
<trkpt lat="46.18276" lon="7.27873"><ele>1157.2</ele><time>2016-08-28T09:51:38Z</time></trkpt>
<trkpt lat="46.18278" lon="7.27876"><ele>1157.4</ele><time>2016-08-28T09:51:40Z</time></trkpt>
<trkpt lat="46.1828" lon="7.27879"><ele>1157.8</ele><time>2016-08-28T09:51:42Z</time></trkpt>
<trkpt lat="46.18282" lon="7.27882"><ele>1158</ele><time>2016-08-28T09:51:44Z</time></trkpt>
<trkpt lat="46.18284" lon="7.27885"><ele>1158.4</ele><time>2016-08-28T09:51:46Z</time></trkpt>
<trkpt lat="46.18285" lon="7.27886"><ele>1158.4</ele><time>2016-08-28T09:51:47Z</time></trkpt>
<trkpt lat="46.18286" lon="7.27888"><ele>1158.6</ele><time>2016-08-28T09:51:48Z</time></trkpt>
<trkpt lat="46.18288" lon="7.27891"><ele>1159</ele><time>2016-08-28T09:51:50Z</time></trkpt>
<trkpt lat="46.18289" lon="7.27894"><ele>1159.2</ele><time>2016-08-28T09:51:52Z</time></trkpt>
<trkpt lat="46.18291" lon="7.27897"><ele>1159.6</ele><time>2016-08-28T09:51:54Z</time></trkpt>
<trkpt lat="46.18293" lon="7.279"><ele>1159.8</ele><time>2016-08-28T09:51:56Z</time></trkpt>
<trkpt lat="46.18295" lon="7.27904"><ele>1160.2</ele><time>2016-08-28T09:51:58Z</time></trkpt>
<trkpt lat="46.18298" lon="7.27907"><ele>1160.4</ele><time>2016-08-28T09:52:00Z</time></trkpt>
<trkpt lat="46.183" lon="7.2791"><ele>1160.8</ele><time>2016-08-28T09:52:02Z</time></trkpt>
<trkpt lat="46.18303" lon="7.27914"><ele>1161</ele><time>2016-08-28T09:52:04Z</time></trkpt>
<trkpt lat="46.18305" lon="7.27917"><ele>1161.4</ele><time>2016-08-28T09:52:06Z</time></trkpt>
<trkpt lat="46.18308" lon="7.27921"><ele>1161.6</ele><time>2016-08-28T09:52:08Z</time></trkpt>
<trkpt lat="46.18309" lon="7.27922"><ele>1161.8</ele><time>2016-08-28T09:52:09Z</time></trkpt>
<trkpt lat="46.1831" lon="7.27924"><ele>1162</ele><time>2016-08-28T09:52:10Z</time></trkpt>
<trkpt lat="46.18313" lon="7.27928"><ele>1162.4</ele><time>2016-08-28T09:52:12Z</time></trkpt>
<trkpt lat="46.18315" lon="7.27931"><ele>1162.8</ele><time>2016-08-28T09:52:14Z</time></trkpt>
<trkpt lat="46.18318" lon="7.27935"><ele>1163</ele><time>2016-08-28T09:52:16Z</time></trkpt>
<trkpt lat="46.1832" lon="7.27938"><ele>1163.4</ele><time>2016-08-28T09:52:18Z</time></trkpt>
<trkpt lat="46.18323" lon="7.27941"><ele>1163.8</ele><time>2016-08-28T09:52:20Z</time></trkpt>
<trkpt lat="46.18325" lon="7.27945"><ele>1164</ele><time>2016-08-28T09:52:22Z</time></trkpt>
<trkpt lat="46.18328" lon="7.27948"><ele>1164.4</ele><time>2016-08-28T09:52:24Z</time></trkpt>
<trkpt lat="46.18329" lon="7.2795"><ele>1164.6</ele><time>2016-08-28T09:52:25Z</time></trkpt>
<trkpt lat="46.1833" lon="7.27952"><ele>1164.8</ele><time>2016-08-28T09:52:26Z</time></trkpt>
<trkpt lat="46.18332" lon="7.27956"><ele>1165.2</ele><time>2016-08-28T09:52:28Z</time></trkpt>
<trkpt lat="46.18333" lon="7.2796"><ele>1165.4</ele><time>2016-08-28T09:52:30Z</time></trkpt>
<trkpt lat="46.18335" lon="7.27964"><ele>1165.8</ele><time>2016-08-28T09:52:32Z</time></trkpt>
<trkpt lat="46.18336" lon="7.27968"><ele>1166</ele><time>2016-08-28T09:52:34Z</time></trkpt>
<trkpt lat="46.18338" lon="7.27972"><ele>1166.2</ele><time>2016-08-28T09:52:36Z</time></trkpt>
<trkpt lat="46.18339" lon="7.27976"><ele>1166.4</ele><time>2016-08-28T09:52:38Z</time></trkpt>
<trkpt lat="46.18341" lon="7.2798"><ele>1166.4</ele><time>2016-08-28T09:52:40Z</time></trkpt>
<trkpt lat="46.18342" lon="7.27984"><ele>1166.6</ele><time>2016-08-28T09:52:42Z</time></trkpt>
<trkpt lat="46.18344" lon="7.27988"><ele>1166.8</ele><time>2016-08-28T09:52:44Z</time></trkpt>
<trkpt lat="46.18346" lon="7.27992"><ele>1167</ele><time>2016-08-28T09:52:46Z</time></trkpt>
<trkpt lat="46.18347" lon="7.27996"><ele>1167.2</ele><time>2016-08-28T09:52:48Z</time></trkpt>
<trkpt lat="46.18349" lon="7.28"><ele>1167.4</ele><time>2016-08-28T09:52:50Z</time></trkpt>
<trkpt lat="46.1835" lon="7.28003"><ele>1167.6</ele><time>2016-08-28T09:52:52Z</time></trkpt>
<trkpt lat="46.18352" lon="7.28007"><ele>1167.6</ele><time>2016-08-28T09:52:54Z</time></trkpt>
<trkpt lat="46.18357" lon="7.28017"><ele>1167.2</ele><time>2016-08-28T09:52:56Z</time></trkpt>
<trkpt lat="46.18363" lon="7.28027"><ele>1166.8</ele><time>2016-08-28T09:52:58Z</time></trkpt>
<trkpt lat="46.18369" lon="7.28037"><ele>1166.4</ele><time>2016-08-28T09:53:00Z</time></trkpt>
<trkpt lat="46.18372" lon="7.28042"><ele>1166</ele><time>2016-08-28T09:53:01Z</time></trkpt>
<trkpt lat="46.18378" lon="7.28048"><ele>1165.8</ele><time>2016-08-28T09:53:02Z</time></trkpt>
<trkpt lat="46.1839" lon="7.28061"><ele>1165.4</ele><time>2016-08-28T09:53:04Z</time></trkpt>
<trkpt lat="46.18396" lon="7.28067"><ele>1165.2</ele><time>2016-08-28T09:53:05Z</time></trkpt>
<trkpt lat="46.18402" lon="7.28073"><ele>1164.8</ele><time>2016-08-28T09:53:06Z</time></trkpt>
<trkpt lat="46.18414" lon="7.28086"><ele>1163.8</ele><time>2016-08-28T09:53:08Z</time></trkpt>
<trkpt lat="46.18429" lon="7.28097"><ele>1162.8</ele><time>2016-08-28T09:53:10Z</time></trkpt>
<trkpt lat="46.18444" lon="7.28108"><ele>1161.8</ele><time>2016-08-28T09:53:12Z</time></trkpt>
<trkpt lat="46.18459" lon="7.2812"><ele>1160.8</ele><time>2016-08-28T09:53:14Z</time></trkpt>
<trkpt lat="46.18475" lon="7.28129"><ele>1160</ele><time>2016-08-28T09:53:16Z</time></trkpt>
<trkpt lat="46.18492" lon="7.28139"><ele>1159</ele><time>2016-08-28T09:53:18Z</time></trkpt>
<trkpt lat="46.18506" lon="7.28152"><ele>1158</ele><time>2016-08-28T09:53:20Z</time></trkpt>
<trkpt lat="46.18513" lon="7.28159"><ele>1158</ele><time>2016-08-28T09:53:21Z</time></trkpt>
<trkpt lat="46.18518" lon="7.28167"><ele>1158</ele><time>2016-08-28T09:53:22Z</time></trkpt>
<trkpt lat="46.18528" lon="7.28183"><ele>1157.8</ele><time>2016-08-28T09:53:24Z</time></trkpt>
<trkpt lat="46.18539" lon="7.28199"><ele>1157.8</ele><time>2016-08-28T09:53:26Z</time></trkpt>
<trkpt lat="46.18544" lon="7.28207"><ele>1157.6</ele><time>2016-08-28T09:53:27Z</time></trkpt>
<trkpt lat="46.18547" lon="7.28212"><ele>1157.6</ele><time>2016-08-28T09:53:28Z</time></trkpt>
<trkpt lat="46.18552" lon="7.28221"><ele>1157.6</ele><time>2016-08-28T09:53:30Z</time></trkpt>
<trkpt lat="46.18557" lon="7.2823"><ele>1157.4</ele><time>2016-08-28T09:53:32Z</time></trkpt>
<trkpt lat="46.18562" lon="7.28239"><ele>1157.4</ele><time>2016-08-28T09:53:34Z</time></trkpt>
<trkpt lat="46.18567" lon="7.28248"><ele>1157.2</ele><time>2016-08-28T09:53:36Z</time></trkpt>
<trkpt lat="46.18569" lon="7.28252"><ele>1157.2</ele><time>2016-08-28T09:53:37Z</time></trkpt>
<trkpt lat="46.18572" lon="7.28257"><ele>1157.2</ele><time>2016-08-28T09:53:38Z</time></trkpt>
<trkpt lat="46.18574" lon="7.28261"><ele>1157.2</ele><time>2016-08-28T09:53:39Z</time></trkpt>
<trkpt lat="46.18576" lon="7.28264"><ele>1157.2</ele><time>2016-08-28T09:53:40Z</time></trkpt>
<trkpt lat="46.1858" lon="7.2827"><ele>1157.4</ele><time>2016-08-28T09:53:42Z</time></trkpt>
<trkpt lat="46.18584" lon="7.28276"><ele>1157.4</ele><time>2016-08-28T09:53:44Z</time></trkpt>
<trkpt lat="46.18587" lon="7.28281"><ele>1157.4</ele><time>2016-08-28T09:53:46Z</time></trkpt>
<trkpt lat="46.18591" lon="7.28287"><ele>1157.6</ele><time>2016-08-28T09:53:48Z</time></trkpt>
<trkpt lat="46.18595" lon="7.28293"><ele>1157.6</ele><time>2016-08-28T09:53:50Z</time></trkpt>
<trkpt lat="46.18598" lon="7.28298"><ele>1157.6</ele><time>2016-08-28T09:53:52Z</time></trkpt>
<trkpt lat="46.18602" lon="7.28304"><ele>1157.6</ele><time>2016-08-28T09:53:54Z</time></trkpt>
<trkpt lat="46.18606" lon="7.2831"><ele>1157.8</ele><time>2016-08-28T09:53:56Z</time></trkpt>
<trkpt lat="46.18611" lon="7.28317"><ele>1157.8</ele><time>2016-08-28T09:53:58Z</time></trkpt>
<trkpt lat="46.18615" lon="7.28324"><ele>1157.8</ele><time>2016-08-28T09:54:00Z</time></trkpt>
<trkpt lat="46.1862" lon="7.28332"><ele>1157.8</ele><time>2016-08-28T09:54:02Z</time></trkpt>
<trkpt lat="46.18625" lon="7.28339"><ele>1158</ele><time>2016-08-28T09:54:04Z</time></trkpt>
<trkpt lat="46.1863" lon="7.28346"><ele>1158</ele><time>2016-08-28T09:54:06Z</time></trkpt>
<trkpt lat="46.18635" lon="7.28353"><ele>1158</ele><time>2016-08-28T09:54:08Z</time></trkpt>
<trkpt lat="46.18637" lon="7.28357"><ele>1158</ele><time>2016-08-28T09:54:09Z</time></trkpt>
<trkpt lat="46.18639" lon="7.28362"><ele>1158</ele><time>2016-08-28T09:54:10Z</time></trkpt>
<trkpt lat="46.18644" lon="7.28371"><ele>1158.2</ele><time>2016-08-28T09:54:12Z</time></trkpt>
<trkpt lat="46.18649" lon="7.2838"><ele>1158.2</ele><time>2016-08-28T09:54:14Z</time></trkpt>
<trkpt lat="46.18654" lon="7.28389"><ele>1158.2</ele><time>2016-08-28T09:54:16Z</time></trkpt>
<trkpt lat="46.18659" lon="7.28399"><ele>1158.2</ele><time>2016-08-28T09:54:18Z</time></trkpt>
<trkpt lat="46.18663" lon="7.28408"><ele>1158.4</ele><time>2016-08-28T09:54:20Z</time></trkpt>
<trkpt lat="46.18666" lon="7.28413"><ele>1158.4</ele><time>2016-08-28T09:54:21Z</time></trkpt>
<trkpt lat="46.18669" lon="7.28419"><ele>1158.4</ele><time>2016-08-28T09:54:22Z</time></trkpt>
<trkpt lat="46.18676" lon="7.28434"><ele>1158.4</ele><time>2016-08-28T09:54:24Z</time></trkpt>
<trkpt lat="46.18682" lon="7.28449"><ele>1158.6</ele><time>2016-08-28T09:54:26Z</time></trkpt>
<trkpt lat="46.18689" lon="7.28463"><ele>1158.6</ele><time>2016-08-28T09:54:28Z</time></trkpt>
<trkpt lat="46.18692" lon="7.2847"><ele>1158.6</ele><time>2016-08-28T09:54:29Z</time></trkpt>
<trkpt lat="46.18696" lon="7.28478"><ele>1158.6</ele><time>2016-08-28T09:54:30Z</time></trkpt>
<trkpt lat="46.18703" lon="7.28494"><ele>1158.6</ele><time>2016-08-28T09:54:32Z</time></trkpt>
<trkpt lat="46.1871" lon="7.2851"><ele>1158.8</ele><time>2016-08-28T09:54:34Z</time></trkpt>
<trkpt lat="46.18718" lon="7.28525"><ele>1158.8</ele><time>2016-08-28T09:54:36Z</time></trkpt>
<trkpt lat="46.18726" lon="7.28541"><ele>1158.8</ele><time>2016-08-28T09:54:38Z</time></trkpt>
<trkpt lat="46.18734" lon="7.28556"><ele>1158.8</ele><time>2016-08-28T09:54:40Z</time></trkpt>
<trkpt lat="46.18738" lon="7.28564"><ele>1159</ele><time>2016-08-28T09:54:41Z</time></trkpt>
<trkpt lat="46.18744" lon="7.2857"><ele>1159</ele><time>2016-08-28T09:54:42Z</time></trkpt>
<trkpt lat="46.18755" lon="7.2858"><ele>1159</ele><time>2016-08-28T09:54:44Z</time></trkpt>
<trkpt lat="46.18766" lon="7.28591"><ele>1159</ele><time>2016-08-28T09:54:46Z</time></trkpt>
<trkpt lat="46.18777" lon="7.28602"><ele>1159</ele><time>2016-08-28T09:54:48Z</time></trkpt>
<trkpt lat="46.18787" lon="7.28615"><ele>1159.2</ele><time>2016-08-28T09:54:50Z</time></trkpt>
<trkpt lat="46.18797" lon="7.28627"><ele>1159.2</ele><time>2016-08-28T09:54:52Z</time></trkpt>
<trkpt lat="46.18805" lon="7.28647"><ele>1159.2</ele><time>2016-08-28T09:54:54Z</time></trkpt>
<trkpt lat="46.18808" lon="7.28657"><ele>1159.2</ele><time>2016-08-28T09:54:55Z</time></trkpt>
<trkpt lat="46.18813" lon="7.28665"><ele>1159.4</ele><time>2016-08-28T09:54:56Z</time></trkpt>
<trkpt lat="46.18823" lon="7.28681"><ele>1159.4</ele><time>2016-08-28T09:54:58Z</time></trkpt>
<trkpt lat="46.18833" lon="7.28696"><ele>1159.4</ele><time>2016-08-28T09:55:00Z</time></trkpt>
<trkpt lat="46.1884" lon="7.2871"><ele>1159.4</ele><time>2016-08-28T09:55:02Z</time></trkpt>
<trkpt lat="46.18846" lon="7.28724"><ele>1159.6</ele><time>2016-08-28T09:55:04Z</time></trkpt>
<trkpt lat="46.18851" lon="7.28729"><ele>1159.6</ele><time>2016-08-28T09:55:05Z</time></trkpt>
<trkpt lat="46.18851" lon="7.28735"><ele>1159.6</ele><time>2016-08-28T09:55:06Z</time></trkpt>
<trkpt lat="46.18857" lon="7.28745"><ele>1159.6</ele><time>2016-08-28T09:55:08Z</time></trkpt>
<trkpt lat="46.18861" lon="7.28749"><ele>1159.6</ele><time>2016-08-28T09:55:09Z</time></trkpt>
<trkpt lat="46.18863" lon="7.28755"><ele>1159.6</ele><time>2016-08-28T09:55:10Z</time></trkpt>
<trkpt lat="46.18862" lon="7.2876"><ele>1159.8</ele><time>2016-08-28T09:55:12Z</time></trkpt>
<trkpt lat="46.18861" lon="7.28763"><ele>1159.8</ele><time>2016-08-28T09:55:13Z</time></trkpt>
<trkpt lat="46.18861" lon="7.28765"><ele>1160</ele><time>2016-08-28T09:55:14Z</time></trkpt>
<trkpt lat="46.18859" lon="7.2877"><ele>1160.4</ele><time>2016-08-28T09:55:16Z</time></trkpt>
<trkpt lat="46.18858" lon="7.28775"><ele>1160.8</ele><time>2016-08-28T09:55:18Z</time></trkpt>
<trkpt lat="46.18857" lon="7.2878"><ele>1161.2</ele><time>2016-08-28T09:55:20Z</time></trkpt>
<trkpt lat="46.18855" lon="7.28786"><ele>1161.4</ele><time>2016-08-28T09:55:22Z</time></trkpt>
<trkpt lat="46.18854" lon="7.28791"><ele>1161.6</ele><time>2016-08-28T09:55:24Z</time></trkpt>
<trkpt lat="46.18853" lon="7.28796"><ele>1161.8</ele><time>2016-08-28T09:55:26Z</time></trkpt>
<trkpt lat="46.18851" lon="7.28801"><ele>1162.2</ele><time>2016-08-28T09:55:28Z</time></trkpt>
<trkpt lat="46.1885" lon="7.28806"><ele>1162.4</ele><time>2016-08-28T09:55:30Z</time></trkpt>
<trkpt lat="46.18849" lon="7.28811"><ele>1162.6</ele><time>2016-08-28T09:55:32Z</time></trkpt>
<trkpt lat="46.18848" lon="7.28816"><ele>1163</ele><time>2016-08-28T09:55:34Z</time></trkpt>
<trkpt lat="46.18847" lon="7.28821"><ele>1163.4</ele><time>2016-08-28T09:55:36Z</time></trkpt>
<trkpt lat="46.18847" lon="7.28825"><ele>1163.6</ele><time>2016-08-28T09:55:38Z</time></trkpt>
<trkpt lat="46.18847" lon="7.2883"><ele>1164</ele><time>2016-08-28T09:55:40Z</time></trkpt>
<trkpt lat="46.18847" lon="7.28834"><ele>1164.2</ele><time>2016-08-28T09:55:42Z</time></trkpt>
<trkpt lat="46.18847" lon="7.28839"><ele>1164.8</ele><time>2016-08-28T09:55:44Z</time></trkpt>
<trkpt lat="46.18847" lon="7.28844"><ele>1165.4</ele><time>2016-08-28T09:55:46Z</time></trkpt>
<trkpt lat="46.18847" lon="7.28848"><ele>1166</ele><time>2016-08-28T09:55:48Z</time></trkpt>
<trkpt lat="46.18847" lon="7.28853"><ele>1166.6</ele><time>2016-08-28T09:55:50Z</time></trkpt>
<trkpt lat="46.18847" lon="7.28857"><ele>1167</ele><time>2016-08-28T09:55:52Z</time></trkpt>
<trkpt lat="46.18846" lon="7.2886"><ele>1167.4</ele><time>2016-08-28T09:55:53Z</time></trkpt>
<trkpt lat="46.18846" lon="7.28862"><ele>1167.4</ele><time>2016-08-28T09:55:54Z</time></trkpt>
<trkpt lat="46.18846" lon="7.28867"><ele>1167.6</ele><time>2016-08-28T09:55:56Z</time></trkpt>
<trkpt lat="46.18846" lon="7.28871"><ele>1167.8</ele><time>2016-08-28T09:55:58Z</time></trkpt>
<trkpt lat="46.18846" lon="7.28876"><ele>1168</ele><time>2016-08-28T09:56:00Z</time></trkpt>
<trkpt lat="46.18846" lon="7.2888"><ele>1168.2</ele><time>2016-08-28T09:56:02Z</time></trkpt>
<trkpt lat="46.18846" lon="7.28883"><ele>1168.2</ele><time>2016-08-28T09:56:03Z</time></trkpt>
<trkpt lat="46.18847" lon="7.28886"><ele>1168.2</ele><time>2016-08-28T09:56:04Z</time></trkpt>
<trkpt lat="46.18849" lon="7.28892"><ele>1168.4</ele><time>2016-08-28T09:56:06Z</time></trkpt>
<trkpt lat="46.18851" lon="7.28898"><ele>1168.6</ele><time>2016-08-28T09:56:08Z</time></trkpt>
<trkpt lat="46.18853" lon="7.28904"><ele>1168.8</ele><time>2016-08-28T09:56:10Z</time></trkpt>
<trkpt lat="46.18855" lon="7.2891"><ele>1168.8</ele><time>2016-08-28T09:56:12Z</time></trkpt>
<trkpt lat="46.18857" lon="7.28916"><ele>1169</ele><time>2016-08-28T09:56:14Z</time></trkpt>
<trkpt lat="46.18859" lon="7.28922"><ele>1169.2</ele><time>2016-08-28T09:56:16Z</time></trkpt>
<trkpt lat="46.18861" lon="7.28928"><ele>1169.4</ele><time>2016-08-28T09:56:18Z</time></trkpt>
<trkpt lat="46.18863" lon="7.28934"><ele>1169.6</ele><time>2016-08-28T09:56:20Z</time></trkpt>
<trkpt lat="46.18865" lon="7.28938"><ele>1170</ele><time>2016-08-28T09:56:22Z</time></trkpt>
<trkpt lat="46.18867" lon="7.28942"><ele>1170.2</ele><time>2016-08-28T09:56:24Z</time></trkpt>
<trkpt lat="46.18868" lon="7.28945"><ele>1170.4</ele><time>2016-08-28T09:56:26Z</time></trkpt>
<trkpt lat="46.1887" lon="7.28949"><ele>1170.6</ele><time>2016-08-28T09:56:28Z</time></trkpt>
<trkpt lat="46.18872" lon="7.28952"><ele>1170.8</ele><time>2016-08-28T09:56:30Z</time></trkpt>
<trkpt lat="46.18874" lon="7.28956"><ele>1171</ele><time>2016-08-28T09:56:32Z</time></trkpt>
<trkpt lat="46.18875" lon="7.2896"><ele>1171.2</ele><time>2016-08-28T09:56:34Z</time></trkpt>
<trkpt lat="46.18877" lon="7.28963"><ele>1171.4</ele><time>2016-08-28T09:56:36Z</time></trkpt>
<trkpt lat="46.18879" lon="7.28967"><ele>1171.6</ele><time>2016-08-28T09:56:38Z</time></trkpt>
<trkpt lat="46.18881" lon="7.2897"><ele>1171.8</ele><time>2016-08-28T09:56:40Z</time></trkpt>
<trkpt lat="46.18882" lon="7.28974"><ele>1172</ele><time>2016-08-28T09:56:42Z</time></trkpt>
<trkpt lat="46.18884" lon="7.28978"><ele>1172.4</ele><time>2016-08-28T09:56:44Z</time></trkpt>
<trkpt lat="46.18886" lon="7.28981"><ele>1172.8</ele><time>2016-08-28T09:56:46Z</time></trkpt>
<trkpt lat="46.18887" lon="7.28983"><ele>1173</ele><time>2016-08-28T09:56:47Z</time></trkpt>
<trkpt lat="46.18886" lon="7.28984"><ele>1173.4</ele><time>2016-08-28T09:56:48Z</time></trkpt>
<trkpt lat="46.18885" lon="7.28987"><ele>1173.8</ele><time>2016-08-28T09:56:50Z</time></trkpt>
<trkpt lat="46.18884" lon="7.2899"><ele>1174.2</ele><time>2016-08-28T09:56:52Z</time></trkpt>
<trkpt lat="46.18883" lon="7.28993"><ele>1174.6</ele><time>2016-08-28T09:56:54Z</time></trkpt>
<trkpt lat="46.18881" lon="7.28996"><ele>1175</ele><time>2016-08-28T09:56:56Z</time></trkpt>
<trkpt lat="46.1888" lon="7.28999"><ele>1175.4</ele><time>2016-08-28T09:56:58Z</time></trkpt>
<trkpt lat="46.18879" lon="7.29001"><ele>1175.8</ele><time>2016-08-28T09:57:00Z</time></trkpt>
<trkpt lat="46.18877" lon="7.29004"><ele>1176.2</ele><time>2016-08-28T09:57:02Z</time></trkpt>
<trkpt lat="46.18876" lon="7.29007"><ele>1176.8</ele><time>2016-08-28T09:57:04Z</time></trkpt>
<trkpt lat="46.18875" lon="7.2901"><ele>1177.2</ele><time>2016-08-28T09:57:06Z</time></trkpt>
<trkpt lat="46.18874" lon="7.29013"><ele>1177.6</ele><time>2016-08-28T09:57:08Z</time></trkpt>
<trkpt lat="46.18872" lon="7.29016"><ele>1178</ele><time>2016-08-28T09:57:10Z</time></trkpt>
<trkpt lat="46.18871" lon="7.29018"><ele>1178.4</ele><time>2016-08-28T09:57:12Z</time></trkpt>
<trkpt lat="46.1887" lon="7.29021"><ele>1179</ele><time>2016-08-28T09:57:14Z</time></trkpt>
<trkpt lat="46.18868" lon="7.29024"><ele>1179.4</ele><time>2016-08-28T09:57:16Z</time></trkpt>
<trkpt lat="46.18867" lon="7.29027"><ele>1179.8</ele><time>2016-08-28T09:57:18Z</time></trkpt>
<trkpt lat="46.18866" lon="7.2903"><ele>1180.2</ele><time>2016-08-28T09:57:20Z</time></trkpt>
<trkpt lat="46.18865" lon="7.29033"><ele>1180.8</ele><time>2016-08-28T09:57:22Z</time></trkpt>
<trkpt lat="46.18863" lon="7.29035"><ele>1181.2</ele><time>2016-08-28T09:57:24Z</time></trkpt>
<trkpt lat="46.18862" lon="7.29038"><ele>1181.6</ele><time>2016-08-28T09:57:26Z</time></trkpt>
<trkpt lat="46.1886" lon="7.29041"><ele>1182</ele><time>2016-08-28T09:57:28Z</time></trkpt>
<trkpt lat="46.18859" lon="7.29044"><ele>1182.6</ele><time>2016-08-28T09:57:30Z</time></trkpt>
<trkpt lat="46.18857" lon="7.29046"><ele>1183</ele><time>2016-08-28T09:57:32Z</time></trkpt>
<trkpt lat="46.18856" lon="7.29049"><ele>1183.4</ele><time>2016-08-28T09:57:34Z</time></trkpt>
<trkpt lat="46.18854" lon="7.29052"><ele>1183.8</ele><time>2016-08-28T09:57:36Z</time></trkpt>
<trkpt lat="46.18853" lon="7.29055"><ele>1184.2</ele><time>2016-08-28T09:57:38Z</time></trkpt>
<trkpt lat="46.18851" lon="7.29057"><ele>1184.6</ele><time>2016-08-28T09:57:40Z</time></trkpt>
<trkpt lat="46.1885" lon="7.2906"><ele>1185</ele><time>2016-08-28T09:57:42Z</time></trkpt>
<trkpt lat="46.18848" lon="7.29063"><ele>1185.4</ele><time>2016-08-28T09:57:44Z</time></trkpt>
<trkpt lat="46.18847" lon="7.29065"><ele>1185.8</ele><time>2016-08-28T09:57:46Z</time></trkpt>
<trkpt lat="46.18845" lon="7.29068"><ele>1186.2</ele><time>2016-08-28T09:57:48Z</time></trkpt>
<trkpt lat="46.18845" lon="7.29069"><ele>1186.4</ele><time>2016-08-28T09:57:49Z</time></trkpt>
<trkpt lat="46.18844" lon="7.29071"><ele>1186.6</ele><time>2016-08-28T09:57:50Z</time></trkpt>
<trkpt lat="46.18842" lon="7.29073"><ele>1187</ele><time>2016-08-28T09:57:52Z</time></trkpt>
<trkpt lat="46.18841" lon="7.29076"><ele>1187.2</ele><time>2016-08-28T09:57:54Z</time></trkpt>
<trkpt lat="46.18839" lon="7.29079"><ele>1187.6</ele><time>2016-08-28T09:57:56Z</time></trkpt>
<trkpt lat="46.18838" lon="7.29082"><ele>1187.8</ele><time>2016-08-28T09:57:58Z</time></trkpt>
<trkpt lat="46.18836" lon="7.29084"><ele>1188</ele><time>2016-08-28T09:58:00Z</time></trkpt>
<trkpt lat="46.18835" lon="7.29087"><ele>1188.4</ele><time>2016-08-28T09:58:02Z</time></trkpt>
<trkpt lat="46.18833" lon="7.2909"><ele>1188.6</ele><time>2016-08-28T09:58:04Z</time></trkpt>
<trkpt lat="46.18834" lon="7.29095"><ele>1189</ele><time>2016-08-28T09:58:06Z</time></trkpt>
<trkpt lat="46.18834" lon="7.291"><ele>1189.2</ele><time>2016-08-28T09:58:08Z</time></trkpt>
<trkpt lat="46.18834" lon="7.29106"><ele>1189.6</ele><time>2016-08-28T09:58:10Z</time></trkpt>
<trkpt lat="46.18834" lon="7.29108"><ele>1189.6</ele><time>2016-08-28T09:58:11Z</time></trkpt>
<trkpt lat="46.18834" lon="7.29111"><ele>1189.8</ele><time>2016-08-28T09:58:12Z</time></trkpt>
<trkpt lat="46.18834" lon="7.29117"><ele>1190</ele><time>2016-08-28T09:58:14Z</time></trkpt>
<trkpt lat="46.18835" lon="7.29122"><ele>1190.2</ele><time>2016-08-28T09:58:16Z</time></trkpt>
<trkpt lat="46.18835" lon="7.29125"><ele>1190.2</ele><time>2016-08-28T09:58:17Z</time></trkpt>
<trkpt lat="46.18835" lon="7.29128"><ele>1190.4</ele><time>2016-08-28T09:58:18Z</time></trkpt>
<trkpt lat="46.18835" lon="7.29133"><ele>1190.6</ele><time>2016-08-28T09:58:20Z</time></trkpt>
<trkpt lat="46.18835" lon="7.29138"><ele>1190.8</ele><time>2016-08-28T09:58:22Z</time></trkpt>
<trkpt lat="46.18836" lon="7.29144"><ele>1190.8</ele><time>2016-08-28T09:58:24Z</time></trkpt>
<trkpt lat="46.18836" lon="7.29149"><ele>1191</ele><time>2016-08-28T09:58:26Z</time></trkpt>
<trkpt lat="46.18836" lon="7.29155"><ele>1191.2</ele><time>2016-08-28T09:58:28Z</time></trkpt>
<trkpt lat="46.18836" lon="7.2916"><ele>1191.4</ele><time>2016-08-28T09:58:30Z</time></trkpt>
<trkpt lat="46.18839" lon="7.29165"><ele>1191.6</ele><time>2016-08-28T09:58:32Z</time></trkpt>
<trkpt lat="46.18841" lon="7.2917"><ele>1191.8</ele><time>2016-08-28T09:58:34Z</time></trkpt>
<trkpt lat="46.18843" lon="7.29175"><ele>1192</ele><time>2016-08-28T09:58:36Z</time></trkpt>
<trkpt lat="46.18846" lon="7.2918"><ele>1192</ele><time>2016-08-28T09:58:38Z</time></trkpt>
<trkpt lat="46.18848" lon="7.29185"><ele>1192.2</ele><time>2016-08-28T09:58:40Z</time></trkpt>
<trkpt lat="46.18851" lon="7.2919"><ele>1192.4</ele><time>2016-08-28T09:58:42Z</time></trkpt>
<trkpt lat="46.18853" lon="7.29195"><ele>1192.6</ele><time>2016-08-28T09:58:44Z</time></trkpt>
<trkpt lat="46.18856" lon="7.292"><ele>1192.8</ele><time>2016-08-28T09:58:46Z</time></trkpt>
<trkpt lat="46.18858" lon="7.29205"><ele>1193</ele><time>2016-08-28T09:58:48Z</time></trkpt>
<trkpt lat="46.18859" lon="7.29208"><ele>1193</ele><time>2016-08-28T09:58:49Z</time></trkpt>
<trkpt lat="46.18859" lon="7.2921"><ele>1193.2</ele><time>2016-08-28T09:58:50Z</time></trkpt>
<trkpt lat="46.18859" lon="7.29215"><ele>1193.2</ele><time>2016-08-28T09:58:52Z</time></trkpt>
<trkpt lat="46.1886" lon="7.2922"><ele>1193.4</ele><time>2016-08-28T09:58:54Z</time></trkpt>
<trkpt lat="46.1886" lon="7.29225"><ele>1193.6</ele><time>2016-08-28T09:58:56Z</time></trkpt>
<trkpt lat="46.1886" lon="7.2923"><ele>1193.8</ele><time>2016-08-28T09:58:58Z</time></trkpt>
<trkpt lat="46.1886" lon="7.29235"><ele>1194</ele><time>2016-08-28T09:59:00Z</time></trkpt>
<trkpt lat="46.1886" lon="7.2924"><ele>1194.6</ele><time>2016-08-28T09:59:02Z</time></trkpt>
<trkpt lat="46.1886" lon="7.29245"><ele>1195</ele><time>2016-08-28T09:59:04Z</time></trkpt>
<trkpt lat="46.1886" lon="7.29247"><ele>1195.4</ele><time>2016-08-28T09:59:05Z</time></trkpt>
<trkpt lat="46.1886" lon="7.2925"><ele>1195.6</ele><time>2016-08-28T09:59:06Z</time></trkpt>
<trkpt lat="46.18861" lon="7.29255"><ele>1196.2</ele><time>2016-08-28T09:59:08Z</time></trkpt>
<trkpt lat="46.18861" lon="7.29257"><ele>1196.4</ele><time>2016-08-28T09:59:09Z</time></trkpt>
<trkpt lat="46.18861" lon="7.29259"><ele>1196.6</ele><time>2016-08-28T09:59:10Z</time></trkpt>
<trkpt lat="46.18862" lon="7.29264"><ele>1197.2</ele><time>2016-08-28T09:59:12Z</time></trkpt>
<trkpt lat="46.18862" lon="7.29268"><ele>1197.6</ele><time>2016-08-28T09:59:14Z</time></trkpt>
<trkpt lat="46.18863" lon="7.29272"><ele>1198.2</ele><time>2016-08-28T09:59:16Z</time></trkpt>
<trkpt lat="46.18864" lon="7.29276"><ele>1198.6</ele><time>2016-08-28T09:59:18Z</time></trkpt>
<trkpt lat="46.18865" lon="7.2928"><ele>1199.2</ele><time>2016-08-28T09:59:20Z</time></trkpt>
<trkpt lat="46.18866" lon="7.29284"><ele>1199.6</ele><time>2016-08-28T09:59:22Z</time></trkpt>
<trkpt lat="46.18866" lon="7.29289"><ele>1200</ele><time>2016-08-28T09:59:24Z</time></trkpt>
<trkpt lat="46.18867" lon="7.29293"><ele>1200.4</ele><time>2016-08-28T09:59:26Z</time></trkpt>
<trkpt lat="46.18868" lon="7.29297"><ele>1200.8</ele><time>2016-08-28T09:59:28Z</time></trkpt>
<trkpt lat="46.18869" lon="7.29301"><ele>1201.2</ele><time>2016-08-28T09:59:30Z</time></trkpt>
<trkpt lat="46.18869" lon="7.29305"><ele>1201.6</ele><time>2016-08-28T09:59:32Z</time></trkpt>
<trkpt lat="46.1887" lon="7.29309"><ele>1202</ele><time>2016-08-28T09:59:34Z</time></trkpt>
<trkpt lat="46.18871" lon="7.29314"><ele>1202.4</ele><time>2016-08-28T09:59:36Z</time></trkpt>
<trkpt lat="46.18872" lon="7.29318"><ele>1202.8</ele><time>2016-08-28T09:59:38Z</time></trkpt>
<trkpt lat="46.18872" lon="7.29322"><ele>1203.2</ele><time>2016-08-28T09:59:40Z</time></trkpt>
<trkpt lat="46.18873" lon="7.29325"><ele>1203.8</ele><time>2016-08-28T09:59:42Z</time></trkpt>
<trkpt lat="46.18874" lon="7.29329"><ele>1204.2</ele><time>2016-08-28T09:59:44Z</time></trkpt>
<trkpt lat="46.18875" lon="7.29333"><ele>1204.6</ele><time>2016-08-28T09:59:46Z</time></trkpt>
<trkpt lat="46.18876" lon="7.29336"><ele>1205</ele><time>2016-08-28T09:59:48Z</time></trkpt>
<trkpt lat="46.18877" lon="7.2934"><ele>1205.4</ele><time>2016-08-28T09:59:50Z</time></trkpt>
<trkpt lat="46.18878" lon="7.29343"><ele>1205.8</ele><time>2016-08-28T09:59:52Z</time></trkpt>
<trkpt lat="46.18879" lon="7.29347"><ele>1206.2</ele><time>2016-08-28T09:59:54Z</time></trkpt>
<trkpt lat="46.1888" lon="7.2935"><ele>1206.6</ele><time>2016-08-28T09:59:56Z</time></trkpt>
<trkpt lat="46.18881" lon="7.29354"><ele>1207</ele><time>2016-08-28T09:59:58Z</time></trkpt>
<trkpt lat="46.18882" lon="7.29357"><ele>1207.4</ele><time>2016-08-28T10:00:00Z</time></trkpt>
<trkpt lat="46.18883" lon="7.29361"><ele>1207.8</ele><time>2016-08-28T10:00:02Z</time></trkpt>
<trkpt lat="46.18884" lon="7.29364"><ele>1208.2</ele><time>2016-08-28T10:00:04Z</time></trkpt>
<trkpt lat="46.18885" lon="7.29368"><ele>1208.6</ele><time>2016-08-28T10:00:06Z</time></trkpt>
<trkpt lat="46.18886" lon="7.29371"><ele>1209</ele><time>2016-08-28T10:00:08Z</time></trkpt>
<trkpt lat="46.18887" lon="7.29375"><ele>1209.2</ele><time>2016-08-28T10:00:10Z</time></trkpt>
<trkpt lat="46.18887" lon="7.29378"><ele>1209.6</ele><time>2016-08-28T10:00:12Z</time></trkpt>
<trkpt lat="46.18888" lon="7.2938"><ele>1209.8</ele><time>2016-08-28T10:00:13Z</time></trkpt>
<trkpt lat="46.18888" lon="7.29382"><ele>1210</ele><time>2016-08-28T10:00:14Z</time></trkpt>
<trkpt lat="46.18889" lon="7.29384"><ele>1210.2</ele><time>2016-08-28T10:00:15Z</time></trkpt>
<trkpt lat="46.18889" lon="7.29385"><ele>1210.4</ele><time>2016-08-28T10:00:16Z</time></trkpt>
<trkpt lat="46.18889" lon="7.29389"><ele>1210.8</ele><time>2016-08-28T10:00:18Z</time></trkpt>
<trkpt lat="46.18889" lon="7.29392"><ele>1211.2</ele><time>2016-08-28T10:00:20Z</time></trkpt>
<trkpt lat="46.18889" lon="7.29396"><ele>1211.6</ele><time>2016-08-28T10:00:22Z</time></trkpt>
<trkpt lat="46.18889" lon="7.29399"><ele>1211.8</ele><time>2016-08-28T10:00:24Z</time></trkpt>
<trkpt lat="46.18889" lon="7.29402"><ele>1212.2</ele><time>2016-08-28T10:00:26Z</time></trkpt>
<trkpt lat="46.18889" lon="7.29406"><ele>1212.6</ele><time>2016-08-28T10:00:28Z</time></trkpt>
<trkpt lat="46.18889" lon="7.29409"><ele>1213</ele><time>2016-08-28T10:00:30Z</time></trkpt>
<trkpt lat="46.18889" lon="7.29413"><ele>1213.4</ele><time>2016-08-28T10:00:32Z</time></trkpt>
<trkpt lat="46.18889" lon="7.29416"><ele>1213.8</ele><time>2016-08-28T10:00:34Z</time></trkpt>
<trkpt lat="46.18889" lon="7.2942"><ele>1214.2</ele><time>2016-08-28T10:00:36Z</time></trkpt>
<trkpt lat="46.18888" lon="7.29423"><ele>1214.6</ele><time>2016-08-28T10:00:38Z</time></trkpt>
<trkpt lat="46.18888" lon="7.29426"><ele>1215</ele><time>2016-08-28T10:00:40Z</time></trkpt>
<trkpt lat="46.18888" lon="7.2943"><ele>1215.4</ele><time>2016-08-28T10:00:42Z</time></trkpt>
<trkpt lat="46.18888" lon="7.29433"><ele>1215.8</ele><time>2016-08-28T10:00:44Z</time></trkpt>
<trkpt lat="46.18888" lon="7.29437"><ele>1216.2</ele><time>2016-08-28T10:00:46Z</time></trkpt>
<trkpt lat="46.18888" lon="7.29438"><ele>1216.4</ele><time>2016-08-28T10:00:47Z</time></trkpt>
<trkpt lat="46.18888" lon="7.2944"><ele>1216.6</ele><time>2016-08-28T10:00:48Z</time></trkpt>
<trkpt lat="46.18888" lon="7.29444"><ele>1217</ele><time>2016-08-28T10:00:50Z</time></trkpt>
<trkpt lat="46.18888" lon="7.29447"><ele>1217.4</ele><time>2016-08-28T10:00:52Z</time></trkpt>
<trkpt lat="46.18888" lon="7.29449"><ele>1217.6</ele><time>2016-08-28T10:00:53Z</time></trkpt>
<trkpt lat="46.18888" lon="7.2945"><ele>1217.8</ele><time>2016-08-28T10:00:54Z</time></trkpt>
<trkpt lat="46.18888" lon="7.29454"><ele>1218.4</ele><time>2016-08-28T10:00:56Z</time></trkpt>
<trkpt lat="46.18888" lon="7.29457"><ele>1218.8</ele><time>2016-08-28T10:00:58Z</time></trkpt>
<trkpt lat="46.18888" lon="7.2946"><ele>1219.2</ele><time>2016-08-28T10:01:00Z</time></trkpt>
<trkpt lat="46.18888" lon="7.29464"><ele>1219.6</ele><time>2016-08-28T10:01:02Z</time></trkpt>
<trkpt lat="46.18888" lon="7.29467"><ele>1219.8</ele><time>2016-08-28T10:01:04Z</time></trkpt>
<trkpt lat="46.18888" lon="7.2947"><ele>1220</ele><time>2016-08-28T10:01:06Z</time></trkpt>
<trkpt lat="46.18887" lon="7.29467"><ele>1220.2</ele><time>2016-08-28T10:01:08Z</time></trkpt>
<trkpt lat="46.18885" lon="7.29464"><ele>1220.4</ele><time>2016-08-28T10:01:10Z</time></trkpt>
<trkpt lat="46.18883" lon="7.29461"><ele>1220.6</ele><time>2016-08-28T10:01:12Z</time></trkpt>
<trkpt lat="46.18882" lon="7.29457"><ele>1220.8</ele><time>2016-08-28T10:01:14Z</time></trkpt>
<trkpt lat="46.1888" lon="7.29454"><ele>1221</ele><time>2016-08-28T10:01:16Z</time></trkpt>
<trkpt lat="46.18879" lon="7.2945"><ele>1221</ele><time>2016-08-28T10:01:18Z</time></trkpt>
<trkpt lat="46.18877" lon="7.29447"><ele>1221.2</ele><time>2016-08-28T10:01:20Z</time></trkpt>
<trkpt lat="46.18875" lon="7.29444"><ele>1221.4</ele><time>2016-08-28T10:01:22Z</time></trkpt>
<trkpt lat="46.18874" lon="7.2944"><ele>1221.6</ele><time>2016-08-28T10:01:24Z</time></trkpt>
<trkpt lat="46.18872" lon="7.29437"><ele>1221.8</ele><time>2016-08-28T10:01:26Z</time></trkpt>
<trkpt lat="46.1887" lon="7.29433"><ele>1222.2</ele><time>2016-08-28T10:01:28Z</time></trkpt>
<trkpt lat="46.18869" lon="7.2943"><ele>1222.4</ele><time>2016-08-28T10:01:30Z</time></trkpt>
<trkpt lat="46.18867" lon="7.29427"><ele>1222.8</ele><time>2016-08-28T10:01:32Z</time></trkpt>
<trkpt lat="46.18866" lon="7.29423"><ele>1223</ele><time>2016-08-28T10:01:34Z</time></trkpt>
<trkpt lat="46.18864" lon="7.2942"><ele>1223.4</ele><time>2016-08-28T10:01:36Z</time></trkpt>
<trkpt lat="46.18862" lon="7.29416"><ele>1223.6</ele><time>2016-08-28T10:01:38Z</time></trkpt>
<trkpt lat="46.18862" lon="7.29415"><ele>1224</ele><time>2016-08-28T10:01:40Z</time></trkpt>
<trkpt lat="46.18862" lon="7.29415"><ele>1224.2</ele><time>2016-08-28T10:01:42Z</time></trkpt>
<trkpt lat="46.18861" lon="7.29414"><ele>1224.6</ele><time>2016-08-28T10:01:44Z</time></trkpt>
<trkpt lat="46.18861" lon="7.29413"><ele>1224.8</ele><time>2016-08-28T10:01:46Z</time></trkpt>
<trkpt lat="46.1886" lon="7.29412"><ele>1225.2</ele><time>2016-08-28T10:01:48Z</time></trkpt>
<trkpt lat="46.1886" lon="7.29411"><ele>1224.8</ele><time>2016-08-28T10:01:50Z</time></trkpt>
<trkpt lat="46.1886" lon="7.2941"><ele>1224.4</ele><time>2016-08-28T10:01:52Z</time></trkpt>
<trkpt lat="46.18868" lon="7.29417"><ele>1224</ele><time>2016-08-28T10:01:54Z</time></trkpt>
<trkpt lat="46.18877" lon="7.29425"><ele>1223.6</ele><time>2016-08-28T10:01:56Z</time></trkpt>
<trkpt lat="46.18877" lon="7.29428"><ele>1223.2</ele><time>2016-08-28T10:01:58Z</time></trkpt>
<trkpt lat="46.18877" lon="7.2943"><ele>1223</ele><time>2016-08-28T10:01:59Z</time></trkpt>
<trkpt lat="46.18877" lon="7.29432"><ele>1223</ele><time>2016-08-28T10:02:00Z</time></trkpt>
<trkpt lat="46.18878" lon="7.29435"><ele>1223.2</ele><time>2016-08-28T10:02:02Z</time></trkpt>
<trkpt lat="46.18878" lon="7.29438"><ele>1223.4</ele><time>2016-08-28T10:02:04Z</time></trkpt>
<trkpt lat="46.18878" lon="7.29441"><ele>1223.6</ele><time>2016-08-28T10:02:06Z</time></trkpt>
<trkpt lat="46.18878" lon="7.29445"><ele>1223.8</ele><time>2016-08-28T10:02:08Z</time></trkpt>
<trkpt lat="46.18878" lon="7.29448"><ele>1224</ele><time>2016-08-28T10:02:10Z</time></trkpt>
<trkpt lat="46.18878" lon="7.29451"><ele>1224.2</ele><time>2016-08-28T10:02:12Z</time></trkpt>
<trkpt lat="46.18878" lon="7.29454"><ele>1224.4</ele><time>2016-08-28T10:02:14Z</time></trkpt>
<trkpt lat="46.18878" lon="7.29458"><ele>1224.6</ele><time>2016-08-28T10:02:16Z</time></trkpt>
<trkpt lat="46.18878" lon="7.29461"><ele>1224.8</ele><time>2016-08-28T10:02:18Z</time></trkpt>
<trkpt lat="46.18879" lon="7.29464"><ele>1225</ele><time>2016-08-28T10:02:20Z</time></trkpt>
<trkpt lat="46.18879" lon="7.29467"><ele>1225</ele><time>2016-08-28T10:02:22Z</time></trkpt>
<trkpt lat="46.18879" lon="7.2947"><ele>1225.2</ele><time>2016-08-28T10:02:24Z</time></trkpt>
<trkpt lat="46.18879" lon="7.29474"><ele>1225.4</ele><time>2016-08-28T10:02:26Z</time></trkpt>
<trkpt lat="46.18879" lon="7.29477"><ele>1225.6</ele><time>2016-08-28T10:02:28Z</time></trkpt>
<trkpt lat="46.18879" lon="7.2948"><ele>1225.8</ele><time>2016-08-28T10:02:30Z</time></trkpt>
<trkpt lat="46.18879" lon="7.29483"><ele>1226</ele><time>2016-08-28T10:02:32Z</time></trkpt>
<trkpt lat="46.18879" lon="7.29487"><ele>1226.2</ele><time>2016-08-28T10:02:34Z</time></trkpt>
<trkpt lat="46.18878" lon="7.29493"><ele>1226.4</ele><time>2016-08-28T10:02:36Z</time></trkpt>
<trkpt lat="46.18876" lon="7.29499"><ele>1226.6</ele><time>2016-08-28T10:02:38Z</time></trkpt>
<trkpt lat="46.18874" lon="7.29505"><ele>1226.8</ele><time>2016-08-28T10:02:40Z</time></trkpt>
<trkpt lat="46.18873" lon="7.29511"><ele>1227.2</ele><time>2016-08-28T10:02:42Z</time></trkpt>
<trkpt lat="46.18871" lon="7.29517"><ele>1227.8</ele><time>2016-08-28T10:02:44Z</time></trkpt>
<trkpt lat="46.18869" lon="7.29523"><ele>1228.2</ele><time>2016-08-28T10:02:46Z</time></trkpt>
<trkpt lat="46.18868" lon="7.29529"><ele>1228.4</ele><time>2016-08-28T10:02:48Z</time></trkpt>
<trkpt lat="46.18866" lon="7.29535"><ele>1228.4</ele><time>2016-08-28T10:02:50Z</time></trkpt>
<trkpt lat="46.18864" lon="7.29541"><ele>1228.4</ele><time>2016-08-28T10:02:52Z</time></trkpt>
<trkpt lat="46.18863" lon="7.29544"><ele>1228.4</ele><time>2016-08-28T10:02:53Z</time></trkpt>
<trkpt lat="46.18863" lon="7.29547"><ele>1228.4</ele><time>2016-08-28T10:02:54Z</time></trkpt>
<trkpt lat="46.18864" lon="7.29553"><ele>1228.4</ele><time>2016-08-28T10:02:56Z</time></trkpt>
<trkpt lat="46.18865" lon="7.29559"><ele>1228.6</ele><time>2016-08-28T10:02:58Z</time></trkpt>
<trkpt lat="46.18865" lon="7.29565"><ele>1228.6</ele><time>2016-08-28T10:03:00Z</time></trkpt>
<trkpt lat="46.18864" lon="7.29572"><ele>1228.6</ele><time>2016-08-28T10:03:02Z</time></trkpt>
<trkpt lat="46.18862" lon="7.29579"><ele>1228.6</ele><time>2016-08-28T10:03:04Z</time></trkpt>
<trkpt lat="46.1886" lon="7.29586"><ele>1228.6</ele><time>2016-08-28T10:03:06Z</time></trkpt>
<trkpt lat="46.18859" lon="7.29592"><ele>1228.8</ele><time>2016-08-28T10:03:08Z</time></trkpt>
<trkpt lat="46.18857" lon="7.29599"><ele>1228.8</ele><time>2016-08-28T10:03:10Z</time></trkpt>
<trkpt lat="46.18855" lon="7.29606"><ele>1229</ele><time>2016-08-28T10:03:12Z</time></trkpt>
<trkpt lat="46.18854" lon="7.29612"><ele>1229</ele><time>2016-08-28T10:03:14Z</time></trkpt>
<trkpt lat="46.18852" lon="7.29619"><ele>1229.2</ele><time>2016-08-28T10:03:16Z</time></trkpt>
<trkpt lat="46.18851" lon="7.29626"><ele>1229.2</ele><time>2016-08-28T10:03:18Z</time></trkpt>
<trkpt lat="46.1885" lon="7.29629"><ele>1229.2</ele><time>2016-08-28T10:03:19Z</time></trkpt>
<trkpt lat="46.18849" lon="7.29633"><ele>1229.2</ele><time>2016-08-28T10:03:20Z</time></trkpt>
<trkpt lat="46.18847" lon="7.29642"><ele>1229.4</ele><time>2016-08-28T10:03:22Z</time></trkpt>
<trkpt lat="46.18844" lon="7.2965"><ele>1229.4</ele><time>2016-08-28T10:03:24Z</time></trkpt>
<trkpt lat="46.18842" lon="7.29658"><ele>1229.6</ele><time>2016-08-28T10:03:26Z</time></trkpt>
<trkpt lat="46.1884" lon="7.29667"><ele>1229.6</ele><time>2016-08-28T10:03:28Z</time></trkpt>
<trkpt lat="46.18838" lon="7.29675"><ele>1229.6</ele><time>2016-08-28T10:03:30Z</time></trkpt>
<trkpt lat="46.18836" lon="7.29683"><ele>1229.8</ele><time>2016-08-28T10:03:32Z</time></trkpt>
<trkpt lat="46.18834" lon="7.29691"><ele>1229.8</ele><time>2016-08-28T10:03:34Z</time></trkpt>
<trkpt lat="46.1883" lon="7.29698"><ele>1230</ele><time>2016-08-28T10:03:36Z</time></trkpt>
<trkpt lat="46.18826" lon="7.29705"><ele>1230</ele><time>2016-08-28T10:03:38Z</time></trkpt>
<trkpt lat="46.18819" lon="7.29705"><ele>1230.2</ele><time>2016-08-28T10:03:40Z</time></trkpt>
<trkpt lat="46.18812" lon="7.29706"><ele>1230.2</ele><time>2016-08-28T10:03:42Z</time></trkpt>
<trkpt lat="46.18805" lon="7.29706"><ele>1230.2</ele><time>2016-08-28T10:03:44Z</time></trkpt>
<trkpt lat="46.18799" lon="7.29707"><ele>1230.4</ele><time>2016-08-28T10:03:46Z</time></trkpt>
<trkpt lat="46.18792" lon="7.29707"><ele>1230.4</ele><time>2016-08-28T10:03:48Z</time></trkpt>
<trkpt lat="46.18785" lon="7.29707"><ele>1230.6</ele><time>2016-08-28T10:03:50Z</time></trkpt>
<trkpt lat="46.18778" lon="7.29708"><ele>1230.6</ele><time>2016-08-28T10:03:52Z</time></trkpt>
<trkpt lat="46.18771" lon="7.2971"><ele>1230.8</ele><time>2016-08-28T10:03:54Z</time></trkpt>
<trkpt lat="46.18765" lon="7.29712"><ele>1230.8</ele><time>2016-08-28T10:03:56Z</time></trkpt>
<trkpt lat="46.18758" lon="7.29714"><ele>1230.8</ele><time>2016-08-28T10:03:58Z</time></trkpt>
<trkpt lat="46.18751" lon="7.29716"><ele>1231</ele><time>2016-08-28T10:04:00Z</time></trkpt>
<trkpt lat="46.18745" lon="7.29718"><ele>1231</ele><time>2016-08-28T10:04:02Z</time></trkpt>
<trkpt lat="46.18738" lon="7.2972"><ele>1231.2</ele><time>2016-08-28T10:04:04Z</time></trkpt>
<trkpt lat="46.18731" lon="7.29723"><ele>1231.2</ele><time>2016-08-28T10:04:06Z</time></trkpt>
<trkpt lat="46.18729" lon="7.2972"><ele>1231.2</ele><time>2016-08-28T10:04:08Z</time></trkpt>
<trkpt lat="46.18727" lon="7.29716"><ele>1231.4</ele><time>2016-08-28T10:04:10Z</time></trkpt>
<trkpt lat="46.18725" lon="7.29713"><ele>1231.4</ele><time>2016-08-28T10:04:12Z</time></trkpt>
<trkpt lat="46.18722" lon="7.2971"><ele>1231.6</ele><time>2016-08-28T10:04:14Z</time></trkpt>
<trkpt lat="46.1872" lon="7.29707"><ele>1231.6</ele><time>2016-08-28T10:04:16Z</time></trkpt>
<trkpt lat="46.18718" lon="7.29703"><ele>1231.8</ele><time>2016-08-28T10:04:18Z</time></trkpt>
<trkpt lat="46.18716" lon="7.297"><ele>1231.8</ele><time>2016-08-28T10:04:20Z</time></trkpt>
<trkpt lat="46.18714" lon="7.29697"><ele>1231.8</ele><time>2016-08-28T10:04:22Z</time></trkpt>
<trkpt lat="46.18711" lon="7.29694"><ele>1232.2</ele><time>2016-08-28T10:04:24Z</time></trkpt>
<trkpt lat="46.18709" lon="7.2969"><ele>1232.6</ele><time>2016-08-28T10:04:26Z</time></trkpt>
<trkpt lat="46.18707" lon="7.29687"><ele>1232.8</ele><time>2016-08-28T10:04:28Z</time></trkpt>
<trkpt lat="46.18705" lon="7.29684"><ele>1233.2</ele><time>2016-08-28T10:04:30Z</time></trkpt>
<trkpt lat="46.18703" lon="7.29681"><ele>1233.4</ele><time>2016-08-28T10:04:32Z</time></trkpt>
<trkpt lat="46.18701" lon="7.29678"><ele>1233.8</ele><time>2016-08-28T10:04:34Z</time></trkpt>
<trkpt lat="46.187" lon="7.29676"><ele>1234</ele><time>2016-08-28T10:04:35Z</time></trkpt>
<trkpt lat="46.18698" lon="7.29676"><ele>1234.2</ele><time>2016-08-28T10:04:36Z</time></trkpt>
<trkpt lat="46.18695" lon="7.29678"><ele>1234.4</ele><time>2016-08-28T10:04:38Z</time></trkpt>
<trkpt lat="46.18692" lon="7.29679"><ele>1234.8</ele><time>2016-08-28T10:04:40Z</time></trkpt>
<trkpt lat="46.18689" lon="7.2968"><ele>1235.2</ele><time>2016-08-28T10:04:42Z</time></trkpt>
<trkpt lat="46.18685" lon="7.29682"><ele>1235.4</ele><time>2016-08-28T10:04:44Z</time></trkpt>
<trkpt lat="46.18684" lon="7.29682"><ele>1235.6</ele><time>2016-08-28T10:04:45Z</time></trkpt>
<trkpt lat="46.18682" lon="7.29683"><ele>1235.8</ele><time>2016-08-28T10:04:46Z</time></trkpt>
<trkpt lat="46.18679" lon="7.29684"><ele>1236.2</ele><time>2016-08-28T10:04:48Z</time></trkpt>
<trkpt lat="46.18676" lon="7.29686"><ele>1236.4</ele><time>2016-08-28T10:04:50Z</time></trkpt>
<trkpt lat="46.18673" lon="7.29687"><ele>1236.8</ele><time>2016-08-28T10:04:52Z</time></trkpt>
<trkpt lat="46.1867" lon="7.29688"><ele>1237.2</ele><time>2016-08-28T10:04:54Z</time></trkpt>
<trkpt lat="46.18667" lon="7.2969"><ele>1237.6</ele><time>2016-08-28T10:04:56Z</time></trkpt>
<trkpt lat="46.18664" lon="7.29692"><ele>1237.8</ele><time>2016-08-28T10:04:58Z</time></trkpt>
<trkpt lat="46.18662" lon="7.29695"><ele>1238.2</ele><time>2016-08-28T10:05:00Z</time></trkpt>
<trkpt lat="46.1866" lon="7.29697"><ele>1238.6</ele><time>2016-08-28T10:05:02Z</time></trkpt>
<trkpt lat="46.18657" lon="7.297"><ele>1239</ele><time>2016-08-28T10:05:04Z</time></trkpt>
<trkpt lat="46.18655" lon="7.29702"><ele>1239.2</ele><time>2016-08-28T10:05:06Z</time></trkpt>
<trkpt lat="46.18653" lon="7.29705"><ele>1239.8</ele><time>2016-08-28T10:05:08Z</time></trkpt>
<trkpt lat="46.1865" lon="7.29708"><ele>1240.2</ele><time>2016-08-28T10:05:10Z</time></trkpt>
<trkpt lat="46.18648" lon="7.2971"><ele>1240.6</ele><time>2016-08-28T10:05:12Z</time></trkpt>
<trkpt lat="46.18646" lon="7.29713"><ele>1241</ele><time>2016-08-28T10:05:14Z</time></trkpt>
<trkpt lat="46.18643" lon="7.29715"><ele>1241.6</ele><time>2016-08-28T10:05:16Z</time></trkpt>
<trkpt lat="46.18641" lon="7.29718"><ele>1242</ele><time>2016-08-28T10:05:18Z</time></trkpt>
<trkpt lat="46.18639" lon="7.2972"><ele>1242.4</ele><time>2016-08-28T10:05:20Z</time></trkpt>
<trkpt lat="46.18637" lon="7.29723"><ele>1243</ele><time>2016-08-28T10:05:22Z</time></trkpt>
<trkpt lat="46.18635" lon="7.29724"><ele>1243.2</ele><time>2016-08-28T10:05:23Z</time></trkpt>
<trkpt lat="46.18634" lon="7.29725"><ele>1243.2</ele><time>2016-08-28T10:05:24Z</time></trkpt>
<trkpt lat="46.18632" lon="7.29728"><ele>1243.4</ele><time>2016-08-28T10:05:26Z</time></trkpt>
<trkpt lat="46.18631" lon="7.29729"><ele>1243.6</ele><time>2016-08-28T10:05:27Z</time></trkpt>
<trkpt lat="46.18629" lon="7.29731"><ele>1243.8</ele><time>2016-08-28T10:05:28Z</time></trkpt>
<trkpt lat="46.18626" lon="7.29735"><ele>1244</ele><time>2016-08-28T10:05:30Z</time></trkpt>
<trkpt lat="46.18623" lon="7.29738"><ele>1244.2</ele><time>2016-08-28T10:05:32Z</time></trkpt>
<trkpt lat="46.18619" lon="7.29742"><ele>1244.4</ele><time>2016-08-28T10:05:34Z</time></trkpt>
<trkpt lat="46.18616" lon="7.29745"><ele>1244.6</ele><time>2016-08-28T10:05:36Z</time></trkpt>
<trkpt lat="46.18613" lon="7.29749"><ele>1245</ele><time>2016-08-28T10:05:38Z</time></trkpt>
<trkpt lat="46.1861" lon="7.29753"><ele>1245.2</ele><time>2016-08-28T10:05:40Z</time></trkpt>
<trkpt lat="46.18606" lon="7.29756"><ele>1245.4</ele><time>2016-08-28T10:05:42Z</time></trkpt>
<trkpt lat="46.18603" lon="7.2976"><ele>1245.6</ele><time>2016-08-28T10:05:44Z</time></trkpt>
<trkpt lat="46.186" lon="7.29763"><ele>1245.8</ele><time>2016-08-28T10:05:46Z</time></trkpt>
<trkpt lat="46.18597" lon="7.29767"><ele>1246</ele><time>2016-08-28T10:05:48Z</time></trkpt>
<trkpt lat="46.18595" lon="7.29769"><ele>1246.2</ele><time>2016-08-28T10:05:49Z</time></trkpt>
<trkpt lat="46.18593" lon="7.2977"><ele>1246.2</ele><time>2016-08-28T10:05:50Z</time></trkpt>
<trkpt lat="46.18589" lon="7.29773"><ele>1246.6</ele><time>2016-08-28T10:05:52Z</time></trkpt>
<trkpt lat="46.18586" lon="7.29777"><ele>1246.8</ele><time>2016-08-28T10:05:54Z</time></trkpt>
<trkpt lat="46.18582" lon="7.2978"><ele>1247</ele><time>2016-08-28T10:05:56Z</time></trkpt>
<trkpt lat="46.18578" lon="7.29783"><ele>1247.2</ele><time>2016-08-28T10:05:58Z</time></trkpt>
<trkpt lat="46.18574" lon="7.29786"><ele>1247.4</ele><time>2016-08-28T10:06:00Z</time></trkpt>
<trkpt lat="46.1857" lon="7.29789"><ele>1247.6</ele><time>2016-08-28T10:06:02Z</time></trkpt>
<trkpt lat="46.18567" lon="7.29792"><ele>1247.8</ele><time>2016-08-28T10:06:04Z</time></trkpt>
<trkpt lat="46.18563" lon="7.29795"><ele>1248.2</ele><time>2016-08-28T10:06:06Z</time></trkpt>
<trkpt lat="46.18559" lon="7.29798"><ele>1248.4</ele><time>2016-08-28T10:06:08Z</time></trkpt>
<trkpt lat="46.18557" lon="7.29796"><ele>1248.6</ele><time>2016-08-28T10:06:10Z</time></trkpt>
<trkpt lat="46.18556" lon="7.29793"><ele>1248.8</ele><time>2016-08-28T10:06:12Z</time></trkpt>
<trkpt lat="46.18554" lon="7.2979"><ele>1249</ele><time>2016-08-28T10:06:14Z</time></trkpt>
<trkpt lat="46.18552" lon="7.29787"><ele>1249.2</ele><time>2016-08-28T10:06:16Z</time></trkpt>
<trkpt lat="46.1855" lon="7.29785"><ele>1249.4</ele><time>2016-08-28T10:06:18Z</time></trkpt>
<trkpt lat="46.18549" lon="7.29782"><ele>1249.6</ele><time>2016-08-28T10:06:20Z</time></trkpt>
<trkpt lat="46.18547" lon="7.29779"><ele>1250</ele><time>2016-08-28T10:06:22Z</time></trkpt>
<trkpt lat="46.18545" lon="7.29776"><ele>1250.4</ele><time>2016-08-28T10:06:24Z</time></trkpt>
<trkpt lat="46.18543" lon="7.29774"><ele>1250.8</ele><time>2016-08-28T10:06:26Z</time></trkpt>
<trkpt lat="46.18542" lon="7.29771"><ele>1251.4</ele><time>2016-08-28T10:06:28Z</time></trkpt>
<trkpt lat="46.1854" lon="7.29768"><ele>1251.8</ele><time>2016-08-28T10:06:30Z</time></trkpt>
<trkpt lat="46.18538" lon="7.29765"><ele>1252.4</ele><time>2016-08-28T10:06:32Z</time></trkpt>
<trkpt lat="46.18536" lon="7.29763"><ele>1252.8</ele><time>2016-08-28T10:06:34Z</time></trkpt>
<trkpt lat="46.18535" lon="7.2976"><ele>1253.4</ele><time>2016-08-28T10:06:36Z</time></trkpt>
<trkpt lat="46.18533" lon="7.29757"><ele>1253.8</ele><time>2016-08-28T10:06:38Z</time></trkpt>
<trkpt lat="46.18531" lon="7.29754"><ele>1254.4</ele><time>2016-08-28T10:06:40Z</time></trkpt>
<trkpt lat="46.1853" lon="7.29752"><ele>1254.8</ele><time>2016-08-28T10:06:42Z</time></trkpt>
<trkpt lat="46.18529" lon="7.2975"><ele>1255.2</ele><time>2016-08-28T10:06:43Z</time></trkpt>
<trkpt lat="46.18528" lon="7.29749"><ele>1255.4</ele><time>2016-08-28T10:06:44Z</time></trkpt>
<trkpt lat="46.18526" lon="7.29747"><ele>1255.8</ele><time>2016-08-28T10:06:46Z</time></trkpt>
<trkpt lat="46.18524" lon="7.29744"><ele>1256.4</ele><time>2016-08-28T10:06:48Z</time></trkpt>
<trkpt lat="46.18522" lon="7.29742"><ele>1257</ele><time>2016-08-28T10:06:50Z</time></trkpt>
<trkpt lat="46.1852" lon="7.29739"><ele>1257.4</ele><time>2016-08-28T10:06:52Z</time></trkpt>
<trkpt lat="46.18518" lon="7.29737"><ele>1257.8</ele><time>2016-08-28T10:06:54Z</time></trkpt>
<trkpt lat="46.18517" lon="7.29734"><ele>1258.2</ele><time>2016-08-28T10:06:56Z</time></trkpt>
<trkpt lat="46.18515" lon="7.29731"><ele>1258.8</ele><time>2016-08-28T10:06:58Z</time></trkpt>
<trkpt lat="46.18513" lon="7.29729"><ele>1259.2</ele><time>2016-08-28T10:07:00Z</time></trkpt>
<trkpt lat="46.18512" lon="7.29728"><ele>1259.4</ele><time>2016-08-28T10:07:01Z</time></trkpt>
<trkpt lat="46.18511" lon="7.29726"><ele>1259.6</ele><time>2016-08-28T10:07:02Z</time></trkpt>
<trkpt lat="46.18509" lon="7.29724"><ele>1260.2</ele><time>2016-08-28T10:07:04Z</time></trkpt>
<trkpt lat="46.18507" lon="7.29721"><ele>1260.6</ele><time>2016-08-28T10:07:06Z</time></trkpt>
<trkpt lat="46.18505" lon="7.29719"><ele>1261.2</ele><time>2016-08-28T10:07:08Z</time></trkpt>
<trkpt lat="46.18503" lon="7.29716"><ele>1261.6</ele><time>2016-08-28T10:07:10Z</time></trkpt>
<trkpt lat="46.18502" lon="7.29714"><ele>1262.2</ele><time>2016-08-28T10:07:12Z</time></trkpt>
<trkpt lat="46.185" lon="7.29711"><ele>1262.8</ele><time>2016-08-28T10:07:14Z</time></trkpt>
<trkpt lat="46.18498" lon="7.29709"><ele>1263.2</ele><time>2016-08-28T10:07:16Z</time></trkpt>
<trkpt lat="46.18496" lon="7.29706"><ele>1263.6</ele><time>2016-08-28T10:07:18Z</time></trkpt>
<trkpt lat="46.18495" lon="7.29705"><ele>1263.6</ele><time>2016-08-28T10:07:19Z</time></trkpt>
<trkpt lat="46.18494" lon="7.29704"><ele>1263.8</ele><time>2016-08-28T10:07:20Z</time></trkpt>
<trkpt lat="46.18491" lon="7.29702"><ele>1264</ele><time>2016-08-28T10:07:22Z</time></trkpt>
<trkpt lat="46.18489" lon="7.297"><ele>1264.4</ele><time>2016-08-28T10:07:24Z</time></trkpt>
<trkpt lat="46.18487" lon="7.29698"><ele>1264.6</ele><time>2016-08-28T10:07:26Z</time></trkpt>
<trkpt lat="46.18484" lon="7.29696"><ele>1265</ele><time>2016-08-28T10:07:28Z</time></trkpt>
<trkpt lat="46.18482" lon="7.29693"><ele>1265.2</ele><time>2016-08-28T10:07:30Z</time></trkpt>
<trkpt lat="46.18479" lon="7.29691"><ele>1265.4</ele><time>2016-08-28T10:07:32Z</time></trkpt>
<trkpt lat="46.18477" lon="7.29689"><ele>1265.8</ele><time>2016-08-28T10:07:34Z</time></trkpt>
<trkpt lat="46.18474" lon="7.29687"><ele>1266</ele><time>2016-08-28T10:07:36Z</time></trkpt>
<trkpt lat="46.18472" lon="7.29685"><ele>1266.4</ele><time>2016-08-28T10:07:38Z</time></trkpt>
<trkpt lat="46.18469" lon="7.29683"><ele>1266.6</ele><time>2016-08-28T10:07:40Z</time></trkpt>
<trkpt lat="46.18467" lon="7.29681"><ele>1267</ele><time>2016-08-28T10:07:42Z</time></trkpt>
<trkpt lat="46.18465" lon="7.29679"><ele>1267.4</ele><time>2016-08-28T10:07:44Z</time></trkpt>
<trkpt lat="46.18462" lon="7.29677"><ele>1267.8</ele><time>2016-08-28T10:07:46Z</time></trkpt>
<trkpt lat="46.1846" lon="7.29674"><ele>1268.2</ele><time>2016-08-28T10:07:48Z</time></trkpt>
<trkpt lat="46.18457" lon="7.29672"><ele>1268.6</ele><time>2016-08-28T10:07:50Z</time></trkpt>
<trkpt lat="46.18456" lon="7.29671"><ele>1268.8</ele><time>2016-08-28T10:07:51Z</time></trkpt>
<trkpt lat="46.18455" lon="7.2967"><ele>1269</ele><time>2016-08-28T10:07:52Z</time></trkpt>
<trkpt lat="46.18453" lon="7.29668"><ele>1269.4</ele><time>2016-08-28T10:07:54Z</time></trkpt>
<trkpt lat="46.18451" lon="7.29665"><ele>1269.8</ele><time>2016-08-28T10:07:56Z</time></trkpt>
<trkpt lat="46.1845" lon="7.29664"><ele>1270</ele><time>2016-08-28T10:07:57Z</time></trkpt>
<trkpt lat="46.18449" lon="7.29663"><ele>1270.4</ele><time>2016-08-28T10:07:58Z</time></trkpt>
<trkpt lat="46.18447" lon="7.2966"><ele>1270.8</ele><time>2016-08-28T10:08:00Z</time></trkpt>
<trkpt lat="46.18446" lon="7.29658"><ele>1271.2</ele><time>2016-08-28T10:08:02Z</time></trkpt>
<trkpt lat="46.18444" lon="7.29655"><ele>1271.6</ele><time>2016-08-28T10:08:04Z</time></trkpt>
<trkpt lat="46.18442" lon="7.29653"><ele>1272.2</ele><time>2016-08-28T10:08:06Z</time></trkpt>
<trkpt lat="46.1844" lon="7.2965"><ele>1272.6</ele><time>2016-08-28T10:08:08Z</time></trkpt>
<trkpt lat="46.18438" lon="7.29648"><ele>1273</ele><time>2016-08-28T10:08:10Z</time></trkpt>
<trkpt lat="46.18436" lon="7.29645"><ele>1273.4</ele><time>2016-08-28T10:08:12Z</time></trkpt>
<trkpt lat="46.18434" lon="7.29643"><ele>1273.8</ele><time>2016-08-28T10:08:14Z</time></trkpt>
<trkpt lat="46.18432" lon="7.2964"><ele>1274.4</ele><time>2016-08-28T10:08:16Z</time></trkpt>
<trkpt lat="46.1843" lon="7.29638"><ele>1274.8</ele><time>2016-08-28T10:08:18Z</time></trkpt>
<trkpt lat="46.18428" lon="7.29635"><ele>1275.2</ele><time>2016-08-28T10:08:20Z</time></trkpt>
<trkpt lat="46.18427" lon="7.29633"><ele>1275.6</ele><time>2016-08-28T10:08:22Z</time></trkpt>
<trkpt lat="46.18425" lon="7.29631"><ele>1276</ele><time>2016-08-28T10:08:24Z</time></trkpt>
<trkpt lat="46.18423" lon="7.29628"><ele>1276.4</ele><time>2016-08-28T10:08:26Z</time></trkpt>
<trkpt lat="46.18422" lon="7.29627"><ele>1276.6</ele><time>2016-08-28T10:08:27Z</time></trkpt>
<trkpt lat="46.18421" lon="7.29626"><ele>1276.8</ele><time>2016-08-28T10:08:28Z</time></trkpt>
<trkpt lat="46.18419" lon="7.29625"><ele>1277.2</ele><time>2016-08-28T10:08:30Z</time></trkpt>
<trkpt lat="46.18417" lon="7.29623"><ele>1277.6</ele><time>2016-08-28T10:08:32Z</time></trkpt>
<trkpt lat="46.18415" lon="7.29622"><ele>1277.6</ele><time>2016-08-28T10:08:34Z</time></trkpt>
<trkpt lat="46.18413" lon="7.2962"><ele>1277.8</ele><time>2016-08-28T10:08:36Z</time></trkpt>
<trkpt lat="46.18411" lon="7.29619"><ele>1278</ele><time>2016-08-28T10:08:38Z</time></trkpt>
<trkpt lat="46.18409" lon="7.29617"><ele>1278.2</ele><time>2016-08-28T10:08:40Z</time></trkpt>
<trkpt lat="46.18407" lon="7.29616"><ele>1278.4</ele><time>2016-08-28T10:08:42Z</time></trkpt>
<trkpt lat="46.18405" lon="7.29614"><ele>1278.6</ele><time>2016-08-28T10:08:44Z</time></trkpt>
<trkpt lat="46.18403" lon="7.29613"><ele>1278.8</ele><time>2016-08-28T10:08:46Z</time></trkpt>
<trkpt lat="46.18401" lon="7.29611"><ele>1279</ele><time>2016-08-28T10:08:48Z</time></trkpt>
<trkpt lat="46.18399" lon="7.2961"><ele>1279.2</ele><time>2016-08-28T10:08:50Z</time></trkpt>
<trkpt lat="46.18397" lon="7.29608"><ele>1279.4</ele><time>2016-08-28T10:08:52Z</time></trkpt>
<trkpt lat="46.18395" lon="7.29607"><ele>1279.8</ele><time>2016-08-28T10:08:54Z</time></trkpt>
<trkpt lat="46.18393" lon="7.29605"><ele>1280.2</ele><time>2016-08-28T10:08:56Z</time></trkpt>
<trkpt lat="46.18391" lon="7.29604"><ele>1280.6</ele><time>2016-08-28T10:08:58Z</time></trkpt>
<trkpt lat="46.18389" lon="7.29603"><ele>1281</ele><time>2016-08-28T10:09:00Z</time></trkpt>
<trkpt lat="46.18387" lon="7.29601"><ele>1281.4</ele><time>2016-08-28T10:09:02Z</time></trkpt>
<trkpt lat="46.18386" lon="7.296"><ele>1281.6</ele><time>2016-08-28T10:09:03Z</time></trkpt>
<trkpt lat="46.18385" lon="7.296"><ele>1281.8</ele><time>2016-08-28T10:09:04Z</time></trkpt>
<trkpt lat="46.18383" lon="7.29598"><ele>1282.2</ele><time>2016-08-28T10:09:06Z</time></trkpt>
<trkpt lat="46.18381" lon="7.29597"><ele>1282.8</ele><time>2016-08-28T10:09:08Z</time></trkpt>
<trkpt lat="46.18379" lon="7.29594"><ele>1283.4</ele><time>2016-08-28T10:09:10Z</time></trkpt>
<trkpt lat="46.18377" lon="7.29592"><ele>1283.8</ele><time>2016-08-28T10:09:12Z</time></trkpt>
<trkpt lat="46.18375" lon="7.2959"><ele>1284.4</ele><time>2016-08-28T10:09:14Z</time></trkpt>
<trkpt lat="46.18374" lon="7.29588"><ele>1284.6</ele><time>2016-08-28T10:09:15Z</time></trkpt>
<trkpt lat="46.18373" lon="7.29587"><ele>1285</ele><time>2016-08-28T10:09:16Z</time></trkpt>
<trkpt lat="46.18372" lon="7.29585"><ele>1285.4</ele><time>2016-08-28T10:09:18Z</time></trkpt>
<trkpt lat="46.1837" lon="7.29583"><ele>1286</ele><time>2016-08-28T10:09:20Z</time></trkpt>
<trkpt lat="46.18368" lon="7.2958"><ele>1286.6</ele><time>2016-08-28T10:09:22Z</time></trkpt>
<trkpt lat="46.18366" lon="7.29578"><ele>1287.2</ele><time>2016-08-28T10:09:24Z</time></trkpt>
<trkpt lat="46.18364" lon="7.29576"><ele>1287.8</ele><time>2016-08-28T10:09:26Z</time></trkpt>
<trkpt lat="46.18362" lon="7.29573"><ele>1288.2</ele><time>2016-08-28T10:09:28Z</time></trkpt>
<trkpt lat="46.18361" lon="7.29571"><ele>1288.8</ele><time>2016-08-28T10:09:30Z</time></trkpt>
<trkpt lat="46.18359" lon="7.29568"><ele>1289.4</ele><time>2016-08-28T10:09:32Z</time></trkpt>
<trkpt lat="46.18357" lon="7.29566"><ele>1289.8</ele><time>2016-08-28T10:09:34Z</time></trkpt>
<trkpt lat="46.18356" lon="7.29565"><ele>1290</ele><time>2016-08-28T10:09:35Z</time></trkpt>
<trkpt lat="46.18355" lon="7.29565"><ele>1290.2</ele><time>2016-08-28T10:09:36Z</time></trkpt>
<trkpt lat="46.18352" lon="7.29565"><ele>1290.6</ele><time>2016-08-28T10:09:38Z</time></trkpt>
<trkpt lat="46.1835" lon="7.29565"><ele>1290.8</ele><time>2016-08-28T10:09:40Z</time></trkpt>
<trkpt lat="46.18347" lon="7.29565"><ele>1291.2</ele><time>2016-08-28T10:09:42Z</time></trkpt>
<trkpt lat="46.18344" lon="7.29565"><ele>1291.6</ele><time>2016-08-28T10:09:44Z</time></trkpt>
<trkpt lat="46.18342" lon="7.29565"><ele>1292</ele><time>2016-08-28T10:09:46Z</time></trkpt>
<trkpt lat="46.18339" lon="7.29565"><ele>1292.4</ele><time>2016-08-28T10:09:48Z</time></trkpt>
<trkpt lat="46.18337" lon="7.29565"><ele>1292.6</ele><time>2016-08-28T10:09:50Z</time></trkpt>
<trkpt lat="46.18334" lon="7.29565"><ele>1293</ele><time>2016-08-28T10:09:52Z</time></trkpt>
<trkpt lat="46.18332" lon="7.29565"><ele>1293.4</ele><time>2016-08-28T10:09:54Z</time></trkpt>
<trkpt lat="46.18329" lon="7.29565"><ele>1293.6</ele><time>2016-08-28T10:09:56Z</time></trkpt>
<trkpt lat="46.18327" lon="7.29565"><ele>1294</ele><time>2016-08-28T10:09:58Z</time></trkpt>
<trkpt lat="46.18324" lon="7.29565"><ele>1294.4</ele><time>2016-08-28T10:10:00Z</time></trkpt>
<trkpt lat="46.18322" lon="7.29565"><ele>1294.8</ele><time>2016-08-28T10:10:02Z</time></trkpt>
<trkpt lat="46.18319" lon="7.29565"><ele>1295</ele><time>2016-08-28T10:10:04Z</time></trkpt>
<trkpt lat="46.18316" lon="7.29565"><ele>1295.4</ele><time>2016-08-28T10:10:06Z</time></trkpt>
<trkpt lat="46.18314" lon="7.29565"><ele>1295.8</ele><time>2016-08-28T10:10:08Z</time></trkpt>
<trkpt lat="46.18311" lon="7.29566"><ele>1296.2</ele><time>2016-08-28T10:10:10Z</time></trkpt>
<trkpt lat="46.1831" lon="7.29566"><ele>1296.2</ele><time>2016-08-28T10:10:11Z</time></trkpt>
<trkpt lat="46.18309" lon="7.29565"><ele>1296.4</ele><time>2016-08-28T10:10:12Z</time></trkpt>
<trkpt lat="46.18307" lon="7.29563"><ele>1296.8</ele><time>2016-08-28T10:10:14Z</time></trkpt>
<trkpt lat="46.18304" lon="7.29562"><ele>1297.2</ele><time>2016-08-28T10:10:16Z</time></trkpt>
<trkpt lat="46.18302" lon="7.2956"><ele>1297.6</ele><time>2016-08-28T10:10:18Z</time></trkpt>
<trkpt lat="46.183" lon="7.29559"><ele>1297.8</ele><time>2016-08-28T10:10:20Z</time></trkpt>
<trkpt lat="46.18298" lon="7.29557"><ele>1298.2</ele><time>2016-08-28T10:10:22Z</time></trkpt>
<trkpt lat="46.18296" lon="7.29556"><ele>1298.6</ele><time>2016-08-28T10:10:24Z</time></trkpt>
<trkpt lat="46.18293" lon="7.29554"><ele>1299</ele><time>2016-08-28T10:10:26Z</time></trkpt>
<trkpt lat="46.18291" lon="7.29553"><ele>1299.8</ele><time>2016-08-28T10:10:28Z</time></trkpt>
<trkpt lat="46.18291" lon="7.29548"><ele>1300.8</ele><time>2016-08-28T10:10:30Z</time></trkpt>
<trkpt lat="46.18291" lon="7.29544"><ele>1301.8</ele><time>2016-08-28T10:10:32Z</time></trkpt>
<trkpt lat="46.18291" lon="7.29539"><ele>1302</ele><time>2016-08-28T10:10:34Z</time></trkpt>
<trkpt lat="46.18291" lon="7.29534"><ele>1302</ele><time>2016-08-28T10:10:36Z</time></trkpt>
<trkpt lat="46.18291" lon="7.29532"><ele>1302</ele><time>2016-08-28T10:10:37Z</time></trkpt>
<trkpt lat="46.18293" lon="7.29527"><ele>1302.2</ele><time>2016-08-28T10:10:38Z</time></trkpt>
<trkpt lat="46.18298" lon="7.29517"><ele>1302.2</ele><time>2016-08-28T10:10:40Z</time></trkpt>
<trkpt lat="46.18303" lon="7.29507"><ele>1302.4</ele><time>2016-08-28T10:10:42Z</time></trkpt>
<trkpt lat="46.18306" lon="7.29502"><ele>1302.4</ele><time>2016-08-28T10:10:43Z</time></trkpt>
<trkpt lat="46.18308" lon="7.29497"><ele>1302.2</ele><time>2016-08-28T10:10:44Z</time></trkpt>
<trkpt lat="46.18314" lon="7.29487"><ele>1301.6</ele><time>2016-08-28T10:10:46Z</time></trkpt>
<trkpt lat="46.18319" lon="7.29477"><ele>1301</ele><time>2016-08-28T10:10:48Z</time></trkpt>
<trkpt lat="46.18323" lon="7.29472"><ele>1300.8</ele><time>2016-08-28T10:10:49Z</time></trkpt>
<trkpt lat="46.18327" lon="7.29467"><ele>1300.6</ele><time>2016-08-28T10:10:50Z</time></trkpt>
<trkpt lat="46.18336" lon="7.29457"><ele>1300.2</ele><time>2016-08-28T10:10:52Z</time></trkpt>
<trkpt lat="46.18344" lon="7.29447"><ele>1300</ele><time>2016-08-28T10:10:54Z</time></trkpt>
<trkpt lat="46.18349" lon="7.29444"><ele>1299.8</ele><time>2016-08-28T10:10:55Z</time></trkpt>
<trkpt lat="46.18353" lon="7.2944"><ele>1299.8</ele><time>2016-08-28T10:10:56Z</time></trkpt>
<trkpt lat="46.18351" lon="7.29434"><ele>1299.8</ele><time>2016-08-28T10:10:58Z</time></trkpt>
<trkpt lat="46.18348" lon="7.29429"><ele>1299.8</ele><time>2016-08-28T10:11:00Z</time></trkpt>
<trkpt lat="46.18345" lon="7.29423"><ele>1299.8</ele><time>2016-08-28T10:11:02Z</time></trkpt>
<trkpt lat="46.18342" lon="7.29417"><ele>1299.8</ele><time>2016-08-28T10:11:04Z</time></trkpt>
<trkpt lat="46.18341" lon="7.29423"><ele>1299.8</ele><time>2016-08-28T10:11:06Z</time></trkpt>
<trkpt lat="46.18339" lon="7.29429"><ele>1300</ele><time>2016-08-28T10:11:08Z</time></trkpt>
<trkpt lat="46.18338" lon="7.29436"><ele>1300.2</ele><time>2016-08-28T10:11:10Z</time></trkpt>
<trkpt lat="46.18337" lon="7.29442"><ele>1300.2</ele><time>2016-08-28T10:11:12Z</time></trkpt>
<trkpt lat="46.18334" lon="7.29445"><ele>1300.4</ele><time>2016-08-28T10:11:14Z</time></trkpt>
<trkpt lat="46.18331" lon="7.29448"><ele>1300.6</ele><time>2016-08-28T10:11:16Z</time></trkpt>
<trkpt lat="46.18328" lon="7.29451"><ele>1300.6</ele><time>2016-08-28T10:11:18Z</time></trkpt>
<trkpt lat="46.18325" lon="7.29454"><ele>1300.8</ele><time>2016-08-28T10:11:20Z</time></trkpt>
<trkpt lat="46.18322" lon="7.29457"><ele>1300.8</ele><time>2016-08-28T10:11:22Z</time></trkpt>
<trkpt lat="46.18319" lon="7.2946"><ele>1301</ele><time>2016-08-28T10:11:24Z</time></trkpt>
<trkpt lat="46.18316" lon="7.29463"><ele>1301.2</ele><time>2016-08-28T10:11:26Z</time></trkpt>
<trkpt lat="46.18313" lon="7.29465"><ele>1301.2</ele><time>2016-08-28T10:11:28Z</time></trkpt>
<trkpt lat="46.1831" lon="7.29468"><ele>1301.4</ele><time>2016-08-28T10:11:30Z</time></trkpt>
<trkpt lat="46.18307" lon="7.29471"><ele>1301.6</ele><time>2016-08-28T10:11:32Z</time></trkpt>
<trkpt lat="46.18305" lon="7.29473"><ele>1301.6</ele><time>2016-08-28T10:11:33Z</time></trkpt>
<trkpt lat="46.18304" lon="7.29469"><ele>1301.6</ele><time>2016-08-28T10:11:34Z</time></trkpt>
<trkpt lat="46.18301" lon="7.2946"><ele>1301.8</ele><time>2016-08-28T10:11:36Z</time></trkpt>
<trkpt lat="46.18299" lon="7.29452"><ele>1301.8</ele><time>2016-08-28T10:11:38Z</time></trkpt>
<trkpt lat="46.18296" lon="7.29443"><ele>1302</ele><time>2016-08-28T10:11:40Z</time></trkpt>
<trkpt lat="46.18294" lon="7.29434"><ele>1302.2</ele><time>2016-08-28T10:11:42Z</time></trkpt>
<trkpt lat="46.18291" lon="7.29426"><ele>1302.2</ele><time>2016-08-28T10:11:44Z</time></trkpt>
<trkpt lat="46.18289" lon="7.29417"><ele>1302.4</ele><time>2016-08-28T10:11:46Z</time></trkpt>
<trkpt lat="46.18288" lon="7.29412"><ele>1302.4</ele><time>2016-08-28T10:11:47Z</time></trkpt>
<trkpt lat="46.18288" lon="7.29408"><ele>1302.6</ele><time>2016-08-28T10:11:48Z</time></trkpt>
<trkpt lat="46.1829" lon="7.29399"><ele>1302.6</ele><time>2016-08-28T10:11:50Z</time></trkpt>
<trkpt lat="46.1829" lon="7.29395"><ele>1302.8</ele><time>2016-08-28T10:11:51Z</time></trkpt>
<trkpt lat="46.18291" lon="7.29391"><ele>1302.8</ele><time>2016-08-28T10:11:52Z</time></trkpt>
<trkpt lat="46.18292" lon="7.29386"><ele>1303</ele><time>2016-08-28T10:11:53Z</time></trkpt>
<trkpt lat="46.18291" lon="7.29382"><ele>1303</ele><time>2016-08-28T10:11:54Z</time></trkpt>
<trkpt lat="46.18289" lon="7.29372"><ele>1303.4</ele><time>2016-08-28T10:11:56Z</time></trkpt>
<trkpt lat="46.18287" lon="7.29363"><ele>1303.6</ele><time>2016-08-28T10:11:58Z</time></trkpt>
<trkpt lat="46.18285" lon="7.29354"><ele>1303.8</ele><time>2016-08-28T10:12:00Z</time></trkpt>
<trkpt lat="46.18283" lon="7.29344"><ele>1304</ele><time>2016-08-28T10:12:02Z</time></trkpt>
<trkpt lat="46.18281" lon="7.29335"><ele>1304.2</ele><time>2016-08-28T10:12:04Z</time></trkpt>
<trkpt lat="46.18279" lon="7.29326"><ele>1304.6</ele><time>2016-08-28T10:12:06Z</time></trkpt>
<trkpt lat="46.18278" lon="7.29321"><ele>1304.6</ele><time>2016-08-28T10:12:07Z</time></trkpt>
<trkpt lat="46.18277" lon="7.29315"><ele>1304.8</ele><time>2016-08-28T10:12:08Z</time></trkpt>
<trkpt lat="46.18276" lon="7.29304"><ele>1305.2</ele><time>2016-08-28T10:12:10Z</time></trkpt>
<trkpt lat="46.18274" lon="7.29293"><ele>1305.6</ele><time>2016-08-28T10:12:12Z</time></trkpt>
<trkpt lat="46.18273" lon="7.29287"><ele>1305.8</ele><time>2016-08-28T10:12:13Z</time></trkpt>
<trkpt lat="46.18272" lon="7.29281"><ele>1306</ele><time>2016-08-28T10:12:14Z</time></trkpt>
<trkpt lat="46.1827" lon="7.2927"><ele>1306.4</ele><time>2016-08-28T10:12:16Z</time></trkpt>
<trkpt lat="46.18268" lon="7.29258"><ele>1306.8</ele><time>2016-08-28T10:12:18Z</time></trkpt>
<trkpt lat="46.18267" lon="7.29253"><ele>1307</ele><time>2016-08-28T10:12:19Z</time></trkpt>
<trkpt lat="46.18266" lon="7.29247"><ele>1307.2</ele><time>2016-08-28T10:12:20Z</time></trkpt>
<trkpt lat="46.18264" lon="7.29237"><ele>1307.6</ele><time>2016-08-28T10:12:22Z</time></trkpt>
<trkpt lat="46.18261" lon="7.29226"><ele>1307.8</ele><time>2016-08-28T10:12:24Z</time></trkpt>
<trkpt lat="46.18259" lon="7.29216"><ele>1308.2</ele><time>2016-08-28T10:12:26Z</time></trkpt>
<trkpt lat="46.18253" lon="7.2921"><ele>1308.6</ele><time>2016-08-28T10:12:28Z</time></trkpt>
<trkpt lat="46.18247" lon="7.29205"><ele>1309</ele><time>2016-08-28T10:12:30Z</time></trkpt>
<trkpt lat="46.18243" lon="7.29203"><ele>1309.2</ele><time>2016-08-28T10:12:31Z</time></trkpt>
<trkpt lat="46.18241" lon="7.29204"><ele>1309.2</ele><time>2016-08-28T10:12:32Z</time></trkpt>
<trkpt lat="46.18237" lon="7.29208"><ele>1309.6</ele><time>2016-08-28T10:12:34Z</time></trkpt>
<trkpt lat="46.18235" lon="7.29209"><ele>1309.8</ele><time>2016-08-28T10:12:35Z</time></trkpt>
<trkpt lat="46.18233" lon="7.29211"><ele>1309.8</ele><time>2016-08-28T10:12:36Z</time></trkpt>
<trkpt lat="46.18229" lon="7.29215"><ele>1309.8</ele><time>2016-08-28T10:12:38Z</time></trkpt>
<trkpt lat="46.18224" lon="7.29218"><ele>1309.8</ele><time>2016-08-28T10:12:40Z</time></trkpt>
<trkpt lat="46.18222" lon="7.2922"><ele>1309.8</ele><time>2016-08-28T10:12:41Z</time></trkpt>
<trkpt lat="46.18222" lon="7.29219"><ele>1309.8</ele><time>2016-08-28T10:12:42Z</time></trkpt>
<trkpt lat="46.18221" lon="7.29216"><ele>1309.8</ele><time>2016-08-28T10:12:44Z</time></trkpt>
<trkpt lat="46.1822" lon="7.29213"><ele>1310</ele><time>2016-08-28T10:12:46Z</time></trkpt>
<trkpt lat="46.18219" lon="7.2921"><ele>1310</ele><time>2016-08-28T10:12:48Z</time></trkpt>
<trkpt lat="46.18218" lon="7.29207"><ele>1310</ele><time>2016-08-28T10:12:50Z</time></trkpt>
<trkpt lat="46.18217" lon="7.29205"><ele>1310</ele><time>2016-08-28T10:12:51Z</time></trkpt>
<trkpt lat="46.18218" lon="7.29205"><ele>1310</ele><time>2016-08-28T10:12:52Z</time></trkpt>
<trkpt lat="46.18221" lon="7.29205"><ele>1310.2</ele><time>2016-08-28T10:12:54Z</time></trkpt>
<trkpt lat="46.18222" lon="7.29209"><ele>1310.2</ele><time>2016-08-28T10:12:56Z</time></trkpt>
<trkpt lat="46.18223" lon="7.29211"><ele>1310.2</ele><time>2016-08-28T10:12:57Z</time></trkpt>
<trkpt lat="46.18223" lon="7.29212"><ele>1310.2</ele><time>2016-08-28T10:12:58Z</time></trkpt>
<trkpt lat="46.18223" lon="7.29212"><ele>1310.2</ele><time>2016-08-28T10:13:00Z</time></trkpt>
<trkpt lat="46.18223" lon="7.29212"><ele>1310.4</ele><time>2016-08-28T10:13:02Z</time></trkpt>
<trkpt lat="46.18223" lon="7.29212"><ele>1310.4</ele><time>2016-08-28T10:13:05Z</time></trkpt>
<trkpt lat="46.18225" lon="7.29227"><ele>1344.6</ele><time>2016-08-28T10:30:08Z</time></trkpt>
<trkpt lat="46.18226" lon="7.29227"><ele>1344.4</ele><time>2016-08-28T10:30:11Z</time></trkpt>
<trkpt lat="46.18227" lon="7.29228"><ele>1344.2</ele><time>2016-08-28T10:30:13Z</time></trkpt>
<trkpt lat="46.18227" lon="7.29228"><ele>1344.2</ele><time>2016-08-28T10:30:15Z</time></trkpt>
<trkpt lat="46.18228" lon="7.29228"><ele>1344</ele><time>2016-08-28T10:30:17Z</time></trkpt>
<trkpt lat="46.18228" lon="7.29228"><ele>1344</ele><time>2016-08-28T10:30:18Z</time></trkpt>
<trkpt lat="46.18229" lon="7.29227"><ele>1344</ele><time>2016-08-28T10:30:19Z</time></trkpt>
<trkpt lat="46.18231" lon="7.29224"><ele>1343.8</ele><time>2016-08-28T10:30:21Z</time></trkpt>
<trkpt lat="46.18233" lon="7.29222"><ele>1343.6</ele><time>2016-08-28T10:30:23Z</time></trkpt>
<trkpt lat="46.18235" lon="7.29219"><ele>1343.6</ele><time>2016-08-28T10:30:25Z</time></trkpt>
<trkpt lat="46.18237" lon="7.29216"><ele>1343.4</ele><time>2016-08-28T10:30:27Z</time></trkpt>
<trkpt lat="46.18239" lon="7.29213"><ele>1343.2</ele><time>2016-08-28T10:30:29Z</time></trkpt>
<trkpt lat="46.18241" lon="7.29211"><ele>1343.2</ele><time>2016-08-28T10:30:31Z</time></trkpt>
<trkpt lat="46.18243" lon="7.29208"><ele>1343</ele><time>2016-08-28T10:30:33Z</time></trkpt>
<trkpt lat="46.18245" lon="7.29205"><ele>1343</ele><time>2016-08-28T10:30:35Z</time></trkpt>
<trkpt lat="46.18247" lon="7.29203"><ele>1342.8</ele><time>2016-08-28T10:30:37Z</time></trkpt>
<trkpt lat="46.18249" lon="7.292"><ele>1342.6</ele><time>2016-08-28T10:30:39Z</time></trkpt>
<trkpt lat="46.1825" lon="7.29198"><ele>1342.6</ele><time>2016-08-28T10:30:40Z</time></trkpt>
<trkpt lat="46.18252" lon="7.29201"><ele>1342.6</ele><time>2016-08-28T10:30:41Z</time></trkpt>
<trkpt lat="46.18255" lon="7.29207"><ele>1342.4</ele><time>2016-08-28T10:30:43Z</time></trkpt>
<trkpt lat="46.18257" lon="7.29213"><ele>1342.2</ele><time>2016-08-28T10:30:45Z</time></trkpt>
<trkpt lat="46.1826" lon="7.29219"><ele>1342.2</ele><time>2016-08-28T10:30:47Z</time></trkpt>
<trkpt lat="46.18261" lon="7.29231"><ele>1342</ele><time>2016-08-28T10:30:49Z</time></trkpt>
<trkpt lat="46.18262" lon="7.29244"><ele>1341.8</ele><time>2016-08-28T10:30:51Z</time></trkpt>
<trkpt lat="46.18263" lon="7.29256"><ele>1341.8</ele><time>2016-08-28T10:30:53Z</time></trkpt>
<trkpt lat="46.18264" lon="7.29269"><ele>1341.6</ele><time>2016-08-28T10:30:55Z</time></trkpt>
<trkpt lat="46.18265" lon="7.29281"><ele>1341.6</ele><time>2016-08-28T10:30:57Z</time></trkpt>
<trkpt lat="46.18265" lon="7.29287"><ele>1341.4</ele><time>2016-08-28T10:30:58Z</time></trkpt>
<trkpt lat="46.18267" lon="7.29295"><ele>1341.4</ele><time>2016-08-28T10:30:59Z</time></trkpt>
<trkpt lat="46.1827" lon="7.29311"><ele>1341.2</ele><time>2016-08-28T10:31:01Z</time></trkpt>
<trkpt lat="46.18273" lon="7.29327"><ele>1341.2</ele><time>2016-08-28T10:31:03Z</time></trkpt>
<trkpt lat="46.18274" lon="7.29335"><ele>1341</ele><time>2016-08-28T10:31:04Z</time></trkpt>
<trkpt lat="46.18277" lon="7.29341"><ele>1340.8</ele><time>2016-08-28T10:31:05Z</time></trkpt>
<trkpt lat="46.18283" lon="7.29354"><ele>1340.2</ele><time>2016-08-28T10:31:07Z</time></trkpt>
<trkpt lat="46.18286" lon="7.2936"><ele>1340</ele><time>2016-08-28T10:31:08Z</time></trkpt>
<trkpt lat="46.18287" lon="7.29368"><ele>1339.8</ele><time>2016-08-28T10:31:09Z</time></trkpt>
<trkpt lat="46.1829" lon="7.29383"><ele>1339.2</ele><time>2016-08-28T10:31:11Z</time></trkpt>
<trkpt lat="46.18293" lon="7.29398"><ele>1338.8</ele><time>2016-08-28T10:31:13Z</time></trkpt>
<trkpt lat="46.18292" lon="7.29411"><ele>1338.4</ele><time>2016-08-28T10:31:15Z</time></trkpt>
<trkpt lat="46.18291" lon="7.29423"><ele>1338</ele><time>2016-08-28T10:31:17Z</time></trkpt>
<trkpt lat="46.18298" lon="7.29436"><ele>1337.4</ele><time>2016-08-28T10:31:19Z</time></trkpt>
<trkpt lat="46.18304" lon="7.2945"><ele>1337</ele><time>2016-08-28T10:31:21Z</time></trkpt>
<trkpt lat="46.18305" lon="7.29466"><ele>1336.6</ele><time>2016-08-28T10:31:23Z</time></trkpt>
<trkpt lat="46.18306" lon="7.29482"><ele>1336.2</ele><time>2016-08-28T10:31:25Z</time></trkpt>
<trkpt lat="46.18307" lon="7.2949"><ele>1336</ele><time>2016-08-28T10:31:26Z</time></trkpt>
<trkpt lat="46.18305" lon="7.29494"><ele>1335.8</ele><time>2016-08-28T10:31:27Z</time></trkpt>
<trkpt lat="46.183" lon="7.29502"><ele>1336</ele><time>2016-08-28T10:31:29Z</time></trkpt>
<trkpt lat="46.18295" lon="7.2951"><ele>1336.4</ele><time>2016-08-28T10:31:31Z</time></trkpt>
<trkpt lat="46.18291" lon="7.29518"><ele>1336.6</ele><time>2016-08-28T10:31:33Z</time></trkpt>
<trkpt lat="46.18286" lon="7.29526"><ele>1337</ele><time>2016-08-28T10:31:35Z</time></trkpt>
<trkpt lat="46.18284" lon="7.29531"><ele>1337.2</ele><time>2016-08-28T10:31:36Z</time></trkpt>
<trkpt lat="46.18281" lon="7.29531"><ele>1337.4</ele><time>2016-08-28T10:31:37Z</time></trkpt>
<trkpt lat="46.18277" lon="7.29531"><ele>1337.4</ele><time>2016-08-28T10:31:38Z</time></trkpt>
<trkpt lat="46.18274" lon="7.29532"><ele>1337.8</ele><time>2016-08-28T10:31:39Z</time></trkpt>
<trkpt lat="46.18267" lon="7.29532"><ele>1338.6</ele><time>2016-08-28T10:31:41Z</time></trkpt>
<trkpt lat="46.1826" lon="7.29533"><ele>1339.2</ele><time>2016-08-28T10:31:43Z</time></trkpt>
<trkpt lat="46.18257" lon="7.29533"><ele>1339.4</ele><time>2016-08-28T10:31:44Z</time></trkpt>
<trkpt lat="46.18255" lon="7.29531"><ele>1339.8</ele><time>2016-08-28T10:31:45Z</time></trkpt>
<trkpt lat="46.1825" lon="7.29527"><ele>1340.2</ele><time>2016-08-28T10:31:47Z</time></trkpt>
<trkpt lat="46.18246" lon="7.29522"><ele>1340.8</ele><time>2016-08-28T10:31:49Z</time></trkpt>
<trkpt lat="46.18242" lon="7.29517"><ele>1341.2</ele><time>2016-08-28T10:31:51Z</time></trkpt>
<trkpt lat="46.18237" lon="7.29513"><ele>1341.8</ele><time>2016-08-28T10:31:53Z</time></trkpt>
<trkpt lat="46.18235" lon="7.29511"><ele>1342</ele><time>2016-08-28T10:31:54Z</time></trkpt>
<trkpt lat="46.18233" lon="7.29508"><ele>1342.2</ele><time>2016-08-28T10:31:55Z</time></trkpt>
<trkpt lat="46.18228" lon="7.29504"><ele>1342.6</ele><time>2016-08-28T10:31:57Z</time></trkpt>
<trkpt lat="46.18224" lon="7.29499"><ele>1343</ele><time>2016-08-28T10:31:59Z</time></trkpt>
<trkpt lat="46.1822" lon="7.29495"><ele>1343.4</ele><time>2016-08-28T10:32:01Z</time></trkpt>
<trkpt lat="46.18215" lon="7.29492"><ele>1343.8</ele><time>2016-08-28T10:32:03Z</time></trkpt>
<trkpt lat="46.18211" lon="7.29489"><ele>1344.2</ele><time>2016-08-28T10:32:05Z</time></trkpt>
<trkpt lat="46.18207" lon="7.29486"><ele>1344.6</ele><time>2016-08-28T10:32:07Z</time></trkpt>
<trkpt lat="46.18203" lon="7.29483"><ele>1345</ele><time>2016-08-28T10:32:09Z</time></trkpt>
<trkpt lat="46.18199" lon="7.2948"><ele>1345.4</ele><time>2016-08-28T10:32:11Z</time></trkpt>
<trkpt lat="46.18195" lon="7.29477"><ele>1345.8</ele><time>2016-08-28T10:32:13Z</time></trkpt>
<trkpt lat="46.18191" lon="7.29474"><ele>1346.2</ele><time>2016-08-28T10:32:15Z</time></trkpt>
<trkpt lat="46.18187" lon="7.29471"><ele>1346.6</ele><time>2016-08-28T10:32:17Z</time></trkpt>
<trkpt lat="46.18183" lon="7.29468"><ele>1346.8</ele><time>2016-08-28T10:32:19Z</time></trkpt>
<trkpt lat="46.18179" lon="7.29465"><ele>1347.2</ele><time>2016-08-28T10:32:21Z</time></trkpt>
<trkpt lat="46.18177" lon="7.29464"><ele>1347.4</ele><time>2016-08-28T10:32:22Z</time></trkpt>
<trkpt lat="46.18175" lon="7.29464"><ele>1347.6</ele><time>2016-08-28T10:32:23Z</time></trkpt>
<trkpt lat="46.18172" lon="7.29463"><ele>1347.8</ele><time>2016-08-28T10:32:25Z</time></trkpt>
<trkpt lat="46.18169" lon="7.29462"><ele>1348.2</ele><time>2016-08-28T10:32:27Z</time></trkpt>
<trkpt lat="46.18165" lon="7.29461"><ele>1348.4</ele><time>2016-08-28T10:32:29Z</time></trkpt>
<trkpt lat="46.18162" lon="7.29461"><ele>1348.6</ele><time>2016-08-28T10:32:31Z</time></trkpt>
<trkpt lat="46.18158" lon="7.2946"><ele>1349</ele><time>2016-08-28T10:32:33Z</time></trkpt>
<trkpt lat="46.18155" lon="7.29459"><ele>1349.2</ele><time>2016-08-28T10:32:35Z</time></trkpt>
<trkpt lat="46.18152" lon="7.29458"><ele>1349.4</ele><time>2016-08-28T10:32:37Z</time></trkpt>
<trkpt lat="46.18148" lon="7.29457"><ele>1349.8</ele><time>2016-08-28T10:32:39Z</time></trkpt>
<trkpt lat="46.18145" lon="7.29456"><ele>1350</ele><time>2016-08-28T10:32:41Z</time></trkpt>
<trkpt lat="46.18141" lon="7.29455"><ele>1350.2</ele><time>2016-08-28T10:32:43Z</time></trkpt>
<trkpt lat="46.18138" lon="7.29455"><ele>1350.6</ele><time>2016-08-28T10:32:45Z</time></trkpt>
<trkpt lat="46.18135" lon="7.29454"><ele>1350.8</ele><time>2016-08-28T10:32:47Z</time></trkpt>
<trkpt lat="46.18133" lon="7.29453"><ele>1351</ele><time>2016-08-28T10:32:48Z</time></trkpt>
<trkpt lat="46.18131" lon="7.29453"><ele>1351.2</ele><time>2016-08-28T10:32:49Z</time></trkpt>
<trkpt lat="46.18126" lon="7.29454"><ele>1351.4</ele><time>2016-08-28T10:32:51Z</time></trkpt>
<trkpt lat="46.18122" lon="7.29454"><ele>1351.8</ele><time>2016-08-28T10:32:53Z</time></trkpt>
<trkpt lat="46.1812" lon="7.29455"><ele>1352</ele><time>2016-08-28T10:32:54Z</time></trkpt>
<trkpt lat="46.18118" lon="7.29455"><ele>1352.2</ele><time>2016-08-28T10:32:55Z</time></trkpt>
<trkpt lat="46.18113" lon="7.29455"><ele>1352.6</ele><time>2016-08-28T10:32:57Z</time></trkpt>
<trkpt lat="46.18109" lon="7.29456"><ele>1352.8</ele><time>2016-08-28T10:32:59Z</time></trkpt>
<trkpt lat="46.18107" lon="7.29456"><ele>1353</ele><time>2016-08-28T10:33:00Z</time></trkpt>
<trkpt lat="46.18104" lon="7.29456"><ele>1353.2</ele><time>2016-08-28T10:33:01Z</time></trkpt>
<trkpt lat="46.181" lon="7.29457"><ele>1353.6</ele><time>2016-08-28T10:33:03Z</time></trkpt>
<trkpt lat="46.18096" lon="7.29457"><ele>1354</ele><time>2016-08-28T10:33:05Z</time></trkpt>
<trkpt lat="46.18091" lon="7.29458"><ele>1354.4</ele><time>2016-08-28T10:33:07Z</time></trkpt>
<trkpt lat="46.18087" lon="7.29458"><ele>1354.8</ele><time>2016-08-28T10:33:09Z</time></trkpt>
<trkpt lat="46.18082" lon="7.2946"><ele>1355.2</ele><time>2016-08-28T10:33:11Z</time></trkpt>
<trkpt lat="46.18078" lon="7.29462"><ele>1355.4</ele><time>2016-08-28T10:33:13Z</time></trkpt>
<trkpt lat="46.18073" lon="7.29465"><ele>1355.8</ele><time>2016-08-28T10:33:15Z</time></trkpt>
<trkpt lat="46.18068" lon="7.29467"><ele>1356.2</ele><time>2016-08-28T10:33:17Z</time></trkpt>
<trkpt lat="46.18064" lon="7.29469"><ele>1356.6</ele><time>2016-08-28T10:33:19Z</time></trkpt>
<trkpt lat="46.18059" lon="7.29471"><ele>1357</ele><time>2016-08-28T10:33:21Z</time></trkpt>
<trkpt lat="46.18055" lon="7.29473"><ele>1357.4</ele><time>2016-08-28T10:33:23Z</time></trkpt>
<trkpt lat="46.1805" lon="7.29475"><ele>1357.6</ele><time>2016-08-28T10:33:25Z</time></trkpt>
<trkpt lat="46.18046" lon="7.29477"><ele>1358</ele><time>2016-08-28T10:33:27Z</time></trkpt>
<trkpt lat="46.18043" lon="7.29478"><ele>1358.2</ele><time>2016-08-28T10:33:28Z</time></trkpt>
<trkpt lat="46.18041" lon="7.29481"><ele>1358.4</ele><time>2016-08-28T10:33:29Z</time></trkpt>
<trkpt lat="46.18038" lon="7.29485"><ele>1358.8</ele><time>2016-08-28T10:33:31Z</time></trkpt>
<trkpt lat="46.18034" lon="7.29489"><ele>1359.2</ele><time>2016-08-28T10:33:33Z</time></trkpt>
<trkpt lat="46.18032" lon="7.29491"><ele>1359.4</ele><time>2016-08-28T10:33:34Z</time></trkpt>
<trkpt lat="46.1803" lon="7.29494"><ele>1359.4</ele><time>2016-08-28T10:33:35Z</time></trkpt>
<trkpt lat="46.18027" lon="7.29498"><ele>1359.6</ele><time>2016-08-28T10:33:37Z</time></trkpt>
<trkpt lat="46.18023" lon="7.29502"><ele>1359.8</ele><time>2016-08-28T10:33:39Z</time></trkpt>
<trkpt lat="46.18019" lon="7.29507"><ele>1360</ele><time>2016-08-28T10:33:41Z</time></trkpt>
<trkpt lat="46.18015" lon="7.29511"><ele>1360.2</ele><time>2016-08-28T10:33:43Z</time></trkpt>
<trkpt lat="46.18008" lon="7.2952"><ele>1360.4</ele><time>2016-08-28T10:33:47Z</time></trkpt>
<trkpt lat="46.17995" lon="7.29562"><ele>1361.2</ele><time>2016-08-28T10:33:55Z</time></trkpt>
<trkpt lat="46.17996" lon="7.29588"><ele>1361.4</ele><time>2016-08-28T10:33:58Z</time></trkpt>
<trkpt lat="46.17998" lon="7.29632"><ele>1359.8</ele><time>2016-08-28T10:34:03Z</time></trkpt>
<trkpt lat="46.17996" lon="7.29683"><ele>1358.6</ele><time>2016-08-28T10:34:07Z</time></trkpt>
<trkpt lat="46.17996" lon="7.29709"><ele>1358</ele><time>2016-08-28T10:34:09Z</time></trkpt>
<trkpt lat="46.17993" lon="7.29736"><ele>1357.2</ele><time>2016-08-28T10:34:11Z</time></trkpt>
<trkpt lat="46.17991" lon="7.29763"><ele>1356.4</ele><time>2016-08-28T10:34:13Z</time></trkpt>
<trkpt lat="46.1799" lon="7.29777"><ele>1356</ele><time>2016-08-28T10:34:14Z</time></trkpt>
<trkpt lat="46.17991" lon="7.2979"><ele>1355.6</ele><time>2016-08-28T10:34:15Z</time></trkpt>
<trkpt lat="46.17992" lon="7.29815"><ele>1355.2</ele><time>2016-08-28T10:34:17Z</time></trkpt>
<trkpt lat="46.17994" lon="7.29839"><ele>1354.6</ele><time>2016-08-28T10:34:19Z</time></trkpt>
<trkpt lat="46.17995" lon="7.29852"><ele>1354.4</ele><time>2016-08-28T10:34:20Z</time></trkpt>
<trkpt lat="46.17996" lon="7.29864"><ele>1354.2</ele><time>2016-08-28T10:34:21Z</time></trkpt>
<trkpt lat="46.17998" lon="7.29888"><ele>1353.8</ele><time>2016-08-28T10:34:23Z</time></trkpt>
<trkpt lat="46.18001" lon="7.29911"><ele>1353.2</ele><time>2016-08-28T10:34:25Z</time></trkpt>
<trkpt lat="46.18002" lon="7.29923"><ele>1353</ele><time>2016-08-28T10:34:26Z</time></trkpt>
<trkpt lat="46.18004" lon="7.29936"><ele>1352.8</ele><time>2016-08-28T10:34:27Z</time></trkpt>
<trkpt lat="46.1801" lon="7.29962"><ele>1352.4</ele><time>2016-08-28T10:34:29Z</time></trkpt>
<trkpt lat="46.18016" lon="7.29987"><ele>1352</ele><time>2016-08-28T10:34:31Z</time></trkpt>
<trkpt lat="46.18024" lon="7.30016"><ele>1350.4</ele><time>2016-08-28T10:34:33Z</time></trkpt>
<trkpt lat="46.18031" lon="7.30044"><ele>1348.8</ele><time>2016-08-28T10:34:35Z</time></trkpt>
<trkpt lat="46.18034" lon="7.30061"><ele>1348</ele><time>2016-08-28T10:34:36Z</time></trkpt>
<trkpt lat="46.18036" lon="7.30078"><ele>1347</ele><time>2016-08-28T10:34:37Z</time></trkpt>
<trkpt lat="46.1804" lon="7.30112"><ele>1345</ele><time>2016-08-28T10:34:39Z</time></trkpt>
<trkpt lat="46.18045" lon="7.3015"><ele>1342.8</ele><time>2016-08-28T10:34:41Z</time></trkpt>
<trkpt lat="46.1805" lon="7.30187"><ele>1340.8</ele><time>2016-08-28T10:34:43Z</time></trkpt>
<trkpt lat="46.18055" lon="7.30227"><ele>1338.6</ele><time>2016-08-28T10:34:45Z</time></trkpt>
<trkpt lat="46.1806" lon="7.30267"><ele>1336.6</ele><time>2016-08-28T10:34:47Z</time></trkpt>
<trkpt lat="46.18065" lon="7.3031"><ele>1334</ele><time>2016-08-28T10:34:49Z</time></trkpt>
<trkpt lat="46.18067" lon="7.30332"><ele>1332.6</ele><time>2016-08-28T10:34:50Z</time></trkpt>
<trkpt lat="46.18069" lon="7.3035"><ele>1331.4</ele><time>2016-08-28T10:34:51Z</time></trkpt>
<trkpt lat="46.18073" lon="7.30385"><ele>1328.8</ele><time>2016-08-28T10:34:53Z</time></trkpt>
<trkpt lat="46.18075" lon="7.30403"><ele>1327.8</ele><time>2016-08-28T10:34:54Z</time></trkpt>
<trkpt lat="46.18078" lon="7.30417"><ele>1326.6</ele><time>2016-08-28T10:34:55Z</time></trkpt>
<trkpt lat="46.18084" lon="7.30444"><ele>1324.6</ele><time>2016-08-28T10:34:57Z</time></trkpt>
<trkpt lat="46.18088" lon="7.30457"><ele>1323.4</ele><time>2016-08-28T10:34:58Z</time></trkpt>
<trkpt lat="46.18088" lon="7.30467"><ele>1322.4</ele><time>2016-08-28T10:34:59Z</time></trkpt>
<trkpt lat="46.18088" lon="7.30487"><ele>1322.6</ele><time>2016-08-28T10:35:01Z</time></trkpt>
<trkpt lat="46.18088" lon="7.30507"><ele>1323</ele><time>2016-08-28T10:35:03Z</time></trkpt>
<trkpt lat="46.18089" lon="7.30527"><ele>1323.4</ele><time>2016-08-28T10:35:05Z</time></trkpt>
<trkpt lat="46.18088" lon="7.30544"><ele>1323.8</ele><time>2016-08-28T10:35:07Z</time></trkpt>
<trkpt lat="46.18087" lon="7.30561"><ele>1324</ele><time>2016-08-28T10:35:09Z</time></trkpt>
<trkpt lat="46.18087" lon="7.30577"><ele>1324.4</ele><time>2016-08-28T10:35:11Z</time></trkpt>
<trkpt lat="46.18086" lon="7.30594"><ele>1324.8</ele><time>2016-08-28T10:35:13Z</time></trkpt>
<trkpt lat="46.18086" lon="7.30607"><ele>1325.2</ele><time>2016-08-28T10:35:15Z</time></trkpt>
<trkpt lat="46.18086" lon="7.30613"><ele>1325.2</ele><time>2016-08-28T10:35:16Z</time></trkpt>
<trkpt lat="46.18086" lon="7.3062"><ele>1325.4</ele><time>2016-08-28T10:35:17Z</time></trkpt>
<trkpt lat="46.18086" lon="7.30632"><ele>1325.6</ele><time>2016-08-28T10:35:19Z</time></trkpt>
<trkpt lat="46.18085" lon="7.30645"><ele>1325.6</ele><time>2016-08-28T10:35:21Z</time></trkpt>
<trkpt lat="46.18085" lon="7.30652"><ele>1325.8</ele><time>2016-08-28T10:35:22Z</time></trkpt>
<trkpt lat="46.18085" lon="7.30657"><ele>1325.8</ele><time>2016-08-28T10:35:23Z</time></trkpt>
<trkpt lat="46.18083" lon="7.30666"><ele>1326.2</ele><time>2016-08-28T10:35:25Z</time></trkpt>
<trkpt lat="46.18081" lon="7.30676"><ele>1326.4</ele><time>2016-08-28T10:35:27Z</time></trkpt>
<trkpt lat="46.1808" lon="7.30685"><ele>1326.6</ele><time>2016-08-28T10:35:29Z</time></trkpt>
<trkpt lat="46.18078" lon="7.30695"><ele>1326.8</ele><time>2016-08-28T10:35:31Z</time></trkpt>
<trkpt lat="46.18077" lon="7.307"><ele>1327</ele><time>2016-08-28T10:35:32Z</time></trkpt>
<trkpt lat="46.18076" lon="7.30704"><ele>1327</ele><time>2016-08-28T10:35:33Z</time></trkpt>
<trkpt lat="46.18075" lon="7.30714"><ele>1327.4</ele><time>2016-08-28T10:35:35Z</time></trkpt>
<trkpt lat="46.18074" lon="7.30719"><ele>1327.6</ele><time>2016-08-28T10:35:36Z</time></trkpt>
<trkpt lat="46.18074" lon="7.30723"><ele>1327.8</ele><time>2016-08-28T10:35:37Z</time></trkpt>
<trkpt lat="46.18074" lon="7.30728"><ele>1328</ele><time>2016-08-28T10:35:38Z</time></trkpt>
<trkpt lat="46.18074" lon="7.30732"><ele>1328</ele><time>2016-08-28T10:35:39Z</time></trkpt>
<trkpt lat="46.18073" lon="7.30742"><ele>1328.4</ele><time>2016-08-28T10:35:41Z</time></trkpt>
<trkpt lat="46.18073" lon="7.30751"><ele>1328.6</ele><time>2016-08-28T10:35:43Z</time></trkpt>
<trkpt lat="46.18072" lon="7.30787"><ele>1329.8</ele><time>2016-08-28T10:35:51Z</time></trkpt>
<trkpt lat="46.18068" lon="7.30825"><ele>1331.2</ele><time>2016-08-28T10:36:01Z</time></trkpt>
<trkpt lat="46.18066" lon="7.30841"><ele>1332</ele><time>2016-08-28T10:36:05Z</time></trkpt>
<trkpt lat="46.18065" lon="7.30848"><ele>1332.4</ele><time>2016-08-28T10:36:07Z</time></trkpt>
<trkpt lat="46.18064" lon="7.30852"><ele>1332.6</ele><time>2016-08-28T10:36:08Z</time></trkpt>
<trkpt lat="46.18064" lon="7.30855"><ele>1332.8</ele><time>2016-08-28T10:36:09Z</time></trkpt>
<trkpt lat="46.18062" lon="7.30861"><ele>1333</ele><time>2016-08-28T10:36:11Z</time></trkpt>
<trkpt lat="46.18061" lon="7.30867"><ele>1333.4</ele><time>2016-08-28T10:36:13Z</time></trkpt>
<trkpt lat="46.1806" lon="7.30873"><ele>1333.8</ele><time>2016-08-28T10:36:15Z</time></trkpt>
<trkpt lat="46.18059" lon="7.30878"><ele>1334.2</ele><time>2016-08-28T10:36:17Z</time></trkpt>
<trkpt lat="46.18058" lon="7.30881"><ele>1334.4</ele><time>2016-08-28T10:36:18Z</time></trkpt>
<trkpt lat="46.18058" lon="7.30884"><ele>1334.6</ele><time>2016-08-28T10:36:19Z</time></trkpt>
<trkpt lat="46.18057" lon="7.3089"><ele>1335</ele><time>2016-08-28T10:36:21Z</time></trkpt>
<trkpt lat="46.18055" lon="7.30896"><ele>1335.4</ele><time>2016-08-28T10:36:23Z</time></trkpt>
<trkpt lat="46.18054" lon="7.30902"><ele>1335.8</ele><time>2016-08-28T10:36:25Z</time></trkpt>
<trkpt lat="46.18053" lon="7.30907"><ele>1336.2</ele><time>2016-08-28T10:36:27Z</time></trkpt>
<trkpt lat="46.18052" lon="7.30913"><ele>1336.6</ele><time>2016-08-28T10:36:29Z</time></trkpt>
<trkpt lat="46.18051" lon="7.30916"><ele>1336.8</ele><time>2016-08-28T10:36:30Z</time></trkpt>
<trkpt lat="46.18051" lon="7.30919"><ele>1337</ele><time>2016-08-28T10:36:31Z</time></trkpt>
<trkpt lat="46.18049" lon="7.30925"><ele>1337.4</ele><time>2016-08-28T10:36:33Z</time></trkpt>
<trkpt lat="46.18048" lon="7.30928"><ele>1337.6</ele><time>2016-08-28T10:36:34Z</time></trkpt>
<trkpt lat="46.18048" lon="7.3093"><ele>1337.8</ele><time>2016-08-28T10:36:35Z</time></trkpt>
<trkpt lat="46.18046" lon="7.30936"><ele>1338.2</ele><time>2016-08-28T10:36:37Z</time></trkpt>
<trkpt lat="46.18045" lon="7.30942"><ele>1338.6</ele><time>2016-08-28T10:36:39Z</time></trkpt>
<trkpt lat="46.18043" lon="7.30948"><ele>1339</ele><time>2016-08-28T10:36:41Z</time></trkpt>
<trkpt lat="46.18042" lon="7.30953"><ele>1339.4</ele><time>2016-08-28T10:36:43Z</time></trkpt>
<trkpt lat="46.18041" lon="7.30959"><ele>1339.8</ele><time>2016-08-28T10:36:45Z</time></trkpt>
<trkpt lat="46.18039" lon="7.30965"><ele>1340.2</ele><time>2016-08-28T10:36:47Z</time></trkpt>
<trkpt lat="46.18038" lon="7.30971"><ele>1340.6</ele><time>2016-08-28T10:36:49Z</time></trkpt>
<trkpt lat="46.18037" lon="7.30974"><ele>1340.8</ele><time>2016-08-28T10:36:50Z</time></trkpt>
<trkpt lat="46.18036" lon="7.30977"><ele>1341</ele><time>2016-08-28T10:36:51Z</time></trkpt>
<trkpt lat="46.18036" lon="7.30979"><ele>1341.2</ele><time>2016-08-28T10:36:52Z</time></trkpt>
<trkpt lat="46.18034" lon="7.30982"><ele>1341.4</ele><time>2016-08-28T10:36:53Z</time></trkpt>
<trkpt lat="46.18032" lon="7.30987"><ele>1341.8</ele><time>2016-08-28T10:36:55Z</time></trkpt>
<trkpt lat="46.1803" lon="7.30992"><ele>1342.2</ele><time>2016-08-28T10:36:57Z</time></trkpt>
<trkpt lat="46.18027" lon="7.30997"><ele>1342.6</ele><time>2016-08-28T10:36:59Z</time></trkpt>
<trkpt lat="46.18025" lon="7.31002"><ele>1343</ele><time>2016-08-28T10:37:01Z</time></trkpt>
<trkpt lat="46.18022" lon="7.31007"><ele>1343.4</ele><time>2016-08-28T10:37:03Z</time></trkpt>
<trkpt lat="46.1802" lon="7.31012"><ele>1343.8</ele><time>2016-08-28T10:37:05Z</time></trkpt>
<trkpt lat="46.18019" lon="7.31015"><ele>1343.8</ele><time>2016-08-28T10:37:06Z</time></trkpt>
<trkpt lat="46.18017" lon="7.31017"><ele>1344</ele><time>2016-08-28T10:37:07Z</time></trkpt>
<trkpt lat="46.18015" lon="7.31022"><ele>1344.4</ele><time>2016-08-28T10:37:09Z</time></trkpt>
<trkpt lat="46.18013" lon="7.31027"><ele>1344.8</ele><time>2016-08-28T10:37:11Z</time></trkpt>
<trkpt lat="46.1801" lon="7.31032"><ele>1345.2</ele><time>2016-08-28T10:37:13Z</time></trkpt>
<trkpt lat="46.18009" lon="7.31035"><ele>1345.4</ele><time>2016-08-28T10:37:14Z</time></trkpt>
<trkpt lat="46.18007" lon="7.31036"><ele>1345.6</ele><time>2016-08-28T10:37:15Z</time></trkpt>
<trkpt lat="46.18004" lon="7.3104"><ele>1346</ele><time>2016-08-28T10:37:17Z</time></trkpt>
<trkpt lat="46.18001" lon="7.31044"><ele>1346.4</ele><time>2016-08-28T10:37:19Z</time></trkpt>
<trkpt lat="46.17998" lon="7.31047"><ele>1346.8</ele><time>2016-08-28T10:37:21Z</time></trkpt>
<trkpt lat="46.17997" lon="7.31049"><ele>1347</ele><time>2016-08-28T10:37:22Z</time></trkpt>
<trkpt lat="46.17995" lon="7.31051"><ele>1347.2</ele><time>2016-08-28T10:37:23Z</time></trkpt>
<trkpt lat="46.17992" lon="7.31055"><ele>1347.4</ele><time>2016-08-28T10:37:25Z</time></trkpt>
<trkpt lat="46.17989" lon="7.31058"><ele>1347.8</ele><time>2016-08-28T10:37:27Z</time></trkpt>
<trkpt lat="46.17986" lon="7.31062"><ele>1348.2</ele><time>2016-08-28T10:37:29Z</time></trkpt>
<trkpt lat="46.17983" lon="7.31066"><ele>1348.6</ele><time>2016-08-28T10:37:31Z</time></trkpt>
<trkpt lat="46.17979" lon="7.31069"><ele>1349</ele><time>2016-08-28T10:37:33Z</time></trkpt>
<trkpt lat="46.17976" lon="7.31073"><ele>1349.2</ele><time>2016-08-28T10:37:35Z</time></trkpt>
<trkpt lat="46.17973" lon="7.31077"><ele>1349.6</ele><time>2016-08-28T10:37:37Z</time></trkpt>
<trkpt lat="46.17972" lon="7.31081"><ele>1350</ele><time>2016-08-28T10:37:39Z</time></trkpt>
<trkpt lat="46.17971" lon="7.31086"><ele>1350.4</ele><time>2016-08-28T10:37:41Z</time></trkpt>
<trkpt lat="46.17969" lon="7.31091"><ele>1350.6</ele><time>2016-08-28T10:37:43Z</time></trkpt>
<trkpt lat="46.17958" lon="7.31133"><ele>1353.6</ele><time>2016-08-28T10:38:01Z</time></trkpt>
<trkpt lat="46.17957" lon="7.31138"><ele>1354</ele><time>2016-08-28T10:38:03Z</time></trkpt>
<trkpt lat="46.17955" lon="7.31143"><ele>1354.4</ele><time>2016-08-28T10:38:05Z</time></trkpt>
<trkpt lat="46.17954" lon="7.31147"><ele>1354.8</ele><time>2016-08-28T10:38:07Z</time></trkpt>
<trkpt lat="46.17952" lon="7.31152"><ele>1355.2</ele><time>2016-08-28T10:38:09Z</time></trkpt>
<trkpt lat="46.1795" lon="7.31156"><ele>1355.6</ele><time>2016-08-28T10:38:11Z</time></trkpt>
<trkpt lat="46.17949" lon="7.31161"><ele>1356</ele><time>2016-08-28T10:38:13Z</time></trkpt>
<trkpt lat="46.17947" lon="7.31166"><ele>1356.4</ele><time>2016-08-28T10:38:15Z</time></trkpt>
<trkpt lat="46.17946" lon="7.3117"><ele>1356.6</ele><time>2016-08-28T10:38:17Z</time></trkpt>
<trkpt lat="46.17944" lon="7.31175"><ele>1357</ele><time>2016-08-28T10:38:19Z</time></trkpt>
<trkpt lat="46.17942" lon="7.3118"><ele>1357.4</ele><time>2016-08-28T10:38:21Z</time></trkpt>
<trkpt lat="46.17941" lon="7.31184"><ele>1357.8</ele><time>2016-08-28T10:38:23Z</time></trkpt>
<trkpt lat="46.17939" lon="7.31189"><ele>1358.2</ele><time>2016-08-28T10:38:25Z</time></trkpt>
<trkpt lat="46.17938" lon="7.31193"><ele>1358.6</ele><time>2016-08-28T10:38:27Z</time></trkpt>
<trkpt lat="46.17936" lon="7.31198"><ele>1359</ele><time>2016-08-28T10:38:29Z</time></trkpt>
<trkpt lat="46.17933" lon="7.31203"><ele>1359.4</ele><time>2016-08-28T10:38:31Z</time></trkpt>
<trkpt lat="46.17931" lon="7.31207"><ele>1359.8</ele><time>2016-08-28T10:38:33Z</time></trkpt>
<trkpt lat="46.17928" lon="7.31211"><ele>1360.2</ele><time>2016-08-28T10:38:35Z</time></trkpt>
<trkpt lat="46.17925" lon="7.31216"><ele>1360.6</ele><time>2016-08-28T10:38:37Z</time></trkpt>
<trkpt lat="46.17923" lon="7.3122"><ele>1361</ele><time>2016-08-28T10:38:39Z</time></trkpt>
<trkpt lat="46.17921" lon="7.31223"><ele>1361.2</ele><time>2016-08-28T10:38:40Z</time></trkpt>
<trkpt lat="46.1792" lon="7.31225"><ele>1361.4</ele><time>2016-08-28T10:38:41Z</time></trkpt>
<trkpt lat="46.17917" lon="7.31229"><ele>1361.6</ele><time>2016-08-28T10:38:43Z</time></trkpt>
<trkpt lat="46.17915" lon="7.31234"><ele>1362</ele><time>2016-08-28T10:38:45Z</time></trkpt>
<trkpt lat="46.17912" lon="7.31238"><ele>1362.4</ele><time>2016-08-28T10:38:47Z</time></trkpt>
<trkpt lat="46.17909" lon="7.31243"><ele>1362.8</ele><time>2016-08-28T10:38:49Z</time></trkpt>
<trkpt lat="46.17906" lon="7.31247"><ele>1363</ele><time>2016-08-28T10:38:51Z</time></trkpt>
<trkpt lat="46.17903" lon="7.31249"><ele>1363.4</ele><time>2016-08-28T10:38:53Z</time></trkpt>
<trkpt lat="46.17899" lon="7.31251"><ele>1363.8</ele><time>2016-08-28T10:38:55Z</time></trkpt>
<trkpt lat="46.17896" lon="7.31253"><ele>1364.2</ele><time>2016-08-28T10:38:57Z</time></trkpt>
<trkpt lat="46.17892" lon="7.31255"><ele>1364.4</ele><time>2016-08-28T10:38:59Z</time></trkpt>
<trkpt lat="46.17888" lon="7.31257"><ele>1364.8</ele><time>2016-08-28T10:39:01Z</time></trkpt>
<trkpt lat="46.17887" lon="7.31258"><ele>1365</ele><time>2016-08-28T10:39:02Z</time></trkpt>
<trkpt lat="46.17885" lon="7.31259"><ele>1365.2</ele><time>2016-08-28T10:39:03Z</time></trkpt>
<trkpt lat="46.17881" lon="7.31261"><ele>1365.4</ele><time>2016-08-28T10:39:05Z</time></trkpt>
<trkpt lat="46.17878" lon="7.31263"><ele>1365.6</ele><time>2016-08-28T10:39:07Z</time></trkpt>
<trkpt lat="46.17874" lon="7.31265"><ele>1366</ele><time>2016-08-28T10:39:09Z</time></trkpt>
<trkpt lat="46.1787" lon="7.31267"><ele>1366.2</ele><time>2016-08-28T10:39:11Z</time></trkpt>
<trkpt lat="46.17867" lon="7.31269"><ele>1366.6</ele><time>2016-08-28T10:39:13Z</time></trkpt>
<trkpt lat="46.17863" lon="7.31273"><ele>1366.8</ele><time>2016-08-28T10:39:15Z</time></trkpt>
<trkpt lat="46.1786" lon="7.31277"><ele>1367</ele><time>2016-08-28T10:39:17Z</time></trkpt>
<trkpt lat="46.17857" lon="7.31282"><ele>1367.4</ele><time>2016-08-28T10:39:19Z</time></trkpt>
<trkpt lat="46.17854" lon="7.31286"><ele>1367.6</ele><time>2016-08-28T10:39:21Z</time></trkpt>
<trkpt lat="46.17851" lon="7.3129"><ele>1367.8</ele><time>2016-08-28T10:39:23Z</time></trkpt>
<trkpt lat="46.17849" lon="7.31293"><ele>1368</ele><time>2016-08-28T10:39:24Z</time></trkpt>
<trkpt lat="46.17847" lon="7.31295"><ele>1368.2</ele><time>2016-08-28T10:39:25Z</time></trkpt>
<trkpt lat="46.17844" lon="7.31299"><ele>1368.4</ele><time>2016-08-28T10:39:27Z</time></trkpt>
<trkpt lat="46.17841" lon="7.31303"><ele>1368.8</ele><time>2016-08-28T10:39:29Z</time></trkpt>
<trkpt lat="46.17839" lon="7.31306"><ele>1368.8</ele><time>2016-08-28T10:39:30Z</time></trkpt>
<trkpt lat="46.17838" lon="7.31308"><ele>1369</ele><time>2016-08-28T10:39:31Z</time></trkpt>
<trkpt lat="46.17834" lon="7.31312"><ele>1369.2</ele><time>2016-08-28T10:39:33Z</time></trkpt>
<trkpt lat="46.17833" lon="7.31314"><ele>1369.4</ele><time>2016-08-28T10:39:34Z</time></trkpt>
<trkpt lat="46.17831" lon="7.31316"><ele>1369.4</ele><time>2016-08-28T10:39:35Z</time></trkpt>
<trkpt lat="46.17827" lon="7.31319"><ele>1369.8</ele><time>2016-08-28T10:39:37Z</time></trkpt>
<trkpt lat="46.17823" lon="7.31321"><ele>1370</ele><time>2016-08-28T10:39:39Z</time></trkpt>
<trkpt lat="46.17819" lon="7.31324"><ele>1370.2</ele><time>2016-08-28T10:39:41Z</time></trkpt>
<trkpt lat="46.17815" lon="7.31327"><ele>1370.6</ele><time>2016-08-28T10:39:43Z</time></trkpt>
<trkpt lat="46.17811" lon="7.31329"><ele>1370.8</ele><time>2016-08-28T10:39:45Z</time></trkpt>
<trkpt lat="46.17807" lon="7.31332"><ele>1371</ele><time>2016-08-28T10:39:47Z</time></trkpt>
<trkpt lat="46.17803" lon="7.31335"><ele>1371.4</ele><time>2016-08-28T10:39:49Z</time></trkpt>
<trkpt lat="46.17799" lon="7.31337"><ele>1371.6</ele><time>2016-08-28T10:39:51Z</time></trkpt>
<trkpt lat="46.17795" lon="7.3134"><ele>1372</ele><time>2016-08-28T10:39:53Z</time></trkpt>
<trkpt lat="46.17791" lon="7.31343"><ele>1372.4</ele><time>2016-08-28T10:39:55Z</time></trkpt>
<trkpt lat="46.17788" lon="7.31345"><ele>1372.6</ele><time>2016-08-28T10:39:57Z</time></trkpt>
<trkpt lat="46.17785" lon="7.31348"><ele>1373</ele><time>2016-08-28T10:39:59Z</time></trkpt>
<trkpt lat="46.17782" lon="7.31351"><ele>1373.4</ele><time>2016-08-28T10:40:01Z</time></trkpt>
<trkpt lat="46.17779" lon="7.31353"><ele>1373.6</ele><time>2016-08-28T10:40:03Z</time></trkpt>
<trkpt lat="46.17776" lon="7.31356"><ele>1374</ele><time>2016-08-28T10:40:05Z</time></trkpt>
<trkpt lat="46.17772" lon="7.31358"><ele>1374.4</ele><time>2016-08-28T10:40:07Z</time></trkpt>
<trkpt lat="46.17769" lon="7.31361"><ele>1374.6</ele><time>2016-08-28T10:40:09Z</time></trkpt>
<trkpt lat="46.17751" lon="7.31372"><ele>1374</ele><time>2016-08-28T10:40:10Z</time></trkpt>
<trkpt lat="46.17751" lon="7.31372"><ele>1374</ele><time>2016-08-28T10:41:58Z</time></trkpt>
<trkpt lat="46.17734" lon="7.31381"><ele>1373.4</ele><time>2016-08-28T10:41:59Z</time></trkpt>
<trkpt lat="46.17728" lon="7.31386"><ele>1373.2</ele><time>2016-08-28T10:42:01Z</time></trkpt>
<trkpt lat="46.17721" lon="7.31391"><ele>1373.2</ele><time>2016-08-28T10:42:03Z</time></trkpt>
<trkpt lat="46.17715" lon="7.31396"><ele>1373.2</ele><time>2016-08-28T10:42:05Z</time></trkpt>
<trkpt lat="46.17709" lon="7.31401"><ele>1373.2</ele><time>2016-08-28T10:42:07Z</time></trkpt>
<trkpt lat="46.17699" lon="7.31408"><ele>1373</ele><time>2016-08-28T10:42:09Z</time></trkpt>
<trkpt lat="46.1769" lon="7.31415"><ele>1373</ele><time>2016-08-28T10:42:11Z</time></trkpt>
<trkpt lat="46.17685" lon="7.31418"><ele>1373</ele><time>2016-08-28T10:42:12Z</time></trkpt>
<trkpt lat="46.1768" lon="7.31419"><ele>1373</ele><time>2016-08-28T10:42:13Z</time></trkpt>
<trkpt lat="46.17671" lon="7.31419"><ele>1372.4</ele><time>2016-08-28T10:42:15Z</time></trkpt>
<trkpt lat="46.17661" lon="7.3142"><ele>1371.8</ele><time>2016-08-28T10:42:17Z</time></trkpt>
<trkpt lat="46.17652" lon="7.31421"><ele>1371.2</ele><time>2016-08-28T10:42:19Z</time></trkpt>
<trkpt lat="46.17646" lon="7.3142"><ele>1371</ele><time>2016-08-28T10:42:20Z</time></trkpt>
<trkpt lat="46.1764" lon="7.31419"><ele>1370.8</ele><time>2016-08-28T10:42:21Z</time></trkpt>
<trkpt lat="46.17634" lon="7.31417"><ele>1370.4</ele><time>2016-08-28T10:42:22Z</time></trkpt>
<trkpt lat="46.17627" lon="7.31419"><ele>1370.2</ele><time>2016-08-28T10:42:23Z</time></trkpt>
<trkpt lat="46.1762" lon="7.31422"><ele>1369.8</ele><time>2016-08-28T10:42:24Z</time></trkpt>
<trkpt lat="46.17612" lon="7.31424"><ele>1369.6</ele><time>2016-08-28T10:42:25Z</time></trkpt>
<trkpt lat="46.17597" lon="7.31429"><ele>1368.8</ele><time>2016-08-28T10:42:27Z</time></trkpt>
<trkpt lat="46.1759" lon="7.31432"><ele>1368.6</ele><time>2016-08-28T10:42:28Z</time></trkpt>
<trkpt lat="46.17581" lon="7.31433"><ele>1368.2</ele><time>2016-08-28T10:42:29Z</time></trkpt>
<trkpt lat="46.17564" lon="7.31437"><ele>1367.6</ele><time>2016-08-28T10:42:31Z</time></trkpt>
<trkpt lat="46.17546" lon="7.31441"><ele>1366.8</ele><time>2016-08-28T10:42:33Z</time></trkpt>
<trkpt lat="46.17537" lon="7.31442"><ele>1366.6</ele><time>2016-08-28T10:42:34Z</time></trkpt>
<trkpt lat="46.17527" lon="7.31442"><ele>1366.2</ele><time>2016-08-28T10:42:35Z</time></trkpt>
<trkpt lat="46.17508" lon="7.31442"><ele>1365</ele><time>2016-08-28T10:42:37Z</time></trkpt>
<trkpt lat="46.17488" lon="7.31442"><ele>1363.8</ele><time>2016-08-28T10:42:39Z</time></trkpt>
<trkpt lat="46.17478" lon="7.31443"><ele>1363.2</ele><time>2016-08-28T10:42:40Z</time></trkpt>
<trkpt lat="46.17468" lon="7.31444"><ele>1362.4</ele><time>2016-08-28T10:42:41Z</time></trkpt>
<trkpt lat="46.17447" lon="7.31446"><ele>1360.8</ele><time>2016-08-28T10:42:43Z</time></trkpt>
<trkpt lat="46.17427" lon="7.31457"><ele>1359.2</ele><time>2016-08-28T10:42:45Z</time></trkpt>
<trkpt lat="46.17417" lon="7.31463"><ele>1358.4</ele><time>2016-08-28T10:42:46Z</time></trkpt>
<trkpt lat="46.17407" lon="7.31468"><ele>1357.8</ele><time>2016-08-28T10:42:47Z</time></trkpt>
<trkpt lat="46.17384" lon="7.31473"><ele>1356.8</ele><time>2016-08-28T10:42:49Z</time></trkpt>
<trkpt lat="46.1736" lon="7.31469"><ele>1355.6</ele><time>2016-08-28T10:42:51Z</time></trkpt>
<trkpt lat="46.17349" lon="7.31467"><ele>1355</ele><time>2016-08-28T10:42:52Z</time></trkpt>
<trkpt lat="46.17337" lon="7.31465"><ele>1354.4</ele><time>2016-08-28T10:42:53Z</time></trkpt>
<trkpt lat="46.17315" lon="7.31473"><ele>1352.8</ele><time>2016-08-28T10:42:55Z</time></trkpt>
<trkpt lat="46.17293" lon="7.31482"><ele>1351.4</ele><time>2016-08-28T10:42:57Z</time></trkpt>
<trkpt lat="46.17281" lon="7.31482"><ele>1350.6</ele><time>2016-08-28T10:42:58Z</time></trkpt>
<trkpt lat="46.17269" lon="7.31479"><ele>1349.8</ele><time>2016-08-28T10:42:59Z</time></trkpt>
<trkpt lat="46.17245" lon="7.31473"><ele>1348.2</ele><time>2016-08-28T10:43:01Z</time></trkpt>
<trkpt lat="46.17233" lon="7.3147"><ele>1347.4</ele><time>2016-08-28T10:43:02Z</time></trkpt>
<trkpt lat="46.1722" lon="7.31468"><ele>1346.6</ele><time>2016-08-28T10:43:03Z</time></trkpt>
<trkpt lat="46.17206" lon="7.31465"><ele>1345.8</ele><time>2016-08-28T10:43:04Z</time></trkpt>
<trkpt lat="46.17193" lon="7.31463"><ele>1345</ele><time>2016-08-28T10:43:05Z</time></trkpt>
<trkpt lat="46.17179" lon="7.3146"><ele>1344.2</ele><time>2016-08-28T10:43:06Z</time></trkpt>
<trkpt lat="46.17167" lon="7.31458"><ele>1343.4</ele><time>2016-08-28T10:43:07Z</time></trkpt>
<trkpt lat="46.17142" lon="7.31454"><ele>1341.8</ele><time>2016-08-28T10:43:09Z</time></trkpt>
<trkpt lat="46.17129" lon="7.31452"><ele>1340.4</ele><time>2016-08-28T10:43:10Z</time></trkpt>
<trkpt lat="46.17122" lon="7.31452"><ele>1339</ele><time>2016-08-28T10:43:11Z</time></trkpt>
<trkpt lat="46.17115" lon="7.31452"><ele>1337.4</ele><time>2016-08-28T10:43:12Z</time></trkpt>
<trkpt lat="46.17115" lon="7.31456"><ele>1336</ele><time>2016-08-28T10:43:13Z</time></trkpt>
<trkpt lat="46.17117" lon="7.31462"><ele>1334.6</ele><time>2016-08-28T10:43:14Z</time></trkpt>
<trkpt lat="46.17123" lon="7.31465"><ele>1333.8</ele><time>2016-08-28T10:43:15Z</time></trkpt>
<trkpt lat="46.17136" lon="7.31471"><ele>1332.8</ele><time>2016-08-28T10:43:17Z</time></trkpt>
<trkpt lat="46.1715" lon="7.31476"><ele>1331.6</ele><time>2016-08-28T10:43:19Z</time></trkpt>
<trkpt lat="46.17166" lon="7.31491"><ele>1330.6</ele><time>2016-08-28T10:43:21Z</time></trkpt>
<trkpt lat="46.17183" lon="7.31505"><ele>1329.6</ele><time>2016-08-28T10:43:23Z</time></trkpt>
<trkpt lat="46.17191" lon="7.31513"><ele>1329</ele><time>2016-08-28T10:43:24Z</time></trkpt>
<trkpt lat="46.17201" lon="7.31519"><ele>1328.4</ele><time>2016-08-28T10:43:25Z</time></trkpt>
<trkpt lat="46.17211" lon="7.31524"><ele>1327.8</ele><time>2016-08-28T10:43:26Z</time></trkpt>
<trkpt lat="46.17221" lon="7.3153"><ele>1327</ele><time>2016-08-28T10:43:27Z</time></trkpt>
<trkpt lat="46.17232" lon="7.31536"><ele>1326.2</ele><time>2016-08-28T10:43:28Z</time></trkpt>
<trkpt lat="46.17243" lon="7.31541"><ele>1325.4</ele><time>2016-08-28T10:43:29Z</time></trkpt>
<trkpt lat="46.17266" lon="7.31549"><ele>1323.6</ele><time>2016-08-28T10:43:31Z</time></trkpt>
<trkpt lat="46.17277" lon="7.31554"><ele>1322.8</ele><time>2016-08-28T10:43:32Z</time></trkpt>
<trkpt lat="46.1729" lon="7.31558"><ele>1322</ele><time>2016-08-28T10:43:33Z</time></trkpt>
<trkpt lat="46.17315" lon="7.31566"><ele>1320</ele><time>2016-08-28T10:43:35Z</time></trkpt>
<trkpt lat="46.17327" lon="7.3157"><ele>1319.2</ele><time>2016-08-28T10:43:36Z</time></trkpt>
<trkpt lat="46.17341" lon="7.31576"><ele>1318.2</ele><time>2016-08-28T10:43:37Z</time></trkpt>
<trkpt lat="46.17368" lon="7.31587"><ele>1315.8</ele><time>2016-08-28T10:43:39Z</time></trkpt>
<trkpt lat="46.17382" lon="7.31593"><ele>1314.6</ele><time>2016-08-28T10:43:40Z</time></trkpt>
<trkpt lat="46.17397" lon="7.31599"><ele>1313.4</ele><time>2016-08-28T10:43:41Z</time></trkpt>
<trkpt lat="46.17426" lon="7.3161"><ele>1310.8</ele><time>2016-08-28T10:43:43Z</time></trkpt>
<trkpt lat="46.17456" lon="7.31616"><ele>1307.8</ele><time>2016-08-28T10:43:45Z</time></trkpt>
<trkpt lat="46.17471" lon="7.31619"><ele>1306.4</ele><time>2016-08-28T10:43:46Z</time></trkpt>
<trkpt lat="46.17487" lon="7.31623"><ele>1304.8</ele><time>2016-08-28T10:43:47Z</time></trkpt>
<trkpt lat="46.17504" lon="7.31626"><ele>1303.4</ele><time>2016-08-28T10:43:48Z</time></trkpt>
<trkpt lat="46.1752" lon="7.3163"><ele>1302.2</ele><time>2016-08-28T10:43:49Z</time></trkpt>
<trkpt lat="46.17548" lon="7.3164"><ele>1300</ele><time>2016-08-28T10:43:51Z</time></trkpt>
<trkpt lat="46.17562" lon="7.31645"><ele>1298.8</ele><time>2016-08-28T10:43:52Z</time></trkpt>
<trkpt lat="46.17575" lon="7.31651"><ele>1297.6</ele><time>2016-08-28T10:43:53Z</time></trkpt>
<trkpt lat="46.17588" lon="7.31658"><ele>1296.6</ele><time>2016-08-28T10:43:54Z</time></trkpt>
<trkpt lat="46.17602" lon="7.31665"><ele>1294.8</ele><time>2016-08-28T10:43:55Z</time></trkpt>
<trkpt lat="46.17615" lon="7.31672"><ele>1293</ele><time>2016-08-28T10:43:56Z</time></trkpt>
<trkpt lat="46.17629" lon="7.31678"><ele>1291</ele><time>2016-08-28T10:43:57Z</time></trkpt>
<trkpt lat="46.17657" lon="7.3169"><ele>1287.4</ele><time>2016-08-28T10:43:59Z</time></trkpt>
<trkpt lat="46.17671" lon="7.31696"><ele>1286</ele><time>2016-08-28T10:44:00Z</time></trkpt>
<trkpt lat="46.17686" lon="7.317"><ele>1284.8</ele><time>2016-08-28T10:44:01Z</time></trkpt>
<trkpt lat="46.17718" lon="7.31706"><ele>1282.4</ele><time>2016-08-28T10:44:03Z</time></trkpt>
<trkpt lat="46.17738" lon="7.31711"><ele>1280</ele><time>2016-08-28T10:44:05Z</time></trkpt>
<trkpt lat="46.17758" lon="7.31717"><ele>1277.4</ele><time>2016-08-28T10:44:07Z</time></trkpt>
<trkpt lat="46.17763" lon="7.3172"><ele>1276</ele><time>2016-08-28T10:44:08Z</time></trkpt>
<trkpt lat="46.17761" lon="7.31724"><ele>1274.8</ele><time>2016-08-28T10:44:09Z</time></trkpt>
<trkpt lat="46.17758" lon="7.31728"><ele>1273.4</ele><time>2016-08-28T10:44:10Z</time></trkpt>
<trkpt lat="46.17752" lon="7.31729"><ele>1272.8</ele><time>2016-08-28T10:44:11Z</time></trkpt>
<trkpt lat="46.17739" lon="7.3173"><ele>1271.4</ele><time>2016-08-28T10:44:13Z</time></trkpt>
<trkpt lat="46.17726" lon="7.31732"><ele>1270</ele><time>2016-08-28T10:44:15Z</time></trkpt>
<trkpt lat="46.17714" lon="7.31734"><ele>1269</ele><time>2016-08-28T10:44:17Z</time></trkpt>
<trkpt lat="46.17708" lon="7.31735"><ele>1268.4</ele><time>2016-08-28T10:44:18Z</time></trkpt>
<trkpt lat="46.17702" lon="7.31738"><ele>1268</ele><time>2016-08-28T10:44:19Z</time></trkpt>
<trkpt lat="46.1769" lon="7.31744"><ele>1267</ele><time>2016-08-28T10:44:21Z</time></trkpt>
<trkpt lat="46.17676" lon="7.31749"><ele>1266</ele><time>2016-08-28T10:44:23Z</time></trkpt>
<trkpt lat="46.17661" lon="7.31753"><ele>1265</ele><time>2016-08-28T10:44:25Z</time></trkpt>
<trkpt lat="46.17646" lon="7.31758"><ele>1264</ele><time>2016-08-28T10:44:27Z</time></trkpt>
<trkpt lat="46.17639" lon="7.3176"><ele>1263.6</ele><time>2016-08-28T10:44:28Z</time></trkpt>
<trkpt lat="46.1763" lon="7.31763"><ele>1263</ele><time>2016-08-28T10:44:29Z</time></trkpt>
<trkpt lat="46.17611" lon="7.31768"><ele>1262</ele><time>2016-08-28T10:44:31Z</time></trkpt>
<trkpt lat="46.17592" lon="7.3177"><ele>1260.4</ele><time>2016-08-28T10:44:33Z</time></trkpt>
<trkpt lat="46.17572" lon="7.31773"><ele>1258.6</ele><time>2016-08-28T10:44:35Z</time></trkpt>
<trkpt lat="46.17563" lon="7.31774"><ele>1257.8</ele><time>2016-08-28T10:44:36Z</time></trkpt>
<trkpt lat="46.17557" lon="7.31776"><ele>1257</ele><time>2016-08-28T10:44:37Z</time></trkpt>
<trkpt lat="46.17547" lon="7.3178"><ele>1255.4</ele><time>2016-08-28T10:44:39Z</time></trkpt>
<trkpt lat="46.17542" lon="7.31782"><ele>1254.8</ele><time>2016-08-28T10:44:40Z</time></trkpt>
<trkpt lat="46.17537" lon="7.31782"><ele>1254</ele><time>2016-08-28T10:44:41Z</time></trkpt>
<trkpt lat="46.17531" lon="7.31782"><ele>1253.2</ele><time>2016-08-28T10:44:42Z</time></trkpt>
<trkpt lat="46.17526" lon="7.31784"><ele>1252.6</ele><time>2016-08-28T10:44:43Z</time></trkpt>
<trkpt lat="46.17521" lon="7.31787"><ele>1252</ele><time>2016-08-28T10:44:44Z</time></trkpt>
<trkpt lat="46.17513" lon="7.31783"><ele>1251.4</ele><time>2016-08-28T10:44:45Z</time></trkpt>
<trkpt lat="46.17499" lon="7.31776"><ele>1250.4</ele><time>2016-08-28T10:44:47Z</time></trkpt>
<trkpt lat="46.17491" lon="7.31772"><ele>1249.8</ele><time>2016-08-28T10:44:48Z</time></trkpt>
<trkpt lat="46.17484" lon="7.31768"><ele>1249.2</ele><time>2016-08-28T10:44:49Z</time></trkpt>
<trkpt lat="46.17465" lon="7.31768"><ele>1248.2</ele><time>2016-08-28T10:44:51Z</time></trkpt>
<trkpt lat="46.17455" lon="7.31768"><ele>1247.6</ele><time>2016-08-28T10:44:52Z</time></trkpt>
<trkpt lat="46.17446" lon="7.31773"><ele>1247</ele><time>2016-08-28T10:44:53Z</time></trkpt>
<trkpt lat="46.17438" lon="7.31783"><ele>1246.4</ele><time>2016-08-28T10:44:54Z</time></trkpt>
<trkpt lat="46.1743" lon="7.31795"><ele>1245.6</ele><time>2016-08-28T10:44:55Z</time></trkpt>
<trkpt lat="46.17414" lon="7.31818"><ele>1243.6</ele><time>2016-08-28T10:44:57Z</time></trkpt>
<trkpt lat="46.17394" lon="7.31834"><ele>1241.6</ele><time>2016-08-28T10:44:59Z</time></trkpt>
<trkpt lat="46.17373" lon="7.31849"><ele>1240.4</ele><time>2016-08-28T10:45:01Z</time></trkpt>
<trkpt lat="46.17358" lon="7.31851"><ele>1239.2</ele><time>2016-08-28T10:45:03Z</time></trkpt>
<trkpt lat="46.17347" lon="7.31843"><ele>1238</ele><time>2016-08-28T10:45:05Z</time></trkpt>
<trkpt lat="46.17337" lon="7.31834"><ele>1238.2</ele><time>2016-08-28T10:45:07Z</time></trkpt>
<trkpt lat="46.17327" lon="7.31826"><ele>1238.4</ele><time>2016-08-28T10:45:09Z</time></trkpt>
<trkpt lat="46.17319" lon="7.31823"><ele>1238.6</ele><time>2016-08-28T10:45:11Z</time></trkpt>
<trkpt lat="46.17311" lon="7.3182"><ele>1238.8</ele><time>2016-08-28T10:45:13Z</time></trkpt>
<trkpt lat="46.17304" lon="7.31817"><ele>1239.2</ele><time>2016-08-28T10:45:15Z</time></trkpt>
<trkpt lat="46.17296" lon="7.31814"><ele>1239.4</ele><time>2016-08-28T10:45:17Z</time></trkpt>
<trkpt lat="46.17288" lon="7.31811"><ele>1239.6</ele><time>2016-08-28T10:45:19Z</time></trkpt>
<trkpt lat="46.17281" lon="7.31809"><ele>1240</ele><time>2016-08-28T10:45:21Z</time></trkpt>
<trkpt lat="46.17273" lon="7.3181"><ele>1240</ele><time>2016-08-28T10:45:23Z</time></trkpt>
<trkpt lat="46.17265" lon="7.31811"><ele>1240</ele><time>2016-08-28T10:45:25Z</time></trkpt>
<trkpt lat="46.17257" lon="7.31812"><ele>1240</ele><time>2016-08-28T10:45:27Z</time></trkpt>
<trkpt lat="46.17249" lon="7.31814"><ele>1240</ele><time>2016-08-28T10:45:29Z</time></trkpt>
<trkpt lat="46.17241" lon="7.31815"><ele>1240</ele><time>2016-08-28T10:45:31Z</time></trkpt>
<trkpt lat="46.17237" lon="7.31816"><ele>1240</ele><time>2016-08-28T10:45:32Z</time></trkpt>
<trkpt lat="46.17231" lon="7.3182"><ele>1240</ele><time>2016-08-28T10:45:33Z</time></trkpt>
<trkpt lat="46.17219" lon="7.31828"><ele>1240</ele><time>2016-08-28T10:45:35Z</time></trkpt>
<trkpt lat="46.17207" lon="7.31837"><ele>1240</ele><time>2016-08-28T10:45:37Z</time></trkpt>
<trkpt lat="46.17194" lon="7.3184"><ele>1240.2</ele><time>2016-08-28T10:45:39Z</time></trkpt>
<trkpt lat="46.17182" lon="7.31842"><ele>1240.2</ele><time>2016-08-28T10:45:41Z</time></trkpt>
<trkpt lat="46.1717" lon="7.31844"><ele>1240.2</ele><time>2016-08-28T10:45:43Z</time></trkpt>
<trkpt lat="46.17158" lon="7.31846"><ele>1240.2</ele><time>2016-08-28T10:45:45Z</time></trkpt>
<trkpt lat="46.17147" lon="7.31847"><ele>1240.2</ele><time>2016-08-28T10:45:47Z</time></trkpt>
<trkpt lat="46.17136" lon="7.31849"><ele>1240.2</ele><time>2016-08-28T10:45:49Z</time></trkpt>
<trkpt lat="46.17125" lon="7.31851"><ele>1240.2</ele><time>2016-08-28T10:45:51Z</time></trkpt>
<trkpt lat="46.17114" lon="7.31852"><ele>1240.2</ele><time>2016-08-28T10:45:53Z</time></trkpt>
<trkpt lat="46.17108" lon="7.31853"><ele>1240.2</ele><time>2016-08-28T10:45:54Z</time></trkpt>
<trkpt lat="46.17103" lon="7.31853"><ele>1240.2</ele><time>2016-08-28T10:45:55Z</time></trkpt>
<trkpt lat="46.17091" lon="7.31853"><ele>1240.2</ele><time>2016-08-28T10:45:57Z</time></trkpt>
<trkpt lat="46.17082" lon="7.31844"><ele>1240.4</ele><time>2016-08-28T10:45:59Z</time></trkpt>
<trkpt lat="46.17073" lon="7.31835"><ele>1240</ele><time>2016-08-28T10:46:01Z</time></trkpt>
<trkpt lat="46.17064" lon="7.31825"><ele>1239.8</ele><time>2016-08-28T10:46:03Z</time></trkpt>
<trkpt lat="46.17055" lon="7.31816"><ele>1239.4</ele><time>2016-08-28T10:46:05Z</time></trkpt>
<trkpt lat="46.17041" lon="7.31804"><ele>1238.8</ele><time>2016-08-28T10:46:07Z</time></trkpt>
<trkpt lat="46.17028" lon="7.31793"><ele>1238.4</ele><time>2016-08-28T10:46:09Z</time></trkpt>
<trkpt lat="46.17019" lon="7.31791"><ele>1238</ele><time>2016-08-28T10:46:10Z</time></trkpt>
<trkpt lat="46.1701" lon="7.3179"><ele>1237.2</ele><time>2016-08-28T10:46:11Z</time></trkpt>
<trkpt lat="46.17002" lon="7.31788"><ele>1236.2</ele><time>2016-08-28T10:46:12Z</time></trkpt>
<trkpt lat="46.16993" lon="7.31792"><ele>1235.2</ele><time>2016-08-28T10:46:13Z</time></trkpt>
<trkpt lat="46.1698" lon="7.31807"><ele>1233.2</ele><time>2016-08-28T10:46:15Z</time></trkpt>
<trkpt lat="46.16968" lon="7.31822"><ele>1231.4</ele><time>2016-08-28T10:46:17Z</time></trkpt>
<trkpt lat="46.16961" lon="7.3183"><ele>1230.6</ele><time>2016-08-28T10:46:18Z</time></trkpt>
<trkpt lat="46.16953" lon="7.31832"><ele>1229.8</ele><time>2016-08-28T10:46:19Z</time></trkpt>
<trkpt lat="46.16935" lon="7.31836"><ele>1228</ele><time>2016-08-28T10:46:21Z</time></trkpt>
<trkpt lat="46.16918" lon="7.3184"><ele>1226.4</ele><time>2016-08-28T10:46:23Z</time></trkpt>
<trkpt lat="46.16909" lon="7.31842"><ele>1225.6</ele><time>2016-08-28T10:46:24Z</time></trkpt>
<trkpt lat="46.16901" lon="7.31843"><ele>1225</ele><time>2016-08-28T10:46:25Z</time></trkpt>
<trkpt lat="46.16893" lon="7.31843"><ele>1224.2</ele><time>2016-08-28T10:46:26Z</time></trkpt>
<trkpt lat="46.16886" lon="7.31844"><ele>1224.4</ele><time>2016-08-28T10:46:27Z</time></trkpt>
<trkpt lat="46.1687" lon="7.31844"><ele>1225</ele><time>2016-08-28T10:46:29Z</time></trkpt>
<trkpt lat="46.16862" lon="7.31844"><ele>1225.4</ele><time>2016-08-28T10:46:30Z</time></trkpt>
<trkpt lat="46.16857" lon="7.31843"><ele>1225.8</ele><time>2016-08-28T10:46:31Z</time></trkpt>
<trkpt lat="46.16846" lon="7.31839"><ele>1226.4</ele><time>2016-08-28T10:46:33Z</time></trkpt>
<trkpt lat="46.16835" lon="7.31835"><ele>1227.2</ele><time>2016-08-28T10:46:35Z</time></trkpt>
<trkpt lat="46.1683" lon="7.31833"><ele>1227.4</ele><time>2016-08-28T10:46:36Z</time></trkpt>
<trkpt lat="46.16825" lon="7.31835"><ele>1227.8</ele><time>2016-08-28T10:46:37Z</time></trkpt>
<trkpt lat="46.16819" lon="7.31837"><ele>1228.2</ele><time>2016-08-28T10:46:38Z</time></trkpt>
<trkpt lat="46.16814" lon="7.31839"><ele>1228.2</ele><time>2016-08-28T10:46:39Z</time></trkpt>
<trkpt lat="46.16803" lon="7.31843"><ele>1228</ele><time>2016-08-28T10:46:41Z</time></trkpt>
<trkpt lat="46.16792" lon="7.31847"><ele>1228</ele><time>2016-08-28T10:46:43Z</time></trkpt>
<trkpt lat="46.16786" lon="7.31844"><ele>1227.8</ele><time>2016-08-28T10:46:44Z</time></trkpt>
<trkpt lat="46.16782" lon="7.31847"><ele>1227.8</ele><time>2016-08-28T10:46:45Z</time></trkpt>
<trkpt lat="46.16774" lon="7.31853"><ele>1227.8</ele><time>2016-08-28T10:46:47Z</time></trkpt>
<trkpt lat="46.16766" lon="7.31859"><ele>1227.6</ele><time>2016-08-28T10:46:49Z</time></trkpt>
<trkpt lat="46.16758" lon="7.31866"><ele>1227.6</ele><time>2016-08-28T10:46:51Z</time></trkpt>
<trkpt lat="46.1675" lon="7.31872"><ele>1227.8</ele><time>2016-08-28T10:46:53Z</time></trkpt>
<trkpt lat="46.16746" lon="7.31875"><ele>1227.8</ele><time>2016-08-28T10:46:54Z</time></trkpt>
<trkpt lat="46.16743" lon="7.31878"><ele>1227.8</ele><time>2016-08-28T10:46:55Z</time></trkpt>
<trkpt lat="46.16737" lon="7.31884"><ele>1228</ele><time>2016-08-28T10:46:57Z</time></trkpt>
<trkpt lat="46.1673" lon="7.31886"><ele>1228.2</ele><time>2016-08-28T10:46:58Z</time></trkpt>
<trkpt lat="46.16727" lon="7.31888"><ele>1228.4</ele><time>2016-08-28T10:46:59Z</time></trkpt>
<trkpt lat="46.16723" lon="7.31891"><ele>1228.6</ele><time>2016-08-28T10:47:01Z</time></trkpt>
<trkpt lat="46.16718" lon="7.31894"><ele>1229</ele><time>2016-08-28T10:47:03Z</time></trkpt>
<trkpt lat="46.16714" lon="7.31898"><ele>1229.2</ele><time>2016-08-28T10:47:05Z</time></trkpt>
<trkpt lat="46.16709" lon="7.31901"><ele>1229.6</ele><time>2016-08-28T10:47:07Z</time></trkpt>
<trkpt lat="46.16705" lon="7.31905"><ele>1230</ele><time>2016-08-28T10:47:09Z</time></trkpt>
<trkpt lat="46.167" lon="7.31908"><ele>1230.2</ele><time>2016-08-28T10:47:11Z</time></trkpt>
<trkpt lat="46.16696" lon="7.31912"><ele>1230.8</ele><time>2016-08-28T10:47:13Z</time></trkpt>
<trkpt lat="46.16691" lon="7.31915"><ele>1231.4</ele><time>2016-08-28T10:47:15Z</time></trkpt>
<trkpt lat="46.16689" lon="7.31917"><ele>1231.6</ele><time>2016-08-28T10:47:16Z</time></trkpt>
<trkpt lat="46.16688" lon="7.31916"><ele>1231.8</ele><time>2016-08-28T10:47:17Z</time></trkpt>
<trkpt lat="46.16685" lon="7.31915"><ele>1232.4</ele><time>2016-08-28T10:47:19Z</time></trkpt>
<trkpt lat="46.16682" lon="7.31913"><ele>1233</ele><time>2016-08-28T10:47:21Z</time></trkpt>
<trkpt lat="46.16681" lon="7.31912"><ele>1233.2</ele><time>2016-08-28T10:47:22Z</time></trkpt>
<trkpt lat="46.16679" lon="7.31911"><ele>1233.4</ele><time>2016-08-28T10:47:23Z</time></trkpt>
<trkpt lat="46.16676" lon="7.3191"><ele>1234</ele><time>2016-08-28T10:47:25Z</time></trkpt>
<trkpt lat="46.16674" lon="7.31908"><ele>1234.6</ele><time>2016-08-28T10:47:27Z</time></trkpt>
<trkpt lat="46.16671" lon="7.31906"><ele>1235</ele><time>2016-08-28T10:47:29Z</time></trkpt>
<trkpt lat="46.16668" lon="7.31905"><ele>1235.4</ele><time>2016-08-28T10:47:31Z</time></trkpt>
<trkpt lat="46.16665" lon="7.31903"><ele>1235.8</ele><time>2016-08-28T10:47:33Z</time></trkpt>
<trkpt lat="46.16662" lon="7.31901"><ele>1236</ele><time>2016-08-28T10:47:35Z</time></trkpt>
<trkpt lat="46.1666" lon="7.319"><ele>1236.4</ele><time>2016-08-28T10:47:37Z</time></trkpt>
<trkpt lat="46.16658" lon="7.31899"><ele>1236.6</ele><time>2016-08-28T10:47:38Z</time></trkpt>
<trkpt lat="46.16657" lon="7.31898"><ele>1236.8</ele><time>2016-08-28T10:47:39Z</time></trkpt>
<trkpt lat="46.16654" lon="7.31896"><ele>1237</ele><time>2016-08-28T10:47:41Z</time></trkpt>
<trkpt lat="46.16651" lon="7.31895"><ele>1237.4</ele><time>2016-08-28T10:47:43Z</time></trkpt>
<trkpt lat="46.16648" lon="7.31893"><ele>1237.6</ele><time>2016-08-28T10:47:45Z</time></trkpt>
<trkpt lat="46.16647" lon="7.31892"><ele>1237.8</ele><time>2016-08-28T10:47:46Z</time></trkpt>
<trkpt lat="46.16646" lon="7.31892"><ele>1238</ele><time>2016-08-28T10:47:47Z</time></trkpt>
<trkpt lat="46.16643" lon="7.31892"><ele>1238.2</ele><time>2016-08-28T10:47:49Z</time></trkpt>
<trkpt lat="46.1664" lon="7.31891"><ele>1238.6</ele><time>2016-08-28T10:47:51Z</time></trkpt>
<trkpt lat="46.16637" lon="7.31891"><ele>1238.8</ele><time>2016-08-28T10:47:53Z</time></trkpt>
<trkpt lat="46.16635" lon="7.31891"><ele>1239.2</ele><time>2016-08-28T10:47:55Z</time></trkpt>
<trkpt lat="46.16632" lon="7.31891"><ele>1239.4</ele><time>2016-08-28T10:47:57Z</time></trkpt>
<trkpt lat="46.16629" lon="7.3189"><ele>1239.6</ele><time>2016-08-28T10:47:59Z</time></trkpt>
<trkpt lat="46.16626" lon="7.3189"><ele>1240</ele><time>2016-08-28T10:48:01Z</time></trkpt>
<trkpt lat="46.16624" lon="7.3189"><ele>1240</ele><time>2016-08-28T10:48:03Z</time></trkpt>
<trkpt lat="46.16621" lon="7.31889"><ele>1240.2</ele><time>2016-08-28T10:48:05Z</time></trkpt>
<trkpt lat="46.1662" lon="7.31889"><ele>1240.2</ele><time>2016-08-28T10:48:06Z</time></trkpt>
<trkpt lat="46.16618" lon="7.31889"><ele>1240.4</ele><time>2016-08-28T10:48:07Z</time></trkpt>
<trkpt lat="46.16617" lon="7.31889"><ele>1240.6</ele><time>2016-08-28T10:48:08Z</time></trkpt>
<trkpt lat="46.16616" lon="7.31891"><ele>1240.8</ele><time>2016-08-28T10:48:09Z</time></trkpt>
<trkpt lat="46.16616" lon="7.31894"><ele>1241</ele><time>2016-08-28T10:48:11Z</time></trkpt>
<trkpt lat="46.16615" lon="7.31898"><ele>1241.4</ele><time>2016-08-28T10:48:13Z</time></trkpt>
<trkpt lat="46.16615" lon="7.31902"><ele>1241.6</ele><time>2016-08-28T10:48:15Z</time></trkpt>
<trkpt lat="46.16614" lon="7.31905"><ele>1242</ele><time>2016-08-28T10:48:17Z</time></trkpt>
<trkpt lat="46.16613" lon="7.31909"><ele>1242.4</ele><time>2016-08-28T10:48:19Z</time></trkpt>
<trkpt lat="46.16613" lon="7.31913"><ele>1242.6</ele><time>2016-08-28T10:48:21Z</time></trkpt>
<trkpt lat="46.16613" lon="7.31915"><ele>1242.8</ele><time>2016-08-28T10:48:22Z</time></trkpt>
<trkpt lat="46.16613" lon="7.31916"><ele>1243</ele><time>2016-08-28T10:48:23Z</time></trkpt>
<trkpt lat="46.16614" lon="7.31919"><ele>1243.6</ele><time>2016-08-28T10:48:25Z</time></trkpt>
<trkpt lat="46.16615" lon="7.31922"><ele>1244.2</ele><time>2016-08-28T10:48:27Z</time></trkpt>
<trkpt lat="46.16617" lon="7.31925"><ele>1244.6</ele><time>2016-08-28T10:48:29Z</time></trkpt>
<trkpt lat="46.16618" lon="7.31928"><ele>1245.2</ele><time>2016-08-28T10:48:31Z</time></trkpt>
<trkpt lat="46.16619" lon="7.31931"><ele>1245.8</ele><time>2016-08-28T10:48:33Z</time></trkpt>
<trkpt lat="46.1662" lon="7.31933"><ele>1246.2</ele><time>2016-08-28T10:48:34Z</time></trkpt>
<trkpt lat="46.1662" lon="7.31934"><ele>1246.4</ele><time>2016-08-28T10:48:35Z</time></trkpt>
<trkpt lat="46.16621" lon="7.31937"><ele>1247</ele><time>2016-08-28T10:48:37Z</time></trkpt>
<trkpt lat="46.16622" lon="7.3194"><ele>1247.6</ele><time>2016-08-28T10:48:39Z</time></trkpt>
<trkpt lat="46.16624" lon="7.31943"><ele>1248.2</ele><time>2016-08-28T10:48:41Z</time></trkpt>
<trkpt lat="46.16625" lon="7.31946"><ele>1248.8</ele><time>2016-08-28T10:48:43Z</time></trkpt>
<trkpt lat="46.16626" lon="7.31949"><ele>1249.4</ele><time>2016-08-28T10:48:45Z</time></trkpt>
<trkpt lat="46.16627" lon="7.31952"><ele>1249.8</ele><time>2016-08-28T10:48:47Z</time></trkpt>
<trkpt lat="46.16628" lon="7.31955"><ele>1250</ele><time>2016-08-28T10:48:49Z</time></trkpt>
<trkpt lat="46.1663" lon="7.31959"><ele>1250.4</ele><time>2016-08-28T10:48:51Z</time></trkpt>
<trkpt lat="46.16631" lon="7.31962"><ele>1250.4</ele><time>2016-08-28T10:48:53Z</time></trkpt>
<trkpt lat="46.16632" lon="7.31965"><ele>1250.4</ele><time>2016-08-28T10:48:55Z</time></trkpt>
<trkpt lat="46.16633" lon="7.31968"><ele>1250.6</ele><time>2016-08-28T10:48:57Z</time></trkpt>
<trkpt lat="46.16634" lon="7.31971"><ele>1250.6</ele><time>2016-08-28T10:48:59Z</time></trkpt>
<trkpt lat="46.16635" lon="7.31972"><ele>1250.6</ele><time>2016-08-28T10:49:00Z</time></trkpt>
<trkpt lat="46.16637" lon="7.31974"><ele>1250.6</ele><time>2016-08-28T10:49:01Z</time></trkpt>
<trkpt lat="46.1664" lon="7.31979"><ele>1250.6</ele><time>2016-08-28T10:49:03Z</time></trkpt>
<trkpt lat="46.16644" lon="7.31984"><ele>1250.6</ele><time>2016-08-28T10:49:05Z</time></trkpt>
<trkpt lat="46.16648" lon="7.31989"><ele>1250.8</ele><time>2016-08-28T10:49:07Z</time></trkpt>
<trkpt lat="46.1665" lon="7.31991"><ele>1250.8</ele><time>2016-08-28T10:49:08Z</time></trkpt>
<trkpt lat="46.16657" lon="7.31995"><ele>1250.8</ele><time>2016-08-28T10:49:09Z</time></trkpt>
<trkpt lat="46.16672" lon="7.32002"><ele>1250.8</ele><time>2016-08-28T10:49:11Z</time></trkpt>
<trkpt lat="46.16687" lon="7.32009"><ele>1250.8</ele><time>2016-08-28T10:49:13Z</time></trkpt>
<trkpt lat="46.16706" lon="7.32011"><ele>1249.6</ele><time>2016-08-28T10:49:15Z</time></trkpt>
<trkpt lat="46.16725" lon="7.32013"><ele>1248.2</ele><time>2016-08-28T10:49:17Z</time></trkpt>
<trkpt lat="46.16734" lon="7.32009"><ele>1247.6</ele><time>2016-08-28T10:49:18Z</time></trkpt>
<trkpt lat="46.16743" lon="7.32004"><ele>1246.8</ele><time>2016-08-28T10:49:19Z</time></trkpt>
<trkpt lat="46.16753" lon="7.31998"><ele>1246</ele><time>2016-08-28T10:49:20Z</time></trkpt>
<trkpt lat="46.1676" lon="7.31993"><ele>1245</ele><time>2016-08-28T10:49:21Z</time></trkpt>
<trkpt lat="46.16776" lon="7.31981"><ele>1243.4</ele><time>2016-08-28T10:49:23Z</time></trkpt>
<trkpt lat="46.16783" lon="7.31976"><ele>1242</ele><time>2016-08-28T10:49:24Z</time></trkpt>
<trkpt lat="46.16793" lon="7.31972"><ele>1240.4</ele><time>2016-08-28T10:49:25Z</time></trkpt>
<trkpt lat="46.16805" lon="7.31972"><ele>1239</ele><time>2016-08-28T10:49:26Z</time></trkpt>
<trkpt lat="46.16816" lon="7.31978"><ele>1237.4</ele><time>2016-08-28T10:49:27Z</time></trkpt>
<trkpt lat="46.16837" lon="7.32"><ele>1234.4</ele><time>2016-08-28T10:49:29Z</time></trkpt>
<trkpt lat="46.16858" lon="7.32022"><ele>1232.4</ele><time>2016-08-28T10:49:31Z</time></trkpt>
<trkpt lat="46.16876" lon="7.32051"><ele>1230.4</ele><time>2016-08-28T10:49:33Z</time></trkpt>
<trkpt lat="46.16895" lon="7.32079"><ele>1228.4</ele><time>2016-08-28T10:49:35Z</time></trkpt>
<trkpt lat="46.16915" lon="7.32109"><ele>1225.8</ele><time>2016-08-28T10:49:37Z</time></trkpt>
<trkpt lat="46.16936" lon="7.32139"><ele>1223.2</ele><time>2016-08-28T10:49:39Z</time></trkpt>
<trkpt lat="46.16943" lon="7.32154"><ele>1222</ele><time>2016-08-28T10:49:40Z</time></trkpt>
<trkpt lat="46.16945" lon="7.32166"><ele>1222</ele><time>2016-08-28T10:49:41Z</time></trkpt>
<trkpt lat="46.16948" lon="7.3219"><ele>1222.2</ele><time>2016-08-28T10:49:43Z</time></trkpt>
<trkpt lat="46.16951" lon="7.32213"><ele>1222.2</ele><time>2016-08-28T10:49:45Z</time></trkpt>
<trkpt lat="46.16953" lon="7.32225"><ele>1222.4</ele><time>2016-08-28T10:49:46Z</time></trkpt>
<trkpt lat="46.16954" lon="7.32228"><ele>1222.4</ele><time>2016-08-28T10:49:47Z</time></trkpt>
<trkpt lat="46.16957" lon="7.32233"><ele>1222.6</ele><time>2016-08-28T10:49:49Z</time></trkpt>
<trkpt lat="46.16961" lon="7.32237"><ele>1222.8</ele><time>2016-08-28T10:49:51Z</time></trkpt>
<trkpt lat="46.16964" lon="7.32242"><ele>1223</ele><time>2016-08-28T10:49:53Z</time></trkpt>
<trkpt lat="46.16967" lon="7.32246"><ele>1223.2</ele><time>2016-08-28T10:49:55Z</time></trkpt>
<trkpt lat="46.1697" lon="7.32251"><ele>1223.4</ele><time>2016-08-28T10:49:57Z</time></trkpt>
<trkpt lat="46.16973" lon="7.32255"><ele>1223.8</ele><time>2016-08-28T10:49:59Z</time></trkpt>
<trkpt lat="46.16976" lon="7.3226"><ele>1224</ele><time>2016-08-28T10:50:01Z</time></trkpt>
<trkpt lat="46.16979" lon="7.32264"><ele>1224.4</ele><time>2016-08-28T10:50:03Z</time></trkpt>
<trkpt lat="46.16982" lon="7.32268"><ele>1225</ele><time>2016-08-28T10:50:05Z</time></trkpt>
<trkpt lat="46.16985" lon="7.32273"><ele>1225.4</ele><time>2016-08-28T10:50:07Z</time></trkpt>
<trkpt lat="46.16986" lon="7.32275"><ele>1225.6</ele><time>2016-08-28T10:50:08Z</time></trkpt>
<trkpt lat="46.16986" lon="7.32277"><ele>1225.8</ele><time>2016-08-28T10:50:09Z</time></trkpt>
<trkpt lat="46.16987" lon="7.32281"><ele>1226.2</ele><time>2016-08-28T10:50:11Z</time></trkpt>
<trkpt lat="46.16988" lon="7.32286"><ele>1226.6</ele><time>2016-08-28T10:50:13Z</time></trkpt>
<trkpt lat="46.16989" lon="7.3229"><ele>1226.8</ele><time>2016-08-28T10:50:15Z</time></trkpt>
<trkpt lat="46.1699" lon="7.32294"><ele>1227</ele><time>2016-08-28T10:50:17Z</time></trkpt>
<trkpt lat="46.16991" lon="7.32298"><ele>1227.4</ele><time>2016-08-28T10:50:19Z</time></trkpt>
<trkpt lat="46.16992" lon="7.32302"><ele>1227.6</ele><time>2016-08-28T10:50:21Z</time></trkpt>
<trkpt lat="46.16993" lon="7.32307"><ele>1227.8</ele><time>2016-08-28T10:50:23Z</time></trkpt>
<trkpt lat="46.16994" lon="7.32311"><ele>1228</ele><time>2016-08-28T10:50:25Z</time></trkpt>
<trkpt lat="46.16995" lon="7.32315"><ele>1228.4</ele><time>2016-08-28T10:50:27Z</time></trkpt>
<trkpt lat="46.16996" lon="7.32319"><ele>1228.6</ele><time>2016-08-28T10:50:29Z</time></trkpt>
<trkpt lat="46.16997" lon="7.32323"><ele>1228.8</ele><time>2016-08-28T10:50:31Z</time></trkpt>
<trkpt lat="46.16998" lon="7.32328"><ele>1229.2</ele><time>2016-08-28T10:50:33Z</time></trkpt>
<trkpt lat="46.16999" lon="7.32332"><ele>1229.4</ele><time>2016-08-28T10:50:35Z</time></trkpt>
<trkpt lat="46.16999" lon="7.32334"><ele>1229.4</ele><time>2016-08-28T10:50:36Z</time></trkpt>
<trkpt lat="46.16999" lon="7.32336"><ele>1229.6</ele><time>2016-08-28T10:50:37Z</time></trkpt>
<trkpt lat="46.17001" lon="7.3234"><ele>1230</ele><time>2016-08-28T10:50:39Z</time></trkpt>
<trkpt lat="46.17002" lon="7.32345"><ele>1230.4</ele><time>2016-08-28T10:50:41Z</time></trkpt>
<trkpt lat="46.17002" lon="7.32347"><ele>1230.6</ele><time>2016-08-28T10:50:42Z</time></trkpt>
<trkpt lat="46.17003" lon="7.32349"><ele>1230.6</ele><time>2016-08-28T10:50:43Z</time></trkpt>
<trkpt lat="46.17004" lon="7.32353"><ele>1230.8</ele><time>2016-08-28T10:50:45Z</time></trkpt>
<trkpt lat="46.17005" lon="7.32358"><ele>1231</ele><time>2016-08-28T10:50:47Z</time></trkpt>
<trkpt lat="46.17006" lon="7.32362"><ele>1231.2</ele><time>2016-08-28T10:50:49Z</time></trkpt>
<trkpt lat="46.17007" lon="7.32367"><ele>1231.4</ele><time>2016-08-28T10:50:51Z</time></trkpt>
<trkpt lat="46.17008" lon="7.32371"><ele>1231.6</ele><time>2016-08-28T10:50:53Z</time></trkpt>
<trkpt lat="46.17009" lon="7.32375"><ele>1231.8</ele><time>2016-08-28T10:50:55Z</time></trkpt>
<trkpt lat="46.1701" lon="7.3238"><ele>1232</ele><time>2016-08-28T10:50:57Z</time></trkpt>
<trkpt lat="46.17011" lon="7.32382"><ele>1232.2</ele><time>2016-08-28T10:50:58Z</time></trkpt>
<trkpt lat="46.17011" lon="7.32384"><ele>1232.4</ele><time>2016-08-28T10:50:59Z</time></trkpt>
<trkpt lat="46.17012" lon="7.32388"><ele>1232.6</ele><time>2016-08-28T10:51:01Z</time></trkpt>
<trkpt lat="46.17013" lon="7.32393"><ele>1233</ele><time>2016-08-28T10:51:03Z</time></trkpt>
<trkpt lat="46.17014" lon="7.32397"><ele>1233.4</ele><time>2016-08-28T10:51:05Z</time></trkpt>
<trkpt lat="46.17015" lon="7.32399"><ele>1233.4</ele><time>2016-08-28T10:51:06Z</time></trkpt>
<trkpt lat="46.17015" lon="7.32401"><ele>1233.6</ele><time>2016-08-28T10:51:07Z</time></trkpt>
<trkpt lat="46.17016" lon="7.32404"><ele>1234</ele><time>2016-08-28T10:51:09Z</time></trkpt>
<trkpt lat="46.17017" lon="7.32407"><ele>1234.2</ele><time>2016-08-28T10:51:11Z</time></trkpt>
<trkpt lat="46.17017" lon="7.3241"><ele>1234.6</ele><time>2016-08-28T10:51:13Z</time></trkpt>
<trkpt lat="46.17018" lon="7.32413"><ele>1234.8</ele><time>2016-08-28T10:51:15Z</time></trkpt>
<trkpt lat="46.17019" lon="7.32416"><ele>1235.2</ele><time>2016-08-28T10:51:17Z</time></trkpt>
<trkpt lat="46.17019" lon="7.3242"><ele>1235.6</ele><time>2016-08-28T10:51:19Z</time></trkpt>
<trkpt lat="46.1702" lon="7.32423"><ele>1235.8</ele><time>2016-08-28T10:51:21Z</time></trkpt>
<trkpt lat="46.17021" lon="7.32426"><ele>1236.4</ele><time>2016-08-28T10:51:23Z</time></trkpt>
<trkpt lat="46.17021" lon="7.32429"><ele>1236.8</ele><time>2016-08-28T10:51:25Z</time></trkpt>
<trkpt lat="46.17022" lon="7.32432"><ele>1237.2</ele><time>2016-08-28T10:51:27Z</time></trkpt>
<trkpt lat="46.17023" lon="7.32435"><ele>1237.6</ele><time>2016-08-28T10:51:29Z</time></trkpt>
<trkpt lat="46.17024" lon="7.32438"><ele>1238.2</ele><time>2016-08-28T10:51:31Z</time></trkpt>
<trkpt lat="46.17024" lon="7.32441"><ele>1238.6</ele><time>2016-08-28T10:51:33Z</time></trkpt>
<trkpt lat="46.17025" lon="7.32444"><ele>1239</ele><time>2016-08-28T10:51:35Z</time></trkpt>
<trkpt lat="46.17026" lon="7.32448"><ele>1239.6</ele><time>2016-08-28T10:51:37Z</time></trkpt>
<trkpt lat="46.17026" lon="7.32451"><ele>1240</ele><time>2016-08-28T10:51:39Z</time></trkpt>
<trkpt lat="46.17027" lon="7.32454"><ele>1240.4</ele><time>2016-08-28T10:51:41Z</time></trkpt>
<trkpt lat="46.17028" lon="7.32457"><ele>1240.8</ele><time>2016-08-28T10:51:43Z</time></trkpt>
<trkpt lat="46.17029" lon="7.3246"><ele>1241.2</ele><time>2016-08-28T10:51:45Z</time></trkpt>
<trkpt lat="46.17029" lon="7.32462"><ele>1241.4</ele><time>2016-08-28T10:51:46Z</time></trkpt>
<trkpt lat="46.17029" lon="7.32463"><ele>1241.6</ele><time>2016-08-28T10:51:47Z</time></trkpt>
<trkpt lat="46.1703" lon="7.32467"><ele>1242</ele><time>2016-08-28T10:51:49Z</time></trkpt>
<trkpt lat="46.1703" lon="7.32471"><ele>1242.4</ele><time>2016-08-28T10:51:51Z</time></trkpt>
<trkpt lat="46.17031" lon="7.32475"><ele>1242.8</ele><time>2016-08-28T10:51:53Z</time></trkpt>
<trkpt lat="46.17031" lon="7.32476"><ele>1243</ele><time>2016-08-28T10:51:54Z</time></trkpt>
<trkpt lat="46.17031" lon="7.32478"><ele>1243</ele><time>2016-08-28T10:51:55Z</time></trkpt>
<trkpt lat="46.17032" lon="7.32482"><ele>1243.4</ele><time>2016-08-28T10:51:57Z</time></trkpt>
<trkpt lat="46.17033" lon="7.32486"><ele>1243.6</ele><time>2016-08-28T10:51:59Z</time></trkpt>
<trkpt lat="46.17033" lon="7.3249"><ele>1244</ele><time>2016-08-28T10:52:01Z</time></trkpt>
<trkpt lat="46.17034" lon="7.32493"><ele>1244.2</ele><time>2016-08-28T10:52:03Z</time></trkpt>
<trkpt lat="46.17034" lon="7.32497"><ele>1244.4</ele><time>2016-08-28T10:52:05Z</time></trkpt>
<trkpt lat="46.17035" lon="7.32501"><ele>1244.8</ele><time>2016-08-28T10:52:07Z</time></trkpt>
<trkpt lat="46.17035" lon="7.32504"><ele>1245</ele><time>2016-08-28T10:52:09Z</time></trkpt>
<trkpt lat="46.17036" lon="7.32508"><ele>1245.4</ele><time>2016-08-28T10:52:11Z</time></trkpt>
<trkpt lat="46.17037" lon="7.32512"><ele>1245.6</ele><time>2016-08-28T10:52:13Z</time></trkpt>
<trkpt lat="46.17037" lon="7.32516"><ele>1246</ele><time>2016-08-28T10:52:15Z</time></trkpt>
<trkpt lat="46.17038" lon="7.32519"><ele>1246.2</ele><time>2016-08-28T10:52:17Z</time></trkpt>
<trkpt lat="46.17038" lon="7.32523"><ele>1246.6</ele><time>2016-08-28T10:52:19Z</time></trkpt>
<trkpt lat="46.17039" lon="7.32525"><ele>1246.8</ele><time>2016-08-28T10:52:20Z</time></trkpt>
<trkpt lat="46.1704" lon="7.32526"><ele>1246.8</ele><time>2016-08-28T10:52:21Z</time></trkpt>
<trkpt lat="46.17042" lon="7.32528"><ele>1247.2</ele><time>2016-08-28T10:52:23Z</time></trkpt>
<trkpt lat="46.17045" lon="7.3253"><ele>1247.6</ele><time>2016-08-28T10:52:25Z</time></trkpt>
<trkpt lat="46.17047" lon="7.32532"><ele>1247.8</ele><time>2016-08-28T10:52:27Z</time></trkpt>
<trkpt lat="46.1705" lon="7.32534"><ele>1248.2</ele><time>2016-08-28T10:52:29Z</time></trkpt>
<trkpt lat="46.17052" lon="7.32536"><ele>1248.6</ele><time>2016-08-28T10:52:31Z</time></trkpt>
<trkpt lat="46.17054" lon="7.32538"><ele>1249</ele><time>2016-08-28T10:52:33Z</time></trkpt>
<trkpt lat="46.17057" lon="7.32541"><ele>1249.2</ele><time>2016-08-28T10:52:35Z</time></trkpt>
<trkpt lat="46.17059" lon="7.32543"><ele>1249.6</ele><time>2016-08-28T10:52:37Z</time></trkpt>
<trkpt lat="46.17062" lon="7.32545"><ele>1250</ele><time>2016-08-28T10:52:39Z</time></trkpt>
<trkpt lat="46.17064" lon="7.32547"><ele>1250.2</ele><time>2016-08-28T10:52:41Z</time></trkpt>
<trkpt lat="46.17067" lon="7.32549"><ele>1250.4</ele><time>2016-08-28T10:52:43Z</time></trkpt>
<trkpt lat="46.17069" lon="7.32551"><ele>1250.8</ele><time>2016-08-28T10:52:45Z</time></trkpt>
<trkpt lat="46.17072" lon="7.32553"><ele>1251</ele><time>2016-08-28T10:52:47Z</time></trkpt>
<trkpt lat="46.17074" lon="7.32555"><ele>1251.2</ele><time>2016-08-28T10:52:49Z</time></trkpt>
<trkpt lat="46.17077" lon="7.32557"><ele>1251.6</ele><time>2016-08-28T10:52:51Z</time></trkpt>
<trkpt lat="46.17078" lon="7.32558"><ele>1251.6</ele><time>2016-08-28T10:52:52Z</time></trkpt>
<trkpt lat="46.17079" lon="7.32559"><ele>1251.8</ele><time>2016-08-28T10:52:53Z</time></trkpt>
<trkpt lat="46.17082" lon="7.32562"><ele>1252</ele><time>2016-08-28T10:52:55Z</time></trkpt>
<trkpt lat="46.17084" lon="7.32564"><ele>1252.4</ele><time>2016-08-28T10:52:57Z</time></trkpt>
<trkpt lat="46.17087" lon="7.32567"><ele>1252.6</ele><time>2016-08-28T10:52:59Z</time></trkpt>
<trkpt lat="46.1709" lon="7.32569"><ele>1252.8</ele><time>2016-08-28T10:53:01Z</time></trkpt>
<trkpt lat="46.17091" lon="7.3257"><ele>1253</ele><time>2016-08-28T10:53:02Z</time></trkpt>
<trkpt lat="46.17092" lon="7.32572"><ele>1253.2</ele><time>2016-08-28T10:53:03Z</time></trkpt>
<trkpt lat="46.17095" lon="7.32574"><ele>1253.6</ele><time>2016-08-28T10:53:05Z</time></trkpt>
<trkpt lat="46.17098" lon="7.32577"><ele>1253.8</ele><time>2016-08-28T10:53:07Z</time></trkpt>
<trkpt lat="46.17099" lon="7.32578"><ele>1254</ele><time>2016-08-28T10:53:08Z</time></trkpt>
<trkpt lat="46.171" lon="7.32579"><ele>1254.2</ele><time>2016-08-28T10:53:09Z</time></trkpt>
<trkpt lat="46.17103" lon="7.32581"><ele>1254.6</ele><time>2016-08-28T10:53:11Z</time></trkpt>
<trkpt lat="46.17106" lon="7.32584"><ele>1254.8</ele><time>2016-08-28T10:53:13Z</time></trkpt>
<trkpt lat="46.17108" lon="7.32586"><ele>1255.2</ele><time>2016-08-28T10:53:15Z</time></trkpt>
<trkpt lat="46.17111" lon="7.32589"><ele>1255.6</ele><time>2016-08-28T10:53:17Z</time></trkpt>
<trkpt lat="46.17114" lon="7.32591"><ele>1255.8</ele><time>2016-08-28T10:53:19Z</time></trkpt>
<trkpt lat="46.17116" lon="7.32594"><ele>1256.2</ele><time>2016-08-28T10:53:21Z</time></trkpt>
<trkpt lat="46.17119" lon="7.32596"><ele>1256.4</ele><time>2016-08-28T10:53:23Z</time></trkpt>
<trkpt lat="46.17122" lon="7.32598"><ele>1256.8</ele><time>2016-08-28T10:53:25Z</time></trkpt>
<trkpt lat="46.17124" lon="7.32601"><ele>1257.2</ele><time>2016-08-28T10:53:27Z</time></trkpt>
<trkpt lat="46.17127" lon="7.32603"><ele>1257.4</ele><time>2016-08-28T10:53:29Z</time></trkpt>
<trkpt lat="46.17128" lon="7.32604"><ele>1257.6</ele><time>2016-08-28T10:53:30Z</time></trkpt>
<trkpt lat="46.17129" lon="7.32605"><ele>1257.8</ele><time>2016-08-28T10:53:31Z</time></trkpt>
<trkpt lat="46.17132" lon="7.32608"><ele>1258</ele><time>2016-08-28T10:53:33Z</time></trkpt>
<trkpt lat="46.17135" lon="7.3261"><ele>1258.4</ele><time>2016-08-28T10:53:35Z</time></trkpt>
<trkpt lat="46.17137" lon="7.32612"><ele>1258.6</ele><time>2016-08-28T10:53:37Z</time></trkpt>
<trkpt lat="46.1714" lon="7.32615"><ele>1259</ele><time>2016-08-28T10:53:39Z</time></trkpt>
<trkpt lat="46.17143" lon="7.32617"><ele>1259.4</ele><time>2016-08-28T10:53:41Z</time></trkpt>
<trkpt lat="46.17145" lon="7.32619"><ele>1259.6</ele><time>2016-08-28T10:53:43Z</time></trkpt>
<trkpt lat="46.17148" lon="7.32622"><ele>1260</ele><time>2016-08-28T10:53:45Z</time></trkpt>
<trkpt lat="46.17151" lon="7.32624"><ele>1260.2</ele><time>2016-08-28T10:53:47Z</time></trkpt>
<trkpt lat="46.17153" lon="7.32626"><ele>1260.6</ele><time>2016-08-28T10:53:49Z</time></trkpt>
<trkpt lat="46.17156" lon="7.32629"><ele>1260.8</ele><time>2016-08-28T10:53:51Z</time></trkpt>
<trkpt lat="46.17157" lon="7.3263"><ele>1261</ele><time>2016-08-28T10:53:52Z</time></trkpt>
<trkpt lat="46.17158" lon="7.32631"><ele>1261.2</ele><time>2016-08-28T10:53:53Z</time></trkpt>
<trkpt lat="46.17161" lon="7.32633"><ele>1261.6</ele><time>2016-08-28T10:53:55Z</time></trkpt>
<trkpt lat="46.17163" lon="7.32635"><ele>1261.8</ele><time>2016-08-28T10:53:57Z</time></trkpt>
<trkpt lat="46.17165" lon="7.32637"><ele>1262.2</ele><time>2016-08-28T10:53:59Z</time></trkpt>
<trkpt lat="46.17168" lon="7.32638"><ele>1262.4</ele><time>2016-08-28T10:54:01Z</time></trkpt>
<trkpt lat="46.1717" lon="7.3264"><ele>1262.8</ele><time>2016-08-28T10:54:03Z</time></trkpt>
<trkpt lat="46.17172" lon="7.32642"><ele>1263.2</ele><time>2016-08-28T10:54:05Z</time></trkpt>
<trkpt lat="46.17174" lon="7.32644"><ele>1263.4</ele><time>2016-08-28T10:54:07Z</time></trkpt>
<trkpt lat="46.17177" lon="7.32646"><ele>1263.8</ele><time>2016-08-28T10:54:09Z</time></trkpt>
<trkpt lat="46.17179" lon="7.32648"><ele>1264.2</ele><time>2016-08-28T10:54:11Z</time></trkpt>
<trkpt lat="46.17181" lon="7.3265"><ele>1264.4</ele><time>2016-08-28T10:54:13Z</time></trkpt>
<trkpt lat="46.17182" lon="7.3265"><ele>1264.6</ele><time>2016-08-28T10:54:14Z</time></trkpt>
<trkpt lat="46.17183" lon="7.32651"><ele>1264.8</ele><time>2016-08-28T10:54:15Z</time></trkpt>
<trkpt lat="46.17186" lon="7.32653"><ele>1265.2</ele><time>2016-08-28T10:54:17Z</time></trkpt>
<trkpt lat="46.17188" lon="7.32655"><ele>1265.4</ele><time>2016-08-28T10:54:19Z</time></trkpt>
<trkpt lat="46.1719" lon="7.32657"><ele>1265.8</ele><time>2016-08-28T10:54:21Z</time></trkpt>
<trkpt lat="46.17193" lon="7.32659"><ele>1266</ele><time>2016-08-28T10:54:23Z</time></trkpt>
<trkpt lat="46.17195" lon="7.32661"><ele>1266.4</ele><time>2016-08-28T10:54:25Z</time></trkpt>
<trkpt lat="46.17197" lon="7.32663"><ele>1266.8</ele><time>2016-08-28T10:54:27Z</time></trkpt>
<trkpt lat="46.17198" lon="7.32663"><ele>1266.8</ele><time>2016-08-28T10:54:28Z</time></trkpt>
<trkpt lat="46.17199" lon="7.32665"><ele>1267</ele><time>2016-08-28T10:54:29Z</time></trkpt>
<trkpt lat="46.172" lon="7.32669"><ele>1267.4</ele><time>2016-08-28T10:54:31Z</time></trkpt>
<trkpt lat="46.17202" lon="7.32672"><ele>1267.6</ele><time>2016-08-28T10:54:33Z</time></trkpt>
<trkpt lat="46.17203" lon="7.32676"><ele>1268</ele><time>2016-08-28T10:54:35Z</time></trkpt>
<trkpt lat="46.17204" lon="7.32678"><ele>1268.2</ele><time>2016-08-28T10:54:36Z</time></trkpt>
<trkpt lat="46.17204" lon="7.32679"><ele>1268.4</ele><time>2016-08-28T10:54:37Z</time></trkpt>
<trkpt lat="46.17206" lon="7.32683"><ele>1268.8</ele><time>2016-08-28T10:54:39Z</time></trkpt>
<trkpt lat="46.17207" lon="7.32687"><ele>1269.2</ele><time>2016-08-28T10:54:41Z</time></trkpt>
<trkpt lat="46.17209" lon="7.3269"><ele>1269.6</ele><time>2016-08-28T10:54:43Z</time></trkpt>
<trkpt lat="46.1721" lon="7.32694"><ele>1270</ele><time>2016-08-28T10:54:45Z</time></trkpt>
<trkpt lat="46.17211" lon="7.32697"><ele>1270.2</ele><time>2016-08-28T10:54:47Z</time></trkpt>
<trkpt lat="46.17213" lon="7.32701"><ele>1270.6</ele><time>2016-08-28T10:54:49Z</time></trkpt>
<trkpt lat="46.17214" lon="7.32704"><ele>1271</ele><time>2016-08-28T10:54:51Z</time></trkpt>
<trkpt lat="46.17216" lon="7.32708"><ele>1271.4</ele><time>2016-08-28T10:54:53Z</time></trkpt>
<trkpt lat="46.17216" lon="7.3271"><ele>1271.6</ele><time>2016-08-28T10:54:54Z</time></trkpt>
<trkpt lat="46.17217" lon="7.32712"><ele>1271.8</ele><time>2016-08-28T10:54:55Z</time></trkpt>
<trkpt lat="46.17218" lon="7.32715"><ele>1272.2</ele><time>2016-08-28T10:54:57Z</time></trkpt>
<trkpt lat="46.1722" lon="7.32719"><ele>1272.6</ele><time>2016-08-28T10:54:59Z</time></trkpt>
<trkpt lat="46.17221" lon="7.32721"><ele>1272.8</ele><time>2016-08-28T10:55:00Z</time></trkpt>
<trkpt lat="46.17221" lon="7.32722"><ele>1272.8</ele><time>2016-08-28T10:55:01Z</time></trkpt>
<trkpt lat="46.17222" lon="7.32726"><ele>1273.2</ele><time>2016-08-28T10:55:03Z</time></trkpt>
<trkpt lat="46.17223" lon="7.32729"><ele>1273.6</ele><time>2016-08-28T10:55:05Z</time></trkpt>
<trkpt lat="46.17224" lon="7.32733"><ele>1274</ele><time>2016-08-28T10:55:07Z</time></trkpt>
<trkpt lat="46.17225" lon="7.32736"><ele>1274.4</ele><time>2016-08-28T10:55:09Z</time></trkpt>
<trkpt lat="46.17226" lon="7.32739"><ele>1274.6</ele><time>2016-08-28T10:55:11Z</time></trkpt>
<trkpt lat="46.17227" lon="7.32743"><ele>1275</ele><time>2016-08-28T10:55:13Z</time></trkpt>
<trkpt lat="46.17228" lon="7.32746"><ele>1275.4</ele><time>2016-08-28T10:55:15Z</time></trkpt>
<trkpt lat="46.17229" lon="7.3275"><ele>1275.8</ele><time>2016-08-28T10:55:17Z</time></trkpt>
<trkpt lat="46.1723" lon="7.32753"><ele>1276.2</ele><time>2016-08-28T10:55:19Z</time></trkpt>
<trkpt lat="46.17231" lon="7.32757"><ele>1276.6</ele><time>2016-08-28T10:55:21Z</time></trkpt>
<trkpt lat="46.17232" lon="7.3276"><ele>1277</ele><time>2016-08-28T10:55:23Z</time></trkpt>
<trkpt lat="46.17233" lon="7.32763"><ele>1277.4</ele><time>2016-08-28T10:55:25Z</time></trkpt>
<trkpt lat="46.17234" lon="7.32767"><ele>1277.6</ele><time>2016-08-28T10:55:27Z</time></trkpt>
<trkpt lat="46.17235" lon="7.3277"><ele>1278</ele><time>2016-08-28T10:55:29Z</time></trkpt>
<trkpt lat="46.17236" lon="7.32774"><ele>1278.4</ele><time>2016-08-28T10:55:31Z</time></trkpt>
<trkpt lat="46.17237" lon="7.32777"><ele>1278.8</ele><time>2016-08-28T10:55:33Z</time></trkpt>
<trkpt lat="46.17238" lon="7.32781"><ele>1279.2</ele><time>2016-08-28T10:55:35Z</time></trkpt>
<trkpt lat="46.17239" lon="7.32784"><ele>1279.6</ele><time>2016-08-28T10:55:37Z</time></trkpt>
<trkpt lat="46.17241" lon="7.32787"><ele>1279.8</ele><time>2016-08-28T10:55:39Z</time></trkpt>
<trkpt lat="46.17243" lon="7.32789"><ele>1280.2</ele><time>2016-08-28T10:55:41Z</time></trkpt>
<trkpt lat="46.17244" lon="7.32792"><ele>1280.6</ele><time>2016-08-28T10:55:43Z</time></trkpt>
<trkpt lat="46.17246" lon="7.32795"><ele>1280.8</ele><time>2016-08-28T10:55:45Z</time></trkpt>
<trkpt lat="46.17248" lon="7.32798"><ele>1281.2</ele><time>2016-08-28T10:55:47Z</time></trkpt>
<trkpt lat="46.17249" lon="7.32801"><ele>1281.6</ele><time>2016-08-28T10:55:49Z</time></trkpt>
<trkpt lat="46.17251" lon="7.32804"><ele>1282</ele><time>2016-08-28T10:55:51Z</time></trkpt>
<trkpt lat="46.17252" lon="7.32807"><ele>1282.2</ele><time>2016-08-28T10:55:53Z</time></trkpt>
<trkpt lat="46.17254" lon="7.3281"><ele>1282.6</ele><time>2016-08-28T10:55:55Z</time></trkpt>
<trkpt lat="46.17256" lon="7.32813"><ele>1283</ele><time>2016-08-28T10:55:57Z</time></trkpt>
<trkpt lat="46.17257" lon="7.32816"><ele>1283.4</ele><time>2016-08-28T10:55:59Z</time></trkpt>
<trkpt lat="46.17259" lon="7.32819"><ele>1283.8</ele><time>2016-08-28T10:56:01Z</time></trkpt>
<trkpt lat="46.17261" lon="7.32822"><ele>1284</ele><time>2016-08-28T10:56:03Z</time></trkpt>
<trkpt lat="46.17262" lon="7.32825"><ele>1284.4</ele><time>2016-08-28T10:56:05Z</time></trkpt>
<trkpt lat="46.17264" lon="7.32827"><ele>1284.8</ele><time>2016-08-28T10:56:07Z</time></trkpt>
<trkpt lat="46.17266" lon="7.3283"><ele>1285.2</ele><time>2016-08-28T10:56:09Z</time></trkpt>
<trkpt lat="46.17266" lon="7.32832"><ele>1285.4</ele><time>2016-08-28T10:56:10Z</time></trkpt>
<trkpt lat="46.17267" lon="7.32834"><ele>1285.6</ele><time>2016-08-28T10:56:11Z</time></trkpt>
<trkpt lat="46.17268" lon="7.32836"><ele>1285.8</ele><time>2016-08-28T10:56:12Z</time></trkpt>
<trkpt lat="46.17268" lon="7.32838"><ele>1285.8</ele><time>2016-08-28T10:56:13Z</time></trkpt>
<trkpt lat="46.17269" lon="7.32842"><ele>1286.2</ele><time>2016-08-28T10:56:15Z</time></trkpt>
<trkpt lat="46.17271" lon="7.32846"><ele>1286.4</ele><time>2016-08-28T10:56:17Z</time></trkpt>
<trkpt lat="46.17272" lon="7.3285"><ele>1286.8</ele><time>2016-08-28T10:56:19Z</time></trkpt>
<trkpt lat="46.17273" lon="7.32854"><ele>1287</ele><time>2016-08-28T10:56:21Z</time></trkpt>
<trkpt lat="46.17274" lon="7.32858"><ele>1287.4</ele><time>2016-08-28T10:56:23Z</time></trkpt>
<trkpt lat="46.17276" lon="7.32861"><ele>1287.8</ele><time>2016-08-28T10:56:25Z</time></trkpt>
<trkpt lat="46.17277" lon="7.32865"><ele>1288</ele><time>2016-08-28T10:56:27Z</time></trkpt>
<trkpt lat="46.17278" lon="7.32869"><ele>1288.4</ele><time>2016-08-28T10:56:29Z</time></trkpt>
<trkpt lat="46.17279" lon="7.32873"><ele>1288.6</ele><time>2016-08-28T10:56:31Z</time></trkpt>
<trkpt lat="46.1728" lon="7.32877"><ele>1289</ele><time>2016-08-28T10:56:33Z</time></trkpt>
<trkpt lat="46.17282" lon="7.32881"><ele>1289.2</ele><time>2016-08-28T10:56:35Z</time></trkpt>
<trkpt lat="46.17283" lon="7.32885"><ele>1289.6</ele><time>2016-08-28T10:56:37Z</time></trkpt>
<trkpt lat="46.17284" lon="7.32889"><ele>1289.8</ele><time>2016-08-28T10:56:39Z</time></trkpt>
<trkpt lat="46.17285" lon="7.32891"><ele>1290</ele><time>2016-08-28T10:56:40Z</time></trkpt>
<trkpt lat="46.17285" lon="7.32894"><ele>1290</ele><time>2016-08-28T10:56:41Z</time></trkpt>
<trkpt lat="46.17285" lon="7.32899"><ele>1290.4</ele><time>2016-08-28T10:56:43Z</time></trkpt>
<trkpt lat="46.17286" lon="7.32904"><ele>1290.6</ele><time>2016-08-28T10:56:45Z</time></trkpt>
<trkpt lat="46.17286" lon="7.32909"><ele>1291</ele><time>2016-08-28T10:56:47Z</time></trkpt>
<trkpt lat="46.17287" lon="7.32914"><ele>1291.2</ele><time>2016-08-28T10:56:49Z</time></trkpt>
<trkpt lat="46.17287" lon="7.32919"><ele>1291.6</ele><time>2016-08-28T10:56:51Z</time></trkpt>
<trkpt lat="46.17288" lon="7.32924"><ele>1291.8</ele><time>2016-08-28T10:56:53Z</time></trkpt>
<trkpt lat="46.17288" lon="7.32929"><ele>1292.2</ele><time>2016-08-28T10:56:55Z</time></trkpt>
<trkpt lat="46.17289" lon="7.32932"><ele>1292.2</ele><time>2016-08-28T10:56:56Z</time></trkpt>
<trkpt lat="46.17289" lon="7.32934"><ele>1292.4</ele><time>2016-08-28T10:56:57Z</time></trkpt>
<trkpt lat="46.17289" lon="7.32939"><ele>1292.8</ele><time>2016-08-28T10:56:59Z</time></trkpt>
<trkpt lat="46.1729" lon="7.32944"><ele>1293</ele><time>2016-08-28T10:57:01Z</time></trkpt>
<trkpt lat="46.1729" lon="7.32949"><ele>1293.2</ele><time>2016-08-28T10:57:03Z</time></trkpt>
<trkpt lat="46.17291" lon="7.32954"><ele>1293.6</ele><time>2016-08-28T10:57:05Z</time></trkpt>
<trkpt lat="46.17291" lon="7.32957"><ele>1293.8</ele><time>2016-08-28T10:57:06Z</time></trkpt>
<trkpt lat="46.17291" lon="7.3296"><ele>1293.8</ele><time>2016-08-28T10:57:07Z</time></trkpt>
<trkpt lat="46.17292" lon="7.32965"><ele>1294.2</ele><time>2016-08-28T10:57:09Z</time></trkpt>
<trkpt lat="46.17293" lon="7.3297"><ele>1294.4</ele><time>2016-08-28T10:57:11Z</time></trkpt>
<trkpt lat="46.17294" lon="7.32975"><ele>1294.6</ele><time>2016-08-28T10:57:13Z</time></trkpt>
<trkpt lat="46.17295" lon="7.3298"><ele>1295</ele><time>2016-08-28T10:57:15Z</time></trkpt>
<trkpt lat="46.17295" lon="7.32986"><ele>1295.2</ele><time>2016-08-28T10:57:17Z</time></trkpt>
<trkpt lat="46.17296" lon="7.32988"><ele>1295.4</ele><time>2016-08-28T10:57:18Z</time></trkpt>
<trkpt lat="46.17296" lon="7.32991"><ele>1295.6</ele><time>2016-08-28T10:57:19Z</time></trkpt>
<trkpt lat="46.17297" lon="7.32996"><ele>1295.8</ele><time>2016-08-28T10:57:21Z</time></trkpt>
<trkpt lat="46.17298" lon="7.33001"><ele>1296</ele><time>2016-08-28T10:57:23Z</time></trkpt>
<trkpt lat="46.17299" lon="7.33006"><ele>1296.2</ele><time>2016-08-28T10:57:25Z</time></trkpt>
<trkpt lat="46.173" lon="7.33012"><ele>1296.6</ele><time>2016-08-28T10:57:27Z</time></trkpt>
<trkpt lat="46.173" lon="7.33017"><ele>1296.8</ele><time>2016-08-28T10:57:29Z</time></trkpt>
<trkpt lat="46.17301" lon="7.33022"><ele>1297</ele><time>2016-08-28T10:57:31Z</time></trkpt>
<trkpt lat="46.17302" lon="7.33027"><ele>1297.4</ele><time>2016-08-28T10:57:33Z</time></trkpt>
<trkpt lat="46.17303" lon="7.33029"><ele>1297.4</ele><time>2016-08-28T10:57:34Z</time></trkpt>
<trkpt lat="46.17303" lon="7.33032"><ele>1297.6</ele><time>2016-08-28T10:57:35Z</time></trkpt>
<trkpt lat="46.17304" lon="7.33037"><ele>1297.8</ele><time>2016-08-28T10:57:37Z</time></trkpt>
<trkpt lat="46.17305" lon="7.33041"><ele>1298.2</ele><time>2016-08-28T10:57:39Z</time></trkpt>
<trkpt lat="46.17305" lon="7.33044"><ele>1298.4</ele><time>2016-08-28T10:57:40Z</time></trkpt>
<trkpt lat="46.17306" lon="7.33046"><ele>1298.4</ele><time>2016-08-28T10:57:41Z</time></trkpt>
<trkpt lat="46.17306" lon="7.33051"><ele>1298.6</ele><time>2016-08-28T10:57:43Z</time></trkpt>
<trkpt lat="46.17307" lon="7.33056"><ele>1298.8</ele><time>2016-08-28T10:57:45Z</time></trkpt>
<trkpt lat="46.17308" lon="7.33061"><ele>1299</ele><time>2016-08-28T10:57:47Z</time></trkpt>
<trkpt lat="46.17309" lon="7.33066"><ele>1299.4</ele><time>2016-08-28T10:57:49Z</time></trkpt>
<trkpt lat="46.1731" lon="7.33071"><ele>1299.8</ele><time>2016-08-28T10:57:51Z</time></trkpt>
<trkpt lat="46.17311" lon="7.33076"><ele>1300</ele><time>2016-08-28T10:57:53Z</time></trkpt>
<trkpt lat="46.17312" lon="7.3308"><ele>1300.4</ele><time>2016-08-28T10:57:55Z</time></trkpt>
<trkpt lat="46.17312" lon="7.33085"><ele>1300.6</ele><time>2016-08-28T10:57:57Z</time></trkpt>
<trkpt lat="46.17312" lon="7.33091"><ele>1301</ele><time>2016-08-28T10:57:59Z</time></trkpt>
<trkpt lat="46.17313" lon="7.33097"><ele>1301.2</ele><time>2016-08-28T10:58:01Z</time></trkpt>
<trkpt lat="46.17313" lon="7.33103"><ele>1301.6</ele><time>2016-08-28T10:58:03Z</time></trkpt>
<trkpt lat="46.17313" lon="7.33108"><ele>1301.8</ele><time>2016-08-28T10:58:05Z</time></trkpt>
<trkpt lat="46.17313" lon="7.33114"><ele>1302</ele><time>2016-08-28T10:58:07Z</time></trkpt>
<trkpt lat="46.17313" lon="7.3312"><ele>1302.4</ele><time>2016-08-28T10:58:09Z</time></trkpt>
<trkpt lat="46.17313" lon="7.33126"><ele>1302.6</ele><time>2016-08-28T10:58:11Z</time></trkpt>
<trkpt lat="46.17313" lon="7.33132"><ele>1303</ele><time>2016-08-28T10:58:13Z</time></trkpt>
<trkpt lat="46.17313" lon="7.33137"><ele>1303.2</ele><time>2016-08-28T10:58:15Z</time></trkpt>
<trkpt lat="46.17313" lon="7.33143"><ele>1303.4</ele><time>2016-08-28T10:58:17Z</time></trkpt>
<trkpt lat="46.17313" lon="7.33149"><ele>1303.6</ele><time>2016-08-28T10:58:19Z</time></trkpt>
<trkpt lat="46.17313" lon="7.33152"><ele>1303.8</ele><time>2016-08-28T10:58:20Z</time></trkpt>
<trkpt lat="46.17314" lon="7.33154"><ele>1303.8</ele><time>2016-08-28T10:58:21Z</time></trkpt>
<trkpt lat="46.17316" lon="7.33158"><ele>1304.2</ele><time>2016-08-28T10:58:23Z</time></trkpt>
<trkpt lat="46.17316" lon="7.3316"><ele>1304.2</ele><time>2016-08-28T10:58:24Z</time></trkpt>
<trkpt lat="46.17317" lon="7.33162"><ele>1304.4</ele><time>2016-08-28T10:58:25Z</time></trkpt>
<trkpt lat="46.17319" lon="7.33167"><ele>1304.6</ele><time>2016-08-28T10:58:27Z</time></trkpt>
<trkpt lat="46.17321" lon="7.33171"><ele>1304.8</ele><time>2016-08-28T10:58:29Z</time></trkpt>
<trkpt lat="46.17323" lon="7.33175"><ele>1305</ele><time>2016-08-28T10:58:31Z</time></trkpt>
<trkpt lat="46.17324" lon="7.33179"><ele>1305.2</ele><time>2016-08-28T10:58:33Z</time></trkpt>
<trkpt lat="46.17325" lon="7.33181"><ele>1305.2</ele><time>2016-08-28T10:58:34Z</time></trkpt>
<trkpt lat="46.17327" lon="7.3318"><ele>1305.4</ele><time>2016-08-28T10:58:35Z</time></trkpt>
<trkpt lat="46.17329" lon="7.33176"><ele>1305.6</ele><time>2016-08-28T10:58:37Z</time></trkpt>
<trkpt lat="46.17331" lon="7.33172"><ele>1305.8</ele><time>2016-08-28T10:58:39Z</time></trkpt>
<trkpt lat="46.17334" lon="7.33168"><ele>1306</ele><time>2016-08-28T10:58:41Z</time></trkpt>
<trkpt lat="46.17336" lon="7.33165"><ele>1306.2</ele><time>2016-08-28T10:58:43Z</time></trkpt>
<trkpt lat="46.17338" lon="7.33161"><ele>1306.4</ele><time>2016-08-28T10:58:45Z</time></trkpt>
<trkpt lat="46.17341" lon="7.33157"><ele>1306.6</ele><time>2016-08-28T10:58:47Z</time></trkpt>
<trkpt lat="46.17343" lon="7.33153"><ele>1306.8</ele><time>2016-08-28T10:58:49Z</time></trkpt>
<trkpt lat="46.17346" lon="7.3315"><ele>1307</ele><time>2016-08-28T10:58:51Z</time></trkpt>
<trkpt lat="46.17348" lon="7.33146"><ele>1307.2</ele><time>2016-08-28T10:58:53Z</time></trkpt>
<trkpt lat="46.1735" lon="7.33142"><ele>1307.4</ele><time>2016-08-28T10:58:55Z</time></trkpt>
<trkpt lat="46.17353" lon="7.33138"><ele>1307.6</ele><time>2016-08-28T10:58:57Z</time></trkpt>
<trkpt lat="46.17355" lon="7.33134"><ele>1307.8</ele><time>2016-08-28T10:58:59Z</time></trkpt>
<trkpt lat="46.17356" lon="7.33132"><ele>1307.8</ele><time>2016-08-28T10:59:00Z</time></trkpt>
<trkpt lat="46.17358" lon="7.33131"><ele>1308</ele><time>2016-08-28T10:59:01Z</time></trkpt>
<trkpt lat="46.17362" lon="7.33127"><ele>1308.2</ele><time>2016-08-28T10:59:03Z</time></trkpt>
<trkpt lat="46.17365" lon="7.33124"><ele>1308.4</ele><time>2016-08-28T10:59:05Z</time></trkpt>
<trkpt lat="46.17369" lon="7.3312"><ele>1308.6</ele><time>2016-08-28T10:59:07Z</time></trkpt>
<trkpt lat="46.17371" lon="7.33118"><ele>1308.6</ele><time>2016-08-28T10:59:08Z</time></trkpt>
<trkpt lat="46.17373" lon="7.33116"><ele>1308.8</ele><time>2016-08-28T10:59:09Z</time></trkpt>
<trkpt lat="46.17376" lon="7.33113"><ele>1309</ele><time>2016-08-28T10:59:11Z</time></trkpt>
<trkpt lat="46.1738" lon="7.33109"><ele>1309.2</ele><time>2016-08-28T10:59:13Z</time></trkpt>
<trkpt lat="46.17384" lon="7.33106"><ele>1309.4</ele><time>2016-08-28T10:59:15Z</time></trkpt>
<trkpt lat="46.17387" lon="7.33102"><ele>1309.6</ele><time>2016-08-28T10:59:17Z</time></trkpt>
<trkpt lat="46.17391" lon="7.33099"><ele>1309.8</ele><time>2016-08-28T10:59:19Z</time></trkpt>
<trkpt lat="46.17395" lon="7.33095"><ele>1310.2</ele><time>2016-08-28T10:59:21Z</time></trkpt>
<trkpt lat="46.17398" lon="7.33092"><ele>1310.4</ele><time>2016-08-28T10:59:23Z</time></trkpt>
<trkpt lat="46.17402" lon="7.33089"><ele>1310.6</ele><time>2016-08-28T10:59:25Z</time></trkpt>
<trkpt lat="46.17406" lon="7.33086"><ele>1310.8</ele><time>2016-08-28T10:59:27Z</time></trkpt>
<trkpt lat="46.17409" lon="7.33083"><ele>1311</ele><time>2016-08-28T10:59:29Z</time></trkpt>
<trkpt lat="46.17411" lon="7.33081"><ele>1311.2</ele><time>2016-08-28T10:59:30Z</time></trkpt>
<trkpt lat="46.17413" lon="7.33083"><ele>1311.2</ele><time>2016-08-28T10:59:31Z</time></trkpt>
<trkpt lat="46.17416" lon="7.33086"><ele>1311.6</ele><time>2016-08-28T10:59:33Z</time></trkpt>
<trkpt lat="46.17419" lon="7.3309"><ele>1311.8</ele><time>2016-08-28T10:59:35Z</time></trkpt>
<trkpt lat="46.17422" lon="7.33094"><ele>1312</ele><time>2016-08-28T10:59:37Z</time></trkpt>
<trkpt lat="46.17426" lon="7.33098"><ele>1312.2</ele><time>2016-08-28T10:59:39Z</time></trkpt>
<trkpt lat="46.17429" lon="7.33101"><ele>1312.4</ele><time>2016-08-28T10:59:41Z</time></trkpt>
<trkpt lat="46.17432" lon="7.33105"><ele>1312.6</ele><time>2016-08-28T10:59:43Z</time></trkpt>
<trkpt lat="46.17435" lon="7.33109"><ele>1313</ele><time>2016-08-28T10:59:45Z</time></trkpt>
<trkpt lat="46.17437" lon="7.33111"><ele>1313.2</ele><time>2016-08-28T10:59:46Z</time></trkpt>
<trkpt lat="46.17438" lon="7.33113"><ele>1313.4</ele><time>2016-08-28T10:59:47Z</time></trkpt>
<trkpt lat="46.17441" lon="7.33117"><ele>1313.6</ele><time>2016-08-28T10:59:49Z</time></trkpt>
<trkpt lat="46.17445" lon="7.3312"><ele>1314</ele><time>2016-08-28T10:59:51Z</time></trkpt>
<trkpt lat="46.17448" lon="7.33124"><ele>1314.2</ele><time>2016-08-28T10:59:53Z</time></trkpt>
<trkpt lat="46.17452" lon="7.33126"><ele>1314.6</ele><time>2016-08-28T10:59:55Z</time></trkpt>
<trkpt lat="46.17455" lon="7.33127"><ele>1315</ele><time>2016-08-28T10:59:57Z</time></trkpt>
<trkpt lat="46.17459" lon="7.33128"><ele>1315.2</ele><time>2016-08-28T10:59:59Z</time></trkpt>
<trkpt lat="46.17463" lon="7.3313"><ele>1315.6</ele><time>2016-08-28T11:00:01Z</time></trkpt>
<trkpt lat="46.17467" lon="7.33131"><ele>1315.8</ele><time>2016-08-28T11:00:03Z</time></trkpt>
<trkpt lat="46.17471" lon="7.33132"><ele>1316.2</ele><time>2016-08-28T11:00:05Z</time></trkpt>
<trkpt lat="46.17474" lon="7.33134"><ele>1316.4</ele><time>2016-08-28T11:00:07Z</time></trkpt>
<trkpt lat="46.17476" lon="7.33135"><ele>1316.6</ele><time>2016-08-28T11:00:08Z</time></trkpt>
<trkpt lat="46.17478" lon="7.33135"><ele>1316.8</ele><time>2016-08-28T11:00:09Z</time></trkpt>
<trkpt lat="46.17482" lon="7.33137"><ele>1317.2</ele><time>2016-08-28T11:00:11Z</time></trkpt>
<trkpt lat="46.17486" lon="7.33138"><ele>1317.6</ele><time>2016-08-28T11:00:13Z</time></trkpt>
<trkpt lat="46.1749" lon="7.33139"><ele>1317.8</ele><time>2016-08-28T11:00:15Z</time></trkpt>
<trkpt lat="46.17492" lon="7.3314"><ele>1318</ele><time>2016-08-28T11:00:16Z</time></trkpt>
<trkpt lat="46.17493" lon="7.33139"><ele>1318.2</ele><time>2016-08-28T11:00:17Z</time></trkpt>
<trkpt lat="46.17497" lon="7.33138"><ele>1318.6</ele><time>2016-08-28T11:00:19Z</time></trkpt>
<trkpt lat="46.175" lon="7.33136"><ele>1319</ele><time>2016-08-28T11:00:21Z</time></trkpt>
<trkpt lat="46.17504" lon="7.33135"><ele>1319.4</ele><time>2016-08-28T11:00:23Z</time></trkpt>
<trkpt lat="46.17507" lon="7.33133"><ele>1319.6</ele><time>2016-08-28T11:00:25Z</time></trkpt>
<trkpt lat="46.17511" lon="7.33132"><ele>1320</ele><time>2016-08-28T11:00:27Z</time></trkpt>
<trkpt lat="46.17514" lon="7.33131"><ele>1320.4</ele><time>2016-08-28T11:00:29Z</time></trkpt>
<trkpt lat="46.17518" lon="7.33129"><ele>1320.8</ele><time>2016-08-28T11:00:31Z</time></trkpt>
<trkpt lat="46.17522" lon="7.33128"><ele>1321.2</ele><time>2016-08-28T11:00:33Z</time></trkpt>
<trkpt lat="46.17525" lon="7.33126"><ele>1321.6</ele><time>2016-08-28T11:00:35Z</time></trkpt>
<trkpt lat="46.17529" lon="7.33125"><ele>1322</ele><time>2016-08-28T11:00:37Z</time></trkpt>
<trkpt lat="46.17532" lon="7.33123"><ele>1322.4</ele><time>2016-08-28T11:00:39Z</time></trkpt>
<trkpt lat="46.17536" lon="7.33122"><ele>1322.6</ele><time>2016-08-28T11:00:41Z</time></trkpt>
<trkpt lat="46.17539" lon="7.33123"><ele>1323</ele><time>2016-08-28T11:00:43Z</time></trkpt>
<trkpt lat="46.17543" lon="7.33125"><ele>1323.4</ele><time>2016-08-28T11:00:45Z</time></trkpt>
<trkpt lat="46.17545" lon="7.33126"><ele>1323.6</ele><time>2016-08-28T11:00:46Z</time></trkpt>
<trkpt lat="46.17547" lon="7.33127"><ele>1323.8</ele><time>2016-08-28T11:00:47Z</time></trkpt>
<trkpt lat="46.17549" lon="7.33128"><ele>1324</ele><time>2016-08-28T11:00:48Z</time></trkpt>
<trkpt lat="46.17551" lon="7.33129"><ele>1324.2</ele><time>2016-08-28T11:00:49Z</time></trkpt>
<trkpt lat="46.17555" lon="7.3313"><ele>1324.4</ele><time>2016-08-28T11:00:51Z</time></trkpt>
<trkpt lat="46.17559" lon="7.33132"><ele>1324.8</ele><time>2016-08-28T11:00:53Z</time></trkpt>
<trkpt lat="46.17562" lon="7.33134"><ele>1325.2</ele><time>2016-08-28T11:00:55Z</time></trkpt>
<trkpt lat="46.17566" lon="7.33136"><ele>1325.4</ele><time>2016-08-28T11:00:57Z</time></trkpt>
<trkpt lat="46.1757" lon="7.33138"><ele>1325.8</ele><time>2016-08-28T11:00:59Z</time></trkpt>
<trkpt lat="46.17574" lon="7.33139"><ele>1326.2</ele><time>2016-08-28T11:01:01Z</time></trkpt>
<trkpt lat="46.17578" lon="7.33141"><ele>1326.4</ele><time>2016-08-28T11:01:03Z</time></trkpt>
<trkpt lat="46.1758" lon="7.33142"><ele>1326.6</ele><time>2016-08-28T11:01:04Z</time></trkpt>
<trkpt lat="46.17581" lon="7.33143"><ele>1326.8</ele><time>2016-08-28T11:01:05Z</time></trkpt>
<trkpt lat="46.17585" lon="7.33144"><ele>1327.2</ele><time>2016-08-28T11:01:07Z</time></trkpt>
<trkpt lat="46.17587" lon="7.33144"><ele>1327.4</ele><time>2016-08-28T11:01:08Z</time></trkpt>
<trkpt lat="46.17589" lon="7.33145"><ele>1327.4</ele><time>2016-08-28T11:01:09Z</time></trkpt>
<trkpt lat="46.17592" lon="7.33146"><ele>1327.8</ele><time>2016-08-28T11:01:11Z</time></trkpt>
<trkpt lat="46.17596" lon="7.33147"><ele>1328</ele><time>2016-08-28T11:01:13Z</time></trkpt>
<trkpt lat="46.176" lon="7.33148"><ele>1328.4</ele><time>2016-08-28T11:01:15Z</time></trkpt>
<trkpt lat="46.17603" lon="7.33149"><ele>1328.8</ele><time>2016-08-28T11:01:17Z</time></trkpt>
<trkpt lat="46.17607" lon="7.3315"><ele>1329</ele><time>2016-08-28T11:01:19Z</time></trkpt>
<trkpt lat="46.17611" lon="7.33152"><ele>1329.4</ele><time>2016-08-28T11:01:21Z</time></trkpt>
<trkpt lat="46.17614" lon="7.33153"><ele>1329.6</ele><time>2016-08-28T11:01:23Z</time></trkpt>
<trkpt lat="46.17618" lon="7.33154"><ele>1330</ele><time>2016-08-28T11:01:25Z</time></trkpt>
<trkpt lat="46.17622" lon="7.33155"><ele>1330.4</ele><time>2016-08-28T11:01:27Z</time></trkpt>
<trkpt lat="46.17625" lon="7.33156"><ele>1330.6</ele><time>2016-08-28T11:01:29Z</time></trkpt>
<trkpt lat="46.17626" lon="7.33157"><ele>1330.8</ele><time>2016-08-28T11:01:30Z</time></trkpt>
<trkpt lat="46.17628" lon="7.33158"><ele>1331</ele><time>2016-08-28T11:01:31Z</time></trkpt>
<trkpt lat="46.1763" lon="7.33161"><ele>1331.2</ele><time>2016-08-28T11:01:33Z</time></trkpt>
<trkpt lat="46.17632" lon="7.33163"><ele>1331.6</ele><time>2016-08-28T11:01:35Z</time></trkpt>
<trkpt lat="46.17634" lon="7.33165"><ele>1332</ele><time>2016-08-28T11:01:37Z</time></trkpt>
<trkpt lat="46.17636" lon="7.33168"><ele>1332.2</ele><time>2016-08-28T11:01:39Z</time></trkpt>
<trkpt lat="46.17639" lon="7.3317"><ele>1332.6</ele><time>2016-08-28T11:01:41Z</time></trkpt>
<trkpt lat="46.17641" lon="7.33172"><ele>1333</ele><time>2016-08-28T11:01:43Z</time></trkpt>
<trkpt lat="46.17643" lon="7.33175"><ele>1333.2</ele><time>2016-08-28T11:01:45Z</time></trkpt>
<trkpt lat="46.17645" lon="7.33177"><ele>1333.6</ele><time>2016-08-28T11:01:47Z</time></trkpt>
<trkpt lat="46.17647" lon="7.33179"><ele>1334</ele><time>2016-08-28T11:01:49Z</time></trkpt>
<trkpt lat="46.1765" lon="7.33182"><ele>1334.4</ele><time>2016-08-28T11:01:51Z</time></trkpt>
<trkpt lat="46.17652" lon="7.33184"><ele>1334.6</ele><time>2016-08-28T11:01:53Z</time></trkpt>
<trkpt lat="46.17654" lon="7.33186"><ele>1335</ele><time>2016-08-28T11:01:55Z</time></trkpt>
<trkpt lat="46.17656" lon="7.33189"><ele>1335.2</ele><time>2016-08-28T11:01:57Z</time></trkpt>
<trkpt lat="46.17658" lon="7.33191"><ele>1335.6</ele><time>2016-08-28T11:01:59Z</time></trkpt>
<trkpt lat="46.17661" lon="7.33193"><ele>1335.8</ele><time>2016-08-28T11:02:01Z</time></trkpt>
<trkpt lat="46.17662" lon="7.33194"><ele>1336</ele><time>2016-08-28T11:02:02Z</time></trkpt>
<trkpt lat="46.17663" lon="7.33196"><ele>1336.2</ele><time>2016-08-28T11:02:03Z</time></trkpt>
<trkpt lat="46.17665" lon="7.332"><ele>1336.4</ele><time>2016-08-28T11:02:05Z</time></trkpt>
<trkpt lat="46.17667" lon="7.33204"><ele>1336.8</ele><time>2016-08-28T11:02:07Z</time></trkpt>
<trkpt lat="46.17669" lon="7.33208"><ele>1337</ele><time>2016-08-28T11:02:09Z</time></trkpt>
<trkpt lat="46.17671" lon="7.33212"><ele>1337.4</ele><time>2016-08-28T11:02:11Z</time></trkpt>
<trkpt lat="46.17673" lon="7.33216"><ele>1337.6</ele><time>2016-08-28T11:02:13Z</time></trkpt>
<trkpt lat="46.17675" lon="7.3322"><ele>1338</ele><time>2016-08-28T11:02:15Z</time></trkpt>
<trkpt lat="46.17676" lon="7.33222"><ele>1338.2</ele><time>2016-08-28T11:02:16Z</time></trkpt>
<trkpt lat="46.17677" lon="7.33223"><ele>1338.2</ele><time>2016-08-28T11:02:17Z</time></trkpt>
<trkpt lat="46.17679" lon="7.33227"><ele>1338.6</ele><time>2016-08-28T11:02:19Z</time></trkpt>
<trkpt lat="46.17681" lon="7.33231"><ele>1338.8</ele><time>2016-08-28T11:02:21Z</time></trkpt>
<trkpt lat="46.17683" lon="7.33235"><ele>1339</ele><time>2016-08-28T11:02:23Z</time></trkpt>
<trkpt lat="46.17685" lon="7.33239"><ele>1339.4</ele><time>2016-08-28T11:02:25Z</time></trkpt>
<trkpt lat="46.17687" lon="7.33243"><ele>1339.6</ele><time>2016-08-28T11:02:27Z</time></trkpt>
<trkpt lat="46.17689" lon="7.33247"><ele>1339.8</ele><time>2016-08-28T11:02:29Z</time></trkpt>
<trkpt lat="46.1769" lon="7.33249"><ele>1340</ele><time>2016-08-28T11:02:30Z</time></trkpt>
<trkpt lat="46.17691" lon="7.33251"><ele>1340.2</ele><time>2016-08-28T11:02:31Z</time></trkpt>
<trkpt lat="46.17693" lon="7.33254"><ele>1340.4</ele><time>2016-08-28T11:02:33Z</time></trkpt>
<trkpt lat="46.17696" lon="7.33258"><ele>1340.8</ele><time>2016-08-28T11:02:35Z</time></trkpt>
<trkpt lat="46.17698" lon="7.33262"><ele>1341</ele><time>2016-08-28T11:02:37Z</time></trkpt>
<trkpt lat="46.177" lon="7.33266"><ele>1341.2</ele><time>2016-08-28T11:02:39Z</time></trkpt>
<trkpt lat="46.17703" lon="7.33269"><ele>1341.6</ele><time>2016-08-28T11:02:41Z</time></trkpt>
<trkpt lat="46.17705" lon="7.33273"><ele>1342</ele><time>2016-08-28T11:02:43Z</time></trkpt>
<trkpt lat="46.17708" lon="7.33277"><ele>1342.4</ele><time>2016-08-28T11:02:45Z</time></trkpt>
<trkpt lat="46.1771" lon="7.3328"><ele>1342.6</ele><time>2016-08-28T11:02:47Z</time></trkpt>
<trkpt lat="46.17712" lon="7.33284"><ele>1343</ele><time>2016-08-28T11:02:49Z</time></trkpt>
<trkpt lat="46.17715" lon="7.33288"><ele>1343.4</ele><time>2016-08-28T11:02:51Z</time></trkpt>
<trkpt lat="46.17717" lon="7.33292"><ele>1343.8</ele><time>2016-08-28T11:02:53Z</time></trkpt>
<trkpt lat="46.1772" lon="7.33295"><ele>1344</ele><time>2016-08-28T11:02:55Z</time></trkpt>
<trkpt lat="46.17721" lon="7.33297"><ele>1344.2</ele><time>2016-08-28T11:02:56Z</time></trkpt>
<trkpt lat="46.17722" lon="7.33299"><ele>1344.4</ele><time>2016-08-28T11:02:57Z</time></trkpt>
<trkpt lat="46.17725" lon="7.33301"><ele>1344.8</ele><time>2016-08-28T11:02:59Z</time></trkpt>
<trkpt lat="46.17728" lon="7.33303"><ele>1345.2</ele><time>2016-08-28T11:03:01Z</time></trkpt>
<trkpt lat="46.17731" lon="7.33306"><ele>1345.6</ele><time>2016-08-28T11:03:03Z</time></trkpt>
<trkpt lat="46.17734" lon="7.33308"><ele>1345.8</ele><time>2016-08-28T11:03:05Z</time></trkpt>
<trkpt lat="46.17737" lon="7.3331"><ele>1346.2</ele><time>2016-08-28T11:03:07Z</time></trkpt>
<trkpt lat="46.1774" lon="7.33313"><ele>1346.6</ele><time>2016-08-28T11:03:09Z</time></trkpt>
<trkpt lat="46.17743" lon="7.33315"><ele>1347</ele><time>2016-08-28T11:03:11Z</time></trkpt>
<trkpt lat="46.17746" lon="7.33317"><ele>1347.4</ele><time>2016-08-28T11:03:13Z</time></trkpt>
<trkpt lat="46.17749" lon="7.3332"><ele>1347.6</ele><time>2016-08-28T11:03:15Z</time></trkpt>
<trkpt lat="46.17752" lon="7.33322"><ele>1348</ele><time>2016-08-28T11:03:17Z</time></trkpt>
<trkpt lat="46.17755" lon="7.33324"><ele>1348.4</ele><time>2016-08-28T11:03:19Z</time></trkpt>
<trkpt lat="46.17758" lon="7.33327"><ele>1348.6</ele><time>2016-08-28T11:03:21Z</time></trkpt>
<trkpt lat="46.17761" lon="7.33329"><ele>1349</ele><time>2016-08-28T11:03:23Z</time></trkpt>
<trkpt lat="46.17764" lon="7.33332"><ele>1349.2</ele><time>2016-08-28T11:03:25Z</time></trkpt>
<trkpt lat="46.17768" lon="7.33335"><ele>1349.6</ele><time>2016-08-28T11:03:27Z</time></trkpt>
<trkpt lat="46.17771" lon="7.33339"><ele>1349.8</ele><time>2016-08-28T11:03:29Z</time></trkpt>
<trkpt lat="46.17774" lon="7.33342"><ele>1350.2</ele><time>2016-08-28T11:03:31Z</time></trkpt>
<trkpt lat="46.17778" lon="7.33345"><ele>1350.4</ele><time>2016-08-28T11:03:33Z</time></trkpt>
<trkpt lat="46.17781" lon="7.33349"><ele>1350.8</ele><time>2016-08-28T11:03:35Z</time></trkpt>
<trkpt lat="46.17784" lon="7.33352"><ele>1351.2</ele><time>2016-08-28T11:03:37Z</time></trkpt>
<trkpt lat="46.17786" lon="7.33354"><ele>1351.2</ele><time>2016-08-28T11:03:38Z</time></trkpt>
<trkpt lat="46.17787" lon="7.33355"><ele>1351.4</ele><time>2016-08-28T11:03:39Z</time></trkpt>
<trkpt lat="46.17791" lon="7.33359"><ele>1351.8</ele><time>2016-08-28T11:03:41Z</time></trkpt>
<trkpt lat="46.17794" lon="7.33362"><ele>1352</ele><time>2016-08-28T11:03:43Z</time></trkpt>
<trkpt lat="46.17797" lon="7.33365"><ele>1352.4</ele><time>2016-08-28T11:03:45Z</time></trkpt>
<trkpt lat="46.17799" lon="7.33367"><ele>1352.6</ele><time>2016-08-28T11:03:46Z</time></trkpt>
<trkpt lat="46.17801" lon="7.33367"><ele>1352.8</ele><time>2016-08-28T11:03:47Z</time></trkpt>
<trkpt lat="46.17804" lon="7.33368"><ele>1353</ele><time>2016-08-28T11:03:49Z</time></trkpt>
<trkpt lat="46.17808" lon="7.33369"><ele>1353.4</ele><time>2016-08-28T11:03:51Z</time></trkpt>
<trkpt lat="46.17811" lon="7.3337"><ele>1353.8</ele><time>2016-08-28T11:03:53Z</time></trkpt>
<trkpt lat="46.17815" lon="7.33371"><ele>1354</ele><time>2016-08-28T11:03:55Z</time></trkpt>
<trkpt lat="46.17819" lon="7.33372"><ele>1354.4</ele><time>2016-08-28T11:03:57Z</time></trkpt>
<trkpt lat="46.17822" lon="7.33373"><ele>1354.8</ele><time>2016-08-28T11:03:59Z</time></trkpt>
<trkpt lat="46.17824" lon="7.33373"><ele>1354.8</ele><time>2016-08-28T11:04:00Z</time></trkpt>
<trkpt lat="46.17826" lon="7.33374"><ele>1355</ele><time>2016-08-28T11:04:01Z</time></trkpt>
<trkpt lat="46.17829" lon="7.33375"><ele>1355.4</ele><time>2016-08-28T11:04:03Z</time></trkpt>
<trkpt lat="46.17833" lon="7.33376"><ele>1355.6</ele><time>2016-08-28T11:04:05Z</time></trkpt>
<trkpt lat="46.17837" lon="7.33377"><ele>1356</ele><time>2016-08-28T11:04:07Z</time></trkpt>
<trkpt lat="46.1784" lon="7.33378"><ele>1356.2</ele><time>2016-08-28T11:04:09Z</time></trkpt>
<trkpt lat="46.17844" lon="7.33379"><ele>1356.4</ele><time>2016-08-28T11:04:11Z</time></trkpt>
<trkpt lat="46.17846" lon="7.33383"><ele>1356.8</ele><time>2016-08-28T11:04:13Z</time></trkpt>
<trkpt lat="46.17847" lon="7.33389"><ele>1357</ele><time>2016-08-28T11:04:15Z</time></trkpt>
<trkpt lat="46.17849" lon="7.33394"><ele>1357.4</ele><time>2016-08-28T11:04:17Z</time></trkpt>
<trkpt lat="46.17851" lon="7.33399"><ele>1357.6</ele><time>2016-08-28T11:04:19Z</time></trkpt>
<trkpt lat="46.17853" lon="7.33404"><ele>1358</ele><time>2016-08-28T11:04:21Z</time></trkpt>
<trkpt lat="46.17854" lon="7.33409"><ele>1358.2</ele><time>2016-08-28T11:04:23Z</time></trkpt>
<trkpt lat="46.17856" lon="7.33414"><ele>1358.6</ele><time>2016-08-28T11:04:25Z</time></trkpt>
<trkpt lat="46.17858" lon="7.3342"><ele>1359</ele><time>2016-08-28T11:04:27Z</time></trkpt>
<trkpt lat="46.17859" lon="7.33425"><ele>1359.4</ele><time>2016-08-28T11:04:29Z</time></trkpt>
<trkpt lat="46.17861" lon="7.3343"><ele>1359.8</ele><time>2016-08-28T11:04:31Z</time></trkpt>
<trkpt lat="46.17863" lon="7.33435"><ele>1360.2</ele><time>2016-08-28T11:04:33Z</time></trkpt>
<trkpt lat="46.17864" lon="7.33438"><ele>1360.4</ele><time>2016-08-28T11:04:34Z</time></trkpt>
<trkpt lat="46.17864" lon="7.3344"><ele>1360.6</ele><time>2016-08-28T11:04:35Z</time></trkpt>
<trkpt lat="46.17863" lon="7.33445"><ele>1361</ele><time>2016-08-28T11:04:37Z</time></trkpt>
<trkpt lat="46.17863" lon="7.3345"><ele>1361.4</ele><time>2016-08-28T11:04:39Z</time></trkpt>
<trkpt lat="46.17862" lon="7.33453"><ele>1361.6</ele><time>2016-08-28T11:04:40Z</time></trkpt>
<trkpt lat="46.17862" lon="7.33455"><ele>1361.8</ele><time>2016-08-28T11:04:41Z</time></trkpt>
<trkpt lat="46.17861" lon="7.3346"><ele>1362.2</ele><time>2016-08-28T11:04:43Z</time></trkpt>
<trkpt lat="46.17861" lon="7.33465"><ele>1362.4</ele><time>2016-08-28T11:04:45Z</time></trkpt>
<trkpt lat="46.1786" lon="7.3347"><ele>1362.8</ele><time>2016-08-28T11:04:47Z</time></trkpt>
<trkpt lat="46.1786" lon="7.33475"><ele>1363</ele><time>2016-08-28T11:04:49Z</time></trkpt>
<trkpt lat="46.17859" lon="7.3348"><ele>1363.4</ele><time>2016-08-28T11:04:51Z</time></trkpt>
<trkpt lat="46.17859" lon="7.33485"><ele>1363.6</ele><time>2016-08-28T11:04:53Z</time></trkpt>
<trkpt lat="46.17858" lon="7.3349"><ele>1364</ele><time>2016-08-28T11:04:55Z</time></trkpt>
<trkpt lat="46.17858" lon="7.33495"><ele>1364.4</ele><time>2016-08-28T11:04:57Z</time></trkpt>
<trkpt lat="46.17857" lon="7.335"><ele>1364.6</ele><time>2016-08-28T11:04:59Z</time></trkpt>
<trkpt lat="46.17857" lon="7.33503"><ele>1364.8</ele><time>2016-08-28T11:05:00Z</time></trkpt>
<trkpt lat="46.17857" lon="7.33505"><ele>1365</ele><time>2016-08-28T11:05:01Z</time></trkpt>
<trkpt lat="46.17857" lon="7.3351"><ele>1365.2</ele><time>2016-08-28T11:05:03Z</time></trkpt>
<trkpt lat="46.17857" lon="7.33515"><ele>1365.6</ele><time>2016-08-28T11:05:05Z</time></trkpt>
<trkpt lat="46.17856" lon="7.3352"><ele>1365.8</ele><time>2016-08-28T11:05:07Z</time></trkpt>
<trkpt lat="46.17856" lon="7.33524"><ele>1366</ele><time>2016-08-28T11:05:09Z</time></trkpt>
<trkpt lat="46.17856" lon="7.33529"><ele>1366.4</ele><time>2016-08-28T11:05:11Z</time></trkpt>
<trkpt lat="46.17856" lon="7.33534"><ele>1366.6</ele><time>2016-08-28T11:05:13Z</time></trkpt>
<trkpt lat="46.17856" lon="7.33539"><ele>1367</ele><time>2016-08-28T11:05:15Z</time></trkpt>
<trkpt lat="46.17856" lon="7.33544"><ele>1367.2</ele><time>2016-08-28T11:05:17Z</time></trkpt>
<trkpt lat="46.17856" lon="7.33548"><ele>1367.6</ele><time>2016-08-28T11:05:19Z</time></trkpt>
<trkpt lat="46.17856" lon="7.33553"><ele>1367.8</ele><time>2016-08-28T11:05:21Z</time></trkpt>
<trkpt lat="46.17855" lon="7.33558"><ele>1368</ele><time>2016-08-28T11:05:23Z</time></trkpt>
<trkpt lat="46.17855" lon="7.33563"><ele>1368.4</ele><time>2016-08-28T11:05:25Z</time></trkpt>
<trkpt lat="46.17855" lon="7.33565"><ele>1368.6</ele><time>2016-08-28T11:05:26Z</time></trkpt>
<trkpt lat="46.17855" lon="7.33568"><ele>1368.6</ele><time>2016-08-28T11:05:27Z</time></trkpt>
<trkpt lat="46.17855" lon="7.33572"><ele>1369</ele><time>2016-08-28T11:05:29Z</time></trkpt>
<trkpt lat="46.17855" lon="7.33576"><ele>1369.4</ele><time>2016-08-28T11:05:31Z</time></trkpt>
<trkpt lat="46.17854" lon="7.3358"><ele>1369.6</ele><time>2016-08-28T11:05:33Z</time></trkpt>
<trkpt lat="46.17854" lon="7.33584"><ele>1370</ele><time>2016-08-28T11:05:35Z</time></trkpt>
<trkpt lat="46.17854" lon="7.33588"><ele>1370.2</ele><time>2016-08-28T11:05:37Z</time></trkpt>
<trkpt lat="46.17853" lon="7.33593"><ele>1370.6</ele><time>2016-08-28T11:05:39Z</time></trkpt>
<trkpt lat="46.17853" lon="7.33597"><ele>1371</ele><time>2016-08-28T11:05:41Z</time></trkpt>
<trkpt lat="46.17853" lon="7.33601"><ele>1371.2</ele><time>2016-08-28T11:05:43Z</time></trkpt>
<trkpt lat="46.17852" lon="7.33605"><ele>1371.6</ele><time>2016-08-28T11:05:45Z</time></trkpt>
<trkpt lat="46.17852" lon="7.33609"><ele>1371.8</ele><time>2016-08-28T11:05:47Z</time></trkpt>
<trkpt lat="46.17852" lon="7.33614"><ele>1372.2</ele><time>2016-08-28T11:05:49Z</time></trkpt>
<trkpt lat="46.17851" lon="7.33618"><ele>1372.8</ele><time>2016-08-28T11:05:51Z</time></trkpt>
<trkpt lat="46.17851" lon="7.33622"><ele>1373.2</ele><time>2016-08-28T11:05:53Z</time></trkpt>
<trkpt lat="46.17851" lon="7.33626"><ele>1373.6</ele><time>2016-08-28T11:05:55Z</time></trkpt>
<trkpt lat="46.1785" lon="7.3363"><ele>1374</ele><time>2016-08-28T11:05:57Z</time></trkpt>
<trkpt lat="46.1785" lon="7.33632"><ele>1374.2</ele><time>2016-08-28T11:05:58Z</time></trkpt>
<trkpt lat="46.1785" lon="7.33635"><ele>1374.4</ele><time>2016-08-28T11:05:59Z</time></trkpt>
<trkpt lat="46.1785" lon="7.3364"><ele>1374.8</ele><time>2016-08-28T11:06:01Z</time></trkpt>
<trkpt lat="46.1785" lon="7.33645"><ele>1375.2</ele><time>2016-08-28T11:06:03Z</time></trkpt>
<trkpt lat="46.17851" lon="7.3365"><ele>1375.6</ele><time>2016-08-28T11:06:05Z</time></trkpt>
<trkpt lat="46.17851" lon="7.33655"><ele>1376</ele><time>2016-08-28T11:06:07Z</time></trkpt>
<trkpt lat="46.17851" lon="7.3366"><ele>1376.2</ele><time>2016-08-28T11:06:09Z</time></trkpt>
<trkpt lat="46.17851" lon="7.33666"><ele>1376.6</ele><time>2016-08-28T11:06:11Z</time></trkpt>
<trkpt lat="46.17851" lon="7.33671"><ele>1377</ele><time>2016-08-28T11:06:13Z</time></trkpt>
<trkpt lat="46.17851" lon="7.33676"><ele>1377.2</ele><time>2016-08-28T11:06:15Z</time></trkpt>
<trkpt lat="46.17851" lon="7.33681"><ele>1377.6</ele><time>2016-08-28T11:06:17Z</time></trkpt>
<trkpt lat="46.17851" lon="7.33686"><ele>1378</ele><time>2016-08-28T11:06:19Z</time></trkpt>
<trkpt lat="46.17851" lon="7.33691"><ele>1378.4</ele><time>2016-08-28T11:06:21Z</time></trkpt>
<trkpt lat="46.17851" lon="7.33696"><ele>1378.6</ele><time>2016-08-28T11:06:23Z</time></trkpt>
<trkpt lat="46.17851" lon="7.33699"><ele>1378.8</ele><time>2016-08-28T11:06:24Z</time></trkpt>
<trkpt lat="46.17851" lon="7.33701"><ele>1379</ele><time>2016-08-28T11:06:25Z</time></trkpt>
<trkpt lat="46.17851" lon="7.33703"><ele>1379.2</ele><time>2016-08-28T11:06:26Z</time></trkpt>
<trkpt lat="46.17851" lon="7.33706"><ele>1379.4</ele><time>2016-08-28T11:06:27Z</time></trkpt>
<trkpt lat="46.17851" lon="7.3371"><ele>1379.6</ele><time>2016-08-28T11:06:29Z</time></trkpt>
<trkpt lat="46.1785" lon="7.33715"><ele>1380</ele><time>2016-08-28T11:06:31Z</time></trkpt>
<trkpt lat="46.1785" lon="7.33719"><ele>1380.2</ele><time>2016-08-28T11:06:33Z</time></trkpt>
<trkpt lat="46.1785" lon="7.33724"><ele>1380.4</ele><time>2016-08-28T11:06:35Z</time></trkpt>
<trkpt lat="46.17849" lon="7.33728"><ele>1380.8</ele><time>2016-08-28T11:06:37Z</time></trkpt>
<trkpt lat="46.17849" lon="7.33733"><ele>1381</ele><time>2016-08-28T11:06:39Z</time></trkpt>
<trkpt lat="46.17849" lon="7.33738"><ele>1381.2</ele><time>2016-08-28T11:06:41Z</time></trkpt>
<trkpt lat="46.17848" lon="7.33742"><ele>1381.6</ele><time>2016-08-28T11:06:43Z</time></trkpt>
<trkpt lat="46.17848" lon="7.33747"><ele>1381.8</ele><time>2016-08-28T11:06:45Z</time></trkpt>
<trkpt lat="46.17847" lon="7.33751"><ele>1382.2</ele><time>2016-08-28T11:06:47Z</time></trkpt>
<trkpt lat="46.17847" lon="7.33756"><ele>1382.4</ele><time>2016-08-28T11:06:49Z</time></trkpt>
<trkpt lat="46.17847" lon="7.3376"><ele>1382.6</ele><time>2016-08-28T11:06:51Z</time></trkpt>
<trkpt lat="46.17846" lon="7.33765"><ele>1383</ele><time>2016-08-28T11:06:53Z</time></trkpt>
<trkpt lat="46.17846" lon="7.33769"><ele>1383.2</ele><time>2016-08-28T11:06:55Z</time></trkpt>
<trkpt lat="46.17846" lon="7.33773"><ele>1383.6</ele><time>2016-08-28T11:06:57Z</time></trkpt>
<trkpt lat="46.17845" lon="7.33777"><ele>1383.8</ele><time>2016-08-28T11:06:59Z</time></trkpt>
<trkpt lat="46.17845" lon="7.33781"><ele>1384.2</ele><time>2016-08-28T11:07:01Z</time></trkpt>
<trkpt lat="46.17844" lon="7.33785"><ele>1384.4</ele><time>2016-08-28T11:07:03Z</time></trkpt>
<trkpt lat="46.17844" lon="7.33789"><ele>1384.8</ele><time>2016-08-28T11:07:05Z</time></trkpt>
<trkpt lat="46.17843" lon="7.33793"><ele>1385</ele><time>2016-08-28T11:07:07Z</time></trkpt>
<trkpt lat="46.17843" lon="7.33797"><ele>1385.4</ele><time>2016-08-28T11:07:09Z</time></trkpt>
<trkpt lat="46.17842" lon="7.33801"><ele>1385.6</ele><time>2016-08-28T11:07:11Z</time></trkpt>
<trkpt lat="46.17842" lon="7.33803"><ele>1385.8</ele><time>2016-08-28T11:07:12Z</time></trkpt>
<trkpt lat="46.17842" lon="7.33805"><ele>1386</ele><time>2016-08-28T11:07:13Z</time></trkpt>
<trkpt lat="46.17841" lon="7.33809"><ele>1386.2</ele><time>2016-08-28T11:07:15Z</time></trkpt>
<trkpt lat="46.17841" lon="7.33813"><ele>1386.6</ele><time>2016-08-28T11:07:17Z</time></trkpt>
<trkpt lat="46.1784" lon="7.33817"><ele>1387</ele><time>2016-08-28T11:07:19Z</time></trkpt>
<trkpt lat="46.1784" lon="7.33821"><ele>1387.4</ele><time>2016-08-28T11:07:21Z</time></trkpt>
<trkpt lat="46.1784" lon="7.33825"><ele>1387.8</ele><time>2016-08-28T11:07:23Z</time></trkpt>
<trkpt lat="46.17839" lon="7.33829"><ele>1388</ele><time>2016-08-28T11:07:25Z</time></trkpt>
<trkpt lat="46.17839" lon="7.33835"><ele>1388.4</ele><time>2016-08-28T11:07:27Z</time></trkpt>
<trkpt lat="46.17839" lon="7.3384"><ele>1388.8</ele><time>2016-08-28T11:07:29Z</time></trkpt>
<trkpt lat="46.17839" lon="7.33845"><ele>1389</ele><time>2016-08-28T11:07:31Z</time></trkpt>
<trkpt lat="46.17839" lon="7.3385"><ele>1389.4</ele><time>2016-08-28T11:07:33Z</time></trkpt>
<trkpt lat="46.17839" lon="7.33855"><ele>1389.8</ele><time>2016-08-28T11:07:35Z</time></trkpt>
<trkpt lat="46.17839" lon="7.3386"><ele>1390</ele><time>2016-08-28T11:07:37Z</time></trkpt>
<trkpt lat="46.17839" lon="7.33865"><ele>1390.4</ele><time>2016-08-28T11:07:39Z</time></trkpt>
<trkpt lat="46.17839" lon="7.33871"><ele>1390.6</ele><time>2016-08-28T11:07:41Z</time></trkpt>
<trkpt lat="46.17839" lon="7.33876"><ele>1391</ele><time>2016-08-28T11:07:43Z</time></trkpt>
<trkpt lat="46.17839" lon="7.33881"><ele>1391.2</ele><time>2016-08-28T11:07:45Z</time></trkpt>
<trkpt lat="46.17839" lon="7.33886"><ele>1391.6</ele><time>2016-08-28T11:07:47Z</time></trkpt>
<trkpt lat="46.17839" lon="7.33891"><ele>1391.8</ele><time>2016-08-28T11:07:49Z</time></trkpt>
<trkpt lat="46.17839" lon="7.33896"><ele>1392.2</ele><time>2016-08-28T11:07:51Z</time></trkpt>
<trkpt lat="46.17839" lon="7.33901"><ele>1392.4</ele><time>2016-08-28T11:07:53Z</time></trkpt>
<trkpt lat="46.17838" lon="7.33906"><ele>1392.8</ele><time>2016-08-28T11:07:55Z</time></trkpt>
<trkpt lat="46.17838" lon="7.3391"><ele>1393.2</ele><time>2016-08-28T11:07:57Z</time></trkpt>
<trkpt lat="46.17837" lon="7.33915"><ele>1393.4</ele><time>2016-08-28T11:07:59Z</time></trkpt>
<trkpt lat="46.17837" lon="7.3392"><ele>1393.8</ele><time>2016-08-28T11:08:01Z</time></trkpt>
<trkpt lat="46.17836" lon="7.33925"><ele>1394.2</ele><time>2016-08-28T11:08:03Z</time></trkpt>
<trkpt lat="46.17835" lon="7.33929"><ele>1394.4</ele><time>2016-08-28T11:08:05Z</time></trkpt>
<trkpt lat="46.17835" lon="7.33934"><ele>1394.8</ele><time>2016-08-28T11:08:07Z</time></trkpt>
<trkpt lat="46.17834" lon="7.33939"><ele>1395.2</ele><time>2016-08-28T11:08:09Z</time></trkpt>
<trkpt lat="46.17834" lon="7.33944"><ele>1395.4</ele><time>2016-08-28T11:08:11Z</time></trkpt>
<trkpt lat="46.17833" lon="7.33948"><ele>1395.8</ele><time>2016-08-28T11:08:13Z</time></trkpt>
<trkpt lat="46.17833" lon="7.33951"><ele>1396</ele><time>2016-08-28T11:08:14Z</time></trkpt>
<trkpt lat="46.17833" lon="7.33953"><ele>1396.2</ele><time>2016-08-28T11:08:15Z</time></trkpt>
<trkpt lat="46.17832" lon="7.33958"><ele>1396.4</ele><time>2016-08-28T11:08:17Z</time></trkpt>
<trkpt lat="46.17832" lon="7.3396"><ele>1396.6</ele><time>2016-08-28T11:08:18Z</time></trkpt>
<trkpt lat="46.17832" lon="7.33963"><ele>1396.8</ele><time>2016-08-28T11:08:19Z</time></trkpt>
<trkpt lat="46.17832" lon="7.33967"><ele>1397</ele><time>2016-08-28T11:08:21Z</time></trkpt>
<trkpt lat="46.17831" lon="7.33972"><ele>1397.4</ele><time>2016-08-28T11:08:23Z</time></trkpt>
<trkpt lat="46.17831" lon="7.33976"><ele>1397.8</ele><time>2016-08-28T11:08:25Z</time></trkpt>
<trkpt lat="46.17831" lon="7.33981"><ele>1398</ele><time>2016-08-28T11:08:27Z</time></trkpt>
<trkpt lat="46.17831" lon="7.33985"><ele>1398.4</ele><time>2016-08-28T11:08:29Z</time></trkpt>
<trkpt lat="46.17831" lon="7.3399"><ele>1398.8</ele><time>2016-08-28T11:08:31Z</time></trkpt>
<trkpt lat="46.17831" lon="7.33995"><ele>1399</ele><time>2016-08-28T11:08:33Z</time></trkpt>
<trkpt lat="46.17831" lon="7.33999"><ele>1399.4</ele><time>2016-08-28T11:08:35Z</time></trkpt>
<trkpt lat="46.17831" lon="7.34004"><ele>1399.6</ele><time>2016-08-28T11:08:37Z</time></trkpt>
<trkpt lat="46.1783" lon="7.34008"><ele>1400</ele><time>2016-08-28T11:08:39Z</time></trkpt>
<trkpt lat="46.1783" lon="7.34013"><ele>1400.4</ele><time>2016-08-28T11:08:41Z</time></trkpt>
<trkpt lat="46.1783" lon="7.34017"><ele>1400.8</ele><time>2016-08-28T11:08:43Z</time></trkpt>
<trkpt lat="46.1783" lon="7.34022"><ele>1401.2</ele><time>2016-08-28T11:08:45Z</time></trkpt>
<trkpt lat="46.1783" lon="7.34026"><ele>1401.4</ele><time>2016-08-28T11:08:47Z</time></trkpt>
<trkpt lat="46.1783" lon="7.34031"><ele>1401.8</ele><time>2016-08-28T11:08:49Z</time></trkpt>
<trkpt lat="46.17829" lon="7.34036"><ele>1402.2</ele><time>2016-08-28T11:08:51Z</time></trkpt>
<trkpt lat="46.17829" lon="7.3404"><ele>1402.6</ele><time>2016-08-28T11:08:53Z</time></trkpt>
<trkpt lat="46.17828" lon="7.34045"><ele>1402.8</ele><time>2016-08-28T11:08:55Z</time></trkpt>
<trkpt lat="46.17828" lon="7.34047"><ele>1403</ele><time>2016-08-28T11:08:56Z</time></trkpt>
<trkpt lat="46.17828" lon="7.3405"><ele>1403.2</ele><time>2016-08-28T11:08:57Z</time></trkpt>
<trkpt lat="46.17828" lon="7.34054"><ele>1403.6</ele><time>2016-08-28T11:08:59Z</time></trkpt>
<trkpt lat="46.17827" lon="7.34059"><ele>1404</ele><time>2016-08-28T11:09:01Z</time></trkpt>
<trkpt lat="46.17827" lon="7.34063"><ele>1404.4</ele><time>2016-08-28T11:09:03Z</time></trkpt>
<trkpt lat="46.17826" lon="7.34068"><ele>1404.6</ele><time>2016-08-28T11:09:05Z</time></trkpt>
<trkpt lat="46.17826" lon="7.34073"><ele>1405</ele><time>2016-08-28T11:09:07Z</time></trkpt>
<trkpt lat="46.17826" lon="7.34077"><ele>1405.4</ele><time>2016-08-28T11:09:09Z</time></trkpt>
<trkpt lat="46.17825" lon="7.34082"><ele>1405.8</ele><time>2016-08-28T11:09:11Z</time></trkpt>
<trkpt lat="46.17825" lon="7.34086"><ele>1406.2</ele><time>2016-08-28T11:09:13Z</time></trkpt>
<trkpt lat="46.17825" lon="7.34089"><ele>1406.2</ele><time>2016-08-28T11:09:14Z</time></trkpt>
<trkpt lat="46.17825" lon="7.34091"><ele>1406.4</ele><time>2016-08-28T11:09:15Z</time></trkpt>
<trkpt lat="46.17825" lon="7.34095"><ele>1406.8</ele><time>2016-08-28T11:09:17Z</time></trkpt>
<trkpt lat="46.17825" lon="7.341"><ele>1407.2</ele><time>2016-08-28T11:09:19Z</time></trkpt>
<trkpt lat="46.17825" lon="7.34104"><ele>1407.4</ele><time>2016-08-28T11:09:21Z</time></trkpt>
<trkpt lat="46.17826" lon="7.34109"><ele>1407.8</ele><time>2016-08-28T11:09:23Z</time></trkpt>
<trkpt lat="46.17826" lon="7.34113"><ele>1408.2</ele><time>2016-08-28T11:09:25Z</time></trkpt>
<trkpt lat="46.17826" lon="7.34118"><ele>1408.6</ele><time>2016-08-28T11:09:27Z</time></trkpt>
<trkpt lat="46.17826" lon="7.34122"><ele>1408.8</ele><time>2016-08-28T11:09:29Z</time></trkpt>
<trkpt lat="46.17826" lon="7.34127"><ele>1409.2</ele><time>2016-08-28T11:09:31Z</time></trkpt>
<trkpt lat="46.17826" lon="7.34131"><ele>1409.6</ele><time>2016-08-28T11:09:33Z</time></trkpt>
<trkpt lat="46.17827" lon="7.34136"><ele>1410</ele><time>2016-08-28T11:09:35Z</time></trkpt>
<trkpt lat="46.17816" lon="7.34168"><ele>1412</ele><time>2016-08-28T11:09:38Z</time></trkpt>
<trkpt lat="46.17816" lon="7.34168"><ele>1412</ele><time>2016-08-28T11:10:48Z</time></trkpt>
<trkpt lat="46.17805" lon="7.34196"><ele>1413.8</ele><time>2016-08-28T11:10:49Z</time></trkpt>
<trkpt lat="46.17804" lon="7.34197"><ele>1413.8</ele><time>2016-08-28T11:10:51Z</time></trkpt>
<trkpt lat="46.17804" lon="7.34199"><ele>1414</ele><time>2016-08-28T11:10:53Z</time></trkpt>
<trkpt lat="46.17803" lon="7.342"><ele>1414</ele><time>2016-08-28T11:10:55Z</time></trkpt>
<trkpt lat="46.17802" lon="7.34201"><ele>1414.2</ele><time>2016-08-28T11:10:57Z</time></trkpt>
<trkpt lat="46.17802" lon="7.34202"><ele>1414.2</ele><time>2016-08-28T11:10:59Z</time></trkpt>
<trkpt lat="46.17801" lon="7.34204"><ele>1414.6</ele><time>2016-08-28T11:11:01Z</time></trkpt>
<trkpt lat="46.17801" lon="7.34205"><ele>1415</ele><time>2016-08-28T11:11:03Z</time></trkpt>
<trkpt lat="46.178" lon="7.34206"><ele>1415</ele><time>2016-08-28T11:11:04Z</time></trkpt>
<trkpt lat="46.178" lon="7.34206"><ele>1415.2</ele><time>2016-08-28T11:11:05Z</time></trkpt>
<trkpt lat="46.17799" lon="7.34207"><ele>1415.4</ele><time>2016-08-28T11:11:07Z</time></trkpt>
<trkpt lat="46.17799" lon="7.34209"><ele>1415.6</ele><time>2016-08-28T11:11:09Z</time></trkpt>
<trkpt lat="46.17798" lon="7.3421"><ele>1415.8</ele><time>2016-08-28T11:11:11Z</time></trkpt>
<trkpt lat="46.17797" lon="7.34211"><ele>1416.2</ele><time>2016-08-28T11:11:13Z</time></trkpt>
<trkpt lat="46.17797" lon="7.34212"><ele>1416.4</ele><time>2016-08-28T11:11:15Z</time></trkpt>
<trkpt lat="46.17796" lon="7.34213"><ele>1416.6</ele><time>2016-08-28T11:11:17Z</time></trkpt>
<trkpt lat="46.17795" lon="7.34214"><ele>1416.8</ele><time>2016-08-28T11:11:19Z</time></trkpt>
<trkpt lat="46.17795" lon="7.34216"><ele>1417</ele><time>2016-08-28T11:11:21Z</time></trkpt>
<trkpt lat="46.17794" lon="7.34216"><ele>1417.2</ele><time>2016-08-28T11:11:22Z</time></trkpt>
<trkpt lat="46.17796" lon="7.34212"><ele>1417.2</ele><time>2016-08-28T11:11:23Z</time></trkpt>
<trkpt lat="46.17799" lon="7.34203"><ele>1417.6</ele><time>2016-08-28T11:11:25Z</time></trkpt>
<trkpt lat="46.17801" lon="7.34199"><ele>1417.6</ele><time>2016-08-28T11:11:26Z</time></trkpt>
<trkpt lat="46.17802" lon="7.34194"><ele>1417.8</ele><time>2016-08-28T11:11:27Z</time></trkpt>
<trkpt lat="46.17806" lon="7.34185"><ele>1418</ele><time>2016-08-28T11:11:29Z</time></trkpt>
<trkpt lat="46.17809" lon="7.34176"><ele>1418.2</ele><time>2016-08-28T11:11:31Z</time></trkpt>
<trkpt lat="46.17813" lon="7.34168"><ele>1418.4</ele><time>2016-08-28T11:11:33Z</time></trkpt>
<trkpt lat="46.17816" lon="7.34159"><ele>1418.6</ele><time>2016-08-28T11:11:35Z</time></trkpt>
<trkpt lat="46.17814" lon="7.3415"><ele>1418.8</ele><time>2016-08-28T11:11:37Z</time></trkpt>
<trkpt lat="46.17812" lon="7.34142"><ele>1419</ele><time>2016-08-28T11:11:39Z</time></trkpt>
<trkpt lat="46.17811" lon="7.34134"><ele>1419.4</ele><time>2016-08-28T11:11:41Z</time></trkpt>
<trkpt lat="46.17809" lon="7.34126"><ele>1419.6</ele><time>2016-08-28T11:11:43Z</time></trkpt>
<trkpt lat="46.17807" lon="7.34118"><ele>1419.8</ele><time>2016-08-28T11:11:45Z</time></trkpt>
<trkpt lat="46.17805" lon="7.3411"><ele>1420</ele><time>2016-08-28T11:11:47Z</time></trkpt>
<trkpt lat="46.17803" lon="7.34102"><ele>1420.2</ele><time>2016-08-28T11:11:49Z</time></trkpt>
<trkpt lat="46.17801" lon="7.34094"><ele>1420.4</ele><time>2016-08-28T11:11:51Z</time></trkpt>
<trkpt lat="46.178" lon="7.34087"><ele>1420.6</ele><time>2016-08-28T11:11:53Z</time></trkpt>
<trkpt lat="46.17799" lon="7.34081"><ele>1420.8</ele><time>2016-08-28T11:11:55Z</time></trkpt>
<trkpt lat="46.17798" lon="7.34074"><ele>1421</ele><time>2016-08-28T11:11:57Z</time></trkpt>
<trkpt lat="46.17797" lon="7.34068"><ele>1421.4</ele><time>2016-08-28T11:11:59Z</time></trkpt>
<trkpt lat="46.17796" lon="7.34061"><ele>1421.6</ele><time>2016-08-28T11:12:01Z</time></trkpt>
<trkpt lat="46.17795" lon="7.34055"><ele>1422</ele><time>2016-08-28T11:12:03Z</time></trkpt>
<trkpt lat="46.17795" lon="7.34048"><ele>1422.4</ele><time>2016-08-28T11:12:05Z</time></trkpt>
<trkpt lat="46.17794" lon="7.34042"><ele>1422.6</ele><time>2016-08-28T11:12:07Z</time></trkpt>
<trkpt lat="46.17793" lon="7.34035"><ele>1423</ele><time>2016-08-28T11:12:09Z</time></trkpt>
<trkpt lat="46.17792" lon="7.34028"><ele>1423.4</ele><time>2016-08-28T11:12:11Z</time></trkpt>
<trkpt lat="46.17792" lon="7.34023"><ele>1423.6</ele><time>2016-08-28T11:12:13Z</time></trkpt>
<trkpt lat="46.17792" lon="7.34017"><ele>1424</ele><time>2016-08-28T11:12:15Z</time></trkpt>
<trkpt lat="46.17792" lon="7.34012"><ele>1424.4</ele><time>2016-08-28T11:12:17Z</time></trkpt>
<trkpt lat="46.17792" lon="7.34006"><ele>1424.8</ele><time>2016-08-28T11:12:19Z</time></trkpt>
<trkpt lat="46.17792" lon="7.34"><ele>1425</ele><time>2016-08-28T11:12:21Z</time></trkpt>
<trkpt lat="46.17792" lon="7.33995"><ele>1425.4</ele><time>2016-08-28T11:12:23Z</time></trkpt>
<trkpt lat="46.17792" lon="7.33989"><ele>1425.8</ele><time>2016-08-28T11:12:25Z</time></trkpt>
<trkpt lat="46.17792" lon="7.33983"><ele>1426.2</ele><time>2016-08-28T11:12:27Z</time></trkpt>
<trkpt lat="46.17792" lon="7.33978"><ele>1426.4</ele><time>2016-08-28T11:12:29Z</time></trkpt>
<trkpt lat="46.17789" lon="7.33973"><ele>1426.8</ele><time>2016-08-28T11:12:31Z</time></trkpt>
<trkpt lat="46.17787" lon="7.33968"><ele>1427.2</ele><time>2016-08-28T11:12:33Z</time></trkpt>
<trkpt lat="46.17784" lon="7.33963"><ele>1427.6</ele><time>2016-08-28T11:12:35Z</time></trkpt>
<trkpt lat="46.17782" lon="7.33958"><ele>1427.8</ele><time>2016-08-28T11:12:37Z</time></trkpt>
<trkpt lat="46.17779" lon="7.33953"><ele>1428.2</ele><time>2016-08-28T11:12:39Z</time></trkpt>
<trkpt lat="46.17777" lon="7.33948"><ele>1428.6</ele><time>2016-08-28T11:12:41Z</time></trkpt>
<trkpt lat="46.17774" lon="7.33943"><ele>1429</ele><time>2016-08-28T11:12:43Z</time></trkpt>
<trkpt lat="46.17772" lon="7.33939"><ele>1429.2</ele><time>2016-08-28T11:12:45Z</time></trkpt>
<trkpt lat="46.17769" lon="7.33934"><ele>1429.6</ele><time>2016-08-28T11:12:47Z</time></trkpt>
<trkpt lat="46.17767" lon="7.33929"><ele>1429.8</ele><time>2016-08-28T11:12:49Z</time></trkpt>
<trkpt lat="46.17764" lon="7.33924"><ele>1430.2</ele><time>2016-08-28T11:12:51Z</time></trkpt>
<trkpt lat="46.17764" lon="7.33918"><ele>1430.4</ele><time>2016-08-28T11:12:53Z</time></trkpt>
<trkpt lat="46.17764" lon="7.33911"><ele>1430.6</ele><time>2016-08-28T11:12:55Z</time></trkpt>
<trkpt lat="46.17764" lon="7.33905"><ele>1431</ele><time>2016-08-28T11:12:57Z</time></trkpt>
<trkpt lat="46.17765" lon="7.33899"><ele>1431.2</ele><time>2016-08-28T11:12:59Z</time></trkpt>
<trkpt lat="46.17765" lon="7.33892"><ele>1431.6</ele><time>2016-08-28T11:13:01Z</time></trkpt>
<trkpt lat="46.17765" lon="7.33886"><ele>1431.8</ele><time>2016-08-28T11:13:03Z</time></trkpt>
<trkpt lat="46.17765" lon="7.3388"><ele>1432.2</ele><time>2016-08-28T11:13:05Z</time></trkpt>
<trkpt lat="46.17765" lon="7.33877"><ele>1432.4</ele><time>2016-08-28T11:13:06Z</time></trkpt>
<trkpt lat="46.17766" lon="7.33873"><ele>1432.4</ele><time>2016-08-28T11:13:07Z</time></trkpt>
<trkpt lat="46.17766" lon="7.33867"><ele>1432.8</ele><time>2016-08-28T11:13:09Z</time></trkpt>
<trkpt lat="46.17764" lon="7.33862"><ele>1433.2</ele><time>2016-08-28T11:13:11Z</time></trkpt>
<trkpt lat="46.17763" lon="7.33856"><ele>1433.4</ele><time>2016-08-28T11:13:13Z</time></trkpt>
<trkpt lat="46.17762" lon="7.33851"><ele>1433.8</ele><time>2016-08-28T11:13:15Z</time></trkpt>
<trkpt lat="46.1776" lon="7.33846"><ele>1434</ele><time>2016-08-28T11:13:17Z</time></trkpt>
<trkpt lat="46.17759" lon="7.33841"><ele>1434.4</ele><time>2016-08-28T11:13:19Z</time></trkpt>
<trkpt lat="46.17758" lon="7.33835"><ele>1434.6</ele><time>2016-08-28T11:13:21Z</time></trkpt>
<trkpt lat="46.17756" lon="7.3383"><ele>1435</ele><time>2016-08-28T11:13:23Z</time></trkpt>
<trkpt lat="46.17755" lon="7.33825"><ele>1435.4</ele><time>2016-08-28T11:13:25Z</time></trkpt>
<trkpt lat="46.17753" lon="7.33819"><ele>1435.6</ele><time>2016-08-28T11:13:27Z</time></trkpt>
<trkpt lat="46.17752" lon="7.33814"><ele>1436</ele><time>2016-08-28T11:13:29Z</time></trkpt>
<trkpt lat="46.17751" lon="7.33809"><ele>1436.4</ele><time>2016-08-28T11:13:31Z</time></trkpt>
<trkpt lat="46.1775" lon="7.33806"><ele>1436.4</ele><time>2016-08-28T11:13:32Z</time></trkpt>
<trkpt lat="46.1775" lon="7.33803"><ele>1436.6</ele><time>2016-08-28T11:13:33Z</time></trkpt>
<trkpt lat="46.17749" lon="7.33797"><ele>1437</ele><time>2016-08-28T11:13:35Z</time></trkpt>
<trkpt lat="46.17748" lon="7.33791"><ele>1437.4</ele><time>2016-08-28T11:13:37Z</time></trkpt>
<trkpt lat="46.17747" lon="7.33785"><ele>1437.8</ele><time>2016-08-28T11:13:39Z</time></trkpt>
<trkpt lat="46.17747" lon="7.33779"><ele>1438</ele><time>2016-08-28T11:13:41Z</time></trkpt>
<trkpt lat="46.17746" lon="7.33773"><ele>1438.4</ele><time>2016-08-28T11:13:43Z</time></trkpt>
<trkpt lat="46.17745" lon="7.33767"><ele>1438.8</ele><time>2016-08-28T11:13:45Z</time></trkpt>
<trkpt lat="46.17744" lon="7.33761"><ele>1439.2</ele><time>2016-08-28T11:13:47Z</time></trkpt>
<trkpt lat="46.17744" lon="7.33755"><ele>1439.4</ele><time>2016-08-28T11:13:49Z</time></trkpt>
<trkpt lat="46.17743" lon="7.33749"><ele>1439.6</ele><time>2016-08-28T11:13:51Z</time></trkpt>
<trkpt lat="46.17742" lon="7.33743"><ele>1440</ele><time>2016-08-28T11:13:53Z</time></trkpt>
<trkpt lat="46.17742" lon="7.3374"><ele>1440</ele><time>2016-08-28T11:13:54Z</time></trkpt>
<trkpt lat="46.17742" lon="7.33737"><ele>1440.2</ele><time>2016-08-28T11:13:55Z</time></trkpt>
<trkpt lat="46.17743" lon="7.3373"><ele>1440.6</ele><time>2016-08-28T11:13:57Z</time></trkpt>
<trkpt lat="46.17744" lon="7.33724"><ele>1440.8</ele><time>2016-08-28T11:13:59Z</time></trkpt>
<trkpt lat="46.17745" lon="7.33717"><ele>1441</ele><time>2016-08-28T11:14:01Z</time></trkpt>
<trkpt lat="46.17746" lon="7.3371"><ele>1441.4</ele><time>2016-08-28T11:14:03Z</time></trkpt>
<trkpt lat="46.17747" lon="7.33704"><ele>1441.6</ele><time>2016-08-28T11:14:05Z</time></trkpt>
<trkpt lat="46.17748" lon="7.33697"><ele>1441.8</ele><time>2016-08-28T11:14:07Z</time></trkpt>
<trkpt lat="46.17748" lon="7.3369"><ele>1442.2</ele><time>2016-08-28T11:14:09Z</time></trkpt>
<trkpt lat="46.17749" lon="7.33683"><ele>1442.4</ele><time>2016-08-28T11:14:11Z</time></trkpt>
<trkpt lat="46.17747" lon="7.33679"><ele>1442.6</ele><time>2016-08-28T11:14:13Z</time></trkpt>
<trkpt lat="46.17744" lon="7.33674"><ele>1443</ele><time>2016-08-28T11:14:15Z</time></trkpt>
<trkpt lat="46.17741" lon="7.3367"><ele>1443.2</ele><time>2016-08-28T11:14:17Z</time></trkpt>
<trkpt lat="46.17738" lon="7.33665"><ele>1443.6</ele><time>2016-08-28T11:14:19Z</time></trkpt>
<trkpt lat="46.17735" lon="7.3366"><ele>1444</ele><time>2016-08-28T11:14:21Z</time></trkpt>
<trkpt lat="46.17732" lon="7.33656"><ele>1444.2</ele><time>2016-08-28T11:14:23Z</time></trkpt>
<trkpt lat="46.17729" lon="7.33651"><ele>1444.6</ele><time>2016-08-28T11:14:25Z</time></trkpt>
<trkpt lat="46.17726" lon="7.33647"><ele>1445</ele><time>2016-08-28T11:14:27Z</time></trkpt>
<trkpt lat="46.17724" lon="7.33642"><ele>1445.2</ele><time>2016-08-28T11:14:29Z</time></trkpt>
<trkpt lat="46.17721" lon="7.33638"><ele>1445.6</ele><time>2016-08-28T11:14:31Z</time></trkpt>
<trkpt lat="46.17719" lon="7.33635"><ele>1445.8</ele><time>2016-08-28T11:14:32Z</time></trkpt>
<trkpt lat="46.17718" lon="7.33632"><ele>1446</ele><time>2016-08-28T11:14:33Z</time></trkpt>
<trkpt lat="46.17717" lon="7.33626"><ele>1446.2</ele><time>2016-08-28T11:14:35Z</time></trkpt>
<trkpt lat="46.17715" lon="7.33619"><ele>1446.6</ele><time>2016-08-28T11:14:37Z</time></trkpt>
<trkpt lat="46.17714" lon="7.33613"><ele>1447</ele><time>2016-08-28T11:14:39Z</time></trkpt>
<trkpt lat="46.17712" lon="7.33606"><ele>1447.2</ele><time>2016-08-28T11:14:41Z</time></trkpt>
<trkpt lat="46.1771" lon="7.336"><ele>1447.6</ele><time>2016-08-28T11:14:43Z</time></trkpt>
<trkpt lat="46.17709" lon="7.33593"><ele>1447.8</ele><time>2016-08-28T11:14:45Z</time></trkpt>
<trkpt lat="46.17707" lon="7.33587"><ele>1448.2</ele><time>2016-08-28T11:14:47Z</time></trkpt>
<trkpt lat="46.17706" lon="7.3358"><ele>1448.6</ele><time>2016-08-28T11:14:49Z</time></trkpt>
<trkpt lat="46.17704" lon="7.33574"><ele>1448.8</ele><time>2016-08-28T11:14:51Z</time></trkpt>
<trkpt lat="46.17701" lon="7.3357"><ele>1449.2</ele><time>2016-08-28T11:14:53Z</time></trkpt>
<trkpt lat="46.17698" lon="7.33567"><ele>1449.4</ele><time>2016-08-28T11:14:55Z</time></trkpt>
<trkpt lat="46.17694" lon="7.33564"><ele>1449.8</ele><time>2016-08-28T11:14:57Z</time></trkpt>
<trkpt lat="46.17691" lon="7.3356"><ele>1450</ele><time>2016-08-28T11:14:59Z</time></trkpt>
<trkpt lat="46.17689" lon="7.33558"><ele>1450.2</ele><time>2016-08-28T11:15:00Z</time></trkpt>
<trkpt lat="46.17688" lon="7.33557"><ele>1450.4</ele><time>2016-08-28T11:15:01Z</time></trkpt>
<trkpt lat="46.17685" lon="7.33553"><ele>1450.6</ele><time>2016-08-28T11:15:03Z</time></trkpt>
<trkpt lat="46.17681" lon="7.3355"><ele>1450.8</ele><time>2016-08-28T11:15:05Z</time></trkpt>
<trkpt lat="46.17678" lon="7.33546"><ele>1451</ele><time>2016-08-28T11:15:07Z</time></trkpt>
<trkpt lat="46.17675" lon="7.33543"><ele>1451.2</ele><time>2016-08-28T11:15:09Z</time></trkpt>
<trkpt lat="46.17672" lon="7.3354"><ele>1451.4</ele><time>2016-08-28T11:15:11Z</time></trkpt>
<trkpt lat="46.1767" lon="7.33538"><ele>1451.6</ele><time>2016-08-28T11:15:12Z</time></trkpt>
<trkpt lat="46.17668" lon="7.33536"><ele>1451.6</ele><time>2016-08-28T11:15:13Z</time></trkpt>
<trkpt lat="46.17667" lon="7.33535"><ele>1451.8</ele><time>2016-08-28T11:15:14Z</time></trkpt>
<trkpt lat="46.17665" lon="7.33533"><ele>1452</ele><time>2016-08-28T11:15:15Z</time></trkpt>
<trkpt lat="46.17662" lon="7.33529"><ele>1452.2</ele><time>2016-08-28T11:15:17Z</time></trkpt>
<trkpt lat="46.1766" lon="7.33527"><ele>1452.4</ele><time>2016-08-28T11:15:18Z</time></trkpt>
<trkpt lat="46.17659" lon="7.33526"><ele>1452.6</ele><time>2016-08-28T11:15:19Z</time></trkpt>
<trkpt lat="46.17655" lon="7.33522"><ele>1453</ele><time>2016-08-28T11:15:21Z</time></trkpt>
<trkpt lat="46.17652" lon="7.33518"><ele>1453.2</ele><time>2016-08-28T11:15:23Z</time></trkpt>
<trkpt lat="46.17649" lon="7.33515"><ele>1453.6</ele><time>2016-08-28T11:15:25Z</time></trkpt>
<trkpt lat="46.17646" lon="7.33511"><ele>1453.8</ele><time>2016-08-28T11:15:27Z</time></trkpt>
<trkpt lat="46.17642" lon="7.33508"><ele>1454.2</ele><time>2016-08-28T11:15:29Z</time></trkpt>
<trkpt lat="46.17639" lon="7.33504"><ele>1454.4</ele><time>2016-08-28T11:15:31Z</time></trkpt>
<trkpt lat="46.17636" lon="7.335"><ele>1454.8</ele><time>2016-08-28T11:15:33Z</time></trkpt>
<trkpt lat="46.17633" lon="7.33497"><ele>1455.2</ele><time>2016-08-28T11:15:35Z</time></trkpt>
<trkpt lat="46.17629" lon="7.33493"><ele>1455.4</ele><time>2016-08-28T11:15:37Z</time></trkpt>
<trkpt lat="46.17625" lon="7.33491"><ele>1455.8</ele><time>2016-08-28T11:15:39Z</time></trkpt>
<trkpt lat="46.17623" lon="7.33489"><ele>1455.8</ele><time>2016-08-28T11:15:40Z</time></trkpt>
<trkpt lat="46.17621" lon="7.33488"><ele>1456</ele><time>2016-08-28T11:15:41Z</time></trkpt>
<trkpt lat="46.17617" lon="7.33485"><ele>1456.4</ele><time>2016-08-28T11:15:43Z</time></trkpt>
<trkpt lat="46.17613" lon="7.33483"><ele>1456.6</ele><time>2016-08-28T11:15:45Z</time></trkpt>
<trkpt lat="46.17609" lon="7.3348"><ele>1457</ele><time>2016-08-28T11:15:47Z</time></trkpt>
<trkpt lat="46.17605" lon="7.33478"><ele>1457.2</ele><time>2016-08-28T11:15:49Z</time></trkpt>
<trkpt lat="46.17601" lon="7.33475"><ele>1457.6</ele><time>2016-08-28T11:15:51Z</time></trkpt>
<trkpt lat="46.17596" lon="7.33473"><ele>1457.8</ele><time>2016-08-28T11:15:53Z</time></trkpt>
<trkpt lat="46.17592" lon="7.3347"><ele>1458.2</ele><time>2016-08-28T11:15:55Z</time></trkpt>
<trkpt lat="46.17588" lon="7.33467"><ele>1458.4</ele><time>2016-08-28T11:15:57Z</time></trkpt>
<trkpt lat="46.17586" lon="7.33466"><ele>1458.6</ele><time>2016-08-28T11:15:58Z</time></trkpt>
<trkpt lat="46.17584" lon="7.33466"><ele>1458.8</ele><time>2016-08-28T11:15:59Z</time></trkpt>
<trkpt lat="46.17582" lon="7.33466"><ele>1459</ele><time>2016-08-28T11:16:00Z</time></trkpt>
<trkpt lat="46.1758" lon="7.33465"><ele>1459</ele><time>2016-08-28T11:16:01Z</time></trkpt>
<trkpt lat="46.17575" lon="7.33465"><ele>1459.4</ele><time>2016-08-28T11:16:03Z</time></trkpt>
<trkpt lat="46.17571" lon="7.33465"><ele>1459.6</ele><time>2016-08-28T11:16:05Z</time></trkpt>
<trkpt lat="46.17567" lon="7.33464"><ele>1460</ele><time>2016-08-28T11:16:07Z</time></trkpt>
<trkpt lat="46.17562" lon="7.33464"><ele>1460.2</ele><time>2016-08-28T11:16:09Z</time></trkpt>
<trkpt lat="46.17558" lon="7.33464"><ele>1460.6</ele><time>2016-08-28T11:16:11Z</time></trkpt>
<trkpt lat="46.17554" lon="7.33463"><ele>1460.8</ele><time>2016-08-28T11:16:13Z</time></trkpt>
<trkpt lat="46.17549" lon="7.33463"><ele>1461</ele><time>2016-08-28T11:16:15Z</time></trkpt>
<trkpt lat="46.17545" lon="7.33463"><ele>1461.4</ele><time>2016-08-28T11:16:17Z</time></trkpt>
<trkpt lat="46.17541" lon="7.33462"><ele>1461.6</ele><time>2016-08-28T11:16:19Z</time></trkpt>
<trkpt lat="46.17536" lon="7.33463"><ele>1462</ele><time>2016-08-28T11:16:21Z</time></trkpt>
<trkpt lat="46.17531" lon="7.33464"><ele>1462.2</ele><time>2016-08-28T11:16:23Z</time></trkpt>
<trkpt lat="46.17527" lon="7.33465"><ele>1462.4</ele><time>2016-08-28T11:16:25Z</time></trkpt>
<trkpt lat="46.17522" lon="7.33466"><ele>1462.8</ele><time>2016-08-28T11:16:27Z</time></trkpt>
<trkpt lat="46.17518" lon="7.33467"><ele>1463</ele><time>2016-08-28T11:16:29Z</time></trkpt>
<trkpt lat="46.17513" lon="7.33468"><ele>1463.2</ele><time>2016-08-28T11:16:31Z</time></trkpt>
<trkpt lat="46.17509" lon="7.33469"><ele>1463.6</ele><time>2016-08-28T11:16:33Z</time></trkpt>
<trkpt lat="46.17504" lon="7.3347"><ele>1463.8</ele><time>2016-08-28T11:16:35Z</time></trkpt>
<trkpt lat="46.17499" lon="7.33471"><ele>1464</ele><time>2016-08-28T11:16:37Z</time></trkpt>
<trkpt lat="46.17495" lon="7.33472"><ele>1464.2</ele><time>2016-08-28T11:16:39Z</time></trkpt>
<trkpt lat="46.17491" lon="7.33474"><ele>1464.6</ele><time>2016-08-28T11:16:41Z</time></trkpt>
<trkpt lat="46.17487" lon="7.33477"><ele>1464.8</ele><time>2016-08-28T11:16:43Z</time></trkpt>
<trkpt lat="46.17483" lon="7.33479"><ele>1465</ele><time>2016-08-28T11:16:45Z</time></trkpt>
<trkpt lat="46.17481" lon="7.3348"><ele>1465.2</ele><time>2016-08-28T11:16:46Z</time></trkpt>
<trkpt lat="46.17479" lon="7.33481"><ele>1465.2</ele><time>2016-08-28T11:16:47Z</time></trkpt>
<trkpt lat="46.17477" lon="7.33482"><ele>1465.4</ele><time>2016-08-28T11:16:48Z</time></trkpt>
<trkpt lat="46.17475" lon="7.33483"><ele>1465.4</ele><time>2016-08-28T11:16:49Z</time></trkpt>
<trkpt lat="46.17472" lon="7.33486"><ele>1465.6</ele><time>2016-08-28T11:16:51Z</time></trkpt>
<trkpt lat="46.17468" lon="7.33488"><ele>1465.8</ele><time>2016-08-28T11:16:53Z</time></trkpt>
<trkpt lat="46.17464" lon="7.3349"><ele>1466</ele><time>2016-08-28T11:16:55Z</time></trkpt>
<trkpt lat="46.1746" lon="7.33492"><ele>1466.2</ele><time>2016-08-28T11:16:57Z</time></trkpt>
<trkpt lat="46.17456" lon="7.33495"><ele>1466.2</ele><time>2016-08-28T11:16:59Z</time></trkpt>
<trkpt lat="46.17452" lon="7.33497"><ele>1466.4</ele><time>2016-08-28T11:17:01Z</time></trkpt>
<trkpt lat="46.17448" lon="7.33497"><ele>1466.6</ele><time>2016-08-28T11:17:03Z</time></trkpt>
<trkpt lat="46.17444" lon="7.33497"><ele>1466.8</ele><time>2016-08-28T11:17:05Z</time></trkpt>
<trkpt lat="46.1744" lon="7.33497"><ele>1467</ele><time>2016-08-28T11:17:07Z</time></trkpt>
<trkpt lat="46.17436" lon="7.33497"><ele>1467.2</ele><time>2016-08-28T11:17:09Z</time></trkpt>
<trkpt lat="46.17432" lon="7.33497"><ele>1467.2</ele><time>2016-08-28T11:17:11Z</time></trkpt>
<trkpt lat="46.17428" lon="7.33497"><ele>1467.4</ele><time>2016-08-28T11:17:13Z</time></trkpt>
<trkpt lat="46.17424" lon="7.33497"><ele>1467.6</ele><time>2016-08-28T11:17:15Z</time></trkpt>
<trkpt lat="46.1742" lon="7.33497"><ele>1467.8</ele><time>2016-08-28T11:17:17Z</time></trkpt>
<trkpt lat="46.17416" lon="7.33497"><ele>1468</ele><time>2016-08-28T11:17:19Z</time></trkpt>
<trkpt lat="46.17412" lon="7.33497"><ele>1468.2</ele><time>2016-08-28T11:17:21Z</time></trkpt>
<trkpt lat="46.17408" lon="7.33497"><ele>1468.2</ele><time>2016-08-28T11:17:23Z</time></trkpt>
<trkpt lat="46.17406" lon="7.33497"><ele>1468.4</ele><time>2016-08-28T11:17:24Z</time></trkpt>
<trkpt lat="46.17404" lon="7.33496"><ele>1468.4</ele><time>2016-08-28T11:17:25Z</time></trkpt>
<trkpt lat="46.174" lon="7.33493"><ele>1468.8</ele><time>2016-08-28T11:17:27Z</time></trkpt>
<trkpt lat="46.17397" lon="7.33491"><ele>1469</ele><time>2016-08-28T11:17:29Z</time></trkpt>
<trkpt lat="46.17393" lon="7.33488"><ele>1469.4</ele><time>2016-08-28T11:17:31Z</time></trkpt>
<trkpt lat="46.17389" lon="7.33486"><ele>1469.6</ele><time>2016-08-28T11:17:33Z</time></trkpt>
<trkpt lat="46.17385" lon="7.33483"><ele>1469.8</ele><time>2016-08-28T11:17:35Z</time></trkpt>
<trkpt lat="46.17383" lon="7.33482"><ele>1470</ele><time>2016-08-28T11:17:36Z</time></trkpt>
<trkpt lat="46.17381" lon="7.33481"><ele>1470.2</ele><time>2016-08-28T11:17:37Z</time></trkpt>
<trkpt lat="46.17378" lon="7.33478"><ele>1470.4</ele><time>2016-08-28T11:17:39Z</time></trkpt>
<trkpt lat="46.17374" lon="7.33476"><ele>1470.8</ele><time>2016-08-28T11:17:41Z</time></trkpt>
<trkpt lat="46.17372" lon="7.33475"><ele>1471</ele><time>2016-08-28T11:17:42Z</time></trkpt>
<trkpt lat="46.17372" lon="7.33477"><ele>1471</ele><time>2016-08-28T11:17:43Z</time></trkpt>
<trkpt lat="46.17371" lon="7.33483"><ele>1471.4</ele><time>2016-08-28T11:17:45Z</time></trkpt>
<trkpt lat="46.17371" lon="7.33486"><ele>1471.6</ele><time>2016-08-28T11:17:46Z</time></trkpt>
<trkpt lat="46.17372" lon="7.33487"><ele>1471.6</ele><time>2016-08-28T11:17:47Z</time></trkpt>
<trkpt lat="46.17375" lon="7.3349"><ele>1472</ele><time>2016-08-28T11:17:49Z</time></trkpt>
<trkpt lat="46.17378" lon="7.33492"><ele>1472.2</ele><time>2016-08-28T11:17:51Z</time></trkpt>
<trkpt lat="46.1738" lon="7.33494"><ele>1472.6</ele><time>2016-08-28T11:17:53Z</time></trkpt>
<trkpt lat="46.17383" lon="7.33496"><ele>1472.8</ele><time>2016-08-28T11:17:55Z</time></trkpt>
<trkpt lat="46.17385" lon="7.33499"><ele>1473.2</ele><time>2016-08-28T11:17:57Z</time></trkpt>
<trkpt lat="46.17388" lon="7.33501"><ele>1473.6</ele><time>2016-08-28T11:17:59Z</time></trkpt>
<trkpt lat="46.17391" lon="7.33503"><ele>1473.8</ele><time>2016-08-28T11:18:01Z</time></trkpt>
<trkpt lat="46.17393" lon="7.33505"><ele>1474.2</ele><time>2016-08-28T11:18:03Z</time></trkpt>
<trkpt lat="46.17396" lon="7.33508"><ele>1474.4</ele><time>2016-08-28T11:18:05Z</time></trkpt>
<trkpt lat="46.17399" lon="7.3351"><ele>1474.8</ele><time>2016-08-28T11:18:07Z</time></trkpt>
<trkpt lat="46.17401" lon="7.33512"><ele>1475</ele><time>2016-08-28T11:18:09Z</time></trkpt>
<trkpt lat="46.17404" lon="7.33514"><ele>1475.4</ele><time>2016-08-28T11:18:11Z</time></trkpt>
<trkpt lat="46.17406" lon="7.33517"><ele>1475.6</ele><time>2016-08-28T11:18:13Z</time></trkpt>
<trkpt lat="46.17409" lon="7.33519"><ele>1476</ele><time>2016-08-28T11:18:15Z</time></trkpt>
<trkpt lat="46.1741" lon="7.3352"><ele>1476.2</ele><time>2016-08-28T11:18:16Z</time></trkpt>
<trkpt lat="46.17412" lon="7.3352"><ele>1476.4</ele><time>2016-08-28T11:18:17Z</time></trkpt>
<trkpt lat="46.17416" lon="7.33521"><ele>1476.6</ele><time>2016-08-28T11:18:19Z</time></trkpt>
<trkpt lat="46.17419" lon="7.33521"><ele>1477</ele><time>2016-08-28T11:18:21Z</time></trkpt>
<trkpt lat="46.17423" lon="7.33522"><ele>1477.2</ele><time>2016-08-28T11:18:23Z</time></trkpt>
<trkpt lat="46.17426" lon="7.33522"><ele>1477.6</ele><time>2016-08-28T11:18:25Z</time></trkpt>
<trkpt lat="46.1743" lon="7.33523"><ele>1477.8</ele><time>2016-08-28T11:18:27Z</time></trkpt>
<trkpt lat="46.17433" lon="7.33523"><ele>1478</ele><time>2016-08-28T11:18:29Z</time></trkpt>
<trkpt lat="46.17437" lon="7.33524"><ele>1478.4</ele><time>2016-08-28T11:18:31Z</time></trkpt>
<trkpt lat="46.1744" lon="7.33524"><ele>1478.6</ele><time>2016-08-28T11:18:33Z</time></trkpt>
<trkpt lat="46.17444" lon="7.33525"><ele>1479</ele><time>2016-08-28T11:18:35Z</time></trkpt>
<trkpt lat="46.17447" lon="7.33525"><ele>1479.2</ele><time>2016-08-28T11:18:37Z</time></trkpt>
<trkpt lat="46.17451" lon="7.33526"><ele>1479.4</ele><time>2016-08-28T11:18:39Z</time></trkpt>
<trkpt lat="46.17455" lon="7.33526"><ele>1479.8</ele><time>2016-08-28T11:18:41Z</time></trkpt>
<trkpt lat="46.17456" lon="7.33526"><ele>1480</ele><time>2016-08-28T11:18:42Z</time></trkpt>
<trkpt lat="46.17458" lon="7.33526"><ele>1480</ele><time>2016-08-28T11:18:43Z</time></trkpt>
<trkpt lat="46.1746" lon="7.33526"><ele>1480.2</ele><time>2016-08-28T11:18:44Z</time></trkpt>
<trkpt lat="46.17462" lon="7.33526"><ele>1480.4</ele><time>2016-08-28T11:18:45Z</time></trkpt>
<trkpt lat="46.17466" lon="7.33526"><ele>1480.6</ele><time>2016-08-28T11:18:47Z</time></trkpt>
<trkpt lat="46.17469" lon="7.33525"><ele>1481</ele><time>2016-08-28T11:18:49Z</time></trkpt>
<trkpt lat="46.17473" lon="7.33525"><ele>1481.2</ele><time>2016-08-28T11:18:51Z</time></trkpt>
<trkpt lat="46.17477" lon="7.33525"><ele>1481.6</ele><time>2016-08-28T11:18:53Z</time></trkpt>
<trkpt lat="46.1748" lon="7.33525"><ele>1481.8</ele><time>2016-08-28T11:18:55Z</time></trkpt>
<trkpt lat="46.17484" lon="7.33524"><ele>1482.2</ele><time>2016-08-28T11:18:57Z</time></trkpt>
<trkpt lat="46.17488" lon="7.33524"><ele>1482.4</ele><time>2016-08-28T11:18:59Z</time></trkpt>
<trkpt lat="46.17491" lon="7.33524"><ele>1482.8</ele><time>2016-08-28T11:19:01Z</time></trkpt>
<trkpt lat="46.17495" lon="7.33524"><ele>1483</ele><time>2016-08-28T11:19:03Z</time></trkpt>
<trkpt lat="46.17499" lon="7.33523"><ele>1483.4</ele><time>2016-08-28T11:19:05Z</time></trkpt>
<trkpt lat="46.17502" lon="7.33523"><ele>1483.6</ele><time>2016-08-28T11:19:07Z</time></trkpt>
<trkpt lat="46.17506" lon="7.33523"><ele>1484</ele><time>2016-08-28T11:19:09Z</time></trkpt>
<trkpt lat="46.17509" lon="7.33523"><ele>1484.4</ele><time>2016-08-28T11:19:11Z</time></trkpt>
<trkpt lat="46.17512" lon="7.33524"><ele>1484.8</ele><time>2016-08-28T11:19:13Z</time></trkpt>
<trkpt lat="46.17516" lon="7.33524"><ele>1485.2</ele><time>2016-08-28T11:19:15Z</time></trkpt>
<trkpt lat="46.17519" lon="7.33524"><ele>1485.6</ele><time>2016-08-28T11:19:17Z</time></trkpt>
<trkpt lat="46.17522" lon="7.33524"><ele>1486</ele><time>2016-08-28T11:19:19Z</time></trkpt>
<trkpt lat="46.17526" lon="7.33524"><ele>1486.4</ele><time>2016-08-28T11:19:21Z</time></trkpt>
<trkpt lat="46.17529" lon="7.33525"><ele>1487</ele><time>2016-08-28T11:19:23Z</time></trkpt>
<trkpt lat="46.17532" lon="7.33525"><ele>1487.2</ele><time>2016-08-28T11:19:25Z</time></trkpt>
<trkpt lat="46.17536" lon="7.33525"><ele>1487.6</ele><time>2016-08-28T11:19:27Z</time></trkpt>
<trkpt lat="46.17539" lon="7.33525"><ele>1487.8</ele><time>2016-08-28T11:19:29Z</time></trkpt>
<trkpt lat="46.17542" lon="7.33525"><ele>1488.2</ele><time>2016-08-28T11:19:31Z</time></trkpt>
<trkpt lat="46.17546" lon="7.33526"><ele>1488.4</ele><time>2016-08-28T11:19:33Z</time></trkpt>
<trkpt lat="46.17547" lon="7.33526"><ele>1488.6</ele><time>2016-08-28T11:19:34Z</time></trkpt>
<trkpt lat="46.17548" lon="7.33527"><ele>1488.8</ele><time>2016-08-28T11:19:35Z</time></trkpt>
<trkpt lat="46.1755" lon="7.33531"><ele>1489</ele><time>2016-08-28T11:19:37Z</time></trkpt>
<trkpt lat="46.17552" lon="7.33535"><ele>1489.4</ele><time>2016-08-28T11:19:39Z</time></trkpt>
<trkpt lat="46.17553" lon="7.33539"><ele>1489.6</ele><time>2016-08-28T11:19:41Z</time></trkpt>
<trkpt lat="46.17555" lon="7.33543"><ele>1490</ele><time>2016-08-28T11:19:43Z</time></trkpt>
<trkpt lat="46.17557" lon="7.33547"><ele>1490.2</ele><time>2016-08-28T11:19:45Z</time></trkpt>
<trkpt lat="46.17559" lon="7.33552"><ele>1490.6</ele><time>2016-08-28T11:19:47Z</time></trkpt>
<trkpt lat="46.1756" lon="7.33556"><ele>1491</ele><time>2016-08-28T11:19:49Z</time></trkpt>
<trkpt lat="46.17562" lon="7.3356"><ele>1491.4</ele><time>2016-08-28T11:19:51Z</time></trkpt>
<trkpt lat="46.17564" lon="7.33564"><ele>1491.6</ele><time>2016-08-28T11:19:53Z</time></trkpt>
<trkpt lat="46.17565" lon="7.33568"><ele>1492</ele><time>2016-08-28T11:19:55Z</time></trkpt>
<trkpt lat="46.17567" lon="7.33572"><ele>1492.4</ele><time>2016-08-28T11:19:57Z</time></trkpt>
<trkpt lat="46.17569" lon="7.33576"><ele>1492.8</ele><time>2016-08-28T11:19:59Z</time></trkpt>
<trkpt lat="46.1757" lon="7.3358"><ele>1493.2</ele><time>2016-08-28T11:20:01Z</time></trkpt>
<trkpt lat="46.17571" lon="7.33582"><ele>1493.4</ele><time>2016-08-28T11:20:02Z</time></trkpt>
<trkpt lat="46.17572" lon="7.33583"><ele>1493.6</ele><time>2016-08-28T11:20:03Z</time></trkpt>
<trkpt lat="46.17574" lon="7.33587"><ele>1493.8</ele><time>2016-08-28T11:20:05Z</time></trkpt>
<trkpt lat="46.17574" lon="7.33589"><ele>1494</ele><time>2016-08-28T11:20:06Z</time></trkpt>
<trkpt lat="46.17575" lon="7.3359"><ele>1494.2</ele><time>2016-08-28T11:20:07Z</time></trkpt>
<trkpt lat="46.17577" lon="7.33594"><ele>1494.6</ele><time>2016-08-28T11:20:09Z</time></trkpt>
<trkpt lat="46.17578" lon="7.33597"><ele>1495</ele><time>2016-08-28T11:20:11Z</time></trkpt>
<trkpt lat="46.1758" lon="7.33601"><ele>1495.2</ele><time>2016-08-28T11:20:13Z</time></trkpt>
<trkpt lat="46.17581" lon="7.33604"><ele>1495.6</ele><time>2016-08-28T11:20:15Z</time></trkpt>
<trkpt lat="46.17583" lon="7.33608"><ele>1496</ele><time>2016-08-28T11:20:17Z</time></trkpt>
<trkpt lat="46.17585" lon="7.33611"><ele>1496.2</ele><time>2016-08-28T11:20:19Z</time></trkpt>
<trkpt lat="46.17586" lon="7.33615"><ele>1496.6</ele><time>2016-08-28T11:20:21Z</time></trkpt>
<trkpt lat="46.17588" lon="7.33618"><ele>1497</ele><time>2016-08-28T11:20:23Z</time></trkpt>
<trkpt lat="46.17589" lon="7.33621"><ele>1497.4</ele><time>2016-08-28T11:20:25Z</time></trkpt>
<trkpt lat="46.17591" lon="7.33625"><ele>1497.6</ele><time>2016-08-28T11:20:27Z</time></trkpt>
<trkpt lat="46.17592" lon="7.33627"><ele>1497.8</ele><time>2016-08-28T11:20:28Z</time></trkpt>
<trkpt lat="46.17592" lon="7.33628"><ele>1498</ele><time>2016-08-28T11:20:29Z</time></trkpt>
<trkpt lat="46.17594" lon="7.33632"><ele>1498.2</ele><time>2016-08-28T11:20:31Z</time></trkpt>
<trkpt lat="46.17595" lon="7.33635"><ele>1498.6</ele><time>2016-08-28T11:20:33Z</time></trkpt>
<trkpt lat="46.17596" lon="7.33637"><ele>1498.8</ele><time>2016-08-28T11:20:34Z</time></trkpt>
<trkpt lat="46.17597" lon="7.33639"><ele>1498.8</ele><time>2016-08-28T11:20:35Z</time></trkpt>
<trkpt lat="46.17598" lon="7.33644"><ele>1499.2</ele><time>2016-08-28T11:20:37Z</time></trkpt>
<trkpt lat="46.17599" lon="7.33648"><ele>1499.4</ele><time>2016-08-28T11:20:39Z</time></trkpt>
<trkpt lat="46.17599" lon="7.33652"><ele>1499.8</ele><time>2016-08-28T11:20:41Z</time></trkpt>
<trkpt lat="46.176" lon="7.33657"><ele>1500</ele><time>2016-08-28T11:20:43Z</time></trkpt>
<trkpt lat="46.17601" lon="7.33661"><ele>1500.4</ele><time>2016-08-28T11:20:45Z</time></trkpt>
<trkpt lat="46.17602" lon="7.33666"><ele>1500.6</ele><time>2016-08-28T11:20:47Z</time></trkpt>
<trkpt lat="46.17603" lon="7.3367"><ele>1501</ele><time>2016-08-28T11:20:49Z</time></trkpt>
<trkpt lat="46.17604" lon="7.33675"><ele>1501.2</ele><time>2016-08-28T11:20:51Z</time></trkpt>
<trkpt lat="46.17605" lon="7.33679"><ele>1501.6</ele><time>2016-08-28T11:20:53Z</time></trkpt>
<trkpt lat="46.17606" lon="7.33684"><ele>1501.8</ele><time>2016-08-28T11:20:55Z</time></trkpt>
<trkpt lat="46.17607" lon="7.33688"><ele>1502.2</ele><time>2016-08-28T11:20:57Z</time></trkpt>
<trkpt lat="46.17607" lon="7.33692"><ele>1502.4</ele><time>2016-08-28T11:20:59Z</time></trkpt>
<trkpt lat="46.17608" lon="7.33697"><ele>1502.8</ele><time>2016-08-28T11:21:01Z</time></trkpt>
<trkpt lat="46.17609" lon="7.33701"><ele>1503.2</ele><time>2016-08-28T11:21:03Z</time></trkpt>
<trkpt lat="46.1761" lon="7.33706"><ele>1503.4</ele><time>2016-08-28T11:21:05Z</time></trkpt>
<trkpt lat="46.1761" lon="7.3371"><ele>1503.8</ele><time>2016-08-28T11:21:07Z</time></trkpt>
<trkpt lat="46.1761" lon="7.33715"><ele>1504</ele><time>2016-08-28T11:21:09Z</time></trkpt>
<trkpt lat="46.17611" lon="7.3372"><ele>1504.4</ele><time>2016-08-28T11:21:11Z</time></trkpt>
<trkpt lat="46.17611" lon="7.33724"><ele>1504.6</ele><time>2016-08-28T11:21:13Z</time></trkpt>
<trkpt lat="46.17611" lon="7.33729"><ele>1505</ele><time>2016-08-28T11:21:15Z</time></trkpt>
<trkpt lat="46.17612" lon="7.33733"><ele>1505.2</ele><time>2016-08-28T11:21:17Z</time></trkpt>
<trkpt lat="46.17612" lon="7.33738"><ele>1505.6</ele><time>2016-08-28T11:21:19Z</time></trkpt>
<trkpt lat="46.17612" lon="7.33742"><ele>1505.8</ele><time>2016-08-28T11:21:21Z</time></trkpt>
<trkpt lat="46.17613" lon="7.33747"><ele>1506.2</ele><time>2016-08-28T11:21:23Z</time></trkpt>
<trkpt lat="46.17613" lon="7.33752"><ele>1506.4</ele><time>2016-08-28T11:21:25Z</time></trkpt>
<trkpt lat="46.17613" lon="7.33756"><ele>1506.8</ele><time>2016-08-28T11:21:27Z</time></trkpt>
<trkpt lat="46.17614" lon="7.33761"><ele>1507</ele><time>2016-08-28T11:21:29Z</time></trkpt>
<trkpt lat="46.17614" lon="7.33765"><ele>1507.4</ele><time>2016-08-28T11:21:31Z</time></trkpt>
<trkpt lat="46.17614" lon="7.33768"><ele>1507.6</ele><time>2016-08-28T11:21:32Z</time></trkpt>
<trkpt lat="46.17614" lon="7.3377"><ele>1507.6</ele><time>2016-08-28T11:21:33Z</time></trkpt>
<trkpt lat="46.17614" lon="7.33774"><ele>1508</ele><time>2016-08-28T11:21:35Z</time></trkpt>
<trkpt lat="46.17614" lon="7.33776"><ele>1508.2</ele><time>2016-08-28T11:21:36Z</time></trkpt>
<trkpt lat="46.17614" lon="7.33779"><ele>1508.2</ele><time>2016-08-28T11:21:37Z</time></trkpt>
<trkpt lat="46.17614" lon="7.33783"><ele>1508.6</ele><time>2016-08-28T11:21:39Z</time></trkpt>
<trkpt lat="46.17615" lon="7.33787"><ele>1509</ele><time>2016-08-28T11:21:41Z</time></trkpt>
<trkpt lat="46.17615" lon="7.33791"><ele>1509.2</ele><time>2016-08-28T11:21:43Z</time></trkpt>
<trkpt lat="46.17615" lon="7.33796"><ele>1509.6</ele><time>2016-08-28T11:21:45Z</time></trkpt>
<trkpt lat="46.17615" lon="7.338"><ele>1509.8</ele><time>2016-08-28T11:21:47Z</time></trkpt>
<trkpt lat="46.17615" lon="7.33804"><ele>1510.2</ele><time>2016-08-28T11:21:49Z</time></trkpt>
<trkpt lat="46.17615" lon="7.33809"><ele>1510.4</ele><time>2016-08-28T11:21:51Z</time></trkpt>
<trkpt lat="46.17615" lon="7.33813"><ele>1510.8</ele><time>2016-08-28T11:21:53Z</time></trkpt>
<trkpt lat="46.17615" lon="7.33817"><ele>1511</ele><time>2016-08-28T11:21:55Z</time></trkpt>
<trkpt lat="46.17615" lon="7.33822"><ele>1511.4</ele><time>2016-08-28T11:21:57Z</time></trkpt>
<trkpt lat="46.17615" lon="7.33824"><ele>1511.6</ele><time>2016-08-28T11:21:58Z</time></trkpt>
<trkpt lat="46.17616" lon="7.33826"><ele>1511.8</ele><time>2016-08-28T11:21:59Z</time></trkpt>
<trkpt lat="46.17616" lon="7.3383"><ele>1512</ele><time>2016-08-28T11:22:01Z</time></trkpt>
<trkpt lat="46.17616" lon="7.33835"><ele>1512.4</ele><time>2016-08-28T11:22:03Z</time></trkpt>
<trkpt lat="46.17616" lon="7.33839"><ele>1512.8</ele><time>2016-08-28T11:22:05Z</time></trkpt>
<trkpt lat="46.17616" lon="7.33843"><ele>1513.2</ele><time>2016-08-28T11:22:07Z</time></trkpt>
<trkpt lat="46.17616" lon="7.33847"><ele>1513.4</ele><time>2016-08-28T11:22:09Z</time></trkpt>
<trkpt lat="46.17617" lon="7.33852"><ele>1513.8</ele><time>2016-08-28T11:22:11Z</time></trkpt>
<trkpt lat="46.17617" lon="7.33856"><ele>1514.2</ele><time>2016-08-28T11:22:13Z</time></trkpt>
<trkpt lat="46.17617" lon="7.3386"><ele>1514.6</ele><time>2016-08-28T11:22:15Z</time></trkpt>
<trkpt lat="46.17617" lon="7.33865"><ele>1514.8</ele><time>2016-08-28T11:22:17Z</time></trkpt>
<trkpt lat="46.17618" lon="7.33869"><ele>1515.2</ele><time>2016-08-28T11:22:19Z</time></trkpt>
<trkpt lat="46.17618" lon="7.33871"><ele>1515.4</ele><time>2016-08-28T11:22:20Z</time></trkpt>
<trkpt lat="46.17618" lon="7.33873"><ele>1515.6</ele><time>2016-08-28T11:22:21Z</time></trkpt>
<trkpt lat="46.17618" lon="7.33878"><ele>1515.8</ele><time>2016-08-28T11:22:23Z</time></trkpt>
<trkpt lat="46.17618" lon="7.33882"><ele>1516.2</ele><time>2016-08-28T11:22:25Z</time></trkpt>
<trkpt lat="46.17618" lon="7.33886"><ele>1516.4</ele><time>2016-08-28T11:22:27Z</time></trkpt>
<trkpt lat="46.17619" lon="7.3389"><ele>1516.8</ele><time>2016-08-28T11:22:29Z</time></trkpt>
<trkpt lat="46.17619" lon="7.33895"><ele>1517</ele><time>2016-08-28T11:22:31Z</time></trkpt>
<trkpt lat="46.17619" lon="7.33899"><ele>1517.4</ele><time>2016-08-28T11:22:33Z</time></trkpt>
<trkpt lat="46.17619" lon="7.33901"><ele>1517.4</ele><time>2016-08-28T11:22:34Z</time></trkpt>
<trkpt lat="46.17619" lon="7.33903"><ele>1517.6</ele><time>2016-08-28T11:22:35Z</time></trkpt>
<trkpt lat="46.17619" lon="7.33907"><ele>1517.8</ele><time>2016-08-28T11:22:37Z</time></trkpt>
<trkpt lat="46.17618" lon="7.33911"><ele>1518.2</ele><time>2016-08-28T11:22:39Z</time></trkpt>
<trkpt lat="46.17618" lon="7.33915"><ele>1518.4</ele><time>2016-08-28T11:22:41Z</time></trkpt>
<trkpt lat="46.17618" lon="7.33917"><ele>1518.6</ele><time>2016-08-28T11:22:42Z</time></trkpt>
<trkpt lat="46.17618" lon="7.33919"><ele>1518.8</ele><time>2016-08-28T11:22:43Z</time></trkpt>
<trkpt lat="46.17617" lon="7.33923"><ele>1519</ele><time>2016-08-28T11:22:45Z</time></trkpt>
<trkpt lat="46.17617" lon="7.33926"><ele>1519.4</ele><time>2016-08-28T11:22:47Z</time></trkpt>
<trkpt lat="46.17616" lon="7.3393"><ele>1519.6</ele><time>2016-08-28T11:22:49Z</time></trkpt>
<trkpt lat="46.17616" lon="7.33934"><ele>1520</ele><time>2016-08-28T11:22:51Z</time></trkpt>
<trkpt lat="46.17616" lon="7.33938"><ele>1520.2</ele><time>2016-08-28T11:22:53Z</time></trkpt>
<trkpt lat="46.17615" lon="7.33942"><ele>1520.6</ele><time>2016-08-28T11:22:55Z</time></trkpt>
<trkpt lat="46.17615" lon="7.33946"><ele>1520.8</ele><time>2016-08-28T11:22:57Z</time></trkpt>
<trkpt lat="46.17614" lon="7.3395"><ele>1521.2</ele><time>2016-08-28T11:22:59Z</time></trkpt>
<trkpt lat="46.17614" lon="7.33953"><ele>1521.4</ele><time>2016-08-28T11:23:01Z</time></trkpt>
<trkpt lat="46.17614" lon="7.33957"><ele>1521.8</ele><time>2016-08-28T11:23:03Z</time></trkpt>
<trkpt lat="46.17613" lon="7.33959"><ele>1522</ele><time>2016-08-28T11:23:04Z</time></trkpt>
<trkpt lat="46.17613" lon="7.33961"><ele>1522</ele><time>2016-08-28T11:23:05Z</time></trkpt>
<trkpt lat="46.17613" lon="7.33965"><ele>1522.4</ele><time>2016-08-28T11:23:07Z</time></trkpt>
<trkpt lat="46.17613" lon="7.33967"><ele>1522.6</ele><time>2016-08-28T11:23:08Z</time></trkpt>
<trkpt lat="46.17612" lon="7.33969"><ele>1522.8</ele><time>2016-08-28T11:23:09Z</time></trkpt>
<trkpt lat="46.17611" lon="7.33972"><ele>1523.2</ele><time>2016-08-28T11:23:11Z</time></trkpt>
<trkpt lat="46.1761" lon="7.33976"><ele>1523.4</ele><time>2016-08-28T11:23:13Z</time></trkpt>
<trkpt lat="46.17609" lon="7.33977"><ele>1523.6</ele><time>2016-08-28T11:23:14Z</time></trkpt>
<trkpt lat="46.17609" lon="7.33979"><ele>1523.8</ele><time>2016-08-28T11:23:15Z</time></trkpt>
<trkpt lat="46.17609" lon="7.33983"><ele>1524.2</ele><time>2016-08-28T11:23:17Z</time></trkpt>
<trkpt lat="46.17608" lon="7.33987"><ele>1524.4</ele><time>2016-08-28T11:23:19Z</time></trkpt>
<trkpt lat="46.17608" lon="7.33991"><ele>1524.8</ele><time>2016-08-28T11:23:21Z</time></trkpt>
<trkpt lat="46.17608" lon="7.33994"><ele>1525.2</ele><time>2016-08-28T11:23:23Z</time></trkpt>
<trkpt lat="46.17607" lon="7.33998"><ele>1525.6</ele><time>2016-08-28T11:23:25Z</time></trkpt>
<trkpt lat="46.17607" lon="7.34"><ele>1525.6</ele><time>2016-08-28T11:23:26Z</time></trkpt>
<trkpt lat="46.17607" lon="7.34002"><ele>1525.8</ele><time>2016-08-28T11:23:27Z</time></trkpt>
<trkpt lat="46.17607" lon="7.34006"><ele>1526.2</ele><time>2016-08-28T11:23:29Z</time></trkpt>
<trkpt lat="46.17606" lon="7.3401"><ele>1526.4</ele><time>2016-08-28T11:23:31Z</time></trkpt>
<trkpt lat="46.17606" lon="7.34014"><ele>1526.8</ele><time>2016-08-28T11:23:33Z</time></trkpt>
<trkpt lat="46.17606" lon="7.34017"><ele>1527</ele><time>2016-08-28T11:23:35Z</time></trkpt>
<trkpt lat="46.17605" lon="7.34021"><ele>1527.2</ele><time>2016-08-28T11:23:37Z</time></trkpt>
<trkpt lat="46.17605" lon="7.34025"><ele>1527.6</ele><time>2016-08-28T11:23:39Z</time></trkpt>
<trkpt lat="46.17604" lon="7.34029"><ele>1527.8</ele><time>2016-08-28T11:23:41Z</time></trkpt>
<trkpt lat="46.17604" lon="7.34033"><ele>1528.2</ele><time>2016-08-28T11:23:43Z</time></trkpt>
<trkpt lat="46.17604" lon="7.34037"><ele>1528.4</ele><time>2016-08-28T11:23:45Z</time></trkpt>
<trkpt lat="46.17603" lon="7.3404"><ele>1528.8</ele><time>2016-08-28T11:23:47Z</time></trkpt>
<trkpt lat="46.17603" lon="7.34042"><ele>1528.8</ele><time>2016-08-28T11:23:48Z</time></trkpt>
<trkpt lat="46.17603" lon="7.34044"><ele>1529</ele><time>2016-08-28T11:23:49Z</time></trkpt>
<trkpt lat="46.17603" lon="7.34048"><ele>1529.4</ele><time>2016-08-28T11:23:51Z</time></trkpt>
<trkpt lat="46.17603" lon="7.34052"><ele>1529.6</ele><time>2016-08-28T11:23:53Z</time></trkpt>
<trkpt lat="46.17603" lon="7.34056"><ele>1530</ele><time>2016-08-28T11:23:55Z</time></trkpt>
<trkpt lat="46.17603" lon="7.3406"><ele>1530.4</ele><time>2016-08-28T11:23:57Z</time></trkpt>
<trkpt lat="46.17603" lon="7.34064"><ele>1530.6</ele><time>2016-08-28T11:23:59Z</time></trkpt>
<trkpt lat="46.17603" lon="7.34068"><ele>1531</ele><time>2016-08-28T11:24:01Z</time></trkpt>
<trkpt lat="46.17603" lon="7.34072"><ele>1531.2</ele><time>2016-08-28T11:24:03Z</time></trkpt>
<trkpt lat="46.17603" lon="7.34076"><ele>1531.6</ele><time>2016-08-28T11:24:05Z</time></trkpt>
<trkpt lat="46.17602" lon="7.3408"><ele>1532</ele><time>2016-08-28T11:24:07Z</time></trkpt>
<trkpt lat="46.17602" lon="7.34084"><ele>1532.2</ele><time>2016-08-28T11:24:09Z</time></trkpt>
<trkpt lat="46.17602" lon="7.34088"><ele>1532.6</ele><time>2016-08-28T11:24:11Z</time></trkpt>
<trkpt lat="46.17602" lon="7.3409"><ele>1532.8</ele><time>2016-08-28T11:24:12Z</time></trkpt>
<trkpt lat="46.17602" lon="7.34092"><ele>1532.8</ele><time>2016-08-28T11:24:13Z</time></trkpt>
<trkpt lat="46.17602" lon="7.34096"><ele>1533.2</ele><time>2016-08-28T11:24:15Z</time></trkpt>
<trkpt lat="46.17602" lon="7.341"><ele>1533.6</ele><time>2016-08-28T11:24:17Z</time></trkpt>
<trkpt lat="46.17602" lon="7.34104"><ele>1534</ele><time>2016-08-28T11:24:19Z</time></trkpt>
<trkpt lat="46.17602" lon="7.34107"><ele>1534.4</ele><time>2016-08-28T11:24:21Z</time></trkpt>
<trkpt lat="46.17602" lon="7.34111"><ele>1534.8</ele><time>2016-08-28T11:24:23Z</time></trkpt>
<trkpt lat="46.17601" lon="7.34115"><ele>1535</ele><time>2016-08-28T11:24:25Z</time></trkpt>
<trkpt lat="46.17601" lon="7.34119"><ele>1535.4</ele><time>2016-08-28T11:24:27Z</time></trkpt>
<trkpt lat="46.176" lon="7.34123"><ele>1535.8</ele><time>2016-08-28T11:24:29Z</time></trkpt>
<trkpt lat="46.176" lon="7.34127"><ele>1536.2</ele><time>2016-08-28T11:24:31Z</time></trkpt>
<trkpt lat="46.176" lon="7.34131"><ele>1536.6</ele><time>2016-08-28T11:24:33Z</time></trkpt>
<trkpt lat="46.17599" lon="7.34135"><ele>1537</ele><time>2016-08-28T11:24:35Z</time></trkpt>
<trkpt lat="46.17599" lon="7.34139"><ele>1537.2</ele><time>2016-08-28T11:24:37Z</time></trkpt>
<trkpt lat="46.17598" lon="7.34143"><ele>1537.6</ele><time>2016-08-28T11:24:39Z</time></trkpt>
<trkpt lat="46.17598" lon="7.34147"><ele>1538</ele><time>2016-08-28T11:24:41Z</time></trkpt>
<trkpt lat="46.17598" lon="7.34151"><ele>1538.4</ele><time>2016-08-28T11:24:43Z</time></trkpt>
<trkpt lat="46.17597" lon="7.34155"><ele>1538.6</ele><time>2016-08-28T11:24:45Z</time></trkpt>
<trkpt lat="46.17597" lon="7.34159"><ele>1539</ele><time>2016-08-28T11:24:47Z</time></trkpt>
<trkpt lat="46.17596" lon="7.34163"><ele>1539.4</ele><time>2016-08-28T11:24:49Z</time></trkpt>
<trkpt lat="46.17596" lon="7.34167"><ele>1539.8</ele><time>2016-08-28T11:24:51Z</time></trkpt>
<trkpt lat="46.17596" lon="7.34171"><ele>1540</ele><time>2016-08-28T11:24:53Z</time></trkpt>
<trkpt lat="46.17595" lon="7.34173"><ele>1540.2</ele><time>2016-08-28T11:24:54Z</time></trkpt>
<trkpt lat="46.17595" lon="7.34175"><ele>1540.4</ele><time>2016-08-28T11:24:55Z</time></trkpt>
<trkpt lat="46.17595" lon="7.34177"><ele>1540.6</ele><time>2016-08-28T11:24:56Z</time></trkpt>
<trkpt lat="46.17595" lon="7.34179"><ele>1540.6</ele><time>2016-08-28T11:24:57Z</time></trkpt>
<trkpt lat="46.17595" lon="7.34183"><ele>1540.8</ele><time>2016-08-28T11:24:59Z</time></trkpt>
<trkpt lat="46.17595" lon="7.34187"><ele>1541</ele><time>2016-08-28T11:25:01Z</time></trkpt>
<trkpt lat="46.17595" lon="7.34191"><ele>1541.2</ele><time>2016-08-28T11:25:03Z</time></trkpt>
<trkpt lat="46.17593" lon="7.34195"><ele>1541.4</ele><time>2016-08-28T11:25:05Z</time></trkpt>
<trkpt lat="46.17592" lon="7.34198"><ele>1541.6</ele><time>2016-08-28T11:25:07Z</time></trkpt>
<trkpt lat="46.1759" lon="7.34201"><ele>1541.8</ele><time>2016-08-28T11:25:09Z</time></trkpt>
<trkpt lat="46.17589" lon="7.34205"><ele>1542</ele><time>2016-08-28T11:25:11Z</time></trkpt>
<trkpt lat="46.17588" lon="7.34206"><ele>1542</ele><time>2016-08-28T11:25:12Z</time></trkpt>
<trkpt lat="46.17588" lon="7.34213"><ele>1542.2</ele><time>2016-08-28T11:25:13Z</time></trkpt>
<trkpt lat="46.17587" lon="7.34219"><ele>1541.6</ele><time>2016-08-28T11:25:14Z</time></trkpt>
<trkpt lat="46.17591" lon="7.34227"><ele>1541</ele><time>2016-08-28T11:25:15Z</time></trkpt>
<trkpt lat="46.17599" lon="7.34243"><ele>1539.8</ele><time>2016-08-28T11:25:17Z</time></trkpt>
<trkpt lat="46.17606" lon="7.34259"><ele>1538.6</ele><time>2016-08-28T11:25:19Z</time></trkpt>
<trkpt lat="46.1761" lon="7.34267"><ele>1538</ele><time>2016-08-28T11:25:20Z</time></trkpt>
<trkpt lat="46.17615" lon="7.34273"><ele>1537.4</ele><time>2016-08-28T11:25:21Z</time></trkpt>
<trkpt lat="46.17621" lon="7.34279"><ele>1536.8</ele><time>2016-08-28T11:25:22Z</time></trkpt>
<trkpt lat="46.17621" lon="7.34286"><ele>1536.2</ele><time>2016-08-28T11:25:23Z</time></trkpt>
<trkpt lat="46.17628" lon="7.34302"><ele>1535</ele><time>2016-08-28T11:25:25Z</time></trkpt>
<trkpt lat="46.17628" lon="7.34313"><ele>1534.4</ele><time>2016-08-28T11:25:26Z</time></trkpt>
<trkpt lat="46.17625" lon="7.3432"><ele>1534</ele><time>2016-08-28T11:25:27Z</time></trkpt>
<trkpt lat="46.17628" lon="7.34336"><ele>1532.8</ele><time>2016-08-28T11:25:29Z</time></trkpt>
<trkpt lat="46.1763" lon="7.34352"><ele>1531.2</ele><time>2016-08-28T11:25:31Z</time></trkpt>
<trkpt lat="46.17637" lon="7.34367"><ele>1529.6</ele><time>2016-08-28T11:25:33Z</time></trkpt>
<trkpt lat="46.17639" lon="7.34385"><ele>1528</ele><time>2016-08-28T11:25:35Z</time></trkpt>
<trkpt lat="46.1764" lon="7.34394"><ele>1527.2</ele><time>2016-08-28T11:25:36Z</time></trkpt>
<trkpt lat="46.17638" lon="7.34406"><ele>1526.6</ele><time>2016-08-28T11:25:37Z</time></trkpt>
<trkpt lat="46.17635" lon="7.34419"><ele>1525.8</ele><time>2016-08-28T11:25:38Z</time></trkpt>
<trkpt lat="46.17637" lon="7.34434"><ele>1525.2</ele><time>2016-08-28T11:25:39Z</time></trkpt>
<trkpt lat="46.17641" lon="7.34462"><ele>1523.8</ele><time>2016-08-28T11:25:41Z</time></trkpt>
<trkpt lat="46.17637" lon="7.34477"><ele>1523.2</ele><time>2016-08-28T11:25:42Z</time></trkpt>
<trkpt lat="46.17637" lon="7.34493"><ele>1522.4</ele><time>2016-08-28T11:25:43Z</time></trkpt>
<trkpt lat="46.17638" lon="7.34526"><ele>1521</ele><time>2016-08-28T11:25:45Z</time></trkpt>
<trkpt lat="46.17633" lon="7.34537"><ele>1520.4</ele><time>2016-08-28T11:25:46Z</time></trkpt>
<trkpt lat="46.17632" lon="7.34551"><ele>1519</ele><time>2016-08-28T11:25:47Z</time></trkpt>
<trkpt lat="46.1763" lon="7.3458"><ele>1515.8</ele><time>2016-08-28T11:25:49Z</time></trkpt>
<trkpt lat="46.17629" lon="7.34609"><ele>1512.8</ele><time>2016-08-28T11:25:51Z</time></trkpt>
<trkpt lat="46.17632" lon="7.34634"><ele>1510.6</ele><time>2016-08-28T11:25:53Z</time></trkpt>
<trkpt lat="46.17637" lon="7.34659"><ele>1508.2</ele><time>2016-08-28T11:25:55Z</time></trkpt>
<trkpt lat="46.17642" lon="7.34681"><ele>1506</ele><time>2016-08-28T11:25:57Z</time></trkpt>
<trkpt lat="46.1764" lon="7.34705"><ele>1504.6</ele><time>2016-08-28T11:25:59Z</time></trkpt>
<trkpt lat="46.17638" lon="7.3473"><ele>1503.2</ele><time>2016-08-28T11:26:01Z</time></trkpt>
<trkpt lat="46.17639" lon="7.34747"><ele>1502.4</ele><time>2016-08-28T11:26:02Z</time></trkpt>
<trkpt lat="46.17639" lon="7.34763"><ele>1501.2</ele><time>2016-08-28T11:26:03Z</time></trkpt>
<trkpt lat="46.17638" lon="7.34779"><ele>1499.8</ele><time>2016-08-28T11:26:04Z</time></trkpt>
<trkpt lat="46.17641" lon="7.34796"><ele>1498.4</ele><time>2016-08-28T11:26:05Z</time></trkpt>
<trkpt lat="46.17646" lon="7.34812"><ele>1497</ele><time>2016-08-28T11:26:06Z</time></trkpt>
<trkpt lat="46.17647" lon="7.34824"><ele>1495.6</ele><time>2016-08-28T11:26:07Z</time></trkpt>
<trkpt lat="46.17648" lon="7.34835"><ele>1494.4</ele><time>2016-08-28T11:26:08Z</time></trkpt>
<trkpt lat="46.17649" lon="7.34847"><ele>1493</ele><time>2016-08-28T11:26:09Z</time></trkpt>
<trkpt lat="46.1765" lon="7.34858"><ele>1491.6</ele><time>2016-08-28T11:26:10Z</time></trkpt>
<trkpt lat="46.17647" lon="7.34868"><ele>1490.4</ele><time>2016-08-28T11:26:11Z</time></trkpt>
<trkpt lat="46.17641" lon="7.34888"><ele>1487.6</ele><time>2016-08-28T11:26:13Z</time></trkpt>
<trkpt lat="46.17638" lon="7.34897"><ele>1486.2</ele><time>2016-08-28T11:26:14Z</time></trkpt>
<trkpt lat="46.17635" lon="7.34907"><ele>1485.6</ele><time>2016-08-28T11:26:15Z</time></trkpt>
<trkpt lat="46.17625" lon="7.34925"><ele>1484.2</ele><time>2016-08-28T11:26:17Z</time></trkpt>
<trkpt lat="46.17615" lon="7.34944"><ele>1482.8</ele><time>2016-08-28T11:26:19Z</time></trkpt>
<trkpt lat="46.1761" lon="7.34953"><ele>1482</ele><time>2016-08-28T11:26:20Z</time></trkpt>
<trkpt lat="46.17609" lon="7.3496"><ele>1481.8</ele><time>2016-08-28T11:26:21Z</time></trkpt>
<trkpt lat="46.17608" lon="7.34974"><ele>1481.2</ele><time>2016-08-28T11:26:23Z</time></trkpt>
<trkpt lat="46.17612" lon="7.34981"><ele>1480.8</ele><time>2016-08-28T11:26:25Z</time></trkpt>
<trkpt lat="46.17614" lon="7.34985"><ele>1480.6</ele><time>2016-08-28T11:26:26Z</time></trkpt>
<trkpt lat="46.17617" lon="7.34984"><ele>1480.4</ele><time>2016-08-28T11:26:27Z</time></trkpt>
<trkpt lat="46.17622" lon="7.34982"><ele>1479.8</ele><time>2016-08-28T11:26:29Z</time></trkpt>
<trkpt lat="46.1762" lon="7.34979"><ele>1479.4</ele><time>2016-08-28T11:26:31Z</time></trkpt>
<trkpt lat="46.17619" lon="7.34977"><ele>1479</ele><time>2016-08-28T11:26:33Z</time></trkpt>
<trkpt lat="46.17617" lon="7.34975"><ele>1478.4</ele><time>2016-08-28T11:26:35Z</time></trkpt>
<trkpt lat="46.17616" lon="7.34974"><ele>1478.2</ele><time>2016-08-28T11:26:36Z</time></trkpt>
<trkpt lat="46.17615" lon="7.34973"><ele>1478.2</ele><time>2016-08-28T11:26:37Z</time></trkpt>
<trkpt lat="46.17613" lon="7.34971"><ele>1478</ele><time>2016-08-28T11:26:39Z</time></trkpt>
<trkpt lat="46.17611" lon="7.34969"><ele>1477.8</ele><time>2016-08-28T11:26:41Z</time></trkpt>
<trkpt lat="46.17614" lon="7.34967"><ele>1477.8</ele><time>2016-08-28T11:26:42Z</time></trkpt>
<trkpt lat="46.17617" lon="7.34964"><ele>1477.6</ele><time>2016-08-28T11:26:43Z</time></trkpt>
<trkpt lat="46.17624" lon="7.3496"><ele>1476.8</ele><time>2016-08-28T11:26:45Z</time></trkpt>
<trkpt lat="46.17631" lon="7.34956"><ele>1476.2</ele><time>2016-08-28T11:26:47Z</time></trkpt>
<trkpt lat="46.17638" lon="7.34951"><ele>1475.4</ele><time>2016-08-28T11:26:49Z</time></trkpt>
<trkpt lat="46.17652" lon="7.34945"><ele>1474.8</ele><time>2016-08-28T11:26:51Z</time></trkpt>
<trkpt lat="46.17666" lon="7.34938"><ele>1474</ele><time>2016-08-28T11:26:53Z</time></trkpt>
<trkpt lat="46.17679" lon="7.34936"><ele>1473.4</ele><time>2016-08-28T11:26:55Z</time></trkpt>
<trkpt lat="46.17691" lon="7.34934"><ele>1472.8</ele><time>2016-08-28T11:26:57Z</time></trkpt>
<trkpt lat="46.17704" lon="7.34932"><ele>1472</ele><time>2016-08-28T11:26:59Z</time></trkpt>
<trkpt lat="46.17714" lon="7.34937"><ele>1471.8</ele><time>2016-08-28T11:27:01Z</time></trkpt>
<trkpt lat="46.17724" lon="7.34942"><ele>1471.6</ele><time>2016-08-28T11:27:03Z</time></trkpt>
<trkpt lat="46.17729" lon="7.34945"><ele>1471.6</ele><time>2016-08-28T11:27:04Z</time></trkpt>
<trkpt lat="46.17735" lon="7.34943"><ele>1471.4</ele><time>2016-08-28T11:27:05Z</time></trkpt>
<trkpt lat="46.17741" lon="7.3494"><ele>1471.4</ele><time>2016-08-28T11:27:06Z</time></trkpt>
<trkpt lat="46.17745" lon="7.34933"><ele>1471.2</ele><time>2016-08-28T11:27:07Z</time></trkpt>
<trkpt lat="46.17751" lon="7.34916"><ele>1471</ele><time>2016-08-28T11:27:09Z</time></trkpt>
<trkpt lat="46.17754" lon="7.34908"><ele>1471</ele><time>2016-08-28T11:27:10Z</time></trkpt>
<trkpt lat="46.1776" lon="7.34903"><ele>1470.8</ele><time>2016-08-28T11:27:11Z</time></trkpt>
<trkpt lat="46.17773" lon="7.34894"><ele>1470.6</ele><time>2016-08-28T11:27:13Z</time></trkpt>
<trkpt lat="46.17787" lon="7.34885"><ele>1470.4</ele><time>2016-08-28T11:27:15Z</time></trkpt>
<trkpt lat="46.17793" lon="7.34881"><ele>1470.4</ele><time>2016-08-28T11:27:16Z</time></trkpt>
<trkpt lat="46.17801" lon="7.34879"><ele>1470</ele><time>2016-08-28T11:27:17Z</time></trkpt>
<trkpt lat="46.17807" lon="7.34883"><ele>1469.8</ele><time>2016-08-28T11:27:18Z</time></trkpt>
<trkpt lat="46.17815" lon="7.34883"><ele>1469.6</ele><time>2016-08-28T11:27:19Z</time></trkpt>
<trkpt lat="46.17832" lon="7.3488"><ele>1469</ele><time>2016-08-28T11:27:21Z</time></trkpt>
<trkpt lat="46.1784" lon="7.34879"><ele>1468.8</ele><time>2016-08-28T11:27:22Z</time></trkpt>
<trkpt lat="46.17847" lon="7.34877"><ele>1468.8</ele><time>2016-08-28T11:27:23Z</time></trkpt>
<trkpt lat="46.17853" lon="7.34875"><ele>1468.6</ele><time>2016-08-28T11:27:24Z</time></trkpt>
<trkpt lat="46.17859" lon="7.3488"><ele>1468.4</ele><time>2016-08-28T11:27:25Z</time></trkpt>
<trkpt lat="46.17866" lon="7.34885"><ele>1468.4</ele><time>2016-08-28T11:27:26Z</time></trkpt>
<trkpt lat="46.17872" lon="7.34891"><ele>1468</ele><time>2016-08-28T11:27:27Z</time></trkpt>
<trkpt lat="46.17884" lon="7.34902"><ele>1467.6</ele><time>2016-08-28T11:27:29Z</time></trkpt>
<trkpt lat="46.1789" lon="7.34907"><ele>1467.2</ele><time>2016-08-28T11:27:30Z</time></trkpt>
<trkpt lat="46.17898" lon="7.34907"><ele>1467</ele><time>2016-08-28T11:27:31Z</time></trkpt>
<trkpt lat="46.17914" lon="7.34906"><ele>1466.4</ele><time>2016-08-28T11:27:33Z</time></trkpt>
<trkpt lat="46.1793" lon="7.34905"><ele>1465.8</ele><time>2016-08-28T11:27:35Z</time></trkpt>
<trkpt lat="46.17938" lon="7.34904"><ele>1465.4</ele><time>2016-08-28T11:27:36Z</time></trkpt>
<trkpt lat="46.17947" lon="7.34903"><ele>1465.2</ele><time>2016-08-28T11:27:37Z</time></trkpt>
<trkpt lat="46.17965" lon="7.349"><ele>1464.6</ele><time>2016-08-28T11:27:39Z</time></trkpt>
<trkpt lat="46.17974" lon="7.34899"><ele>1464.2</ele><time>2016-08-28T11:27:40Z</time></trkpt>
<trkpt lat="46.17983" lon="7.34894"><ele>1464</ele><time>2016-08-28T11:27:41Z</time></trkpt>
<trkpt lat="46.17991" lon="7.34889"><ele>1463.6</ele><time>2016-08-28T11:27:42Z</time></trkpt>
<trkpt lat="46.17998" lon="7.3488"><ele>1463.2</ele><time>2016-08-28T11:27:43Z</time></trkpt>
<trkpt lat="46.18004" lon="7.3487"><ele>1462.8</ele><time>2016-08-28T11:27:44Z</time></trkpt>
<trkpt lat="46.18009" lon="7.34858"><ele>1462.4</ele><time>2016-08-28T11:27:45Z</time></trkpt>
<trkpt lat="46.18017" lon="7.34834"><ele>1461.6</ele><time>2016-08-28T11:27:47Z</time></trkpt>
<trkpt lat="46.18021" lon="7.34821"><ele>1461.2</ele><time>2016-08-28T11:27:48Z</time></trkpt>
<trkpt lat="46.18027" lon="7.34812"><ele>1460.8</ele><time>2016-08-28T11:27:49Z</time></trkpt>
<trkpt lat="46.18038" lon="7.34793"><ele>1460</ele><time>2016-08-28T11:27:51Z</time></trkpt>
<trkpt lat="46.18044" lon="7.34783"><ele>1459.6</ele><time>2016-08-28T11:27:52Z</time></trkpt>
<trkpt lat="46.18048" lon="7.34772"><ele>1459.2</ele><time>2016-08-28T11:27:53Z</time></trkpt>
<trkpt lat="46.18051" lon="7.34761"><ele>1458.8</ele><time>2016-08-28T11:27:54Z</time></trkpt>
<trkpt lat="46.18056" lon="7.34752"><ele>1458.4</ele><time>2016-08-28T11:27:55Z</time></trkpt>
<trkpt lat="46.18062" lon="7.34733"><ele>1458</ele><time>2016-08-28T11:27:57Z</time></trkpt>
<trkpt lat="46.18069" lon="7.34725"><ele>1457.6</ele><time>2016-08-28T11:27:59Z</time></trkpt>
<trkpt lat="46.18073" lon="7.34722"><ele>1457.4</ele><time>2016-08-28T11:28:00Z</time></trkpt>
<trkpt lat="46.18077" lon="7.34719"><ele>1457</ele><time>2016-08-28T11:28:01Z</time></trkpt>
<trkpt lat="46.18086" lon="7.34715"><ele>1456.6</ele><time>2016-08-28T11:28:03Z</time></trkpt>
<trkpt lat="46.18091" lon="7.34713"><ele>1456.4</ele><time>2016-08-28T11:28:04Z</time></trkpt>
<trkpt lat="46.18094" lon="7.34708"><ele>1456.2</ele><time>2016-08-28T11:28:05Z</time></trkpt>
<trkpt lat="46.181" lon="7.34698"><ele>1455.8</ele><time>2016-08-28T11:28:07Z</time></trkpt>
<trkpt lat="46.18105" lon="7.34687"><ele>1455.4</ele><time>2016-08-28T11:28:09Z</time></trkpt>
<trkpt lat="46.18108" lon="7.34682"><ele>1455.2</ele><time>2016-08-28T11:28:10Z</time></trkpt>
<trkpt lat="46.18111" lon="7.34677"><ele>1455</ele><time>2016-08-28T11:28:11Z</time></trkpt>
<trkpt lat="46.18117" lon="7.34666"><ele>1454.8</ele><time>2016-08-28T11:28:13Z</time></trkpt>
<trkpt lat="46.18119" lon="7.34661"><ele>1454.8</ele><time>2016-08-28T11:28:14Z</time></trkpt>
<trkpt lat="46.18122" lon="7.34659"><ele>1454.8</ele><time>2016-08-28T11:28:15Z</time></trkpt>
<trkpt lat="46.18124" lon="7.34657"><ele>1454.6</ele><time>2016-08-28T11:28:16Z</time></trkpt>
<trkpt lat="46.18126" lon="7.34656"><ele>1454.6</ele><time>2016-08-28T11:28:17Z</time></trkpt>
<trkpt lat="46.1813" lon="7.34653"><ele>1454.4</ele><time>2016-08-28T11:28:19Z</time></trkpt>
<trkpt lat="46.18134" lon="7.34649"><ele>1454.4</ele><time>2016-08-28T11:28:21Z</time></trkpt>
<trkpt lat="46.18139" lon="7.34646"><ele>1454.2</ele><time>2016-08-28T11:28:23Z</time></trkpt>
<trkpt lat="46.18143" lon="7.34643"><ele>1454.2</ele><time>2016-08-28T11:28:25Z</time></trkpt>
<trkpt lat="46.18145" lon="7.34641"><ele>1454</ele><time>2016-08-28T11:28:26Z</time></trkpt>
<trkpt lat="46.18147" lon="7.3464"><ele>1454</ele><time>2016-08-28T11:28:27Z</time></trkpt>
<trkpt lat="46.18151" lon="7.34637"><ele>1453.6</ele><time>2016-08-28T11:28:29Z</time></trkpt>
<trkpt lat="46.18155" lon="7.34633"><ele>1453.4</ele><time>2016-08-28T11:28:31Z</time></trkpt>
<trkpt lat="46.1816" lon="7.3463"><ele>1453.2</ele><time>2016-08-28T11:28:33Z</time></trkpt>
<trkpt lat="46.18164" lon="7.34627"><ele>1453</ele><time>2016-08-28T11:28:35Z</time></trkpt>
<trkpt lat="46.18175" lon="7.34614"><ele>1452.6</ele><time>2016-08-28T11:28:37Z</time></trkpt>
<trkpt lat="46.18186" lon="7.34601"><ele>1452.4</ele><time>2016-08-28T11:28:39Z</time></trkpt>
<trkpt lat="46.18197" lon="7.34587"><ele>1452.2</ele><time>2016-08-28T11:28:41Z</time></trkpt>
<trkpt lat="46.18203" lon="7.34581"><ele>1452</ele><time>2016-08-28T11:28:42Z</time></trkpt>
<trkpt lat="46.18207" lon="7.34571"><ele>1452</ele><time>2016-08-28T11:28:43Z</time></trkpt>
<trkpt lat="46.18216" lon="7.34552"><ele>1451.6</ele><time>2016-08-28T11:28:45Z</time></trkpt>
<trkpt lat="46.18225" lon="7.34533"><ele>1451.4</ele><time>2016-08-28T11:28:47Z</time></trkpt>
<trkpt lat="46.18229" lon="7.34523"><ele>1451.4</ele><time>2016-08-28T11:28:48Z</time></trkpt>
<trkpt lat="46.18235" lon="7.34515"><ele>1451.2</ele><time>2016-08-28T11:28:49Z</time></trkpt>
<trkpt lat="46.18246" lon="7.34497"><ele>1451</ele><time>2016-08-28T11:28:51Z</time></trkpt>
<trkpt lat="46.18258" lon="7.3448"><ele>1450.8</ele><time>2016-08-28T11:28:53Z</time></trkpt>
<trkpt lat="46.18263" lon="7.34471"><ele>1450.4</ele><time>2016-08-28T11:28:54Z</time></trkpt>
<trkpt lat="46.18268" lon="7.34461"><ele>1450.2</ele><time>2016-08-28T11:28:55Z</time></trkpt>
<trkpt lat="46.18276" lon="7.34441"><ele>1449.8</ele><time>2016-08-28T11:28:57Z</time></trkpt>
<trkpt lat="46.18285" lon="7.3442"><ele>1449.4</ele><time>2016-08-28T11:28:59Z</time></trkpt>
<trkpt lat="46.1829" lon="7.34409"><ele>1449</ele><time>2016-08-28T11:29:00Z</time></trkpt>
<trkpt lat="46.18291" lon="7.34398"><ele>1448.6</ele><time>2016-08-28T11:29:01Z</time></trkpt>
<trkpt lat="46.18292" lon="7.34386"><ele>1448.2</ele><time>2016-08-28T11:29:02Z</time></trkpt>
<trkpt lat="46.18296" lon="7.34378"><ele>1447.8</ele><time>2016-08-28T11:29:03Z</time></trkpt>
<trkpt lat="46.18299" lon="7.34368"><ele>1447.2</ele><time>2016-08-28T11:29:04Z</time></trkpt>
<trkpt lat="46.183" lon="7.34357"><ele>1446.6</ele><time>2016-08-28T11:29:05Z</time></trkpt>
<trkpt lat="46.1831" lon="7.3434"><ele>1445.4</ele><time>2016-08-28T11:29:07Z</time></trkpt>
<trkpt lat="46.18321" lon="7.34323"><ele>1444.2</ele><time>2016-08-28T11:29:09Z</time></trkpt>
<trkpt lat="46.18335" lon="7.34311"><ele>1442.8</ele><time>2016-08-28T11:29:11Z</time></trkpt>
<trkpt lat="46.18342" lon="7.34305"><ele>1440.6</ele><time>2016-08-28T11:29:12Z</time></trkpt>
<trkpt lat="46.18352" lon="7.34301"><ele>1438.6</ele><time>2016-08-28T11:29:13Z</time></trkpt>
<trkpt lat="46.18371" lon="7.34281"><ele>1434.4</ele><time>2016-08-28T11:29:15Z</time></trkpt>
<trkpt lat="46.18384" lon="7.34253"><ele>1431.6</ele><time>2016-08-28T11:29:17Z</time></trkpt>
<trkpt lat="46.18397" lon="7.34225"><ele>1428.8</ele><time>2016-08-28T11:29:19Z</time></trkpt>
<trkpt lat="46.18401" lon="7.34214"><ele>1427.4</ele><time>2016-08-28T11:29:20Z</time></trkpt>
<trkpt lat="46.18406" lon="7.34204"><ele>1425.8</ele><time>2016-08-28T11:29:21Z</time></trkpt>
<trkpt lat="46.18414" lon="7.34191"><ele>1422.4</ele><time>2016-08-28T11:29:23Z</time></trkpt>
<trkpt lat="46.18422" lon="7.34179"><ele>1419</ele><time>2016-08-28T11:29:25Z</time></trkpt>
<trkpt lat="46.18429" lon="7.34166"><ele>1417.8</ele><time>2016-08-28T11:29:27Z</time></trkpt>
<trkpt lat="46.18437" lon="7.34154"><ele>1416.6</ele><time>2016-08-28T11:29:29Z</time></trkpt>
<trkpt lat="46.18444" lon="7.34145"><ele>1415.6</ele><time>2016-08-28T11:29:31Z</time></trkpt>
<trkpt lat="46.1845" lon="7.34136"><ele>1414.4</ele><time>2016-08-28T11:29:33Z</time></trkpt>
<trkpt lat="46.18457" lon="7.34128"><ele>1413.4</ele><time>2016-08-28T11:29:35Z</time></trkpt>
<trkpt lat="46.1846" lon="7.34123"><ele>1412.8</ele><time>2016-08-28T11:29:36Z</time></trkpt>
<trkpt lat="46.18463" lon="7.34119"><ele>1412.6</ele><time>2016-08-28T11:29:37Z</time></trkpt>
<trkpt lat="46.18469" lon="7.34111"><ele>1412.6</ele><time>2016-08-28T11:29:39Z</time></trkpt>
<trkpt lat="46.18472" lon="7.34106"><ele>1412.4</ele><time>2016-08-28T11:29:40Z</time></trkpt>
<trkpt lat="46.18474" lon="7.34105"><ele>1412.4</ele><time>2016-08-28T11:29:41Z</time></trkpt>
<trkpt lat="46.18478" lon="7.34102"><ele>1412.2</ele><time>2016-08-28T11:29:43Z</time></trkpt>
<trkpt lat="46.18481" lon="7.34099"><ele>1412.2</ele><time>2016-08-28T11:29:45Z</time></trkpt>
<trkpt lat="46.18485" lon="7.34097"><ele>1412</ele><time>2016-08-28T11:29:47Z</time></trkpt>
<trkpt lat="46.18488" lon="7.34094"><ele>1412</ele><time>2016-08-28T11:29:49Z</time></trkpt>
<trkpt lat="46.18492" lon="7.34091"><ele>1412.2</ele><time>2016-08-28T11:29:51Z</time></trkpt>
<trkpt lat="46.18494" lon="7.3409"><ele>1412.2</ele><time>2016-08-28T11:29:52Z</time></trkpt>
<trkpt lat="46.18495" lon="7.34089"><ele>1412</ele><time>2016-08-28T11:29:53Z</time></trkpt>
<trkpt lat="46.18499" lon="7.34086"><ele>1412</ele><time>2016-08-28T11:29:55Z</time></trkpt>
<trkpt lat="46.18503" lon="7.34083"><ele>1411.8</ele><time>2016-08-28T11:29:57Z</time></trkpt>
<trkpt lat="46.18506" lon="7.34081"><ele>1411.6</ele><time>2016-08-28T11:29:59Z</time></trkpt>
<trkpt lat="46.1851" lon="7.34078"><ele>1411.4</ele><time>2016-08-28T11:30:01Z</time></trkpt>
<trkpt lat="46.18513" lon="7.34075"><ele>1411.2</ele><time>2016-08-28T11:30:03Z</time></trkpt>
<trkpt lat="46.18516" lon="7.34073"><ele>1411</ele><time>2016-08-28T11:30:05Z</time></trkpt>
<trkpt lat="46.1852" lon="7.3407"><ele>1411</ele><time>2016-08-28T11:30:07Z</time></trkpt>
<trkpt lat="46.18523" lon="7.34068"><ele>1410.8</ele><time>2016-08-28T11:30:09Z</time></trkpt>
<trkpt lat="46.18526" lon="7.34065"><ele>1410.6</ele><time>2016-08-28T11:30:11Z</time></trkpt>
<trkpt lat="46.18529" lon="7.34063"><ele>1410.4</ele><time>2016-08-28T11:30:13Z</time></trkpt>
<trkpt lat="46.18532" lon="7.34061"><ele>1410.2</ele><time>2016-08-28T11:30:15Z</time></trkpt>
<trkpt lat="46.18536" lon="7.34058"><ele>1410</ele><time>2016-08-28T11:30:17Z</time></trkpt>
<trkpt lat="46.18539" lon="7.34056"><ele>1410</ele><time>2016-08-28T11:30:19Z</time></trkpt>
<trkpt lat="46.18542" lon="7.34053"><ele>1409.8</ele><time>2016-08-28T11:30:21Z</time></trkpt>
<trkpt lat="46.18545" lon="7.34051"><ele>1409.6</ele><time>2016-08-28T11:30:23Z</time></trkpt>
<trkpt lat="46.18549" lon="7.34049"><ele>1409.4</ele><time>2016-08-28T11:30:25Z</time></trkpt>
<trkpt lat="46.18552" lon="7.34046"><ele>1409.2</ele><time>2016-08-28T11:30:27Z</time></trkpt>
<trkpt lat="46.18555" lon="7.34044"><ele>1409.2</ele><time>2016-08-28T11:30:29Z</time></trkpt>
<trkpt lat="46.18564" lon="7.34037"><ele>1409</ele><time>2016-08-28T11:30:31Z</time></trkpt>
<trkpt lat="46.18574" lon="7.3403"><ele>1408.8</ele><time>2016-08-28T11:30:33Z</time></trkpt>
<trkpt lat="46.18579" lon="7.34027"><ele>1408.6</ele><time>2016-08-28T11:30:34Z</time></trkpt>
<trkpt lat="46.18582" lon="7.3402"><ele>1408.6</ele><time>2016-08-28T11:30:35Z</time></trkpt>
<trkpt lat="46.18586" lon="7.34013"><ele>1408.6</ele><time>2016-08-28T11:30:36Z</time></trkpt>
<trkpt lat="46.18589" lon="7.34006"><ele>1407.8</ele><time>2016-08-28T11:30:37Z</time></trkpt>
<trkpt lat="46.18592" lon="7.33999"><ele>1407</ele><time>2016-08-28T11:30:38Z</time></trkpt>
<trkpt lat="46.18596" lon="7.33997"><ele>1406.2</ele><time>2016-08-28T11:30:39Z</time></trkpt>
<trkpt lat="46.18603" lon="7.33988"><ele>1404.6</ele><time>2016-08-28T11:30:41Z</time></trkpt>
<trkpt lat="46.18607" lon="7.33984"><ele>1404.2</ele><time>2016-08-28T11:30:42Z</time></trkpt>
<trkpt lat="46.18611" lon="7.3398"><ele>1404</ele><time>2016-08-28T11:30:43Z</time></trkpt>
<trkpt lat="46.18619" lon="7.33974"><ele>1403.4</ele><time>2016-08-28T11:30:45Z</time></trkpt>
<trkpt lat="46.18627" lon="7.33968"><ele>1402.8</ele><time>2016-08-28T11:30:47Z</time></trkpt>
<trkpt lat="46.18635" lon="7.33962"><ele>1402.2</ele><time>2016-08-28T11:30:49Z</time></trkpt>
<trkpt lat="46.18639" lon="7.33958"><ele>1402</ele><time>2016-08-28T11:30:50Z</time></trkpt>
<trkpt lat="46.18643" lon="7.33959"><ele>1401.6</ele><time>2016-08-28T11:30:51Z</time></trkpt>
<trkpt lat="46.18649" lon="7.3396"><ele>1401.2</ele><time>2016-08-28T11:30:53Z</time></trkpt>
<trkpt lat="46.18655" lon="7.33961"><ele>1400.6</ele><time>2016-08-28T11:30:55Z</time></trkpt>
<trkpt lat="46.18662" lon="7.33962"><ele>1400</ele><time>2016-08-28T11:30:57Z</time></trkpt>
<trkpt lat="46.18665" lon="7.33962"><ele>1399.6</ele><time>2016-08-28T11:30:58Z</time></trkpt>
<trkpt lat="46.18669" lon="7.33962"><ele>1399.2</ele><time>2016-08-28T11:30:59Z</time></trkpt>
<trkpt lat="46.18678" lon="7.33959"><ele>1398.4</ele><time>2016-08-28T11:31:01Z</time></trkpt>
<trkpt lat="46.18687" lon="7.33957"><ele>1397.4</ele><time>2016-08-28T11:31:03Z</time></trkpt>
<trkpt lat="46.18695" lon="7.33955"><ele>1396.4</ele><time>2016-08-28T11:31:05Z</time></trkpt>
<trkpt lat="46.18704" lon="7.33953"><ele>1395.6</ele><time>2016-08-28T11:31:07Z</time></trkpt>
<trkpt lat="46.18712" lon="7.33951"><ele>1394.6</ele><time>2016-08-28T11:31:09Z</time></trkpt>
<trkpt lat="46.18717" lon="7.3395"><ele>1393.4</ele><time>2016-08-28T11:31:10Z</time></trkpt>
<trkpt lat="46.18726" lon="7.33947"><ele>1392</ele><time>2016-08-28T11:31:11Z</time></trkpt>
<trkpt lat="46.18745" lon="7.33941"><ele>1389.4</ele><time>2016-08-28T11:31:13Z</time></trkpt>
<trkpt lat="46.18765" lon="7.33936"><ele>1386.6</ele><time>2016-08-28T11:31:15Z</time></trkpt>
<trkpt lat="46.18774" lon="7.33932"><ele>1385.8</ele><time>2016-08-28T11:31:16Z</time></trkpt>
<trkpt lat="46.18781" lon="7.33925"><ele>1384.8</ele><time>2016-08-28T11:31:17Z</time></trkpt>
<trkpt lat="46.18795" lon="7.3391"><ele>1383</ele><time>2016-08-28T11:31:19Z</time></trkpt>
<trkpt lat="46.18808" lon="7.33895"><ele>1381.2</ele><time>2016-08-28T11:31:21Z</time></trkpt>
<trkpt lat="46.18815" lon="7.33884"><ele>1380.4</ele><time>2016-08-28T11:31:22Z</time></trkpt>
<trkpt lat="46.18824" lon="7.33876"><ele>1379.8</ele><time>2016-08-28T11:31:23Z</time></trkpt>
<trkpt lat="46.18843" lon="7.33871"><ele>1378.6</ele><time>2016-08-28T11:31:25Z</time></trkpt>
<trkpt lat="46.18852" lon="7.33869"><ele>1378</ele><time>2016-08-28T11:31:26Z</time></trkpt>
<trkpt lat="46.18861" lon="7.33867"><ele>1377.8</ele><time>2016-08-28T11:31:27Z</time></trkpt>
<trkpt lat="46.1887" lon="7.33864"><ele>1377.8</ele><time>2016-08-28T11:31:28Z</time></trkpt>
<trkpt lat="46.18879" lon="7.33863"><ele>1377.6</ele><time>2016-08-28T11:31:29Z</time></trkpt>
<trkpt lat="46.18888" lon="7.33862"><ele>1377.6</ele><time>2016-08-28T11:31:30Z</time></trkpt>
<trkpt lat="46.18896" lon="7.33858"><ele>1377.4</ele><time>2016-08-28T11:31:31Z</time></trkpt>
<trkpt lat="46.18911" lon="7.3385"><ele>1377.4</ele><time>2016-08-28T11:31:33Z</time></trkpt>
<trkpt lat="46.18927" lon="7.33842"><ele>1377.2</ele><time>2016-08-28T11:31:35Z</time></trkpt>
<trkpt lat="46.18934" lon="7.33838"><ele>1377.2</ele><time>2016-08-28T11:31:36Z</time></trkpt>
<trkpt lat="46.18943" lon="7.33837"><ele>1377</ele><time>2016-08-28T11:31:37Z</time></trkpt>
<trkpt lat="46.18959" lon="7.33834"><ele>1376.8</ele><time>2016-08-28T11:31:39Z</time></trkpt>
<trkpt lat="46.18976" lon="7.33841"><ele>1376.8</ele><time>2016-08-28T11:31:41Z</time></trkpt>
<trkpt lat="46.18994" lon="7.33849"><ele>1376.6</ele><time>2016-08-28T11:31:43Z</time></trkpt>
<trkpt lat="46.19002" lon="7.33852"><ele>1376.6</ele><time>2016-08-28T11:31:44Z</time></trkpt>
<trkpt lat="46.1901" lon="7.33856"><ele>1376.4</ele><time>2016-08-28T11:31:45Z</time></trkpt>
<trkpt lat="46.19026" lon="7.33863"><ele>1376.4</ele><time>2016-08-28T11:31:47Z</time></trkpt>
<trkpt lat="46.19033" lon="7.33866"><ele>1376.2</ele><time>2016-08-28T11:31:48Z</time></trkpt>
<trkpt lat="46.1904" lon="7.33867"><ele>1376.2</ele><time>2016-08-28T11:31:49Z</time></trkpt>
<trkpt lat="46.19054" lon="7.33867"><ele>1376.2</ele><time>2016-08-28T11:31:51Z</time></trkpt>
<trkpt lat="46.19068" lon="7.33867"><ele>1376</ele><time>2016-08-28T11:31:53Z</time></trkpt>
<trkpt lat="46.19075" lon="7.33868"><ele>1376</ele><time>2016-08-28T11:31:54Z</time></trkpt>
<trkpt lat="46.19082" lon="7.33865"><ele>1375.8</ele><time>2016-08-28T11:31:55Z</time></trkpt>
<trkpt lat="46.19095" lon="7.3386"><ele>1375.8</ele><time>2016-08-28T11:31:57Z</time></trkpt>
<trkpt lat="46.19108" lon="7.33854"><ele>1375.6</ele><time>2016-08-28T11:31:59Z</time></trkpt>
<trkpt lat="46.1912" lon="7.33856"><ele>1375.6</ele><time>2016-08-28T11:32:01Z</time></trkpt>
<trkpt lat="46.19133" lon="7.33859"><ele>1375.4</ele><time>2016-08-28T11:32:03Z</time></trkpt>
<trkpt lat="46.19145" lon="7.33862"><ele>1375.2</ele><time>2016-08-28T11:32:05Z</time></trkpt>
<trkpt lat="46.19158" lon="7.33864"><ele>1375.2</ele><time>2016-08-28T11:32:07Z</time></trkpt>
<trkpt lat="46.19171" lon="7.33868"><ele>1375</ele><time>2016-08-28T11:32:09Z</time></trkpt>
<trkpt lat="46.19184" lon="7.33872"><ele>1375</ele><time>2016-08-28T11:32:11Z</time></trkpt>
<trkpt lat="46.19198" lon="7.33876"><ele>1374.8</ele><time>2016-08-28T11:32:13Z</time></trkpt>
<trkpt lat="46.19204" lon="7.33879"><ele>1374.8</ele><time>2016-08-28T11:32:14Z</time></trkpt>
<trkpt lat="46.1921" lon="7.33881"><ele>1374.8</ele><time>2016-08-28T11:32:15Z</time></trkpt>
<trkpt lat="46.19222" lon="7.33885"><ele>1374.6</ele><time>2016-08-28T11:32:17Z</time></trkpt>
<trkpt lat="46.19233" lon="7.33889"><ele>1374.4</ele><time>2016-08-28T11:32:19Z</time></trkpt>
<trkpt lat="46.19245" lon="7.33893"><ele>1374.4</ele><time>2016-08-28T11:32:21Z</time></trkpt>
<trkpt lat="46.1925" lon="7.33895"><ele>1374.4</ele><time>2016-08-28T11:32:22Z</time></trkpt>
<trkpt lat="46.19254" lon="7.33895"><ele>1374.2</ele><time>2016-08-28T11:32:23Z</time></trkpt>
<trkpt lat="46.19259" lon="7.33897"><ele>1374.2</ele><time>2016-08-28T11:32:25Z</time></trkpt>
<trkpt lat="46.19265" lon="7.33898"><ele>1374</ele><time>2016-08-28T11:32:27Z</time></trkpt>
<trkpt lat="46.19271" lon="7.33899"><ele>1374</ele><time>2016-08-28T11:32:29Z</time></trkpt>
<trkpt lat="46.19276" lon="7.33901"><ele>1373.8</ele><time>2016-08-28T11:32:31Z</time></trkpt>
<trkpt lat="46.19282" lon="7.33902"><ele>1373.6</ele><time>2016-08-28T11:32:33Z</time></trkpt>
<trkpt lat="46.19288" lon="7.33904"><ele>1373.6</ele><time>2016-08-28T11:32:35Z</time></trkpt>
<trkpt lat="46.19293" lon="7.33905"><ele>1373.4</ele><time>2016-08-28T11:32:37Z</time></trkpt>
<trkpt lat="46.19296" lon="7.33906"><ele>1373.4</ele><time>2016-08-28T11:32:38Z</time></trkpt>
<trkpt lat="46.19298" lon="7.33906"><ele>1373.4</ele><time>2016-08-28T11:32:39Z</time></trkpt>
<trkpt lat="46.19301" lon="7.33908"><ele>1373.2</ele><time>2016-08-28T11:32:41Z</time></trkpt>
<trkpt lat="46.19303" lon="7.33908"><ele>1373.2</ele><time>2016-08-28T11:32:42Z</time></trkpt>
<trkpt lat="46.19304" lon="7.33909"><ele>1373.2</ele><time>2016-08-28T11:32:43Z</time></trkpt>
<trkpt lat="46.19307" lon="7.3391"><ele>1373</ele><time>2016-08-28T11:32:45Z</time></trkpt>
<trkpt lat="46.19311" lon="7.33911"><ele>1373</ele><time>2016-08-28T11:32:47Z</time></trkpt>
<trkpt lat="46.19312" lon="7.33912"><ele>1372.8</ele><time>2016-08-28T11:32:48Z</time></trkpt>
<trkpt lat="46.19314" lon="7.33912"><ele>1372.8</ele><time>2016-08-28T11:32:49Z</time></trkpt>
<trkpt lat="46.19317" lon="7.33914"><ele>1372.8</ele><time>2016-08-28T11:32:51Z</time></trkpt>
<trkpt lat="46.1932" lon="7.33915"><ele>1372.6</ele><time>2016-08-28T11:32:53Z</time></trkpt>
<trkpt lat="46.19324" lon="7.33916"><ele>1372.6</ele><time>2016-08-28T11:32:55Z</time></trkpt>
<trkpt lat="46.19327" lon="7.33917"><ele>1372.4</ele><time>2016-08-28T11:32:57Z</time></trkpt>
<trkpt lat="46.1933" lon="7.33918"><ele>1372.4</ele><time>2016-08-28T11:32:59Z</time></trkpt>
<trkpt lat="46.19333" lon="7.3392"><ele>1372.2</ele><time>2016-08-28T11:33:01Z</time></trkpt>
<trkpt lat="46.19337" lon="7.33921"><ele>1372.2</ele><time>2016-08-28T11:33:03Z</time></trkpt>
<trkpt lat="46.1934" lon="7.33922"><ele>1372</ele><time>2016-08-28T11:33:05Z</time></trkpt>
<trkpt lat="46.19341" lon="7.33923"><ele>1372</ele><time>2016-08-28T11:33:06Z</time></trkpt>
<trkpt lat="46.19344" lon="7.33924"><ele>1372</ele><time>2016-08-28T11:33:07Z</time></trkpt>
<trkpt lat="46.19348" lon="7.33927"><ele>1371.8</ele><time>2016-08-28T11:33:09Z</time></trkpt>
<trkpt lat="46.19353" lon="7.3393"><ele>1371.8</ele><time>2016-08-28T11:33:11Z</time></trkpt>
<trkpt lat="46.19357" lon="7.33933"><ele>1371.6</ele><time>2016-08-28T11:33:13Z</time></trkpt>
<trkpt lat="46.19362" lon="7.33936"><ele>1371.6</ele><time>2016-08-28T11:33:15Z</time></trkpt>
<trkpt lat="46.19366" lon="7.33945"><ele>1371.4</ele><time>2016-08-28T11:33:17Z</time></trkpt>
<trkpt lat="46.1937" lon="7.33954"><ele>1371.4</ele><time>2016-08-28T11:33:19Z</time></trkpt>
<trkpt lat="46.19371" lon="7.33964"><ele>1371.2</ele><time>2016-08-28T11:33:21Z</time></trkpt>
<trkpt lat="46.19372" lon="7.33974"><ele>1371.2</ele><time>2016-08-28T11:33:23Z</time></trkpt>
<trkpt lat="46.19377" lon="7.3398"><ele>1371</ele><time>2016-08-28T11:33:25Z</time></trkpt>
<trkpt lat="46.19383" lon="7.33986"><ele>1371</ele><time>2016-08-28T11:33:27Z</time></trkpt>
<trkpt lat="46.19388" lon="7.33991"><ele>1370.8</ele><time>2016-08-28T11:33:29Z</time></trkpt>
<trkpt lat="46.19393" lon="7.33997"><ele>1370.8</ele><time>2016-08-28T11:33:31Z</time></trkpt>
<trkpt lat="46.19398" lon="7.34003"><ele>1370.6</ele><time>2016-08-28T11:33:33Z</time></trkpt>
<trkpt lat="46.19404" lon="7.34008"><ele>1370.6</ele><time>2016-08-28T11:33:35Z</time></trkpt>
<trkpt lat="46.19409" lon="7.34014"><ele>1370.6</ele><time>2016-08-28T11:33:37Z</time></trkpt>
<trkpt lat="46.19416" lon="7.34022"><ele>1370.4</ele><time>2016-08-28T11:33:39Z</time></trkpt>
<trkpt lat="46.1942" lon="7.34032"><ele>1370.4</ele><time>2016-08-28T11:33:41Z</time></trkpt>
<trkpt lat="46.19425" lon="7.34042"><ele>1370.2</ele><time>2016-08-28T11:33:43Z</time></trkpt>
<trkpt lat="46.19432" lon="7.34053"><ele>1370.2</ele><time>2016-08-28T11:33:45Z</time></trkpt>
<trkpt lat="46.1944" lon="7.34063"><ele>1370</ele><time>2016-08-28T11:33:47Z</time></trkpt>
<trkpt lat="46.19448" lon="7.34074"><ele>1370</ele><time>2016-08-28T11:33:49Z</time></trkpt>
<trkpt lat="46.19454" lon="7.34089"><ele>1369.8</ele><time>2016-08-28T11:33:51Z</time></trkpt>
<trkpt lat="46.19464" lon="7.34101"><ele>1369.8</ele><time>2016-08-28T11:33:53Z</time></trkpt>
<trkpt lat="46.19469" lon="7.34107"><ele>1369.6</ele><time>2016-08-28T11:33:54Z</time></trkpt>
<trkpt lat="46.19474" lon="7.34111"><ele>1369.4</ele><time>2016-08-28T11:33:55Z</time></trkpt>
<trkpt lat="46.1948" lon="7.34115"><ele>1369.2</ele><time>2016-08-28T11:33:56Z</time></trkpt>
<trkpt lat="46.19483" lon="7.34121"><ele>1369</ele><time>2016-08-28T11:33:57Z</time></trkpt>
<trkpt lat="46.19489" lon="7.34135"><ele>1368.4</ele><time>2016-08-28T11:33:59Z</time></trkpt>
<trkpt lat="46.19495" lon="7.34148"><ele>1368</ele><time>2016-08-28T11:34:01Z</time></trkpt>
<trkpt lat="46.19501" lon="7.34162"><ele>1367.4</ele><time>2016-08-28T11:34:03Z</time></trkpt>
<trkpt lat="46.19504" lon="7.34169"><ele>1367.2</ele><time>2016-08-28T11:34:04Z</time></trkpt>
<trkpt lat="46.19506" lon="7.34176"><ele>1367</ele><time>2016-08-28T11:34:05Z</time></trkpt>
<trkpt lat="46.1951" lon="7.34191"><ele>1366.4</ele><time>2016-08-28T11:34:07Z</time></trkpt>
<trkpt lat="46.19516" lon="7.34198"><ele>1366</ele><time>2016-08-28T11:34:09Z</time></trkpt>
<trkpt lat="46.19519" lon="7.34201"><ele>1365.8</ele><time>2016-08-28T11:34:10Z</time></trkpt>
<trkpt lat="46.1952" lon="7.342"><ele>1365.4</ele><time>2016-08-28T11:34:11Z</time></trkpt>
<trkpt lat="46.19522" lon="7.34195"><ele>1365</ele><time>2016-08-28T11:34:13Z</time></trkpt>
<trkpt lat="46.19524" lon="7.34186"><ele>1364.4</ele><time>2016-08-28T11:34:15Z</time></trkpt>
<trkpt lat="46.19524" lon="7.34182"><ele>1364.2</ele><time>2016-08-28T11:34:16Z</time></trkpt>
<trkpt lat="46.19525" lon="7.34181"><ele>1364.2</ele><time>2016-08-28T11:34:17Z</time></trkpt>
<trkpt lat="46.19525" lon="7.3418"><ele>1364</ele><time>2016-08-28T11:34:19Z</time></trkpt>
<trkpt lat="46.19526" lon="7.3418"><ele>1363.8</ele><time>2016-08-28T11:34:21Z</time></trkpt>
<trkpt lat="46.19526" lon="7.34179"><ele>1363.8</ele><time>2016-08-28T11:34:22Z</time></trkpt>
<trkpt lat="46.19526" lon="7.34179"><ele>1363.8</ele><time>2016-08-28T11:34:23Z</time></trkpt>
<trkpt lat="46.19526" lon="7.34179"><ele>1363.6</ele><time>2016-08-28T11:34:25Z</time></trkpt>
<trkpt lat="46.19526" lon="7.34179"><ele>1363.4</ele><time>2016-08-28T11:34:27Z</time></trkpt>
<trkpt lat="46.19526" lon="7.34179"><ele>1363.4</ele><time>2016-08-28T11:34:29Z</time></trkpt>
<trkpt lat="46.19526" lon="7.34179"><ele>1363.4</ele><time>2016-08-28T11:34:31Z</time></trkpt>
<trkpt lat="46.19526" lon="7.34179"><ele>1363.4</ele><time>2016-08-28T11:34:33Z</time></trkpt>
<trkpt lat="46.19526" lon="7.34179"><ele>1363.4</ele><time>2016-08-28T11:34:35Z</time></trkpt>
<trkpt lat="46.19526" lon="7.3418"><ele>1363.4</ele><time>2016-08-28T11:34:37Z</time></trkpt>
<trkpt lat="46.19526" lon="7.3418"><ele>1363.4</ele><time>2016-08-28T11:34:38Z</time></trkpt>
<trkpt lat="46.19526" lon="7.3418"><ele>1363.4</ele><time>2016-08-28T11:34:39Z</time></trkpt>
<trkpt lat="46.19524" lon="7.34195"><ele>1357.4</ele><time>2016-08-28T12:52:08Z</time></trkpt>
<trkpt lat="46.19523" lon="7.34195"><ele>1357.4</ele><time>2016-08-28T12:52:10Z</time></trkpt>
<trkpt lat="46.19523" lon="7.34195"><ele>1357.6</ele><time>2016-08-28T12:52:11Z</time></trkpt>
<trkpt lat="46.19522" lon="7.34196"><ele>1358</ele><time>2016-08-28T12:52:13Z</time></trkpt>
<trkpt lat="46.19522" lon="7.34198"><ele>1358.4</ele><time>2016-08-28T12:52:15Z</time></trkpt>
<trkpt lat="46.19521" lon="7.34199"><ele>1358.8</ele><time>2016-08-28T12:52:17Z</time></trkpt>
<trkpt lat="46.19521" lon="7.34201"><ele>1359.2</ele><time>2016-08-28T12:52:19Z</time></trkpt>
<trkpt lat="46.1952" lon="7.34202"><ele>1359.6</ele><time>2016-08-28T12:52:21Z</time></trkpt>
<trkpt lat="46.19519" lon="7.34204"><ele>1360</ele><time>2016-08-28T12:52:23Z</time></trkpt>
<trkpt lat="46.19519" lon="7.34205"><ele>1360.4</ele><time>2016-08-28T12:52:25Z</time></trkpt>
<trkpt lat="46.19519" lon="7.34206"><ele>1360.6</ele><time>2016-08-28T12:52:26Z</time></trkpt>
<trkpt lat="46.19518" lon="7.34207"><ele>1360.6</ele><time>2016-08-28T12:52:27Z</time></trkpt>
<trkpt lat="46.19518" lon="7.34208"><ele>1361</ele><time>2016-08-28T12:52:29Z</time></trkpt>
<trkpt lat="46.19517" lon="7.3421"><ele>1361.2</ele><time>2016-08-28T12:52:31Z</time></trkpt>
<trkpt lat="46.19517" lon="7.34211"><ele>1361.6</ele><time>2016-08-28T12:52:33Z</time></trkpt>
<trkpt lat="46.19516" lon="7.34213"><ele>1361.8</ele><time>2016-08-28T12:52:35Z</time></trkpt>
<trkpt lat="46.19516" lon="7.34214"><ele>1362</ele><time>2016-08-28T12:52:36Z</time></trkpt>
<trkpt lat="46.19516" lon="7.34215"><ele>1362</ele><time>2016-08-28T12:52:37Z</time></trkpt>
<trkpt lat="46.19515" lon="7.34216"><ele>1362.2</ele><time>2016-08-28T12:52:39Z</time></trkpt>
<trkpt lat="46.19514" lon="7.34218"><ele>1362.2</ele><time>2016-08-28T12:52:42Z</time></trkpt>
<trkpt lat="46.19515" lon="7.3422"><ele>1362.2</ele><time>2016-08-28T12:52:43Z</time></trkpt>
<trkpt lat="46.19516" lon="7.34223"><ele>1362.4</ele><time>2016-08-28T12:52:45Z</time></trkpt>
<trkpt lat="46.19517" lon="7.34225"><ele>1362.4</ele><time>2016-08-28T12:52:47Z</time></trkpt>
<trkpt lat="46.19518" lon="7.34228"><ele>1362.4</ele><time>2016-08-28T12:52:49Z</time></trkpt>
<trkpt lat="46.19519" lon="7.34231"><ele>1362.4</ele><time>2016-08-28T12:52:51Z</time></trkpt>
<trkpt lat="46.1952" lon="7.34234"><ele>1362.4</ele><time>2016-08-28T12:52:53Z</time></trkpt>
<trkpt lat="46.19521" lon="7.34237"><ele>1362.4</ele><time>2016-08-28T12:52:55Z</time></trkpt>
<trkpt lat="46.19521" lon="7.3424"><ele>1362.4</ele><time>2016-08-28T12:52:57Z</time></trkpt>
<trkpt lat="46.19522" lon="7.34243"><ele>1362.6</ele><time>2016-08-28T12:52:59Z</time></trkpt>
<trkpt lat="46.19523" lon="7.34245"><ele>1362.6</ele><time>2016-08-28T12:53:01Z</time></trkpt>
<trkpt lat="46.19524" lon="7.34248"><ele>1362.6</ele><time>2016-08-28T12:53:03Z</time></trkpt>
<trkpt lat="46.19525" lon="7.34251"><ele>1362.6</ele><time>2016-08-28T12:53:05Z</time></trkpt>
<trkpt lat="46.19526" lon="7.34254"><ele>1362.6</ele><time>2016-08-28T12:53:07Z</time></trkpt>
<trkpt lat="46.19527" lon="7.34257"><ele>1362.6</ele><time>2016-08-28T12:53:09Z</time></trkpt>
<trkpt lat="46.19529" lon="7.34261"><ele>1362.8</ele><time>2016-08-28T12:53:12Z</time></trkpt>
<trkpt lat="46.19529" lon="7.34263"><ele>1362.8</ele><time>2016-08-28T12:53:13Z</time></trkpt>
<trkpt lat="46.1953" lon="7.34266"><ele>1362.8</ele><time>2016-08-28T12:53:15Z</time></trkpt>
<trkpt lat="46.19531" lon="7.34268"><ele>1362.8</ele><time>2016-08-28T12:53:17Z</time></trkpt>
<trkpt lat="46.19532" lon="7.34271"><ele>1362.8</ele><time>2016-08-28T12:53:19Z</time></trkpt>
<trkpt lat="46.19533" lon="7.34274"><ele>1362.8</ele><time>2016-08-28T12:53:21Z</time></trkpt>
<trkpt lat="46.19534" lon="7.34277"><ele>1362.8</ele><time>2016-08-28T12:53:23Z</time></trkpt>
<trkpt lat="46.19535" lon="7.3428"><ele>1363</ele><time>2016-08-28T12:53:25Z</time></trkpt>
<trkpt lat="46.19536" lon="7.34284"><ele>1363</ele><time>2016-08-28T12:53:27Z</time></trkpt>
<trkpt lat="46.19537" lon="7.34288"><ele>1363</ele><time>2016-08-28T12:53:29Z</time></trkpt>
<trkpt lat="46.19538" lon="7.34291"><ele>1363</ele><time>2016-08-28T12:53:31Z</time></trkpt>
<trkpt lat="46.19539" lon="7.34295"><ele>1363</ele><time>2016-08-28T12:53:33Z</time></trkpt>
<trkpt lat="46.19541" lon="7.34302"><ele>1363.2</ele><time>2016-08-28T12:53:37Z</time></trkpt>
<trkpt lat="46.19542" lon="7.34305"><ele>1363.2</ele><time>2016-08-28T12:53:39Z</time></trkpt>
<trkpt lat="46.19544" lon="7.34309"><ele>1363.2</ele><time>2016-08-28T12:53:41Z</time></trkpt>
<trkpt lat="46.19545" lon="7.34312"><ele>1363.2</ele><time>2016-08-28T12:53:43Z</time></trkpt>
<trkpt lat="46.19546" lon="7.34316"><ele>1363.2</ele><time>2016-08-28T12:53:45Z</time></trkpt>
<trkpt lat="46.19547" lon="7.34319"><ele>1363.2</ele><time>2016-08-28T12:53:47Z</time></trkpt>
<trkpt lat="46.19548" lon="7.34323"><ele>1363.2</ele><time>2016-08-28T12:53:49Z</time></trkpt>
<trkpt lat="46.19549" lon="7.34326"><ele>1363.4</ele><time>2016-08-28T12:53:51Z</time></trkpt>
<trkpt lat="46.19552" lon="7.34331"><ele>1363.4</ele><time>2016-08-28T12:53:53Z</time></trkpt>
<trkpt lat="46.19556" lon="7.34336"><ele>1363.4</ele><time>2016-08-28T12:53:55Z</time></trkpt>
<trkpt lat="46.1956" lon="7.34341"><ele>1363.4</ele><time>2016-08-28T12:53:57Z</time></trkpt>
<trkpt lat="46.19564" lon="7.34346"><ele>1363.4</ele><time>2016-08-28T12:53:59Z</time></trkpt>
<trkpt lat="46.19566" lon="7.34354"><ele>1363.4</ele><time>2016-08-28T12:54:01Z</time></trkpt>
<trkpt lat="46.19568" lon="7.34363"><ele>1363.6</ele><time>2016-08-28T12:54:03Z</time></trkpt>
<trkpt lat="46.19571" lon="7.34373"><ele>1363.6</ele><time>2016-08-28T12:54:05Z</time></trkpt>
<trkpt lat="46.19573" lon="7.34382"><ele>1363.6</ele><time>2016-08-28T12:54:07Z</time></trkpt>
<trkpt lat="46.19575" lon="7.34391"><ele>1363.6</ele><time>2016-08-28T12:54:09Z</time></trkpt>
<trkpt lat="46.19577" lon="7.344"><ele>1363.6</ele><time>2016-08-28T12:54:11Z</time></trkpt>
<trkpt lat="46.1958" lon="7.34409"><ele>1363.6</ele><time>2016-08-28T12:54:13Z</time></trkpt>
<trkpt lat="46.1958" lon="7.34414"><ele>1363.8</ele><time>2016-08-28T12:54:15Z</time></trkpt>
<trkpt lat="46.1958" lon="7.34418"><ele>1363.8</ele><time>2016-08-28T12:54:17Z</time></trkpt>
<trkpt lat="46.1958" lon="7.34422"><ele>1363.8</ele><time>2016-08-28T12:54:19Z</time></trkpt>
<trkpt lat="46.19579" lon="7.34428"><ele>1363.8</ele><time>2016-08-28T12:54:21Z</time></trkpt>
<trkpt lat="46.19577" lon="7.34433"><ele>1363.8</ele><time>2016-08-28T12:54:23Z</time></trkpt>
<trkpt lat="46.19576" lon="7.34439"><ele>1363.8</ele><time>2016-08-28T12:54:25Z</time></trkpt>
<trkpt lat="46.19575" lon="7.34444"><ele>1363.8</ele><time>2016-08-28T12:54:27Z</time></trkpt>
<trkpt lat="46.19574" lon="7.34447"><ele>1364</ele><time>2016-08-28T12:54:28Z</time></trkpt>
<trkpt lat="46.19574" lon="7.3445"><ele>1364</ele><time>2016-08-28T12:54:29Z</time></trkpt>
<trkpt lat="46.19572" lon="7.34455"><ele>1364.6</ele><time>2016-08-28T12:54:31Z</time></trkpt>
<trkpt lat="46.19571" lon="7.34461"><ele>1365</ele><time>2016-08-28T12:54:33Z</time></trkpt>
<trkpt lat="46.1957" lon="7.34467"><ele>1365.4</ele><time>2016-08-28T12:54:35Z</time></trkpt>
<trkpt lat="46.19568" lon="7.34472"><ele>1365.8</ele><time>2016-08-28T12:54:37Z</time></trkpt>
<trkpt lat="46.19567" lon="7.34478"><ele>1366.2</ele><time>2016-08-28T12:54:39Z</time></trkpt>
<trkpt lat="46.19566" lon="7.34483"><ele>1366.6</ele><time>2016-08-28T12:54:41Z</time></trkpt>
<trkpt lat="46.19565" lon="7.34486"><ele>1366.8</ele><time>2016-08-28T12:54:42Z</time></trkpt>
<trkpt lat="46.19565" lon="7.34488"><ele>1367</ele><time>2016-08-28T12:54:43Z</time></trkpt>
<trkpt lat="46.19564" lon="7.34494"><ele>1367.6</ele><time>2016-08-28T12:54:45Z</time></trkpt>
<trkpt lat="46.19564" lon="7.34497"><ele>1367.8</ele><time>2016-08-28T12:54:46Z</time></trkpt>
<trkpt lat="46.19563" lon="7.34499"><ele>1368</ele><time>2016-08-28T12:54:47Z</time></trkpt>
<trkpt lat="46.19563" lon="7.34505"><ele>1368.2</ele><time>2016-08-28T12:54:49Z</time></trkpt>
<trkpt lat="46.19562" lon="7.3451"><ele>1368.6</ele><time>2016-08-28T12:54:51Z</time></trkpt>
<trkpt lat="46.19561" lon="7.34515"><ele>1369</ele><time>2016-08-28T12:54:53Z</time></trkpt>
<trkpt lat="46.1956" lon="7.34521"><ele>1369.4</ele><time>2016-08-28T12:54:55Z</time></trkpt>
<trkpt lat="46.19559" lon="7.34526"><ele>1369.8</ele><time>2016-08-28T12:54:57Z</time></trkpt>
<trkpt lat="46.19559" lon="7.34531"><ele>1370.2</ele><time>2016-08-28T12:54:59Z</time></trkpt>
<trkpt lat="46.19558" lon="7.34537"><ele>1370.4</ele><time>2016-08-28T12:55:01Z</time></trkpt>
<trkpt lat="46.19557" lon="7.34542"><ele>1370.8</ele><time>2016-08-28T12:55:03Z</time></trkpt>
<trkpt lat="46.19556" lon="7.34547"><ele>1371.2</ele><time>2016-08-28T12:55:05Z</time></trkpt>
<trkpt lat="46.19556" lon="7.3455"><ele>1371.4</ele><time>2016-08-28T12:55:06Z</time></trkpt>
<trkpt lat="46.19556" lon="7.34553"><ele>1371.6</ele><time>2016-08-28T12:55:07Z</time></trkpt>
<trkpt lat="46.19556" lon="7.34558"><ele>1372</ele><time>2016-08-28T12:55:09Z</time></trkpt>
<trkpt lat="46.19557" lon="7.34563"><ele>1372.4</ele><time>2016-08-28T12:55:11Z</time></trkpt>
<trkpt lat="46.19557" lon="7.34569"><ele>1372.8</ele><time>2016-08-28T12:55:13Z</time></trkpt>
<trkpt lat="46.19557" lon="7.34574"><ele>1373.2</ele><time>2016-08-28T12:55:15Z</time></trkpt>
<trkpt lat="46.19557" lon="7.34579"><ele>1373.4</ele><time>2016-08-28T12:55:17Z</time></trkpt>
<trkpt lat="46.19558" lon="7.34584"><ele>1373.8</ele><time>2016-08-28T12:55:19Z</time></trkpt>
<trkpt lat="46.19558" lon="7.3459"><ele>1374.2</ele><time>2016-08-28T12:55:21Z</time></trkpt>
<trkpt lat="46.19558" lon="7.34595"><ele>1374.6</ele><time>2016-08-28T12:55:23Z</time></trkpt>
<trkpt lat="46.19558" lon="7.346"><ele>1375</ele><time>2016-08-28T12:55:25Z</time></trkpt>
<trkpt lat="46.19559" lon="7.34606"><ele>1375.4</ele><time>2016-08-28T12:55:27Z</time></trkpt>
<trkpt lat="46.19559" lon="7.34611"><ele>1375.8</ele><time>2016-08-28T12:55:29Z</time></trkpt>
<trkpt lat="46.19559" lon="7.34616"><ele>1376.2</ele><time>2016-08-28T12:55:31Z</time></trkpt>
<trkpt lat="46.19559" lon="7.34622"><ele>1376.6</ele><time>2016-08-28T12:55:33Z</time></trkpt>
<trkpt lat="46.19559" lon="7.34628"><ele>1377</ele><time>2016-08-28T12:55:35Z</time></trkpt>
<trkpt lat="46.19559" lon="7.34634"><ele>1377.4</ele><time>2016-08-28T12:55:37Z</time></trkpt>
<trkpt lat="46.19559" lon="7.34639"><ele>1377.6</ele><time>2016-08-28T12:55:39Z</time></trkpt>
<trkpt lat="46.19559" lon="7.34645"><ele>1378</ele><time>2016-08-28T12:55:41Z</time></trkpt>
<trkpt lat="46.19559" lon="7.34648"><ele>1378.2</ele><time>2016-08-28T12:55:42Z</time></trkpt>
<trkpt lat="46.19558" lon="7.34651"><ele>1378.4</ele><time>2016-08-28T12:55:43Z</time></trkpt>
<trkpt lat="46.19558" lon="7.34657"><ele>1378.8</ele><time>2016-08-28T12:55:45Z</time></trkpt>
<trkpt lat="46.19558" lon="7.34663"><ele>1379.2</ele><time>2016-08-28T12:55:47Z</time></trkpt>
<trkpt lat="46.19558" lon="7.34668"><ele>1379.6</ele><time>2016-08-28T12:55:49Z</time></trkpt>
<trkpt lat="46.19558" lon="7.34674"><ele>1380</ele><time>2016-08-28T12:55:51Z</time></trkpt>
<trkpt lat="46.19558" lon="7.3468"><ele>1380.2</ele><time>2016-08-28T12:55:53Z</time></trkpt>
<trkpt lat="46.19558" lon="7.34683"><ele>1380.4</ele><time>2016-08-28T12:55:54Z</time></trkpt>
<trkpt lat="46.19558" lon="7.34685"><ele>1380.6</ele><time>2016-08-28T12:55:55Z</time></trkpt>
<trkpt lat="46.19559" lon="7.3469"><ele>1381</ele><time>2016-08-28T12:55:57Z</time></trkpt>
<trkpt lat="46.1956" lon="7.34695"><ele>1381.4</ele><time>2016-08-28T12:55:59Z</time></trkpt>
<trkpt lat="46.19561" lon="7.347"><ele>1381.6</ele><time>2016-08-28T12:56:01Z</time></trkpt>
<trkpt lat="46.19561" lon="7.34705"><ele>1381.8</ele><time>2016-08-28T12:56:03Z</time></trkpt>
<trkpt lat="46.19562" lon="7.3471"><ele>1382</ele><time>2016-08-28T12:56:05Z</time></trkpt>
<trkpt lat="46.19563" lon="7.34715"><ele>1382.2</ele><time>2016-08-28T12:56:07Z</time></trkpt>
<trkpt lat="46.19563" lon="7.3472"><ele>1382.4</ele><time>2016-08-28T12:56:09Z</time></trkpt>
<trkpt lat="46.19564" lon="7.34725"><ele>1382.6</ele><time>2016-08-28T12:56:11Z</time></trkpt>
<trkpt lat="46.19565" lon="7.3473"><ele>1382.8</ele><time>2016-08-28T12:56:13Z</time></trkpt>
<trkpt lat="46.19566" lon="7.34735"><ele>1383</ele><time>2016-08-28T12:56:15Z</time></trkpt>
<trkpt lat="46.19566" lon="7.3474"><ele>1383.2</ele><time>2016-08-28T12:56:17Z</time></trkpt>
<trkpt lat="46.19567" lon="7.34745"><ele>1383.2</ele><time>2016-08-28T12:56:19Z</time></trkpt>
<trkpt lat="46.19568" lon="7.34747"><ele>1383.4</ele><time>2016-08-28T12:56:20Z</time></trkpt>
<trkpt lat="46.1957" lon="7.34754"><ele>1383.4</ele><time>2016-08-28T12:56:21Z</time></trkpt>
<trkpt lat="46.19573" lon="7.34762"><ele>1383.6</ele><time>2016-08-28T12:56:22Z</time></trkpt>
<trkpt lat="46.19576" lon="7.3477"><ele>1383</ele><time>2016-08-28T12:56:23Z</time></trkpt>
<trkpt lat="46.19582" lon="7.34786"><ele>1381.4</ele><time>2016-08-28T12:56:25Z</time></trkpt>
<trkpt lat="46.19588" lon="7.34802"><ele>1379.8</ele><time>2016-08-28T12:56:27Z</time></trkpt>
<trkpt lat="46.19591" lon="7.34808"><ele>1379</ele><time>2016-08-28T12:56:28Z</time></trkpt>
<trkpt lat="46.19595" lon="7.34813"><ele>1377.6</ele><time>2016-08-28T12:56:29Z</time></trkpt>
<trkpt lat="46.19599" lon="7.34818"><ele>1376.2</ele><time>2016-08-28T12:56:30Z</time></trkpt>
<trkpt lat="46.19601" lon="7.34825"><ele>1374.8</ele><time>2016-08-28T12:56:31Z</time></trkpt>
<trkpt lat="46.19604" lon="7.3484"><ele>1372</ele><time>2016-08-28T12:56:33Z</time></trkpt>
<trkpt lat="46.19606" lon="7.34847"><ele>1371.2</ele><time>2016-08-28T12:56:34Z</time></trkpt>
<trkpt lat="46.19609" lon="7.34851"><ele>1370.6</ele><time>2016-08-28T12:56:35Z</time></trkpt>
<trkpt lat="46.19615" lon="7.34857"><ele>1369.4</ele><time>2016-08-28T12:56:37Z</time></trkpt>
<trkpt lat="46.1962" lon="7.34863"><ele>1368.2</ele><time>2016-08-28T12:56:39Z</time></trkpt>
<trkpt lat="46.19626" lon="7.34869"><ele>1366</ele><time>2016-08-28T12:56:41Z</time></trkpt>
<trkpt lat="46.19631" lon="7.34869"><ele>1363.8</ele><time>2016-08-28T12:56:43Z</time></trkpt>
<trkpt lat="46.19636" lon="7.34869"><ele>1361.4</ele><time>2016-08-28T12:56:45Z</time></trkpt>
<trkpt lat="46.19641" lon="7.3487"><ele>1359.8</ele><time>2016-08-28T12:56:47Z</time></trkpt>
<trkpt lat="46.19645" lon="7.34878"><ele>1358.4</ele><time>2016-08-28T12:56:49Z</time></trkpt>
<trkpt lat="46.19646" lon="7.34892"><ele>1356.8</ele><time>2016-08-28T12:56:51Z</time></trkpt>
<trkpt lat="46.19648" lon="7.34906"><ele>1356.6</ele><time>2016-08-28T12:56:53Z</time></trkpt>
<trkpt lat="46.19649" lon="7.34921"><ele>1356.6</ele><time>2016-08-28T12:56:55Z</time></trkpt>
<trkpt lat="46.1965" lon="7.34935"><ele>1356.6</ele><time>2016-08-28T12:56:57Z</time></trkpt>
<trkpt lat="46.19652" lon="7.34945"><ele>1356.4</ele><time>2016-08-28T12:56:59Z</time></trkpt>
<trkpt lat="46.19654" lon="7.34954"><ele>1356.4</ele><time>2016-08-28T12:57:01Z</time></trkpt>
<trkpt lat="46.19656" lon="7.34963"><ele>1356.4</ele><time>2016-08-28T12:57:03Z</time></trkpt>
<trkpt lat="46.19657" lon="7.34973"><ele>1356.2</ele><time>2016-08-28T12:57:05Z</time></trkpt>
<trkpt lat="46.19659" lon="7.34982"><ele>1356.2</ele><time>2016-08-28T12:57:07Z</time></trkpt>
<trkpt lat="46.1966" lon="7.34987"><ele>1356.2</ele><time>2016-08-28T12:57:08Z</time></trkpt>
<trkpt lat="46.19661" lon="7.34992"><ele>1356</ele><time>2016-08-28T12:57:09Z</time></trkpt>
<trkpt lat="46.19663" lon="7.35001"><ele>1355.6</ele><time>2016-08-28T12:57:11Z</time></trkpt>
<trkpt lat="46.19667" lon="7.35007"><ele>1355.4</ele><time>2016-08-28T12:57:13Z</time></trkpt>
<trkpt lat="46.19669" lon="7.3501"><ele>1355.2</ele><time>2016-08-28T12:57:14Z</time></trkpt>
<trkpt lat="46.19671" lon="7.35013"><ele>1355</ele><time>2016-08-28T12:57:15Z</time></trkpt>
<trkpt lat="46.19675" lon="7.35019"><ele>1354.6</ele><time>2016-08-28T12:57:17Z</time></trkpt>
<trkpt lat="46.19679" lon="7.35025"><ele>1354.2</ele><time>2016-08-28T12:57:19Z</time></trkpt>
<trkpt lat="46.19683" lon="7.35031"><ele>1353.8</ele><time>2016-08-28T12:57:21Z</time></trkpt>
<trkpt lat="46.19687" lon="7.35037"><ele>1353.4</ele><time>2016-08-28T12:57:23Z</time></trkpt>
<trkpt lat="46.19692" lon="7.35043"><ele>1353</ele><time>2016-08-28T12:57:25Z</time></trkpt>
<trkpt lat="46.19696" lon="7.35049"><ele>1352.6</ele><time>2016-08-28T12:57:27Z</time></trkpt>
<trkpt lat="46.197" lon="7.35053"><ele>1352.2</ele><time>2016-08-28T12:57:29Z</time></trkpt>
<trkpt lat="46.19704" lon="7.35057"><ele>1351.8</ele><time>2016-08-28T12:57:31Z</time></trkpt>
<trkpt lat="46.19708" lon="7.35061"><ele>1351.4</ele><time>2016-08-28T12:57:33Z</time></trkpt>
<trkpt lat="46.19712" lon="7.35066"><ele>1351</ele><time>2016-08-28T12:57:35Z</time></trkpt>
<trkpt lat="46.19716" lon="7.3507"><ele>1350.6</ele><time>2016-08-28T12:57:37Z</time></trkpt>
<trkpt lat="46.1972" lon="7.35074"><ele>1350.2</ele><time>2016-08-28T12:57:39Z</time></trkpt>
<trkpt lat="46.19724" lon="7.35078"><ele>1349.8</ele><time>2016-08-28T12:57:41Z</time></trkpt>
<trkpt lat="46.19728" lon="7.35082"><ele>1349.4</ele><time>2016-08-28T12:57:43Z</time></trkpt>
<trkpt lat="46.19732" lon="7.35087"><ele>1349</ele><time>2016-08-28T12:57:45Z</time></trkpt>
<trkpt lat="46.19736" lon="7.3509"><ele>1348.6</ele><time>2016-08-28T12:57:47Z</time></trkpt>
<trkpt lat="46.1974" lon="7.35093"><ele>1347.6</ele><time>2016-08-28T12:57:49Z</time></trkpt>
<trkpt lat="46.19743" lon="7.35097"><ele>1346.4</ele><time>2016-08-28T12:57:51Z</time></trkpt>
<trkpt lat="46.19747" lon="7.351"><ele>1345.4</ele><time>2016-08-28T12:57:53Z</time></trkpt>
<trkpt lat="46.19751" lon="7.35103"><ele>1344.4</ele><time>2016-08-28T12:57:55Z</time></trkpt>
<trkpt lat="46.19754" lon="7.35107"><ele>1343.4</ele><time>2016-08-28T12:57:57Z</time></trkpt>
<trkpt lat="46.19756" lon="7.35102"><ele>1342.2</ele><time>2016-08-28T12:57:59Z</time></trkpt>
<trkpt lat="46.19758" lon="7.35096"><ele>1341</ele><time>2016-08-28T12:58:01Z</time></trkpt>
<trkpt lat="46.19759" lon="7.35091"><ele>1339.8</ele><time>2016-08-28T12:58:03Z</time></trkpt>
<trkpt lat="46.19759" lon="7.35085"><ele>1339.2</ele><time>2016-08-28T12:58:04Z</time></trkpt>
<trkpt lat="46.19758" lon="7.35079"><ele>1338.6</ele><time>2016-08-28T12:58:05Z</time></trkpt>
<trkpt lat="46.19757" lon="7.35066"><ele>1337.6</ele><time>2016-08-28T12:58:07Z</time></trkpt>
<trkpt lat="46.19756" lon="7.35053"><ele>1336.6</ele><time>2016-08-28T12:58:09Z</time></trkpt>
<trkpt lat="46.19755" lon="7.35047"><ele>1336</ele><time>2016-08-28T12:58:10Z</time></trkpt>
<trkpt lat="46.19753" lon="7.35042"><ele>1335.8</ele><time>2016-08-28T12:58:11Z</time></trkpt>
<trkpt lat="46.19752" lon="7.35038"><ele>1335.4</ele><time>2016-08-28T12:58:12Z</time></trkpt>
<trkpt lat="46.19751" lon="7.35037"><ele>1335.2</ele><time>2016-08-28T12:58:13Z</time></trkpt>
<trkpt lat="46.19752" lon="7.35036"><ele>1334.6</ele><time>2016-08-28T12:58:15Z</time></trkpt>
<trkpt lat="46.19752" lon="7.35035"><ele>1334</ele><time>2016-08-28T12:58:17Z</time></trkpt>
<trkpt lat="46.19753" lon="7.35034"><ele>1333.4</ele><time>2016-08-28T12:58:19Z</time></trkpt>
<trkpt lat="46.19753" lon="7.35033"><ele>1332.8</ele><time>2016-08-28T12:58:21Z</time></trkpt>
<trkpt lat="46.19754" lon="7.35033"><ele>1332.6</ele><time>2016-08-28T12:58:23Z</time></trkpt>
<trkpt lat="46.19754" lon="7.35032"><ele>1332.6</ele><time>2016-08-28T12:58:25Z</time></trkpt>
<trkpt lat="46.19754" lon="7.35031"><ele>1332.6</ele><time>2016-08-28T12:58:27Z</time></trkpt>
<trkpt lat="46.19755" lon="7.3503"><ele>1332.4</ele><time>2016-08-28T12:58:29Z</time></trkpt>
<trkpt lat="46.19755" lon="7.35029"><ele>1332.4</ele><time>2016-08-28T12:58:31Z</time></trkpt>
<trkpt lat="46.19755" lon="7.35029"><ele>1332.4</ele><time>2016-08-28T12:58:32Z</time></trkpt>
<trkpt lat="46.19756" lon="7.35028"><ele>1331.8</ele><time>2016-08-28T12:58:33Z</time></trkpt>
<trkpt lat="46.19756" lon="7.35028"><ele>1331.2</ele><time>2016-08-28T12:58:34Z</time></trkpt>
<trkpt lat="46.19756" lon="7.35025"><ele>1330.4</ele><time>2016-08-28T12:58:35Z</time></trkpt>
<trkpt lat="46.19756" lon="7.35017"><ele>1329.2</ele><time>2016-08-28T12:58:37Z</time></trkpt>
<trkpt lat="46.19757" lon="7.3501"><ele>1328</ele><time>2016-08-28T12:58:39Z</time></trkpt>
<trkpt lat="46.19757" lon="7.35003"><ele>1326.8</ele><time>2016-08-28T12:58:41Z</time></trkpt>
<trkpt lat="46.19757" lon="7.34996"><ele>1325.4</ele><time>2016-08-28T12:58:43Z</time></trkpt>
<trkpt lat="46.19757" lon="7.34992"><ele>1324.8</ele><time>2016-08-28T12:58:44Z</time></trkpt>
<trkpt lat="46.1976" lon="7.34995"><ele>1324.2</ele><time>2016-08-28T12:58:45Z</time></trkpt>
<trkpt lat="46.19765" lon="7.35001"><ele>1323</ele><time>2016-08-28T12:58:47Z</time></trkpt>
<trkpt lat="46.19771" lon="7.35008"><ele>1321.8</ele><time>2016-08-28T12:58:49Z</time></trkpt>
<trkpt lat="46.19774" lon="7.35011"><ele>1321.2</ele><time>2016-08-28T12:58:50Z</time></trkpt>
<trkpt lat="46.19775" lon="7.35016"><ele>1320.6</ele><time>2016-08-28T12:58:51Z</time></trkpt>
<trkpt lat="46.19779" lon="7.35027"><ele>1319.4</ele><time>2016-08-28T12:58:53Z</time></trkpt>
<trkpt lat="46.19781" lon="7.35032"><ele>1318.8</ele><time>2016-08-28T12:58:54Z</time></trkpt>
<trkpt lat="46.19782" lon="7.35037"><ele>1318</ele><time>2016-08-28T12:58:55Z</time></trkpt>
<trkpt lat="46.19786" lon="7.35048"><ele>1316.4</ele><time>2016-08-28T12:58:57Z</time></trkpt>
<trkpt lat="46.19788" lon="7.35053"><ele>1315.6</ele><time>2016-08-28T12:58:58Z</time></trkpt>
<trkpt lat="46.19791" lon="7.35057"><ele>1314.8</ele><time>2016-08-28T12:58:59Z</time></trkpt>
<trkpt lat="46.19794" lon="7.35061"><ele>1314</ele><time>2016-08-28T12:59:00Z</time></trkpt>
<trkpt lat="46.19798" lon="7.35065"><ele>1313.4</ele><time>2016-08-28T12:59:01Z</time></trkpt>
<trkpt lat="46.19804" lon="7.35073"><ele>1312.2</ele><time>2016-08-28T12:59:03Z</time></trkpt>
<trkpt lat="46.1981" lon="7.35089"><ele>1311</ele><time>2016-08-28T12:59:05Z</time></trkpt>
<trkpt lat="46.19816" lon="7.35105"><ele>1309.8</ele><time>2016-08-28T12:59:07Z</time></trkpt>
<trkpt lat="46.19822" lon="7.35121"><ele>1308.6</ele><time>2016-08-28T12:59:09Z</time></trkpt>
<trkpt lat="46.19828" lon="7.35137"><ele>1307.4</ele><time>2016-08-28T12:59:11Z</time></trkpt>
<trkpt lat="46.19835" lon="7.35157"><ele>1306.4</ele><time>2016-08-28T12:59:12Z</time></trkpt>
<trkpt lat="46.19841" lon="7.35168"><ele>1305.4</ele><time>2016-08-28T12:59:13Z</time></trkpt>
<trkpt lat="46.19853" lon="7.35186"><ele>1303</ele><time>2016-08-28T12:59:15Z</time></trkpt>
<trkpt lat="46.19859" lon="7.35195"><ele>1302</ele><time>2016-08-28T12:59:16Z</time></trkpt>
<trkpt lat="46.19865" lon="7.35204"><ele>1301</ele><time>2016-08-28T12:59:17Z</time></trkpt>
<trkpt lat="46.19872" lon="7.3522"><ele>1299.6</ele><time>2016-08-28T12:59:19Z</time></trkpt>
<trkpt lat="46.19878" lon="7.35236"><ele>1298</ele><time>2016-08-28T12:59:21Z</time></trkpt>
<trkpt lat="46.19884" lon="7.3524"><ele>1297.2</ele><time>2016-08-28T12:59:22Z</time></trkpt>
<trkpt lat="46.1989" lon="7.35244"><ele>1296.4</ele><time>2016-08-28T12:59:23Z</time></trkpt>
<trkpt lat="46.19902" lon="7.35251"><ele>1294.6</ele><time>2016-08-28T12:59:25Z</time></trkpt>
<trkpt lat="46.19914" lon="7.35259"><ele>1293</ele><time>2016-08-28T12:59:27Z</time></trkpt>
<trkpt lat="46.19923" lon="7.35275"><ele>1291.4</ele><time>2016-08-28T12:59:29Z</time></trkpt>
<trkpt lat="46.19932" lon="7.35292"><ele>1289.8</ele><time>2016-08-28T12:59:31Z</time></trkpt>
<trkpt lat="46.19943" lon="7.35306"><ele>1288.2</ele><time>2016-08-28T12:59:33Z</time></trkpt>
<trkpt lat="46.19949" lon="7.35313"><ele>1287</ele><time>2016-08-28T12:59:34Z</time></trkpt>
<trkpt lat="46.19955" lon="7.35318"><ele>1285.8</ele><time>2016-08-28T12:59:35Z</time></trkpt>
<trkpt lat="46.1996" lon="7.35322"><ele>1284.6</ele><time>2016-08-28T12:59:36Z</time></trkpt>
<trkpt lat="46.19966" lon="7.35323"><ele>1283.4</ele><time>2016-08-28T12:59:37Z</time></trkpt>
<trkpt lat="46.19978" lon="7.35324"><ele>1281</ele><time>2016-08-28T12:59:39Z</time></trkpt>
<trkpt lat="46.19984" lon="7.35325"><ele>1280.2</ele><time>2016-08-28T12:59:40Z</time></trkpt>
<trkpt lat="46.19992" lon="7.35329"><ele>1279.4</ele><time>2016-08-28T12:59:41Z</time></trkpt>
<trkpt lat="46.20001" lon="7.35341"><ele>1278</ele><time>2016-08-28T12:59:43Z</time></trkpt>
<trkpt lat="46.20002" lon="7.35358"><ele>1276.4</ele><time>2016-08-28T12:59:45Z</time></trkpt>
<trkpt lat="46.20003" lon="7.35375"><ele>1275</ele><time>2016-08-28T12:59:47Z</time></trkpt>
<trkpt lat="46.20004" lon="7.35393"><ele>1273.4</ele><time>2016-08-28T12:59:49Z</time></trkpt>
<trkpt lat="46.20004" lon="7.35401"><ele>1272.8</ele><time>2016-08-28T12:59:50Z</time></trkpt>
<trkpt lat="46.20005" lon="7.3541"><ele>1271.8</ele><time>2016-08-28T12:59:51Z</time></trkpt>
<trkpt lat="46.20005" lon="7.35415"><ele>1270.2</ele><time>2016-08-28T12:59:53Z</time></trkpt>
<trkpt lat="46.20005" lon="7.3542"><ele>1268.4</ele><time>2016-08-28T12:59:55Z</time></trkpt>
<trkpt lat="46.20006" lon="7.35424"><ele>1267.8</ele><time>2016-08-28T12:59:57Z</time></trkpt>
<trkpt lat="46.20006" lon="7.35429"><ele>1267.2</ele><time>2016-08-28T12:59:59Z</time></trkpt>
<trkpt lat="46.20008" lon="7.35426"><ele>1266.8</ele><time>2016-08-28T13:00:01Z</time></trkpt>
<trkpt lat="46.2001" lon="7.35423"><ele>1266.2</ele><time>2016-08-28T13:00:03Z</time></trkpt>
<trkpt lat="46.20011" lon="7.3542"><ele>1265.6</ele><time>2016-08-28T13:00:05Z</time></trkpt>
<trkpt lat="46.20013" lon="7.35417"><ele>1265.2</ele><time>2016-08-28T13:00:07Z</time></trkpt>
<trkpt lat="46.20014" lon="7.35415"><ele>1264.8</ele><time>2016-08-28T13:00:08Z</time></trkpt>
<trkpt lat="46.20014" lon="7.35409"><ele>1264.6</ele><time>2016-08-28T13:00:09Z</time></trkpt>
<trkpt lat="46.20014" lon="7.35402"><ele>1264.4</ele><time>2016-08-28T13:00:10Z</time></trkpt>
<trkpt lat="46.20017" lon="7.35396"><ele>1264</ele><time>2016-08-28T13:00:11Z</time></trkpt>
<trkpt lat="46.2002" lon="7.3539"><ele>1263.8</ele><time>2016-08-28T13:00:12Z</time></trkpt>
<trkpt lat="46.20023" lon="7.35384"><ele>1263.2</ele><time>2016-08-28T13:00:13Z</time></trkpt>
<trkpt lat="46.20027" lon="7.35369"><ele>1262.2</ele><time>2016-08-28T13:00:15Z</time></trkpt>
<trkpt lat="46.2003" lon="7.35353"><ele>1261</ele><time>2016-08-28T13:00:17Z</time></trkpt>
<trkpt lat="46.20032" lon="7.35346"><ele>1260.4</ele><time>2016-08-28T13:00:18Z</time></trkpt>
<trkpt lat="46.20034" lon="7.35338"><ele>1259.4</ele><time>2016-08-28T13:00:19Z</time></trkpt>
<trkpt lat="46.20035" lon="7.35324"><ele>1258.4</ele><time>2016-08-28T13:00:20Z</time></trkpt>
<trkpt lat="46.20034" lon="7.35319"><ele>1257.4</ele><time>2016-08-28T13:00:21Z</time></trkpt>
<trkpt lat="46.20033" lon="7.35317"><ele>1256.4</ele><time>2016-08-28T13:00:22Z</time></trkpt>
<trkpt lat="46.20034" lon="7.35316"><ele>1255.4</ele><time>2016-08-28T13:00:23Z</time></trkpt>
<trkpt lat="46.20036" lon="7.35316"><ele>1254.8</ele><time>2016-08-28T13:00:24Z</time></trkpt>
<trkpt lat="46.20041" lon="7.3532"><ele>1254</ele><time>2016-08-28T13:00:25Z</time></trkpt>
<trkpt lat="46.2005" lon="7.3533"><ele>1252.6</ele><time>2016-08-28T13:00:27Z</time></trkpt>
<trkpt lat="46.20059" lon="7.3534"><ele>1251.2</ele><time>2016-08-28T13:00:29Z</time></trkpt>
<trkpt lat="46.20064" lon="7.35345"><ele>1250.4</ele><time>2016-08-28T13:00:30Z</time></trkpt>
<trkpt lat="46.20065" lon="7.35351"><ele>1249.6</ele><time>2016-08-28T13:00:31Z</time></trkpt>
<trkpt lat="46.20065" lon="7.35364"><ele>1247.8</ele><time>2016-08-28T13:00:33Z</time></trkpt>
<trkpt lat="46.20066" lon="7.35376"><ele>1246.2</ele><time>2016-08-28T13:00:35Z</time></trkpt>
<trkpt lat="46.20066" lon="7.35383"><ele>1245.4</ele><time>2016-08-28T13:00:36Z</time></trkpt>
<trkpt lat="46.20069" lon="7.3539"><ele>1244.4</ele><time>2016-08-28T13:00:37Z</time></trkpt>
<trkpt lat="46.20074" lon="7.35405"><ele>1242.8</ele><time>2016-08-28T13:00:39Z</time></trkpt>
<trkpt lat="46.20077" lon="7.35413"><ele>1242</ele><time>2016-08-28T13:00:40Z</time></trkpt>
<trkpt lat="46.20081" lon="7.35416"><ele>1241.2</ele><time>2016-08-28T13:00:41Z</time></trkpt>
<trkpt lat="46.20089" lon="7.35422"><ele>1240.4</ele><time>2016-08-28T13:00:43Z</time></trkpt>
<trkpt lat="46.20098" lon="7.35427"><ele>1239.8</ele><time>2016-08-28T13:00:45Z</time></trkpt>
<trkpt lat="46.20106" lon="7.35432"><ele>1239</ele><time>2016-08-28T13:00:47Z</time></trkpt>
<trkpt lat="46.20114" lon="7.35437"><ele>1238.4</ele><time>2016-08-28T13:00:49Z</time></trkpt>
<trkpt lat="46.20121" lon="7.35449"><ele>1237.8</ele><time>2016-08-28T13:00:51Z</time></trkpt>
<trkpt lat="46.20124" lon="7.35456"><ele>1237.4</ele><time>2016-08-28T13:00:52Z</time></trkpt>
<trkpt lat="46.20129" lon="7.35459"><ele>1237.2</ele><time>2016-08-28T13:00:53Z</time></trkpt>
<trkpt lat="46.20141" lon="7.35464"><ele>1236.4</ele><time>2016-08-28T13:00:55Z</time></trkpt>
<trkpt lat="46.20151" lon="7.35461"><ele>1235.8</ele><time>2016-08-28T13:00:57Z</time></trkpt>
<trkpt lat="46.20162" lon="7.35457"><ele>1235.2</ele><time>2016-08-28T13:00:59Z</time></trkpt>
<trkpt lat="46.20172" lon="7.35453"><ele>1234.6</ele><time>2016-08-28T13:01:01Z</time></trkpt>
<trkpt lat="46.20177" lon="7.35452"><ele>1234.2</ele><time>2016-08-28T13:01:02Z</time></trkpt>
<trkpt lat="46.20182" lon="7.35456"><ele>1233.4</ele><time>2016-08-28T13:01:03Z</time></trkpt>
<trkpt lat="46.20191" lon="7.35467"><ele>1231.4</ele><time>2016-08-28T13:01:05Z</time></trkpt>
<trkpt lat="46.202" lon="7.35478"><ele>1229.4</ele><time>2016-08-28T13:01:07Z</time></trkpt>
<trkpt lat="46.20205" lon="7.35484"><ele>1228.4</ele><time>2016-08-28T13:01:08Z</time></trkpt>
<trkpt lat="46.20209" lon="7.35489"><ele>1227.2</ele><time>2016-08-28T13:01:09Z</time></trkpt>
<trkpt lat="46.20214" lon="7.35495"><ele>1225.8</ele><time>2016-08-28T13:01:10Z</time></trkpt>
<trkpt lat="46.20217" lon="7.35502"><ele>1224.6</ele><time>2016-08-28T13:01:11Z</time></trkpt>
<trkpt lat="46.20223" lon="7.35516"><ele>1221.8</ele><time>2016-08-28T13:01:13Z</time></trkpt>
<trkpt lat="46.20226" lon="7.35522"><ele>1220.6</ele><time>2016-08-28T13:01:14Z</time></trkpt>
<trkpt lat="46.20229" lon="7.35529"><ele>1219.6</ele><time>2016-08-28T13:01:15Z</time></trkpt>
<trkpt lat="46.20235" lon="7.35543"><ele>1217.4</ele><time>2016-08-28T13:01:17Z</time></trkpt>
<trkpt lat="46.20238" lon="7.3555"><ele>1216.4</ele><time>2016-08-28T13:01:18Z</time></trkpt>
<trkpt lat="46.2024" lon="7.35556"><ele>1215.4</ele><time>2016-08-28T13:01:19Z</time></trkpt>
<trkpt lat="46.20244" lon="7.35566"><ele>1213.6</ele><time>2016-08-28T13:01:21Z</time></trkpt>
<trkpt lat="46.20248" lon="7.35577"><ele>1211.8</ele><time>2016-08-28T13:01:23Z</time></trkpt>
<trkpt lat="46.2025" lon="7.35582"><ele>1210.8</ele><time>2016-08-28T13:01:24Z</time></trkpt>
<trkpt lat="46.20252" lon="7.35588"><ele>1209.8</ele><time>2016-08-28T13:01:25Z</time></trkpt>
<trkpt lat="46.20256" lon="7.35598"><ele>1207.8</ele><time>2016-08-28T13:01:27Z</time></trkpt>
<trkpt lat="46.20258" lon="7.35603"><ele>1206.8</ele><time>2016-08-28T13:01:28Z</time></trkpt>
<trkpt lat="46.20258" lon="7.35601"><ele>1205.8</ele><time>2016-08-28T13:01:29Z</time></trkpt>
<trkpt lat="46.20257" lon="7.35593"><ele>1205.6</ele><time>2016-08-28T13:01:31Z</time></trkpt>
<trkpt lat="46.20256" lon="7.35586"><ele>1205.6</ele><time>2016-08-28T13:01:33Z</time></trkpt>
<trkpt lat="46.20255" lon="7.35578"><ele>1205.6</ele><time>2016-08-28T13:01:35Z</time></trkpt>
<trkpt lat="46.20254" lon="7.35571"><ele>1205.4</ele><time>2016-08-28T13:01:37Z</time></trkpt>
<trkpt lat="46.20253" lon="7.35563"><ele>1205.4</ele><time>2016-08-28T13:01:39Z</time></trkpt>
<trkpt lat="46.20252" lon="7.35556"><ele>1205.4</ele><time>2016-08-28T13:01:41Z</time></trkpt>
<trkpt lat="46.20251" lon="7.35548"><ele>1205.2</ele><time>2016-08-28T13:01:43Z</time></trkpt>
<trkpt lat="46.2025" lon="7.35541"><ele>1205.2</ele><time>2016-08-28T13:01:45Z</time></trkpt>
<trkpt lat="46.20248" lon="7.35536"><ele>1205.2</ele><time>2016-08-28T13:01:46Z</time></trkpt>
<trkpt lat="46.20247" lon="7.35532"><ele>1205.2</ele><time>2016-08-28T13:01:47Z</time></trkpt>
<trkpt lat="46.20244" lon="7.35522"><ele>1205.2</ele><time>2016-08-28T13:01:49Z</time></trkpt>
<trkpt lat="46.20242" lon="7.35513"><ele>1205.2</ele><time>2016-08-28T13:01:51Z</time></trkpt>
<trkpt lat="46.2024" lon="7.35509"><ele>1205.2</ele><time>2016-08-28T13:01:52Z</time></trkpt>
<trkpt lat="46.20239" lon="7.35504"><ele>1205.2</ele><time>2016-08-28T13:01:53Z</time></trkpt>
<trkpt lat="46.20236" lon="7.35495"><ele>1205</ele><time>2016-08-28T13:01:55Z</time></trkpt>
<trkpt lat="46.20234" lon="7.35486"><ele>1204.8</ele><time>2016-08-28T13:01:57Z</time></trkpt>
<trkpt lat="46.20231" lon="7.35477"><ele>1204.6</ele><time>2016-08-28T13:01:59Z</time></trkpt>
<trkpt lat="46.20227" lon="7.35469"><ele>1204.4</ele><time>2016-08-28T13:02:01Z</time></trkpt>
<trkpt lat="46.20222" lon="7.35462"><ele>1204.2</ele><time>2016-08-28T13:02:03Z</time></trkpt>
<trkpt lat="46.20218" lon="7.35455"><ele>1204</ele><time>2016-08-28T13:02:05Z</time></trkpt>
<trkpt lat="46.20213" lon="7.35448"><ele>1203.8</ele><time>2016-08-28T13:02:07Z</time></trkpt>
<trkpt lat="46.20209" lon="7.3544"><ele>1203.6</ele><time>2016-08-28T13:02:09Z</time></trkpt>
<trkpt lat="46.20204" lon="7.35433"><ele>1203.4</ele><time>2016-08-28T13:02:11Z</time></trkpt>
<trkpt lat="46.20203" lon="7.35425"><ele>1203.2</ele><time>2016-08-28T13:02:13Z</time></trkpt>
<trkpt lat="46.20202" lon="7.35421"><ele>1203.2</ele><time>2016-08-28T13:02:14Z</time></trkpt>
<trkpt lat="46.20199" lon="7.35418"><ele>1203</ele><time>2016-08-28T13:02:15Z</time></trkpt>
<trkpt lat="46.20192" lon="7.35414"><ele>1202.8</ele><time>2016-08-28T13:02:17Z</time></trkpt>
<trkpt lat="46.20185" lon="7.35409"><ele>1202.6</ele><time>2016-08-28T13:02:19Z</time></trkpt>
<trkpt lat="46.20178" lon="7.35405"><ele>1202.4</ele><time>2016-08-28T13:02:21Z</time></trkpt>
<trkpt lat="46.20171" lon="7.354"><ele>1202.4</ele><time>2016-08-28T13:02:23Z</time></trkpt>
<trkpt lat="46.20164" lon="7.35396"><ele>1202.2</ele><time>2016-08-28T13:02:25Z</time></trkpt>
<trkpt lat="46.20157" lon="7.35391"><ele>1202</ele><time>2016-08-28T13:02:27Z</time></trkpt>
<trkpt lat="46.20149" lon="7.3538"><ele>1201.8</ele><time>2016-08-28T13:02:29Z</time></trkpt>
<trkpt lat="46.20146" lon="7.35374"><ele>1201.6</ele><time>2016-08-28T13:02:30Z</time></trkpt>
<trkpt lat="46.20146" lon="7.35369"><ele>1201.6</ele><time>2016-08-28T13:02:31Z</time></trkpt>
<trkpt lat="46.20146" lon="7.35364"><ele>1201.4</ele><time>2016-08-28T13:02:32Z</time></trkpt>
<trkpt lat="46.20148" lon="7.35358"><ele>1201.4</ele><time>2016-08-28T13:02:33Z</time></trkpt>
<trkpt lat="46.20152" lon="7.35348"><ele>1201.2</ele><time>2016-08-28T13:02:35Z</time></trkpt>
<trkpt lat="46.20154" lon="7.35343"><ele>1201</ele><time>2016-08-28T13:02:36Z</time></trkpt>
<trkpt lat="46.20156" lon="7.35338"><ele>1200.8</ele><time>2016-08-28T13:02:37Z</time></trkpt>
<trkpt lat="46.2016" lon="7.35327"><ele>1200.2</ele><time>2016-08-28T13:02:39Z</time></trkpt>
<trkpt lat="46.20165" lon="7.35317"><ele>1199.6</ele><time>2016-08-28T13:02:41Z</time></trkpt>
<trkpt lat="46.20161" lon="7.35301"><ele>1199</ele><time>2016-08-28T13:02:43Z</time></trkpt>
<trkpt lat="46.20157" lon="7.3529"><ele>1198.2</ele><time>2016-08-28T13:02:45Z</time></trkpt>
<trkpt lat="46.20155" lon="7.35285"><ele>1198</ele><time>2016-08-28T13:02:46Z</time></trkpt>
<trkpt lat="46.20151" lon="7.3528"><ele>1197.6</ele><time>2016-08-28T13:02:47Z</time></trkpt>
<trkpt lat="46.20142" lon="7.3527"><ele>1196.8</ele><time>2016-08-28T13:02:49Z</time></trkpt>
<trkpt lat="46.20133" lon="7.3526"><ele>1196.2</ele><time>2016-08-28T13:02:51Z</time></trkpt>
<trkpt lat="46.20129" lon="7.35255"><ele>1195.8</ele><time>2016-08-28T13:02:52Z</time></trkpt>
<trkpt lat="46.20124" lon="7.3525"><ele>1195.4</ele><time>2016-08-28T13:02:53Z</time></trkpt>
<trkpt lat="46.2012" lon="7.35245"><ele>1195</ele><time>2016-08-28T13:02:54Z</time></trkpt>
<trkpt lat="46.20121" lon="7.35241"><ele>1194.6</ele><time>2016-08-28T13:02:55Z</time></trkpt>
<trkpt lat="46.2012" lon="7.35238"><ele>1194.2</ele><time>2016-08-28T13:02:56Z</time></trkpt>
<trkpt lat="46.20124" lon="7.35239"><ele>1193.8</ele><time>2016-08-28T13:02:57Z</time></trkpt>
<trkpt lat="46.20132" lon="7.35242"><ele>1193</ele><time>2016-08-28T13:02:59Z</time></trkpt>
<trkpt lat="46.2014" lon="7.35245"><ele>1192.2</ele><time>2016-08-28T13:03:01Z</time></trkpt>
<trkpt lat="46.20149" lon="7.35252"><ele>1191.4</ele><time>2016-08-28T13:03:03Z</time></trkpt>
<trkpt lat="46.20159" lon="7.3526"><ele>1189.8</ele><time>2016-08-28T13:03:05Z</time></trkpt>
<trkpt lat="46.20168" lon="7.35267"><ele>1188.2</ele><time>2016-08-28T13:03:07Z</time></trkpt>
<trkpt lat="46.20177" lon="7.35275"><ele>1186.6</ele><time>2016-08-28T13:03:09Z</time></trkpt>
<trkpt lat="46.20182" lon="7.35279"><ele>1186</ele><time>2016-08-28T13:03:10Z</time></trkpt>
<trkpt lat="46.20186" lon="7.35282"><ele>1185.4</ele><time>2016-08-28T13:03:11Z</time></trkpt>
<trkpt lat="46.20192" lon="7.35289"><ele>1184.4</ele><time>2016-08-28T13:03:13Z</time></trkpt>
<trkpt lat="46.20193" lon="7.35299"><ele>1183.4</ele><time>2016-08-28T13:03:15Z</time></trkpt>
<trkpt lat="46.20192" lon="7.3531"><ele>1182.4</ele><time>2016-08-28T13:03:17Z</time></trkpt>
<trkpt lat="46.20192" lon="7.3532"><ele>1181.4</ele><time>2016-08-28T13:03:19Z</time></trkpt>
<trkpt lat="46.20192" lon="7.35326"><ele>1180.6</ele><time>2016-08-28T13:03:20Z</time></trkpt>
<trkpt lat="46.20192" lon="7.35329"><ele>1179.6</ele><time>2016-08-28T13:03:21Z</time></trkpt>
<trkpt lat="46.20192" lon="7.35337"><ele>1177.6</ele><time>2016-08-28T13:03:23Z</time></trkpt>
<trkpt lat="46.20191" lon="7.35344"><ele>1175.8</ele><time>2016-08-28T13:03:25Z</time></trkpt>
<trkpt lat="46.20195" lon="7.35345"><ele>1174.4</ele><time>2016-08-28T13:03:27Z</time></trkpt>
<trkpt lat="46.20197" lon="7.35344"><ele>1173.8</ele><time>2016-08-28T13:03:28Z</time></trkpt>
<trkpt lat="46.20198" lon="7.35343"><ele>1173.2</ele><time>2016-08-28T13:03:29Z</time></trkpt>
<trkpt lat="46.20199" lon="7.35342"><ele>1172.4</ele><time>2016-08-28T13:03:30Z</time></trkpt>
<trkpt lat="46.20199" lon="7.35341"><ele>1171.6</ele><time>2016-08-28T13:03:31Z</time></trkpt>
<trkpt lat="46.20201" lon="7.35338"><ele>1169.8</ele><time>2016-08-28T13:03:33Z</time></trkpt>
<trkpt lat="46.20202" lon="7.35336"><ele>1168.2</ele><time>2016-08-28T13:03:35Z</time></trkpt>
<trkpt lat="46.20203" lon="7.35335"><ele>1167.2</ele><time>2016-08-28T13:03:36Z</time></trkpt>
<trkpt lat="46.20203" lon="7.35333"><ele>1166.8</ele><time>2016-08-28T13:03:37Z</time></trkpt>
<trkpt lat="46.20205" lon="7.35331"><ele>1166.4</ele><time>2016-08-28T13:03:39Z</time></trkpt>
<trkpt lat="46.20206" lon="7.35328"><ele>1165.8</ele><time>2016-08-28T13:03:41Z</time></trkpt>
<trkpt lat="46.20207" lon="7.35326"><ele>1165.2</ele><time>2016-08-28T13:03:43Z</time></trkpt>
<trkpt lat="46.2021" lon="7.3533"><ele>1164.6</ele><time>2016-08-28T13:03:45Z</time></trkpt>
<trkpt lat="46.20212" lon="7.35334"><ele>1164.2</ele><time>2016-08-28T13:03:47Z</time></trkpt>
<trkpt lat="46.20214" lon="7.35327"><ele>1162.8</ele><time>2016-08-28T13:03:49Z</time></trkpt>
<trkpt lat="46.20216" lon="7.35319"><ele>1161.4</ele><time>2016-08-28T13:03:51Z</time></trkpt>
<trkpt lat="46.20217" lon="7.35316"><ele>1160.8</ele><time>2016-08-28T13:03:52Z</time></trkpt>
<trkpt lat="46.2022" lon="7.35316"><ele>1160</ele><time>2016-08-28T13:03:53Z</time></trkpt>
<trkpt lat="46.20224" lon="7.35318"><ele>1158.6</ele><time>2016-08-28T13:03:55Z</time></trkpt>
<trkpt lat="46.20227" lon="7.35323"><ele>1157.2</ele><time>2016-08-28T13:03:57Z</time></trkpt>
<trkpt lat="46.20229" lon="7.35325"><ele>1156.4</ele><time>2016-08-28T13:03:58Z</time></trkpt>
<trkpt lat="46.20247" lon="7.35314"><ele>1149</ele><time>2016-08-28T13:04:00Z</time></trkpt>
<trkpt lat="46.20247" lon="7.35314"><ele>1149</ele><time>2016-08-28T13:08:55Z</time></trkpt>
<trkpt lat="46.20263" lon="7.353"><ele>1142.2</ele><time>2016-08-28T13:08:57Z</time></trkpt>
<trkpt lat="46.20266" lon="7.35299"><ele>1142.2</ele><time>2016-08-28T13:08:59Z</time></trkpt>
<trkpt lat="46.20272" lon="7.35307"><ele>1142.2</ele><time>2016-08-28T13:09:01Z</time></trkpt>
<trkpt lat="46.20279" lon="7.35317"><ele>1142</ele><time>2016-08-28T13:09:03Z</time></trkpt>
<trkpt lat="46.20285" lon="7.35326"><ele>1142</ele><time>2016-08-28T13:09:05Z</time></trkpt>
<trkpt lat="46.20291" lon="7.35336"><ele>1141.2</ele><time>2016-08-28T13:09:07Z</time></trkpt>
<trkpt lat="46.20298" lon="7.35345"><ele>1140.2</ele><time>2016-08-28T13:09:09Z</time></trkpt>
<trkpt lat="46.20302" lon="7.3535"><ele>1139.8</ele><time>2016-08-28T13:09:10Z</time></trkpt>
<trkpt lat="46.20306" lon="7.35354"><ele>1139.4</ele><time>2016-08-28T13:09:11Z</time></trkpt>
<trkpt lat="46.20315" lon="7.35364"><ele>1139</ele><time>2016-08-28T13:09:13Z</time></trkpt>
<trkpt lat="46.20324" lon="7.35373"><ele>1138.6</ele><time>2016-08-28T13:09:15Z</time></trkpt>
<trkpt lat="46.20328" lon="7.35378"><ele>1138.4</ele><time>2016-08-28T13:09:16Z</time></trkpt>
<trkpt lat="46.20333" lon="7.35378"><ele>1138.2</ele><time>2016-08-28T13:09:17Z</time></trkpt>
<trkpt lat="46.20338" lon="7.35377"><ele>1138</ele><time>2016-08-28T13:09:18Z</time></trkpt>
<trkpt lat="46.20341" lon="7.35373"><ele>1137.8</ele><time>2016-08-28T13:09:19Z</time></trkpt>
<trkpt lat="46.20335" lon="7.35361"><ele>1137.2</ele><time>2016-08-28T13:09:21Z</time></trkpt>
<trkpt lat="46.20328" lon="7.35348"><ele>1136.8</ele><time>2016-08-28T13:09:23Z</time></trkpt>
<trkpt lat="46.20322" lon="7.35335"><ele>1136.4</ele><time>2016-08-28T13:09:25Z</time></trkpt>
<trkpt lat="46.20319" lon="7.35329"><ele>1136.2</ele><time>2016-08-28T13:09:26Z</time></trkpt>
<trkpt lat="46.20316" lon="7.35322"><ele>1135.6</ele><time>2016-08-28T13:09:27Z</time></trkpt>
<trkpt lat="46.20312" lon="7.35316"><ele>1134.8</ele><time>2016-08-28T13:09:28Z</time></trkpt>
<trkpt lat="46.20308" lon="7.35305"><ele>1134.2</ele><time>2016-08-28T13:09:29Z</time></trkpt>
<trkpt lat="46.20304" lon="7.35293"><ele>1133.6</ele><time>2016-08-28T13:09:30Z</time></trkpt>
<trkpt lat="46.20301" lon="7.35283"><ele>1132.8</ele><time>2016-08-28T13:09:31Z</time></trkpt>
<trkpt lat="46.20299" lon="7.35272"><ele>1132.2</ele><time>2016-08-28T13:09:32Z</time></trkpt>
<trkpt lat="46.20297" lon="7.35262"><ele>1131.6</ele><time>2016-08-28T13:09:33Z</time></trkpt>
<trkpt lat="46.20293" lon="7.35241"><ele>1130.2</ele><time>2016-08-28T13:09:35Z</time></trkpt>
<trkpt lat="46.2029" lon="7.35231"><ele>1129.4</ele><time>2016-08-28T13:09:36Z</time></trkpt>
<trkpt lat="46.2029" lon="7.35212"><ele>1128.8</ele><time>2016-08-28T13:09:37Z</time></trkpt>
<trkpt lat="46.2029" lon="7.35192"><ele>1128.4</ele><time>2016-08-28T13:09:38Z</time></trkpt>
<trkpt lat="46.20292" lon="7.3519"><ele>1128</ele><time>2016-08-28T13:09:39Z</time></trkpt>
<trkpt lat="46.20278" lon="7.35196"><ele>1127.2</ele><time>2016-08-28T13:09:41Z</time></trkpt>
<trkpt lat="46.20284" lon="7.35244"><ele>1126.8</ele><time>2016-08-28T13:09:42Z</time></trkpt>
<trkpt lat="46.20288" lon="7.35257"><ele>1126.4</ele><time>2016-08-28T13:09:43Z</time></trkpt>
<trkpt lat="46.20295" lon="7.35268"><ele>1125.6</ele><time>2016-08-28T13:09:45Z</time></trkpt>
<trkpt lat="46.20298" lon="7.35274"><ele>1125.2</ele><time>2016-08-28T13:09:46Z</time></trkpt>
<trkpt lat="46.20305" lon="7.3529"><ele>1124.8</ele><time>2016-08-28T13:09:47Z</time></trkpt>
<trkpt lat="46.20307" lon="7.3529"><ele>1124.2</ele><time>2016-08-28T13:09:48Z</time></trkpt>
<trkpt lat="46.20309" lon="7.35293"><ele>1123.4</ele><time>2016-08-28T13:09:49Z</time></trkpt>
<trkpt lat="46.20315" lon="7.35302"><ele>1121.8</ele><time>2016-08-28T13:09:51Z</time></trkpt>
<trkpt lat="46.20318" lon="7.35307"><ele>1121</ele><time>2016-08-28T13:09:52Z</time></trkpt>
<trkpt lat="46.20321" lon="7.35311"><ele>1120.2</ele><time>2016-08-28T13:09:53Z</time></trkpt>
<trkpt lat="46.20327" lon="7.35321"><ele>1118.8</ele><time>2016-08-28T13:09:55Z</time></trkpt>
<trkpt lat="46.2033" lon="7.35325"><ele>1118</ele><time>2016-08-28T13:09:56Z</time></trkpt>
<trkpt lat="46.20349" lon="7.35313"><ele>1117.4</ele><time>2016-08-28T13:09:57Z</time></trkpt>
<trkpt lat="46.20354" lon="7.35312"><ele>1116.6</ele><time>2016-08-28T13:09:58Z</time></trkpt>
<trkpt lat="46.20356" lon="7.35313"><ele>1115.8</ele><time>2016-08-28T13:09:59Z</time></trkpt>
<trkpt lat="46.20361" lon="7.35315"><ele>1114.2</ele><time>2016-08-28T13:10:01Z</time></trkpt>
<trkpt lat="46.20366" lon="7.35317"><ele>1112.8</ele><time>2016-08-28T13:10:03Z</time></trkpt>
<trkpt lat="46.20371" lon="7.35319"><ele>1111.4</ele><time>2016-08-28T13:10:05Z</time></trkpt>
<trkpt lat="46.20376" lon="7.35321"><ele>1110.2</ele><time>2016-08-28T13:10:07Z</time></trkpt>
<trkpt lat="46.20381" lon="7.35323"><ele>1109</ele><time>2016-08-28T13:10:09Z</time></trkpt>
<trkpt lat="46.20386" lon="7.35325"><ele>1107.8</ele><time>2016-08-28T13:10:11Z</time></trkpt>
<trkpt lat="46.20391" lon="7.35327"><ele>1106.6</ele><time>2016-08-28T13:10:13Z</time></trkpt>
<trkpt lat="46.20394" lon="7.35328"><ele>1106</ele><time>2016-08-28T13:10:14Z</time></trkpt>
<trkpt lat="46.20396" lon="7.35329"><ele>1105.2</ele><time>2016-08-28T13:10:15Z</time></trkpt>
<trkpt lat="46.20402" lon="7.35332"><ele>1104</ele><time>2016-08-28T13:10:17Z</time></trkpt>
<trkpt lat="46.20407" lon="7.35336"><ele>1102.6</ele><time>2016-08-28T13:10:19Z</time></trkpt>
<trkpt lat="46.2041" lon="7.35338"><ele>1101.8</ele><time>2016-08-28T13:10:20Z</time></trkpt>
<trkpt lat="46.20413" lon="7.3534"><ele>1101</ele><time>2016-08-28T13:10:21Z</time></trkpt>
<trkpt lat="46.20418" lon="7.35343"><ele>1099.2</ele><time>2016-08-28T13:10:23Z</time></trkpt>
<trkpt lat="46.20424" lon="7.35347"><ele>1097.4</ele><time>2016-08-28T13:10:25Z</time></trkpt>
<trkpt lat="46.20427" lon="7.35349"><ele>1096.4</ele><time>2016-08-28T13:10:26Z</time></trkpt>
<trkpt lat="46.2043" lon="7.3535"><ele>1095.6</ele><time>2016-08-28T13:10:27Z</time></trkpt>
<trkpt lat="46.20431" lon="7.35348"><ele>1093.8</ele><time>2016-08-28T13:10:29Z</time></trkpt>
<trkpt lat="46.20432" lon="7.35346"><ele>1092</ele><time>2016-08-28T13:10:31Z</time></trkpt>
<trkpt lat="46.20433" lon="7.35344"><ele>1091</ele><time>2016-08-28T13:10:32Z</time></trkpt>
<trkpt lat="46.20434" lon="7.35343"><ele>1090.4</ele><time>2016-08-28T13:10:33Z</time></trkpt>
<trkpt lat="46.20435" lon="7.3534"><ele>1089.2</ele><time>2016-08-28T13:10:35Z</time></trkpt>
<trkpt lat="46.20436" lon="7.35338"><ele>1088</ele><time>2016-08-28T13:10:37Z</time></trkpt>
<trkpt lat="46.20437" lon="7.35335"><ele>1087.8</ele><time>2016-08-28T13:10:39Z</time></trkpt>
<trkpt lat="46.20438" lon="7.35332"><ele>1087.6</ele><time>2016-08-28T13:10:41Z</time></trkpt>
<trkpt lat="46.20439" lon="7.35329"><ele>1087.6</ele><time>2016-08-28T13:10:43Z</time></trkpt>
<trkpt lat="46.20441" lon="7.35327"><ele>1087.4</ele><time>2016-08-28T13:10:45Z</time></trkpt>
<trkpt lat="46.20441" lon="7.35325"><ele>1087.4</ele><time>2016-08-28T13:10:46Z</time></trkpt>
<trkpt lat="46.20443" lon="7.35326"><ele>1087.4</ele><time>2016-08-28T13:10:47Z</time></trkpt>
<trkpt lat="46.20447" lon="7.35329"><ele>1087.2</ele><time>2016-08-28T13:10:49Z</time></trkpt>
<trkpt lat="46.20451" lon="7.35332"><ele>1087.2</ele><time>2016-08-28T13:10:51Z</time></trkpt>
<trkpt lat="46.20454" lon="7.35335"><ele>1087</ele><time>2016-08-28T13:10:53Z</time></trkpt>
<trkpt lat="46.20456" lon="7.35336"><ele>1087</ele><time>2016-08-28T13:10:54Z</time></trkpt>
<trkpt lat="46.20458" lon="7.35337"><ele>1086.4</ele><time>2016-08-28T13:10:55Z</time></trkpt>
<trkpt lat="46.20462" lon="7.3534"><ele>1084.8</ele><time>2016-08-28T13:10:57Z</time></trkpt>
<trkpt lat="46.20466" lon="7.35343"><ele>1083.2</ele><time>2016-08-28T13:10:59Z</time></trkpt>
<trkpt lat="46.20468" lon="7.35344"><ele>1082.4</ele><time>2016-08-28T13:11:00Z</time></trkpt>
<trkpt lat="46.2047" lon="7.35345"><ele>1081.8</ele><time>2016-08-28T13:11:01Z</time></trkpt>
<trkpt lat="46.20473" lon="7.35348"><ele>1080.6</ele><time>2016-08-28T13:11:03Z</time></trkpt>
<trkpt lat="46.20477" lon="7.35351"><ele>1079.6</ele><time>2016-08-28T13:11:05Z</time></trkpt>
<trkpt lat="46.20481" lon="7.35353"><ele>1078.4</ele><time>2016-08-28T13:11:07Z</time></trkpt>
<trkpt lat="46.20483" lon="7.35355"><ele>1077.8</ele><time>2016-08-28T13:11:08Z</time></trkpt>
<trkpt lat="46.20485" lon="7.35358"><ele>1077.2</ele><time>2016-08-28T13:11:09Z</time></trkpt>
<trkpt lat="46.2049" lon="7.35366"><ele>1076</ele><time>2016-08-28T13:11:11Z</time></trkpt>
<trkpt lat="46.20494" lon="7.35373"><ele>1073.8</ele><time>2016-08-28T13:11:13Z</time></trkpt>
<trkpt lat="46.20498" lon="7.3538"><ele>1071.2</ele><time>2016-08-28T13:11:15Z</time></trkpt>
<trkpt lat="46.205" lon="7.35387"><ele>1068.6</ele><time>2016-08-28T13:11:17Z</time></trkpt>
<trkpt lat="46.205" lon="7.35394"><ele>1066.2</ele><time>2016-08-28T13:11:19Z</time></trkpt>
<trkpt lat="46.20501" lon="7.35401"><ele>1063.8</ele><time>2016-08-28T13:11:21Z</time></trkpt>
<trkpt lat="46.20502" lon="7.35408"><ele>1061.4</ele><time>2016-08-28T13:11:23Z</time></trkpt>
<trkpt lat="46.20503" lon="7.35415"><ele>1059.8</ele><time>2016-08-28T13:11:25Z</time></trkpt>
<trkpt lat="46.20504" lon="7.35422"><ele>1058.4</ele><time>2016-08-28T13:11:27Z</time></trkpt>
<trkpt lat="46.20505" lon="7.35429"><ele>1057</ele><time>2016-08-28T13:11:29Z</time></trkpt>
<trkpt lat="46.20506" lon="7.35436"><ele>1056</ele><time>2016-08-28T13:11:31Z</time></trkpt>
<trkpt lat="46.20507" lon="7.35443"><ele>1055</ele><time>2016-08-28T13:11:33Z</time></trkpt>
<trkpt lat="46.20507" lon="7.35446"><ele>1054.4</ele><time>2016-08-28T13:11:34Z</time></trkpt>
<trkpt lat="46.20508" lon="7.35449"><ele>1054</ele><time>2016-08-28T13:11:35Z</time></trkpt>
<trkpt lat="46.20508" lon="7.35455"><ele>1053</ele><time>2016-08-28T13:11:37Z</time></trkpt>
<trkpt lat="46.20509" lon="7.35461"><ele>1052</ele><time>2016-08-28T13:11:39Z</time></trkpt>
<trkpt lat="46.2051" lon="7.35467"><ele>1051.4</ele><time>2016-08-28T13:11:41Z</time></trkpt>
<trkpt lat="46.20511" lon="7.35472"><ele>1050.6</ele><time>2016-08-28T13:11:43Z</time></trkpt>
<trkpt lat="46.20511" lon="7.35478"><ele>1050</ele><time>2016-08-28T13:11:45Z</time></trkpt>
<trkpt lat="46.20512" lon="7.35484"><ele>1049.2</ele><time>2016-08-28T13:11:47Z</time></trkpt>
<trkpt lat="46.20513" lon="7.3549"><ele>1048.6</ele><time>2016-08-28T13:11:49Z</time></trkpt>
<trkpt lat="46.20516" lon="7.35494"><ele>1047.8</ele><time>2016-08-28T13:11:51Z</time></trkpt>
<trkpt lat="46.2052" lon="7.35498"><ele>1047.4</ele><time>2016-08-28T13:11:53Z</time></trkpt>
<trkpt lat="46.2052" lon="7.35492"><ele>1047.2</ele><time>2016-08-28T13:11:55Z</time></trkpt>
<trkpt lat="46.2052" lon="7.35485"><ele>1046.8</ele><time>2016-08-28T13:11:57Z</time></trkpt>
<trkpt lat="46.2052" lon="7.35478"><ele>1046.4</ele><time>2016-08-28T13:11:59Z</time></trkpt>
<trkpt lat="46.20521" lon="7.35472"><ele>1046.2</ele><time>2016-08-28T13:12:01Z</time></trkpt>
<trkpt lat="46.20521" lon="7.35465"><ele>1045.8</ele><time>2016-08-28T13:12:03Z</time></trkpt>
<trkpt lat="46.20521" lon="7.35458"><ele>1045.6</ele><time>2016-08-28T13:12:05Z</time></trkpt>
<trkpt lat="46.20521" lon="7.35451"><ele>1045.6</ele><time>2016-08-28T13:12:07Z</time></trkpt>
<trkpt lat="46.20521" lon="7.35444"><ele>1045.4</ele><time>2016-08-28T13:12:09Z</time></trkpt>
<trkpt lat="46.20522" lon="7.35438"><ele>1045.4</ele><time>2016-08-28T13:12:11Z</time></trkpt>
<trkpt lat="46.20522" lon="7.35434"><ele>1045.4</ele><time>2016-08-28T13:12:12Z</time></trkpt>
<trkpt lat="46.20522" lon="7.35433"><ele>1045.4</ele><time>2016-08-28T13:12:13Z</time></trkpt>
<trkpt lat="46.20522" lon="7.35432"><ele>1045.2</ele><time>2016-08-28T13:12:14Z</time></trkpt>
<trkpt lat="46.20522" lon="7.35431"><ele>1045.2</ele><time>2016-08-28T13:12:15Z</time></trkpt>
<trkpt lat="46.20522" lon="7.35429"><ele>1044.8</ele><time>2016-08-28T13:12:17Z</time></trkpt>
<trkpt lat="46.20523" lon="7.35428"><ele>1044.4</ele><time>2016-08-28T13:12:19Z</time></trkpt>
<trkpt lat="46.20523" lon="7.35426"><ele>1044</ele><time>2016-08-28T13:12:21Z</time></trkpt>
<trkpt lat="46.20532" lon="7.35388"><ele>1041.6</ele><time>2016-08-28T13:12:24Z</time></trkpt>
<trkpt lat="46.20532" lon="7.35388"><ele>1041.6</ele><time>2016-08-28T13:13:30Z</time></trkpt>
<trkpt lat="46.20541" lon="7.35352"><ele>1039.4</ele><time>2016-08-28T13:13:31Z</time></trkpt>
<trkpt lat="46.20543" lon="7.35349"><ele>1039.4</ele><time>2016-08-28T13:13:32Z</time></trkpt>
<trkpt lat="46.20538" lon="7.3534"><ele>1039.4</ele><time>2016-08-28T13:13:33Z</time></trkpt>
<trkpt lat="46.20539" lon="7.35332"><ele>1039.2</ele><time>2016-08-28T13:13:35Z</time></trkpt>
<trkpt lat="46.20541" lon="7.35323"><ele>1039.2</ele><time>2016-08-28T13:13:37Z</time></trkpt>
<trkpt lat="46.20534" lon="7.35305"><ele>1039</ele><time>2016-08-28T13:13:39Z</time></trkpt>
<trkpt lat="46.20528" lon="7.35286"><ele>1039</ele><time>2016-08-28T13:13:41Z</time></trkpt>
<trkpt lat="46.20521" lon="7.35268"><ele>1038.8</ele><time>2016-08-28T13:13:43Z</time></trkpt>
<trkpt lat="46.20518" lon="7.35258"><ele>1038</ele><time>2016-08-28T13:13:44Z</time></trkpt>
<trkpt lat="46.20514" lon="7.35245"><ele>1037.2</ele><time>2016-08-28T13:13:45Z</time></trkpt>
<trkpt lat="46.20507" lon="7.35217"><ele>1035.4</ele><time>2016-08-28T13:13:47Z</time></trkpt>
<trkpt lat="46.20503" lon="7.35203"><ele>1034.4</ele><time>2016-08-28T13:13:48Z</time></trkpt>
<trkpt lat="46.20503" lon="7.35188"><ele>1033.6</ele><time>2016-08-28T13:13:49Z</time></trkpt>
<trkpt lat="46.20503" lon="7.35156"><ele>1032</ele><time>2016-08-28T13:13:51Z</time></trkpt>
<trkpt lat="46.20502" lon="7.35124"><ele>1030.6</ele><time>2016-08-28T13:13:53Z</time></trkpt>
<trkpt lat="46.20503" lon="7.35095"><ele>1029.2</ele><time>2016-08-28T13:13:55Z</time></trkpt>
<trkpt lat="46.20503" lon="7.35065"><ele>1026.8</ele><time>2016-08-28T13:13:57Z</time></trkpt>
<trkpt lat="46.20503" lon="7.3505"><ele>1025.8</ele><time>2016-08-28T13:13:58Z</time></trkpt>
<trkpt lat="46.20504" lon="7.35035"><ele>1024.6</ele><time>2016-08-28T13:13:59Z</time></trkpt>
<trkpt lat="46.20505" lon="7.3502"><ele>1023.4</ele><time>2016-08-28T13:14:00Z</time></trkpt>
<trkpt lat="46.20506" lon="7.35004"><ele>1022.4</ele><time>2016-08-28T13:14:01Z</time></trkpt>
<trkpt lat="46.20508" lon="7.34974"><ele>1020.2</ele><time>2016-08-28T13:14:03Z</time></trkpt>
<trkpt lat="46.20509" lon="7.3494"><ele>1018.2</ele><time>2016-08-28T13:14:05Z</time></trkpt>
<trkpt lat="46.2051" lon="7.34923"><ele>1017.2</ele><time>2016-08-28T13:14:06Z</time></trkpt>
<trkpt lat="46.20511" lon="7.34905"><ele>1016.2</ele><time>2016-08-28T13:14:07Z</time></trkpt>
<trkpt lat="46.2051" lon="7.34868"><ele>1014.4</ele><time>2016-08-28T13:14:09Z</time></trkpt>
<trkpt lat="46.20509" lon="7.34831"><ele>1012.6</ele><time>2016-08-28T13:14:11Z</time></trkpt>
<trkpt lat="46.20509" lon="7.34813"><ele>1011.6</ele><time>2016-08-28T13:14:12Z</time></trkpt>
<trkpt lat="46.20509" lon="7.34794"><ele>1010.4</ele><time>2016-08-28T13:14:13Z</time></trkpt>
<trkpt lat="46.20509" lon="7.34758"><ele>1007.8</ele><time>2016-08-28T13:14:15Z</time></trkpt>
<trkpt lat="46.20502" lon="7.34727"><ele>1005.2</ele><time>2016-08-28T13:14:17Z</time></trkpt>
<trkpt lat="46.20499" lon="7.34712"><ele>1004</ele><time>2016-08-28T13:14:18Z</time></trkpt>
<trkpt lat="46.20495" lon="7.34697"><ele>1002.8</ele><time>2016-08-28T13:14:19Z</time></trkpt>
<trkpt lat="46.2049" lon="7.3466"><ele>1000.6</ele><time>2016-08-28T13:14:21Z</time></trkpt>
<trkpt lat="46.20485" lon="7.34622"><ele>998.4</ele><time>2016-08-28T13:14:23Z</time></trkpt>
<trkpt lat="46.2048" lon="7.34604"><ele>997.2</ele><time>2016-08-28T13:14:24Z</time></trkpt>
<trkpt lat="46.20474" lon="7.34586"><ele>996</ele><time>2016-08-28T13:14:25Z</time></trkpt>
<trkpt lat="46.20462" lon="7.34549"><ele>993.4</ele><time>2016-08-28T13:14:27Z</time></trkpt>
<trkpt lat="46.20451" lon="7.34513"><ele>990.8</ele><time>2016-08-28T13:14:29Z</time></trkpt>
<trkpt lat="46.20439" lon="7.34477"><ele>988.6</ele><time>2016-08-28T13:14:31Z</time></trkpt>
<trkpt lat="46.20433" lon="7.3446"><ele>987.4</ele><time>2016-08-28T13:14:32Z</time></trkpt>
<trkpt lat="46.2043" lon="7.34441"><ele>986.4</ele><time>2016-08-28T13:14:33Z</time></trkpt>
<trkpt lat="46.20428" lon="7.34421"><ele>985.2</ele><time>2016-08-28T13:14:34Z</time></trkpt>
<trkpt lat="46.20425" lon="7.3442"><ele>984.2</ele><time>2016-08-28T13:14:35Z</time></trkpt>
<trkpt lat="46.20424" lon="7.34427"><ele>981.8</ele><time>2016-08-28T13:14:37Z</time></trkpt>
<trkpt lat="46.20423" lon="7.3443"><ele>980.6</ele><time>2016-08-28T13:14:38Z</time></trkpt>
<trkpt lat="46.20429" lon="7.34433"><ele>979.4</ele><time>2016-08-28T13:14:39Z</time></trkpt>
<trkpt lat="46.20435" lon="7.34435"><ele>978.4</ele><time>2016-08-28T13:14:40Z</time></trkpt>
<trkpt lat="46.20437" lon="7.34433"><ele>977.8</ele><time>2016-08-28T13:14:41Z</time></trkpt>
<trkpt lat="46.20445" lon="7.34447"><ele>977</ele><time>2016-08-28T13:14:43Z</time></trkpt>
<trkpt lat="46.20454" lon="7.34461"><ele>976</ele><time>2016-08-28T13:14:45Z</time></trkpt>
<trkpt lat="46.20462" lon="7.34476"><ele>975.2</ele><time>2016-08-28T13:14:47Z</time></trkpt>
<trkpt lat="46.20466" lon="7.34483"><ele>974.6</ele><time>2016-08-28T13:14:48Z</time></trkpt>
<trkpt lat="46.20473" lon="7.34494"><ele>974.2</ele><time>2016-08-28T13:14:49Z</time></trkpt>
<trkpt lat="46.20487" lon="7.34516"><ele>973.4</ele><time>2016-08-28T13:14:51Z</time></trkpt>
<trkpt lat="46.20495" lon="7.34528"><ele>973</ele><time>2016-08-28T13:14:52Z</time></trkpt>
<trkpt lat="46.20502" lon="7.34539"><ele>972</ele><time>2016-08-28T13:14:53Z</time></trkpt>
<trkpt lat="46.20517" lon="7.34565"><ele>970.4</ele><time>2016-08-28T13:14:55Z</time></trkpt>
<trkpt lat="46.20531" lon="7.34591"><ele>968.6</ele><time>2016-08-28T13:14:57Z</time></trkpt>
<trkpt lat="46.20548" lon="7.3462"><ele>966.2</ele><time>2016-08-28T13:14:59Z</time></trkpt>
<trkpt lat="46.20564" lon="7.34649"><ele>963.8</ele><time>2016-08-28T13:15:01Z</time></trkpt>
<trkpt lat="46.20572" lon="7.34665"><ele>962.6</ele><time>2016-08-28T13:15:02Z</time></trkpt>
<trkpt lat="46.2058" lon="7.34681"><ele>961.4</ele><time>2016-08-28T13:15:03Z</time></trkpt>
<trkpt lat="46.20595" lon="7.34716"><ele>958.6</ele><time>2016-08-28T13:15:05Z</time></trkpt>
<trkpt lat="46.20602" lon="7.34733"><ele>957.4</ele><time>2016-08-28T13:15:06Z</time></trkpt>
<trkpt lat="46.20608" lon="7.3475"><ele>956</ele><time>2016-08-28T13:15:07Z</time></trkpt>
<trkpt lat="46.20618" lon="7.34783"><ele>953.8</ele><time>2016-08-28T13:15:09Z</time></trkpt>
<trkpt lat="46.20623" lon="7.348"><ele>952.6</ele><time>2016-08-28T13:15:10Z</time></trkpt>
<trkpt lat="46.20629" lon="7.34816"><ele>951.4</ele><time>2016-08-28T13:15:11Z</time></trkpt>
<trkpt lat="46.20639" lon="7.34848"><ele>949.2</ele><time>2016-08-28T13:15:13Z</time></trkpt>
<trkpt lat="46.20645" lon="7.34864"><ele>947.8</ele><time>2016-08-28T13:15:14Z</time></trkpt>
<trkpt lat="46.2065" lon="7.34878"><ele>946.6</ele><time>2016-08-28T13:15:15Z</time></trkpt>
<trkpt lat="46.20662" lon="7.34905"><ele>944</ele><time>2016-08-28T13:15:17Z</time></trkpt>
<trkpt lat="46.20668" lon="7.34918"><ele>942.6</ele><time>2016-08-28T13:15:18Z</time></trkpt>
<trkpt lat="46.20673" lon="7.34932"><ele>941.4</ele><time>2016-08-28T13:15:19Z</time></trkpt>
<trkpt lat="46.2068" lon="7.34949"><ele>939</ele><time>2016-08-28T13:15:21Z</time></trkpt>
<trkpt lat="46.20686" lon="7.34966"><ele>936.6</ele><time>2016-08-28T13:15:23Z</time></trkpt>
<trkpt lat="46.20689" lon="7.34975"><ele>935.2</ele><time>2016-08-28T13:15:24Z</time></trkpt>
<trkpt lat="46.20692" lon="7.34984"><ele>934.6</ele><time>2016-08-28T13:15:25Z</time></trkpt>
<trkpt lat="46.20695" lon="7.34992"><ele>934</ele><time>2016-08-28T13:15:26Z</time></trkpt>
<trkpt lat="46.20695" lon="7.34984"><ele>933.4</ele><time>2016-08-28T13:15:27Z</time></trkpt>
<trkpt lat="46.20699" lon="7.34991"><ele>932.8</ele><time>2016-08-28T13:15:28Z</time></trkpt>
<trkpt lat="46.20701" lon="7.34986"><ele>932.2</ele><time>2016-08-28T13:15:29Z</time></trkpt>
<trkpt lat="46.20703" lon="7.34979"><ele>931.6</ele><time>2016-08-28T13:15:30Z</time></trkpt>
<trkpt lat="46.20704" lon="7.34971"><ele>931</ele><time>2016-08-28T13:15:31Z</time></trkpt>
<trkpt lat="46.20708" lon="7.34956"><ele>929.8</ele><time>2016-08-28T13:15:33Z</time></trkpt>
<trkpt lat="46.20711" lon="7.34941"><ele>928.4</ele><time>2016-08-28T13:15:35Z</time></trkpt>
<trkpt lat="46.20715" lon="7.34926"><ele>926</ele><time>2016-08-28T13:15:37Z</time></trkpt>
<trkpt lat="46.20716" lon="7.34908"><ele>923.6</ele><time>2016-08-28T13:15:39Z</time></trkpt>
<trkpt lat="46.20717" lon="7.3489"><ele>921.2</ele><time>2016-08-28T13:15:41Z</time></trkpt>
<trkpt lat="46.20718" lon="7.34872"><ele>920.2</ele><time>2016-08-28T13:15:43Z</time></trkpt>
<trkpt lat="46.20718" lon="7.34863"><ele>919.6</ele><time>2016-08-28T13:15:44Z</time></trkpt>
<trkpt lat="46.20717" lon="7.34854"><ele>919.2</ele><time>2016-08-28T13:15:45Z</time></trkpt>
<trkpt lat="46.20716" lon="7.34838"><ele>918.2</ele><time>2016-08-28T13:15:47Z</time></trkpt>
<trkpt lat="46.20715" lon="7.34829"><ele>917.6</ele><time>2016-08-28T13:15:48Z</time></trkpt>
<trkpt lat="46.20714" lon="7.34823"><ele>917</ele><time>2016-08-28T13:15:49Z</time></trkpt>
<trkpt lat="46.20711" lon="7.34812"><ele>916</ele><time>2016-08-28T13:15:51Z</time></trkpt>
<trkpt lat="46.2071" lon="7.34807"><ele>915.6</ele><time>2016-08-28T13:15:52Z</time></trkpt>
<trkpt lat="46.20708" lon="7.34801"><ele>914.8</ele><time>2016-08-28T13:15:53Z</time></trkpt>
<trkpt lat="46.20705" lon="7.3479"><ele>913.4</ele><time>2016-08-28T13:15:55Z</time></trkpt>
<trkpt lat="46.20704" lon="7.34785"><ele>912.6</ele><time>2016-08-28T13:15:56Z</time></trkpt>
<trkpt lat="46.20704" lon="7.34779"><ele>911.8</ele><time>2016-08-28T13:15:57Z</time></trkpt>
<trkpt lat="46.20704" lon="7.34768"><ele>910.4</ele><time>2016-08-28T13:15:59Z</time></trkpt>
<trkpt lat="46.20704" lon="7.34758"><ele>908.8</ele><time>2016-08-28T13:16:01Z</time></trkpt>
<trkpt lat="46.20704" lon="7.34752"><ele>908</ele><time>2016-08-28T13:16:02Z</time></trkpt>
<trkpt lat="46.20705" lon="7.34747"><ele>907</ele><time>2016-08-28T13:16:03Z</time></trkpt>
<trkpt lat="46.20706" lon="7.34737"><ele>905.4</ele><time>2016-08-28T13:16:05Z</time></trkpt>
<trkpt lat="46.20708" lon="7.34726"><ele>903.6</ele><time>2016-08-28T13:16:07Z</time></trkpt>
<trkpt lat="46.20709" lon="7.34721"><ele>902.6</ele><time>2016-08-28T13:16:08Z</time></trkpt>
<trkpt lat="46.20709" lon="7.34716"><ele>901.8</ele><time>2016-08-28T13:16:09Z</time></trkpt>
<trkpt lat="46.20711" lon="7.34705"><ele>900.4</ele><time>2016-08-28T13:16:11Z</time></trkpt>
<trkpt lat="46.20713" lon="7.34695"><ele>898.8</ele><time>2016-08-28T13:16:13Z</time></trkpt>
<trkpt lat="46.20713" lon="7.3469"><ele>898</ele><time>2016-08-28T13:16:14Z</time></trkpt>
<trkpt lat="46.20714" lon="7.34685"><ele>897.2</ele><time>2016-08-28T13:16:15Z</time></trkpt>
<trkpt lat="46.20714" lon="7.34673"><ele>895.2</ele><time>2016-08-28T13:16:17Z</time></trkpt>
<trkpt lat="46.20714" lon="7.34661"><ele>893.2</ele><time>2016-08-28T13:16:19Z</time></trkpt>
<trkpt lat="46.20714" lon="7.34655"><ele>892.2</ele><time>2016-08-28T13:16:20Z</time></trkpt>
<trkpt lat="46.20716" lon="7.34649"><ele>891.2</ele><time>2016-08-28T13:16:21Z</time></trkpt>
<trkpt lat="46.20719" lon="7.3464"><ele>889.4</ele><time>2016-08-28T13:16:23Z</time></trkpt>
<trkpt lat="46.20721" lon="7.34635"><ele>888.4</ele><time>2016-08-28T13:16:24Z</time></trkpt>
<trkpt lat="46.20727" lon="7.3463"><ele>887.6</ele><time>2016-08-28T13:16:25Z</time></trkpt>
<trkpt lat="46.20727" lon="7.34627"><ele>887.2</ele><time>2016-08-28T13:16:27Z</time></trkpt>
<trkpt lat="46.20725" lon="7.34623"><ele>886.8</ele><time>2016-08-28T13:16:29Z</time></trkpt>
<trkpt lat="46.20724" lon="7.3462"><ele>886.6</ele><time>2016-08-28T13:16:31Z</time></trkpt>
<trkpt lat="46.20723" lon="7.34617"><ele>886.4</ele><time>2016-08-28T13:16:33Z</time></trkpt>
<trkpt lat="46.20721" lon="7.34613"><ele>886.2</ele><time>2016-08-28T13:16:35Z</time></trkpt>
<trkpt lat="46.2072" lon="7.3461"><ele>885.8</ele><time>2016-08-28T13:16:37Z</time></trkpt>
<trkpt lat="46.20718" lon="7.34606"><ele>885.6</ele><time>2016-08-28T13:16:39Z</time></trkpt>
<trkpt lat="46.20717" lon="7.34603"><ele>885.4</ele><time>2016-08-28T13:16:41Z</time></trkpt>
<trkpt lat="46.20716" lon="7.346"><ele>885</ele><time>2016-08-28T13:16:43Z</time></trkpt>
<trkpt lat="46.20714" lon="7.34596"><ele>884.8</ele><time>2016-08-28T13:16:45Z</time></trkpt>
<trkpt lat="46.20713" lon="7.34593"><ele>884.6</ele><time>2016-08-28T13:16:47Z</time></trkpt>
<trkpt lat="46.20712" lon="7.3459"><ele>883.6</ele><time>2016-08-28T13:16:49Z</time></trkpt>
<trkpt lat="46.2071" lon="7.34586"><ele>882.6</ele><time>2016-08-28T13:16:51Z</time></trkpt>
<trkpt lat="46.20711" lon="7.34578"><ele>881.6</ele><time>2016-08-28T13:16:53Z</time></trkpt>
<trkpt lat="46.20711" lon="7.3457"><ele>880.6</ele><time>2016-08-28T13:16:55Z</time></trkpt>
<trkpt lat="46.20711" lon="7.34561"><ele>879.6</ele><time>2016-08-28T13:16:57Z</time></trkpt>
<trkpt lat="46.20711" lon="7.34557"><ele>879.2</ele><time>2016-08-28T13:16:58Z</time></trkpt>
<trkpt lat="46.20711" lon="7.34553"><ele>879</ele><time>2016-08-28T13:16:59Z</time></trkpt>
<trkpt lat="46.20712" lon="7.34549"><ele>878.6</ele><time>2016-08-28T13:17:00Z</time></trkpt>
<trkpt lat="46.20708" lon="7.34551"><ele>878.4</ele><time>2016-08-28T13:17:01Z</time></trkpt>
<trkpt lat="46.207" lon="7.34558"><ele>877.8</ele><time>2016-08-28T13:17:03Z</time></trkpt>
<trkpt lat="46.20707" lon="7.34567"><ele>877.4</ele><time>2016-08-28T13:17:05Z</time></trkpt>
<trkpt lat="46.20715" lon="7.34576"><ele>876.8</ele><time>2016-08-28T13:17:07Z</time></trkpt>
<trkpt lat="46.20723" lon="7.34584"><ele>876.2</ele><time>2016-08-28T13:17:09Z</time></trkpt>
<trkpt lat="46.20731" lon="7.34593"><ele>875.8</ele><time>2016-08-28T13:17:11Z</time></trkpt>
<trkpt lat="46.20735" lon="7.346"><ele>875.2</ele><time>2016-08-28T13:17:12Z</time></trkpt>
<trkpt lat="46.20739" lon="7.34608"><ele>874.2</ele><time>2016-08-28T13:17:13Z</time></trkpt>
<trkpt lat="46.20747" lon="7.34625"><ele>872.4</ele><time>2016-08-28T13:17:15Z</time></trkpt>
<trkpt lat="46.20751" lon="7.34634"><ele>871.4</ele><time>2016-08-28T13:17:16Z</time></trkpt>
<trkpt lat="46.20754" lon="7.34642"><ele>870.8</ele><time>2016-08-28T13:17:17Z</time></trkpt>
<trkpt lat="46.20758" lon="7.34651"><ele>870.2</ele><time>2016-08-28T13:17:18Z</time></trkpt>
<trkpt lat="46.20763" lon="7.34661"><ele>869.4</ele><time>2016-08-28T13:17:19Z</time></trkpt>
<trkpt lat="46.20772" lon="7.34681"><ele>868.2</ele><time>2016-08-28T13:17:21Z</time></trkpt>
<trkpt lat="46.20781" lon="7.34701"><ele>866.8</ele><time>2016-08-28T13:17:23Z</time></trkpt>
<trkpt lat="46.20785" lon="7.34711"><ele>866.2</ele><time>2016-08-28T13:17:24Z</time></trkpt>
<trkpt lat="46.20791" lon="7.34724"><ele>865.4</ele><time>2016-08-28T13:17:25Z</time></trkpt>
<trkpt lat="46.20803" lon="7.34748"><ele>864.2</ele><time>2016-08-28T13:17:27Z</time></trkpt>
<trkpt lat="46.20815" lon="7.34773"><ele>862.8</ele><time>2016-08-28T13:17:29Z</time></trkpt>
<trkpt lat="46.20827" lon="7.348"><ele>861.4</ele><time>2016-08-28T13:17:31Z</time></trkpt>
<trkpt lat="46.20838" lon="7.34827"><ele>860.2</ele><time>2016-08-28T13:17:33Z</time></trkpt>
<trkpt lat="46.20843" lon="7.3484"><ele>859</ele><time>2016-08-28T13:17:34Z</time></trkpt>
<trkpt lat="46.20849" lon="7.34851"><ele>857.8</ele><time>2016-08-28T13:17:35Z</time></trkpt>
<trkpt lat="46.20861" lon="7.34873"><ele>855.6</ele><time>2016-08-28T13:17:37Z</time></trkpt>
<trkpt lat="46.20867" lon="7.34884"><ele>854.4</ele><time>2016-08-28T13:17:38Z</time></trkpt>
<trkpt lat="46.20873" lon="7.34895"><ele>853.4</ele><time>2016-08-28T13:17:39Z</time></trkpt>
<trkpt lat="46.20885" lon="7.34916"><ele>851.6</ele><time>2016-08-28T13:17:41Z</time></trkpt>
<trkpt lat="46.20897" lon="7.34937"><ele>849.8</ele><time>2016-08-28T13:17:43Z</time></trkpt>
<trkpt lat="46.20903" lon="7.34947"><ele>848.8</ele><time>2016-08-28T13:17:44Z</time></trkpt>
<trkpt lat="46.20906" lon="7.34956"><ele>847.8</ele><time>2016-08-28T13:17:45Z</time></trkpt>
<trkpt lat="46.20911" lon="7.34972"><ele>845.8</ele><time>2016-08-28T13:17:47Z</time></trkpt>
<trkpt lat="46.20917" lon="7.34989"><ele>843.6</ele><time>2016-08-28T13:17:49Z</time></trkpt>
<trkpt lat="46.20919" lon="7.34997"><ele>843.2</ele><time>2016-08-28T13:17:50Z</time></trkpt>
<trkpt lat="46.2092" lon="7.35013"><ele>843</ele><time>2016-08-28T13:17:51Z</time></trkpt>
<trkpt lat="46.2092" lon="7.35003"><ele>842.8</ele><time>2016-08-28T13:17:52Z</time></trkpt>
<trkpt lat="46.20923" lon="7.35003"><ele>842.4</ele><time>2016-08-28T13:17:53Z</time></trkpt>
<trkpt lat="46.20928" lon="7.35005"><ele>842</ele><time>2016-08-28T13:17:55Z</time></trkpt>
<trkpt lat="46.20923" lon="7.35004"><ele>841.4</ele><time>2016-08-28T13:17:57Z</time></trkpt>
<trkpt lat="46.20926" lon="7.35005"><ele>841</ele><time>2016-08-28T13:17:58Z</time></trkpt>
<trkpt lat="46.2093" lon="7.35013"><ele>840.8</ele><time>2016-08-28T13:17:59Z</time></trkpt>
<trkpt lat="46.20933" lon="7.35021"><ele>840.6</ele><time>2016-08-28T13:18:00Z</time></trkpt>
<trkpt lat="46.20936" lon="7.35029"><ele>840.2</ele><time>2016-08-28T13:18:01Z</time></trkpt>
<trkpt lat="46.20938" lon="7.35046"><ele>839.4</ele><time>2016-08-28T13:18:03Z</time></trkpt>
<trkpt lat="46.20938" lon="7.35062"><ele>838.6</ele><time>2016-08-28T13:18:05Z</time></trkpt>
<trkpt lat="46.20943" lon="7.3508"><ele>837.8</ele><time>2016-08-28T13:18:07Z</time></trkpt>
<trkpt lat="46.20945" lon="7.3509"><ele>837.4</ele><time>2016-08-28T13:18:08Z</time></trkpt>
<trkpt lat="46.20951" lon="7.35098"><ele>837</ele><time>2016-08-28T13:18:09Z</time></trkpt>
<trkpt lat="46.20962" lon="7.35116"><ele>836.2</ele><time>2016-08-28T13:18:11Z</time></trkpt>
<trkpt lat="46.20968" lon="7.35125"><ele>835.8</ele><time>2016-08-28T13:18:12Z</time></trkpt>
<trkpt lat="46.20976" lon="7.35132"><ele>835.6</ele><time>2016-08-28T13:18:13Z</time></trkpt>
<trkpt lat="46.20985" lon="7.35139"><ele>835.2</ele><time>2016-08-28T13:18:14Z</time></trkpt>
<trkpt lat="46.20992" lon="7.3515"><ele>834.8</ele><time>2016-08-28T13:18:15Z</time></trkpt>
<trkpt lat="46.20999" lon="7.35162"><ele>834.4</ele><time>2016-08-28T13:18:16Z</time></trkpt>
<trkpt lat="46.21006" lon="7.35174"><ele>833.6</ele><time>2016-08-28T13:18:17Z</time></trkpt>
<trkpt lat="46.21021" lon="7.35198"><ele>831.8</ele><time>2016-08-28T13:18:19Z</time></trkpt>
<trkpt lat="46.21038" lon="7.35222"><ele>830.2</ele><time>2016-08-28T13:18:21Z</time></trkpt>
<trkpt lat="46.21046" lon="7.35234"><ele>829.4</ele><time>2016-08-28T13:18:22Z</time></trkpt>
<trkpt lat="46.21055" lon="7.35246"><ele>828.6</ele><time>2016-08-28T13:18:23Z</time></trkpt>
<trkpt lat="46.21071" lon="7.35275"><ele>827</ele><time>2016-08-28T13:18:25Z</time></trkpt>
<trkpt lat="46.21083" lon="7.35312"><ele>825.2</ele><time>2016-08-28T13:18:27Z</time></trkpt>
<trkpt lat="46.21089" lon="7.3535"><ele>823.2</ele><time>2016-08-28T13:18:29Z</time></trkpt>
<trkpt lat="46.21092" lon="7.3537"><ele>822.2</ele><time>2016-08-28T13:18:30Z</time></trkpt>
<trkpt lat="46.21098" lon="7.35387"><ele>821.2</ele><time>2016-08-28T13:18:31Z</time></trkpt>
<trkpt lat="46.21116" lon="7.35417"><ele>819.2</ele><time>2016-08-28T13:18:33Z</time></trkpt>
<trkpt lat="46.21135" lon="7.35446"><ele>817.2</ele><time>2016-08-28T13:18:35Z</time></trkpt>
<trkpt lat="46.21154" lon="7.35475"><ele>815.2</ele><time>2016-08-28T13:18:37Z</time></trkpt>
<trkpt lat="46.21174" lon="7.35504"><ele>813</ele><time>2016-08-28T13:18:39Z</time></trkpt>
<trkpt lat="46.2119" lon="7.35531"><ele>811</ele><time>2016-08-28T13:18:41Z</time></trkpt>
<trkpt lat="46.21205" lon="7.35557"><ele>809</ele><time>2016-08-28T13:18:43Z</time></trkpt>
<trkpt lat="46.21209" lon="7.35561"><ele>808</ele><time>2016-08-28T13:18:44Z</time></trkpt>
<trkpt lat="46.21209" lon="7.3556"><ele>807.2</ele><time>2016-08-28T13:18:45Z</time></trkpt>
<trkpt lat="46.21214" lon="7.35559"><ele>805.8</ele><time>2016-08-28T13:18:47Z</time></trkpt>
<trkpt lat="46.21216" lon="7.35559"><ele>805.2</ele><time>2016-08-28T13:18:48Z</time></trkpt>
<trkpt lat="46.21216" lon="7.35545"><ele>804.4</ele><time>2016-08-28T13:18:49Z</time></trkpt>
<trkpt lat="46.21215" lon="7.35529"><ele>803.8</ele><time>2016-08-28T13:18:50Z</time></trkpt>
<trkpt lat="46.21214" lon="7.35513"><ele>803</ele><time>2016-08-28T13:18:51Z</time></trkpt>
<trkpt lat="46.21207" lon="7.3549"><ele>801.6</ele><time>2016-08-28T13:18:53Z</time></trkpt>
<trkpt lat="46.21199" lon="7.35468"><ele>800.2</ele><time>2016-08-28T13:18:55Z</time></trkpt>
<trkpt lat="46.21191" lon="7.35445"><ele>799</ele><time>2016-08-28T13:18:57Z</time></trkpt>
<trkpt lat="46.21183" lon="7.3542"><ele>797.6</ele><time>2016-08-28T13:18:59Z</time></trkpt>
<trkpt lat="46.21179" lon="7.35407"><ele>797</ele><time>2016-08-28T13:19:00Z</time></trkpt>
<trkpt lat="46.21176" lon="7.35397"><ele>796.4</ele><time>2016-08-28T13:19:01Z</time></trkpt>
<trkpt lat="46.21168" lon="7.35378"><ele>794.8</ele><time>2016-08-28T13:19:03Z</time></trkpt>
<trkpt lat="46.2116" lon="7.3536"><ele>793</ele><time>2016-08-28T13:19:05Z</time></trkpt>
<trkpt lat="46.21158" lon="7.3534"><ele>791.4</ele><time>2016-08-28T13:19:07Z</time></trkpt>
<trkpt lat="46.21158" lon="7.3533"><ele>790.8</ele><time>2016-08-28T13:19:08Z</time></trkpt>
<trkpt lat="46.21159" lon="7.35328"><ele>790.2</ele><time>2016-08-28T13:19:09Z</time></trkpt>
<trkpt lat="46.21158" lon="7.35317"><ele>789</ele><time>2016-08-28T13:19:11Z</time></trkpt>
<trkpt lat="46.21157" lon="7.35306"><ele>787.8</ele><time>2016-08-28T13:19:13Z</time></trkpt>
<trkpt lat="46.21162" lon="7.35296"><ele>785.4</ele><time>2016-08-28T13:19:15Z</time></trkpt>
<trkpt lat="46.21167" lon="7.35286"><ele>783</ele><time>2016-08-28T13:19:17Z</time></trkpt>
<trkpt lat="46.2117" lon="7.35281"><ele>781.8</ele><time>2016-08-28T13:19:18Z</time></trkpt>
<trkpt lat="46.21173" lon="7.35275"><ele>781</ele><time>2016-08-28T13:19:19Z</time></trkpt>
<trkpt lat="46.21175" lon="7.3528"><ele>779.6</ele><time>2016-08-28T13:19:21Z</time></trkpt>
<trkpt lat="46.21177" lon="7.35286"><ele>778.4</ele><time>2016-08-28T13:19:23Z</time></trkpt>
<trkpt lat="46.21178" lon="7.35289"><ele>777.6</ele><time>2016-08-28T13:19:24Z</time></trkpt>
<trkpt lat="46.21179" lon="7.35292"><ele>777.2</ele><time>2016-08-28T13:19:25Z</time></trkpt>
<trkpt lat="46.21181" lon="7.35298"><ele>776.2</ele><time>2016-08-28T13:19:27Z</time></trkpt>
<trkpt lat="46.21198" lon="7.35311"><ele>771.8</ele><time>2016-08-28T13:19:30Z</time></trkpt>
<trkpt lat="46.21198" lon="7.35311"><ele>771.8</ele><time>2016-08-28T13:20:38Z</time></trkpt>
<trkpt lat="46.21213" lon="7.35318"><ele>768.4</ele><time>2016-08-28T13:20:39Z</time></trkpt>
<trkpt lat="46.2122" lon="7.35317"><ele>768.2</ele><time>2016-08-28T13:20:41Z</time></trkpt>
<trkpt lat="46.21224" lon="7.35316"><ele>768.2</ele><time>2016-08-28T13:20:42Z</time></trkpt>
<trkpt lat="46.21229" lon="7.3532"><ele>768</ele><time>2016-08-28T13:20:43Z</time></trkpt>
<trkpt lat="46.2124" lon="7.35328"><ele>768</ele><time>2016-08-28T13:20:45Z</time></trkpt>
<trkpt lat="46.21246" lon="7.35332"><ele>767.8</ele><time>2016-08-28T13:20:46Z</time></trkpt>
<trkpt lat="46.21253" lon="7.3534"><ele>767.8</ele><time>2016-08-28T13:20:47Z</time></trkpt>
<trkpt lat="46.21259" lon="7.35348"><ele>767.6</ele><time>2016-08-28T13:20:48Z</time></trkpt>
<trkpt lat="46.21266" lon="7.35356"><ele>766.8</ele><time>2016-08-28T13:20:49Z</time></trkpt>
<trkpt lat="46.2128" lon="7.35373"><ele>764.8</ele><time>2016-08-28T13:20:51Z</time></trkpt>
<trkpt lat="46.21293" lon="7.35386"><ele>762.8</ele><time>2016-08-28T13:20:53Z</time></trkpt>
<trkpt lat="46.21299" lon="7.35392"><ele>761.4</ele><time>2016-08-28T13:20:54Z</time></trkpt>
<trkpt lat="46.21304" lon="7.35396"><ele>759.8</ele><time>2016-08-28T13:20:55Z</time></trkpt>
<trkpt lat="46.21313" lon="7.35404"><ele>756.8</ele><time>2016-08-28T13:20:57Z</time></trkpt>
<trkpt lat="46.21323" lon="7.35412"><ele>753.6</ele><time>2016-08-28T13:20:59Z</time></trkpt>
<trkpt lat="46.21332" lon="7.3542"><ele>752</ele><time>2016-08-28T13:21:01Z</time></trkpt>
<trkpt lat="46.21337" lon="7.35424"><ele>751.4</ele><time>2016-08-28T13:21:02Z</time></trkpt>
<trkpt lat="46.21339" lon="7.3543"><ele>750.6</ele><time>2016-08-28T13:21:03Z</time></trkpt>
<trkpt lat="46.21342" lon="7.35436"><ele>750</ele><time>2016-08-28T13:21:04Z</time></trkpt>
<trkpt lat="46.21344" lon="7.35443"><ele>749.2</ele><time>2016-08-28T13:21:05Z</time></trkpt>
<trkpt lat="46.21346" lon="7.35449"><ele>748.6</ele><time>2016-08-28T13:21:06Z</time></trkpt>
<trkpt lat="46.21345" lon="7.35457"><ele>748</ele><time>2016-08-28T13:21:07Z</time></trkpt>
<trkpt lat="46.21343" lon="7.35472"><ele>746.8</ele><time>2016-08-28T13:21:09Z</time></trkpt>
<trkpt lat="46.21342" lon="7.3548"><ele>746</ele><time>2016-08-28T13:21:10Z</time></trkpt>
<trkpt lat="46.21343" lon="7.35488"><ele>745.4</ele><time>2016-08-28T13:21:11Z</time></trkpt>
<trkpt lat="46.21345" lon="7.35504"><ele>744</ele><time>2016-08-28T13:21:13Z</time></trkpt>
<trkpt lat="46.21347" lon="7.35513"><ele>743.4</ele><time>2016-08-28T13:21:14Z</time></trkpt>
<trkpt lat="46.2135" lon="7.35521"><ele>742.6</ele><time>2016-08-28T13:21:15Z</time></trkpt>
<trkpt lat="46.21358" lon="7.35537"><ele>741.4</ele><time>2016-08-28T13:21:17Z</time></trkpt>
<trkpt lat="46.21367" lon="7.35549"><ele>740.4</ele><time>2016-08-28T13:21:19Z</time></trkpt>
<trkpt lat="46.21376" lon="7.3556"><ele>739.2</ele><time>2016-08-28T13:21:21Z</time></trkpt>
<trkpt lat="46.21385" lon="7.35571"><ele>737.6</ele><time>2016-08-28T13:21:23Z</time></trkpt>
<trkpt lat="46.2139" lon="7.35577"><ele>737</ele><time>2016-08-28T13:21:24Z</time></trkpt>
<trkpt lat="46.21392" lon="7.35584"><ele>736.2</ele><time>2016-08-28T13:21:25Z</time></trkpt>
<trkpt lat="46.21394" lon="7.35598"><ele>734.6</ele><time>2016-08-28T13:21:27Z</time></trkpt>
<trkpt lat="46.21396" lon="7.35613"><ele>734.2</ele><time>2016-08-28T13:21:29Z</time></trkpt>
<trkpt lat="46.21401" lon="7.35629"><ele>733.6</ele><time>2016-08-28T13:21:31Z</time></trkpt>
<trkpt lat="46.21407" lon="7.35646"><ele>733.2</ele><time>2016-08-28T13:21:33Z</time></trkpt>
<trkpt lat="46.2141" lon="7.35654"><ele>733</ele><time>2016-08-28T13:21:34Z</time></trkpt>
<trkpt lat="46.21413" lon="7.3566"><ele>732.6</ele><time>2016-08-28T13:21:35Z</time></trkpt>
<trkpt lat="46.21421" lon="7.35671"><ele>732.2</ele><time>2016-08-28T13:21:37Z</time></trkpt>
<trkpt lat="46.21429" lon="7.35682"><ele>731.8</ele><time>2016-08-28T13:21:39Z</time></trkpt>
<trkpt lat="46.21432" lon="7.35698"><ele>731.2</ele><time>2016-08-28T13:21:41Z</time></trkpt>
<trkpt lat="46.21434" lon="7.35715"><ele>730.8</ele><time>2016-08-28T13:21:43Z</time></trkpt>
<trkpt lat="46.21436" lon="7.35724"><ele>730.6</ele><time>2016-08-28T13:21:44Z</time></trkpt>
<trkpt lat="46.21437" lon="7.35732"><ele>730.2</ele><time>2016-08-28T13:21:45Z</time></trkpt>
<trkpt lat="46.21438" lon="7.35741"><ele>730</ele><time>2016-08-28T13:21:46Z</time></trkpt>
<trkpt lat="46.21441" lon="7.35745"><ele>729.6</ele><time>2016-08-28T13:21:47Z</time></trkpt>
<trkpt lat="46.21447" lon="7.35753"><ele>729</ele><time>2016-08-28T13:21:49Z</time></trkpt>
<trkpt lat="46.21454" lon="7.35761"><ele>728.4</ele><time>2016-08-28T13:21:51Z</time></trkpt>
<trkpt lat="46.21459" lon="7.35774"><ele>727.8</ele><time>2016-08-28T13:21:53Z</time></trkpt>
<trkpt lat="46.21464" lon="7.35788"><ele>727.2</ele><time>2016-08-28T13:21:55Z</time></trkpt>
<trkpt lat="46.2147" lon="7.35801"><ele>726.8</ele><time>2016-08-28T13:21:57Z</time></trkpt>
<trkpt lat="46.21475" lon="7.35815"><ele>726.6</ele><time>2016-08-28T13:21:59Z</time></trkpt>
<trkpt lat="46.21478" lon="7.35821"><ele>726.4</ele><time>2016-08-28T13:22:00Z</time></trkpt>
<trkpt lat="46.21481" lon="7.35829"><ele>726.4</ele><time>2016-08-28T13:22:01Z</time></trkpt>
<trkpt lat="46.21486" lon="7.35846"><ele>726</ele><time>2016-08-28T13:22:03Z</time></trkpt>
<trkpt lat="46.21492" lon="7.35863"><ele>725.8</ele><time>2016-08-28T13:22:05Z</time></trkpt>
<trkpt lat="46.21495" lon="7.35871"><ele>725.8</ele><time>2016-08-28T13:22:06Z</time></trkpt>
<trkpt lat="46.21498" lon="7.35879"><ele>725.6</ele><time>2016-08-28T13:22:07Z</time></trkpt>
<trkpt lat="46.21503" lon="7.35897"><ele>725.4</ele><time>2016-08-28T13:22:09Z</time></trkpt>
<trkpt lat="46.21508" lon="7.35914"><ele>725.4</ele><time>2016-08-28T13:22:11Z</time></trkpt>
<trkpt lat="46.21511" lon="7.3592"><ele>725.2</ele><time>2016-08-28T13:22:12Z</time></trkpt>
<trkpt lat="46.21513" lon="7.35928"><ele>725.2</ele><time>2016-08-28T13:22:13Z</time></trkpt>
<trkpt lat="46.21516" lon="7.35945"><ele>725</ele><time>2016-08-28T13:22:15Z</time></trkpt>
<trkpt lat="46.21518" lon="7.35961"><ele>725</ele><time>2016-08-28T13:22:17Z</time></trkpt>
<trkpt lat="46.2152" lon="7.35977"><ele>724.4</ele><time>2016-08-28T13:22:19Z</time></trkpt>
<trkpt lat="46.21527" lon="7.35993"><ele>723.8</ele><time>2016-08-28T13:22:21Z</time></trkpt>
<trkpt lat="46.21533" lon="7.3601"><ele>723.4</ele><time>2016-08-28T13:22:23Z</time></trkpt>
<trkpt lat="46.2154" lon="7.36026"><ele>722.8</ele><time>2016-08-28T13:22:25Z</time></trkpt>
<trkpt lat="46.21543" lon="7.36034"><ele>722.6</ele><time>2016-08-28T13:22:26Z</time></trkpt>
<trkpt lat="46.21546" lon="7.36042"><ele>722.2</ele><time>2016-08-28T13:22:27Z</time></trkpt>
<trkpt lat="46.21552" lon="7.36057"><ele>721.6</ele><time>2016-08-28T13:22:29Z</time></trkpt>
<trkpt lat="46.2156" lon="7.36064"><ele>719.8</ele><time>2016-08-28T13:22:31Z</time></trkpt>
<trkpt lat="46.21568" lon="7.3607"><ele>717.8</ele><time>2016-08-28T13:22:33Z</time></trkpt>
<trkpt lat="46.2157" lon="7.3607"><ele>716.8</ele><time>2016-08-28T13:22:34Z</time></trkpt>
<trkpt lat="46.21573" lon="7.36069"><ele>716</ele><time>2016-08-28T13:22:35Z</time></trkpt>
<trkpt lat="46.21578" lon="7.36071"><ele>714.2</ele><time>2016-08-28T13:22:37Z</time></trkpt>
<trkpt lat="46.21581" lon="7.36072"><ele>713.4</ele><time>2016-08-28T13:22:38Z</time></trkpt>
<trkpt lat="46.21582" lon="7.3607"><ele>712.4</ele><time>2016-08-28T13:22:39Z</time></trkpt>
<trkpt lat="46.21582" lon="7.36067"><ele>711.6</ele><time>2016-08-28T13:22:40Z</time></trkpt>
<trkpt lat="46.21582" lon="7.36064"><ele>710.8</ele><time>2016-08-28T13:22:41Z</time></trkpt>
<trkpt lat="46.21583" lon="7.36058"><ele>709</ele><time>2016-08-28T13:22:43Z</time></trkpt>
<trkpt lat="46.21583" lon="7.36056"><ele>708.2</ele><time>2016-08-28T13:22:44Z</time></trkpt>
<trkpt lat="46.21586" lon="7.36054"><ele>707.2</ele><time>2016-08-28T13:22:45Z</time></trkpt>
<trkpt lat="46.21589" lon="7.36053"><ele>706.4</ele><time>2016-08-28T13:22:46Z</time></trkpt>
<trkpt lat="46.21592" lon="7.36052"><ele>705.4</ele><time>2016-08-28T13:22:47Z</time></trkpt>
<trkpt lat="46.21595" lon="7.3605"><ele>704.6</ele><time>2016-08-28T13:22:48Z</time></trkpt>
<trkpt lat="46.21598" lon="7.36054"><ele>703.6</ele><time>2016-08-28T13:22:49Z</time></trkpt>
<trkpt lat="46.21605" lon="7.36064"><ele>701.8</ele><time>2016-08-28T13:22:51Z</time></trkpt>
<trkpt lat="46.21611" lon="7.36074"><ele>700.6</ele><time>2016-08-28T13:22:53Z</time></trkpt>
<trkpt lat="46.21617" lon="7.36083"><ele>699.2</ele><time>2016-08-28T13:22:55Z</time></trkpt>
<trkpt lat="46.21623" lon="7.36093"><ele>698</ele><time>2016-08-28T13:22:57Z</time></trkpt>
<trkpt lat="46.21626" lon="7.36098"><ele>697.4</ele><time>2016-08-28T13:22:58Z</time></trkpt>
<trkpt lat="46.21629" lon="7.36105"><ele>696.8</ele><time>2016-08-28T13:22:59Z</time></trkpt>
<trkpt lat="46.21635" lon="7.36119"><ele>695.4</ele><time>2016-08-28T13:23:01Z</time></trkpt>
<trkpt lat="46.21641" lon="7.36132"><ele>694.2</ele><time>2016-08-28T13:23:03Z</time></trkpt>
<trkpt lat="46.21641" lon="7.36138"><ele>693.6</ele><time>2016-08-28T13:23:04Z</time></trkpt>
<trkpt lat="46.21637" lon="7.36145"><ele>693.2</ele><time>2016-08-28T13:23:05Z</time></trkpt>
<trkpt lat="46.21639" lon="7.36153"><ele>692.4</ele><time>2016-08-28T13:23:07Z</time></trkpt>
<trkpt lat="46.2164" lon="7.36157"><ele>691.8</ele><time>2016-08-28T13:23:08Z</time></trkpt>
<trkpt lat="46.21644" lon="7.36163"><ele>691.4</ele><time>2016-08-28T13:23:09Z</time></trkpt>
<trkpt lat="46.21652" lon="7.36177"><ele>690.6</ele><time>2016-08-28T13:23:11Z</time></trkpt>
<trkpt lat="46.21651" lon="7.3615"><ele>689.6</ele><time>2016-08-28T13:23:13Z</time></trkpt>
<trkpt lat="46.21649" lon="7.3612"><ele>688.4</ele><time>2016-08-28T13:23:15Z</time></trkpt>
<trkpt lat="46.21641" lon="7.36105"><ele>687.8</ele><time>2016-08-28T13:23:16Z</time></trkpt>
<trkpt lat="46.21642" lon="7.36098"><ele>687.2</ele><time>2016-08-28T13:23:17Z</time></trkpt>
<trkpt lat="46.21644" lon="7.36092"><ele>686.6</ele><time>2016-08-28T13:23:18Z</time></trkpt>
<trkpt lat="46.21645" lon="7.36094"><ele>686</ele><time>2016-08-28T13:23:19Z</time></trkpt>
<trkpt lat="46.21647" lon="7.36099"><ele>685.8</ele><time>2016-08-28T13:23:21Z</time></trkpt>
<trkpt lat="46.21649" lon="7.36105"><ele>685.6</ele><time>2016-08-28T13:23:23Z</time></trkpt>
<trkpt lat="46.21651" lon="7.3611"><ele>685.6</ele><time>2016-08-28T13:23:25Z</time></trkpt>
<trkpt lat="46.21653" lon="7.36116"><ele>685.4</ele><time>2016-08-28T13:23:27Z</time></trkpt>
<trkpt lat="46.21655" lon="7.36121"><ele>685.2</ele><time>2016-08-28T13:23:29Z</time></trkpt>
<trkpt lat="46.21656" lon="7.36127"><ele>685</ele><time>2016-08-28T13:23:31Z</time></trkpt>
<trkpt lat="46.21658" lon="7.36132"><ele>684.8</ele><time>2016-08-28T13:23:33Z</time></trkpt>
<trkpt lat="46.2166" lon="7.36138"><ele>684.6</ele><time>2016-08-28T13:23:35Z</time></trkpt>
<trkpt lat="46.21661" lon="7.36141"><ele>684.6</ele><time>2016-08-28T13:23:36Z</time></trkpt>
<trkpt lat="46.21666" lon="7.36147"><ele>683.8</ele><time>2016-08-28T13:23:37Z</time></trkpt>
<trkpt lat="46.21676" lon="7.36162"><ele>682.2</ele><time>2016-08-28T13:23:39Z</time></trkpt>
<trkpt lat="46.21692" lon="7.36177"><ele>680.6</ele><time>2016-08-28T13:23:41Z</time></trkpt>
<trkpt lat="46.21709" lon="7.36192"><ele>679</ele><time>2016-08-28T13:23:43Z</time></trkpt>
<trkpt lat="46.21718" lon="7.362"><ele>678.4</ele><time>2016-08-28T13:23:44Z</time></trkpt>
<trkpt lat="46.21723" lon="7.36206"><ele>677.6</ele><time>2016-08-28T13:23:45Z</time></trkpt>
<trkpt lat="46.21728" lon="7.36213"><ele>676.8</ele><time>2016-08-28T13:23:46Z</time></trkpt>
<trkpt lat="46.21733" lon="7.36219"><ele>676.2</ele><time>2016-08-28T13:23:47Z</time></trkpt>
<trkpt lat="46.21743" lon="7.36231"><ele>674.6</ele><time>2016-08-28T13:23:49Z</time></trkpt>
<trkpt lat="46.21752" lon="7.36244"><ele>673</ele><time>2016-08-28T13:23:51Z</time></trkpt>
<trkpt lat="46.21757" lon="7.36251"><ele>672.2</ele><time>2016-08-28T13:23:52Z</time></trkpt>
<trkpt lat="46.21762" lon="7.36259"><ele>671.8</ele><time>2016-08-28T13:23:53Z</time></trkpt>
<trkpt lat="46.21771" lon="7.36274"><ele>671.6</ele><time>2016-08-28T13:23:55Z</time></trkpt>
<trkpt lat="46.21776" lon="7.36282"><ele>671.4</ele><time>2016-08-28T13:23:56Z</time></trkpt>
<trkpt lat="46.21775" lon="7.36294"><ele>671.2</ele><time>2016-08-28T13:23:57Z</time></trkpt>
<trkpt lat="46.21778" lon="7.3631"><ele>670.8</ele><time>2016-08-28T13:23:59Z</time></trkpt>
<trkpt lat="46.21782" lon="7.36324"><ele>670.6</ele><time>2016-08-28T13:24:01Z</time></trkpt>
<trkpt lat="46.21786" lon="7.36339"><ele>670.2</ele><time>2016-08-28T13:24:03Z</time></trkpt>
<trkpt lat="46.21791" lon="7.36354"><ele>669.8</ele><time>2016-08-28T13:24:05Z</time></trkpt>
<trkpt lat="46.21793" lon="7.36361"><ele>669.8</ele><time>2016-08-28T13:24:06Z</time></trkpt>
<trkpt lat="46.21795" lon="7.36368"><ele>669.6</ele><time>2016-08-28T13:24:07Z</time></trkpt>
<trkpt lat="46.21801" lon="7.36381"><ele>669.2</ele><time>2016-08-28T13:24:09Z</time></trkpt>
<trkpt lat="46.21806" lon="7.36395"><ele>666.2</ele><time>2016-08-28T13:24:11Z</time></trkpt>
<trkpt lat="46.21812" lon="7.36408"><ele>663</ele><time>2016-08-28T13:24:13Z</time></trkpt>
<trkpt lat="46.21814" lon="7.36415"><ele>661.2</ele><time>2016-08-28T13:24:14Z</time></trkpt>
<trkpt lat="46.21816" lon="7.36426"><ele>660.4</ele><time>2016-08-28T13:24:15Z</time></trkpt>
<trkpt lat="46.21819" lon="7.36448"><ele>658.8</ele><time>2016-08-28T13:24:17Z</time></trkpt>
<trkpt lat="46.21822" lon="7.36471"><ele>657.2</ele><time>2016-08-28T13:24:19Z</time></trkpt>
<trkpt lat="46.21823" lon="7.36483"><ele>656.4</ele><time>2016-08-28T13:24:20Z</time></trkpt>
<trkpt lat="46.21824" lon="7.36491"><ele>655.6</ele><time>2016-08-28T13:24:21Z</time></trkpt>
<trkpt lat="46.21825" lon="7.36499"><ele>654.8</ele><time>2016-08-28T13:24:22Z</time></trkpt>
<trkpt lat="46.21827" lon="7.36506"><ele>654.2</ele><time>2016-08-28T13:24:23Z</time></trkpt>
<trkpt lat="46.21831" lon="7.3652"><ele>652.6</ele><time>2016-08-28T13:24:25Z</time></trkpt>
<trkpt lat="46.21835" lon="7.36534"><ele>652.8</ele><time>2016-08-28T13:24:27Z</time></trkpt>
<trkpt lat="46.21837" lon="7.3654"><ele>652.8</ele><time>2016-08-28T13:24:28Z</time></trkpt>
<trkpt lat="46.21838" lon="7.36543"><ele>653</ele><time>2016-08-28T13:24:29Z</time></trkpt>
<trkpt lat="46.2184" lon="7.36548"><ele>653.4</ele><time>2016-08-28T13:24:31Z</time></trkpt>
<trkpt lat="46.21842" lon="7.36552"><ele>653.6</ele><time>2016-08-28T13:24:33Z</time></trkpt>
<trkpt lat="46.21844" lon="7.36557"><ele>654</ele><time>2016-08-28T13:24:35Z</time></trkpt>
<trkpt lat="46.21846" lon="7.36562"><ele>654.2</ele><time>2016-08-28T13:24:37Z</time></trkpt>
<trkpt lat="46.21848" lon="7.36566"><ele>654.6</ele><time>2016-08-28T13:24:39Z</time></trkpt>
<trkpt lat="46.2185" lon="7.36571"><ele>654.8</ele><time>2016-08-28T13:24:41Z</time></trkpt>
<trkpt lat="46.21852" lon="7.36575"><ele>655</ele><time>2016-08-28T13:24:43Z</time></trkpt>
<trkpt lat="46.21854" lon="7.3658"><ele>655.2</ele><time>2016-08-28T13:24:45Z</time></trkpt>
<trkpt lat="46.21855" lon="7.36582"><ele>655.4</ele><time>2016-08-28T13:24:46Z</time></trkpt>
<trkpt lat="46.21856" lon="7.36585"><ele>655.4</ele><time>2016-08-28T13:24:47Z</time></trkpt>
<trkpt lat="46.21858" lon="7.36589"><ele>655.6</ele><time>2016-08-28T13:24:49Z</time></trkpt>
<trkpt lat="46.21861" lon="7.36594"><ele>655.6</ele><time>2016-08-28T13:24:51Z</time></trkpt>
<trkpt lat="46.21862" lon="7.36596"><ele>655.6</ele><time>2016-08-28T13:24:52Z</time></trkpt>
<trkpt lat="46.21863" lon="7.36599"><ele>655.8</ele><time>2016-08-28T13:24:53Z</time></trkpt>
<trkpt lat="46.21864" lon="7.36605"><ele>655.8</ele><time>2016-08-28T13:24:55Z</time></trkpt>
<trkpt lat="46.21866" lon="7.36611"><ele>656</ele><time>2016-08-28T13:24:57Z</time></trkpt>
<trkpt lat="46.21868" lon="7.36617"><ele>656</ele><time>2016-08-28T13:24:59Z</time></trkpt>
<trkpt lat="46.21872" lon="7.36629"><ele>656</ele><time>2016-08-28T13:25:01Z</time></trkpt>
<trkpt lat="46.21876" lon="7.36641"><ele>656.2</ele><time>2016-08-28T13:25:03Z</time></trkpt>
<trkpt lat="46.21879" lon="7.36653"><ele>655.4</ele><time>2016-08-28T13:25:05Z</time></trkpt>
<trkpt lat="46.21883" lon="7.36665"><ele>654.8</ele><time>2016-08-28T13:25:07Z</time></trkpt>
<trkpt lat="46.21887" lon="7.36677"><ele>654</ele><time>2016-08-28T13:25:09Z</time></trkpt>
<trkpt lat="46.21889" lon="7.36683"><ele>653.6</ele><time>2016-08-28T13:25:10Z</time></trkpt>
<trkpt lat="46.21892" lon="7.3669"><ele>653.2</ele><time>2016-08-28T13:25:11Z</time></trkpt>
<trkpt lat="46.21899" lon="7.36706"><ele>652.4</ele><time>2016-08-28T13:25:13Z</time></trkpt>
<trkpt lat="46.21907" lon="7.36721"><ele>651.8</ele><time>2016-08-28T13:25:15Z</time></trkpt>
<trkpt lat="46.21914" lon="7.36737"><ele>649.8</ele><time>2016-08-28T13:25:17Z</time></trkpt>
<trkpt lat="46.21917" lon="7.36744"><ele>648.6</ele><time>2016-08-28T13:25:18Z</time></trkpt>
<trkpt lat="46.21923" lon="7.36754"><ele>647.6</ele><time>2016-08-28T13:25:19Z</time></trkpt>
<trkpt lat="46.21935" lon="7.36773"><ele>645.4</ele><time>2016-08-28T13:25:21Z</time></trkpt>
<trkpt lat="46.21946" lon="7.36793"><ele>641.4</ele><time>2016-08-28T13:25:23Z</time></trkpt>
<trkpt lat="46.21954" lon="7.36815"><ele>637.2</ele><time>2016-08-28T13:25:25Z</time></trkpt>
<trkpt lat="46.21962" lon="7.36838"><ele>633</ele><time>2016-08-28T13:25:27Z</time></trkpt>
<trkpt lat="46.2197" lon="7.36861"><ele>630.8</ele><time>2016-08-28T13:25:29Z</time></trkpt>
<trkpt lat="46.21974" lon="7.36885"><ele>628.6</ele><time>2016-08-28T13:25:31Z</time></trkpt>
<trkpt lat="46.21978" lon="7.36908"><ele>626.6</ele><time>2016-08-28T13:25:33Z</time></trkpt>
<trkpt lat="46.21982" lon="7.36932"><ele>624.2</ele><time>2016-08-28T13:25:35Z</time></trkpt>
<trkpt lat="46.21984" lon="7.36951"><ele>621.8</ele><time>2016-08-28T13:25:37Z</time></trkpt>
<trkpt lat="46.21981" lon="7.36963"><ele>620.8</ele><time>2016-08-28T13:25:38Z</time></trkpt>
<trkpt lat="46.21979" lon="7.36975"><ele>619.4</ele><time>2016-08-28T13:25:39Z</time></trkpt>
<trkpt lat="46.21973" lon="7.36999"><ele>616.4</ele><time>2016-08-28T13:25:41Z</time></trkpt>
<trkpt lat="46.2197" lon="7.37012"><ele>614.8</ele><time>2016-08-28T13:25:42Z</time></trkpt>
<trkpt lat="46.21971" lon="7.37016"><ele>613.4</ele><time>2016-08-28T13:25:43Z</time></trkpt>
<trkpt lat="46.21971" lon="7.37019"><ele>612</ele><time>2016-08-28T13:25:44Z</time></trkpt>
<trkpt lat="46.21972" lon="7.37022"><ele>610.6</ele><time>2016-08-28T13:25:45Z</time></trkpt>
<trkpt lat="46.21983" lon="7.37036"><ele>607.8</ele><time>2016-08-28T13:25:47Z</time></trkpt>
<trkpt lat="46.21994" lon="7.3705"><ele>605</ele><time>2016-08-28T13:25:49Z</time></trkpt>
<trkpt lat="46.22005" lon="7.37064"><ele>603</ele><time>2016-08-28T13:25:51Z</time></trkpt>
<trkpt lat="46.22013" lon="7.37079"><ele>601</ele><time>2016-08-28T13:25:53Z</time></trkpt>
<trkpt lat="46.2202" lon="7.37093"><ele>599.2</ele><time>2016-08-28T13:25:55Z</time></trkpt>
<trkpt lat="46.22023" lon="7.371"><ele>597.8</ele><time>2016-08-28T13:25:56Z</time></trkpt>
<trkpt lat="46.22031" lon="7.37105"><ele>596.2</ele><time>2016-08-28T13:25:57Z</time></trkpt>
<trkpt lat="46.22049" lon="7.37113"><ele>593.2</ele><time>2016-08-28T13:25:59Z</time></trkpt>
<trkpt lat="46.22066" lon="7.37121"><ele>590.2</ele><time>2016-08-28T13:26:01Z</time></trkpt>
<trkpt lat="46.22075" lon="7.37129"><ele>587</ele><time>2016-08-28T13:26:03Z</time></trkpt>
<trkpt lat="46.22079" lon="7.37133"><ele>585.4</ele><time>2016-08-28T13:26:04Z</time></trkpt>
<trkpt lat="46.22083" lon="7.37133"><ele>583.8</ele><time>2016-08-28T13:26:05Z</time></trkpt>
<trkpt lat="46.22088" lon="7.37137"><ele>582.2</ele><time>2016-08-28T13:26:06Z</time></trkpt>
<trkpt lat="46.22092" lon="7.37142"><ele>581.4</ele><time>2016-08-28T13:26:07Z</time></trkpt>
<trkpt lat="46.22102" lon="7.37153"><ele>579.8</ele><time>2016-08-28T13:26:09Z</time></trkpt>
<trkpt lat="46.22112" lon="7.37163"><ele>578.2</ele><time>2016-08-28T13:26:11Z</time></trkpt>
<trkpt lat="46.22116" lon="7.37168"><ele>577.4</ele><time>2016-08-28T13:26:12Z</time></trkpt>
<trkpt lat="46.22122" lon="7.37177"><ele>576.6</ele><time>2016-08-28T13:26:13Z</time></trkpt>
<trkpt lat="46.22134" lon="7.37196"><ele>575.2</ele><time>2016-08-28T13:26:15Z</time></trkpt>
<trkpt lat="46.2214" lon="7.37206"><ele>574.4</ele><time>2016-08-28T13:26:16Z</time></trkpt>
<trkpt lat="46.22145" lon="7.3721"><ele>573.8</ele><time>2016-08-28T13:26:17Z</time></trkpt>
<trkpt lat="46.2215" lon="7.37213"><ele>572.8</ele><time>2016-08-28T13:26:18Z</time></trkpt>
<trkpt lat="46.22158" lon="7.37214"><ele>571.8</ele><time>2016-08-28T13:26:19Z</time></trkpt>
<trkpt lat="46.22174" lon="7.37215"><ele>569.8</ele><time>2016-08-28T13:26:21Z</time></trkpt>
<trkpt lat="46.2219" lon="7.37215"><ele>567.8</ele><time>2016-08-28T13:26:23Z</time></trkpt>
<trkpt lat="46.22198" lon="7.37216"><ele>566.8</ele><time>2016-08-28T13:26:24Z</time></trkpt>
<trkpt lat="46.2221" lon="7.37216"><ele>565.8</ele><time>2016-08-28T13:26:25Z</time></trkpt>
<trkpt lat="46.22235" lon="7.37217"><ele>563.8</ele><time>2016-08-28T13:26:27Z</time></trkpt>
<trkpt lat="46.22247" lon="7.37218"><ele>562.6</ele><time>2016-08-28T13:26:28Z</time></trkpt>
<trkpt lat="46.22259" lon="7.37216"><ele>561.4</ele><time>2016-08-28T13:26:29Z</time></trkpt>
<trkpt lat="46.22282" lon="7.37213"><ele>559</ele><time>2016-08-28T13:26:31Z</time></trkpt>
<trkpt lat="46.22293" lon="7.37211"><ele>557.6</ele><time>2016-08-28T13:26:32Z</time></trkpt>
<trkpt lat="46.22302" lon="7.37209"><ele>556.4</ele><time>2016-08-28T13:26:33Z</time></trkpt>
<trkpt lat="46.2231" lon="7.37207"><ele>555.2</ele><time>2016-08-28T13:26:34Z</time></trkpt>
<trkpt lat="46.22319" lon="7.372"><ele>554</ele><time>2016-08-28T13:26:35Z</time></trkpt>
<trkpt lat="46.22338" lon="7.37195"><ele>551.6</ele><time>2016-08-28T13:26:37Z</time></trkpt>
<trkpt lat="46.22357" lon="7.3719"><ele>549.2</ele><time>2016-08-28T13:26:39Z</time></trkpt>
<trkpt lat="46.22367" lon="7.37187"><ele>548.2</ele><time>2016-08-28T13:26:40Z</time></trkpt>
<trkpt lat="46.22373" lon="7.37185"><ele>547.4</ele><time>2016-08-28T13:26:41Z</time></trkpt>
<trkpt lat="46.22386" lon="7.3718"><ele>545.8</ele><time>2016-08-28T13:26:43Z</time></trkpt>
<trkpt lat="46.22393" lon="7.37178"><ele>545</ele><time>2016-08-28T13:26:44Z</time></trkpt>
<trkpt lat="46.22399" lon="7.37176"><ele>544.8</ele><time>2016-08-28T13:26:45Z</time></trkpt>
<trkpt lat="46.22405" lon="7.37174"><ele>544.8</ele><time>2016-08-28T13:26:46Z</time></trkpt>
<trkpt lat="46.22408" lon="7.37177"><ele>544.6</ele><time>2016-08-28T13:26:47Z</time></trkpt>
<trkpt lat="46.22414" lon="7.37186"><ele>544.4</ele><time>2016-08-28T13:26:49Z</time></trkpt>
<trkpt lat="46.22419" lon="7.37195"><ele>544.2</ele><time>2016-08-28T13:26:51Z</time></trkpt>
<trkpt lat="46.22424" lon="7.37204"><ele>544</ele><time>2016-08-28T13:26:53Z</time></trkpt>
<trkpt lat="46.2243" lon="7.37213"><ele>543.8</ele><time>2016-08-28T13:26:55Z</time></trkpt>
<trkpt lat="46.22435" lon="7.37222"><ele>543.6</ele><time>2016-08-28T13:26:57Z</time></trkpt>
<trkpt lat="46.22441" lon="7.37231"><ele>543.4</ele><time>2016-08-28T13:26:59Z</time></trkpt>
<trkpt lat="46.22447" lon="7.3724"><ele>543</ele><time>2016-08-28T13:27:01Z</time></trkpt>
<trkpt lat="46.22453" lon="7.37249"><ele>543.2</ele><time>2016-08-28T13:27:03Z</time></trkpt>
<trkpt lat="46.22456" lon="7.37253"><ele>543.2</ele><time>2016-08-28T13:27:04Z</time></trkpt>
<trkpt lat="46.22459" lon="7.37256"><ele>543.4</ele><time>2016-08-28T13:27:05Z</time></trkpt>
<trkpt lat="46.22467" lon="7.37263"><ele>543.6</ele><time>2016-08-28T13:27:07Z</time></trkpt>
<trkpt lat="46.22475" lon="7.37269"><ele>543.6</ele><time>2016-08-28T13:27:09Z</time></trkpt>
<trkpt lat="46.22483" lon="7.37275"><ele>543.6</ele><time>2016-08-28T13:27:11Z</time></trkpt>
<trkpt lat="46.22491" lon="7.37282"><ele>543.6</ele><time>2016-08-28T13:27:13Z</time></trkpt>
<trkpt lat="46.22495" lon="7.37285"><ele>543.6</ele><time>2016-08-28T13:27:14Z</time></trkpt>
<trkpt lat="46.22499" lon="7.37288"><ele>543.6</ele><time>2016-08-28T13:27:15Z</time></trkpt>
<trkpt lat="46.22506" lon="7.37293"><ele>543.6</ele><time>2016-08-28T13:27:17Z</time></trkpt>
<trkpt lat="46.22514" lon="7.37299"><ele>543.8</ele><time>2016-08-28T13:27:19Z</time></trkpt>
<trkpt lat="46.22521" lon="7.37304"><ele>543.8</ele><time>2016-08-28T13:27:21Z</time></trkpt>
<trkpt lat="46.22529" lon="7.3731"><ele>543.8</ele><time>2016-08-28T13:27:23Z</time></trkpt>
<trkpt lat="46.22533" lon="7.37312"><ele>543.8</ele><time>2016-08-28T13:27:24Z</time></trkpt>
<trkpt lat="46.22535" lon="7.37317"><ele>543.8</ele><time>2016-08-28T13:27:25Z</time></trkpt>
<trkpt lat="46.2254" lon="7.37327"><ele>543.8</ele><time>2016-08-28T13:27:27Z</time></trkpt>
<trkpt lat="46.22544" lon="7.37337"><ele>543.8</ele><time>2016-08-28T13:27:29Z</time></trkpt>
<trkpt lat="46.22548" lon="7.3734"><ele>543.8</ele><time>2016-08-28T13:27:30Z</time></trkpt>
<trkpt lat="46.22553" lon="7.37339"><ele>543.8</ele><time>2016-08-28T13:27:31Z</time></trkpt>
<trkpt lat="46.22563" lon="7.37337"><ele>544</ele><time>2016-08-28T13:27:33Z</time></trkpt>
<trkpt lat="46.22573" lon="7.37334"><ele>544</ele><time>2016-08-28T13:27:35Z</time></trkpt>
<trkpt lat="46.22584" lon="7.37332"><ele>544</ele><time>2016-08-28T13:27:37Z</time></trkpt>
<trkpt lat="46.22594" lon="7.3733"><ele>544</ele><time>2016-08-28T13:27:39Z</time></trkpt>
<trkpt lat="46.22602" lon="7.37321"><ele>544</ele><time>2016-08-28T13:27:41Z</time></trkpt>
<trkpt lat="46.22603" lon="7.37309"><ele>544</ele><time>2016-08-28T13:27:43Z</time></trkpt>
<trkpt lat="46.22601" lon="7.37319"><ele>544</ele><time>2016-08-28T13:27:44Z</time></trkpt>
<trkpt lat="46.22599" lon="7.3732"><ele>544</ele><time>2016-08-28T13:27:45Z</time></trkpt>
<trkpt lat="46.22609" lon="7.37298"><ele>544</ele><time>2016-08-28T13:27:46Z</time></trkpt>
<trkpt lat="46.22607" lon="7.37315"><ele>544</ele><time>2016-08-28T13:27:47Z</time></trkpt>
<trkpt lat="46.22606" lon="7.37317"><ele>544.2</ele><time>2016-08-28T13:27:48Z</time></trkpt>
<trkpt lat="46.22607" lon="7.37317"><ele>544.2</ele><time>2016-08-28T13:27:49Z</time></trkpt>
<trkpt lat="46.22617" lon="7.37307"><ele>544.2</ele><time>2016-08-28T13:27:50Z</time></trkpt>
<trkpt lat="46.2262" lon="7.37309"><ele>544.2</ele><time>2016-08-28T13:27:51Z</time></trkpt>
<trkpt lat="46.22621" lon="7.37314"><ele>544.2</ele><time>2016-08-28T13:27:52Z</time></trkpt>
<trkpt lat="46.2262" lon="7.37317"><ele>544.2</ele><time>2016-08-28T13:27:53Z</time></trkpt>
<trkpt lat="46.22618" lon="7.37321"><ele>544.2</ele><time>2016-08-28T13:27:54Z</time></trkpt>
<trkpt lat="46.22615" lon="7.37321"><ele>544.2</ele><time>2016-08-28T13:27:55Z</time></trkpt>
<trkpt lat="46.22613" lon="7.37321"><ele>544.2</ele><time>2016-08-28T13:27:56Z</time></trkpt>
<trkpt lat="46.22612" lon="7.37318"><ele>544.2</ele><time>2016-08-28T13:27:57Z</time></trkpt>
<trkpt lat="46.22612" lon="7.37313"><ele>544.2</ele><time>2016-08-28T13:27:59Z</time></trkpt>
<trkpt lat="46.22616" lon="7.37312"><ele>544.2</ele><time>2016-08-28T13:28:01Z</time></trkpt>
<trkpt lat="46.2262" lon="7.37312"><ele>544.4</ele><time>2016-08-28T13:28:03Z</time></trkpt>
<trkpt lat="46.22623" lon="7.37312"><ele>544.4</ele><time>2016-08-28T13:28:04Z</time></trkpt>
<trkpt lat="46.22624" lon="7.37315"><ele>544.4</ele><time>2016-08-28T13:28:05Z</time></trkpt>
<trkpt lat="46.22626" lon="7.37319"><ele>544.4</ele><time>2016-08-28T13:28:06Z</time></trkpt>
<trkpt lat="46.22626" lon="7.37324"><ele>544.4</ele><time>2016-08-28T13:28:07Z</time></trkpt>
<trkpt lat="46.22626" lon="7.37331"><ele>544.4</ele><time>2016-08-28T13:28:08Z</time></trkpt>
<trkpt lat="46.22622" lon="7.37353"><ele>544.4</ele><time>2016-08-28T13:28:09Z</time></trkpt>
<trkpt lat="46.22606" lon="7.37342"><ele>544.4</ele><time>2016-08-28T13:28:11Z</time></trkpt>
<trkpt lat="46.22615" lon="7.37346"><ele>544.4</ele><time>2016-08-28T13:28:12Z</time></trkpt>
<trkpt lat="46.22606" lon="7.3731"><ele>544.4</ele><time>2016-08-28T13:28:13Z</time></trkpt>
<trkpt lat="46.22605" lon="7.37309"><ele>544.4</ele><time>2016-08-28T13:28:15Z</time></trkpt>
<trkpt lat="46.22605" lon="7.37316"><ele>544.4</ele><time>2016-08-28T13:28:17Z</time></trkpt>
<trkpt lat="46.22611" lon="7.37308"><ele>545.2</ele><time>2016-08-28T13:28:18Z</time></trkpt>
<trkpt lat="46.22611" lon="7.37308"><ele>545.2</ele><time>2016-08-28T13:29:52Z</time></trkpt>
<trkpt lat="46.22616" lon="7.37297"><ele>545.8</ele><time>2016-08-28T13:29:53Z</time></trkpt>
<trkpt lat="46.22626" lon="7.37287"><ele>545.8</ele><time>2016-08-28T13:29:55Z</time></trkpt>
<trkpt lat="46.22636" lon="7.37277"><ele>545.8</ele><time>2016-08-28T13:29:57Z</time></trkpt>
<trkpt lat="46.22646" lon="7.37268"><ele>545.8</ele><time>2016-08-28T13:29:59Z</time></trkpt>
<trkpt lat="46.22655" lon="7.3726"><ele>546</ele><time>2016-08-28T13:30:01Z</time></trkpt>
<trkpt lat="46.22664" lon="7.37252"><ele>546</ele><time>2016-08-28T13:30:03Z</time></trkpt>
<trkpt lat="46.22674" lon="7.37244"><ele>546</ele><time>2016-08-28T13:30:05Z</time></trkpt>
<trkpt lat="46.22683" lon="7.37235"><ele>546</ele><time>2016-08-28T13:30:07Z</time></trkpt>
<trkpt lat="46.22687" lon="7.37231"><ele>546</ele><time>2016-08-28T13:30:08Z</time></trkpt>
<trkpt lat="46.22693" lon="7.37227"><ele>546</ele><time>2016-08-28T13:30:09Z</time></trkpt>
<trkpt lat="46.22704" lon="7.37219"><ele>546</ele><time>2016-08-28T13:30:11Z</time></trkpt>
<trkpt lat="46.22715" lon="7.3721"><ele>546</ele><time>2016-08-28T13:30:13Z</time></trkpt>
<trkpt lat="46.22726" lon="7.37202"><ele>546</ele><time>2016-08-28T13:30:15Z</time></trkpt>
<trkpt lat="46.22731" lon="7.37198"><ele>546.2</ele><time>2016-08-28T13:30:16Z</time></trkpt>
<trkpt lat="46.22737" lon="7.37194"><ele>546.2</ele><time>2016-08-28T13:30:17Z</time></trkpt>
<trkpt lat="46.22748" lon="7.37186"><ele>546.2</ele><time>2016-08-28T13:30:19Z</time></trkpt>
<trkpt lat="46.22758" lon="7.37179"><ele>546.2</ele><time>2016-08-28T13:30:21Z</time></trkpt>
<trkpt lat="46.22769" lon="7.37171"><ele>546.2</ele><time>2016-08-28T13:30:23Z</time></trkpt>
<trkpt lat="46.22774" lon="7.37167"><ele>546.2</ele><time>2016-08-28T13:30:24Z</time></trkpt>
<trkpt lat="46.22779" lon="7.37165"><ele>546.2</ele><time>2016-08-28T13:30:25Z</time></trkpt>
<trkpt lat="46.22788" lon="7.3716"><ele>546.2</ele><time>2016-08-28T13:30:27Z</time></trkpt>
<trkpt lat="46.22796" lon="7.37162"><ele>546.2</ele><time>2016-08-28T13:30:29Z</time></trkpt>
<trkpt lat="46.22805" lon="7.37163"><ele>546.4</ele><time>2016-08-28T13:30:31Z</time></trkpt>
<trkpt lat="46.22809" lon="7.37164"><ele>546.4</ele><time>2016-08-28T13:30:32Z</time></trkpt>
<trkpt lat="46.22812" lon="7.37159"><ele>546.4</ele><time>2016-08-28T13:30:33Z</time></trkpt>
<trkpt lat="46.22814" lon="7.37152"><ele>546.4</ele><time>2016-08-28T13:30:34Z</time></trkpt>
<trkpt lat="46.22813" lon="7.37151"><ele>546.4</ele><time>2016-08-28T13:30:35Z</time></trkpt>
<trkpt lat="46.22811" lon="7.37149"><ele>546.4</ele><time>2016-08-28T13:30:36Z</time></trkpt>
<trkpt lat="46.22812" lon="7.37141"><ele>546.4</ele><time>2016-08-28T13:30:37Z</time></trkpt>
<trkpt lat="46.22814" lon="7.37122"><ele>546.4</ele><time>2016-08-28T13:30:39Z</time></trkpt>
<trkpt lat="46.22817" lon="7.37103"><ele>546.4</ele><time>2016-08-28T13:30:41Z</time></trkpt>
<trkpt lat="46.22818" lon="7.37094"><ele>546.4</ele><time>2016-08-28T13:30:42Z</time></trkpt>
<trkpt lat="46.2282" lon="7.37087"><ele>546.4</ele><time>2016-08-28T13:30:43Z</time></trkpt>
<trkpt lat="46.22823" lon="7.37073"><ele>546.4</ele><time>2016-08-28T13:30:45Z</time></trkpt>
<trkpt lat="46.22827" lon="7.37059"><ele>546.6</ele><time>2016-08-28T13:30:47Z</time></trkpt>
<trkpt lat="46.22831" lon="7.37046"><ele>546.6</ele><time>2016-08-28T13:30:49Z</time></trkpt>
<trkpt lat="46.22834" lon="7.37032"><ele>546.6</ele><time>2016-08-28T13:30:51Z</time></trkpt>
<trkpt lat="46.22838" lon="7.37018"><ele>546.6</ele><time>2016-08-28T13:30:53Z</time></trkpt>
<trkpt lat="46.22843" lon="7.37004"><ele>546.6</ele><time>2016-08-28T13:30:55Z</time></trkpt>
<trkpt lat="46.22847" lon="7.3699"><ele>546.6</ele><time>2016-08-28T13:30:57Z</time></trkpt>
<trkpt lat="46.22852" lon="7.36976"><ele>546.8</ele><time>2016-08-28T13:30:59Z</time></trkpt>
<trkpt lat="46.22857" lon="7.36962"><ele>546.8</ele><time>2016-08-28T13:31:01Z</time></trkpt>
<trkpt lat="46.22859" lon="7.36955"><ele>546.8</ele><time>2016-08-28T13:31:02Z</time></trkpt>
<trkpt lat="46.22862" lon="7.36947"><ele>546.8</ele><time>2016-08-28T13:31:03Z</time></trkpt>
<trkpt lat="46.22867" lon="7.36932"><ele>546.8</ele><time>2016-08-28T13:31:05Z</time></trkpt>
<trkpt lat="46.22873" lon="7.36917"><ele>546.6</ele><time>2016-08-28T13:31:07Z</time></trkpt>
<trkpt lat="46.22878" lon="7.36902"><ele>546.6</ele><time>2016-08-28T13:31:09Z</time></trkpt>
<trkpt lat="46.22873" lon="7.369"><ele>546.6</ele><time>2016-08-28T13:31:11Z</time></trkpt>
<trkpt lat="46.22873" lon="7.36897"><ele>546.6</ele><time>2016-08-28T13:31:12Z</time></trkpt>
<trkpt lat="46.22899" lon="7.36898"><ele>546.6</ele><time>2016-08-28T13:31:13Z</time></trkpt>
<trkpt lat="46.22912" lon="7.36907"><ele>546.4</ele><time>2016-08-28T13:31:15Z</time></trkpt>
<trkpt lat="46.22922" lon="7.36917"><ele>546.4</ele><time>2016-08-28T13:31:17Z</time></trkpt>
<trkpt lat="46.22931" lon="7.36927"><ele>546.4</ele><time>2016-08-28T13:31:19Z</time></trkpt>
<trkpt lat="46.22941" lon="7.3693"><ele>546.2</ele><time>2016-08-28T13:31:21Z</time></trkpt>
<trkpt lat="46.22952" lon="7.36932"><ele>546.2</ele><time>2016-08-28T13:31:23Z</time></trkpt>
<trkpt lat="46.22961" lon="7.36932"><ele>546.2</ele><time>2016-08-28T13:31:25Z</time></trkpt>
<trkpt lat="46.22971" lon="7.36932"><ele>546</ele><time>2016-08-28T13:31:27Z</time></trkpt>
<trkpt lat="46.22981" lon="7.36931"><ele>546</ele><time>2016-08-28T13:31:29Z</time></trkpt>
<trkpt lat="46.22991" lon="7.36931"><ele>546</ele><time>2016-08-28T13:31:31Z</time></trkpt>
<trkpt lat="46.23" lon="7.36931"><ele>546</ele><time>2016-08-28T13:31:33Z</time></trkpt>
<trkpt lat="46.2301" lon="7.3693"><ele>545.8</ele><time>2016-08-28T13:31:35Z</time></trkpt>
<trkpt lat="46.2302" lon="7.3693"><ele>545.8</ele><time>2016-08-28T13:31:37Z</time></trkpt>
<trkpt lat="46.23029" lon="7.3693"><ele>545.8</ele><time>2016-08-28T13:31:39Z</time></trkpt>
<trkpt lat="46.23039" lon="7.3693"><ele>545.6</ele><time>2016-08-28T13:31:41Z</time></trkpt>
<trkpt lat="46.23044" lon="7.3693"><ele>545.6</ele><time>2016-08-28T13:31:42Z</time></trkpt>
<trkpt lat="46.23048" lon="7.36931"><ele>545.6</ele><time>2016-08-28T13:31:43Z</time></trkpt>
<trkpt lat="46.23058" lon="7.36933"><ele>545.6</ele><time>2016-08-28T13:31:45Z</time></trkpt>
<trkpt lat="46.23068" lon="7.36936"><ele>545.4</ele><time>2016-08-28T13:31:47Z</time></trkpt>
<trkpt lat="46.23077" lon="7.36938"><ele>545.4</ele><time>2016-08-28T13:31:49Z</time></trkpt>
<trkpt lat="46.23087" lon="7.3694"><ele>545.4</ele><time>2016-08-28T13:31:51Z</time></trkpt>
<trkpt lat="46.23092" lon="7.36941"><ele>545.4</ele><time>2016-08-28T13:31:52Z</time></trkpt>
<trkpt lat="46.23097" lon="7.36942"><ele>545.4</ele><time>2016-08-28T13:31:53Z</time></trkpt>
<trkpt lat="46.23107" lon="7.36945"><ele>545.2</ele><time>2016-08-28T13:31:55Z</time></trkpt>
<trkpt lat="46.23117" lon="7.36947"><ele>545.2</ele><time>2016-08-28T13:31:57Z</time></trkpt>
<trkpt lat="46.23128" lon="7.36949"><ele>545.2</ele><time>2016-08-28T13:31:59Z</time></trkpt>
<trkpt lat="46.23138" lon="7.36951"><ele>545</ele><time>2016-08-28T13:32:01Z</time></trkpt>
<trkpt lat="46.23147" lon="7.36953"><ele>545</ele><time>2016-08-28T13:32:03Z</time></trkpt>
<trkpt lat="46.23156" lon="7.36955"><ele>545</ele><time>2016-08-28T13:32:05Z</time></trkpt>
<trkpt lat="46.23166" lon="7.36956"><ele>544.8</ele><time>2016-08-28T13:32:07Z</time></trkpt>
<trkpt lat="46.23175" lon="7.36958"><ele>544.8</ele><time>2016-08-28T13:32:09Z</time></trkpt>
<trkpt lat="46.23184" lon="7.3696"><ele>544.8</ele><time>2016-08-28T13:32:11Z</time></trkpt>
<trkpt lat="46.23193" lon="7.36962"><ele>544.8</ele><time>2016-08-28T13:32:13Z</time></trkpt>
<trkpt lat="46.23202" lon="7.36964"><ele>544.6</ele><time>2016-08-28T13:32:15Z</time></trkpt>
<trkpt lat="46.23211" lon="7.36966"><ele>544.6</ele><time>2016-08-28T13:32:17Z</time></trkpt>
<trkpt lat="46.23219" lon="7.36968"><ele>544.6</ele><time>2016-08-28T13:32:19Z</time></trkpt>
<trkpt lat="46.23228" lon="7.3697"><ele>544.4</ele><time>2016-08-28T13:32:21Z</time></trkpt>
<trkpt lat="46.23236" lon="7.36973"><ele>544.4</ele><time>2016-08-28T13:32:23Z</time></trkpt>
<trkpt lat="46.23243" lon="7.36976"><ele>544.4</ele><time>2016-08-28T13:32:25Z</time></trkpt>
<trkpt lat="46.2325" lon="7.36979"><ele>544.2</ele><time>2016-08-28T13:32:27Z</time></trkpt>
<trkpt lat="46.23257" lon="7.36982"><ele>544.2</ele><time>2016-08-28T13:32:29Z</time></trkpt>
<trkpt lat="46.23263" lon="7.3698"><ele>544.2</ele><time>2016-08-28T13:32:31Z</time></trkpt>
<trkpt lat="46.2327" lon="7.36978"><ele>544.2</ele><time>2016-08-28T13:32:33Z</time></trkpt>
<trkpt lat="46.23277" lon="7.36981"><ele>544</ele><time>2016-08-28T13:32:35Z</time></trkpt>
<trkpt lat="46.23284" lon="7.36984"><ele>544</ele><time>2016-08-28T13:32:37Z</time></trkpt>
<trkpt lat="46.23291" lon="7.36987"><ele>544</ele><time>2016-08-28T13:32:39Z</time></trkpt>
<trkpt lat="46.23299" lon="7.3699"><ele>543.8</ele><time>2016-08-28T13:32:41Z</time></trkpt>
<trkpt lat="46.23306" lon="7.36993"><ele>543.8</ele><time>2016-08-28T13:32:43Z</time></trkpt>
<trkpt lat="46.23298" lon="7.36989"><ele>543.8</ele><time>2016-08-28T13:32:45Z</time></trkpt>
<trkpt lat="46.23289" lon="7.36985"><ele>543.6</ele><time>2016-08-28T13:32:47Z</time></trkpt>
<trkpt lat="46.2328" lon="7.36981"><ele>543.6</ele><time>2016-08-28T13:32:49Z</time></trkpt>
<trkpt lat="46.23271" lon="7.36976"><ele>543</ele><time>2016-08-28T13:32:51Z</time></trkpt>
<trkpt lat="46.23262" lon="7.36972"><ele>542.2</ele><time>2016-08-28T13:32:53Z</time></trkpt>
<trkpt lat="46.2326" lon="7.36971"><ele>541.8</ele><time>2016-08-28T13:32:54Z</time></trkpt>
<trkpt lat="46.2326" lon="7.36969"><ele>541.4</ele><time>2016-08-28T13:32:55Z</time></trkpt>
<trkpt lat="46.2326" lon="7.36964"><ele>541.4</ele><time>2016-08-28T13:32:57Z</time></trkpt>
<trkpt lat="46.23261" lon="7.36959"><ele>541.2</ele><time>2016-08-28T13:32:59Z</time></trkpt>
<trkpt lat="46.23261" lon="7.36956"><ele>541.2</ele><time>2016-08-28T13:33:00Z</time></trkpt>
<trkpt lat="46.23264" lon="7.36957"><ele>541.4</ele><time>2016-08-28T13:33:01Z</time></trkpt>
<trkpt lat="46.2327" lon="7.36959"><ele>541.8</ele><time>2016-08-28T13:33:03Z</time></trkpt>
<trkpt lat="46.23276" lon="7.36961"><ele>542</ele><time>2016-08-28T13:33:05Z</time></trkpt>
<trkpt lat="46.23282" lon="7.36964"><ele>542.4</ele><time>2016-08-28T13:33:07Z</time></trkpt>
<trkpt lat="46.23288" lon="7.36966"><ele>542.8</ele><time>2016-08-28T13:33:09Z</time></trkpt>
<trkpt lat="46.23294" lon="7.36968"><ele>543.2</ele><time>2016-08-28T13:33:11Z</time></trkpt>
<trkpt lat="46.23307" lon="7.3696"><ele>544.4</ele><time>2016-08-28T13:33:13Z</time></trkpt>
<trkpt lat="46.23307" lon="7.3696"><ele>544.4</ele><time>2016-08-28T13:33:54Z</time></trkpt>
<trkpt lat="46.23314" lon="7.3695"><ele>545.2</ele><time>2016-08-28T13:33:55Z</time></trkpt>
<trkpt lat="46.23317" lon="7.36938"><ele>545.2</ele><time>2016-08-28T13:33:57Z</time></trkpt>
<trkpt lat="46.23319" lon="7.36927"><ele>545.4</ele><time>2016-08-28T13:33:59Z</time></trkpt>
<trkpt lat="46.23322" lon="7.36916"><ele>545.4</ele><time>2016-08-28T13:34:01Z</time></trkpt>
<trkpt lat="46.23324" lon="7.3691"><ele>545.4</ele><time>2016-08-28T13:34:02Z</time></trkpt>
<trkpt lat="46.23324" lon="7.36909"><ele>545.6</ele><time>2016-08-28T13:34:03Z</time></trkpt>
<trkpt lat="46.23325" lon="7.36907"><ele>545.6</ele><time>2016-08-28T13:34:05Z</time></trkpt>
<trkpt lat="46.23326" lon="7.36905"><ele>545.6</ele><time>2016-08-28T13:34:07Z</time></trkpt>
<trkpt lat="46.23327" lon="7.36903"><ele>545.8</ele><time>2016-08-28T13:34:09Z</time></trkpt>
<trkpt lat="46.2332" lon="7.36898"><ele>545.8</ele><time>2016-08-28T13:34:11Z</time></trkpt>
<trkpt lat="46.23313" lon="7.36893"><ele>546</ele><time>2016-08-28T13:34:13Z</time></trkpt>
<trkpt lat="46.23305" lon="7.36888"><ele>546</ele><time>2016-08-28T13:34:15Z</time></trkpt>
<trkpt lat="46.23298" lon="7.36884"><ele>546.2</ele><time>2016-08-28T13:34:17Z</time></trkpt>
<trkpt lat="46.2329" lon="7.36879"><ele>546.2</ele><time>2016-08-28T13:34:19Z</time></trkpt>
<trkpt lat="46.23283" lon="7.36874"><ele>546.2</ele><time>2016-08-28T13:34:21Z</time></trkpt>
<trkpt lat="46.23276" lon="7.36867"><ele>546.4</ele><time>2016-08-28T13:34:23Z</time></trkpt>
<trkpt lat="46.23269" lon="7.3686"><ele>546.4</ele><time>2016-08-28T13:34:25Z</time></trkpt>
<trkpt lat="46.23262" lon="7.36854"><ele>546.6</ele><time>2016-08-28T13:34:27Z</time></trkpt>
<trkpt lat="46.23255" lon="7.36847"><ele>546.6</ele><time>2016-08-28T13:34:29Z</time></trkpt>
<trkpt lat="46.23248" lon="7.3684"><ele>546.8</ele><time>2016-08-28T13:34:31Z</time></trkpt>
<trkpt lat="46.23241" lon="7.36833"><ele>546.8</ele><time>2016-08-28T13:34:33Z</time></trkpt>
<trkpt lat="46.23237" lon="7.36823"><ele>546.8</ele><time>2016-08-28T13:34:35Z</time></trkpt>
<trkpt lat="46.23234" lon="7.36813"><ele>547</ele><time>2016-08-28T13:34:37Z</time></trkpt>
<trkpt lat="46.23232" lon="7.36808"><ele>547</ele><time>2016-08-28T13:34:38Z</time></trkpt>
<trkpt lat="46.23254" lon="7.36745"><ele>547</ele><time>2016-08-28T13:34:39Z</time></trkpt>
<trkpt lat="46.23256" lon="7.36724"><ele>547.2</ele><time>2016-08-28T13:34:41Z</time></trkpt>
<trkpt lat="46.23255" lon="7.36713"><ele>547.2</ele><time>2016-08-28T13:34:43Z</time></trkpt>
<trkpt lat="46.23254" lon="7.36702"><ele>547.4</ele><time>2016-08-28T13:34:45Z</time></trkpt>
<trkpt lat="46.23252" lon="7.3669"><ele>547.4</ele><time>2016-08-28T13:34:47Z</time></trkpt>
<trkpt lat="46.23252" lon="7.36685"><ele>547.4</ele><time>2016-08-28T13:34:48Z</time></trkpt>
<trkpt lat="46.23251" lon="7.36679"><ele>547.6</ele><time>2016-08-28T13:34:49Z</time></trkpt>
<trkpt lat="46.2325" lon="7.36668"><ele>548</ele><time>2016-08-28T13:34:51Z</time></trkpt>
<trkpt lat="46.23249" lon="7.36659"><ele>548.4</ele><time>2016-08-28T13:34:53Z</time></trkpt>
<trkpt lat="46.23249" lon="7.3665"><ele>548.8</ele><time>2016-08-28T13:34:55Z</time></trkpt>
<trkpt lat="46.23249" lon="7.36642"><ele>549.2</ele><time>2016-08-28T13:34:57Z</time></trkpt>
<trkpt lat="46.23248" lon="7.36633"><ele>549.6</ele><time>2016-08-28T13:34:59Z</time></trkpt>
<trkpt lat="46.23248" lon="7.36624"><ele>550</ele><time>2016-08-28T13:35:01Z</time></trkpt>
<trkpt lat="46.23248" lon="7.36616"><ele>550.4</ele><time>2016-08-28T13:35:03Z</time></trkpt>
<trkpt lat="46.23247" lon="7.36607"><ele>550.6</ele><time>2016-08-28T13:35:05Z</time></trkpt>
<trkpt lat="46.23247" lon="7.36602"><ele>550.8</ele><time>2016-08-28T13:35:06Z</time></trkpt>
<trkpt lat="46.23247" lon="7.36598"><ele>551</ele><time>2016-08-28T13:35:07Z</time></trkpt>
<trkpt lat="46.23246" lon="7.36589"><ele>551.2</ele><time>2016-08-28T13:35:09Z</time></trkpt>
<trkpt lat="46.23246" lon="7.3658"><ele>551.6</ele><time>2016-08-28T13:35:11Z</time></trkpt>
<trkpt lat="46.23245" lon="7.36571"><ele>551.8</ele><time>2016-08-28T13:35:13Z</time></trkpt>
<trkpt lat="46.23245" lon="7.36562"><ele>552.2</ele><time>2016-08-28T13:35:15Z</time></trkpt>
<trkpt lat="46.23244" lon="7.36553"><ele>552.4</ele><time>2016-08-28T13:35:17Z</time></trkpt>
<trkpt lat="46.23244" lon="7.36548"><ele>552.6</ele><time>2016-08-28T13:35:18Z</time></trkpt>
<trkpt lat="46.23243" lon="7.36544"><ele>552.8</ele><time>2016-08-28T13:35:19Z</time></trkpt>
<trkpt lat="46.23242" lon="7.36536"><ele>553.2</ele><time>2016-08-28T13:35:21Z</time></trkpt>
<trkpt lat="46.23241" lon="7.36532"><ele>553.2</ele><time>2016-08-28T13:35:22Z</time></trkpt>
<trkpt lat="46.23241" lon="7.36528"><ele>553.4</ele><time>2016-08-28T13:35:23Z</time></trkpt>
<trkpt lat="46.23239" lon="7.3652"><ele>553.6</ele><time>2016-08-28T13:35:25Z</time></trkpt>
<trkpt lat="46.23238" lon="7.36512"><ele>553.8</ele><time>2016-08-28T13:35:27Z</time></trkpt>
<trkpt lat="46.23236" lon="7.36504"><ele>554</ele><time>2016-08-28T13:35:29Z</time></trkpt>
<trkpt lat="46.23235" lon="7.36496"><ele>554.4</ele><time>2016-08-28T13:35:31Z</time></trkpt>
<trkpt lat="46.23234" lon="7.36488"><ele>554.6</ele><time>2016-08-28T13:35:33Z</time></trkpt>
<trkpt lat="46.23233" lon="7.36484"><ele>554.6</ele><time>2016-08-28T13:35:34Z</time></trkpt>
<trkpt lat="46.23228" lon="7.36458"><ele>554.8</ele><time>2016-08-28T13:35:35Z</time></trkpt>
<trkpt lat="46.23216" lon="7.364"><ele>555</ele><time>2016-08-28T13:35:37Z</time></trkpt>
<trkpt lat="46.2321" lon="7.36398"><ele>555.2</ele><time>2016-08-28T13:35:38Z</time></trkpt>
<trkpt lat="46.2321" lon="7.36407"><ele>555.2</ele><time>2016-08-28T13:35:39Z</time></trkpt>
<trkpt lat="46.23239" lon="7.36462"><ele>555.4</ele><time>2016-08-28T13:35:41Z</time></trkpt>
<trkpt lat="46.23245" lon="7.3646"><ele>555.8</ele><time>2016-08-28T13:35:43Z</time></trkpt>
<trkpt lat="46.23249" lon="7.36454"><ele>556</ele><time>2016-08-28T13:35:45Z</time></trkpt>
<trkpt lat="46.23254" lon="7.36448"><ele>556.2</ele><time>2016-08-28T13:35:47Z</time></trkpt>
<trkpt lat="46.23258" lon="7.36442"><ele>556.4</ele><time>2016-08-28T13:35:49Z</time></trkpt>
<trkpt lat="46.23262" lon="7.36436"><ele>556.4</ele><time>2016-08-28T13:35:51Z</time></trkpt>
<trkpt lat="46.23266" lon="7.3643"><ele>556.6</ele><time>2016-08-28T13:35:53Z</time></trkpt>
<trkpt lat="46.23271" lon="7.36424"><ele>556.8</ele><time>2016-08-28T13:35:55Z</time></trkpt>
<trkpt lat="46.23273" lon="7.36421"><ele>557</ele><time>2016-08-28T13:35:56Z</time></trkpt>
<trkpt lat="46.23273" lon="7.36418"><ele>557</ele><time>2016-08-28T13:35:57Z</time></trkpt>
<trkpt lat="46.23273" lon="7.36411"><ele>557.2</ele><time>2016-08-28T13:35:59Z</time></trkpt>
<trkpt lat="46.23273" lon="7.36405"><ele>557.4</ele><time>2016-08-28T13:36:01Z</time></trkpt>
<trkpt lat="46.23273" lon="7.36398"><ele>557.6</ele><time>2016-08-28T13:36:03Z</time></trkpt>
<trkpt lat="46.23272" lon="7.36392"><ele>557.8</ele><time>2016-08-28T13:36:05Z</time></trkpt>
<trkpt lat="46.23272" lon="7.36385"><ele>558</ele><time>2016-08-28T13:36:07Z</time></trkpt>
<trkpt lat="46.23272" lon="7.36379"><ele>558.2</ele><time>2016-08-28T13:36:09Z</time></trkpt>
<trkpt lat="46.23272" lon="7.36372"><ele>558.4</ele><time>2016-08-28T13:36:11Z</time></trkpt>
<trkpt lat="46.23272" lon="7.36366"><ele>558.6</ele><time>2016-08-28T13:36:13Z</time></trkpt>
<trkpt lat="46.23272" lon="7.36359"><ele>558.8</ele><time>2016-08-28T13:36:15Z</time></trkpt>
<trkpt lat="46.23272" lon="7.36356"><ele>558.8</ele><time>2016-08-28T13:36:16Z</time></trkpt>
<trkpt lat="46.23271" lon="7.36353"><ele>558.8</ele><time>2016-08-28T13:36:17Z</time></trkpt>
<trkpt lat="46.23271" lon="7.36347"><ele>559</ele><time>2016-08-28T13:36:19Z</time></trkpt>
<trkpt lat="46.2327" lon="7.36342"><ele>559.2</ele><time>2016-08-28T13:36:21Z</time></trkpt>
<trkpt lat="46.2327" lon="7.36336"><ele>559.4</ele><time>2016-08-28T13:36:23Z</time></trkpt>
<trkpt lat="46.23268" lon="7.36332"><ele>559.6</ele><time>2016-08-28T13:36:25Z</time></trkpt>
<trkpt lat="46.23265" lon="7.36329"><ele>559.6</ele><time>2016-08-28T13:36:27Z</time></trkpt>
<trkpt lat="46.23263" lon="7.36325"><ele>559.8</ele><time>2016-08-28T13:36:29Z</time></trkpt>
<trkpt lat="46.23261" lon="7.36322"><ele>560</ele><time>2016-08-28T13:36:31Z</time></trkpt>
<trkpt lat="46.2326" lon="7.3632"><ele>560</ele><time>2016-08-28T13:36:32Z</time></trkpt>
<trkpt lat="46.2326" lon="7.36316"><ele>560.2</ele><time>2016-08-28T13:36:33Z</time></trkpt>
<trkpt lat="46.23261" lon="7.36306"><ele>560.4</ele><time>2016-08-28T13:36:35Z</time></trkpt>
<trkpt lat="46.23264" lon="7.36298"><ele>560.4</ele><time>2016-08-28T13:36:37Z</time></trkpt>
<trkpt lat="46.23265" lon="7.36294"><ele>560.6</ele><time>2016-08-28T13:36:38Z</time></trkpt>
<trkpt lat="46.23268" lon="7.36292"><ele>560.6</ele><time>2016-08-28T13:36:39Z</time></trkpt>
<trkpt lat="46.23267" lon="7.36286"><ele>560.8</ele><time>2016-08-28T13:36:41Z</time></trkpt>
<trkpt lat="46.23265" lon="7.36281"><ele>561</ele><time>2016-08-28T13:36:43Z</time></trkpt>
<trkpt lat="46.23263" lon="7.36275"><ele>561</ele><time>2016-08-28T13:36:45Z</time></trkpt>
<trkpt lat="46.23261" lon="7.3627"><ele>561.2</ele><time>2016-08-28T13:36:47Z</time></trkpt>
<trkpt lat="46.23259" lon="7.36264"><ele>561.4</ele><time>2016-08-28T13:36:49Z</time></trkpt>
<trkpt lat="46.23257" lon="7.36259"><ele>561.6</ele><time>2016-08-28T13:36:51Z</time></trkpt>
<trkpt lat="46.23255" lon="7.36253"><ele>561.8</ele><time>2016-08-28T13:36:53Z</time></trkpt>
<trkpt lat="46.23253" lon="7.36248"><ele>561.8</ele><time>2016-08-28T13:36:55Z</time></trkpt>
<trkpt lat="46.23251" lon="7.36242"><ele>562</ele><time>2016-08-28T13:36:57Z</time></trkpt>
<trkpt lat="46.23249" lon="7.36237"><ele>562.2</ele><time>2016-08-28T13:36:59Z</time></trkpt>
<trkpt lat="46.23247" lon="7.36231"><ele>562.4</ele><time>2016-08-28T13:37:01Z</time></trkpt>
<trkpt lat="46.23248" lon="7.36222"><ele>562.4</ele><time>2016-08-28T13:37:03Z</time></trkpt>
<trkpt lat="46.23249" lon="7.36218"><ele>562.6</ele><time>2016-08-28T13:37:04Z</time></trkpt>
<trkpt lat="46.2325" lon="7.36214"><ele>562.6</ele><time>2016-08-28T13:37:05Z</time></trkpt>
<trkpt lat="46.23252" lon="7.36205"><ele>562.8</ele><time>2016-08-28T13:37:07Z</time></trkpt>
<trkpt lat="46.23254" lon="7.36196"><ele>563</ele><time>2016-08-28T13:37:09Z</time></trkpt>
<trkpt lat="46.23256" lon="7.36187"><ele>563.2</ele><time>2016-08-28T13:37:11Z</time></trkpt>
<trkpt lat="46.23257" lon="7.36178"><ele>563.4</ele><time>2016-08-28T13:37:13Z</time></trkpt>
<trkpt lat="46.23259" lon="7.3617"><ele>563.6</ele><time>2016-08-28T13:37:15Z</time></trkpt>
<trkpt lat="46.2326" lon="7.36165"><ele>563.6</ele><time>2016-08-28T13:37:16Z</time></trkpt>
<trkpt lat="46.23261" lon="7.36162"><ele>563.8</ele><time>2016-08-28T13:37:17Z</time></trkpt>
<trkpt lat="46.23264" lon="7.36157"><ele>564</ele><time>2016-08-28T13:37:19Z</time></trkpt>
<trkpt lat="46.23266" lon="7.36151"><ele>564.2</ele><time>2016-08-28T13:37:21Z</time></trkpt>
<trkpt lat="46.23268" lon="7.36145"><ele>564.4</ele><time>2016-08-28T13:37:23Z</time></trkpt>
<trkpt lat="46.23271" lon="7.36139"><ele>564.6</ele><time>2016-08-28T13:37:25Z</time></trkpt>
<trkpt lat="46.23273" lon="7.36134"><ele>564.8</ele><time>2016-08-28T13:37:27Z</time></trkpt>
<trkpt lat="46.23275" lon="7.36128"><ele>565</ele><time>2016-08-28T13:37:29Z</time></trkpt>
<trkpt lat="46.23276" lon="7.36125"><ele>565</ele><time>2016-08-28T13:37:30Z</time></trkpt>
<trkpt lat="46.23275" lon="7.36122"><ele>565.2</ele><time>2016-08-28T13:37:31Z</time></trkpt>
<trkpt lat="46.23273" lon="7.36117"><ele>565.2</ele><time>2016-08-28T13:37:33Z</time></trkpt>
<trkpt lat="46.23271" lon="7.36114"><ele>565.4</ele><time>2016-08-28T13:37:34Z</time></trkpt>
<trkpt lat="46.23273" lon="7.3611"><ele>565.4</ele><time>2016-08-28T13:37:35Z</time></trkpt>
<trkpt lat="46.23277" lon="7.36102"><ele>565.6</ele><time>2016-08-28T13:37:37Z</time></trkpt>
<trkpt lat="46.2328" lon="7.36098"><ele>565.8</ele><time>2016-08-28T13:37:38Z</time></trkpt>
<trkpt lat="46.23282" lon="7.36094"><ele>565.8</ele><time>2016-08-28T13:37:39Z</time></trkpt>
<trkpt lat="46.23286" lon="7.3609"><ele>566.2</ele><time>2016-08-28T13:37:41Z</time></trkpt>
<trkpt lat="46.23291" lon="7.36086"><ele>566.4</ele><time>2016-08-28T13:37:43Z</time></trkpt>
<trkpt lat="46.23296" lon="7.36082"><ele>566.6</ele><time>2016-08-28T13:37:45Z</time></trkpt>
<trkpt lat="46.233" lon="7.36078"><ele>567</ele><time>2016-08-28T13:37:47Z</time></trkpt>
<trkpt lat="46.23305" lon="7.36075"><ele>567.2</ele><time>2016-08-28T13:37:49Z</time></trkpt>
<trkpt lat="46.23309" lon="7.36071"><ele>567.4</ele><time>2016-08-28T13:37:51Z</time></trkpt>
<trkpt lat="46.23314" lon="7.36067"><ele>567.6</ele><time>2016-08-28T13:37:53Z</time></trkpt>
<trkpt lat="46.23316" lon="7.36065"><ele>567.8</ele><time>2016-08-28T13:37:54Z</time></trkpt>
<trkpt lat="46.23319" lon="7.36064"><ele>567.8</ele><time>2016-08-28T13:37:55Z</time></trkpt>
<trkpt lat="46.23323" lon="7.36062"><ele>568</ele><time>2016-08-28T13:37:57Z</time></trkpt>
<trkpt lat="46.23328" lon="7.3606"><ele>568.4</ele><time>2016-08-28T13:37:59Z</time></trkpt>
<trkpt lat="46.23333" lon="7.36058"><ele>568.6</ele><time>2016-08-28T13:38:01Z</time></trkpt>
<trkpt lat="46.23337" lon="7.36056"><ele>568.8</ele><time>2016-08-28T13:38:03Z</time></trkpt>
<trkpt lat="46.2334" lon="7.36055"><ele>568.8</ele><time>2016-08-28T13:38:04Z</time></trkpt>
<trkpt lat="46.23343" lon="7.36055"><ele>569</ele><time>2016-08-28T13:38:05Z</time></trkpt>
<trkpt lat="46.23349" lon="7.36054"><ele>569.2</ele><time>2016-08-28T13:38:07Z</time></trkpt>
<trkpt lat="46.23355" lon="7.36054"><ele>569.4</ele><time>2016-08-28T13:38:09Z</time></trkpt>
<trkpt lat="46.23361" lon="7.36053"><ele>569.6</ele><time>2016-08-28T13:38:11Z</time></trkpt>
<trkpt lat="46.23367" lon="7.36052"><ele>569.8</ele><time>2016-08-28T13:38:13Z</time></trkpt>
<trkpt lat="46.2337" lon="7.36052"><ele>570</ele><time>2016-08-28T13:38:14Z</time></trkpt>
<trkpt lat="46.23384" lon="7.36048"><ele>570.2</ele><time>2016-08-28T13:38:15Z</time></trkpt>
<trkpt lat="46.23386" lon="7.36045"><ele>570.4</ele><time>2016-08-28T13:38:17Z</time></trkpt>
<trkpt lat="46.23386" lon="7.36042"><ele>570.6</ele><time>2016-08-28T13:38:19Z</time></trkpt>
<trkpt lat="46.23396" lon="7.3604"><ele>570.8</ele><time>2016-08-28T13:38:21Z</time></trkpt>
<trkpt lat="46.23406" lon="7.36037"><ele>571</ele><time>2016-08-28T13:38:23Z</time></trkpt>
<trkpt lat="46.23416" lon="7.36034"><ele>571.2</ele><time>2016-08-28T13:38:25Z</time></trkpt>
<trkpt lat="46.23426" lon="7.36032"><ele>571.6</ele><time>2016-08-28T13:38:27Z</time></trkpt>
<trkpt lat="46.23431" lon="7.3603"><ele>571.6</ele><time>2016-08-28T13:38:28Z</time></trkpt>
<trkpt lat="46.23435" lon="7.36031"><ele>571.8</ele><time>2016-08-28T13:38:29Z</time></trkpt>
<trkpt lat="46.23442" lon="7.36033"><ele>572</ele><time>2016-08-28T13:38:31Z</time></trkpt>
<trkpt lat="46.2345" lon="7.36036"><ele>572.2</ele><time>2016-08-28T13:38:33Z</time></trkpt>
<trkpt lat="46.23457" lon="7.36038"><ele>572.6</ele><time>2016-08-28T13:38:35Z</time></trkpt>
<trkpt lat="46.23465" lon="7.3604"><ele>572.8</ele><time>2016-08-28T13:38:37Z</time></trkpt>
<trkpt lat="46.23472" lon="7.36042"><ele>573</ele><time>2016-08-28T13:38:39Z</time></trkpt>
<trkpt lat="46.23476" lon="7.36043"><ele>573.2</ele><time>2016-08-28T13:38:40Z</time></trkpt>
<trkpt lat="46.2348" lon="7.36045"><ele>573.4</ele><time>2016-08-28T13:38:41Z</time></trkpt>
<trkpt lat="46.23488" lon="7.36049"><ele>573.6</ele><time>2016-08-28T13:38:43Z</time></trkpt>
<trkpt lat="46.23493" lon="7.3605"><ele>573.8</ele><time>2016-08-28T13:38:44Z</time></trkpt>
<trkpt lat="46.23497" lon="7.36051"><ele>574</ele><time>2016-08-28T13:38:45Z</time></trkpt>
<trkpt lat="46.23506" lon="7.36052"><ele>574.2</ele><time>2016-08-28T13:38:47Z</time></trkpt>
<trkpt lat="46.23516" lon="7.36053"><ele>574.4</ele><time>2016-08-28T13:38:49Z</time></trkpt>
<trkpt lat="46.23525" lon="7.36054"><ele>574.8</ele><time>2016-08-28T13:38:51Z</time></trkpt>
<trkpt lat="46.23534" lon="7.36055"><ele>575</ele><time>2016-08-28T13:38:53Z</time></trkpt>
<trkpt lat="46.23539" lon="7.36055"><ele>575.2</ele><time>2016-08-28T13:38:54Z</time></trkpt>
<trkpt lat="46.23543" lon="7.36056"><ele>575.2</ele><time>2016-08-28T13:38:55Z</time></trkpt>
<trkpt lat="46.2355" lon="7.36057"><ele>575.4</ele><time>2016-08-28T13:38:57Z</time></trkpt>
<trkpt lat="46.23554" lon="7.36058"><ele>575.6</ele><time>2016-08-28T13:38:58Z</time></trkpt>
<trkpt lat="46.23558" lon="7.36058"><ele>575.6</ele><time>2016-08-28T13:38:59Z</time></trkpt>
<trkpt lat="46.23566" lon="7.36059"><ele>576</ele><time>2016-08-28T13:39:01Z</time></trkpt>
<trkpt lat="46.23574" lon="7.36064"><ele>576.2</ele><time>2016-08-28T13:39:02Z</time></trkpt>
<trkpt lat="46.23575" lon="7.36064"><ele>576.4</ele><time>2016-08-28T13:39:03Z</time></trkpt>
<trkpt lat="46.23576" lon="7.36064"><ele>576.6</ele><time>2016-08-28T13:39:04Z</time></trkpt>
<trkpt lat="46.23572" lon="7.36062"><ele>576.8</ele><time>2016-08-28T13:39:05Z</time></trkpt>
<trkpt lat="46.23581" lon="7.3606"><ele>576.8</ele><time>2016-08-28T13:39:06Z</time></trkpt>
<trkpt lat="46.23583" lon="7.36066"><ele>577</ele><time>2016-08-28T13:39:07Z</time></trkpt>
<trkpt lat="46.23586" lon="7.36053"><ele>577</ele><time>2016-08-28T13:39:08Z</time></trkpt>
<trkpt lat="46.23584" lon="7.36046"><ele>577.2</ele><time>2016-08-28T13:39:09Z</time></trkpt>
<trkpt lat="46.23582" lon="7.3604"><ele>577.4</ele><time>2016-08-28T13:39:10Z</time></trkpt>
<trkpt lat="46.23579" lon="7.36038"><ele>577.4</ele><time>2016-08-28T13:39:11Z</time></trkpt>
<trkpt lat="46.23574" lon="7.36033"><ele>577.6</ele><time>2016-08-28T13:39:13Z</time></trkpt>
<trkpt lat="46.23572" lon="7.36022"><ele>577.8</ele><time>2016-08-28T13:39:15Z</time></trkpt>
<trkpt lat="46.2357" lon="7.3601"><ele>578.2</ele><time>2016-08-28T13:39:17Z</time></trkpt>
<trkpt lat="46.23567" lon="7.35998"><ele>578.4</ele><time>2016-08-28T13:39:19Z</time></trkpt>
<trkpt lat="46.23565" lon="7.35987"><ele>578.6</ele><time>2016-08-28T13:39:21Z</time></trkpt>
<trkpt lat="46.23563" lon="7.35975"><ele>578.8</ele><time>2016-08-28T13:39:23Z</time></trkpt>
<trkpt lat="46.23562" lon="7.35969"><ele>579</ele><time>2016-08-28T13:39:24Z</time></trkpt>
<trkpt lat="46.2356" lon="7.35964"><ele>579</ele><time>2016-08-28T13:39:25Z</time></trkpt>
<trkpt lat="46.23558" lon="7.35953"><ele>579.2</ele><time>2016-08-28T13:39:27Z</time></trkpt>
<trkpt lat="46.23555" lon="7.35942"><ele>579.2</ele><time>2016-08-28T13:39:29Z</time></trkpt>
<trkpt lat="46.23553" lon="7.35932"><ele>579.4</ele><time>2016-08-28T13:39:31Z</time></trkpt>
<trkpt lat="46.2355" lon="7.35921"><ele>579.6</ele><time>2016-08-28T13:39:33Z</time></trkpt>
<trkpt lat="46.23547" lon="7.35911"><ele>579.6</ele><time>2016-08-28T13:39:35Z</time></trkpt>
<trkpt lat="46.23546" lon="7.35905"><ele>579.8</ele><time>2016-08-28T13:39:36Z</time></trkpt>
<trkpt lat="46.23545" lon="7.359"><ele>579.8</ele><time>2016-08-28T13:39:37Z</time></trkpt>
<trkpt lat="46.23542" lon="7.35889"><ele>580</ele><time>2016-08-28T13:39:39Z</time></trkpt>
<trkpt lat="46.23539" lon="7.35878"><ele>580</ele><time>2016-08-28T13:39:41Z</time></trkpt>
<trkpt lat="46.23537" lon="7.35867"><ele>580.2</ele><time>2016-08-28T13:39:43Z</time></trkpt>
<trkpt lat="46.23538" lon="7.3585"><ele>580.2</ele><time>2016-08-28T13:39:45Z</time></trkpt>
<trkpt lat="46.23543" lon="7.35845"><ele>580.4</ele><time>2016-08-28T13:39:47Z</time></trkpt>
<trkpt lat="46.23543" lon="7.35843"><ele>580.6</ele><time>2016-08-28T13:39:49Z</time></trkpt>
<trkpt lat="46.23543" lon="7.35842"><ele>580.6</ele><time>2016-08-28T13:39:50Z</time></trkpt>
<trkpt lat="46.23549" lon="7.35836"><ele>580.6</ele><time>2016-08-28T13:39:51Z</time></trkpt>
<trkpt lat="46.23563" lon="7.35823"><ele>580.8</ele><time>2016-08-28T13:39:53Z</time></trkpt>
<trkpt lat="46.23569" lon="7.35817"><ele>580.8</ele><time>2016-08-28T13:39:54Z</time></trkpt>
<trkpt lat="46.23573" lon="7.35812"><ele>580.8</ele><time>2016-08-28T13:39:55Z</time></trkpt>
<trkpt lat="46.23575" lon="7.35808"><ele>581</ele><time>2016-08-28T13:39:56Z</time></trkpt>
<trkpt lat="46.23576" lon="7.35798"><ele>581</ele><time>2016-08-28T13:39:57Z</time></trkpt>
<trkpt lat="46.23581" lon="7.35791"><ele>581.2</ele><time>2016-08-28T13:39:59Z</time></trkpt>
<trkpt lat="46.23587" lon="7.35785"><ele>581.2</ele><time>2016-08-28T13:40:01Z</time></trkpt>
<trkpt lat="46.23592" lon="7.35778"><ele>581.4</ele><time>2016-08-28T13:40:03Z</time></trkpt>
<trkpt lat="46.23598" lon="7.35772"><ele>581.4</ele><time>2016-08-28T13:40:05Z</time></trkpt>
<trkpt lat="46.23603" lon="7.35766"><ele>581.6</ele><time>2016-08-28T13:40:07Z</time></trkpt>
<trkpt lat="46.23609" lon="7.3576"><ele>581.8</ele><time>2016-08-28T13:40:09Z</time></trkpt>
<trkpt lat="46.23612" lon="7.35757"><ele>581.8</ele><time>2016-08-28T13:40:10Z</time></trkpt>
<trkpt lat="46.23614" lon="7.35753"><ele>582</ele><time>2016-08-28T13:40:11Z</time></trkpt>
<trkpt lat="46.2362" lon="7.35747"><ele>582.2</ele><time>2016-08-28T13:40:13Z</time></trkpt>
<trkpt lat="46.23625" lon="7.3574"><ele>582.4</ele><time>2016-08-28T13:40:15Z</time></trkpt>
<trkpt lat="46.2363" lon="7.35733"><ele>582.6</ele><time>2016-08-28T13:40:17Z</time></trkpt>
<trkpt lat="46.23635" lon="7.35726"><ele>582.8</ele><time>2016-08-28T13:40:19Z</time></trkpt>
<trkpt lat="46.23641" lon="7.35719"><ele>583</ele><time>2016-08-28T13:40:21Z</time></trkpt>
<trkpt lat="46.23646" lon="7.35713"><ele>583.4</ele><time>2016-08-28T13:40:23Z</time></trkpt>
<trkpt lat="46.23651" lon="7.35705"><ele>583.6</ele><time>2016-08-28T13:40:25Z</time></trkpt>
<trkpt lat="46.23655" lon="7.35697"><ele>583.8</ele><time>2016-08-28T13:40:27Z</time></trkpt>
<trkpt lat="46.2366" lon="7.35689"><ele>584.2</ele><time>2016-08-28T13:40:29Z</time></trkpt>
<trkpt lat="46.23664" lon="7.35681"><ele>584.4</ele><time>2016-08-28T13:40:31Z</time></trkpt>
<trkpt lat="46.23669" lon="7.35673"><ele>584.8</ele><time>2016-08-28T13:40:33Z</time></trkpt>
<trkpt lat="46.23674" lon="7.35665"><ele>585</ele><time>2016-08-28T13:40:35Z</time></trkpt>
<trkpt lat="46.23676" lon="7.35661"><ele>585</ele><time>2016-08-28T13:40:36Z</time></trkpt>
<trkpt lat="46.23678" lon="7.35657"><ele>585.2</ele><time>2016-08-28T13:40:37Z</time></trkpt>
<trkpt lat="46.23681" lon="7.35649"><ele>585.4</ele><time>2016-08-28T13:40:39Z</time></trkpt>
<trkpt lat="46.23684" lon="7.35642"><ele>585.6</ele><time>2016-08-28T13:40:41Z</time></trkpt>
<trkpt lat="46.23679" lon="7.35636"><ele>585.6</ele><time>2016-08-28T13:40:42Z</time></trkpt>
<trkpt lat="46.23676" lon="7.35632"><ele>585.8</ele><time>2016-08-28T13:40:43Z</time></trkpt>
<trkpt lat="46.23672" lon="7.35623"><ele>586</ele><time>2016-08-28T13:40:45Z</time></trkpt>
<trkpt lat="46.23668" lon="7.35615"><ele>586.2</ele><time>2016-08-28T13:40:47Z</time></trkpt>
<trkpt lat="46.23665" lon="7.35607"><ele>586.4</ele><time>2016-08-28T13:40:49Z</time></trkpt>
<trkpt lat="46.23661" lon="7.35598"><ele>586.6</ele><time>2016-08-28T13:40:51Z</time></trkpt>
<trkpt lat="46.23657" lon="7.3559"><ele>586.8</ele><time>2016-08-28T13:40:53Z</time></trkpt>
<trkpt lat="46.23653" lon="7.35582"><ele>587.2</ele><time>2016-08-28T13:40:55Z</time></trkpt>
<trkpt lat="46.23651" lon="7.35578"><ele>587.2</ele><time>2016-08-28T13:40:56Z</time></trkpt>
<trkpt lat="46.23649" lon="7.35573"><ele>587.4</ele><time>2016-08-28T13:40:57Z</time></trkpt>
<trkpt lat="46.23645" lon="7.35564"><ele>587.6</ele><time>2016-08-28T13:40:59Z</time></trkpt>
<trkpt lat="46.23641" lon="7.35555"><ele>587.8</ele><time>2016-08-28T13:41:01Z</time></trkpt>
<trkpt lat="46.23637" lon="7.35546"><ele>588</ele><time>2016-08-28T13:41:03Z</time></trkpt>
<trkpt lat="46.23633" lon="7.35537"><ele>588.2</ele><time>2016-08-28T13:41:05Z</time></trkpt>
<trkpt lat="46.23631" lon="7.35533"><ele>588.4</ele><time>2016-08-28T13:41:06Z</time></trkpt>
<trkpt lat="46.23629" lon="7.35528"><ele>588.6</ele><time>2016-08-28T13:41:07Z</time></trkpt>
<trkpt lat="46.23625" lon="7.35519"><ele>589</ele><time>2016-08-28T13:41:09Z</time></trkpt>
<trkpt lat="46.23621" lon="7.35511"><ele>589.4</ele><time>2016-08-28T13:41:11Z</time></trkpt>
<trkpt lat="46.23617" lon="7.35503"><ele>589.8</ele><time>2016-08-28T13:41:13Z</time></trkpt>
<trkpt lat="46.23612" lon="7.35495"><ele>590</ele><time>2016-08-28T13:41:15Z</time></trkpt>
<trkpt lat="46.23608" lon="7.35487"><ele>590.4</ele><time>2016-08-28T13:41:17Z</time></trkpt>
<trkpt lat="46.23604" lon="7.35479"><ele>590.6</ele><time>2016-08-28T13:41:19Z</time></trkpt>
<trkpt lat="46.236" lon="7.35471"><ele>591</ele><time>2016-08-28T13:41:21Z</time></trkpt>
<trkpt lat="46.23597" lon="7.35467"><ele>591.2</ele><time>2016-08-28T13:41:22Z</time></trkpt>
<trkpt lat="46.23595" lon="7.35464"><ele>591.2</ele><time>2016-08-28T13:41:23Z</time></trkpt>
<trkpt lat="46.23591" lon="7.35458"><ele>591.6</ele><time>2016-08-28T13:41:25Z</time></trkpt>
<trkpt lat="46.23587" lon="7.35452"><ele>592</ele><time>2016-08-28T13:41:27Z</time></trkpt>
<trkpt lat="46.23583" lon="7.35446"><ele>592.2</ele><time>2016-08-28T13:41:29Z</time></trkpt>
<trkpt lat="46.23578" lon="7.35439"><ele>592.6</ele><time>2016-08-28T13:41:31Z</time></trkpt>
<trkpt lat="46.23574" lon="7.35433"><ele>592.8</ele><time>2016-08-28T13:41:33Z</time></trkpt>
<trkpt lat="46.23572" lon="7.3543"><ele>593</ele><time>2016-08-28T13:41:34Z</time></trkpt>
<trkpt lat="46.2357" lon="7.35427"><ele>593.2</ele><time>2016-08-28T13:41:35Z</time></trkpt>
<trkpt lat="46.23565" lon="7.35421"><ele>593.6</ele><time>2016-08-28T13:41:37Z</time></trkpt>
<trkpt lat="46.23563" lon="7.35417"><ele>594</ele><time>2016-08-28T13:41:39Z</time></trkpt>
<trkpt lat="46.2356" lon="7.35413"><ele>594.4</ele><time>2016-08-28T13:41:41Z</time></trkpt>
<trkpt lat="46.23557" lon="7.35408"><ele>594.8</ele><time>2016-08-28T13:41:43Z</time></trkpt>
<trkpt lat="46.23554" lon="7.35404"><ele>595.2</ele><time>2016-08-28T13:41:45Z</time></trkpt>
<trkpt lat="46.23551" lon="7.354"><ele>595.6</ele><time>2016-08-28T13:41:47Z</time></trkpt>
<trkpt lat="46.23549" lon="7.35396"><ele>596</ele><time>2016-08-28T13:41:49Z</time></trkpt>
<trkpt lat="46.23546" lon="7.35391"><ele>596.4</ele><time>2016-08-28T13:41:51Z</time></trkpt>
<trkpt lat="46.23543" lon="7.35387"><ele>596.6</ele><time>2016-08-28T13:41:53Z</time></trkpt>
<trkpt lat="46.2354" lon="7.35383"><ele>597</ele><time>2016-08-28T13:41:55Z</time></trkpt>
<trkpt lat="46.23537" lon="7.35379"><ele>597.4</ele><time>2016-08-28T13:41:57Z</time></trkpt>
<trkpt lat="46.23536" lon="7.35374"><ele>597.6</ele><time>2016-08-28T13:41:59Z</time></trkpt>
<trkpt lat="46.23534" lon="7.35369"><ele>598</ele><time>2016-08-28T13:42:01Z</time></trkpt>
<trkpt lat="46.23532" lon="7.35365"><ele>598.4</ele><time>2016-08-28T13:42:03Z</time></trkpt>
<trkpt lat="46.23531" lon="7.3536"><ele>598.6</ele><time>2016-08-28T13:42:05Z</time></trkpt>
<trkpt lat="46.23529" lon="7.35356"><ele>599</ele><time>2016-08-28T13:42:07Z</time></trkpt>
<trkpt lat="46.23527" lon="7.35351"><ele>599.4</ele><time>2016-08-28T13:42:09Z</time></trkpt>
<trkpt lat="46.23525" lon="7.35346"><ele>599.8</ele><time>2016-08-28T13:42:11Z</time></trkpt>
<trkpt lat="46.23524" lon="7.35344"><ele>599.8</ele><time>2016-08-28T13:42:12Z</time></trkpt>
<trkpt lat="46.23524" lon="7.35342"><ele>600</ele><time>2016-08-28T13:42:13Z</time></trkpt>
<trkpt lat="46.23522" lon="7.35337"><ele>600.4</ele><time>2016-08-28T13:42:15Z</time></trkpt>
<trkpt lat="46.2352" lon="7.35333"><ele>600.6</ele><time>2016-08-28T13:42:17Z</time></trkpt>
<trkpt lat="46.23518" lon="7.35328"><ele>601</ele><time>2016-08-28T13:42:19Z</time></trkpt>
<trkpt lat="46.23517" lon="7.35323"><ele>601.2</ele><time>2016-08-28T13:42:21Z</time></trkpt>
<trkpt lat="46.23516" lon="7.35321"><ele>601.4</ele><time>2016-08-28T13:42:22Z</time></trkpt>
<trkpt lat="46.23515" lon="7.35319"><ele>601.6</ele><time>2016-08-28T13:42:23Z</time></trkpt>
<trkpt lat="46.23513" lon="7.35316"><ele>602</ele><time>2016-08-28T13:42:25Z</time></trkpt>
<trkpt lat="46.23511" lon="7.35312"><ele>602.2</ele><time>2016-08-28T13:42:27Z</time></trkpt>
<trkpt lat="46.23509" lon="7.35309"><ele>602.6</ele><time>2016-08-28T13:42:29Z</time></trkpt>
<trkpt lat="46.23507" lon="7.35305"><ele>602.8</ele><time>2016-08-28T13:42:31Z</time></trkpt>
<trkpt lat="46.23505" lon="7.35302"><ele>603.2</ele><time>2016-08-28T13:42:33Z</time></trkpt>
<trkpt lat="46.23504" lon="7.353"><ele>603.4</ele><time>2016-08-28T13:42:34Z</time></trkpt>
<trkpt lat="46.23503" lon="7.35298"><ele>603.4</ele><time>2016-08-28T13:42:35Z</time></trkpt>
<trkpt lat="46.23501" lon="7.35295"><ele>603.8</ele><time>2016-08-28T13:42:37Z</time></trkpt>
<trkpt lat="46.23499" lon="7.35291"><ele>604</ele><time>2016-08-28T13:42:39Z</time></trkpt>
<trkpt lat="46.23496" lon="7.35288"><ele>604.4</ele><time>2016-08-28T13:42:41Z</time></trkpt>
<trkpt lat="46.23494" lon="7.35284"><ele>604.6</ele><time>2016-08-28T13:42:43Z</time></trkpt>
<trkpt lat="46.23492" lon="7.35281"><ele>604.8</ele><time>2016-08-28T13:42:45Z</time></trkpt>
<trkpt lat="46.2349" lon="7.35277"><ele>605.2</ele><time>2016-08-28T13:42:47Z</time></trkpt>
<trkpt lat="46.23488" lon="7.35274"><ele>605.4</ele><time>2016-08-28T13:42:49Z</time></trkpt>
<trkpt lat="46.23486" lon="7.3527"><ele>605.8</ele><time>2016-08-28T13:42:51Z</time></trkpt>
<trkpt lat="46.23484" lon="7.35267"><ele>606</ele><time>2016-08-28T13:42:53Z</time></trkpt>
<trkpt lat="46.23482" lon="7.35263"><ele>606.4</ele><time>2016-08-28T13:42:55Z</time></trkpt>
<trkpt lat="46.23479" lon="7.35259"><ele>606.6</ele><time>2016-08-28T13:42:57Z</time></trkpt>
<trkpt lat="46.23477" lon="7.35256"><ele>606.8</ele><time>2016-08-28T13:42:59Z</time></trkpt>
<trkpt lat="46.23474" lon="7.35252"><ele>607.2</ele><time>2016-08-28T13:43:01Z</time></trkpt>
<trkpt lat="46.23472" lon="7.35248"><ele>607.4</ele><time>2016-08-28T13:43:03Z</time></trkpt>
<trkpt lat="46.23469" lon="7.35244"><ele>607.8</ele><time>2016-08-28T13:43:05Z</time></trkpt>
<trkpt lat="46.23467" lon="7.35241"><ele>608</ele><time>2016-08-28T13:43:07Z</time></trkpt>
<trkpt lat="46.23465" lon="7.35237"><ele>608.2</ele><time>2016-08-28T13:43:09Z</time></trkpt>
<trkpt lat="46.23462" lon="7.35233"><ele>608.6</ele><time>2016-08-28T13:43:11Z</time></trkpt>
<trkpt lat="46.2346" lon="7.3523"><ele>608.8</ele><time>2016-08-28T13:43:13Z</time></trkpt>
<trkpt lat="46.23457" lon="7.35226"><ele>609.2</ele><time>2016-08-28T13:43:15Z</time></trkpt>
<trkpt lat="46.23455" lon="7.35222"><ele>609.4</ele><time>2016-08-28T13:43:17Z</time></trkpt>
<trkpt lat="46.23453" lon="7.35218"><ele>609.6</ele><time>2016-08-28T13:43:19Z</time></trkpt>
<trkpt lat="46.23451" lon="7.35214"><ele>609.6</ele><time>2016-08-28T13:43:21Z</time></trkpt>
<trkpt lat="46.2345" lon="7.35209"><ele>609.6</ele><time>2016-08-28T13:43:23Z</time></trkpt>
<trkpt lat="46.23448" lon="7.35205"><ele>609.8</ele><time>2016-08-28T13:43:25Z</time></trkpt>
<trkpt lat="46.23446" lon="7.352"><ele>610</ele><time>2016-08-28T13:43:27Z</time></trkpt>
<trkpt lat="46.23445" lon="7.35198"><ele>610.2</ele><time>2016-08-28T13:43:28Z</time></trkpt>
<trkpt lat="46.23445" lon="7.35195"><ele>610.2</ele><time>2016-08-28T13:43:29Z</time></trkpt>
<trkpt lat="46.23445" lon="7.35189"><ele>610.4</ele><time>2016-08-28T13:43:31Z</time></trkpt>
<trkpt lat="46.23445" lon="7.35183"><ele>610.6</ele><time>2016-08-28T13:43:33Z</time></trkpt>
<trkpt lat="46.23444" lon="7.35176"><ele>610.8</ele><time>2016-08-28T13:43:35Z</time></trkpt>
<trkpt lat="46.23444" lon="7.3517"><ele>611</ele><time>2016-08-28T13:43:37Z</time></trkpt>
<trkpt lat="46.23444" lon="7.35164"><ele>611.2</ele><time>2016-08-28T13:43:39Z</time></trkpt>
<trkpt lat="46.23444" lon="7.35157"><ele>611.4</ele><time>2016-08-28T13:43:41Z</time></trkpt>
<trkpt lat="46.23443" lon="7.35151"><ele>611.4</ele><time>2016-08-28T13:43:43Z</time></trkpt>
<trkpt lat="46.23448" lon="7.35149"><ele>611.6</ele><time>2016-08-28T13:43:44Z</time></trkpt>
<trkpt lat="46.23449" lon="7.35146"><ele>611.6</ele><time>2016-08-28T13:43:45Z</time></trkpt>
<trkpt lat="46.23448" lon="7.35141"><ele>611.8</ele><time>2016-08-28T13:43:47Z</time></trkpt>
<trkpt lat="46.23444" lon="7.35138"><ele>612</ele><time>2016-08-28T13:43:48Z</time></trkpt>
<trkpt lat="46.23443" lon="7.35135"><ele>612</ele><time>2016-08-28T13:43:49Z</time></trkpt>
<trkpt lat="46.23443" lon="7.35129"><ele>612.2</ele><time>2016-08-28T13:43:51Z</time></trkpt>
<trkpt lat="46.23443" lon="7.35123"><ele>612.4</ele><time>2016-08-28T13:43:53Z</time></trkpt>
<trkpt lat="46.23443" lon="7.35117"><ele>612.6</ele><time>2016-08-28T13:43:55Z</time></trkpt>
<trkpt lat="46.23443" lon="7.35111"><ele>612.8</ele><time>2016-08-28T13:43:57Z</time></trkpt>
<trkpt lat="46.23443" lon="7.35105"><ele>613</ele><time>2016-08-28T13:43:59Z</time></trkpt>
<trkpt lat="46.23443" lon="7.35099"><ele>613.2</ele><time>2016-08-28T13:44:01Z</time></trkpt>
<trkpt lat="46.23443" lon="7.35093"><ele>613.4</ele><time>2016-08-28T13:44:03Z</time></trkpt>
<trkpt lat="46.23443" lon="7.35087"><ele>613.6</ele><time>2016-08-28T13:44:05Z</time></trkpt>
<trkpt lat="46.23448" lon="7.35084"><ele>613.6</ele><time>2016-08-28T13:44:06Z</time></trkpt>
<trkpt lat="46.23449" lon="7.35081"><ele>613.8</ele><time>2016-08-28T13:44:07Z</time></trkpt>
<trkpt lat="46.23449" lon="7.35075"><ele>614</ele><time>2016-08-28T13:44:09Z</time></trkpt>
<trkpt lat="46.23449" lon="7.3507"><ele>614</ele><time>2016-08-28T13:44:11Z</time></trkpt>
<trkpt lat="46.2345" lon="7.35064"><ele>614.2</ele><time>2016-08-28T13:44:13Z</time></trkpt>
<trkpt lat="46.2345" lon="7.35059"><ele>614.4</ele><time>2016-08-28T13:44:15Z</time></trkpt>
<trkpt lat="46.2345" lon="7.35053"><ele>614.6</ele><time>2016-08-28T13:44:17Z</time></trkpt>
<trkpt lat="46.23451" lon="7.35048"><ele>614.8</ele><time>2016-08-28T13:44:19Z</time></trkpt>
<trkpt lat="46.23451" lon="7.35042"><ele>615</ele><time>2016-08-28T13:44:21Z</time></trkpt>
<trkpt lat="46.23451" lon="7.35037"><ele>615.2</ele><time>2016-08-28T13:44:23Z</time></trkpt>
<trkpt lat="46.23452" lon="7.35031"><ele>615.4</ele><time>2016-08-28T13:44:25Z</time></trkpt>
<trkpt lat="46.23452" lon="7.35025"><ele>615.6</ele><time>2016-08-28T13:44:27Z</time></trkpt>
<trkpt lat="46.23452" lon="7.35023"><ele>615.8</ele><time>2016-08-28T13:44:28Z</time></trkpt>
<trkpt lat="46.23454" lon="7.35022"><ele>615.8</ele><time>2016-08-28T13:44:29Z</time></trkpt>
<trkpt lat="46.23457" lon="7.3502"><ele>616</ele><time>2016-08-28T13:44:31Z</time></trkpt>
<trkpt lat="46.2346" lon="7.35018"><ele>616.2</ele><time>2016-08-28T13:44:33Z</time></trkpt>
<trkpt lat="46.23463" lon="7.35017"><ele>616.4</ele><time>2016-08-28T13:44:35Z</time></trkpt>
<trkpt lat="46.23467" lon="7.35015"><ele>616.6</ele><time>2016-08-28T13:44:37Z</time></trkpt>
<trkpt lat="46.2347" lon="7.35014"><ele>617</ele><time>2016-08-28T13:44:39Z</time></trkpt>
<trkpt lat="46.23473" lon="7.35012"><ele>617.6</ele><time>2016-08-28T13:44:41Z</time></trkpt>
<trkpt lat="46.23475" lon="7.35012"><ele>617.8</ele><time>2016-08-28T13:44:42Z</time></trkpt>
<trkpt lat="46.23477" lon="7.35011"><ele>618</ele><time>2016-08-28T13:44:43Z</time></trkpt>
<trkpt lat="46.2348" lon="7.35009"><ele>618.4</ele><time>2016-08-28T13:44:45Z</time></trkpt>
<trkpt lat="46.23482" lon="7.35006"><ele>619</ele><time>2016-08-28T13:44:47Z</time></trkpt>
<trkpt lat="46.23484" lon="7.35002"><ele>619.4</ele><time>2016-08-28T13:44:49Z</time></trkpt>
<trkpt lat="46.23486" lon="7.34998"><ele>619.8</ele><time>2016-08-28T13:44:51Z</time></trkpt>
<trkpt lat="46.23488" lon="7.34994"><ele>620.4</ele><time>2016-08-28T13:44:53Z</time></trkpt>
<trkpt lat="46.2349" lon="7.3499"><ele>620.8</ele><time>2016-08-28T13:44:55Z</time></trkpt>
<trkpt lat="46.23492" lon="7.34986"><ele>621.2</ele><time>2016-08-28T13:44:57Z</time></trkpt>
<trkpt lat="46.23493" lon="7.34984"><ele>621.4</ele><time>2016-08-28T13:44:58Z</time></trkpt>
<trkpt lat="46.23494" lon="7.34982"><ele>621.6</ele><time>2016-08-28T13:44:59Z</time></trkpt>
<trkpt lat="46.23496" lon="7.34978"><ele>621.8</ele><time>2016-08-28T13:45:01Z</time></trkpt>
<trkpt lat="46.23498" lon="7.34975"><ele>622.2</ele><time>2016-08-28T13:45:03Z</time></trkpt>
<trkpt lat="46.235" lon="7.34971"><ele>622.4</ele><time>2016-08-28T13:45:05Z</time></trkpt>
<trkpt lat="46.23501" lon="7.34969"><ele>622.4</ele><time>2016-08-28T13:45:06Z</time></trkpt>
<trkpt lat="46.235" lon="7.34967"><ele>622.6</ele><time>2016-08-28T13:45:07Z</time></trkpt>
<trkpt lat="46.23497" lon="7.34962"><ele>622.8</ele><time>2016-08-28T13:45:09Z</time></trkpt>
<trkpt lat="46.23494" lon="7.34958"><ele>623.2</ele><time>2016-08-28T13:45:11Z</time></trkpt>
<trkpt lat="46.23491" lon="7.34954"><ele>623.4</ele><time>2016-08-28T13:45:13Z</time></trkpt>
<trkpt lat="46.23488" lon="7.34949"><ele>623.6</ele><time>2016-08-28T13:45:15Z</time></trkpt>
<trkpt lat="46.23485" lon="7.34945"><ele>624</ele><time>2016-08-28T13:45:17Z</time></trkpt>
<trkpt lat="46.23482" lon="7.34941"><ele>624.2</ele><time>2016-08-28T13:45:19Z</time></trkpt>
<trkpt lat="46.23479" lon="7.34937"><ele>624.4</ele><time>2016-08-28T13:45:21Z</time></trkpt>
<trkpt lat="46.23476" lon="7.34932"><ele>624.8</ele><time>2016-08-28T13:45:23Z</time></trkpt>
<trkpt lat="46.23473" lon="7.34928"><ele>625</ele><time>2016-08-28T13:45:25Z</time></trkpt>
<trkpt lat="46.2347" lon="7.34924"><ele>625.2</ele><time>2016-08-28T13:45:27Z</time></trkpt>
<trkpt lat="46.23469" lon="7.34921"><ele>625.4</ele><time>2016-08-28T13:45:28Z</time></trkpt>
<trkpt lat="46.23468" lon="7.34919"><ele>625.6</ele><time>2016-08-28T13:45:29Z</time></trkpt>
<trkpt lat="46.23466" lon="7.34914"><ele>625.8</ele><time>2016-08-28T13:45:31Z</time></trkpt>
<trkpt lat="46.23464" lon="7.34909"><ele>626.2</ele><time>2016-08-28T13:45:33Z</time></trkpt>
<trkpt lat="46.23462" lon="7.34905"><ele>626.4</ele><time>2016-08-28T13:45:35Z</time></trkpt>
<trkpt lat="46.23459" lon="7.349"><ele>626.6</ele><time>2016-08-28T13:45:37Z</time></trkpt>
<trkpt lat="46.23457" lon="7.34895"><ele>627</ele><time>2016-08-28T13:45:39Z</time></trkpt>
<trkpt lat="46.23455" lon="7.3489"><ele>627.2</ele><time>2016-08-28T13:45:41Z</time></trkpt>
<trkpt lat="46.23453" lon="7.34885"><ele>627.4</ele><time>2016-08-28T13:45:43Z</time></trkpt>
<trkpt lat="46.23451" lon="7.3488"><ele>628</ele><time>2016-08-28T13:45:45Z</time></trkpt>
<trkpt lat="46.23449" lon="7.34876"><ele>628.4</ele><time>2016-08-28T13:45:47Z</time></trkpt>
<trkpt lat="46.23447" lon="7.34871"><ele>629</ele><time>2016-08-28T13:45:49Z</time></trkpt>
<trkpt lat="46.23445" lon="7.34866"><ele>629.4</ele><time>2016-08-28T13:45:51Z</time></trkpt>
<trkpt lat="46.23446" lon="7.34861"><ele>629.8</ele><time>2016-08-28T13:45:53Z</time></trkpt>
<trkpt lat="46.23447" lon="7.34856"><ele>630.4</ele><time>2016-08-28T13:45:55Z</time></trkpt>
<trkpt lat="46.23448" lon="7.34852"><ele>630.8</ele><time>2016-08-28T13:45:57Z</time></trkpt>
<trkpt lat="46.23449" lon="7.34847"><ele>631.4</ele><time>2016-08-28T13:45:59Z</time></trkpt>
<trkpt lat="46.2345" lon="7.34842"><ele>631.8</ele><time>2016-08-28T13:46:01Z</time></trkpt>
<trkpt lat="46.23452" lon="7.34837"><ele>632.4</ele><time>2016-08-28T13:46:03Z</time></trkpt>
<trkpt lat="46.23453" lon="7.34832"><ele>632.8</ele><time>2016-08-28T13:46:05Z</time></trkpt>
<trkpt lat="46.23454" lon="7.34827"><ele>633.4</ele><time>2016-08-28T13:46:07Z</time></trkpt>
<trkpt lat="46.23455" lon="7.34823"><ele>633.8</ele><time>2016-08-28T13:46:09Z</time></trkpt>
<trkpt lat="46.23456" lon="7.34818"><ele>634.4</ele><time>2016-08-28T13:46:11Z</time></trkpt>
<trkpt lat="46.23457" lon="7.34813"><ele>634.8</ele><time>2016-08-28T13:46:13Z</time></trkpt>
<trkpt lat="46.23458" lon="7.34808"><ele>635.4</ele><time>2016-08-28T13:46:15Z</time></trkpt>
<trkpt lat="46.23459" lon="7.34803"><ele>635.8</ele><time>2016-08-28T13:46:17Z</time></trkpt>
<trkpt lat="46.23459" lon="7.34801"><ele>636</ele><time>2016-08-28T13:46:18Z</time></trkpt>
<trkpt lat="46.23459" lon="7.34799"><ele>636.2</ele><time>2016-08-28T13:46:19Z</time></trkpt>
<trkpt lat="46.23458" lon="7.34795"><ele>636.4</ele><time>2016-08-28T13:46:21Z</time></trkpt>
<trkpt lat="46.23458" lon="7.34791"><ele>636.6</ele><time>2016-08-28T13:46:23Z</time></trkpt>
<trkpt lat="46.23457" lon="7.34786"><ele>637</ele><time>2016-08-28T13:46:25Z</time></trkpt>
<trkpt lat="46.23456" lon="7.34782"><ele>637.2</ele><time>2016-08-28T13:46:27Z</time></trkpt>
<trkpt lat="46.23456" lon="7.34778"><ele>637.4</ele><time>2016-08-28T13:46:29Z</time></trkpt>
<trkpt lat="46.23455" lon="7.34774"><ele>637.8</ele><time>2016-08-28T13:46:31Z</time></trkpt>
<trkpt lat="46.23454" lon="7.3477"><ele>638</ele><time>2016-08-28T13:46:33Z</time></trkpt>
<trkpt lat="46.23453" lon="7.34765"><ele>638.2</ele><time>2016-08-28T13:46:35Z</time></trkpt>
<trkpt lat="46.23453" lon="7.34761"><ele>638.6</ele><time>2016-08-28T13:46:37Z</time></trkpt>
<trkpt lat="46.23452" lon="7.34757"><ele>638.8</ele><time>2016-08-28T13:46:39Z</time></trkpt>
<trkpt lat="46.23451" lon="7.34753"><ele>639</ele><time>2016-08-28T13:46:41Z</time></trkpt>
<trkpt lat="46.23451" lon="7.34749"><ele>639.4</ele><time>2016-08-28T13:46:43Z</time></trkpt>
<trkpt lat="46.2345" lon="7.34744"><ele>639.6</ele><time>2016-08-28T13:46:45Z</time></trkpt>
<trkpt lat="46.23449" lon="7.3474"><ele>640</ele><time>2016-08-28T13:46:47Z</time></trkpt>
<trkpt lat="46.23449" lon="7.34738"><ele>640.2</ele><time>2016-08-28T13:46:48Z</time></trkpt>
<trkpt lat="46.23448" lon="7.34737"><ele>640.4</ele><time>2016-08-28T13:46:49Z</time></trkpt>
<trkpt lat="46.23446" lon="7.34733"><ele>640.8</ele><time>2016-08-28T13:46:51Z</time></trkpt>
<trkpt lat="46.23445" lon="7.3473"><ele>641.2</ele><time>2016-08-28T13:46:53Z</time></trkpt>
<trkpt lat="46.23443" lon="7.34727"><ele>641.4</ele><time>2016-08-28T13:46:55Z</time></trkpt>
<trkpt lat="46.23441" lon="7.34724"><ele>641.8</ele><time>2016-08-28T13:46:57Z</time></trkpt>
<trkpt lat="46.23439" lon="7.34721"><ele>642.2</ele><time>2016-08-28T13:46:59Z</time></trkpt>
<trkpt lat="46.23438" lon="7.34717"><ele>642.6</ele><time>2016-08-28T13:47:01Z</time></trkpt>
<trkpt lat="46.23436" lon="7.34714"><ele>643</ele><time>2016-08-28T13:47:03Z</time></trkpt>
<trkpt lat="46.23434" lon="7.34711"><ele>643.4</ele><time>2016-08-28T13:47:05Z</time></trkpt>
<trkpt lat="46.23432" lon="7.34708"><ele>643.6</ele><time>2016-08-28T13:47:07Z</time></trkpt>
<trkpt lat="46.23431" lon="7.34705"><ele>644</ele><time>2016-08-28T13:47:09Z</time></trkpt>
<trkpt lat="46.23429" lon="7.34701"><ele>644.4</ele><time>2016-08-28T13:47:11Z</time></trkpt>
<trkpt lat="46.23428" lon="7.34697"><ele>644.8</ele><time>2016-08-28T13:47:13Z</time></trkpt>
<trkpt lat="46.23427" lon="7.34693"><ele>645</ele><time>2016-08-28T13:47:15Z</time></trkpt>
<trkpt lat="46.23426" lon="7.34689"><ele>645.4</ele><time>2016-08-28T13:47:17Z</time></trkpt>
<trkpt lat="46.23425" lon="7.34685"><ele>645.8</ele><time>2016-08-28T13:47:19Z</time></trkpt>
<trkpt lat="46.23424" lon="7.3468"><ele>646.2</ele><time>2016-08-28T13:47:21Z</time></trkpt>
<trkpt lat="46.23423" lon="7.34676"><ele>646.4</ele><time>2016-08-28T13:47:23Z</time></trkpt>
<trkpt lat="46.23422" lon="7.34672"><ele>646.8</ele><time>2016-08-28T13:47:25Z</time></trkpt>
<trkpt lat="46.23421" lon="7.34668"><ele>647.4</ele><time>2016-08-28T13:47:27Z</time></trkpt>
<trkpt lat="46.23421" lon="7.34663"><ele>647.8</ele><time>2016-08-28T13:47:29Z</time></trkpt>
<trkpt lat="46.2342" lon="7.34659"><ele>648.2</ele><time>2016-08-28T13:47:31Z</time></trkpt>
<trkpt lat="46.23419" lon="7.34655"><ele>648.8</ele><time>2016-08-28T13:47:33Z</time></trkpt>
<trkpt lat="46.23418" lon="7.34651"><ele>649.2</ele><time>2016-08-28T13:47:35Z</time></trkpt>
<trkpt lat="46.23417" lon="7.34646"><ele>649.8</ele><time>2016-08-28T13:47:37Z</time></trkpt>
<trkpt lat="46.23416" lon="7.34642"><ele>650.2</ele><time>2016-08-28T13:47:39Z</time></trkpt>
<trkpt lat="46.23415" lon="7.34638"><ele>650.6</ele><time>2016-08-28T13:47:41Z</time></trkpt>
<trkpt lat="46.23415" lon="7.34637"><ele>651</ele><time>2016-08-28T13:47:42Z</time></trkpt>
<trkpt lat="46.23414" lon="7.34636"><ele>651.2</ele><time>2016-08-28T13:47:43Z</time></trkpt>
<trkpt lat="46.23413" lon="7.34635"><ele>651.8</ele><time>2016-08-28T13:47:45Z</time></trkpt>
<trkpt lat="46.23419" lon="7.34621"><ele>654.4</ele><time>2016-08-28T13:47:47Z</time></trkpt>
<trkpt lat="46.23419" lon="7.34621"><ele>654.4</ele><time>2016-08-28T13:49:49Z</time></trkpt>
<trkpt lat="46.23425" lon="7.34609"><ele>656.4</ele><time>2016-08-28T13:49:51Z</time></trkpt>
<trkpt lat="46.23426" lon="7.34609"><ele>656.4</ele><time>2016-08-28T13:49:53Z</time></trkpt>
<trkpt lat="46.23426" lon="7.34609"><ele>656.4</ele><time>2016-08-28T13:49:55Z</time></trkpt>
<trkpt lat="46.23427" lon="7.34609"><ele>656.6</ele><time>2016-08-28T13:49:57Z</time></trkpt>
<trkpt lat="46.23427" lon="7.34609"><ele>656.6</ele><time>2016-08-28T13:49:59Z</time></trkpt>
<trkpt lat="46.23428" lon="7.34609"><ele>656.6</ele><time>2016-08-28T13:50:01Z</time></trkpt>
<trkpt lat="46.23428" lon="7.34609"><ele>656.6</ele><time>2016-08-28T13:50:02Z</time></trkpt>
<trkpt lat="46.23428" lon="7.34607"><ele>656.6</ele><time>2016-08-28T13:50:03Z</time></trkpt>
<trkpt lat="46.23428" lon="7.34604"><ele>656.8</ele><time>2016-08-28T13:50:05Z</time></trkpt>
<trkpt lat="46.23428" lon="7.34601"><ele>656.8</ele><time>2016-08-28T13:50:07Z</time></trkpt>
<trkpt lat="46.23428" lon="7.346"><ele>656.8</ele><time>2016-08-28T13:50:08Z</time></trkpt>
<trkpt lat="46.23428" lon="7.34598"><ele>657</ele><time>2016-08-28T13:50:09Z</time></trkpt>
<trkpt lat="46.23428" lon="7.34595"><ele>657.6</ele><time>2016-08-28T13:50:11Z</time></trkpt>
<trkpt lat="46.23428" lon="7.34592"><ele>658</ele><time>2016-08-28T13:50:13Z</time></trkpt>
<trkpt lat="46.23429" lon="7.34589"><ele>658.4</ele><time>2016-08-28T13:50:15Z</time></trkpt>
<trkpt lat="46.23429" lon="7.34585"><ele>659</ele><time>2016-08-28T13:50:17Z</time></trkpt>
<trkpt lat="46.23429" lon="7.34582"><ele>659.4</ele><time>2016-08-28T13:50:19Z</time></trkpt>
<trkpt lat="46.23429" lon="7.34581"><ele>659.8</ele><time>2016-08-28T13:50:20Z</time></trkpt>
<trkpt lat="46.23429" lon="7.34579"><ele>659.8</ele><time>2016-08-28T13:50:21Z</time></trkpt>
<trkpt lat="46.23429" lon="7.34576"><ele>660</ele><time>2016-08-28T13:50:23Z</time></trkpt>
<trkpt lat="46.23429" lon="7.34573"><ele>660.2</ele><time>2016-08-28T13:50:25Z</time></trkpt>
<trkpt lat="46.23429" lon="7.3457"><ele>660.4</ele><time>2016-08-28T13:50:27Z</time></trkpt>
<trkpt lat="46.23429" lon="7.34567"><ele>660.6</ele><time>2016-08-28T13:50:29Z</time></trkpt>
<trkpt lat="46.23429" lon="7.34563"><ele>660.8</ele><time>2016-08-28T13:50:31Z</time></trkpt>
<trkpt lat="46.23429" lon="7.3456"><ele>661</ele><time>2016-08-28T13:50:33Z</time></trkpt>
<trkpt lat="46.23429" lon="7.34557"><ele>661.2</ele><time>2016-08-28T13:50:35Z</time></trkpt>
<trkpt lat="46.23429" lon="7.34554"><ele>661.4</ele><time>2016-08-28T13:50:37Z</time></trkpt>
<trkpt lat="46.2343" lon="7.34551"><ele>661.6</ele><time>2016-08-28T13:50:39Z</time></trkpt>
<trkpt lat="46.2343" lon="7.34548"><ele>661.8</ele><time>2016-08-28T13:50:41Z</time></trkpt>
<trkpt lat="46.2343" lon="7.34545"><ele>662</ele><time>2016-08-28T13:50:43Z</time></trkpt>
<trkpt lat="46.2343" lon="7.34543"><ele>662.2</ele><time>2016-08-28T13:50:44Z</time></trkpt>
<trkpt lat="46.2343" lon="7.3454"><ele>662.2</ele><time>2016-08-28T13:50:45Z</time></trkpt>
<trkpt lat="46.23431" lon="7.34535"><ele>662.4</ele><time>2016-08-28T13:50:47Z</time></trkpt>
<trkpt lat="46.23431" lon="7.3453"><ele>662.6</ele><time>2016-08-28T13:50:49Z</time></trkpt>
<trkpt lat="46.23432" lon="7.34524"><ele>662.8</ele><time>2016-08-28T13:50:51Z</time></trkpt>
<trkpt lat="46.23433" lon="7.34519"><ele>663</ele><time>2016-08-28T13:50:53Z</time></trkpt>
<trkpt lat="46.23434" lon="7.34514"><ele>663.2</ele><time>2016-08-28T13:50:55Z</time></trkpt>
<trkpt lat="46.23434" lon="7.34508"><ele>663.4</ele><time>2016-08-28T13:50:57Z</time></trkpt>
<trkpt lat="46.23435" lon="7.34503"><ele>663.6</ele><time>2016-08-28T13:50:59Z</time></trkpt>
<trkpt lat="46.23435" lon="7.345"><ele>663.6</ele><time>2016-08-28T13:51:00Z</time></trkpt>
<trkpt lat="46.23436" lon="7.34498"><ele>663.8</ele><time>2016-08-28T13:51:01Z</time></trkpt>
<trkpt lat="46.23436" lon="7.34494"><ele>664</ele><time>2016-08-28T13:51:03Z</time></trkpt>
<trkpt lat="46.23436" lon="7.34489"><ele>664.2</ele><time>2016-08-28T13:51:05Z</time></trkpt>
<trkpt lat="46.23436" lon="7.34485"><ele>664.4</ele><time>2016-08-28T13:51:07Z</time></trkpt>
<trkpt lat="46.23436" lon="7.34481"><ele>664.4</ele><time>2016-08-28T13:51:09Z</time></trkpt>
<trkpt lat="46.23436" lon="7.34476"><ele>664.6</ele><time>2016-08-28T13:51:11Z</time></trkpt>
<trkpt lat="46.23436" lon="7.34472"><ele>664.8</ele><time>2016-08-28T13:51:13Z</time></trkpt>
<trkpt lat="46.23436" lon="7.3447"><ele>665</ele><time>2016-08-28T13:51:14Z</time></trkpt>
<trkpt lat="46.23436" lon="7.34468"><ele>665</ele><time>2016-08-28T13:51:15Z</time></trkpt>
<trkpt lat="46.23436" lon="7.34463"><ele>665.2</ele><time>2016-08-28T13:51:17Z</time></trkpt>
<trkpt lat="46.23436" lon="7.34459"><ele>665.4</ele><time>2016-08-28T13:51:19Z</time></trkpt>
<trkpt lat="46.23436" lon="7.34455"><ele>665.6</ele><time>2016-08-28T13:51:21Z</time></trkpt>
<trkpt lat="46.23436" lon="7.3445"><ele>665.8</ele><time>2016-08-28T13:51:23Z</time></trkpt>
<trkpt lat="46.23436" lon="7.34446"><ele>666</ele><time>2016-08-28T13:51:25Z</time></trkpt>
<trkpt lat="46.23436" lon="7.34442"><ele>666.2</ele><time>2016-08-28T13:51:27Z</time></trkpt>
<trkpt lat="46.23437" lon="7.34438"><ele>666.4</ele><time>2016-08-28T13:51:29Z</time></trkpt>
<trkpt lat="46.23437" lon="7.34433"><ele>666.6</ele><time>2016-08-28T13:51:31Z</time></trkpt>
<trkpt lat="46.23436" lon="7.3443"><ele>667</ele><time>2016-08-28T13:51:33Z</time></trkpt>
<trkpt lat="46.23435" lon="7.34427"><ele>667.4</ele><time>2016-08-28T13:51:35Z</time></trkpt>
<trkpt lat="46.23434" lon="7.34423"><ele>667.6</ele><time>2016-08-28T13:51:37Z</time></trkpt>
<trkpt lat="46.23433" lon="7.3442"><ele>668</ele><time>2016-08-28T13:51:39Z</time></trkpt>
<trkpt lat="46.23432" lon="7.34417"><ele>668.2</ele><time>2016-08-28T13:51:41Z</time></trkpt>
<trkpt lat="46.23431" lon="7.34413"><ele>668.6</ele><time>2016-08-28T13:51:43Z</time></trkpt>
<trkpt lat="46.2343" lon="7.3441"><ele>669</ele><time>2016-08-28T13:51:45Z</time></trkpt>
<trkpt lat="46.23429" lon="7.34407"><ele>669.4</ele><time>2016-08-28T13:51:47Z</time></trkpt>
<trkpt lat="46.23428" lon="7.34404"><ele>669.8</ele><time>2016-08-28T13:51:49Z</time></trkpt>
<trkpt lat="46.23427" lon="7.344"><ele>670.2</ele><time>2016-08-28T13:51:51Z</time></trkpt>
<trkpt lat="46.23426" lon="7.34397"><ele>670.6</ele><time>2016-08-28T13:51:53Z</time></trkpt>
<trkpt lat="46.23425" lon="7.34394"><ele>671</ele><time>2016-08-28T13:51:55Z</time></trkpt>
<trkpt lat="46.23425" lon="7.3439"><ele>671.4</ele><time>2016-08-28T13:51:57Z</time></trkpt>
<trkpt lat="46.23424" lon="7.34387"><ele>671.8</ele><time>2016-08-28T13:51:59Z</time></trkpt>
<trkpt lat="46.23423" lon="7.34384"><ele>672.2</ele><time>2016-08-28T13:52:01Z</time></trkpt>
<trkpt lat="46.23422" lon="7.34381"><ele>672.4</ele><time>2016-08-28T13:52:03Z</time></trkpt>
<trkpt lat="46.23421" lon="7.34377"><ele>672.8</ele><time>2016-08-28T13:52:05Z</time></trkpt>
<trkpt lat="46.2342" lon="7.34374"><ele>673.2</ele><time>2016-08-28T13:52:07Z</time></trkpt>
<trkpt lat="46.23419" lon="7.34372"><ele>673.2</ele><time>2016-08-28T13:52:08Z</time></trkpt>
<trkpt lat="46.23423" lon="7.34346"><ele>677.4</ele><time>2016-08-28T13:52:09Z</time></trkpt>
<trkpt lat="46.23423" lon="7.34346"><ele>677.4</ele><time>2016-08-28T13:53:25Z</time></trkpt>
<trkpt lat="46.23427" lon="7.34321"><ele>681.4</ele><time>2016-08-28T13:53:26Z</time></trkpt>
<trkpt lat="46.23427" lon="7.34321"><ele>681.6</ele><time>2016-08-28T13:53:27Z</time></trkpt>
<trkpt lat="46.23427" lon="7.3432"><ele>682.2</ele><time>2016-08-28T13:53:29Z</time></trkpt>
<trkpt lat="46.23427" lon="7.34318"><ele>682.6</ele><time>2016-08-28T13:53:31Z</time></trkpt>
<trkpt lat="46.23427" lon="7.34317"><ele>683</ele><time>2016-08-28T13:53:33Z</time></trkpt>
<trkpt lat="46.23427" lon="7.34316"><ele>683.6</ele><time>2016-08-28T13:53:35Z</time></trkpt>
<trkpt lat="46.23427" lon="7.34315"><ele>684</ele><time>2016-08-28T13:53:37Z</time></trkpt>
<trkpt lat="46.23427" lon="7.34313"><ele>684.4</ele><time>2016-08-28T13:53:39Z</time></trkpt>
<trkpt lat="46.23427" lon="7.34312"><ele>684.8</ele><time>2016-08-28T13:53:41Z</time></trkpt>
<trkpt lat="46.23427" lon="7.34311"><ele>685.2</ele><time>2016-08-28T13:53:42Z</time></trkpt>
<trkpt lat="46.23427" lon="7.34311"><ele>685.2</ele><time>2016-08-28T13:53:43Z</time></trkpt>
<trkpt lat="46.23427" lon="7.3431"><ele>685.6</ele><time>2016-08-28T13:53:45Z</time></trkpt>
<trkpt lat="46.23427" lon="7.34308"><ele>685.8</ele><time>2016-08-28T13:53:47Z</time></trkpt>
<trkpt lat="46.23427" lon="7.34307"><ele>686</ele><time>2016-08-28T13:53:49Z</time></trkpt>
<trkpt lat="46.23426" lon="7.34306"><ele>686.2</ele><time>2016-08-28T13:53:51Z</time></trkpt>
<trkpt lat="46.23426" lon="7.34305"><ele>686.6</ele><time>2016-08-28T13:53:53Z</time></trkpt>
<trkpt lat="46.23426" lon="7.34303"><ele>686.8</ele><time>2016-08-28T13:53:55Z</time></trkpt>
<trkpt lat="46.23426" lon="7.34302"><ele>687</ele><time>2016-08-28T13:53:57Z</time></trkpt>
<trkpt lat="46.23426" lon="7.34301"><ele>687.2</ele><time>2016-08-28T13:53:59Z</time></trkpt>
<trkpt lat="46.23426" lon="7.343"><ele>687.6</ele><time>2016-08-28T13:54:01Z</time></trkpt>
<trkpt lat="46.23426" lon="7.34298"><ele>687.8</ele><time>2016-08-28T13:54:03Z</time></trkpt>
<trkpt lat="46.23426" lon="7.34298"><ele>688</ele><time>2016-08-28T13:54:04Z</time></trkpt>
<trkpt lat="46.23426" lon="7.34297"><ele>688</ele><time>2016-08-28T13:54:05Z</time></trkpt>
<trkpt lat="46.23426" lon="7.34296"><ele>688.4</ele><time>2016-08-28T13:54:07Z</time></trkpt>
<trkpt lat="46.23426" lon="7.34295"><ele>688.8</ele><time>2016-08-28T13:54:09Z</time></trkpt>
<trkpt lat="46.23426" lon="7.34293"><ele>689</ele><time>2016-08-28T13:54:11Z</time></trkpt>
<trkpt lat="46.23426" lon="7.34292"><ele>689.4</ele><time>2016-08-28T13:54:13Z</time></trkpt>
<trkpt lat="46.23426" lon="7.34291"><ele>689.8</ele><time>2016-08-28T13:54:15Z</time></trkpt>
<trkpt lat="46.23426" lon="7.34288"><ele>690</ele><time>2016-08-28T13:54:17Z</time></trkpt>
<trkpt lat="46.23425" lon="7.34284"><ele>690.4</ele><time>2016-08-28T13:54:19Z</time></trkpt>
<trkpt lat="46.23425" lon="7.34283"><ele>690.6</ele><time>2016-08-28T13:54:20Z</time></trkpt>
<trkpt lat="46.23425" lon="7.34281"><ele>690.8</ele><time>2016-08-28T13:54:21Z</time></trkpt>
<trkpt lat="46.23424" lon="7.34278"><ele>691</ele><time>2016-08-28T13:54:23Z</time></trkpt>
<trkpt lat="46.23424" lon="7.34275"><ele>691.2</ele><time>2016-08-28T13:54:25Z</time></trkpt>
<trkpt lat="46.23423" lon="7.34271"><ele>691.6</ele><time>2016-08-28T13:54:27Z</time></trkpt>
<trkpt lat="46.23423" lon="7.34268"><ele>691.8</ele><time>2016-08-28T13:54:29Z</time></trkpt>
<trkpt lat="46.23423" lon="7.34265"><ele>692.2</ele><time>2016-08-28T13:54:31Z</time></trkpt>
<trkpt lat="46.23422" lon="7.34262"><ele>692.4</ele><time>2016-08-28T13:54:33Z</time></trkpt>
<trkpt lat="46.23422" lon="7.34258"><ele>692.6</ele><time>2016-08-28T13:54:35Z</time></trkpt>
<trkpt lat="46.23421" lon="7.34255"><ele>693</ele><time>2016-08-28T13:54:37Z</time></trkpt>
<trkpt lat="46.23421" lon="7.34252"><ele>693.2</ele><time>2016-08-28T13:54:39Z</time></trkpt>
<trkpt lat="46.2342" lon="7.34248"><ele>693.4</ele><time>2016-08-28T13:54:41Z</time></trkpt>
<trkpt lat="46.2342" lon="7.34247"><ele>693.6</ele><time>2016-08-28T13:54:42Z</time></trkpt>
<trkpt lat="46.2342" lon="7.34245"><ele>693.8</ele><time>2016-08-28T13:54:43Z</time></trkpt>
<trkpt lat="46.2342" lon="7.34242"><ele>693.8</ele><time>2016-08-28T13:54:45Z</time></trkpt>
<trkpt lat="46.23419" lon="7.34239"><ele>694</ele><time>2016-08-28T13:54:47Z</time></trkpt>
<trkpt lat="46.23419" lon="7.34237"><ele>694.2</ele><time>2016-08-28T13:54:48Z</time></trkpt>
<trkpt lat="46.23419" lon="7.34235"><ele>694</ele><time>2016-08-28T13:54:49Z</time></trkpt>
<trkpt lat="46.23418" lon="7.34232"><ele>694</ele><time>2016-08-28T13:54:51Z</time></trkpt>
<trkpt lat="46.23418" lon="7.34229"><ele>694</ele><time>2016-08-28T13:54:53Z</time></trkpt>
<trkpt lat="46.23417" lon="7.34226"><ele>694</ele><time>2016-08-28T13:54:55Z</time></trkpt>
<trkpt lat="46.23418" lon="7.34216"><ele>694</ele><time>2016-08-28T13:54:57Z</time></trkpt>
<trkpt lat="46.23418" lon="7.34206"><ele>694</ele><time>2016-08-28T13:54:59Z</time></trkpt>
<trkpt lat="46.23419" lon="7.34196"><ele>693.8</ele><time>2016-08-28T13:55:01Z</time></trkpt>
<trkpt lat="46.23419" lon="7.34186"><ele>693.8</ele><time>2016-08-28T13:55:03Z</time></trkpt>
<trkpt lat="46.23415" lon="7.34177"><ele>693.8</ele><time>2016-08-28T13:55:05Z</time></trkpt>
<trkpt lat="46.23411" lon="7.34169"><ele>693.8</ele><time>2016-08-28T13:55:07Z</time></trkpt>
<trkpt lat="46.23407" lon="7.3416"><ele>693.8</ele><time>2016-08-28T13:55:09Z</time></trkpt>
<trkpt lat="46.23402" lon="7.34151"><ele>693.6</ele><time>2016-08-28T13:55:11Z</time></trkpt>
<trkpt lat="46.23398" lon="7.34143"><ele>693.6</ele><time>2016-08-28T13:55:13Z</time></trkpt>
<trkpt lat="46.23394" lon="7.34134"><ele>693.6</ele><time>2016-08-28T13:55:15Z</time></trkpt>
<trkpt lat="46.23392" lon="7.3413"><ele>693.6</ele><time>2016-08-28T13:55:16Z</time></trkpt>
<trkpt lat="46.2339" lon="7.34127"><ele>693.6</ele><time>2016-08-28T13:55:17Z</time></trkpt>
<trkpt lat="46.23386" lon="7.34121"><ele>693.6</ele><time>2016-08-28T13:55:19Z</time></trkpt>
<trkpt lat="46.23382" lon="7.34115"><ele>693.6</ele><time>2016-08-28T13:55:21Z</time></trkpt>
<trkpt lat="46.23378" lon="7.34109"><ele>693.4</ele><time>2016-08-28T13:55:23Z</time></trkpt>
<trkpt lat="46.23373" lon="7.34103"><ele>693.4</ele><time>2016-08-28T13:55:25Z</time></trkpt>
<trkpt lat="46.23369" lon="7.34097"><ele>693.4</ele><time>2016-08-28T13:55:27Z</time></trkpt>
<trkpt lat="46.23365" lon="7.34091"><ele>693.4</ele><time>2016-08-28T13:55:29Z</time></trkpt>
<trkpt lat="46.23356" lon="7.34089"><ele>693.4</ele><time>2016-08-28T13:55:31Z</time></trkpt>
<trkpt lat="46.23352" lon="7.34088"><ele>693.4</ele><time>2016-08-28T13:55:32Z</time></trkpt>
<trkpt lat="46.2335" lon="7.34085"><ele>693.4</ele><time>2016-08-28T13:55:33Z</time></trkpt>
<trkpt lat="46.23348" lon="7.34082"><ele>693.2</ele><time>2016-08-28T13:55:34Z</time></trkpt>
<trkpt lat="46.23349" lon="7.34079"><ele>693.2</ele><time>2016-08-28T13:55:35Z</time></trkpt>
<trkpt lat="46.23353" lon="7.34073"><ele>693.2</ele><time>2016-08-28T13:55:37Z</time></trkpt>
<trkpt lat="46.23356" lon="7.34067"><ele>693.2</ele><time>2016-08-28T13:55:39Z</time></trkpt>
<trkpt lat="46.2336" lon="7.3406"><ele>693.2</ele><time>2016-08-28T13:55:41Z</time></trkpt>
<trkpt lat="46.23364" lon="7.34054"><ele>693.2</ele><time>2016-08-28T13:55:43Z</time></trkpt>
<trkpt lat="46.23368" lon="7.34048"><ele>693</ele><time>2016-08-28T13:55:45Z</time></trkpt>
<trkpt lat="46.23371" lon="7.34041"><ele>693</ele><time>2016-08-28T13:55:47Z</time></trkpt>
<trkpt lat="46.23375" lon="7.34035"><ele>693</ele><time>2016-08-28T13:55:49Z</time></trkpt>
<trkpt lat="46.23377" lon="7.34032"><ele>693</ele><time>2016-08-28T13:55:50Z</time></trkpt>
<trkpt lat="46.23378" lon="7.34029"><ele>693</ele><time>2016-08-28T13:55:51Z</time></trkpt>
<trkpt lat="46.2338" lon="7.34023"><ele>693</ele><time>2016-08-28T13:55:53Z</time></trkpt>
<trkpt lat="46.23382" lon="7.34018"><ele>693</ele><time>2016-08-28T13:55:55Z</time></trkpt>
<trkpt lat="46.23384" lon="7.34012"><ele>692.8</ele><time>2016-08-28T13:55:57Z</time></trkpt>
<trkpt lat="46.23381" lon="7.34004"><ele>692.8</ele><time>2016-08-28T13:55:59Z</time></trkpt>
<trkpt lat="46.23377" lon="7.33996"><ele>692.8</ele><time>2016-08-28T13:56:01Z</time></trkpt>
<trkpt lat="46.23373" lon="7.33988"><ele>692.8</ele><time>2016-08-28T13:56:03Z</time></trkpt>
<trkpt lat="46.23372" lon="7.33984"><ele>692.8</ele><time>2016-08-28T13:56:04Z</time></trkpt>
<trkpt lat="46.23373" lon="7.33978"><ele>692.8</ele><time>2016-08-28T13:56:05Z</time></trkpt>
<trkpt lat="46.23376" lon="7.33964"><ele>692.6</ele><time>2016-08-28T13:56:07Z</time></trkpt>
<trkpt lat="46.2338" lon="7.3395"><ele>692.6</ele><time>2016-08-28T13:56:09Z</time></trkpt>
<trkpt lat="46.23383" lon="7.33936"><ele>692.6</ele><time>2016-08-28T13:56:11Z</time></trkpt>
<trkpt lat="46.23386" lon="7.33923"><ele>692.6</ele><time>2016-08-28T13:56:13Z</time></trkpt>
<trkpt lat="46.23388" lon="7.33911"><ele>692.6</ele><time>2016-08-28T13:56:15Z</time></trkpt>
<trkpt lat="46.23389" lon="7.339"><ele>692.6</ele><time>2016-08-28T13:56:17Z</time></trkpt>
<trkpt lat="46.2339" lon="7.3389"><ele>692.4</ele><time>2016-08-28T13:56:19Z</time></trkpt>
<trkpt lat="46.23391" lon="7.33879"><ele>692.4</ele><time>2016-08-28T13:56:21Z</time></trkpt>
<trkpt lat="46.23389" lon="7.33867"><ele>692.4</ele><time>2016-08-28T13:56:23Z</time></trkpt>
<trkpt lat="46.23388" lon="7.33856"><ele>692.4</ele><time>2016-08-28T13:56:25Z</time></trkpt>
<trkpt lat="46.23386" lon="7.33845"><ele>692.4</ele><time>2016-08-28T13:56:27Z</time></trkpt>
<trkpt lat="46.23385" lon="7.33834"><ele>692.2</ele><time>2016-08-28T13:56:29Z</time></trkpt>
<trkpt lat="46.23383" lon="7.33823"><ele>692.2</ele><time>2016-08-28T13:56:31Z</time></trkpt>
<trkpt lat="46.23381" lon="7.33811"><ele>692.2</ele><time>2016-08-28T13:56:33Z</time></trkpt>
<trkpt lat="46.2338" lon="7.33803"><ele>692.2</ele><time>2016-08-28T13:56:35Z</time></trkpt>
<trkpt lat="46.23378" lon="7.33794"><ele>692.2</ele><time>2016-08-28T13:56:37Z</time></trkpt>
<trkpt lat="46.23376" lon="7.33785"><ele>692.2</ele><time>2016-08-28T13:56:39Z</time></trkpt>
<trkpt lat="46.23375" lon="7.33777"><ele>692</ele><time>2016-08-28T13:56:41Z</time></trkpt>
<trkpt lat="46.23373" lon="7.33768"><ele>692</ele><time>2016-08-28T13:56:43Z</time></trkpt>
<trkpt lat="46.23372" lon="7.3376"><ele>692</ele><time>2016-08-28T13:56:45Z</time></trkpt>
<trkpt lat="46.2337" lon="7.33751"><ele>692</ele><time>2016-08-28T13:56:47Z</time></trkpt>
<trkpt lat="46.23369" lon="7.33747"><ele>692</ele><time>2016-08-28T13:56:48Z</time></trkpt>
<trkpt lat="46.23369" lon="7.33742"><ele>692</ele><time>2016-08-28T13:56:49Z</time></trkpt>
<trkpt lat="46.23369" lon="7.33733"><ele>691.8</ele><time>2016-08-28T13:56:51Z</time></trkpt>
<trkpt lat="46.23369" lon="7.33723"><ele>691.8</ele><time>2016-08-28T13:56:53Z</time></trkpt>
<trkpt lat="46.23369" lon="7.33714"><ele>691.8</ele><time>2016-08-28T13:56:55Z</time></trkpt>
<trkpt lat="46.23368" lon="7.33705"><ele>691.8</ele><time>2016-08-28T13:56:57Z</time></trkpt>
<trkpt lat="46.23368" lon="7.33695"><ele>691.8</ele><time>2016-08-28T13:56:59Z</time></trkpt>
<trkpt lat="46.23368" lon="7.33686"><ele>691.8</ele><time>2016-08-28T13:57:01Z</time></trkpt>
<trkpt lat="46.23368" lon="7.33681"><ele>691.6</ele><time>2016-08-28T13:57:02Z</time></trkpt>
<trkpt lat="46.23367" lon="7.33675"><ele>691.6</ele><time>2016-08-28T13:57:03Z</time></trkpt>
<trkpt lat="46.23365" lon="7.33664"><ele>691.6</ele><time>2016-08-28T13:57:05Z</time></trkpt>
<trkpt lat="46.23364" lon="7.33652"><ele>691.6</ele><time>2016-08-28T13:57:07Z</time></trkpt>
<trkpt lat="46.23362" lon="7.3364"><ele>691.6</ele><time>2016-08-28T13:57:09Z</time></trkpt>
<trkpt lat="46.2336" lon="7.33628"><ele>691.6</ele><time>2016-08-28T13:57:11Z</time></trkpt>
<trkpt lat="46.23358" lon="7.33617"><ele>691.4</ele><time>2016-08-28T13:57:13Z</time></trkpt>
<trkpt lat="46.23357" lon="7.33611"><ele>691.4</ele><time>2016-08-28T13:57:14Z</time></trkpt>
<trkpt lat="46.23356" lon="7.33602"><ele>691.4</ele><time>2016-08-28T13:57:15Z</time></trkpt>
<trkpt lat="46.23352" lon="7.33583"><ele>691.4</ele><time>2016-08-28T13:57:17Z</time></trkpt>
<trkpt lat="46.23348" lon="7.33565"><ele>691.4</ele><time>2016-08-28T13:57:19Z</time></trkpt>
<trkpt lat="46.23346" lon="7.33555"><ele>691.4</ele><time>2016-08-28T13:57:20Z</time></trkpt>
<trkpt lat="46.23343" lon="7.33549"><ele>691.4</ele><time>2016-08-28T13:57:21Z</time></trkpt>
<trkpt lat="46.23335" lon="7.33537"><ele>691.4</ele><time>2016-08-28T13:57:23Z</time></trkpt>
<trkpt lat="46.23327" lon="7.33526"><ele>691.2</ele><time>2016-08-28T13:57:25Z</time></trkpt>
<trkpt lat="46.23319" lon="7.33514"><ele>691.2</ele><time>2016-08-28T13:57:27Z</time></trkpt>
<trkpt lat="46.23315" lon="7.33509"><ele>691.2</ele><time>2016-08-28T13:57:28Z</time></trkpt>
<trkpt lat="46.23312" lon="7.33504"><ele>691.2</ele><time>2016-08-28T13:57:29Z</time></trkpt>
<trkpt lat="46.23307" lon="7.33497"><ele>691.2</ele><time>2016-08-28T13:57:31Z</time></trkpt>
<trkpt lat="46.23303" lon="7.33489"><ele>691.2</ele><time>2016-08-28T13:57:33Z</time></trkpt>
<trkpt lat="46.23298" lon="7.33482"><ele>691</ele><time>2016-08-28T13:57:35Z</time></trkpt>
<trkpt lat="46.23296" lon="7.33478"><ele>691</ele><time>2016-08-28T13:57:36Z</time></trkpt>
<trkpt lat="46.23293" lon="7.33474"><ele>691.2</ele><time>2016-08-28T13:57:37Z</time></trkpt>
<trkpt lat="46.23289" lon="7.33466"><ele>691.2</ele><time>2016-08-28T13:57:39Z</time></trkpt>
<trkpt lat="46.23284" lon="7.33459"><ele>691.4</ele><time>2016-08-28T13:57:41Z</time></trkpt>
<trkpt lat="46.23279" lon="7.33449"><ele>691.6</ele><time>2016-08-28T13:57:43Z</time></trkpt>
<trkpt lat="46.23274" lon="7.33438"><ele>691.8</ele><time>2016-08-28T13:57:45Z</time></trkpt>
<trkpt lat="46.23268" lon="7.33437"><ele>691.8</ele><time>2016-08-28T13:57:46Z</time></trkpt>
<trkpt lat="46.23264" lon="7.33434"><ele>691.8</ele><time>2016-08-28T13:57:47Z</time></trkpt>
<trkpt lat="46.23257" lon="7.33427"><ele>692</ele><time>2016-08-28T13:57:49Z</time></trkpt>
<trkpt lat="46.23249" lon="7.3342"><ele>692.2</ele><time>2016-08-28T13:57:51Z</time></trkpt>
<trkpt lat="46.23244" lon="7.3342"><ele>692.2</ele><time>2016-08-28T13:57:53Z</time></trkpt>
<trkpt lat="46.23238" lon="7.3342"><ele>692.4</ele><time>2016-08-28T13:57:55Z</time></trkpt>
<trkpt lat="46.23233" lon="7.33421"><ele>692.6</ele><time>2016-08-28T13:57:57Z</time></trkpt>
<trkpt lat="46.23231" lon="7.33413"><ele>692.8</ele><time>2016-08-28T13:57:59Z</time></trkpt>
<trkpt lat="46.23229" lon="7.33405"><ele>692.8</ele><time>2016-08-28T13:58:01Z</time></trkpt>
<trkpt lat="46.23227" lon="7.33397"><ele>693</ele><time>2016-08-28T13:58:03Z</time></trkpt>
<trkpt lat="46.23225" lon="7.33389"><ele>693.2</ele><time>2016-08-28T13:58:05Z</time></trkpt>
<trkpt lat="46.23223" lon="7.33381"><ele>693.4</ele><time>2016-08-28T13:58:07Z</time></trkpt>
<trkpt lat="46.23221" lon="7.33373"><ele>693.4</ele><time>2016-08-28T13:58:09Z</time></trkpt>
<trkpt lat="46.23218" lon="7.3336"><ele>693.6</ele><time>2016-08-28T13:58:12Z</time></trkpt>
<trkpt lat="46.23217" lon="7.33356"><ele>693.8</ele><time>2016-08-28T13:58:13Z</time></trkpt>
<trkpt lat="46.23216" lon="7.33352"><ele>693.8</ele><time>2016-08-28T13:58:14Z</time></trkpt>
<trkpt lat="46.23215" lon="7.33348"><ele>694</ele><time>2016-08-28T13:58:15Z</time></trkpt>
<trkpt lat="46.23213" lon="7.3334"><ele>694.2</ele><time>2016-08-28T13:58:17Z</time></trkpt>
<trkpt lat="46.23211" lon="7.33332"><ele>694.6</ele><time>2016-08-28T13:58:19Z</time></trkpt>
<trkpt lat="46.23209" lon="7.33323"><ele>694.8</ele><time>2016-08-28T13:58:21Z</time></trkpt>
<trkpt lat="46.23208" lon="7.33315"><ele>695</ele><time>2016-08-28T13:58:23Z</time></trkpt>
<trkpt lat="46.23206" lon="7.33307"><ele>695.4</ele><time>2016-08-28T13:58:25Z</time></trkpt>
<trkpt lat="46.23204" lon="7.33299"><ele>695.6</ele><time>2016-08-28T13:58:27Z</time></trkpt>
<trkpt lat="46.23202" lon="7.3329"><ele>696</ele><time>2016-08-28T13:58:29Z</time></trkpt>
<trkpt lat="46.23201" lon="7.33285"><ele>696.2</ele><time>2016-08-28T13:58:31Z</time></trkpt>
<trkpt lat="46.232" lon="7.3328"><ele>696.6</ele><time>2016-08-28T13:58:33Z</time></trkpt>
<trkpt lat="46.23199" lon="7.33274"><ele>696.8</ele><time>2016-08-28T13:58:35Z</time></trkpt>
<trkpt lat="46.23198" lon="7.33269"><ele>697</ele><time>2016-08-28T13:58:37Z</time></trkpt>
<trkpt lat="46.23198" lon="7.33266"><ele>697.2</ele><time>2016-08-28T13:58:38Z</time></trkpt>
<trkpt lat="46.23197" lon="7.33264"><ele>697.4</ele><time>2016-08-28T13:58:39Z</time></trkpt>
<trkpt lat="46.23196" lon="7.33258"><ele>697.8</ele><time>2016-08-28T13:58:41Z</time></trkpt>
<trkpt lat="46.23196" lon="7.33253"><ele>698</ele><time>2016-08-28T13:58:43Z</time></trkpt>
<trkpt lat="46.23195" lon="7.33248"><ele>698.4</ele><time>2016-08-28T13:58:45Z</time></trkpt>
<trkpt lat="46.23194" lon="7.33243"><ele>698.8</ele><time>2016-08-28T13:58:47Z</time></trkpt>
<trkpt lat="46.23193" lon="7.33237"><ele>699.2</ele><time>2016-08-28T13:58:49Z</time></trkpt>
<trkpt lat="46.23192" lon="7.33232"><ele>699.4</ele><time>2016-08-28T13:58:51Z</time></trkpt>
<trkpt lat="46.23191" lon="7.33227"><ele>699.8</ele><time>2016-08-28T13:58:53Z</time></trkpt>
<trkpt lat="46.2319" lon="7.33222"><ele>700.2</ele><time>2016-08-28T13:58:55Z</time></trkpt>
<trkpt lat="46.23189" lon="7.33217"><ele>700.6</ele><time>2016-08-28T13:58:57Z</time></trkpt>
<trkpt lat="46.23188" lon="7.33212"><ele>700.8</ele><time>2016-08-28T13:58:59Z</time></trkpt>
<trkpt lat="46.23188" lon="7.33209"><ele>701</ele><time>2016-08-28T13:59:00Z</time></trkpt>
<trkpt lat="46.23187" lon="7.33207"><ele>701.2</ele><time>2016-08-28T13:59:01Z</time></trkpt>
<trkpt lat="46.23187" lon="7.33202"><ele>701.6</ele><time>2016-08-28T13:59:03Z</time></trkpt>
<trkpt lat="46.23186" lon="7.33197"><ele>701.8</ele><time>2016-08-28T13:59:05Z</time></trkpt>
<trkpt lat="46.23185" lon="7.33192"><ele>702.2</ele><time>2016-08-28T13:59:07Z</time></trkpt>
<trkpt lat="46.23184" lon="7.33187"><ele>702.4</ele><time>2016-08-28T13:59:09Z</time></trkpt>
<trkpt lat="46.23183" lon="7.33182"><ele>702.8</ele><time>2016-08-28T13:59:11Z</time></trkpt>
<trkpt lat="46.23182" lon="7.33176"><ele>703</ele><time>2016-08-28T13:59:13Z</time></trkpt>
<trkpt lat="46.23181" lon="7.33171"><ele>703.4</ele><time>2016-08-28T13:59:15Z</time></trkpt>
<trkpt lat="46.2318" lon="7.33166"><ele>703.8</ele><time>2016-08-28T13:59:17Z</time></trkpt>
<trkpt lat="46.23179" lon="7.33161"><ele>704</ele><time>2016-08-28T13:59:19Z</time></trkpt>
<trkpt lat="46.23179" lon="7.33159"><ele>704.2</ele><time>2016-08-28T13:59:20Z</time></trkpt>
<trkpt lat="46.23179" lon="7.33157"><ele>704.4</ele><time>2016-08-28T13:59:21Z</time></trkpt>
<trkpt lat="46.23178" lon="7.33155"><ele>704.6</ele><time>2016-08-28T13:59:22Z</time></trkpt>
<trkpt lat="46.23178" lon="7.33153"><ele>704.6</ele><time>2016-08-28T13:59:23Z</time></trkpt>
<trkpt lat="46.23177" lon="7.3315"><ele>704.6</ele><time>2016-08-28T13:59:25Z</time></trkpt>
<trkpt lat="46.23176" lon="7.33146"><ele>704.6</ele><time>2016-08-28T13:59:27Z</time></trkpt>
<trkpt lat="46.23176" lon="7.33145"><ele>704.6</ele><time>2016-08-28T13:59:28Z</time></trkpt>
<trkpt lat="46.23178" lon="7.33144"><ele>704.6</ele><time>2016-08-28T13:59:29Z</time></trkpt>
<trkpt lat="46.23184" lon="7.33142"><ele>704.8</ele><time>2016-08-28T13:59:31Z</time></trkpt>
<trkpt lat="46.23191" lon="7.3314"><ele>704.8</ele><time>2016-08-28T13:59:33Z</time></trkpt>
<trkpt lat="46.23194" lon="7.33139"><ele>704.8</ele><time>2016-08-28T13:59:34Z</time></trkpt>
<trkpt lat="46.23197" lon="7.33143"><ele>704.8</ele><time>2016-08-28T13:59:35Z</time></trkpt>
<trkpt lat="46.23204" lon="7.33153"><ele>704.8</ele><time>2016-08-28T13:59:37Z</time></trkpt>
<trkpt lat="46.23207" lon="7.33157"><ele>704.8</ele><time>2016-08-28T13:59:38Z</time></trkpt>
<trkpt lat="46.2321" lon="7.33163"><ele>704.8</ele><time>2016-08-28T13:59:39Z</time></trkpt>
<trkpt lat="46.23213" lon="7.33169"><ele>704.8</ele><time>2016-08-28T13:59:40Z</time></trkpt>
<trkpt lat="46.23216" lon="7.33175"><ele>704.8</ele><time>2016-08-28T13:59:41Z</time></trkpt>
<trkpt lat="46.23221" lon="7.33187"><ele>704.6</ele><time>2016-08-28T13:59:43Z</time></trkpt>
<trkpt lat="46.23227" lon="7.33198"><ele>704.4</ele><time>2016-08-28T13:59:45Z</time></trkpt>
<trkpt lat="46.23236" lon="7.33207"><ele>704.2</ele><time>2016-08-28T13:59:47Z</time></trkpt>
<trkpt lat="46.23245" lon="7.33215"><ele>704</ele><time>2016-08-28T13:59:49Z</time></trkpt>
<trkpt lat="46.23254" lon="7.33223"><ele>703.8</ele><time>2016-08-28T13:59:51Z</time></trkpt>
<trkpt lat="46.23263" lon="7.33239"><ele>703.4</ele><time>2016-08-28T13:59:53Z</time></trkpt>
<trkpt lat="46.23271" lon="7.33255"><ele>703.2</ele><time>2016-08-28T13:59:55Z</time></trkpt>
<trkpt lat="46.2328" lon="7.33272"><ele>703</ele><time>2016-08-28T13:59:57Z</time></trkpt>
<trkpt lat="46.23285" lon="7.3328"><ele>703</ele><time>2016-08-28T13:59:58Z</time></trkpt>
<trkpt lat="46.2329" lon="7.33288"><ele>702.8</ele><time>2016-08-28T13:59:59Z</time></trkpt>
<trkpt lat="46.23295" lon="7.33297"><ele>702.8</ele><time>2016-08-28T14:00:00Z</time></trkpt>
<trkpt lat="46.23299" lon="7.33305"><ele>702.6</ele><time>2016-08-28T14:00:01Z</time></trkpt>
<trkpt lat="46.23306" lon="7.33323"><ele>702.4</ele><time>2016-08-28T14:00:03Z</time></trkpt>
<trkpt lat="46.23313" lon="7.3334"><ele>702.2</ele><time>2016-08-28T14:00:05Z</time></trkpt>
<trkpt lat="46.2332" lon="7.33357"><ele>702</ele><time>2016-08-28T14:00:07Z</time></trkpt>
<trkpt lat="46.23323" lon="7.33363"><ele>701.8</ele><time>2016-08-28T14:00:08Z</time></trkpt>
<trkpt lat="46.23326" lon="7.33368"><ele>701.8</ele><time>2016-08-28T14:00:09Z</time></trkpt>
<trkpt lat="46.23331" lon="7.33379"><ele>701.6</ele><time>2016-08-28T14:00:11Z</time></trkpt>
<trkpt lat="46.23336" lon="7.3339"><ele>701.4</ele><time>2016-08-28T14:00:13Z</time></trkpt>
<trkpt lat="46.23341" lon="7.33401"><ele>701.4</ele><time>2016-08-28T14:00:15Z</time></trkpt>
<trkpt lat="46.23346" lon="7.33412"><ele>701.2</ele><time>2016-08-28T14:00:17Z</time></trkpt>
<trkpt lat="46.23352" lon="7.33425"><ele>701</ele><time>2016-08-28T14:00:19Z</time></trkpt>
<trkpt lat="46.23357" lon="7.33437"><ele>700.8</ele><time>2016-08-28T14:00:21Z</time></trkpt>
<trkpt lat="46.23363" lon="7.3345"><ele>700.8</ele><time>2016-08-28T14:00:23Z</time></trkpt>
<trkpt lat="46.23368" lon="7.33463"><ele>700.6</ele><time>2016-08-28T14:00:25Z</time></trkpt>
<trkpt lat="46.23371" lon="7.33469"><ele>700.4</ele><time>2016-08-28T14:00:26Z</time></trkpt>
<trkpt lat="46.23375" lon="7.33476"><ele>700.4</ele><time>2016-08-28T14:00:27Z</time></trkpt>
<trkpt lat="46.23383" lon="7.3349"><ele>700.2</ele><time>2016-08-28T14:00:29Z</time></trkpt>
<trkpt lat="46.2339" lon="7.33505"><ele>700</ele><time>2016-08-28T14:00:31Z</time></trkpt>
<trkpt lat="46.23398" lon="7.33519"><ele>700</ele><time>2016-08-28T14:00:33Z</time></trkpt>
<trkpt lat="46.23402" lon="7.33526"><ele>699.8</ele><time>2016-08-28T14:00:34Z</time></trkpt>
<trkpt lat="46.23405" lon="7.3353"><ele>699.8</ele><time>2016-08-28T14:00:35Z</time></trkpt>
<trkpt lat="46.23409" lon="7.33537"><ele>699.6</ele><time>2016-08-28T14:00:37Z</time></trkpt>
<trkpt lat="46.23414" lon="7.33543"><ele>699.4</ele><time>2016-08-28T14:00:39Z</time></trkpt>
<trkpt lat="46.23417" lon="7.33546"><ele>699.4</ele><time>2016-08-28T14:00:40Z</time></trkpt>
<trkpt lat="46.23419" lon="7.3355"><ele>699</ele><time>2016-08-28T14:00:41Z</time></trkpt>
<trkpt lat="46.23424" lon="7.33556"><ele>698.4</ele><time>2016-08-28T14:00:43Z</time></trkpt>
<trkpt lat="46.23429" lon="7.33563"><ele>697.8</ele><time>2016-08-28T14:00:45Z</time></trkpt>
<trkpt lat="46.23433" lon="7.33569"><ele>697.8</ele><time>2016-08-28T14:00:47Z</time></trkpt>
<trkpt lat="46.23436" lon="7.33573"><ele>697.8</ele><time>2016-08-28T14:00:48Z</time></trkpt>
<trkpt lat="46.23439" lon="7.33577"><ele>697.8</ele><time>2016-08-28T14:00:49Z</time></trkpt>
<trkpt lat="46.23446" lon="7.33588"><ele>697.8</ele><time>2016-08-28T14:00:51Z</time></trkpt>
<trkpt lat="46.23453" lon="7.33598"><ele>697.6</ele><time>2016-08-28T14:00:53Z</time></trkpt>
<trkpt lat="46.2346" lon="7.33609"><ele>697.6</ele><time>2016-08-28T14:00:55Z</time></trkpt>
<trkpt lat="46.23461" lon="7.33606"><ele>697.6</ele><time>2016-08-28T14:00:56Z</time></trkpt>
<trkpt lat="46.23462" lon="7.33602"><ele>697.6</ele><time>2016-08-28T14:00:57Z</time></trkpt>
<trkpt lat="46.23464" lon="7.33595"><ele>697.6</ele><time>2016-08-28T14:00:59Z</time></trkpt>
<trkpt lat="46.23466" lon="7.33588"><ele>697.4</ele><time>2016-08-28T14:01:01Z</time></trkpt>
<trkpt lat="46.23468" lon="7.3358"><ele>697</ele><time>2016-08-28T14:01:03Z</time></trkpt>
<trkpt lat="46.23469" lon="7.33577"><ele>696.8</ele><time>2016-08-28T14:01:04Z</time></trkpt>
<trkpt lat="46.23469" lon="7.33569"><ele>696.6</ele><time>2016-08-28T14:01:05Z</time></trkpt>
<trkpt lat="46.23469" lon="7.33553"><ele>696</ele><time>2016-08-28T14:01:07Z</time></trkpt>
<trkpt lat="46.23469" lon="7.33545"><ele>695.8</ele><time>2016-08-28T14:01:08Z</time></trkpt>
<trkpt lat="46.23465" lon="7.33541"><ele>695.6</ele><time>2016-08-28T14:01:09Z</time></trkpt>
<trkpt lat="46.23463" lon="7.33521"><ele>695</ele><time>2016-08-28T14:01:11Z</time></trkpt>
<trkpt lat="46.23463" lon="7.335"><ele>694.6</ele><time>2016-08-28T14:01:13Z</time></trkpt>
<trkpt lat="46.23463" lon="7.33479"><ele>694.2</ele><time>2016-08-28T14:01:15Z</time></trkpt>
<trkpt lat="46.23462" lon="7.33468"><ele>694</ele><time>2016-08-28T14:01:16Z</time></trkpt>
<trkpt lat="46.23462" lon="7.33456"><ele>693.6</ele><time>2016-08-28T14:01:17Z</time></trkpt>
<trkpt lat="46.2346" lon="7.33429"><ele>693.2</ele><time>2016-08-28T14:01:19Z</time></trkpt>
<trkpt lat="46.23458" lon="7.33403"><ele>692</ele><time>2016-08-28T14:01:21Z</time></trkpt>
<trkpt lat="46.23455" lon="7.33376"><ele>690.8</ele><time>2016-08-28T14:01:23Z</time></trkpt>
<trkpt lat="46.23454" lon="7.33363"><ele>690.2</ele><time>2016-08-28T14:01:24Z</time></trkpt>
<trkpt lat="46.23452" lon="7.3335"><ele>689.6</ele><time>2016-08-28T14:01:25Z</time></trkpt>
<trkpt lat="46.23451" lon="7.33337"><ele>689.2</ele><time>2016-08-28T14:01:26Z</time></trkpt>
<trkpt lat="46.2345" lon="7.33322"><ele>688.6</ele><time>2016-08-28T14:01:27Z</time></trkpt>
<trkpt lat="46.23447" lon="7.33292"><ele>687.4</ele><time>2016-08-28T14:01:29Z</time></trkpt>
<trkpt lat="46.23444" lon="7.33262"><ele>686.2</ele><time>2016-08-28T14:01:31Z</time></trkpt>
<trkpt lat="46.23443" lon="7.33232"><ele>685</ele><time>2016-08-28T14:01:33Z</time></trkpt>
<trkpt lat="46.23443" lon="7.33202"><ele>683.8</ele><time>2016-08-28T14:01:35Z</time></trkpt>
<trkpt lat="46.23442" lon="7.33187"><ele>682.8</ele><time>2016-08-28T14:01:36Z</time></trkpt>
<trkpt lat="46.23442" lon="7.33175"><ele>681.6</ele><time>2016-08-28T14:01:37Z</time></trkpt>
<trkpt lat="46.23442" lon="7.33152"><ele>679.2</ele><time>2016-08-28T14:01:39Z</time></trkpt>
<trkpt lat="46.23442" lon="7.3314"><ele>678</ele><time>2016-08-28T14:01:40Z</time></trkpt>
<trkpt lat="46.23439" lon="7.33127"><ele>677</ele><time>2016-08-28T14:01:41Z</time></trkpt>
<trkpt lat="46.23432" lon="7.33102"><ele>673.8</ele><time>2016-08-28T14:01:43Z</time></trkpt>
<trkpt lat="46.23429" lon="7.33089"><ele>672.2</ele><time>2016-08-28T14:01:44Z</time></trkpt>
<trkpt lat="46.23423" lon="7.33076"><ele>670.6</ele><time>2016-08-28T14:01:45Z</time></trkpt>
<trkpt lat="46.23414" lon="7.33075"><ele>669</ele><time>2016-08-28T14:01:46Z</time></trkpt>
<trkpt lat="46.23408" lon="7.33067"><ele>667.8</ele><time>2016-08-28T14:01:47Z</time></trkpt>
<trkpt lat="46.23402" lon="7.33058"><ele>666.8</ele><time>2016-08-28T14:01:48Z</time></trkpt>
<trkpt lat="46.23391" lon="7.33053"><ele>665.8</ele><time>2016-08-28T14:01:49Z</time></trkpt>
<trkpt lat="46.2338" lon="7.33048"><ele>664.8</ele><time>2016-08-28T14:01:50Z</time></trkpt>
<trkpt lat="46.23374" lon="7.33037"><ele>663.6</ele><time>2016-08-28T14:01:51Z</time></trkpt>
<trkpt lat="46.23369" lon="7.33026"><ele>662.6</ele><time>2016-08-28T14:01:52Z</time></trkpt>
<trkpt lat="46.23363" lon="7.33014"><ele>661.4</ele><time>2016-08-28T14:01:53Z</time></trkpt>
<trkpt lat="46.2335" lon="7.33003"><ele>660.2</ele><time>2016-08-28T14:01:54Z</time></trkpt>
<trkpt lat="46.23344" lon="7.32991"><ele>659</ele><time>2016-08-28T14:01:55Z</time></trkpt>
<trkpt lat="46.23336" lon="7.32966"><ele>656.6</ele><time>2016-08-28T14:01:57Z</time></trkpt>
<trkpt lat="46.23332" lon="7.32953"><ele>655.4</ele><time>2016-08-28T14:01:58Z</time></trkpt>
<trkpt lat="46.23328" lon="7.3294"><ele>654</ele><time>2016-08-28T14:01:59Z</time></trkpt>
<trkpt lat="46.23323" lon="7.32915"><ele>651</ele><time>2016-08-28T14:02:01Z</time></trkpt>
<trkpt lat="46.23319" lon="7.32891"><ele>647.8</ele><time>2016-08-28T14:02:03Z</time></trkpt>
<trkpt lat="46.23317" lon="7.32878"><ele>646.4</ele><time>2016-08-28T14:02:04Z</time></trkpt>
<trkpt lat="46.23315" lon="7.32866"><ele>644.4</ele><time>2016-08-28T14:02:05Z</time></trkpt>
<trkpt lat="46.23311" lon="7.3284"><ele>640.4</ele><time>2016-08-28T14:02:07Z</time></trkpt>
<trkpt lat="46.23306" lon="7.32814"><ele>636.4</ele><time>2016-08-28T14:02:09Z</time></trkpt>
<trkpt lat="46.23304" lon="7.32801"><ele>634.4</ele><time>2016-08-28T14:02:10Z</time></trkpt>
<trkpt lat="46.23301" lon="7.32782"><ele>632.4</ele><time>2016-08-28T14:02:11Z</time></trkpt>
<trkpt lat="46.23295" lon="7.32742"><ele>628.2</ele><time>2016-08-28T14:02:13Z</time></trkpt>
<trkpt lat="46.23291" lon="7.32722"><ele>626</ele><time>2016-08-28T14:02:14Z</time></trkpt>
<trkpt lat="46.23288" lon="7.32705"><ele>623.8</ele><time>2016-08-28T14:02:15Z</time></trkpt>
<trkpt lat="46.23283" lon="7.32671"><ele>620.2</ele><time>2016-08-28T14:02:17Z</time></trkpt>
<trkpt lat="46.2328" lon="7.32654"><ele>618.4</ele><time>2016-08-28T14:02:18Z</time></trkpt>
<trkpt lat="46.23276" lon="7.32636"><ele>616.6</ele><time>2016-08-28T14:02:19Z</time></trkpt>
<trkpt lat="46.23269" lon="7.32599"><ele>613</ele><time>2016-08-28T14:02:21Z</time></trkpt>
<trkpt lat="46.23265" lon="7.32581"><ele>611.4</ele><time>2016-08-28T14:02:22Z</time></trkpt>
<trkpt lat="46.2326" lon="7.32563"><ele>609.6</ele><time>2016-08-28T14:02:23Z</time></trkpt>
<trkpt lat="46.2325" lon="7.32526"><ele>606.4</ele><time>2016-08-28T14:02:25Z</time></trkpt>
<trkpt lat="46.23245" lon="7.32507"><ele>604.6</ele><time>2016-08-28T14:02:26Z</time></trkpt>
<trkpt lat="46.23238" lon="7.32493"><ele>603</ele><time>2016-08-28T14:02:27Z</time></trkpt>
<trkpt lat="46.23225" lon="7.32465"><ele>600.2</ele><time>2016-08-28T14:02:29Z</time></trkpt>
<trkpt lat="46.23219" lon="7.32451"><ele>599</ele><time>2016-08-28T14:02:30Z</time></trkpt>
<trkpt lat="46.23211" lon="7.32436"><ele>597.8</ele><time>2016-08-28T14:02:31Z</time></trkpt>
<trkpt lat="46.23203" lon="7.32421"><ele>596.4</ele><time>2016-08-28T14:02:32Z</time></trkpt>
<trkpt lat="46.23195" lon="7.32406"><ele>595.2</ele><time>2016-08-28T14:02:33Z</time></trkpt>
<trkpt lat="46.23186" lon="7.32373"><ele>593</ele><time>2016-08-28T14:02:35Z</time></trkpt>
<trkpt lat="46.23177" lon="7.32339"><ele>590.6</ele><time>2016-08-28T14:02:37Z</time></trkpt>
<trkpt lat="46.23172" lon="7.32319"><ele>589.4</ele><time>2016-08-28T14:02:38Z</time></trkpt>
<trkpt lat="46.23167" lon="7.32298"><ele>587.8</ele><time>2016-08-28T14:02:39Z</time></trkpt>
<trkpt lat="46.23163" lon="7.32277"><ele>586.2</ele><time>2016-08-28T14:02:40Z</time></trkpt>
<trkpt lat="46.23158" lon="7.32257"><ele>584.4</ele><time>2016-08-28T14:02:41Z</time></trkpt>
<trkpt lat="46.23148" lon="7.32216"><ele>581</ele><time>2016-08-28T14:02:43Z</time></trkpt>
<trkpt lat="46.23144" lon="7.32199"><ele>579.4</ele><time>2016-08-28T14:02:44Z</time></trkpt>
<trkpt lat="46.2314" lon="7.32183"><ele>578.4</ele><time>2016-08-28T14:02:45Z</time></trkpt>
<trkpt lat="46.23132" lon="7.32151"><ele>576.4</ele><time>2016-08-28T14:02:47Z</time></trkpt>
<trkpt lat="46.23128" lon="7.3213"><ele>574.6</ele><time>2016-08-28T14:02:49Z</time></trkpt>
<trkpt lat="46.23131" lon="7.32119"><ele>573.6</ele><time>2016-08-28T14:02:50Z</time></trkpt>
<trkpt lat="46.23134" lon="7.32108"><ele>572.6</ele><time>2016-08-28T14:02:51Z</time></trkpt>
<trkpt lat="46.2314" lon="7.32085"><ele>570.2</ele><time>2016-08-28T14:02:53Z</time></trkpt>
<trkpt lat="46.23147" lon="7.32062"><ele>567.8</ele><time>2016-08-28T14:02:55Z</time></trkpt>
<trkpt lat="46.23152" lon="7.32042"><ele>567.4</ele><time>2016-08-28T14:02:57Z</time></trkpt>
<trkpt lat="46.23157" lon="7.32022"><ele>567.4</ele><time>2016-08-28T14:02:59Z</time></trkpt>
<trkpt lat="46.23162" lon="7.32002"><ele>567.2</ele><time>2016-08-28T14:03:01Z</time></trkpt>
<trkpt lat="46.23164" lon="7.31992"><ele>567.2</ele><time>2016-08-28T14:03:02Z</time></trkpt>
<trkpt lat="46.23163" lon="7.31983"><ele>567</ele><time>2016-08-28T14:03:03Z</time></trkpt>
<trkpt lat="46.2316" lon="7.31965"><ele>567</ele><time>2016-08-28T14:03:05Z</time></trkpt>
<trkpt lat="46.23157" lon="7.31947"><ele>566.8</ele><time>2016-08-28T14:03:07Z</time></trkpt>
<trkpt lat="46.23154" lon="7.31929"><ele>566.6</ele><time>2016-08-28T14:03:09Z</time></trkpt>
<trkpt lat="46.23148" lon="7.31909"><ele>566.6</ele><time>2016-08-28T14:03:11Z</time></trkpt>
<trkpt lat="46.23143" lon="7.3189"><ele>566</ele><time>2016-08-28T14:03:13Z</time></trkpt>
<trkpt lat="46.2314" lon="7.3188"><ele>565.8</ele><time>2016-08-28T14:03:14Z</time></trkpt>
<trkpt lat="46.23141" lon="7.3187"><ele>565.6</ele><time>2016-08-28T14:03:15Z</time></trkpt>
<trkpt lat="46.2315" lon="7.31855"><ele>565.2</ele><time>2016-08-28T14:03:17Z</time></trkpt>
<trkpt lat="46.2316" lon="7.31842"><ele>565</ele><time>2016-08-28T14:03:19Z</time></trkpt>
<trkpt lat="46.2317" lon="7.31828"><ele>565</ele><time>2016-08-28T14:03:21Z</time></trkpt>
<trkpt lat="46.23175" lon="7.31821"><ele>564.8</ele><time>2016-08-28T14:03:22Z</time></trkpt>
<trkpt lat="46.23179" lon="7.31816"><ele>565</ele><time>2016-08-28T14:03:23Z</time></trkpt>
<trkpt lat="46.23185" lon="7.31815"><ele>565</ele><time>2016-08-28T14:03:24Z</time></trkpt>
<trkpt lat="46.23188" lon="7.3181"><ele>565.2</ele><time>2016-08-28T14:03:25Z</time></trkpt>
<trkpt lat="46.2319" lon="7.31803"><ele>565.4</ele><time>2016-08-28T14:03:26Z</time></trkpt>
<trkpt lat="46.23185" lon="7.31786"><ele>565.4</ele><time>2016-08-28T14:03:27Z</time></trkpt>
<trkpt lat="46.23189" lon="7.31791"><ele>565.6</ele><time>2016-08-28T14:03:28Z</time></trkpt>
<trkpt lat="46.23189" lon="7.31787"><ele>565.6</ele><time>2016-08-28T14:03:29Z</time></trkpt>
<trkpt lat="46.23188" lon="7.31773"><ele>565.8</ele><time>2016-08-28T14:03:31Z</time></trkpt>
<trkpt lat="46.23187" lon="7.31767"><ele>565.8</ele><time>2016-08-28T14:03:32Z</time></trkpt>
<trkpt lat="46.23183" lon="7.31761"><ele>565.8</ele><time>2016-08-28T14:03:33Z</time></trkpt>
<trkpt lat="46.23181" lon="7.31746"><ele>566</ele><time>2016-08-28T14:03:35Z</time></trkpt>
<trkpt lat="46.23181" lon="7.31731"><ele>566</ele><time>2016-08-28T14:03:37Z</time></trkpt>
<trkpt lat="46.23181" lon="7.31715"><ele>566</ele><time>2016-08-28T14:03:39Z</time></trkpt>
<trkpt lat="46.23181" lon="7.317"><ele>566.2</ele><time>2016-08-28T14:03:41Z</time></trkpt>
<trkpt lat="46.23181" lon="7.31692"><ele>566.2</ele><time>2016-08-28T14:03:42Z</time></trkpt>
<trkpt lat="46.23181" lon="7.31685"><ele>566.2</ele><time>2016-08-28T14:03:43Z</time></trkpt>
<trkpt lat="46.23181" lon="7.31671"><ele>566.4</ele><time>2016-08-28T14:03:45Z</time></trkpt>
<trkpt lat="46.23181" lon="7.31657"><ele>566.4</ele><time>2016-08-28T14:03:47Z</time></trkpt>
<trkpt lat="46.23181" lon="7.31643"><ele>566.4</ele><time>2016-08-28T14:03:49Z</time></trkpt>
<trkpt lat="46.23181" lon="7.31629"><ele>566.6</ele><time>2016-08-28T14:03:51Z</time></trkpt>
<trkpt lat="46.23181" lon="7.31622"><ele>566.6</ele><time>2016-08-28T14:03:52Z</time></trkpt>
<trkpt lat="46.23182" lon="7.31614"><ele>566.6</ele><time>2016-08-28T14:03:53Z</time></trkpt>
<trkpt lat="46.23182" lon="7.316"><ele>566.8</ele><time>2016-08-28T14:03:55Z</time></trkpt>
<trkpt lat="46.23182" lon="7.31586"><ele>566.8</ele><time>2016-08-28T14:03:57Z</time></trkpt>
<trkpt lat="46.23183" lon="7.31571"><ele>566.8</ele><time>2016-08-28T14:03:59Z</time></trkpt>
<trkpt lat="46.23183" lon="7.31557"><ele>567</ele><time>2016-08-28T14:04:01Z</time></trkpt>
<trkpt lat="46.23184" lon="7.31545"><ele>567</ele><time>2016-08-28T14:04:03Z</time></trkpt>
<trkpt lat="46.23185" lon="7.31533"><ele>567.2</ele><time>2016-08-28T14:04:05Z</time></trkpt>
<trkpt lat="46.23185" lon="7.31521"><ele>567.2</ele><time>2016-08-28T14:04:07Z</time></trkpt>
<trkpt lat="46.23186" lon="7.31509"><ele>567.2</ele><time>2016-08-28T14:04:09Z</time></trkpt>
<trkpt lat="46.23186" lon="7.31497"><ele>567.4</ele><time>2016-08-28T14:04:11Z</time></trkpt>
<trkpt lat="46.23187" lon="7.31491"><ele>567.4</ele><time>2016-08-28T14:04:12Z</time></trkpt>
<trkpt lat="46.23187" lon="7.31485"><ele>567.4</ele><time>2016-08-28T14:04:13Z</time></trkpt>
<trkpt lat="46.23188" lon="7.31474"><ele>567.6</ele><time>2016-08-28T14:04:15Z</time></trkpt>
<trkpt lat="46.23188" lon="7.31463"><ele>567.6</ele><time>2016-08-28T14:04:17Z</time></trkpt>
<trkpt lat="46.23189" lon="7.31452"><ele>567.6</ele><time>2016-08-28T14:04:19Z</time></trkpt>
<trkpt lat="46.2319" lon="7.3144"><ele>567.8</ele><time>2016-08-28T14:04:21Z</time></trkpt>
<trkpt lat="46.2319" lon="7.31429"><ele>567.8</ele><time>2016-08-28T14:04:23Z</time></trkpt>
<trkpt lat="46.2319" lon="7.31423"><ele>567.8</ele><time>2016-08-28T14:04:24Z</time></trkpt>
<trkpt lat="46.23191" lon="7.31418"><ele>568</ele><time>2016-08-28T14:04:25Z</time></trkpt>
<trkpt lat="46.23192" lon="7.31406"><ele>568</ele><time>2016-08-28T14:04:27Z</time></trkpt>
<trkpt lat="46.23193" lon="7.31395"><ele>568</ele><time>2016-08-28T14:04:29Z</time></trkpt>
<trkpt lat="46.23194" lon="7.31383"><ele>568.2</ele><time>2016-08-28T14:04:31Z</time></trkpt>
<trkpt lat="46.23195" lon="7.31372"><ele>568.2</ele><time>2016-08-28T14:04:33Z</time></trkpt>
<trkpt lat="46.23196" lon="7.3136"><ele>568.4</ele><time>2016-08-28T14:04:35Z</time></trkpt>
<trkpt lat="46.23197" lon="7.31355"><ele>568.4</ele><time>2016-08-28T14:04:36Z</time></trkpt>
<trkpt lat="46.23197" lon="7.31349"><ele>568.4</ele><time>2016-08-28T14:04:37Z</time></trkpt>
<trkpt lat="46.23198" lon="7.31339"><ele>568.4</ele><time>2016-08-28T14:04:39Z</time></trkpt>
<trkpt lat="46.23199" lon="7.31329"><ele>568.6</ele><time>2016-08-28T14:04:41Z</time></trkpt>
<trkpt lat="46.232" lon="7.31318"><ele>568.6</ele><time>2016-08-28T14:04:43Z</time></trkpt>
<trkpt lat="46.23201" lon="7.31308"><ele>568.8</ele><time>2016-08-28T14:04:45Z</time></trkpt>
<trkpt lat="46.23201" lon="7.31298"><ele>568.8</ele><time>2016-08-28T14:04:47Z</time></trkpt>
<trkpt lat="46.23202" lon="7.31293"><ele>568.8</ele><time>2016-08-28T14:04:48Z</time></trkpt>
<trkpt lat="46.23202" lon="7.31287"><ele>568.8</ele><time>2016-08-28T14:04:49Z</time></trkpt>
<trkpt lat="46.23203" lon="7.3128"><ele>569</ele><time>2016-08-28T14:04:51Z</time></trkpt>
<trkpt lat="46.23203" lon="7.31273"><ele>569</ele><time>2016-08-28T14:04:53Z</time></trkpt>
<trkpt lat="46.23203" lon="7.31267"><ele>569</ele><time>2016-08-28T14:04:55Z</time></trkpt>
<trkpt lat="46.2321" lon="7.31264"><ele>569</ele><time>2016-08-28T14:04:57Z</time></trkpt>
<trkpt lat="46.23217" lon="7.31262"><ele>569.2</ele><time>2016-08-28T14:04:59Z</time></trkpt>
<trkpt lat="46.23224" lon="7.31259"><ele>569.2</ele><time>2016-08-28T14:05:01Z</time></trkpt>
<trkpt lat="46.23231" lon="7.31257"><ele>569.2</ele><time>2016-08-28T14:05:03Z</time></trkpt>
<trkpt lat="46.23238" lon="7.31255"><ele>569.4</ele><time>2016-08-28T14:05:05Z</time></trkpt>
<trkpt lat="46.23246" lon="7.31252"><ele>569.4</ele><time>2016-08-28T14:05:07Z</time></trkpt>
<trkpt lat="46.23249" lon="7.31251"><ele>569.4</ele><time>2016-08-28T14:05:08Z</time></trkpt>
<trkpt lat="46.23251" lon="7.3125"><ele>569.4</ele><time>2016-08-28T14:05:09Z</time></trkpt>
<trkpt lat="46.23255" lon="7.31249"><ele>569.4</ele><time>2016-08-28T14:05:11Z</time></trkpt>
<trkpt lat="46.23256" lon="7.31243"><ele>569.6</ele><time>2016-08-28T14:05:13Z</time></trkpt>
<trkpt lat="46.23256" lon="7.31241"><ele>569.6</ele><time>2016-08-28T14:05:14Z</time></trkpt>
<trkpt lat="46.2326" lon="7.31234"><ele>569.6</ele><time>2016-08-28T14:05:15Z</time></trkpt>
<trkpt lat="46.23257" lon="7.31223"><ele>569.6</ele><time>2016-08-28T14:05:17Z</time></trkpt>
<trkpt lat="46.23253" lon="7.31212"><ele>569.6</ele><time>2016-08-28T14:05:19Z</time></trkpt>
<trkpt lat="46.23249" lon="7.31202"><ele>569.8</ele><time>2016-08-28T14:05:21Z</time></trkpt>
<trkpt lat="46.23244" lon="7.31198"><ele>569.8</ele><time>2016-08-28T14:05:22Z</time></trkpt>
<trkpt lat="46.23242" lon="7.31194"><ele>569.8</ele><time>2016-08-28T14:05:23Z</time></trkpt>
<trkpt lat="46.2324" lon="7.31185"><ele>569.8</ele><time>2016-08-28T14:05:25Z</time></trkpt>
<trkpt lat="46.23237" lon="7.31176"><ele>570</ele><time>2016-08-28T14:05:27Z</time></trkpt>
<trkpt lat="46.23235" lon="7.31167"><ele>570</ele><time>2016-08-28T14:05:29Z</time></trkpt>
<trkpt lat="46.23233" lon="7.31158"><ele>570</ele><time>2016-08-28T14:05:31Z</time></trkpt>
<trkpt lat="46.2323" lon="7.3115"><ele>570</ele><time>2016-08-28T14:05:33Z</time></trkpt>
<trkpt lat="46.2323" lon="7.31126"><ele>570.8</ele><time>2016-08-28T14:05:35Z</time></trkpt>
<trkpt lat="46.2323" lon="7.31126"><ele>570.8</ele><time>2016-08-28T14:06:19Z</time></trkpt>
<trkpt lat="46.23233" lon="7.31112"><ele>571.4</ele><time>2016-08-28T14:06:21Z</time></trkpt>
<trkpt lat="46.23237" lon="7.31109"><ele>571.4</ele><time>2016-08-28T14:06:23Z</time></trkpt>
<trkpt lat="46.23242" lon="7.31106"><ele>571.6</ele><time>2016-08-28T14:06:25Z</time></trkpt>
<trkpt lat="46.23248" lon="7.31104"><ele>571.6</ele><time>2016-08-28T14:06:27Z</time></trkpt>
<trkpt lat="46.23253" lon="7.31101"><ele>571.6</ele><time>2016-08-28T14:06:29Z</time></trkpt>
<trkpt lat="46.23258" lon="7.31098"><ele>571.6</ele><time>2016-08-28T14:06:31Z</time></trkpt>
<trkpt lat="46.23263" lon="7.31096"><ele>571.8</ele><time>2016-08-28T14:06:33Z</time></trkpt>
<trkpt lat="46.23268" lon="7.31093"><ele>571.8</ele><time>2016-08-28T14:06:35Z</time></trkpt>
<trkpt lat="46.23273" lon="7.3109"><ele>571.8</ele><time>2016-08-28T14:06:37Z</time></trkpt>
<trkpt lat="46.23275" lon="7.31089"><ele>571.8</ele><time>2016-08-28T14:06:38Z</time></trkpt>
<trkpt lat="46.23278" lon="7.31087"><ele>572</ele><time>2016-08-28T14:06:39Z</time></trkpt>
<trkpt lat="46.23284" lon="7.31084"><ele>572</ele><time>2016-08-28T14:06:41Z</time></trkpt>
<trkpt lat="46.23291" lon="7.3108"><ele>572</ele><time>2016-08-28T14:06:43Z</time></trkpt>
<trkpt lat="46.23297" lon="7.31077"><ele>572</ele><time>2016-08-28T14:06:45Z</time></trkpt>
<trkpt lat="46.23303" lon="7.31073"><ele>572.2</ele><time>2016-08-28T14:06:47Z</time></trkpt>
<trkpt lat="46.23309" lon="7.3107"><ele>572.2</ele><time>2016-08-28T14:06:49Z</time></trkpt>
<trkpt lat="46.23315" lon="7.31067"><ele>572.4</ele><time>2016-08-28T14:06:51Z</time></trkpt>
<trkpt lat="46.23318" lon="7.31065"><ele>572.4</ele><time>2016-08-28T14:06:52Z</time></trkpt>
<trkpt lat="46.23322" lon="7.31064"><ele>572.6</ele><time>2016-08-28T14:06:53Z</time></trkpt>
<trkpt lat="46.2333" lon="7.31061"><ele>572.6</ele><time>2016-08-28T14:06:55Z</time></trkpt>
<trkpt lat="46.23337" lon="7.31059"><ele>572.8</ele><time>2016-08-28T14:06:57Z</time></trkpt>
<trkpt lat="46.23344" lon="7.31057"><ele>573</ele><time>2016-08-28T14:06:59Z</time></trkpt>
<trkpt lat="46.23352" lon="7.31054"><ele>573.2</ele><time>2016-08-28T14:07:01Z</time></trkpt>
<trkpt lat="46.23359" lon="7.31052"><ele>573.4</ele><time>2016-08-28T14:07:03Z</time></trkpt>
<trkpt lat="46.23367" lon="7.3105"><ele>573.4</ele><time>2016-08-28T14:07:05Z</time></trkpt>
<trkpt lat="46.23374" lon="7.31047"><ele>573.6</ele><time>2016-08-28T14:07:07Z</time></trkpt>
<trkpt lat="46.23378" lon="7.31046"><ele>573.8</ele><time>2016-08-28T14:07:08Z</time></trkpt>
<trkpt lat="46.23382" lon="7.31045"><ele>573.8</ele><time>2016-08-28T14:07:09Z</time></trkpt>
<trkpt lat="46.23388" lon="7.31044"><ele>574</ele><time>2016-08-28T14:07:11Z</time></trkpt>
<trkpt lat="46.23395" lon="7.31043"><ele>574.2</ele><time>2016-08-28T14:07:13Z</time></trkpt>
<trkpt lat="46.23401" lon="7.31041"><ele>574.4</ele><time>2016-08-28T14:07:15Z</time></trkpt>
<trkpt lat="46.23408" lon="7.3104"><ele>574.4</ele><time>2016-08-28T14:07:17Z</time></trkpt>
<trkpt lat="46.23415" lon="7.31039"><ele>574.6</ele><time>2016-08-28T14:07:19Z</time></trkpt>
<trkpt lat="46.23421" lon="7.31037"><ele>574.8</ele><time>2016-08-28T14:07:21Z</time></trkpt>
<trkpt lat="46.23425" lon="7.31037"><ele>574.8</ele><time>2016-08-28T14:07:22Z</time></trkpt>
<trkpt lat="46.23427" lon="7.31035"><ele>575</ele><time>2016-08-28T14:07:23Z</time></trkpt>
<trkpt lat="46.23432" lon="7.31031"><ele>575.2</ele><time>2016-08-28T14:07:25Z</time></trkpt>
<trkpt lat="46.23437" lon="7.31026"><ele>575.2</ele><time>2016-08-28T14:07:27Z</time></trkpt>
<trkpt lat="46.23441" lon="7.31022"><ele>575.4</ele><time>2016-08-28T14:07:29Z</time></trkpt>
<trkpt lat="46.23444" lon="7.3102"><ele>575.6</ele><time>2016-08-28T14:07:30Z</time></trkpt>
<trkpt lat="46.23446" lon="7.31018"><ele>575.6</ele><time>2016-08-28T14:07:31Z</time></trkpt>
<trkpt lat="46.23451" lon="7.31014"><ele>575.8</ele><time>2016-08-28T14:07:33Z</time></trkpt>
<trkpt lat="46.23455" lon="7.3101"><ele>576.2</ele><time>2016-08-28T14:07:35Z</time></trkpt>
<trkpt lat="46.23458" lon="7.31008"><ele>576.2</ele><time>2016-08-28T14:07:36Z</time></trkpt>
<trkpt lat="46.23459" lon="7.31004"><ele>576.4</ele><time>2016-08-28T14:07:37Z</time></trkpt>
<trkpt lat="46.23463" lon="7.30994"><ele>576.6</ele><time>2016-08-28T14:07:39Z</time></trkpt>
<trkpt lat="46.23467" lon="7.30984"><ele>576.8</ele><time>2016-08-28T14:07:41Z</time></trkpt>
<trkpt lat="46.2347" lon="7.30975"><ele>577</ele><time>2016-08-28T14:07:43Z</time></trkpt>
<trkpt lat="46.23472" lon="7.3097"><ele>577.2</ele><time>2016-08-28T14:07:44Z</time></trkpt>
<trkpt lat="46.23472" lon="7.30966"><ele>577.4</ele><time>2016-08-28T14:07:45Z</time></trkpt>
<trkpt lat="46.23471" lon="7.30956"><ele>577.6</ele><time>2016-08-28T14:07:47Z</time></trkpt>
<trkpt lat="46.2347" lon="7.30947"><ele>577.8</ele><time>2016-08-28T14:07:49Z</time></trkpt>
<trkpt lat="46.2347" lon="7.30942"><ele>577.8</ele><time>2016-08-28T14:07:50Z</time></trkpt>
<trkpt lat="46.23468" lon="7.30939"><ele>578</ele><time>2016-08-28T14:07:51Z</time></trkpt>
<trkpt lat="46.23464" lon="7.30934"><ele>578.2</ele><time>2016-08-28T14:07:53Z</time></trkpt>
<trkpt lat="46.2346" lon="7.30928"><ele>578.4</ele><time>2016-08-28T14:07:55Z</time></trkpt>
<trkpt lat="46.23457" lon="7.30922"><ele>578.8</ele><time>2016-08-28T14:07:57Z</time></trkpt>
<trkpt lat="46.23455" lon="7.30919"><ele>578.8</ele><time>2016-08-28T14:07:58Z</time></trkpt>
<trkpt lat="46.23453" lon="7.30916"><ele>579</ele><time>2016-08-28T14:07:59Z</time></trkpt>
<trkpt lat="46.23449" lon="7.30911"><ele>579.4</ele><time>2016-08-28T14:08:01Z</time></trkpt>
<trkpt lat="46.23445" lon="7.30905"><ele>579.8</ele><time>2016-08-28T14:08:03Z</time></trkpt>
<trkpt lat="46.23442" lon="7.30899"><ele>580</ele><time>2016-08-28T14:08:05Z</time></trkpt>
<trkpt lat="46.23438" lon="7.30893"><ele>580.4</ele><time>2016-08-28T14:08:07Z</time></trkpt>
<trkpt lat="46.23434" lon="7.30891"><ele>580.8</ele><time>2016-08-28T14:08:09Z</time></trkpt>
<trkpt lat="46.2343" lon="7.30889"><ele>581.2</ele><time>2016-08-28T14:08:11Z</time></trkpt>
<trkpt lat="46.23427" lon="7.30887"><ele>581.4</ele><time>2016-08-28T14:08:13Z</time></trkpt>
<trkpt lat="46.23423" lon="7.30885"><ele>581.8</ele><time>2016-08-28T14:08:15Z</time></trkpt>
<trkpt lat="46.23421" lon="7.30884"><ele>582</ele><time>2016-08-28T14:08:16Z</time></trkpt>
<trkpt lat="46.23419" lon="7.30883"><ele>582.2</ele><time>2016-08-28T14:08:17Z</time></trkpt>
<trkpt lat="46.23416" lon="7.30882"><ele>582.6</ele><time>2016-08-28T14:08:19Z</time></trkpt>
<trkpt lat="46.23414" lon="7.30881"><ele>582.8</ele><time>2016-08-28T14:08:20Z</time></trkpt>
<trkpt lat="46.23412" lon="7.3088"><ele>582.8</ele><time>2016-08-28T14:08:21Z</time></trkpt>
<trkpt lat="46.23409" lon="7.30878"><ele>583.2</ele><time>2016-08-28T14:08:23Z</time></trkpt>
<trkpt lat="46.23405" lon="7.30877"><ele>583.4</ele><time>2016-08-28T14:08:25Z</time></trkpt>
<trkpt lat="46.23402" lon="7.30875"><ele>583.6</ele><time>2016-08-28T14:08:27Z</time></trkpt>
<trkpt lat="46.23399" lon="7.30873"><ele>584</ele><time>2016-08-28T14:08:29Z</time></trkpt>
<trkpt lat="46.23395" lon="7.30872"><ele>584.2</ele><time>2016-08-28T14:08:31Z</time></trkpt>
<trkpt lat="46.23392" lon="7.3087"><ele>584.4</ele><time>2016-08-28T14:08:33Z</time></trkpt>
<trkpt lat="46.23388" lon="7.30868"><ele>584.8</ele><time>2016-08-28T14:08:35Z</time></trkpt>
<trkpt lat="46.23385" lon="7.30867"><ele>585</ele><time>2016-08-28T14:08:37Z</time></trkpt>
<trkpt lat="46.23381" lon="7.30865"><ele>585.2</ele><time>2016-08-28T14:08:39Z</time></trkpt>
<trkpt lat="46.23378" lon="7.30863"><ele>585.6</ele><time>2016-08-28T14:08:41Z</time></trkpt>
<trkpt lat="46.23374" lon="7.30861"><ele>585.8</ele><time>2016-08-28T14:08:43Z</time></trkpt>
<trkpt lat="46.23371" lon="7.30858"><ele>586</ele><time>2016-08-28T14:08:45Z</time></trkpt>
<trkpt lat="46.23367" lon="7.30856"><ele>586.4</ele><time>2016-08-28T14:08:47Z</time></trkpt>
<trkpt lat="46.23365" lon="7.30855"><ele>586.6</ele><time>2016-08-28T14:08:48Z</time></trkpt>
<trkpt lat="46.23364" lon="7.30853"><ele>586.6</ele><time>2016-08-28T14:08:49Z</time></trkpt>
<trkpt lat="46.23361" lon="7.30849"><ele>587</ele><time>2016-08-28T14:08:51Z</time></trkpt>
<trkpt lat="46.23358" lon="7.30845"><ele>587.2</ele><time>2016-08-28T14:08:53Z</time></trkpt>
<trkpt lat="46.23356" lon="7.30841"><ele>587.6</ele><time>2016-08-28T14:08:55Z</time></trkpt>
<trkpt lat="46.23353" lon="7.30837"><ele>588</ele><time>2016-08-28T14:08:57Z</time></trkpt>
<trkpt lat="46.23351" lon="7.30833"><ele>588.2</ele><time>2016-08-28T14:08:59Z</time></trkpt>
<trkpt lat="46.23348" lon="7.3083"><ele>588.6</ele><time>2016-08-28T14:09:01Z</time></trkpt>
<trkpt lat="46.23345" lon="7.30826"><ele>588.8</ele><time>2016-08-28T14:09:03Z</time></trkpt>
<trkpt lat="46.23343" lon="7.30822"><ele>589.2</ele><time>2016-08-28T14:09:05Z</time></trkpt>
<trkpt lat="46.2334" lon="7.30818"><ele>589.4</ele><time>2016-08-28T14:09:07Z</time></trkpt>
<trkpt lat="46.23337" lon="7.30814"><ele>589.8</ele><time>2016-08-28T14:09:09Z</time></trkpt>
<trkpt lat="46.23335" lon="7.3081"><ele>590.2</ele><time>2016-08-28T14:09:11Z</time></trkpt>
<trkpt lat="46.23333" lon="7.30808"><ele>590.4</ele><time>2016-08-28T14:09:12Z</time></trkpt>
<trkpt lat="46.23332" lon="7.30806"><ele>590.4</ele><time>2016-08-28T14:09:13Z</time></trkpt>
<trkpt lat="46.23331" lon="7.30801"><ele>590.8</ele><time>2016-08-28T14:09:15Z</time></trkpt>
<trkpt lat="46.23329" lon="7.30796"><ele>591.2</ele><time>2016-08-28T14:09:17Z</time></trkpt>
<trkpt lat="46.23328" lon="7.30791"><ele>591.6</ele><time>2016-08-28T14:09:19Z</time></trkpt>
<trkpt lat="46.23326" lon="7.30786"><ele>592</ele><time>2016-08-28T14:09:21Z</time></trkpt>
<trkpt lat="46.23325" lon="7.30781"><ele>592.2</ele><time>2016-08-28T14:09:23Z</time></trkpt>
<trkpt lat="46.23323" lon="7.30776"><ele>592.6</ele><time>2016-08-28T14:09:25Z</time></trkpt>
<trkpt lat="46.23322" lon="7.30771"><ele>593</ele><time>2016-08-28T14:09:27Z</time></trkpt>
<trkpt lat="46.2332" lon="7.30766"><ele>593.4</ele><time>2016-08-28T14:09:29Z</time></trkpt>
<trkpt lat="46.2332" lon="7.30764"><ele>593.6</ele><time>2016-08-28T14:09:30Z</time></trkpt>
<trkpt lat="46.23319" lon="7.30761"><ele>593.8</ele><time>2016-08-28T14:09:31Z</time></trkpt>
<trkpt lat="46.23317" lon="7.30756"><ele>594</ele><time>2016-08-28T14:09:33Z</time></trkpt>
<trkpt lat="46.23316" lon="7.30751"><ele>594.4</ele><time>2016-08-28T14:09:35Z</time></trkpt>
<trkpt lat="46.23315" lon="7.30749"><ele>594.4</ele><time>2016-08-28T14:09:36Z</time></trkpt>
<trkpt lat="46.23314" lon="7.30746"><ele>594.6</ele><time>2016-08-28T14:09:37Z</time></trkpt>
<trkpt lat="46.23313" lon="7.30742"><ele>595</ele><time>2016-08-28T14:09:39Z</time></trkpt>
<trkpt lat="46.23311" lon="7.30737"><ele>595.2</ele><time>2016-08-28T14:09:41Z</time></trkpt>
<trkpt lat="46.23309" lon="7.30732"><ele>595.6</ele><time>2016-08-28T14:09:43Z</time></trkpt>
<trkpt lat="46.23308" lon="7.30727"><ele>595.8</ele><time>2016-08-28T14:09:45Z</time></trkpt>
<trkpt lat="46.23306" lon="7.30723"><ele>596.2</ele><time>2016-08-28T14:09:47Z</time></trkpt>
<trkpt lat="46.23304" lon="7.30718"><ele>596.4</ele><time>2016-08-28T14:09:49Z</time></trkpt>
<trkpt lat="46.23303" lon="7.30713"><ele>596.8</ele><time>2016-08-28T14:09:51Z</time></trkpt>
<trkpt lat="46.23302" lon="7.30711"><ele>596.8</ele><time>2016-08-28T14:09:52Z</time></trkpt>
<trkpt lat="46.23301" lon="7.30709"><ele>597</ele><time>2016-08-28T14:09:53Z</time></trkpt>
<trkpt lat="46.233" lon="7.30704"><ele>597.4</ele><time>2016-08-28T14:09:55Z</time></trkpt>
<trkpt lat="46.23298" lon="7.30699"><ele>597.8</ele><time>2016-08-28T14:09:57Z</time></trkpt>
<trkpt lat="46.23296" lon="7.30694"><ele>598</ele><time>2016-08-28T14:09:59Z</time></trkpt>
<trkpt lat="46.23295" lon="7.3069"><ele>598.4</ele><time>2016-08-28T14:10:01Z</time></trkpt>
<trkpt lat="46.23293" lon="7.30685"><ele>598.8</ele><time>2016-08-28T14:10:03Z</time></trkpt>
<trkpt lat="46.23291" lon="7.3068"><ele>599</ele><time>2016-08-28T14:10:05Z</time></trkpt>
<trkpt lat="46.23289" lon="7.30676"><ele>599.4</ele><time>2016-08-28T14:10:07Z</time></trkpt>
<trkpt lat="46.23287" lon="7.30671"><ele>599.8</ele><time>2016-08-28T14:10:09Z</time></trkpt>
<trkpt lat="46.23285" lon="7.30664"><ele>600.2</ele><time>2016-08-28T14:10:12Z</time></trkpt>
<trkpt lat="46.23284" lon="7.30662"><ele>600.4</ele><time>2016-08-28T14:10:13Z</time></trkpt>
<trkpt lat="46.23282" lon="7.30657"><ele>600.8</ele><time>2016-08-28T14:10:15Z</time></trkpt>
<trkpt lat="46.2328" lon="7.30652"><ele>601</ele><time>2016-08-28T14:10:17Z</time></trkpt>
<trkpt lat="46.23278" lon="7.30648"><ele>601.2</ele><time>2016-08-28T14:10:19Z</time></trkpt>
<trkpt lat="46.23276" lon="7.30643"><ele>601.6</ele><time>2016-08-28T14:10:21Z</time></trkpt>
<trkpt lat="46.23274" lon="7.30638"><ele>601.8</ele><time>2016-08-28T14:10:23Z</time></trkpt>
<trkpt lat="46.23273" lon="7.30633"><ele>602.2</ele><time>2016-08-28T14:10:25Z</time></trkpt>
<trkpt lat="46.23272" lon="7.30631"><ele>602.2</ele><time>2016-08-28T14:10:26Z</time></trkpt>
<trkpt lat="46.23271" lon="7.30628"><ele>602.4</ele><time>2016-08-28T14:10:27Z</time></trkpt>
<trkpt lat="46.23271" lon="7.30623"><ele>602.8</ele><time>2016-08-28T14:10:29Z</time></trkpt>
<trkpt lat="46.23271" lon="7.30618"><ele>603</ele><time>2016-08-28T14:10:31Z</time></trkpt>
<trkpt lat="46.23271" lon="7.30612"><ele>603.2</ele><time>2016-08-28T14:10:33Z</time></trkpt>
<trkpt lat="46.2327" lon="7.30607"><ele>603.6</ele><time>2016-08-28T14:10:35Z</time></trkpt>
<trkpt lat="46.2327" lon="7.30601"><ele>603.8</ele><time>2016-08-28T14:10:37Z</time></trkpt>
<trkpt lat="46.2327" lon="7.30596"><ele>604.2</ele><time>2016-08-28T14:10:39Z</time></trkpt>
<trkpt lat="46.23269" lon="7.3059"><ele>604.4</ele><time>2016-08-28T14:10:41Z</time></trkpt>
<trkpt lat="46.23269" lon="7.30588"><ele>604.6</ele><time>2016-08-28T14:10:42Z</time></trkpt>
<trkpt lat="46.23269" lon="7.30585"><ele>604.8</ele><time>2016-08-28T14:10:43Z</time></trkpt>
<trkpt lat="46.23269" lon="7.30579"><ele>605</ele><time>2016-08-28T14:10:45Z</time></trkpt>
<trkpt lat="46.23268" lon="7.30574"><ele>605.4</ele><time>2016-08-28T14:10:47Z</time></trkpt>
<trkpt lat="46.23268" lon="7.30568"><ele>605.6</ele><time>2016-08-28T14:10:49Z</time></trkpt>
<trkpt lat="46.23268" lon="7.30566"><ele>605.8</ele><time>2016-08-28T14:10:50Z</time></trkpt>
<trkpt lat="46.23268" lon="7.30563"><ele>606</ele><time>2016-08-28T14:10:51Z</time></trkpt>
<trkpt lat="46.23268" lon="7.30559"><ele>606.4</ele><time>2016-08-28T14:10:53Z</time></trkpt>
<trkpt lat="46.23269" lon="7.30554"><ele>606.6</ele><time>2016-08-28T14:10:55Z</time></trkpt>
<trkpt lat="46.23269" lon="7.30549"><ele>607</ele><time>2016-08-28T14:10:57Z</time></trkpt>
<trkpt lat="46.23269" lon="7.30545"><ele>607.2</ele><time>2016-08-28T14:10:59Z</time></trkpt>
<trkpt lat="46.23269" lon="7.3054"><ele>607.6</ele><time>2016-08-28T14:11:01Z</time></trkpt>
<trkpt lat="46.2327" lon="7.30536"><ele>608</ele><time>2016-08-28T14:11:03Z</time></trkpt>
<trkpt lat="46.2327" lon="7.30533"><ele>608</ele><time>2016-08-28T14:11:04Z</time></trkpt>
<trkpt lat="46.2327" lon="7.30531"><ele>608.2</ele><time>2016-08-28T14:11:05Z</time></trkpt>
<trkpt lat="46.2327" lon="7.30526"><ele>608.6</ele><time>2016-08-28T14:11:07Z</time></trkpt>
<trkpt lat="46.2327" lon="7.30522"><ele>609</ele><time>2016-08-28T14:11:09Z</time></trkpt>
<trkpt lat="46.23271" lon="7.30517"><ele>609.4</ele><time>2016-08-28T14:11:11Z</time></trkpt>
<trkpt lat="46.23271" lon="7.30512"><ele>609.6</ele><time>2016-08-28T14:11:13Z</time></trkpt>
<trkpt lat="46.23271" lon="7.30508"><ele>610</ele><time>2016-08-28T14:11:15Z</time></trkpt>
<trkpt lat="46.23271" lon="7.30503"><ele>610.4</ele><time>2016-08-28T14:11:17Z</time></trkpt>
<trkpt lat="46.23271" lon="7.30501"><ele>610.6</ele><time>2016-08-28T14:11:18Z</time></trkpt>
<trkpt lat="46.23272" lon="7.30498"><ele>610.8</ele><time>2016-08-28T14:11:19Z</time></trkpt>
<trkpt lat="46.23272" lon="7.30493"><ele>611</ele><time>2016-08-28T14:11:21Z</time></trkpt>
<trkpt lat="46.23272" lon="7.30488"><ele>611.4</ele><time>2016-08-28T14:11:23Z</time></trkpt>
<trkpt lat="46.23272" lon="7.30483"><ele>611.8</ele><time>2016-08-28T14:11:25Z</time></trkpt>
<trkpt lat="46.23272" lon="7.3048"><ele>612</ele><time>2016-08-28T14:11:26Z</time></trkpt>
<trkpt lat="46.23273" lon="7.30478"><ele>612</ele><time>2016-08-28T14:11:27Z</time></trkpt>
<trkpt lat="46.23273" lon="7.30472"><ele>612.4</ele><time>2016-08-28T14:11:29Z</time></trkpt>
<trkpt lat="46.23273" lon="7.30467"><ele>612.6</ele><time>2016-08-28T14:11:31Z</time></trkpt>
<trkpt lat="46.23273" lon="7.30462"><ele>612.8</ele><time>2016-08-28T14:11:33Z</time></trkpt>
<trkpt lat="46.23274" lon="7.30457"><ele>613.2</ele><time>2016-08-28T14:11:35Z</time></trkpt>
<trkpt lat="46.23274" lon="7.30452"><ele>613.4</ele><time>2016-08-28T14:11:37Z</time></trkpt>
<trkpt lat="46.23274" lon="7.30447"><ele>613.6</ele><time>2016-08-28T14:11:39Z</time></trkpt>
<trkpt lat="46.23274" lon="7.30442"><ele>614</ele><time>2016-08-28T14:11:41Z</time></trkpt>
<trkpt lat="46.23275" lon="7.30437"><ele>614.2</ele><time>2016-08-28T14:11:43Z</time></trkpt>
<trkpt lat="46.23275" lon="7.30434"><ele>614.4</ele><time>2016-08-28T14:11:44Z</time></trkpt>
<trkpt lat="46.23274" lon="7.30431"><ele>614.4</ele><time>2016-08-28T14:11:45Z</time></trkpt>
<trkpt lat="46.23273" lon="7.30426"><ele>614.8</ele><time>2016-08-28T14:11:47Z</time></trkpt>
<trkpt lat="46.23273" lon="7.3042"><ele>615</ele><time>2016-08-28T14:11:49Z</time></trkpt>
<trkpt lat="46.23272" lon="7.30415"><ele>615.2</ele><time>2016-08-28T14:11:51Z</time></trkpt>
<trkpt lat="46.23271" lon="7.30409"><ele>615.6</ele><time>2016-08-28T14:11:53Z</time></trkpt>
<trkpt lat="46.2327" lon="7.30404"><ele>615.8</ele><time>2016-08-28T14:11:55Z</time></trkpt>
<trkpt lat="46.23269" lon="7.30398"><ele>616</ele><time>2016-08-28T14:11:57Z</time></trkpt>
<trkpt lat="46.23268" lon="7.30393"><ele>616.2</ele><time>2016-08-28T14:11:59Z</time></trkpt>
<trkpt lat="46.23267" lon="7.30387"><ele>616.4</ele><time>2016-08-28T14:12:01Z</time></trkpt>
<trkpt lat="46.23266" lon="7.30382"><ele>616.6</ele><time>2016-08-28T14:12:03Z</time></trkpt>
<trkpt lat="46.23265" lon="7.30376"><ele>616.8</ele><time>2016-08-28T14:12:05Z</time></trkpt>
<trkpt lat="46.23265" lon="7.3037"><ele>617</ele><time>2016-08-28T14:12:07Z</time></trkpt>
<trkpt lat="46.23264" lon="7.30365"><ele>617.4</ele><time>2016-08-28T14:12:09Z</time></trkpt>
<trkpt lat="46.23263" lon="7.3036"><ele>617.6</ele><time>2016-08-28T14:12:11Z</time></trkpt>
<trkpt lat="46.23262" lon="7.30355"><ele>617.8</ele><time>2016-08-28T14:12:13Z</time></trkpt>
<trkpt lat="46.23261" lon="7.3035"><ele>618</ele><time>2016-08-28T14:12:15Z</time></trkpt>
<trkpt lat="46.2326" lon="7.30345"><ele>618.4</ele><time>2016-08-28T14:12:17Z</time></trkpt>
<trkpt lat="46.23259" lon="7.3034"><ele>618.6</ele><time>2016-08-28T14:12:19Z</time></trkpt>
<trkpt lat="46.23259" lon="7.3032"><ele>618.6</ele><time>2016-08-28T14:12:20Z</time></trkpt>
<trkpt lat="46.23259" lon="7.30313"><ele>618.8</ele><time>2016-08-28T14:12:21Z</time></trkpt>
<trkpt lat="46.23259" lon="7.30309"><ele>619</ele><time>2016-08-28T14:12:23Z</time></trkpt>
<trkpt lat="46.23258" lon="7.30305"><ele>619.2</ele><time>2016-08-28T14:12:25Z</time></trkpt>
<trkpt lat="46.23258" lon="7.30301"><ele>619.6</ele><time>2016-08-28T14:12:27Z</time></trkpt>
<trkpt lat="46.23258" lon="7.30297"><ele>619.8</ele><time>2016-08-28T14:12:29Z</time></trkpt>
<trkpt lat="46.23258" lon="7.30295"><ele>620</ele><time>2016-08-28T14:12:30Z</time></trkpt>
<trkpt lat="46.23257" lon="7.30292"><ele>620</ele><time>2016-08-28T14:12:31Z</time></trkpt>
<trkpt lat="46.23257" lon="7.30288"><ele>620.2</ele><time>2016-08-28T14:12:33Z</time></trkpt>
<trkpt lat="46.23257" lon="7.30284"><ele>620.2</ele><time>2016-08-28T14:12:35Z</time></trkpt>
<trkpt lat="46.23257" lon="7.3028"><ele>620.4</ele><time>2016-08-28T14:12:37Z</time></trkpt>
<trkpt lat="46.23256" lon="7.30276"><ele>620.6</ele><time>2016-08-28T14:12:39Z</time></trkpt>
<trkpt lat="46.23256" lon="7.30272"><ele>620.8</ele><time>2016-08-28T14:12:41Z</time></trkpt>
<trkpt lat="46.23256" lon="7.30268"><ele>621</ele><time>2016-08-28T14:12:43Z</time></trkpt>
<trkpt lat="46.23255" lon="7.30264"><ele>621</ele><time>2016-08-28T14:12:45Z</time></trkpt>
<trkpt lat="46.23255" lon="7.30262"><ele>621.2</ele><time>2016-08-28T14:12:46Z</time></trkpt>
<trkpt lat="46.23256" lon="7.3026"><ele>621.2</ele><time>2016-08-28T14:12:47Z</time></trkpt>
<trkpt lat="46.23257" lon="7.30257"><ele>621.2</ele><time>2016-08-28T14:12:48Z</time></trkpt>
<trkpt lat="46.23258" lon="7.30257"><ele>621.4</ele><time>2016-08-28T14:12:49Z</time></trkpt>
<trkpt lat="46.23259" lon="7.30257"><ele>621.6</ele><time>2016-08-28T14:12:51Z</time></trkpt>
<trkpt lat="46.23261" lon="7.30258"><ele>621.6</ele><time>2016-08-28T14:12:53Z</time></trkpt>
<trkpt lat="46.23261" lon="7.30258"><ele>621.8</ele><time>2016-08-28T14:12:54Z</time></trkpt>
<trkpt lat="46.23263" lon="7.30255"><ele>621.8</ele><time>2016-08-28T14:12:55Z</time></trkpt>
<trkpt lat="46.23267" lon="7.30248"><ele>622</ele><time>2016-08-28T14:12:57Z</time></trkpt>
<trkpt lat="46.23271" lon="7.30241"><ele>622.2</ele><time>2016-08-28T14:12:59Z</time></trkpt>
<trkpt lat="46.23274" lon="7.30234"><ele>622.2</ele><time>2016-08-28T14:13:01Z</time></trkpt>
<trkpt lat="46.23278" lon="7.30227"><ele>622.4</ele><time>2016-08-28T14:13:03Z</time></trkpt>
<trkpt lat="46.23285" lon="7.30225"><ele>622.6</ele><time>2016-08-28T14:13:05Z</time></trkpt>
<trkpt lat="46.23292" lon="7.30224"><ele>622.8</ele><time>2016-08-28T14:13:07Z</time></trkpt>
<trkpt lat="46.23299" lon="7.30222"><ele>622.8</ele><time>2016-08-28T14:13:09Z</time></trkpt>
<trkpt lat="46.23303" lon="7.30222"><ele>623</ele><time>2016-08-28T14:13:10Z</time></trkpt>
<trkpt lat="46.23304" lon="7.30222"><ele>623</ele><time>2016-08-28T14:13:11Z</time></trkpt>
<trkpt lat="46.23304" lon="7.30221"><ele>623.4</ele><time>2016-08-28T14:13:13Z</time></trkpt>
<trkpt lat="46.23304" lon="7.30221"><ele>623.6</ele><time>2016-08-28T14:13:15Z</time></trkpt>
<trkpt lat="46.23305" lon="7.30221"><ele>624</ele><time>2016-08-28T14:13:17Z</time></trkpt>
<trkpt lat="46.23305" lon="7.30221"><ele>624</ele><time>2016-08-28T14:13:18Z</time></trkpt>
<trkpt lat="46.23306" lon="7.30223"><ele>624.2</ele><time>2016-08-28T14:13:19Z</time></trkpt>
<trkpt lat="46.23309" lon="7.30228"><ele>624.4</ele><time>2016-08-28T14:13:21Z</time></trkpt>
<trkpt lat="46.23312" lon="7.30233"><ele>624.8</ele><time>2016-08-28T14:13:23Z</time></trkpt>
<trkpt lat="46.23315" lon="7.30238"><ele>625</ele><time>2016-08-28T14:13:25Z</time></trkpt>
<trkpt lat="46.23318" lon="7.30244"><ele>625.2</ele><time>2016-08-28T14:13:27Z</time></trkpt>
<trkpt lat="46.23321" lon="7.30249"><ele>625.6</ele><time>2016-08-28T14:13:29Z</time></trkpt>
<trkpt lat="46.23324" lon="7.30254"><ele>625.8</ele><time>2016-08-28T14:13:31Z</time></trkpt>
<trkpt lat="46.23327" lon="7.30259"><ele>626</ele><time>2016-08-28T14:13:33Z</time></trkpt>
<trkpt lat="46.23329" lon="7.30261"><ele>626.2</ele><time>2016-08-28T14:13:34Z</time></trkpt>
<trkpt lat="46.2333" lon="7.30264"><ele>626.4</ele><time>2016-08-28T14:13:35Z</time></trkpt>
<trkpt lat="46.23332" lon="7.30269"><ele>626.8</ele><time>2016-08-28T14:13:37Z</time></trkpt>
<trkpt lat="46.23334" lon="7.30273"><ele>627</ele><time>2016-08-28T14:13:39Z</time></trkpt>
<trkpt lat="46.23336" lon="7.30278"><ele>627.4</ele><time>2016-08-28T14:13:41Z</time></trkpt>
<trkpt lat="46.23338" lon="7.30283"><ele>627.6</ele><time>2016-08-28T14:13:43Z</time></trkpt>
<trkpt lat="46.2334" lon="7.30288"><ele>628</ele><time>2016-08-28T14:13:45Z</time></trkpt>
<trkpt lat="46.23342" lon="7.30292"><ele>628.2</ele><time>2016-08-28T14:13:47Z</time></trkpt>
<trkpt lat="46.23343" lon="7.30297"><ele>628.6</ele><time>2016-08-28T14:13:49Z</time></trkpt>
<trkpt lat="46.23345" lon="7.30302"><ele>628.8</ele><time>2016-08-28T14:13:51Z</time></trkpt>
<trkpt lat="46.23346" lon="7.30304"><ele>629</ele><time>2016-08-28T14:13:52Z</time></trkpt>
<trkpt lat="46.23347" lon="7.30306"><ele>629.2</ele><time>2016-08-28T14:13:53Z</time></trkpt>
<trkpt lat="46.23349" lon="7.30311"><ele>629.6</ele><time>2016-08-28T14:13:55Z</time></trkpt>
<trkpt lat="46.23351" lon="7.30316"><ele>629.8</ele><time>2016-08-28T14:13:57Z</time></trkpt>
<trkpt lat="46.23352" lon="7.30318"><ele>630</ele><time>2016-08-28T14:13:58Z</time></trkpt>
<trkpt lat="46.23353" lon="7.30321"><ele>630.2</ele><time>2016-08-28T14:13:59Z</time></trkpt>
<trkpt lat="46.23355" lon="7.30325"><ele>630.4</ele><time>2016-08-28T14:14:01Z</time></trkpt>
<trkpt lat="46.23356" lon="7.3033"><ele>630.8</ele><time>2016-08-28T14:14:03Z</time></trkpt>
<trkpt lat="46.23358" lon="7.30335"><ele>631</ele><time>2016-08-28T14:14:05Z</time></trkpt>
<trkpt lat="46.23359" lon="7.3034"><ele>631.4</ele><time>2016-08-28T14:14:07Z</time></trkpt>
<trkpt lat="46.23361" lon="7.30345"><ele>631.8</ele><time>2016-08-28T14:14:09Z</time></trkpt>
<trkpt lat="46.23363" lon="7.3035"><ele>632</ele><time>2016-08-28T14:14:11Z</time></trkpt>
<trkpt lat="46.23364" lon="7.30355"><ele>632.4</ele><time>2016-08-28T14:14:13Z</time></trkpt>
<trkpt lat="46.23365" lon="7.30357"><ele>632.4</ele><time>2016-08-28T14:14:14Z</time></trkpt>
<trkpt lat="46.23366" lon="7.30359"><ele>632.6</ele><time>2016-08-28T14:14:15Z</time></trkpt>
<trkpt lat="46.23367" lon="7.30364"><ele>633</ele><time>2016-08-28T14:14:17Z</time></trkpt>
<trkpt lat="46.23369" lon="7.30369"><ele>633.2</ele><time>2016-08-28T14:14:19Z</time></trkpt>
<trkpt lat="46.2337" lon="7.30374"><ele>633.6</ele><time>2016-08-28T14:14:21Z</time></trkpt>
<trkpt lat="46.23372" lon="7.30379"><ele>633.8</ele><time>2016-08-28T14:14:23Z</time></trkpt>
<trkpt lat="46.23374" lon="7.30384"><ele>634.2</ele><time>2016-08-28T14:14:25Z</time></trkpt>
<trkpt lat="46.23375" lon="7.30388"><ele>634.4</ele><time>2016-08-28T14:14:27Z</time></trkpt>
<trkpt lat="46.23377" lon="7.30393"><ele>634.8</ele><time>2016-08-28T14:14:29Z</time></trkpt>
<trkpt lat="46.23378" lon="7.30398"><ele>635.2</ele><time>2016-08-28T14:14:31Z</time></trkpt>
<trkpt lat="46.2338" lon="7.30403"><ele>635.4</ele><time>2016-08-28T14:14:33Z</time></trkpt>
<trkpt lat="46.23381" lon="7.30408"><ele>635.8</ele><time>2016-08-28T14:14:35Z</time></trkpt>
<trkpt lat="46.23383" lon="7.30412"><ele>636</ele><time>2016-08-28T14:14:37Z</time></trkpt>
<trkpt lat="46.23385" lon="7.30417"><ele>636.4</ele><time>2016-08-28T14:14:39Z</time></trkpt>
<trkpt lat="46.23386" lon="7.30422"><ele>636.8</ele><time>2016-08-28T14:14:41Z</time></trkpt>
<trkpt lat="46.23388" lon="7.30427"><ele>637</ele><time>2016-08-28T14:14:43Z</time></trkpt>
<trkpt lat="46.23389" lon="7.30431"><ele>637.4</ele><time>2016-08-28T14:14:45Z</time></trkpt>
<trkpt lat="46.23391" lon="7.30436"><ele>637.6</ele><time>2016-08-28T14:14:47Z</time></trkpt>
<trkpt lat="46.23392" lon="7.30439"><ele>637.8</ele><time>2016-08-28T14:14:48Z</time></trkpt>
<trkpt lat="46.23393" lon="7.3044"><ele>638</ele><time>2016-08-28T14:14:49Z</time></trkpt>
<trkpt lat="46.23396" lon="7.30444"><ele>638.4</ele><time>2016-08-28T14:14:51Z</time></trkpt>
<trkpt lat="46.23399" lon="7.30447"><ele>638.6</ele><time>2016-08-28T14:14:53Z</time></trkpt>
<trkpt lat="46.23402" lon="7.30451"><ele>639</ele><time>2016-08-28T14:14:55Z</time></trkpt>
<trkpt lat="46.23405" lon="7.30454"><ele>639.4</ele><time>2016-08-28T14:14:57Z</time></trkpt>
<trkpt lat="46.23408" lon="7.30458"><ele>639.6</ele><time>2016-08-28T14:14:59Z</time></trkpt>
<trkpt lat="46.23404" lon="7.30451"><ele>639.8</ele><time>2016-08-28T14:15:00Z</time></trkpt>
<trkpt lat="46.23406" lon="7.30454"><ele>640</ele><time>2016-08-28T14:15:01Z</time></trkpt>
<trkpt lat="46.2341" lon="7.30465"><ele>640.2</ele><time>2016-08-28T14:15:03Z</time></trkpt>
<trkpt lat="46.23411" lon="7.30465"><ele>640.4</ele><time>2016-08-28T14:15:05Z</time></trkpt>
<trkpt lat="46.23412" lon="7.30465"><ele>640.6</ele><time>2016-08-28T14:15:07Z</time></trkpt>
<trkpt lat="46.23413" lon="7.30464"><ele>640.8</ele><time>2016-08-28T14:15:09Z</time></trkpt>
<trkpt lat="46.23413" lon="7.30463"><ele>641</ele><time>2016-08-28T14:15:10Z</time></trkpt>
<trkpt lat="46.23415" lon="7.30465"><ele>641.2</ele><time>2016-08-28T14:15:11Z</time></trkpt>
<trkpt lat="46.2342" lon="7.30471"><ele>641.4</ele><time>2016-08-28T14:15:13Z</time></trkpt>
<trkpt lat="46.23425" lon="7.30476"><ele>641.6</ele><time>2016-08-28T14:15:15Z</time></trkpt>
<trkpt lat="46.23429" lon="7.30481"><ele>641.8</ele><time>2016-08-28T14:15:17Z</time></trkpt>
<trkpt lat="46.23434" lon="7.30486"><ele>642</ele><time>2016-08-28T14:15:19Z</time></trkpt>
<trkpt lat="46.23439" lon="7.30491"><ele>642.4</ele><time>2016-08-28T14:15:21Z</time></trkpt>
<trkpt lat="46.23443" lon="7.30496"><ele>642.4</ele><time>2016-08-28T14:15:23Z</time></trkpt>
<trkpt lat="46.23448" lon="7.30501"><ele>642.4</ele><time>2016-08-28T14:15:25Z</time></trkpt>
<trkpt lat="46.2345" lon="7.30504"><ele>642.4</ele><time>2016-08-28T14:15:26Z</time></trkpt>
<trkpt lat="46.23451" lon="7.30504"><ele>642.4</ele><time>2016-08-28T14:15:27Z</time></trkpt>
<trkpt lat="46.23452" lon="7.30504"><ele>642.6</ele><time>2016-08-28T14:15:29Z</time></trkpt>
<trkpt lat="46.23452" lon="7.30505"><ele>642.6</ele><time>2016-08-28T14:15:31Z</time></trkpt>
<trkpt lat="46.23453" lon="7.30505"><ele>642.6</ele><time>2016-08-28T14:15:33Z</time></trkpt>
<trkpt lat="46.23454" lon="7.30505"><ele>642.8</ele><time>2016-08-28T14:15:35Z</time></trkpt>
<trkpt lat="46.23475" lon="7.30485"><ele>644</ele><time>2016-08-28T14:15:38Z</time></trkpt>
<trkpt lat="46.23475" lon="7.30485"><ele>644</ele><time>2016-08-28T14:17:01Z</time></trkpt>
<trkpt lat="46.23495" lon="7.30464"><ele>645.2</ele><time>2016-08-28T14:17:03Z</time></trkpt>
<trkpt lat="46.23494" lon="7.30464"><ele>645.2</ele><time>2016-08-28T14:17:05Z</time></trkpt>
<trkpt lat="46.23494" lon="7.30465"><ele>645.2</ele><time>2016-08-28T14:17:07Z</time></trkpt>
<trkpt lat="46.23494" lon="7.30466"><ele>645.2</ele><time>2016-08-28T14:17:09Z</time></trkpt>
<trkpt lat="46.23493" lon="7.30467"><ele>645.4</ele><time>2016-08-28T14:17:11Z</time></trkpt>
<trkpt lat="46.23494" lon="7.30461"><ele>645.4</ele><time>2016-08-28T14:17:13Z</time></trkpt>
<trkpt lat="46.23494" lon="7.30457"><ele>645.4</ele><time>2016-08-28T14:17:14Z</time></trkpt>
<trkpt lat="46.23495" lon="7.30454"><ele>645.4</ele><time>2016-08-28T14:17:15Z</time></trkpt>
<trkpt lat="46.23496" lon="7.30447"><ele>645.6</ele><time>2016-08-28T14:17:17Z</time></trkpt>
<trkpt lat="46.23497" lon="7.3044"><ele>645.6</ele><time>2016-08-28T14:17:19Z</time></trkpt>
<trkpt lat="46.23497" lon="7.30434"><ele>645.8</ele><time>2016-08-28T14:17:21Z</time></trkpt>
<trkpt lat="46.23498" lon="7.30427"><ele>645.8</ele><time>2016-08-28T14:17:23Z</time></trkpt>
<trkpt lat="46.23499" lon="7.3042"><ele>646</ele><time>2016-08-28T14:17:25Z</time></trkpt>
<trkpt lat="46.235" lon="7.30413"><ele>646.2</ele><time>2016-08-28T14:17:27Z</time></trkpt>
<trkpt lat="46.23501" lon="7.30407"><ele>646.2</ele><time>2016-08-28T14:17:29Z</time></trkpt>
<trkpt lat="46.23502" lon="7.304"><ele>646.4</ele><time>2016-08-28T14:17:31Z</time></trkpt>
<trkpt lat="46.23502" lon="7.30392"><ele>646.4</ele><time>2016-08-28T14:17:33Z</time></trkpt>
<trkpt lat="46.23503" lon="7.30384"><ele>646.6</ele><time>2016-08-28T14:17:35Z</time></trkpt>
<trkpt lat="46.23504" lon="7.30375"><ele>646.6</ele><time>2016-08-28T14:17:37Z</time></trkpt>
<trkpt lat="46.23504" lon="7.30367"><ele>646.8</ele><time>2016-08-28T14:17:39Z</time></trkpt>
<trkpt lat="46.23505" lon="7.30359"><ele>646.8</ele><time>2016-08-28T14:17:41Z</time></trkpt>
<trkpt lat="46.23505" lon="7.30351"><ele>647</ele><time>2016-08-28T14:17:43Z</time></trkpt>
<trkpt lat="46.23506" lon="7.30342"><ele>647</ele><time>2016-08-28T14:17:45Z</time></trkpt>
<trkpt lat="46.23506" lon="7.30334"><ele>647.2</ele><time>2016-08-28T14:17:47Z</time></trkpt>
<trkpt lat="46.23507" lon="7.30326"><ele>647.2</ele><time>2016-08-28T14:17:49Z</time></trkpt>
<trkpt lat="46.23508" lon="7.30317"><ele>647.4</ele><time>2016-08-28T14:17:51Z</time></trkpt>
<trkpt lat="46.23508" lon="7.30308"><ele>647.4</ele><time>2016-08-28T14:17:53Z</time></trkpt>
<trkpt lat="46.23509" lon="7.303"><ele>647.6</ele><time>2016-08-28T14:17:55Z</time></trkpt>
<trkpt lat="46.2351" lon="7.30291"><ele>647.8</ele><time>2016-08-28T14:17:57Z</time></trkpt>
<trkpt lat="46.2351" lon="7.30282"><ele>647.8</ele><time>2016-08-28T14:17:59Z</time></trkpt>
<trkpt lat="46.23511" lon="7.30274"><ele>648</ele><time>2016-08-28T14:18:01Z</time></trkpt>
<trkpt lat="46.23511" lon="7.3027"><ele>648</ele><time>2016-08-28T14:18:02Z</time></trkpt>
<trkpt lat="46.23511" lon="7.30266"><ele>648</ele><time>2016-08-28T14:18:03Z</time></trkpt>
<trkpt lat="46.23509" lon="7.30258"><ele>648.2</ele><time>2016-08-28T14:18:05Z</time></trkpt>
<trkpt lat="46.23509" lon="7.30255"><ele>648.2</ele><time>2016-08-28T14:18:06Z</time></trkpt>
<trkpt lat="46.23507" lon="7.30255"><ele>648.2</ele><time>2016-08-28T14:18:07Z</time></trkpt>
<trkpt lat="46.23505" lon="7.30257"><ele>648.4</ele><time>2016-08-28T14:18:09Z</time></trkpt>
<trkpt lat="46.23501" lon="7.30245"><ele>648.4</ele><time>2016-08-28T14:18:10Z</time></trkpt>
<trkpt lat="46.23499" lon="7.30239"><ele>648.4</ele><time>2016-08-28T14:18:11Z</time></trkpt>
<trkpt lat="46.23494" lon="7.30231"><ele>648.6</ele><time>2016-08-28T14:18:13Z</time></trkpt>
<trkpt lat="46.2349" lon="7.30223"><ele>648.6</ele><time>2016-08-28T14:18:15Z</time></trkpt>
<trkpt lat="46.23485" lon="7.30215"><ele>649</ele><time>2016-08-28T14:18:17Z</time></trkpt>
<trkpt lat="46.2348" lon="7.30208"><ele>649.2</ele><time>2016-08-28T14:18:19Z</time></trkpt>
<trkpt lat="46.23476" lon="7.302"><ele>649.4</ele><time>2016-08-28T14:18:21Z</time></trkpt>
<trkpt lat="46.23471" lon="7.30192"><ele>649.6</ele><time>2016-08-28T14:18:23Z</time></trkpt>
<trkpt lat="46.23467" lon="7.30186"><ele>649.8</ele><time>2016-08-28T14:18:25Z</time></trkpt>
<trkpt lat="46.23464" lon="7.3018"><ele>650.2</ele><time>2016-08-28T14:18:27Z</time></trkpt>
<trkpt lat="46.2346" lon="7.30174"><ele>650.4</ele><time>2016-08-28T14:18:29Z</time></trkpt>
<trkpt lat="46.23456" lon="7.30168"><ele>650.6</ele><time>2016-08-28T14:18:31Z</time></trkpt>
<trkpt lat="46.23452" lon="7.30162"><ele>650.8</ele><time>2016-08-28T14:18:33Z</time></trkpt>
<trkpt lat="46.23448" lon="7.30156"><ele>651.2</ele><time>2016-08-28T14:18:35Z</time></trkpt>
<trkpt lat="46.23444" lon="7.3015"><ele>651.4</ele><time>2016-08-28T14:18:37Z</time></trkpt>
<trkpt lat="46.2344" lon="7.30144"><ele>651.6</ele><time>2016-08-28T14:18:39Z</time></trkpt>
<trkpt lat="46.23437" lon="7.30138"><ele>651.8</ele><time>2016-08-28T14:18:41Z</time></trkpt>
<trkpt lat="46.23434" lon="7.30133"><ele>652</ele><time>2016-08-28T14:18:43Z</time></trkpt>
<trkpt lat="46.23431" lon="7.30128"><ele>652.2</ele><time>2016-08-28T14:18:45Z</time></trkpt>
<trkpt lat="46.23428" lon="7.30123"><ele>652.4</ele><time>2016-08-28T14:18:47Z</time></trkpt>
<trkpt lat="46.23425" lon="7.30118"><ele>652.4</ele><time>2016-08-28T14:18:49Z</time></trkpt>
<trkpt lat="46.23422" lon="7.30113"><ele>652.6</ele><time>2016-08-28T14:18:51Z</time></trkpt>
<trkpt lat="46.23419" lon="7.30108"><ele>652.6</ele><time>2016-08-28T14:18:53Z</time></trkpt>
<trkpt lat="46.23417" lon="7.30105"><ele>652.8</ele><time>2016-08-28T14:18:54Z</time></trkpt>
<trkpt lat="46.23416" lon="7.30102"><ele>652.8</ele><time>2016-08-28T14:18:55Z</time></trkpt>
<trkpt lat="46.23414" lon="7.301"><ele>652.8</ele><time>2016-08-28T14:18:56Z</time></trkpt>
<trkpt lat="46.23407" lon="7.30075"><ele>652.8</ele><time>2016-08-28T14:18:57Z</time></trkpt>
<trkpt lat="46.23412" lon="7.30092"><ele>652.8</ele><time>2016-08-28T14:18:58Z</time></trkpt>
<trkpt lat="46.23413" lon="7.30094"><ele>652.8</ele><time>2016-08-28T14:18:59Z</time></trkpt>
<trkpt lat="46.23411" lon="7.30089"><ele>652.8</ele><time>2016-08-28T14:19:01Z</time></trkpt>
<trkpt lat="46.2341" lon="7.30085"><ele>652.8</ele><time>2016-08-28T14:19:03Z</time></trkpt>
<trkpt lat="46.23408" lon="7.3008"><ele>652.8</ele><time>2016-08-28T14:19:05Z</time></trkpt>
<trkpt lat="46.23406" lon="7.30076"><ele>652.8</ele><time>2016-08-28T14:19:07Z</time></trkpt>
<trkpt lat="46.23405" lon="7.30071"><ele>652.8</ele><time>2016-08-28T14:19:09Z</time></trkpt>
<trkpt lat="46.23403" lon="7.30067"><ele>652.8</ele><time>2016-08-28T14:19:11Z</time></trkpt>
<trkpt lat="46.23403" lon="7.30065"><ele>652.8</ele><time>2016-08-28T14:19:12Z</time></trkpt>
<trkpt lat="46.23401" lon="7.30064"><ele>652.8</ele><time>2016-08-28T14:19:13Z</time></trkpt>
<trkpt lat="46.23399" lon="7.30064"><ele>652.8</ele><time>2016-08-28T14:19:14Z</time></trkpt>
<trkpt lat="46.23414" lon="7.30051"><ele>652.8</ele><time>2016-08-28T14:19:15Z</time></trkpt>
<trkpt lat="46.23396" lon="7.30056"><ele>652.8</ele><time>2016-08-28T14:19:16Z</time></trkpt>
<trkpt lat="46.23393" lon="7.30055"><ele>652.8</ele><time>2016-08-28T14:19:17Z</time></trkpt>
<trkpt lat="46.23392" lon="7.3005"><ele>652.8</ele><time>2016-08-28T14:19:19Z</time></trkpt>
<trkpt lat="46.234" lon="7.30054"><ele>655.2</ele><time>2016-08-28T14:19:20Z</time></trkpt>
<trkpt lat="46.234" lon="7.30054"><ele>655.2</ele><time>2016-08-28T14:35:48Z</time></trkpt>
<trkpt lat="46.23398" lon="7.30072"><ele>657.8</ele><time>2016-08-28T14:35:49Z</time></trkpt>
<trkpt lat="46.234" lon="7.30081"><ele>657.8</ele><time>2016-08-28T14:35:50Z</time></trkpt>
<trkpt lat="46.23411" lon="7.30099"><ele>657.8</ele><time>2016-08-28T14:35:51Z</time></trkpt>
<trkpt lat="46.23414" lon="7.30099"><ele>657.8</ele><time>2016-08-28T14:35:52Z</time></trkpt>
<trkpt lat="46.23411" lon="7.30079"><ele>657.8</ele><time>2016-08-28T14:35:53Z</time></trkpt>
<trkpt lat="46.23408" lon="7.30058"><ele>657.8</ele><time>2016-08-28T14:35:54Z</time></trkpt>
<trkpt lat="46.23409" lon="7.30055"><ele>657.8</ele><time>2016-08-28T14:35:55Z</time></trkpt>
<trkpt lat="46.23412" lon="7.30052"><ele>657.8</ele><time>2016-08-28T14:35:57Z</time></trkpt>
<trkpt lat="46.23416" lon="7.30049"><ele>658</ele><time>2016-08-28T14:35:59Z</time></trkpt>
<trkpt lat="46.23418" lon="7.30053"><ele>658</ele><time>2016-08-28T14:36:01Z</time></trkpt>
<trkpt lat="46.23421" lon="7.30057"><ele>658</ele><time>2016-08-28T14:36:03Z</time></trkpt>
<trkpt lat="46.23423" lon="7.30061"><ele>658</ele><time>2016-08-28T14:36:05Z</time></trkpt>
<trkpt lat="46.23425" lon="7.30065"><ele>658.2</ele><time>2016-08-28T14:36:07Z</time></trkpt>
<trkpt lat="46.23427" lon="7.30068"><ele>658.4</ele><time>2016-08-28T14:36:09Z</time></trkpt>
<trkpt lat="46.23429" lon="7.3007"><ele>658.4</ele><time>2016-08-28T14:36:10Z</time></trkpt>
<trkpt lat="46.2343" lon="7.30072"><ele>658.6</ele><time>2016-08-28T14:36:11Z</time></trkpt>
<trkpt lat="46.23432" lon="7.30076"><ele>658.8</ele><time>2016-08-28T14:36:13Z</time></trkpt>
<trkpt lat="46.23434" lon="7.3008"><ele>659</ele><time>2016-08-28T14:36:15Z</time></trkpt>
<trkpt lat="46.23435" lon="7.30082"><ele>659.2</ele><time>2016-08-28T14:36:16Z</time></trkpt>
<trkpt lat="46.23436" lon="7.30084"><ele>659.2</ele><time>2016-08-28T14:36:17Z</time></trkpt>
<trkpt lat="46.23439" lon="7.30088"><ele>659.6</ele><time>2016-08-28T14:36:19Z</time></trkpt>
<trkpt lat="46.23441" lon="7.30092"><ele>659.8</ele><time>2016-08-28T14:36:21Z</time></trkpt>
<trkpt lat="46.23443" lon="7.30096"><ele>660</ele><time>2016-08-28T14:36:23Z</time></trkpt>
<trkpt lat="46.23446" lon="7.30099"><ele>660.2</ele><time>2016-08-28T14:36:25Z</time></trkpt>
<trkpt lat="46.23447" lon="7.301"><ele>660.4</ele><time>2016-08-28T14:36:27Z</time></trkpt>
<trkpt lat="46.23449" lon="7.30101"><ele>660.8</ele><time>2016-08-28T14:36:29Z</time></trkpt>
<trkpt lat="46.23451" lon="7.30101"><ele>661</ele><time>2016-08-28T14:36:31Z</time></trkpt>
<trkpt lat="46.23453" lon="7.30102"><ele>661.2</ele><time>2016-08-28T14:36:33Z</time></trkpt>
<trkpt lat="46.23455" lon="7.30102"><ele>661.4</ele><time>2016-08-28T14:36:35Z</time></trkpt>
<trkpt lat="46.23457" lon="7.30103"><ele>661.8</ele><time>2016-08-28T14:36:37Z</time></trkpt>
<trkpt lat="46.23459" lon="7.30104"><ele>662</ele><time>2016-08-28T14:36:39Z</time></trkpt>
<trkpt lat="46.23459" lon="7.301"><ele>662.2</ele><time>2016-08-28T14:36:41Z</time></trkpt>
<trkpt lat="46.23459" lon="7.30095"><ele>662.6</ele><time>2016-08-28T14:36:43Z</time></trkpt>
<trkpt lat="46.23459" lon="7.30091"><ele>662.8</ele><time>2016-08-28T14:36:45Z</time></trkpt>
<trkpt lat="46.23459" lon="7.30087"><ele>663</ele><time>2016-08-28T14:36:47Z</time></trkpt>
<trkpt lat="46.23459" lon="7.30082"><ele>663.2</ele><time>2016-08-28T14:36:49Z</time></trkpt>
<trkpt lat="46.23459" lon="7.30078"><ele>663.6</ele><time>2016-08-28T14:36:51Z</time></trkpt>
<trkpt lat="46.23459" lon="7.30074"><ele>663.8</ele><time>2016-08-28T14:36:53Z</time></trkpt>
<trkpt lat="46.23459" lon="7.30069"><ele>664.2</ele><time>2016-08-28T14:36:55Z</time></trkpt>
<trkpt lat="46.23459" lon="7.30065"><ele>664.4</ele><time>2016-08-28T14:36:57Z</time></trkpt>
<trkpt lat="46.23459" lon="7.30063"><ele>664.6</ele><time>2016-08-28T14:36:58Z</time></trkpt>
<trkpt lat="46.23459" lon="7.30061"><ele>664.8</ele><time>2016-08-28T14:36:59Z</time></trkpt>
<trkpt lat="46.23458" lon="7.30057"><ele>665.2</ele><time>2016-08-28T14:37:01Z</time></trkpt>
<trkpt lat="46.23457" lon="7.30053"><ele>665.4</ele><time>2016-08-28T14:37:03Z</time></trkpt>
<trkpt lat="46.23457" lon="7.30049"><ele>665.8</ele><time>2016-08-28T14:37:05Z</time></trkpt>
<trkpt lat="46.23456" lon="7.30045"><ele>666.2</ele><time>2016-08-28T14:37:07Z</time></trkpt>
<trkpt lat="46.23455" lon="7.30041"><ele>666.6</ele><time>2016-08-28T14:37:09Z</time></trkpt>
<trkpt lat="46.23455" lon="7.30037"><ele>666.8</ele><time>2016-08-28T14:37:11Z</time></trkpt>
<trkpt lat="46.23454" lon="7.30033"><ele>667.2</ele><time>2016-08-28T14:37:13Z</time></trkpt>
<trkpt lat="46.23453" lon="7.30029"><ele>667.6</ele><time>2016-08-28T14:37:15Z</time></trkpt>
<trkpt lat="46.23453" lon="7.30024"><ele>668</ele><time>2016-08-28T14:37:17Z</time></trkpt>
<trkpt lat="46.23452" lon="7.3002"><ele>668.4</ele><time>2016-08-28T14:37:19Z</time></trkpt>
<trkpt lat="46.23452" lon="7.30018"><ele>668.6</ele><time>2016-08-28T14:37:20Z</time></trkpt>
<trkpt lat="46.23451" lon="7.30016"><ele>668.6</ele><time>2016-08-28T14:37:21Z</time></trkpt>
<trkpt lat="46.23451" lon="7.30012"><ele>669</ele><time>2016-08-28T14:37:23Z</time></trkpt>
<trkpt lat="46.2345" lon="7.30008"><ele>669.2</ele><time>2016-08-28T14:37:25Z</time></trkpt>
<trkpt lat="46.23449" lon="7.30004"><ele>669.6</ele><time>2016-08-28T14:37:27Z</time></trkpt>
<trkpt lat="46.23448" lon="7.3"><ele>670</ele><time>2016-08-28T14:37:29Z</time></trkpt>
<trkpt lat="46.23448" lon="7.29998"><ele>670</ele><time>2016-08-28T14:37:30Z</time></trkpt>
<trkpt lat="46.23448" lon="7.29996"><ele>670.2</ele><time>2016-08-28T14:37:31Z</time></trkpt>
<trkpt lat="46.23448" lon="7.29992"><ele>670.6</ele><time>2016-08-28T14:37:33Z</time></trkpt>
<trkpt lat="46.23447" lon="7.29988"><ele>670.8</ele><time>2016-08-28T14:37:35Z</time></trkpt>
<trkpt lat="46.23447" lon="7.29985"><ele>671.2</ele><time>2016-08-28T14:37:37Z</time></trkpt>
<trkpt lat="46.23447" lon="7.29981"><ele>671.4</ele><time>2016-08-28T14:37:39Z</time></trkpt>
<trkpt lat="46.23447" lon="7.29977"><ele>671.8</ele><time>2016-08-28T14:37:41Z</time></trkpt>
<trkpt lat="46.23447" lon="7.29973"><ele>672</ele><time>2016-08-28T14:37:43Z</time></trkpt>
<trkpt lat="46.23446" lon="7.29969"><ele>672.4</ele><time>2016-08-28T14:37:45Z</time></trkpt>
<trkpt lat="46.23446" lon="7.29965"><ele>672.6</ele><time>2016-08-28T14:37:47Z</time></trkpt>
<trkpt lat="46.23446" lon="7.29961"><ele>673</ele><time>2016-08-28T14:37:49Z</time></trkpt>
<trkpt lat="46.23446" lon="7.29957"><ele>673.2</ele><time>2016-08-28T14:37:51Z</time></trkpt>
<trkpt lat="46.23445" lon="7.29953"><ele>673.6</ele><time>2016-08-28T14:37:53Z</time></trkpt>
<trkpt lat="46.23445" lon="7.29949"><ele>673.8</ele><time>2016-08-28T14:37:55Z</time></trkpt>
<trkpt lat="46.23445" lon="7.29945"><ele>674.2</ele><time>2016-08-28T14:37:57Z</time></trkpt>
<trkpt lat="46.23445" lon="7.29941"><ele>674.4</ele><time>2016-08-28T14:37:59Z</time></trkpt>
<trkpt lat="46.23444" lon="7.29937"><ele>674.8</ele><time>2016-08-28T14:38:01Z</time></trkpt>
<trkpt lat="46.23444" lon="7.29933"><ele>675</ele><time>2016-08-28T14:38:03Z</time></trkpt>
<trkpt lat="46.23444" lon="7.2993"><ele>675.4</ele><time>2016-08-28T14:38:05Z</time></trkpt>
<trkpt lat="46.23443" lon="7.29926"><ele>675.6</ele><time>2016-08-28T14:38:07Z</time></trkpt>
<trkpt lat="46.23442" lon="7.29923"><ele>676</ele><time>2016-08-28T14:38:09Z</time></trkpt>
<trkpt lat="46.23442" lon="7.29919"><ele>676.2</ele><time>2016-08-28T14:38:11Z</time></trkpt>
<trkpt lat="46.23441" lon="7.29915"><ele>676.6</ele><time>2016-08-28T14:38:13Z</time></trkpt>
<trkpt lat="46.23441" lon="7.29912"><ele>676.8</ele><time>2016-08-28T14:38:15Z</time></trkpt>
<trkpt lat="46.2344" lon="7.29908"><ele>677.2</ele><time>2016-08-28T14:38:17Z</time></trkpt>
<trkpt lat="46.2344" lon="7.29904"><ele>677.4</ele><time>2016-08-28T14:38:19Z</time></trkpt>
<trkpt lat="46.23439" lon="7.29901"><ele>677.8</ele><time>2016-08-28T14:38:21Z</time></trkpt>
<trkpt lat="46.23438" lon="7.29897"><ele>678</ele><time>2016-08-28T14:38:23Z</time></trkpt>
<trkpt lat="46.23438" lon="7.29893"><ele>678.4</ele><time>2016-08-28T14:38:25Z</time></trkpt>
<trkpt lat="46.23438" lon="7.29892"><ele>678.4</ele><time>2016-08-28T14:38:26Z</time></trkpt>
<trkpt lat="46.23437" lon="7.2989"><ele>678.6</ele><time>2016-08-28T14:38:27Z</time></trkpt>
<trkpt lat="46.23437" lon="7.29886"><ele>679</ele><time>2016-08-28T14:38:29Z</time></trkpt>
<trkpt lat="46.23436" lon="7.29883"><ele>679.2</ele><time>2016-08-28T14:38:31Z</time></trkpt>
<trkpt lat="46.23436" lon="7.29879"><ele>679.6</ele><time>2016-08-28T14:38:33Z</time></trkpt>
<trkpt lat="46.23435" lon="7.29875"><ele>679.8</ele><time>2016-08-28T14:38:35Z</time></trkpt>
<trkpt lat="46.23434" lon="7.29872"><ele>680</ele><time>2016-08-28T14:38:37Z</time></trkpt>
<trkpt lat="46.23434" lon="7.2987"><ele>680.2</ele><time>2016-08-28T14:38:38Z</time></trkpt>
<trkpt lat="46.23434" lon="7.29868"><ele>680.4</ele><time>2016-08-28T14:38:39Z</time></trkpt>
<trkpt lat="46.23433" lon="7.29864"><ele>680.6</ele><time>2016-08-28T14:38:41Z</time></trkpt>
<trkpt lat="46.23432" lon="7.2986"><ele>681</ele><time>2016-08-28T14:38:43Z</time></trkpt>
<trkpt lat="46.23431" lon="7.29856"><ele>681.2</ele><time>2016-08-28T14:38:45Z</time></trkpt>
<trkpt lat="46.2343" lon="7.29852"><ele>681.6</ele><time>2016-08-28T14:38:47Z</time></trkpt>
<trkpt lat="46.23429" lon="7.29848"><ele>681.8</ele><time>2016-08-28T14:38:49Z</time></trkpt>
<trkpt lat="46.23428" lon="7.29843"><ele>682.2</ele><time>2016-08-28T14:38:51Z</time></trkpt>
<trkpt lat="46.23427" lon="7.29839"><ele>682.4</ele><time>2016-08-28T14:38:53Z</time></trkpt>
<trkpt lat="46.23426" lon="7.29835"><ele>682.8</ele><time>2016-08-28T14:38:55Z</time></trkpt>
<trkpt lat="46.23425" lon="7.29831"><ele>683</ele><time>2016-08-28T14:38:57Z</time></trkpt>
<trkpt lat="46.23424" lon="7.29827"><ele>683.2</ele><time>2016-08-28T14:38:59Z</time></trkpt>
<trkpt lat="46.23424" lon="7.29823"><ele>683.6</ele><time>2016-08-28T14:39:01Z</time></trkpt>
<trkpt lat="46.23423" lon="7.29819"><ele>683.8</ele><time>2016-08-28T14:39:03Z</time></trkpt>
<trkpt lat="46.23422" lon="7.29815"><ele>684</ele><time>2016-08-28T14:39:05Z</time></trkpt>
<trkpt lat="46.23421" lon="7.29811"><ele>684.4</ele><time>2016-08-28T14:39:07Z</time></trkpt>
<trkpt lat="46.2342" lon="7.29807"><ele>684.6</ele><time>2016-08-28T14:39:09Z</time></trkpt>
<trkpt lat="46.2342" lon="7.29803"><ele>685</ele><time>2016-08-28T14:39:11Z</time></trkpt>
<trkpt lat="46.2342" lon="7.29801"><ele>685</ele><time>2016-08-28T14:39:12Z</time></trkpt>
<trkpt lat="46.2342" lon="7.29798"><ele>685.2</ele><time>2016-08-28T14:39:13Z</time></trkpt>
<trkpt lat="46.23419" lon="7.29794"><ele>685.4</ele><time>2016-08-28T14:39:15Z</time></trkpt>
<trkpt lat="46.23419" lon="7.2979"><ele>685.6</ele><time>2016-08-28T14:39:17Z</time></trkpt>
<trkpt lat="46.23419" lon="7.29786"><ele>685.8</ele><time>2016-08-28T14:39:19Z</time></trkpt>
<trkpt lat="46.23419" lon="7.29782"><ele>686</ele><time>2016-08-28T14:39:21Z</time></trkpt>
<trkpt lat="46.23419" lon="7.29777"><ele>686.4</ele><time>2016-08-28T14:39:23Z</time></trkpt>
<trkpt lat="46.23418" lon="7.29773"><ele>686.6</ele><time>2016-08-28T14:39:25Z</time></trkpt>
<trkpt lat="46.23418" lon="7.29769"><ele>686.8</ele><time>2016-08-28T14:39:27Z</time></trkpt>
<trkpt lat="46.23418" lon="7.29765"><ele>687.2</ele><time>2016-08-28T14:39:29Z</time></trkpt>
<trkpt lat="46.23418" lon="7.2976"><ele>687.4</ele><time>2016-08-28T14:39:31Z</time></trkpt>
<trkpt lat="46.23418" lon="7.29756"><ele>687.6</ele><time>2016-08-28T14:39:33Z</time></trkpt>
<trkpt lat="46.23417" lon="7.29752"><ele>688</ele><time>2016-08-28T14:39:35Z</time></trkpt>
<trkpt lat="46.23417" lon="7.29748"><ele>688.2</ele><time>2016-08-28T14:39:37Z</time></trkpt>
<trkpt lat="46.23417" lon="7.29744"><ele>688.4</ele><time>2016-08-28T14:39:39Z</time></trkpt>
<trkpt lat="46.23417" lon="7.29741"><ele>688.4</ele><time>2016-08-28T14:39:40Z</time></trkpt>
<trkpt lat="46.23418" lon="7.2974"><ele>688.6</ele><time>2016-08-28T14:39:41Z</time></trkpt>
<trkpt lat="46.23419" lon="7.29736"><ele>688.8</ele><time>2016-08-28T14:39:43Z</time></trkpt>
<trkpt lat="46.23421" lon="7.29733"><ele>689</ele><time>2016-08-28T14:39:45Z</time></trkpt>
<trkpt lat="46.23423" lon="7.2973"><ele>689.2</ele><time>2016-08-28T14:39:47Z</time></trkpt>
<trkpt lat="46.23424" lon="7.29726"><ele>689.4</ele><time>2016-08-28T14:39:49Z</time></trkpt>
<trkpt lat="46.23426" lon="7.29723"><ele>689.6</ele><time>2016-08-28T14:39:51Z</time></trkpt>
<trkpt lat="46.23427" lon="7.29721"><ele>689.6</ele><time>2016-08-28T14:39:52Z</time></trkpt>
<trkpt lat="46.23428" lon="7.29719"><ele>689.8</ele><time>2016-08-28T14:39:53Z</time></trkpt>
<trkpt lat="46.23429" lon="7.29716"><ele>690.2</ele><time>2016-08-28T14:39:55Z</time></trkpt>
<trkpt lat="46.23431" lon="7.29713"><ele>690.4</ele><time>2016-08-28T14:39:57Z</time></trkpt>
<trkpt lat="46.23433" lon="7.29709"><ele>690.6</ele><time>2016-08-28T14:39:59Z</time></trkpt>
<trkpt lat="46.23435" lon="7.29706"><ele>691</ele><time>2016-08-28T14:40:01Z</time></trkpt>
<trkpt lat="46.23436" lon="7.29702"><ele>691.2</ele><time>2016-08-28T14:40:03Z</time></trkpt>
<trkpt lat="46.23438" lon="7.29699"><ele>691.6</ele><time>2016-08-28T14:40:05Z</time></trkpt>
<trkpt lat="46.2344" lon="7.29696"><ele>691.8</ele><time>2016-08-28T14:40:07Z</time></trkpt>
<trkpt lat="46.2344" lon="7.29694"><ele>692</ele><time>2016-08-28T14:40:08Z</time></trkpt>
<trkpt lat="46.23441" lon="7.29692"><ele>692</ele><time>2016-08-28T14:40:09Z</time></trkpt>
<trkpt lat="46.23444" lon="7.29687"><ele>692.4</ele><time>2016-08-28T14:40:12Z</time></trkpt>
<trkpt lat="46.23444" lon="7.29686"><ele>692.4</ele><time>2016-08-28T14:40:13Z</time></trkpt>
<trkpt lat="46.23446" lon="7.29683"><ele>692.8</ele><time>2016-08-28T14:40:15Z</time></trkpt>
<trkpt lat="46.23445" lon="7.29678"><ele>693</ele><time>2016-08-28T14:40:17Z</time></trkpt>
<trkpt lat="46.23444" lon="7.29673"><ele>693.2</ele><time>2016-08-28T14:40:19Z</time></trkpt>
<trkpt lat="46.23443" lon="7.29668"><ele>693.4</ele><time>2016-08-28T14:40:21Z</time></trkpt>
<trkpt lat="46.23441" lon="7.29663"><ele>693.6</ele><time>2016-08-28T14:40:23Z</time></trkpt>
<trkpt lat="46.2344" lon="7.29658"><ele>693.8</ele><time>2016-08-28T14:40:25Z</time></trkpt>
<trkpt lat="46.23439" lon="7.29653"><ele>694</ele><time>2016-08-28T14:40:27Z</time></trkpt>
<trkpt lat="46.23438" lon="7.29648"><ele>694.2</ele><time>2016-08-28T14:40:29Z</time></trkpt>
<trkpt lat="46.23437" lon="7.29643"><ele>694.6</ele><time>2016-08-28T14:40:31Z</time></trkpt>
<trkpt lat="46.23437" lon="7.2964"><ele>694.6</ele><time>2016-08-28T14:40:32Z</time></trkpt>
<trkpt lat="46.23436" lon="7.29638"><ele>694.8</ele><time>2016-08-28T14:40:33Z</time></trkpt>
<trkpt lat="46.23435" lon="7.29633"><ele>695</ele><time>2016-08-28T14:40:35Z</time></trkpt>
<trkpt lat="46.23434" lon="7.29628"><ele>695.2</ele><time>2016-08-28T14:40:37Z</time></trkpt>
<trkpt lat="46.23433" lon="7.29623"><ele>695.4</ele><time>2016-08-28T14:40:39Z</time></trkpt>
<trkpt lat="46.23433" lon="7.2962"><ele>695.6</ele><time>2016-08-28T14:40:40Z</time></trkpt>
<trkpt lat="46.23432" lon="7.29618"><ele>695.8</ele><time>2016-08-28T14:40:41Z</time></trkpt>
<trkpt lat="46.23431" lon="7.29612"><ele>696</ele><time>2016-08-28T14:40:43Z</time></trkpt>
<trkpt lat="46.2343" lon="7.29607"><ele>696.2</ele><time>2016-08-28T14:40:45Z</time></trkpt>
<trkpt lat="46.23429" lon="7.29602"><ele>696.4</ele><time>2016-08-28T14:40:47Z</time></trkpt>
<trkpt lat="46.23428" lon="7.29596"><ele>696.8</ele><time>2016-08-28T14:40:49Z</time></trkpt>
<trkpt lat="46.23427" lon="7.29579"><ele>696.8</ele><time>2016-08-28T14:40:50Z</time></trkpt>
<trkpt lat="46.23429" lon="7.29581"><ele>697</ele><time>2016-08-28T14:40:51Z</time></trkpt>
<trkpt lat="46.23431" lon="7.29586"><ele>697</ele><time>2016-08-28T14:40:52Z</time></trkpt>
<trkpt lat="46.23431" lon="7.29584"><ele>697.2</ele><time>2016-08-28T14:40:53Z</time></trkpt>
<trkpt lat="46.23432" lon="7.29582"><ele>697.4</ele><time>2016-08-28T14:40:54Z</time></trkpt>
<trkpt lat="46.23432" lon="7.2958"><ele>697.4</ele><time>2016-08-28T14:40:55Z</time></trkpt>
<trkpt lat="46.23432" lon="7.29576"><ele>697.8</ele><time>2016-08-28T14:40:57Z</time></trkpt>
<trkpt lat="46.23432" lon="7.29571"><ele>698</ele><time>2016-08-28T14:40:59Z</time></trkpt>
<trkpt lat="46.23432" lon="7.29567"><ele>698.4</ele><time>2016-08-28T14:41:01Z</time></trkpt>
<trkpt lat="46.23432" lon="7.29563"><ele>698.6</ele><time>2016-08-28T14:41:03Z</time></trkpt>
<trkpt lat="46.23432" lon="7.29558"><ele>698.8</ele><time>2016-08-28T14:41:05Z</time></trkpt>
<trkpt lat="46.23432" lon="7.29554"><ele>699.2</ele><time>2016-08-28T14:41:07Z</time></trkpt>
<trkpt lat="46.23432" lon="7.29549"><ele>699.4</ele><time>2016-08-28T14:41:09Z</time></trkpt>
<trkpt lat="46.23433" lon="7.29545"><ele>699.8</ele><time>2016-08-28T14:41:11Z</time></trkpt>
<trkpt lat="46.23433" lon="7.29541"><ele>700</ele><time>2016-08-28T14:41:13Z</time></trkpt>
<trkpt lat="46.23433" lon="7.29536"><ele>700.2</ele><time>2016-08-28T14:41:15Z</time></trkpt>
<trkpt lat="46.23433" lon="7.29534"><ele>700.4</ele><time>2016-08-28T14:41:16Z</time></trkpt>
<trkpt lat="46.23433" lon="7.29532"><ele>700.6</ele><time>2016-08-28T14:41:17Z</time></trkpt>
<trkpt lat="46.23433" lon="7.29528"><ele>700.8</ele><time>2016-08-28T14:41:19Z</time></trkpt>
<trkpt lat="46.23433" lon="7.29523"><ele>701.2</ele><time>2016-08-28T14:41:21Z</time></trkpt>
<trkpt lat="46.23433" lon="7.29521"><ele>701.2</ele><time>2016-08-28T14:41:22Z</time></trkpt>
<trkpt lat="46.23433" lon="7.29519"><ele>701.4</ele><time>2016-08-28T14:41:23Z</time></trkpt>
<trkpt lat="46.23434" lon="7.29515"><ele>701.6</ele><time>2016-08-28T14:41:25Z</time></trkpt>
<trkpt lat="46.23434" lon="7.2951"><ele>702</ele><time>2016-08-28T14:41:27Z</time></trkpt>
<trkpt lat="46.23434" lon="7.29506"><ele>702.2</ele><time>2016-08-28T14:41:29Z</time></trkpt>
<trkpt lat="46.23435" lon="7.29502"><ele>702.4</ele><time>2016-08-28T14:41:31Z</time></trkpt>
<trkpt lat="46.23435" lon="7.29498"><ele>702.8</ele><time>2016-08-28T14:41:33Z</time></trkpt>
<trkpt lat="46.23435" lon="7.29493"><ele>703</ele><time>2016-08-28T14:41:35Z</time></trkpt>
<trkpt lat="46.23436" lon="7.29489"><ele>703.4</ele><time>2016-08-28T14:41:37Z</time></trkpt>
<trkpt lat="46.23436" lon="7.29487"><ele>703.4</ele><time>2016-08-28T14:41:38Z</time></trkpt>
<trkpt lat="46.23436" lon="7.29485"><ele>703.6</ele><time>2016-08-28T14:41:39Z</time></trkpt>
<trkpt lat="46.23436" lon="7.2948"><ele>703.8</ele><time>2016-08-28T14:41:41Z</time></trkpt>
<trkpt lat="46.23436" lon="7.29476"><ele>704.2</ele><time>2016-08-28T14:41:43Z</time></trkpt>
<trkpt lat="46.23437" lon="7.29472"><ele>704.4</ele><time>2016-08-28T14:41:45Z</time></trkpt>
<trkpt lat="46.23437" lon="7.29468"><ele>704.8</ele><time>2016-08-28T14:41:47Z</time></trkpt>
<trkpt lat="46.23437" lon="7.29463"><ele>705</ele><time>2016-08-28T14:41:49Z</time></trkpt>
<trkpt lat="46.23438" lon="7.29459"><ele>705.4</ele><time>2016-08-28T14:41:51Z</time></trkpt>
<trkpt lat="46.23438" lon="7.29455"><ele>705.6</ele><time>2016-08-28T14:41:53Z</time></trkpt>
<trkpt lat="46.23438" lon="7.29451"><ele>706</ele><time>2016-08-28T14:41:55Z</time></trkpt>
<trkpt lat="46.23437" lon="7.29446"><ele>706.2</ele><time>2016-08-28T14:41:57Z</time></trkpt>
<trkpt lat="46.23436" lon="7.29442"><ele>706.4</ele><time>2016-08-28T14:41:59Z</time></trkpt>
<trkpt lat="46.23436" lon="7.29438"><ele>706.8</ele><time>2016-08-28T14:42:01Z</time></trkpt>
<trkpt lat="46.23435" lon="7.29434"><ele>707</ele><time>2016-08-28T14:42:03Z</time></trkpt>
<trkpt lat="46.23435" lon="7.2943"><ele>707.4</ele><time>2016-08-28T14:42:05Z</time></trkpt>
<trkpt lat="46.23434" lon="7.29427"><ele>707.4</ele><time>2016-08-28T14:42:06Z</time></trkpt>
<trkpt lat="46.23434" lon="7.29425"><ele>707.6</ele><time>2016-08-28T14:42:07Z</time></trkpt>
<trkpt lat="46.23433" lon="7.29421"><ele>708</ele><time>2016-08-28T14:42:09Z</time></trkpt>
<trkpt lat="46.23433" lon="7.29417"><ele>708.2</ele><time>2016-08-28T14:42:11Z</time></trkpt>
<trkpt lat="46.23432" lon="7.29413"><ele>708.6</ele><time>2016-08-28T14:42:13Z</time></trkpt>
<trkpt lat="46.23432" lon="7.29409"><ele>708.8</ele><time>2016-08-28T14:42:15Z</time></trkpt>
<trkpt lat="46.23431" lon="7.29404"><ele>709.2</ele><time>2016-08-28T14:42:17Z</time></trkpt>
<trkpt lat="46.23431" lon="7.294"><ele>709.4</ele><time>2016-08-28T14:42:19Z</time></trkpt>
<trkpt lat="46.2343" lon="7.29396"><ele>709.6</ele><time>2016-08-28T14:42:21Z</time></trkpt>
<trkpt lat="46.23429" lon="7.29392"><ele>710</ele><time>2016-08-28T14:42:23Z</time></trkpt>
<trkpt lat="46.23429" lon="7.2939"><ele>710.2</ele><time>2016-08-28T14:42:24Z</time></trkpt>
<trkpt lat="46.23429" lon="7.29388"><ele>710.2</ele><time>2016-08-28T14:42:25Z</time></trkpt>
<trkpt lat="46.23427" lon="7.29384"><ele>710.6</ele><time>2016-08-28T14:42:27Z</time></trkpt>
<trkpt lat="46.23427" lon="7.29382"><ele>710.8</ele><time>2016-08-28T14:42:28Z</time></trkpt>
<trkpt lat="46.23426" lon="7.2938"><ele>710.8</ele><time>2016-08-28T14:42:29Z</time></trkpt>
<trkpt lat="46.23425" lon="7.29376"><ele>711.2</ele><time>2016-08-28T14:42:31Z</time></trkpt>
<trkpt lat="46.23424" lon="7.29373"><ele>711.4</ele><time>2016-08-28T14:42:33Z</time></trkpt>
<trkpt lat="46.23422" lon="7.29369"><ele>711.8</ele><time>2016-08-28T14:42:35Z</time></trkpt>
<trkpt lat="46.23421" lon="7.29365"><ele>712</ele><time>2016-08-28T14:42:37Z</time></trkpt>
<trkpt lat="46.2342" lon="7.29361"><ele>712.4</ele><time>2016-08-28T14:42:39Z</time></trkpt>
<trkpt lat="46.23419" lon="7.29357"><ele>712.6</ele><time>2016-08-28T14:42:41Z</time></trkpt>
<trkpt lat="46.23418" lon="7.29354"><ele>713</ele><time>2016-08-28T14:42:43Z</time></trkpt>
<trkpt lat="46.23416" lon="7.2935"><ele>713.2</ele><time>2016-08-28T14:42:45Z</time></trkpt>
<trkpt lat="46.23415" lon="7.29346"><ele>713.6</ele><time>2016-08-28T14:42:47Z</time></trkpt>
<trkpt lat="46.23414" lon="7.29342"><ele>713.8</ele><time>2016-08-28T14:42:49Z</time></trkpt>
<trkpt lat="46.23413" lon="7.29339"><ele>714.2</ele><time>2016-08-28T14:42:51Z</time></trkpt>
<trkpt lat="46.23412" lon="7.29335"><ele>714.4</ele><time>2016-08-28T14:42:53Z</time></trkpt>
<trkpt lat="46.23411" lon="7.29333"><ele>714.6</ele><time>2016-08-28T14:42:54Z</time></trkpt>
<trkpt lat="46.2341" lon="7.29331"><ele>714.8</ele><time>2016-08-28T14:42:55Z</time></trkpt>
<trkpt lat="46.2341" lon="7.29329"><ele>715</ele><time>2016-08-28T14:42:56Z</time></trkpt>
<trkpt lat="46.23409" lon="7.29327"><ele>715</ele><time>2016-08-28T14:42:57Z</time></trkpt>
<trkpt lat="46.23408" lon="7.29323"><ele>715.4</ele><time>2016-08-28T14:42:59Z</time></trkpt>
<trkpt lat="46.23407" lon="7.29318"><ele>715.6</ele><time>2016-08-28T14:43:01Z</time></trkpt>
<trkpt lat="46.23407" lon="7.29314"><ele>715.8</ele><time>2016-08-28T14:43:03Z</time></trkpt>
<trkpt lat="46.23406" lon="7.2931"><ele>716.2</ele><time>2016-08-28T14:43:05Z</time></trkpt>
<trkpt lat="46.23405" lon="7.29305"><ele>716.4</ele><time>2016-08-28T14:43:07Z</time></trkpt>
<trkpt lat="46.23404" lon="7.29301"><ele>716.6</ele><time>2016-08-28T14:43:09Z</time></trkpt>
<trkpt lat="46.23403" lon="7.29297"><ele>717</ele><time>2016-08-28T14:43:11Z</time></trkpt>
<trkpt lat="46.23402" lon="7.29292"><ele>717.2</ele><time>2016-08-28T14:43:13Z</time></trkpt>
<trkpt lat="46.23401" lon="7.29288"><ele>717.4</ele><time>2016-08-28T14:43:15Z</time></trkpt>
<trkpt lat="46.234" lon="7.29284"><ele>717.8</ele><time>2016-08-28T14:43:17Z</time></trkpt>
<trkpt lat="46.23399" lon="7.29279"><ele>718</ele><time>2016-08-28T14:43:19Z</time></trkpt>
<trkpt lat="46.23398" lon="7.29275"><ele>718.2</ele><time>2016-08-28T14:43:21Z</time></trkpt>
<trkpt lat="46.23398" lon="7.29273"><ele>718.4</ele><time>2016-08-28T14:43:22Z</time></trkpt>
<trkpt lat="46.23398" lon="7.2927"><ele>718.4</ele><time>2016-08-28T14:43:23Z</time></trkpt>
<trkpt lat="46.23397" lon="7.29266"><ele>718.8</ele><time>2016-08-28T14:43:25Z</time></trkpt>
<trkpt lat="46.23396" lon="7.29262"><ele>719</ele><time>2016-08-28T14:43:27Z</time></trkpt>
<trkpt lat="46.23395" lon="7.29257"><ele>719.2</ele><time>2016-08-28T14:43:29Z</time></trkpt>
<trkpt lat="46.23394" lon="7.29252"><ele>719.4</ele><time>2016-08-28T14:43:31Z</time></trkpt>
<trkpt lat="46.23393" lon="7.29248"><ele>719.6</ele><time>2016-08-28T14:43:33Z</time></trkpt>
<trkpt lat="46.23393" lon="7.29245"><ele>719.8</ele><time>2016-08-28T14:43:34Z</time></trkpt>
<trkpt lat="46.23393" lon="7.29243"><ele>719.8</ele><time>2016-08-28T14:43:35Z</time></trkpt>
<trkpt lat="46.23392" lon="7.29239"><ele>720.2</ele><time>2016-08-28T14:43:37Z</time></trkpt>
<trkpt lat="46.23391" lon="7.29234"><ele>720.4</ele><time>2016-08-28T14:43:39Z</time></trkpt>
<trkpt lat="46.2339" lon="7.29229"><ele>720.6</ele><time>2016-08-28T14:43:41Z</time></trkpt>
<trkpt lat="46.23389" lon="7.29225"><ele>721</ele><time>2016-08-28T14:43:43Z</time></trkpt>
<trkpt lat="46.23389" lon="7.2922"><ele>721.2</ele><time>2016-08-28T14:43:45Z</time></trkpt>
<trkpt lat="46.23388" lon="7.29216"><ele>721.4</ele><time>2016-08-28T14:43:47Z</time></trkpt>
<trkpt lat="46.23387" lon="7.29211"><ele>721.6</ele><time>2016-08-28T14:43:49Z</time></trkpt>
<trkpt lat="46.23386" lon="7.29206"><ele>721.8</ele><time>2016-08-28T14:43:51Z</time></trkpt>
<trkpt lat="46.23385" lon="7.29202"><ele>722</ele><time>2016-08-28T14:43:53Z</time></trkpt>
<trkpt lat="46.23385" lon="7.29196"><ele>722.2</ele><time>2016-08-28T14:43:55Z</time></trkpt>
<trkpt lat="46.23384" lon="7.29191"><ele>722.4</ele><time>2016-08-28T14:43:57Z</time></trkpt>
<trkpt lat="46.23383" lon="7.29185"><ele>722.6</ele><time>2016-08-28T14:43:59Z</time></trkpt>
<trkpt lat="46.23382" lon="7.29179"><ele>722.8</ele><time>2016-08-28T14:44:01Z</time></trkpt>
<trkpt lat="46.23382" lon="7.29174"><ele>723.2</ele><time>2016-08-28T14:44:03Z</time></trkpt>
<trkpt lat="46.23381" lon="7.29168"><ele>723.4</ele><time>2016-08-28T14:44:05Z</time></trkpt>
<trkpt lat="46.2338" lon="7.29162"><ele>723.6</ele><time>2016-08-28T14:44:07Z</time></trkpt>
<trkpt lat="46.23379" lon="7.29157"><ele>723.8</ele><time>2016-08-28T14:44:09Z</time></trkpt>
<trkpt lat="46.23379" lon="7.29151"><ele>724</ele><time>2016-08-28T14:44:11Z</time></trkpt>
<trkpt lat="46.23378" lon="7.29146"><ele>724.2</ele><time>2016-08-28T14:44:13Z</time></trkpt>
<trkpt lat="46.23377" lon="7.2914"><ele>724.4</ele><time>2016-08-28T14:44:15Z</time></trkpt>
<trkpt lat="46.23377" lon="7.29137"><ele>724.6</ele><time>2016-08-28T14:44:16Z</time></trkpt>
<trkpt lat="46.23376" lon="7.29135"><ele>724.6</ele><time>2016-08-28T14:44:17Z</time></trkpt>
<trkpt lat="46.23376" lon="7.29133"><ele>724.8</ele><time>2016-08-28T14:44:18Z</time></trkpt>
<trkpt lat="46.23375" lon="7.2913"><ele>725</ele><time>2016-08-28T14:44:19Z</time></trkpt>
<trkpt lat="46.23374" lon="7.29126"><ele>725.2</ele><time>2016-08-28T14:44:21Z</time></trkpt>
<trkpt lat="46.23373" lon="7.29122"><ele>725.6</ele><time>2016-08-28T14:44:23Z</time></trkpt>
<trkpt lat="46.23372" lon="7.29117"><ele>725.8</ele><time>2016-08-28T14:44:25Z</time></trkpt>
<trkpt lat="46.23371" lon="7.29113"><ele>726.2</ele><time>2016-08-28T14:44:27Z</time></trkpt>
<trkpt lat="46.2337" lon="7.29108"><ele>726.4</ele><time>2016-08-28T14:44:29Z</time></trkpt>
<trkpt lat="46.23369" lon="7.29104"><ele>726.8</ele><time>2016-08-28T14:44:31Z</time></trkpt>
<trkpt lat="46.23368" lon="7.291"><ele>727.2</ele><time>2016-08-28T14:44:33Z</time></trkpt>
<trkpt lat="46.23367" lon="7.29095"><ele>727.4</ele><time>2016-08-28T14:44:35Z</time></trkpt>
<trkpt lat="46.23366" lon="7.29091"><ele>727.6</ele><time>2016-08-28T14:44:37Z</time></trkpt>
<trkpt lat="46.23365" lon="7.29086"><ele>727.8</ele><time>2016-08-28T14:44:39Z</time></trkpt>
<trkpt lat="46.23364" lon="7.29082"><ele>727.8</ele><time>2016-08-28T14:44:41Z</time></trkpt>
<trkpt lat="46.23363" lon="7.29078"><ele>728</ele><time>2016-08-28T14:44:43Z</time></trkpt>
<trkpt lat="46.23362" lon="7.29073"><ele>728.2</ele><time>2016-08-28T14:44:45Z</time></trkpt>
<trkpt lat="46.23361" lon="7.29071"><ele>728.2</ele><time>2016-08-28T14:44:46Z</time></trkpt>
<trkpt lat="46.23361" lon="7.29068"><ele>728.4</ele><time>2016-08-28T14:44:47Z</time></trkpt>
<trkpt lat="46.2336" lon="7.29063"><ele>728.6</ele><time>2016-08-28T14:44:49Z</time></trkpt>
<trkpt lat="46.23359" lon="7.29058"><ele>728.8</ele><time>2016-08-28T14:44:51Z</time></trkpt>
<trkpt lat="46.23358" lon="7.29053"><ele>729</ele><time>2016-08-28T14:44:53Z</time></trkpt>
<trkpt lat="46.23357" lon="7.29048"><ele>729.2</ele><time>2016-08-28T14:44:55Z</time></trkpt>
<trkpt lat="46.23356" lon="7.29043"><ele>729.4</ele><time>2016-08-28T14:44:57Z</time></trkpt>
<trkpt lat="46.23355" lon="7.29038"><ele>729.6</ele><time>2016-08-28T14:44:59Z</time></trkpt>
<trkpt lat="46.23354" lon="7.29033"><ele>730</ele><time>2016-08-28T14:45:01Z</time></trkpt>
<trkpt lat="46.23353" lon="7.29028"><ele>730.2</ele><time>2016-08-28T14:45:03Z</time></trkpt>
<trkpt lat="46.23352" lon="7.29023"><ele>730.4</ele><time>2016-08-28T14:45:05Z</time></trkpt>
<trkpt lat="46.23351" lon="7.29018"><ele>730.6</ele><time>2016-08-28T14:45:07Z</time></trkpt>
<trkpt lat="46.2335" lon="7.29013"><ele>730.8</ele><time>2016-08-28T14:45:09Z</time></trkpt>
<trkpt lat="46.2335" lon="7.29011"><ele>731</ele><time>2016-08-28T14:45:10Z</time></trkpt>
<trkpt lat="46.23349" lon="7.29008"><ele>731</ele><time>2016-08-28T14:45:11Z</time></trkpt>
<trkpt lat="46.23348" lon="7.29003"><ele>731.2</ele><time>2016-08-28T14:45:13Z</time></trkpt>
<trkpt lat="46.23346" lon="7.28998"><ele>731.4</ele><time>2016-08-28T14:45:15Z</time></trkpt>
<trkpt lat="46.23345" lon="7.28993"><ele>731.6</ele><time>2016-08-28T14:45:17Z</time></trkpt>
<trkpt lat="46.23343" lon="7.28988"><ele>731.6</ele><time>2016-08-28T14:45:19Z</time></trkpt>
<trkpt lat="46.23342" lon="7.28983"><ele>731.6</ele><time>2016-08-28T14:45:21Z</time></trkpt>
<trkpt lat="46.2334" lon="7.28978"><ele>731.8</ele><time>2016-08-28T14:45:23Z</time></trkpt>
<trkpt lat="46.23339" lon="7.28973"><ele>731.8</ele><time>2016-08-28T14:45:25Z</time></trkpt>
<trkpt lat="46.23338" lon="7.28968"><ele>731.8</ele><time>2016-08-28T14:45:27Z</time></trkpt>
<trkpt lat="46.23336" lon="7.28963"><ele>731.8</ele><time>2016-08-28T14:45:29Z</time></trkpt>
<trkpt lat="46.23338" lon="7.28958"><ele>733.2</ele><time>2016-08-28T14:45:31Z</time></trkpt>
<trkpt lat="46.23338" lon="7.28958"><ele>733.2</ele><time>2016-08-28T14:46:46Z</time></trkpt>
<trkpt lat="46.23341" lon="7.28958"><ele>734.4</ele><time>2016-08-28T14:46:47Z</time></trkpt>
<trkpt lat="46.23342" lon="7.28965"><ele>734.4</ele><time>2016-08-28T14:46:49Z</time></trkpt>
<trkpt lat="46.23344" lon="7.28972"><ele>734.4</ele><time>2016-08-28T14:46:51Z</time></trkpt>
<trkpt lat="46.23346" lon="7.28979"><ele>734.6</ele><time>2016-08-28T14:46:53Z</time></trkpt>
<trkpt lat="46.23347" lon="7.28982"><ele>734.6</ele><time>2016-08-28T14:46:54Z</time></trkpt>
<trkpt lat="46.23347" lon="7.28985"><ele>734.6</ele><time>2016-08-28T14:46:55Z</time></trkpt>
<trkpt lat="46.23349" lon="7.28992"><ele>734.8</ele><time>2016-08-28T14:46:57Z</time></trkpt>
<trkpt lat="46.23351" lon="7.28999"><ele>735</ele><time>2016-08-28T14:46:59Z</time></trkpt>
<trkpt lat="46.23352" lon="7.29006"><ele>735.4</ele><time>2016-08-28T14:47:01Z</time></trkpt>
<trkpt lat="46.23354" lon="7.29012"><ele>735.6</ele><time>2016-08-28T14:47:03Z</time></trkpt>
<trkpt lat="46.23356" lon="7.29019"><ele>735.8</ele><time>2016-08-28T14:47:05Z</time></trkpt>
<trkpt lat="46.23358" lon="7.29025"><ele>736</ele><time>2016-08-28T14:47:07Z</time></trkpt>
<trkpt lat="46.23361" lon="7.29031"><ele>736.2</ele><time>2016-08-28T14:47:09Z</time></trkpt>
<trkpt lat="46.23363" lon="7.29038"><ele>736.4</ele><time>2016-08-28T14:47:11Z</time></trkpt>
<trkpt lat="46.23366" lon="7.29044"><ele>736.6</ele><time>2016-08-28T14:47:13Z</time></trkpt>
<trkpt lat="46.23368" lon="7.2905"><ele>736.8</ele><time>2016-08-28T14:47:15Z</time></trkpt>
<trkpt lat="46.2337" lon="7.29056"><ele>737</ele><time>2016-08-28T14:47:17Z</time></trkpt>
<trkpt lat="46.23373" lon="7.29062"><ele>737.2</ele><time>2016-08-28T14:47:19Z</time></trkpt>
<trkpt lat="46.23375" lon="7.29069"><ele>737.6</ele><time>2016-08-28T14:47:21Z</time></trkpt>
<trkpt lat="46.23377" lon="7.29072"><ele>737.6</ele><time>2016-08-28T14:47:22Z</time></trkpt>
<trkpt lat="46.23378" lon="7.29075"><ele>737.8</ele><time>2016-08-28T14:47:23Z</time></trkpt>
<trkpt lat="46.23379" lon="7.29078"><ele>737.8</ele><time>2016-08-28T14:47:24Z</time></trkpt>
<trkpt lat="46.2338" lon="7.29081"><ele>738</ele><time>2016-08-28T14:47:25Z</time></trkpt>
<trkpt lat="46.23383" lon="7.29088"><ele>738.2</ele><time>2016-08-28T14:47:27Z</time></trkpt>
<trkpt lat="46.23386" lon="7.29094"><ele>738.4</ele><time>2016-08-28T14:47:29Z</time></trkpt>
<trkpt lat="46.23388" lon="7.29101"><ele>738.6</ele><time>2016-08-28T14:47:31Z</time></trkpt>
<trkpt lat="46.23391" lon="7.29108"><ele>738.8</ele><time>2016-08-28T14:47:33Z</time></trkpt>
<trkpt lat="46.23393" lon="7.29114"><ele>739</ele><time>2016-08-28T14:47:35Z</time></trkpt>
<trkpt lat="46.23396" lon="7.29121"><ele>739.2</ele><time>2016-08-28T14:47:37Z</time></trkpt>
<trkpt lat="46.23399" lon="7.29127"><ele>739.4</ele><time>2016-08-28T14:47:39Z</time></trkpt>
<trkpt lat="46.23401" lon="7.29134"><ele>739.6</ele><time>2016-08-28T14:47:41Z</time></trkpt>
<trkpt lat="46.23403" lon="7.29137"><ele>739.8</ele><time>2016-08-28T14:47:42Z</time></trkpt>
<trkpt lat="46.23404" lon="7.2914"><ele>739.8</ele><time>2016-08-28T14:47:43Z</time></trkpt>
<trkpt lat="46.23407" lon="7.29145"><ele>740.2</ele><time>2016-08-28T14:47:45Z</time></trkpt>
<trkpt lat="46.23409" lon="7.29151"><ele>740.4</ele><time>2016-08-28T14:47:47Z</time></trkpt>
<trkpt lat="46.23412" lon="7.29156"><ele>740.6</ele><time>2016-08-28T14:47:49Z</time></trkpt>
<trkpt lat="46.23414" lon="7.29161"><ele>740.8</ele><time>2016-08-28T14:47:51Z</time></trkpt>
<trkpt lat="46.23417" lon="7.29167"><ele>741</ele><time>2016-08-28T14:47:53Z</time></trkpt>
<trkpt lat="46.2342" lon="7.29172"><ele>741.2</ele><time>2016-08-28T14:47:55Z</time></trkpt>
<trkpt lat="46.23422" lon="7.29177"><ele>741.4</ele><time>2016-08-28T14:47:57Z</time></trkpt>
<trkpt lat="46.23425" lon="7.29182"><ele>741.6</ele><time>2016-08-28T14:47:59Z</time></trkpt>
<trkpt lat="46.23426" lon="7.29185"><ele>741.8</ele><time>2016-08-28T14:48:00Z</time></trkpt>
<trkpt lat="46.23427" lon="7.29188"><ele>741.8</ele><time>2016-08-28T14:48:01Z</time></trkpt>
<trkpt lat="46.23429" lon="7.2919"><ele>742</ele><time>2016-08-28T14:48:02Z</time></trkpt>
<trkpt lat="46.2343" lon="7.29192"><ele>742.2</ele><time>2016-08-28T14:48:03Z</time></trkpt>
<trkpt lat="46.23432" lon="7.29196"><ele>742.4</ele><time>2016-08-28T14:48:05Z</time></trkpt>
<trkpt lat="46.23434" lon="7.29199"><ele>742.8</ele><time>2016-08-28T14:48:07Z</time></trkpt>
<trkpt lat="46.23436" lon="7.29202"><ele>743</ele><time>2016-08-28T14:48:09Z</time></trkpt>
<trkpt lat="46.23438" lon="7.29206"><ele>743.4</ele><time>2016-08-28T14:48:11Z</time></trkpt>
<trkpt lat="46.2344" lon="7.29209"><ele>743.6</ele><time>2016-08-28T14:48:13Z</time></trkpt>
<trkpt lat="46.23442" lon="7.29213"><ele>744</ele><time>2016-08-28T14:48:15Z</time></trkpt>
<trkpt lat="46.23444" lon="7.29216"><ele>744.2</ele><time>2016-08-28T14:48:17Z</time></trkpt>
<trkpt lat="46.23446" lon="7.29219"><ele>744.6</ele><time>2016-08-28T14:48:19Z</time></trkpt>
<trkpt lat="46.23448" lon="7.29223"><ele>744.8</ele><time>2016-08-28T14:48:21Z</time></trkpt>
<trkpt lat="46.2345" lon="7.29226"><ele>745.2</ele><time>2016-08-28T14:48:23Z</time></trkpt>
<trkpt lat="46.23453" lon="7.29229"><ele>745.4</ele><time>2016-08-28T14:48:25Z</time></trkpt>
<trkpt lat="46.23455" lon="7.29233"><ele>745.6</ele><time>2016-08-28T14:48:27Z</time></trkpt>
<trkpt lat="46.23457" lon="7.29236"><ele>746</ele><time>2016-08-28T14:48:29Z</time></trkpt>
<trkpt lat="46.23459" lon="7.2924"><ele>746.2</ele><time>2016-08-28T14:48:31Z</time></trkpt>
<trkpt lat="46.23461" lon="7.29243"><ele>746.6</ele><time>2016-08-28T14:48:33Z</time></trkpt>
<trkpt lat="46.23464" lon="7.29246"><ele>746.8</ele><time>2016-08-28T14:48:35Z</time></trkpt>
<trkpt lat="46.23466" lon="7.29249"><ele>747.2</ele><time>2016-08-28T14:48:37Z</time></trkpt>
<trkpt lat="46.23469" lon="7.29252"><ele>747.4</ele><time>2016-08-28T14:48:39Z</time></trkpt>
<trkpt lat="46.23471" lon="7.29256"><ele>747.6</ele><time>2016-08-28T14:48:41Z</time></trkpt>
<trkpt lat="46.23473" lon="7.29259"><ele>748</ele><time>2016-08-28T14:48:43Z</time></trkpt>
<trkpt lat="46.23475" lon="7.2926"><ele>748</ele><time>2016-08-28T14:48:44Z</time></trkpt>
<trkpt lat="46.23476" lon="7.29262"><ele>748.2</ele><time>2016-08-28T14:48:45Z</time></trkpt>
<trkpt lat="46.23478" lon="7.29265"><ele>748.6</ele><time>2016-08-28T14:48:47Z</time></trkpt>
<trkpt lat="46.23481" lon="7.29268"><ele>748.8</ele><time>2016-08-28T14:48:49Z</time></trkpt>
<trkpt lat="46.23483" lon="7.29272"><ele>749.2</ele><time>2016-08-28T14:48:51Z</time></trkpt>
<trkpt lat="46.23486" lon="7.29275"><ele>749.4</ele><time>2016-08-28T14:48:53Z</time></trkpt>
<trkpt lat="46.23488" lon="7.29278"><ele>749.6</ele><time>2016-08-28T14:48:55Z</time></trkpt>
<trkpt lat="46.2349" lon="7.29281"><ele>750</ele><time>2016-08-28T14:48:57Z</time></trkpt>
<trkpt lat="46.23493" lon="7.29284"><ele>750.2</ele><time>2016-08-28T14:48:59Z</time></trkpt>
<trkpt lat="46.23495" lon="7.29287"><ele>750.6</ele><time>2016-08-28T14:49:01Z</time></trkpt>
<trkpt lat="46.23497" lon="7.2929"><ele>750.8</ele><time>2016-08-28T14:49:03Z</time></trkpt>
<trkpt lat="46.235" lon="7.29292"><ele>751.2</ele><time>2016-08-28T14:49:05Z</time></trkpt>
<trkpt lat="46.23501" lon="7.29294"><ele>751.2</ele><time>2016-08-28T14:49:06Z</time></trkpt>
<trkpt lat="46.23502" lon="7.29295"><ele>751.4</ele><time>2016-08-28T14:49:07Z</time></trkpt>
<trkpt lat="46.23504" lon="7.29298"><ele>751.8</ele><time>2016-08-28T14:49:09Z</time></trkpt>
<trkpt lat="46.23506" lon="7.293"><ele>752</ele><time>2016-08-28T14:49:11Z</time></trkpt>
<trkpt lat="46.23508" lon="7.29303"><ele>752.2</ele><time>2016-08-28T14:49:13Z</time></trkpt>
<trkpt lat="46.23511" lon="7.29306"><ele>752.6</ele><time>2016-08-28T14:49:15Z</time></trkpt>
<trkpt lat="46.23513" lon="7.29308"><ele>752.8</ele><time>2016-08-28T14:49:17Z</time></trkpt>
<trkpt lat="46.23515" lon="7.29311"><ele>753</ele><time>2016-08-28T14:49:19Z</time></trkpt>
<trkpt lat="46.23517" lon="7.29314"><ele>753.4</ele><time>2016-08-28T14:49:21Z</time></trkpt>
<trkpt lat="46.2352" lon="7.29316"><ele>753.6</ele><time>2016-08-28T14:49:23Z</time></trkpt>
<trkpt lat="46.23522" lon="7.29319"><ele>753.8</ele><time>2016-08-28T14:49:25Z</time></trkpt>
<trkpt lat="46.23524" lon="7.29322"><ele>754.2</ele><time>2016-08-28T14:49:27Z</time></trkpt>
<trkpt lat="46.23526" lon="7.29324"><ele>754.4</ele><time>2016-08-28T14:49:29Z</time></trkpt>
<trkpt lat="46.23528" lon="7.29327"><ele>754.6</ele><time>2016-08-28T14:49:31Z</time></trkpt>
<trkpt lat="46.23531" lon="7.29329"><ele>754.8</ele><time>2016-08-28T14:49:33Z</time></trkpt>
<trkpt lat="46.23534" lon="7.29331"><ele>755.2</ele><time>2016-08-28T14:49:35Z</time></trkpt>
<trkpt lat="46.23537" lon="7.29333"><ele>755.4</ele><time>2016-08-28T14:49:37Z</time></trkpt>
<trkpt lat="46.23539" lon="7.29335"><ele>755.6</ele><time>2016-08-28T14:49:39Z</time></trkpt>
<trkpt lat="46.23542" lon="7.29337"><ele>755.8</ele><time>2016-08-28T14:49:41Z</time></trkpt>
<trkpt lat="46.23545" lon="7.29339"><ele>756</ele><time>2016-08-28T14:49:43Z</time></trkpt>
<trkpt lat="46.23547" lon="7.29341"><ele>756.2</ele><time>2016-08-28T14:49:45Z</time></trkpt>
<trkpt lat="46.23549" lon="7.29342"><ele>756.4</ele><time>2016-08-28T14:49:46Z</time></trkpt>
<trkpt lat="46.23549" lon="7.2934"><ele>756.6</ele><time>2016-08-28T14:49:47Z</time></trkpt>
<trkpt lat="46.23549" lon="7.29335"><ele>756.8</ele><time>2016-08-28T14:49:49Z</time></trkpt>
<trkpt lat="46.23548" lon="7.2933"><ele>757</ele><time>2016-08-28T14:49:51Z</time></trkpt>
<trkpt lat="46.23548" lon="7.29324"><ele>757.2</ele><time>2016-08-28T14:49:53Z</time></trkpt>
<trkpt lat="46.23548" lon="7.29319"><ele>757.4</ele><time>2016-08-28T14:49:55Z</time></trkpt>
<trkpt lat="46.23548" lon="7.29317"><ele>757.6</ele><time>2016-08-28T14:49:56Z</time></trkpt>
<trkpt lat="46.23546" lon="7.29315"><ele>757.6</ele><time>2016-08-28T14:49:57Z</time></trkpt>
<trkpt lat="46.23543" lon="7.29311"><ele>757.6</ele><time>2016-08-28T14:49:59Z</time></trkpt>
<trkpt lat="46.23539" lon="7.29307"><ele>757.8</ele><time>2016-08-28T14:50:01Z</time></trkpt>
<trkpt lat="46.23536" lon="7.29303"><ele>757.8</ele><time>2016-08-28T14:50:03Z</time></trkpt>
<trkpt lat="46.23532" lon="7.29299"><ele>757.8</ele><time>2016-08-28T14:50:05Z</time></trkpt>
<trkpt lat="46.23529" lon="7.29296"><ele>758</ele><time>2016-08-28T14:50:07Z</time></trkpt>
<trkpt lat="46.23525" lon="7.29292"><ele>758</ele><time>2016-08-28T14:50:09Z</time></trkpt>
<trkpt lat="46.23522" lon="7.29288"><ele>758</ele><time>2016-08-28T14:50:11Z</time></trkpt>
<trkpt lat="46.23518" lon="7.29284"><ele>758.2</ele><time>2016-08-28T14:50:13Z</time></trkpt>
<trkpt lat="46.23515" lon="7.29281"><ele>758.2</ele><time>2016-08-28T14:50:15Z</time></trkpt>
<trkpt lat="46.23511" lon="7.29277"><ele>758.2</ele><time>2016-08-28T14:50:17Z</time></trkpt>
<trkpt lat="46.23509" lon="7.2927"><ele>758.4</ele><time>2016-08-28T14:50:19Z</time></trkpt>
<trkpt lat="46.23506" lon="7.29264"><ele>758.4</ele><time>2016-08-28T14:50:21Z</time></trkpt>
<trkpt lat="46.23503" lon="7.29257"><ele>758.6</ele><time>2016-08-28T14:50:23Z</time></trkpt>
<trkpt lat="46.23501" lon="7.29251"><ele>758.6</ele><time>2016-08-28T14:50:25Z</time></trkpt>
<trkpt lat="46.23498" lon="7.29244"><ele>758.6</ele><time>2016-08-28T14:50:27Z</time></trkpt>
<trkpt lat="46.23496" lon="7.29238"><ele>758.8</ele><time>2016-08-28T14:50:29Z</time></trkpt>
<trkpt lat="46.23493" lon="7.29231"><ele>758.8</ele><time>2016-08-28T14:50:31Z</time></trkpt>
<trkpt lat="46.2349" lon="7.29225"><ele>758.8</ele><time>2016-08-28T14:50:33Z</time></trkpt>
<trkpt lat="46.23488" lon="7.29218"><ele>759</ele><time>2016-08-28T14:50:35Z</time></trkpt>
<trkpt lat="46.23485" lon="7.29208"><ele>759</ele><time>2016-08-28T14:50:37Z</time></trkpt>
<trkpt lat="46.23481" lon="7.29197"><ele>759</ele><time>2016-08-28T14:50:39Z</time></trkpt>
<trkpt lat="46.23478" lon="7.29187"><ele>759.2</ele><time>2016-08-28T14:50:41Z</time></trkpt>
<trkpt lat="46.23474" lon="7.29176"><ele>759.2</ele><time>2016-08-28T14:50:43Z</time></trkpt>
<trkpt lat="46.23471" lon="7.29165"><ele>759.4</ele><time>2016-08-28T14:50:45Z</time></trkpt>
<trkpt lat="46.23468" lon="7.29155"><ele>759.4</ele><time>2016-08-28T14:50:47Z</time></trkpt>
<trkpt lat="46.23465" lon="7.29146"><ele>759.4</ele><time>2016-08-28T14:50:49Z</time></trkpt>
<trkpt lat="46.23463" lon="7.29137"><ele>759.6</ele><time>2016-08-28T14:50:51Z</time></trkpt>
<trkpt lat="46.23461" lon="7.29128"><ele>759.6</ele><time>2016-08-28T14:50:53Z</time></trkpt>
<trkpt lat="46.23459" lon="7.29119"><ele>759.6</ele><time>2016-08-28T14:50:55Z</time></trkpt>
<trkpt lat="46.23457" lon="7.2911"><ele>759.8</ele><time>2016-08-28T14:50:57Z</time></trkpt>
<trkpt lat="46.23455" lon="7.29102"><ele>759.8</ele><time>2016-08-28T14:50:59Z</time></trkpt>
<trkpt lat="46.23452" lon="7.29093"><ele>759.8</ele><time>2016-08-28T14:51:01Z</time></trkpt>
<trkpt lat="46.23451" lon="7.29084"><ele>760</ele><time>2016-08-28T14:51:03Z</time></trkpt>
<trkpt lat="46.2345" lon="7.29075"><ele>760</ele><time>2016-08-28T14:51:05Z</time></trkpt>
<trkpt lat="46.23449" lon="7.29066"><ele>760.2</ele><time>2016-08-28T14:51:07Z</time></trkpt>
<trkpt lat="46.23448" lon="7.29057"><ele>760.2</ele><time>2016-08-28T14:51:09Z</time></trkpt>
<trkpt lat="46.23447" lon="7.29049"><ele>760.2</ele><time>2016-08-28T14:51:11Z</time></trkpt>
<trkpt lat="46.23446" lon="7.2904"><ele>760.4</ele><time>2016-08-28T14:51:13Z</time></trkpt>
<trkpt lat="46.23445" lon="7.29031"><ele>760.4</ele><time>2016-08-28T14:51:15Z</time></trkpt>
<trkpt lat="46.23445" lon="7.29026"><ele>760.4</ele><time>2016-08-28T14:51:16Z</time></trkpt>
<trkpt lat="46.23445" lon="7.29023"><ele>760.4</ele><time>2016-08-28T14:51:17Z</time></trkpt>
<trkpt lat="46.23445" lon="7.29016"><ele>760.6</ele><time>2016-08-28T14:51:19Z</time></trkpt>
<trkpt lat="46.23445" lon="7.29013"><ele>760.6</ele><time>2016-08-28T14:51:20Z</time></trkpt>
<trkpt lat="46.23445" lon="7.2901"><ele>760.6</ele><time>2016-08-28T14:51:21Z</time></trkpt>
<trkpt lat="46.23445" lon="7.29004"><ele>760.8</ele><time>2016-08-28T14:51:23Z</time></trkpt>
<trkpt lat="46.23445" lon="7.28997"><ele>761</ele><time>2016-08-28T14:51:25Z</time></trkpt>
<trkpt lat="46.23445" lon="7.28991"><ele>761.2</ele><time>2016-08-28T14:51:27Z</time></trkpt>
<trkpt lat="46.23445" lon="7.28984"><ele>761.4</ele><time>2016-08-28T14:51:29Z</time></trkpt>
<trkpt lat="46.23445" lon="7.28978"><ele>761.4</ele><time>2016-08-28T14:51:31Z</time></trkpt>
<trkpt lat="46.23445" lon="7.28971"><ele>761.6</ele><time>2016-08-28T14:51:33Z</time></trkpt>
<trkpt lat="46.23445" lon="7.28965"><ele>761.8</ele><time>2016-08-28T14:51:35Z</time></trkpt>
<trkpt lat="46.23445" lon="7.28961"><ele>761.8</ele><time>2016-08-28T14:51:36Z</time></trkpt>
<trkpt lat="46.23447" lon="7.28961"><ele>762</ele><time>2016-08-28T14:51:37Z</time></trkpt>
<trkpt lat="46.23452" lon="7.2896"><ele>762.2</ele><time>2016-08-28T14:51:39Z</time></trkpt>
<trkpt lat="46.23457" lon="7.28959"><ele>762.2</ele><time>2016-08-28T14:51:41Z</time></trkpt>
<trkpt lat="46.23462" lon="7.28958"><ele>762.4</ele><time>2016-08-28T14:51:43Z</time></trkpt>
<trkpt lat="46.23467" lon="7.28957"><ele>762.6</ele><time>2016-08-28T14:51:45Z</time></trkpt>
<trkpt lat="46.23472" lon="7.28956"><ele>762.8</ele><time>2016-08-28T14:51:47Z</time></trkpt>
<trkpt lat="46.23477" lon="7.28955"><ele>763</ele><time>2016-08-28T14:51:49Z</time></trkpt>
<trkpt lat="46.23481" lon="7.28955"><ele>763.2</ele><time>2016-08-28T14:51:51Z</time></trkpt>
<trkpt lat="46.23486" lon="7.28954"><ele>763.2</ele><time>2016-08-28T14:51:53Z</time></trkpt>
<trkpt lat="46.23489" lon="7.28953"><ele>763.4</ele><time>2016-08-28T14:51:54Z</time></trkpt>
<trkpt lat="46.2349" lon="7.28951"><ele>763.4</ele><time>2016-08-28T14:51:55Z</time></trkpt>
<trkpt lat="46.23492" lon="7.28944"><ele>763.6</ele><time>2016-08-28T14:51:57Z</time></trkpt>
<trkpt lat="46.23495" lon="7.28938"><ele>763.8</ele><time>2016-08-28T14:51:59Z</time></trkpt>
<trkpt lat="46.23497" lon="7.28932"><ele>764</ele><time>2016-08-28T14:52:01Z</time></trkpt>
<trkpt lat="46.23496" lon="7.28927"><ele>763.8</ele><time>2016-08-28T14:52:03Z</time></trkpt>
<trkpt lat="46.23495" lon="7.28922"><ele>763.8</ele><time>2016-08-28T14:52:05Z</time></trkpt>
<trkpt lat="46.23494" lon="7.28918"><ele>763.8</ele><time>2016-08-28T14:52:07Z</time></trkpt>
<trkpt lat="46.23493" lon="7.28913"><ele>763.6</ele><time>2016-08-28T14:52:09Z</time></trkpt>
<trkpt lat="46.23491" lon="7.28908"><ele>763.6</ele><time>2016-08-28T14:52:11Z</time></trkpt>
<trkpt lat="46.2349" lon="7.28903"><ele>763.6</ele><time>2016-08-28T14:52:13Z</time></trkpt>
<trkpt lat="46.23489" lon="7.28898"><ele>763.4</ele><time>2016-08-28T14:52:15Z</time></trkpt>
<trkpt lat="46.23485" lon="7.28891"><ele>763.4</ele><time>2016-08-28T14:52:17Z</time></trkpt>
<trkpt lat="46.23482" lon="7.28885"><ele>763.2</ele><time>2016-08-28T14:52:19Z</time></trkpt>
<trkpt lat="46.23478" lon="7.28878"><ele>763.2</ele><time>2016-08-28T14:52:21Z</time></trkpt>
<trkpt lat="46.23474" lon="7.28872"><ele>763.2</ele><time>2016-08-28T14:52:23Z</time></trkpt>
<trkpt lat="46.2347" lon="7.28865"><ele>763</ele><time>2016-08-28T14:52:25Z</time></trkpt>
<trkpt lat="46.23466" lon="7.28858"><ele>763</ele><time>2016-08-28T14:52:27Z</time></trkpt>
<trkpt lat="46.23463" lon="7.28852"><ele>763</ele><time>2016-08-28T14:52:29Z</time></trkpt>
<trkpt lat="46.23459" lon="7.28845"><ele>762.8</ele><time>2016-08-28T14:52:31Z</time></trkpt>
<trkpt lat="46.23455" lon="7.28839"><ele>762.8</ele><time>2016-08-28T14:52:33Z</time></trkpt>
<trkpt lat="46.23451" lon="7.28833"><ele>762.8</ele><time>2016-08-28T14:52:35Z</time></trkpt>
<trkpt lat="46.23446" lon="7.28827"><ele>762.6</ele><time>2016-08-28T14:52:37Z</time></trkpt>
<trkpt lat="46.23442" lon="7.28821"><ele>762.6</ele><time>2016-08-28T14:52:39Z</time></trkpt>
<trkpt lat="46.23438" lon="7.28814"><ele>762.6</ele><time>2016-08-28T14:52:41Z</time></trkpt>
<trkpt lat="46.23434" lon="7.28808"><ele>762.4</ele><time>2016-08-28T14:52:43Z</time></trkpt>
<trkpt lat="46.2343" lon="7.28802"><ele>762.4</ele><time>2016-08-28T14:52:45Z</time></trkpt>
<trkpt lat="46.23426" lon="7.28796"><ele>762.2</ele><time>2016-08-28T14:52:47Z</time></trkpt>
<trkpt lat="46.2342" lon="7.28784"><ele>762.2</ele><time>2016-08-28T14:52:49Z</time></trkpt>
<trkpt lat="46.23414" lon="7.28771"><ele>762.2</ele><time>2016-08-28T14:52:51Z</time></trkpt>
<trkpt lat="46.23408" lon="7.28759"><ele>762</ele><time>2016-08-28T14:52:53Z</time></trkpt>
<trkpt lat="46.23402" lon="7.28747"><ele>762</ele><time>2016-08-28T14:52:55Z</time></trkpt>
<trkpt lat="46.234" lon="7.28741"><ele>762</ele><time>2016-08-28T14:52:56Z</time></trkpt>
<trkpt lat="46.23396" lon="7.28733"><ele>762</ele><time>2016-08-28T14:52:57Z</time></trkpt>
<trkpt lat="46.23388" lon="7.28718"><ele>761.8</ele><time>2016-08-28T14:52:59Z</time></trkpt>
<trkpt lat="46.23381" lon="7.28703"><ele>761.8</ele><time>2016-08-28T14:53:01Z</time></trkpt>
<trkpt lat="46.23377" lon="7.28695"><ele>761.8</ele><time>2016-08-28T14:53:02Z</time></trkpt>
<trkpt lat="46.23375" lon="7.28686"><ele>761.8</ele><time>2016-08-28T14:53:03Z</time></trkpt>
<trkpt lat="46.23373" lon="7.28675"><ele>761.6</ele><time>2016-08-28T14:53:04Z</time></trkpt>
<trkpt lat="46.23371" lon="7.28665"><ele>761.4</ele><time>2016-08-28T14:53:05Z</time></trkpt>
<trkpt lat="46.23367" lon="7.28645"><ele>760.8</ele><time>2016-08-28T14:53:07Z</time></trkpt>
<trkpt lat="46.23364" lon="7.28625"><ele>760.2</ele><time>2016-08-28T14:53:09Z</time></trkpt>
<trkpt lat="46.23366" lon="7.28603"><ele>759.6</ele><time>2016-08-28T14:53:11Z</time></trkpt>
<trkpt lat="46.23368" lon="7.28581"><ele>759</ele><time>2016-08-28T14:53:13Z</time></trkpt>
<trkpt lat="46.2337" lon="7.28559"><ele>758.4</ele><time>2016-08-28T14:53:15Z</time></trkpt>
<trkpt lat="46.2337" lon="7.28536"><ele>757.8</ele><time>2016-08-28T14:53:17Z</time></trkpt>
<trkpt lat="46.23371" lon="7.28512"><ele>757.2</ele><time>2016-08-28T14:53:19Z</time></trkpt>
<trkpt lat="46.23371" lon="7.28489"><ele>756.6</ele><time>2016-08-28T14:53:21Z</time></trkpt>
<trkpt lat="46.23374" lon="7.28466"><ele>756</ele><time>2016-08-28T14:53:23Z</time></trkpt>
<trkpt lat="46.23384" lon="7.28435"><ele>755.2</ele><time>2016-08-28T14:53:26Z</time></trkpt>
<trkpt lat="46.23386" lon="7.28422"><ele>755</ele><time>2016-08-28T14:53:27Z</time></trkpt>
<trkpt lat="46.23387" lon="7.28396"><ele>754.4</ele><time>2016-08-28T14:53:29Z</time></trkpt>
<trkpt lat="46.23389" lon="7.28369"><ele>753.8</ele><time>2016-08-28T14:53:31Z</time></trkpt>
<trkpt lat="46.23386" lon="7.28357"><ele>753.6</ele><time>2016-08-28T14:53:32Z</time></trkpt>
<trkpt lat="46.23384" lon="7.28345"><ele>753.2</ele><time>2016-08-28T14:53:33Z</time></trkpt>
<trkpt lat="46.23378" lon="7.28321"><ele>752.4</ele><time>2016-08-28T14:53:35Z</time></trkpt>
<trkpt lat="46.23373" lon="7.28297"><ele>751.8</ele><time>2016-08-28T14:53:37Z</time></trkpt>
<trkpt lat="46.23367" lon="7.2827"><ele>751</ele><time>2016-08-28T14:53:39Z</time></trkpt>
<trkpt lat="46.23361" lon="7.28243"><ele>750.4</ele><time>2016-08-28T14:53:41Z</time></trkpt>
<trkpt lat="46.23359" lon="7.2823"><ele>750</ele><time>2016-08-28T14:53:42Z</time></trkpt>
<trkpt lat="46.23358" lon="7.28214"><ele>749.6</ele><time>2016-08-28T14:53:43Z</time></trkpt>
<trkpt lat="46.23357" lon="7.28199"><ele>749.2</ele><time>2016-08-28T14:53:44Z</time></trkpt>
<trkpt lat="46.23357" lon="7.28184"><ele>748.6</ele><time>2016-08-28T14:53:45Z</time></trkpt>
<trkpt lat="46.23356" lon="7.28153"><ele>747.2</ele><time>2016-08-28T14:53:47Z</time></trkpt>
<trkpt lat="46.23348" lon="7.28127"><ele>745.8</ele><time>2016-08-28T14:53:49Z</time></trkpt>
<trkpt lat="46.23344" lon="7.28114"><ele>745.2</ele><time>2016-08-28T14:53:50Z</time></trkpt>
<trkpt lat="46.23341" lon="7.28101"><ele>744.8</ele><time>2016-08-28T14:53:51Z</time></trkpt>
<trkpt lat="46.23337" lon="7.28088"><ele>744.6</ele><time>2016-08-28T14:53:52Z</time></trkpt>
<trkpt lat="46.23333" lon="7.28078"><ele>744.4</ele><time>2016-08-28T14:53:53Z</time></trkpt>
<trkpt lat="46.23326" lon="7.28059"><ele>743.8</ele><time>2016-08-28T14:53:55Z</time></trkpt>
<trkpt lat="46.23314" lon="7.2805"><ele>743.2</ele><time>2016-08-28T14:53:57Z</time></trkpt>
<trkpt lat="46.23301" lon="7.28041"><ele>742.6</ele><time>2016-08-28T14:53:59Z</time></trkpt>
<trkpt lat="46.23289" lon="7.28033"><ele>742.2</ele><time>2016-08-28T14:54:01Z</time></trkpt>
<trkpt lat="46.23283" lon="7.28028"><ele>741.8</ele><time>2016-08-28T14:54:02Z</time></trkpt>
<trkpt lat="46.23282" lon="7.28025"><ele>741</ele><time>2016-08-28T14:54:03Z</time></trkpt>
<trkpt lat="46.23282" lon="7.28022"><ele>740.2</ele><time>2016-08-28T14:54:04Z</time></trkpt>
<trkpt lat="46.23286" lon="7.28018"><ele>739.2</ele><time>2016-08-28T14:54:05Z</time></trkpt>
<trkpt lat="46.23297" lon="7.28012"><ele>737.4</ele><time>2016-08-28T14:54:07Z</time></trkpt>
<trkpt lat="46.23302" lon="7.28008"><ele>736.6</ele><time>2016-08-28T14:54:08Z</time></trkpt>
<trkpt lat="46.23307" lon="7.28005"><ele>735.8</ele><time>2016-08-28T14:54:09Z</time></trkpt>
<trkpt lat="46.23304" lon="7.2799"><ele>734.2</ele><time>2016-08-28T14:54:11Z</time></trkpt>
<trkpt lat="46.23291" lon="7.2798"><ele>732.8</ele><time>2016-08-28T14:54:13Z</time></trkpt>
<trkpt lat="46.23277" lon="7.27971"><ele>731.4</ele><time>2016-08-28T14:54:15Z</time></trkpt>
<trkpt lat="46.2327" lon="7.27966"><ele>730.6</ele><time>2016-08-28T14:54:16Z</time></trkpt>
<trkpt lat="46.2326" lon="7.27962"><ele>730</ele><time>2016-08-28T14:54:17Z</time></trkpt>
<trkpt lat="46.2324" lon="7.27954"><ele>728.6</ele><time>2016-08-28T14:54:19Z</time></trkpt>
<trkpt lat="46.2322" lon="7.27946"><ele>727.2</ele><time>2016-08-28T14:54:21Z</time></trkpt>
<trkpt lat="46.23202" lon="7.27928"><ele>725.8</ele><time>2016-08-28T14:54:23Z</time></trkpt>
<trkpt lat="46.23192" lon="7.27918"><ele>725.2</ele><time>2016-08-28T14:54:24Z</time></trkpt>
<trkpt lat="46.23186" lon="7.27907"><ele>723.8</ele><time>2016-08-28T14:54:25Z</time></trkpt>
<trkpt lat="46.23179" lon="7.27895"><ele>722.6</ele><time>2016-08-28T14:54:26Z</time></trkpt>
<trkpt lat="46.23176" lon="7.27882"><ele>721.2</ele><time>2016-08-28T14:54:27Z</time></trkpt>
<trkpt lat="46.23171" lon="7.27856"><ele>718.6</ele><time>2016-08-28T14:54:29Z</time></trkpt>
<trkpt lat="46.23172" lon="7.27843"><ele>717.4</ele><time>2016-08-28T14:54:30Z</time></trkpt>
<trkpt lat="46.23173" lon="7.27831"><ele>715.4</ele><time>2016-08-28T14:54:31Z</time></trkpt>
<trkpt lat="46.23174" lon="7.27805"><ele>711.4</ele><time>2016-08-28T14:54:33Z</time></trkpt>
<trkpt lat="46.23173" lon="7.27798"><ele>709.6</ele><time>2016-08-28T14:54:34Z</time></trkpt>
<trkpt lat="46.2317" lon="7.27797"><ele>707.6</ele><time>2016-08-28T14:54:35Z</time></trkpt>
<trkpt lat="46.23167" lon="7.27796"><ele>706.6</ele><time>2016-08-28T14:54:36Z</time></trkpt>
<trkpt lat="46.23162" lon="7.27799"><ele>705.8</ele><time>2016-08-28T14:54:37Z</time></trkpt>
<trkpt lat="46.23152" lon="7.27806"><ele>704</ele><time>2016-08-28T14:54:39Z</time></trkpt>
<trkpt lat="46.23147" lon="7.2781"><ele>703.2</ele><time>2016-08-28T14:54:40Z</time></trkpt>
<trkpt lat="46.23141" lon="7.27811"><ele>702.4</ele><time>2016-08-28T14:54:41Z</time></trkpt>
<trkpt lat="46.23128" lon="7.27812"><ele>702</ele><time>2016-08-28T14:54:43Z</time></trkpt>
<trkpt lat="46.23117" lon="7.27801"><ele>701.4</ele><time>2016-08-28T14:54:45Z</time></trkpt>
<trkpt lat="46.23106" lon="7.27789"><ele>701</ele><time>2016-08-28T14:54:47Z</time></trkpt>
<trkpt lat="46.23096" lon="7.27777"><ele>700.6</ele><time>2016-08-28T14:54:49Z</time></trkpt>
<trkpt lat="46.2309" lon="7.2777"><ele>700.4</ele><time>2016-08-28T14:54:50Z</time></trkpt>
<trkpt lat="46.23085" lon="7.27762"><ele>700.2</ele><time>2016-08-28T14:54:51Z</time></trkpt>
<trkpt lat="46.23076" lon="7.27746"><ele>699.8</ele><time>2016-08-28T14:54:53Z</time></trkpt>
<trkpt lat="46.23066" lon="7.27729"><ele>699.4</ele><time>2016-08-28T14:54:55Z</time></trkpt>
<trkpt lat="46.23061" lon="7.27721"><ele>699.2</ele><time>2016-08-28T14:54:56Z</time></trkpt>
<trkpt lat="46.23054" lon="7.27711"><ele>698.8</ele><time>2016-08-28T14:54:57Z</time></trkpt>
<trkpt lat="46.23047" lon="7.27702"><ele>698.6</ele><time>2016-08-28T14:54:58Z</time></trkpt>
<trkpt lat="46.2304" lon="7.27693"><ele>698.2</ele><time>2016-08-28T14:54:59Z</time></trkpt>
<trkpt lat="46.23026" lon="7.27675"><ele>697.2</ele><time>2016-08-28T14:55:01Z</time></trkpt>
<trkpt lat="46.23007" lon="7.27655"><ele>696</ele><time>2016-08-28T14:55:03Z</time></trkpt>
<trkpt lat="46.22988" lon="7.27636"><ele>693</ele><time>2016-08-28T14:55:05Z</time></trkpt>
<trkpt lat="46.22966" lon="7.27613"><ele>689.8</ele><time>2016-08-28T14:55:07Z</time></trkpt>
<trkpt lat="46.22945" lon="7.2759"><ele>686.6</ele><time>2016-08-28T14:55:09Z</time></trkpt>
<trkpt lat="46.22927" lon="7.27562"><ele>684.6</ele><time>2016-08-28T14:55:11Z</time></trkpt>
<trkpt lat="46.22909" lon="7.27533"><ele>682.8</ele><time>2016-08-28T14:55:13Z</time></trkpt>
<trkpt lat="46.22887" lon="7.27516"><ele>680.8</ele><time>2016-08-28T14:55:15Z</time></trkpt>
<trkpt lat="46.22865" lon="7.27499"><ele>678.8</ele><time>2016-08-28T14:55:17Z</time></trkpt>
<trkpt lat="46.22842" lon="7.27482"><ele>676.6</ele><time>2016-08-28T14:55:19Z</time></trkpt>
<trkpt lat="46.22831" lon="7.27474"><ele>675.6</ele><time>2016-08-28T14:55:20Z</time></trkpt>
<trkpt lat="46.22819" lon="7.27466"><ele>673.8</ele><time>2016-08-28T14:55:21Z</time></trkpt>
<trkpt lat="46.22796" lon="7.27445"><ele>669.8</ele><time>2016-08-28T14:55:23Z</time></trkpt>
<trkpt lat="46.22773" lon="7.27424"><ele>665.8</ele><time>2016-08-28T14:55:25Z</time></trkpt>
<trkpt lat="46.22748" lon="7.27404"><ele>661.8</ele><time>2016-08-28T14:55:27Z</time></trkpt>
<trkpt lat="46.22723" lon="7.27383"><ele>657.8</ele><time>2016-08-28T14:55:29Z</time></trkpt>
<trkpt lat="46.22704" lon="7.27371"><ele>653.6</ele><time>2016-08-28T14:55:31Z</time></trkpt>
<trkpt lat="46.22685" lon="7.2736"><ele>649.8</ele><time>2016-08-28T14:55:33Z</time></trkpt>
<trkpt lat="46.22676" lon="7.27354"><ele>647.8</ele><time>2016-08-28T14:55:34Z</time></trkpt>
<trkpt lat="46.22671" lon="7.27349"><ele>645.8</ele><time>2016-08-28T14:55:35Z</time></trkpt>
<trkpt lat="46.22672" lon="7.27345"><ele>643.8</ele><time>2016-08-28T14:55:36Z</time></trkpt>
<trkpt lat="46.22673" lon="7.27342"><ele>642.4</ele><time>2016-08-28T14:55:37Z</time></trkpt>
<trkpt lat="46.22684" lon="7.27344"><ele>639.8</ele><time>2016-08-28T14:55:39Z</time></trkpt>
<trkpt lat="46.22689" lon="7.27345"><ele>638.4</ele><time>2016-08-28T14:55:40Z</time></trkpt>
<trkpt lat="46.22694" lon="7.27341"><ele>637.2</ele><time>2016-08-28T14:55:41Z</time></trkpt>
<trkpt lat="46.22699" lon="7.27337"><ele>636.4</ele><time>2016-08-28T14:55:42Z</time></trkpt>
<trkpt lat="46.22701" lon="7.27329"><ele>635.8</ele><time>2016-08-28T14:55:43Z</time></trkpt>
<trkpt lat="46.22703" lon="7.2732"><ele>635</ele><time>2016-08-28T14:55:44Z</time></trkpt>
<trkpt lat="46.22701" lon="7.27312"><ele>634.4</ele><time>2016-08-28T14:55:45Z</time></trkpt>
<trkpt lat="46.22695" lon="7.27298"><ele>633.2</ele><time>2016-08-28T14:55:47Z</time></trkpt>
<trkpt lat="46.22689" lon="7.27284"><ele>631.8</ele><time>2016-08-28T14:55:49Z</time></trkpt>
<trkpt lat="46.22681" lon="7.27275"><ele>630.6</ele><time>2016-08-28T14:55:51Z</time></trkpt>
<trkpt lat="46.22672" lon="7.27266"><ele>629.2</ele><time>2016-08-28T14:55:53Z</time></trkpt>
<trkpt lat="46.22664" lon="7.27257"><ele>628</ele><time>2016-08-28T14:55:55Z</time></trkpt>
<trkpt lat="46.22655" lon="7.27248"><ele>626.8</ele><time>2016-08-28T14:55:57Z</time></trkpt>
<trkpt lat="46.22651" lon="7.27243"><ele>626.2</ele><time>2016-08-28T14:55:58Z</time></trkpt>
<trkpt lat="46.22644" lon="7.27234"><ele>625.6</ele><time>2016-08-28T14:55:59Z</time></trkpt>
<trkpt lat="46.2263" lon="7.27214"><ele>624.4</ele><time>2016-08-28T14:56:01Z</time></trkpt>
<trkpt lat="46.22616" lon="7.27194"><ele>623.2</ele><time>2016-08-28T14:56:03Z</time></trkpt>
<trkpt lat="46.22595" lon="7.27175"><ele>622.2</ele><time>2016-08-28T14:56:05Z</time></trkpt>
<trkpt lat="46.22574" lon="7.27157"><ele>619.6</ele><time>2016-08-28T14:56:07Z</time></trkpt>
<trkpt lat="46.22553" lon="7.27138"><ele>617.2</ele><time>2016-08-28T14:56:09Z</time></trkpt>
<trkpt lat="46.22543" lon="7.27129"><ele>615.8</ele><time>2016-08-28T14:56:10Z</time></trkpt>
<trkpt lat="46.22532" lon="7.27119"><ele>614.2</ele><time>2016-08-28T14:56:11Z</time></trkpt>
<trkpt lat="46.22513" lon="7.271"><ele>610.6</ele><time>2016-08-28T14:56:13Z</time></trkpt>
<trkpt lat="46.22494" lon="7.27081"><ele>607</ele><time>2016-08-28T14:56:15Z</time></trkpt>
<trkpt lat="46.22482" lon="7.27072"><ele>605.2</ele><time>2016-08-28T14:56:16Z</time></trkpt>
<trkpt lat="46.2247" lon="7.27063"><ele>603.6</ele><time>2016-08-28T14:56:17Z</time></trkpt>
<trkpt lat="46.22445" lon="7.27046"><ele>600.6</ele><time>2016-08-28T14:56:19Z</time></trkpt>
<trkpt lat="46.22422" lon="7.27027"><ele>597.6</ele><time>2016-08-28T14:56:21Z</time></trkpt>
<trkpt lat="46.22398" lon="7.27007"><ele>593.4</ele><time>2016-08-28T14:56:23Z</time></trkpt>
<trkpt lat="46.22377" lon="7.26984"><ele>589</ele><time>2016-08-28T14:56:25Z</time></trkpt>
<trkpt lat="46.22357" lon="7.2696"><ele>584.8</ele><time>2016-08-28T14:56:27Z</time></trkpt>
<trkpt lat="46.22338" lon="7.26941"><ele>582.2</ele><time>2016-08-28T14:56:29Z</time></trkpt>
<trkpt lat="46.22318" lon="7.26921"><ele>579.6</ele><time>2016-08-28T14:56:31Z</time></trkpt>
<trkpt lat="46.22312" lon="7.2691"><ele>578.4</ele><time>2016-08-28T14:56:32Z</time></trkpt>
<trkpt lat="46.22306" lon="7.26898"><ele>576.6</ele><time>2016-08-28T14:56:33Z</time></trkpt>
<trkpt lat="46.22301" lon="7.26886"><ele>574.6</ele><time>2016-08-28T14:56:34Z</time></trkpt>
<trkpt lat="46.22295" lon="7.26871"><ele>572.6</ele><time>2016-08-28T14:56:35Z</time></trkpt>
<trkpt lat="46.22284" lon="7.26842"><ele>568.6</ele><time>2016-08-28T14:56:37Z</time></trkpt>
<trkpt lat="46.22279" lon="7.26828"><ele>567.6</ele><time>2016-08-28T14:56:38Z</time></trkpt>
<trkpt lat="46.22271" lon="7.26814"><ele>566.6</ele><time>2016-08-28T14:56:39Z</time></trkpt>
<trkpt lat="46.22255" lon="7.26786"><ele>564.8</ele><time>2016-08-28T14:56:41Z</time></trkpt>
<trkpt lat="46.22236" lon="7.26767"><ele>563</ele><time>2016-08-28T14:56:43Z</time></trkpt>
<trkpt lat="46.22216" lon="7.26748"><ele>560.6</ele><time>2016-08-28T14:56:45Z</time></trkpt>
<trkpt lat="46.22204" lon="7.26744"><ele>558.2</ele><time>2016-08-28T14:56:47Z</time></trkpt>
<trkpt lat="46.22198" lon="7.26743"><ele>557</ele><time>2016-08-28T14:56:48Z</time></trkpt>
<trkpt lat="46.22193" lon="7.26741"><ele>555.8</ele><time>2016-08-28T14:56:49Z</time></trkpt>
<trkpt lat="46.22182" lon="7.26745"><ele>554</ele><time>2016-08-28T14:56:51Z</time></trkpt>
<trkpt lat="46.22171" lon="7.26751"><ele>552</ele><time>2016-08-28T14:56:53Z</time></trkpt>
<trkpt lat="46.22167" lon="7.26755"><ele>551</ele><time>2016-08-28T14:56:54Z</time></trkpt>
<trkpt lat="46.22163" lon="7.26759"><ele>550.6</ele><time>2016-08-28T14:56:55Z</time></trkpt>
<trkpt lat="46.22156" lon="7.26766"><ele>549.8</ele><time>2016-08-28T14:56:57Z</time></trkpt>
<trkpt lat="46.22146" lon="7.26772"><ele>549.2</ele><time>2016-08-28T14:56:59Z</time></trkpt>
<trkpt lat="46.22141" lon="7.26774"><ele>548.8</ele><time>2016-08-28T14:57:00Z</time></trkpt>
<trkpt lat="46.22138" lon="7.26776"><ele>548.6</ele><time>2016-08-28T14:57:01Z</time></trkpt>
<trkpt lat="46.22133" lon="7.2678"><ele>548</ele><time>2016-08-28T14:57:03Z</time></trkpt>
<trkpt lat="46.22128" lon="7.26784"><ele>547.2</ele><time>2016-08-28T14:57:05Z</time></trkpt>
<trkpt lat="46.22123" lon="7.26788"><ele>547.4</ele><time>2016-08-28T14:57:07Z</time></trkpt>
<trkpt lat="46.22118" lon="7.26792"><ele>547.4</ele><time>2016-08-28T14:57:09Z</time></trkpt>
<trkpt lat="46.22113" lon="7.26796"><ele>547.6</ele><time>2016-08-28T14:57:11Z</time></trkpt>
<trkpt lat="46.22108" lon="7.268"><ele>547.6</ele><time>2016-08-28T14:57:13Z</time></trkpt>
<trkpt lat="46.22103" lon="7.26804"><ele>547.8</ele><time>2016-08-28T14:57:15Z</time></trkpt>
<trkpt lat="46.221" lon="7.26806"><ele>547.8</ele><time>2016-08-28T14:57:16Z</time></trkpt>
<trkpt lat="46.22099" lon="7.26808"><ele>547.8</ele><time>2016-08-28T14:57:17Z</time></trkpt>
<trkpt lat="46.22095" lon="7.26811"><ele>547.8</ele><time>2016-08-28T14:57:19Z</time></trkpt>
<trkpt lat="46.22091" lon="7.26814"><ele>547.8</ele><time>2016-08-28T14:57:21Z</time></trkpt>
<trkpt lat="46.22088" lon="7.26817"><ele>548</ele><time>2016-08-28T14:57:23Z</time></trkpt>
<trkpt lat="46.22084" lon="7.2682"><ele>548</ele><time>2016-08-28T14:57:25Z</time></trkpt>
<trkpt lat="46.22081" lon="7.26824"><ele>548</ele><time>2016-08-28T14:57:27Z</time></trkpt>
<trkpt lat="46.22077" lon="7.26827"><ele>548</ele><time>2016-08-28T14:57:29Z</time></trkpt>
<trkpt lat="46.22074" lon="7.2683"><ele>548.2</ele><time>2016-08-28T14:57:31Z</time></trkpt>
<trkpt lat="46.22072" lon="7.26831"><ele>548.2</ele><time>2016-08-28T14:57:32Z</time></trkpt>
<trkpt lat="46.22072" lon="7.26832"><ele>548.2</ele><time>2016-08-28T14:57:33Z</time></trkpt>
<trkpt lat="46.22073" lon="7.26833"><ele>548.2</ele><time>2016-08-28T14:57:35Z</time></trkpt>
<trkpt lat="46.22073" lon="7.26833"><ele>548.2</ele><time>2016-08-28T14:57:37Z</time></trkpt>
<trkpt lat="46.22074" lon="7.26834"><ele>548.4</ele><time>2016-08-28T14:57:39Z</time></trkpt>
<trkpt lat="46.22075" lon="7.26834"><ele>548.4</ele><time>2016-08-28T14:57:41Z</time></trkpt>
<trkpt lat="46.22075" lon="7.26835"><ele>548.4</ele><time>2016-08-28T14:57:43Z</time></trkpt>
<trkpt lat="46.22076" lon="7.26835"><ele>548.4</ele><time>2016-08-28T14:57:44Z</time></trkpt>
<trkpt lat="46.22074" lon="7.26837"><ele>548.4</ele><time>2016-08-28T14:57:45Z</time></trkpt>
<trkpt lat="46.2207" lon="7.26839"><ele>548.6</ele><time>2016-08-28T14:57:47Z</time></trkpt>
<trkpt lat="46.22066" lon="7.26842"><ele>548.6</ele><time>2016-08-28T14:57:49Z</time></trkpt>
<trkpt lat="46.22063" lon="7.26845"><ele>548.6</ele><time>2016-08-28T14:57:51Z</time></trkpt>
<trkpt lat="46.22059" lon="7.26848"><ele>548.6</ele><time>2016-08-28T14:57:53Z</time></trkpt>
<trkpt lat="46.22055" lon="7.26851"><ele>548.8</ele><time>2016-08-28T14:57:55Z</time></trkpt>
<trkpt lat="46.22051" lon="7.26854"><ele>548.8</ele><time>2016-08-28T14:57:57Z</time></trkpt>
<trkpt lat="46.22047" lon="7.26856"><ele>548.8</ele><time>2016-08-28T14:57:59Z</time></trkpt>
<trkpt lat="46.22043" lon="7.26859"><ele>548.8</ele><time>2016-08-28T14:58:01Z</time></trkpt>
<trkpt lat="46.2204" lon="7.26862"><ele>549</ele><time>2016-08-28T14:58:03Z</time></trkpt>
<trkpt lat="46.22036" lon="7.26865"><ele>549</ele><time>2016-08-28T14:58:05Z</time></trkpt>
<trkpt lat="46.2203" lon="7.26866"><ele>549</ele><time>2016-08-28T14:58:07Z</time></trkpt>
<trkpt lat="46.22025" lon="7.26868"><ele>549</ele><time>2016-08-28T14:58:09Z</time></trkpt>
<trkpt lat="46.22019" lon="7.26869"><ele>549.2</ele><time>2016-08-28T14:58:11Z</time></trkpt>
<trkpt lat="46.22013" lon="7.26871"><ele>549.2</ele><time>2016-08-28T14:58:13Z</time></trkpt>
<trkpt lat="46.22011" lon="7.26871"><ele>549.2</ele><time>2016-08-28T14:58:14Z</time></trkpt>
<trkpt lat="46.22008" lon="7.26868"><ele>549.2</ele><time>2016-08-28T14:58:15Z</time></trkpt>
<trkpt lat="46.22005" lon="7.26861"><ele>549.2</ele><time>2016-08-28T14:58:17Z</time></trkpt>
<trkpt lat="46.22001" lon="7.26853"><ele>549.2</ele><time>2016-08-28T14:58:19Z</time></trkpt>
<trkpt lat="46.21997" lon="7.26846"><ele>549.4</ele><time>2016-08-28T14:58:21Z</time></trkpt>
<trkpt lat="46.21993" lon="7.26838"><ele>549.4</ele><time>2016-08-28T14:58:23Z</time></trkpt>
<trkpt lat="46.21989" lon="7.26831"><ele>549.4</ele><time>2016-08-28T14:58:25Z</time></trkpt>
<trkpt lat="46.21985" lon="7.26823"><ele>549.4</ele><time>2016-08-28T14:58:27Z</time></trkpt>
<trkpt lat="46.21983" lon="7.2682"><ele>549.6</ele><time>2016-08-28T14:58:28Z</time></trkpt>
<trkpt lat="46.21981" lon="7.26816"><ele>549.6</ele><time>2016-08-28T14:58:29Z</time></trkpt>
<trkpt lat="46.21977" lon="7.26808"><ele>549.6</ele><time>2016-08-28T14:58:31Z</time></trkpt>
<trkpt lat="46.21973" lon="7.268"><ele>549.6</ele><time>2016-08-28T14:58:33Z</time></trkpt>
<trkpt lat="46.2197" lon="7.26792"><ele>549.6</ele><time>2016-08-28T14:58:35Z</time></trkpt>
<trkpt lat="46.21966" lon="7.26784"><ele>549.8</ele><time>2016-08-28T14:58:37Z</time></trkpt>
<trkpt lat="46.21962" lon="7.26776"><ele>549.8</ele><time>2016-08-28T14:58:39Z</time></trkpt>
<trkpt lat="46.21958" lon="7.26768"><ele>549.8</ele><time>2016-08-28T14:58:41Z</time></trkpt>
<trkpt lat="46.21956" lon="7.26764"><ele>549.8</ele><time>2016-08-28T14:58:42Z</time></trkpt>
<trkpt lat="46.21954" lon="7.2676"><ele>549.8</ele><time>2016-08-28T14:58:43Z</time></trkpt>
<trkpt lat="46.21949" lon="7.26751"><ele>550</ele><time>2016-08-28T14:58:45Z</time></trkpt>
<trkpt lat="46.21945" lon="7.26742"><ele>550</ele><time>2016-08-28T14:58:47Z</time></trkpt>
<trkpt lat="46.2194" lon="7.26734"><ele>550</ele><time>2016-08-28T14:58:49Z</time></trkpt>
<trkpt lat="46.21936" lon="7.26725"><ele>550</ele><time>2016-08-28T14:58:51Z</time></trkpt>
<trkpt lat="46.21931" lon="7.26716"><ele>550.2</ele><time>2016-08-28T14:58:53Z</time></trkpt>
<trkpt lat="46.21929" lon="7.26712"><ele>550.2</ele><time>2016-08-28T14:58:54Z</time></trkpt>
<trkpt lat="46.21926" lon="7.26707"><ele>550.2</ele><time>2016-08-28T14:58:55Z</time></trkpt>
<trkpt lat="46.21921" lon="7.26697"><ele>550.2</ele><time>2016-08-28T14:58:57Z</time></trkpt>
<trkpt lat="46.21915" lon="7.26686"><ele>550.2</ele><time>2016-08-28T14:58:59Z</time></trkpt>
<trkpt lat="46.2191" lon="7.26676"><ele>550.4</ele><time>2016-08-28T14:59:01Z</time></trkpt>
<trkpt lat="46.21905" lon="7.26666"><ele>550.4</ele><time>2016-08-28T14:59:03Z</time></trkpt>
<trkpt lat="46.21899" lon="7.26656"><ele>550.4</ele><time>2016-08-28T14:59:05Z</time></trkpt>
<trkpt lat="46.21895" lon="7.26646"><ele>550.4</ele><time>2016-08-28T14:59:07Z</time></trkpt>
<trkpt lat="46.2189" lon="7.26636"><ele>550.6</ele><time>2016-08-28T14:59:09Z</time></trkpt>
<trkpt lat="46.21885" lon="7.26626"><ele>550.6</ele><time>2016-08-28T14:59:11Z</time></trkpt>
<trkpt lat="46.2188" lon="7.26615"><ele>550.6</ele><time>2016-08-28T14:59:13Z</time></trkpt>
<trkpt lat="46.21876" lon="7.26605"><ele>550.6</ele><time>2016-08-28T14:59:15Z</time></trkpt>
<trkpt lat="46.21873" lon="7.266"><ele>550.6</ele><time>2016-08-28T14:59:16Z</time></trkpt>
<trkpt lat="46.21872" lon="7.26596"><ele>550.8</ele><time>2016-08-28T14:59:17Z</time></trkpt>
<trkpt lat="46.21871" lon="7.26592"><ele>550.8</ele><time>2016-08-28T14:59:18Z</time></trkpt>
<trkpt lat="46.21869" lon="7.26587"><ele>550.8</ele><time>2016-08-28T14:59:19Z</time></trkpt>
<trkpt lat="46.21866" lon="7.26579"><ele>550.8</ele><time>2016-08-28T14:59:21Z</time></trkpt>
<trkpt lat="46.21864" lon="7.2657"><ele>551</ele><time>2016-08-28T14:59:23Z</time></trkpt>
<trkpt lat="46.21861" lon="7.26562"><ele>551</ele><time>2016-08-28T14:59:25Z</time></trkpt>
<trkpt lat="46.21858" lon="7.26553"><ele>551.2</ele><time>2016-08-28T14:59:27Z</time></trkpt>
<trkpt lat="46.21857" lon="7.26549"><ele>551.2</ele><time>2016-08-28T14:59:28Z</time></trkpt>
<trkpt lat="46.21853" lon="7.26549"><ele>551.2</ele><time>2016-08-28T14:59:29Z</time></trkpt>
<trkpt lat="46.21845" lon="7.26551"><ele>551.4</ele><time>2016-08-28T14:59:31Z</time></trkpt>
<trkpt lat="46.21838" lon="7.26553"><ele>551.4</ele><time>2016-08-28T14:59:33Z</time></trkpt>
<trkpt lat="46.2183" lon="7.26555"><ele>551.6</ele><time>2016-08-28T14:59:35Z</time></trkpt>
<trkpt lat="46.21822" lon="7.26557"><ele>551.6</ele><time>2016-08-28T14:59:37Z</time></trkpt>
<trkpt lat="46.21819" lon="7.26558"><ele>551.8</ele><time>2016-08-28T14:59:38Z</time></trkpt>
<trkpt lat="46.21816" lon="7.26554"><ele>551.8</ele><time>2016-08-28T14:59:39Z</time></trkpt>
<trkpt lat="46.21811" lon="7.26545"><ele>551.8</ele><time>2016-08-28T14:59:41Z</time></trkpt>
<trkpt lat="46.21805" lon="7.26537"><ele>552</ele><time>2016-08-28T14:59:43Z</time></trkpt>
<trkpt lat="46.218" lon="7.26528"><ele>552</ele><time>2016-08-28T14:59:45Z</time></trkpt>
<trkpt lat="46.21795" lon="7.26519"><ele>552.2</ele><time>2016-08-28T14:59:47Z</time></trkpt>
<trkpt lat="46.21789" lon="7.26511"><ele>552.2</ele><time>2016-08-28T14:59:49Z</time></trkpt>
<trkpt lat="46.21787" lon="7.26507"><ele>552.4</ele><time>2016-08-28T14:59:50Z</time></trkpt>
<trkpt lat="46.21784" lon="7.26503"><ele>552.4</ele><time>2016-08-28T14:59:51Z</time></trkpt>
<trkpt lat="46.21779" lon="7.26495"><ele>552.4</ele><time>2016-08-28T14:59:53Z</time></trkpt>
<trkpt lat="46.21775" lon="7.26487"><ele>552.6</ele><time>2016-08-28T14:59:55Z</time></trkpt>
<trkpt lat="46.2177" lon="7.26479"><ele>552.6</ele><time>2016-08-28T14:59:57Z</time></trkpt>
<trkpt lat="46.21765" lon="7.26471"><ele>552.8</ele><time>2016-08-28T14:59:59Z</time></trkpt>
<trkpt lat="46.2176" lon="7.26463"><ele>552.8</ele><time>2016-08-28T15:00:01Z</time></trkpt>
<trkpt lat="46.21756" lon="7.26455"><ele>553</ele><time>2016-08-28T15:00:03Z</time></trkpt>
<trkpt lat="46.2175" lon="7.26447"><ele>553</ele><time>2016-08-28T15:00:05Z</time></trkpt>
<trkpt lat="46.21744" lon="7.26439"><ele>553.2</ele><time>2016-08-28T15:00:07Z</time></trkpt>
<trkpt lat="46.21739" lon="7.26431"><ele>553.2</ele><time>2016-08-28T15:00:09Z</time></trkpt>
<trkpt lat="46.21733" lon="7.26423"><ele>553.4</ele><time>2016-08-28T15:00:11Z</time></trkpt>
<trkpt lat="46.21727" lon="7.26415"><ele>553.4</ele><time>2016-08-28T15:00:13Z</time></trkpt>
<trkpt lat="46.21722" lon="7.26407"><ele>553.6</ele><time>2016-08-28T15:00:15Z</time></trkpt>
<trkpt lat="46.21716" lon="7.264"><ele>553.6</ele><time>2016-08-28T15:00:17Z</time></trkpt>
<trkpt lat="46.21711" lon="7.26392"><ele>553.8</ele><time>2016-08-28T15:00:19Z</time></trkpt>
<trkpt lat="46.21706" lon="7.26385"><ele>553.8</ele><time>2016-08-28T15:00:21Z</time></trkpt>
<trkpt lat="46.21701" lon="7.26378"><ele>554</ele><time>2016-08-28T15:00:23Z</time></trkpt>
<trkpt lat="46.21696" lon="7.2637"><ele>554.2</ele><time>2016-08-28T15:00:25Z</time></trkpt>
<trkpt lat="46.2169" lon="7.26363"><ele>554.4</ele><time>2016-08-28T15:00:27Z</time></trkpt>
<trkpt lat="46.21688" lon="7.26359"><ele>554.4</ele><time>2016-08-28T15:00:28Z</time></trkpt>
<trkpt lat="46.21685" lon="7.26356"><ele>554.4</ele><time>2016-08-28T15:00:29Z</time></trkpt>
<trkpt lat="46.2168" lon="7.26349"><ele>554.6</ele><time>2016-08-28T15:00:31Z</time></trkpt>
<trkpt lat="46.21676" lon="7.26343"><ele>554.8</ele><time>2016-08-28T15:00:33Z</time></trkpt>
<trkpt lat="46.21671" lon="7.26336"><ele>555</ele><time>2016-08-28T15:00:35Z</time></trkpt>
<trkpt lat="46.21666" lon="7.2633"><ele>555.2</ele><time>2016-08-28T15:00:37Z</time></trkpt>
<trkpt lat="46.21661" lon="7.26323"><ele>555.4</ele><time>2016-08-28T15:00:39Z</time></trkpt>
<trkpt lat="46.21656" lon="7.26317"><ele>555.4</ele><time>2016-08-28T15:00:41Z</time></trkpt>
<trkpt lat="46.21654" lon="7.26314"><ele>555.6</ele><time>2016-08-28T15:00:42Z</time></trkpt>
<trkpt lat="46.21652" lon="7.2631"><ele>555.6</ele><time>2016-08-28T15:00:43Z</time></trkpt>
<trkpt lat="46.21647" lon="7.26303"><ele>555.8</ele><time>2016-08-28T15:00:45Z</time></trkpt>
<trkpt lat="46.21642" lon="7.26296"><ele>556</ele><time>2016-08-28T15:00:47Z</time></trkpt>
<trkpt lat="46.21638" lon="7.26289"><ele>556.2</ele><time>2016-08-28T15:00:49Z</time></trkpt>
<trkpt lat="46.21633" lon="7.26282"><ele>556.2</ele><time>2016-08-28T15:00:51Z</time></trkpt>
<trkpt lat="46.21629" lon="7.26275"><ele>556.4</ele><time>2016-08-28T15:00:53Z</time></trkpt>
<trkpt lat="46.21624" lon="7.26267"><ele>556.6</ele><time>2016-08-28T15:00:55Z</time></trkpt>
<trkpt lat="46.21622" lon="7.26264"><ele>556.6</ele><time>2016-08-28T15:00:56Z</time></trkpt>
<trkpt lat="46.21619" lon="7.2626"><ele>556.8</ele><time>2016-08-28T15:00:57Z</time></trkpt>
<trkpt lat="46.21615" lon="7.26252"><ele>557</ele><time>2016-08-28T15:00:59Z</time></trkpt>
<trkpt lat="46.2161" lon="7.26244"><ele>557.2</ele><time>2016-08-28T15:01:01Z</time></trkpt>
<trkpt lat="46.21605" lon="7.26236"><ele>557.2</ele><time>2016-08-28T15:01:03Z</time></trkpt>
<trkpt lat="46.21601" lon="7.26228"><ele>557.4</ele><time>2016-08-28T15:01:05Z</time></trkpt>
<trkpt lat="46.21596" lon="7.2622"><ele>557.6</ele><time>2016-08-28T15:01:07Z</time></trkpt>
<trkpt lat="46.21591" lon="7.26212"><ele>557.8</ele><time>2016-08-28T15:01:09Z</time></trkpt>
<trkpt lat="46.21587" lon="7.26204"><ele>557.8</ele><time>2016-08-28T15:01:11Z</time></trkpt>
<trkpt lat="46.21583" lon="7.26197"><ele>558</ele><time>2016-08-28T15:01:13Z</time></trkpt>
<trkpt lat="46.21578" lon="7.2619"><ele>558.2</ele><time>2016-08-28T15:01:15Z</time></trkpt>
<trkpt lat="46.21574" lon="7.26182"><ele>558.4</ele><time>2016-08-28T15:01:17Z</time></trkpt>
<trkpt lat="46.21569" lon="7.26175"><ele>558.6</ele><time>2016-08-28T15:01:19Z</time></trkpt>
<trkpt lat="46.21565" lon="7.26167"><ele>558.6</ele><time>2016-08-28T15:01:21Z</time></trkpt>
<trkpt lat="46.2156" lon="7.2616"><ele>558.8</ele><time>2016-08-28T15:01:23Z</time></trkpt>
<trkpt lat="46.21556" lon="7.26153"><ele>559</ele><time>2016-08-28T15:01:25Z</time></trkpt>
<trkpt lat="46.21551" lon="7.26145"><ele>559.2</ele><time>2016-08-28T15:01:27Z</time></trkpt>
<trkpt lat="46.21546" lon="7.26138"><ele>559.4</ele><time>2016-08-28T15:01:29Z</time></trkpt>
<trkpt lat="46.21542" lon="7.26131"><ele>559.4</ele><time>2016-08-28T15:01:31Z</time></trkpt>
<trkpt lat="46.21537" lon="7.26124"><ele>559.6</ele><time>2016-08-28T15:01:33Z</time></trkpt>
<trkpt lat="46.21532" lon="7.26117"><ele>559.8</ele><time>2016-08-28T15:01:35Z</time></trkpt>
<trkpt lat="46.21527" lon="7.26109"><ele>560</ele><time>2016-08-28T15:01:37Z</time></trkpt>
<trkpt lat="46.21526" lon="7.26106"><ele>560</ele><time>2016-08-28T15:01:38Z</time></trkpt>
<trkpt lat="46.21524" lon="7.26103"><ele>560</ele><time>2016-08-28T15:01:39Z</time></trkpt>
<trkpt lat="46.2152" lon="7.26097"><ele>560</ele><time>2016-08-28T15:01:41Z</time></trkpt>
<trkpt lat="46.21516" lon="7.26091"><ele>560</ele><time>2016-08-28T15:01:43Z</time></trkpt>
<trkpt lat="46.21513" lon="7.26084"><ele>559.8</ele><time>2016-08-28T15:01:45Z</time></trkpt>
<trkpt lat="46.21509" lon="7.26078"><ele>559.8</ele><time>2016-08-28T15:01:47Z</time></trkpt>
<trkpt lat="46.21505" lon="7.26072"><ele>559.8</ele><time>2016-08-28T15:01:49Z</time></trkpt>
<trkpt lat="46.21501" lon="7.2608"><ele>559.8</ele><time>2016-08-28T15:01:51Z</time></trkpt>
<trkpt lat="46.21497" lon="7.26089"><ele>559.6</ele><time>2016-08-28T15:01:53Z</time></trkpt>
<trkpt lat="46.21493" lon="7.26098"><ele>559.6</ele><time>2016-08-28T15:01:55Z</time></trkpt>
<trkpt lat="46.21489" lon="7.26107"><ele>559.6</ele><time>2016-08-28T15:01:57Z</time></trkpt>
<trkpt lat="46.21484" lon="7.26116"><ele>559.6</ele><time>2016-08-28T15:01:59Z</time></trkpt>
<trkpt lat="46.2148" lon="7.26125"><ele>559.6</ele><time>2016-08-28T15:02:01Z</time></trkpt>
<trkpt lat="46.21475" lon="7.26137"><ele>559.4</ele><time>2016-08-28T15:02:03Z</time></trkpt>
<trkpt lat="46.2147" lon="7.2615"><ele>559.4</ele><time>2016-08-28T15:02:05Z</time></trkpt>
<trkpt lat="46.21465" lon="7.26162"><ele>559.4</ele><time>2016-08-28T15:02:07Z</time></trkpt>
<trkpt lat="46.2146" lon="7.26175"><ele>559.4</ele><time>2016-08-28T15:02:09Z</time></trkpt>
<trkpt lat="46.21457" lon="7.26181"><ele>559.2</ele><time>2016-08-28T15:02:10Z</time></trkpt>
<trkpt lat="46.21455" lon="7.26187"><ele>559.2</ele><time>2016-08-28T15:02:11Z</time></trkpt>
<trkpt lat="46.21449" lon="7.262"><ele>559.2</ele><time>2016-08-28T15:02:13Z</time></trkpt>
<trkpt lat="46.21444" lon="7.26212"><ele>559.2</ele><time>2016-08-28T15:02:15Z</time></trkpt>
<trkpt lat="46.21439" lon="7.26225"><ele>559.2</ele><time>2016-08-28T15:02:17Z</time></trkpt>
<trkpt lat="46.21434" lon="7.26237"><ele>559</ele><time>2016-08-28T15:02:19Z</time></trkpt>
<trkpt lat="46.21429" lon="7.26248"><ele>559</ele><time>2016-08-28T15:02:21Z</time></trkpt>
<trkpt lat="46.21425" lon="7.26259"><ele>559</ele><time>2016-08-28T15:02:23Z</time></trkpt>
<trkpt lat="46.2142" lon="7.2627"><ele>559</ele><time>2016-08-28T15:02:25Z</time></trkpt>
<trkpt lat="46.21415" lon="7.26281"><ele>558.8</ele><time>2016-08-28T15:02:27Z</time></trkpt>
<trkpt lat="46.2141" lon="7.26291"><ele>558.8</ele><time>2016-08-28T15:02:29Z</time></trkpt>
<trkpt lat="46.21408" lon="7.26297"><ele>558.8</ele><time>2016-08-28T15:02:30Z</time></trkpt>
<trkpt lat="46.21406" lon="7.26297"><ele>558.8</ele><time>2016-08-28T15:02:31Z</time></trkpt>
<trkpt lat="46.21402" lon="7.26294"><ele>558.8</ele><time>2016-08-28T15:02:33Z</time></trkpt>
<trkpt lat="46.21398" lon="7.26292"><ele>558.8</ele><time>2016-08-28T15:02:35Z</time></trkpt>
<trkpt lat="46.21394" lon="7.2629"><ele>558.6</ele><time>2016-08-28T15:02:37Z</time></trkpt>
<trkpt lat="46.2139" lon="7.26288"><ele>558.6</ele><time>2016-08-28T15:02:39Z</time></trkpt>
<trkpt lat="46.21386" lon="7.26286"><ele>558.6</ele><time>2016-08-28T15:02:41Z</time></trkpt>
<trkpt lat="46.21383" lon="7.26292"><ele>558.6</ele><time>2016-08-28T15:02:43Z</time></trkpt>
<trkpt lat="46.21379" lon="7.26299"><ele>558.4</ele><time>2016-08-28T15:02:45Z</time></trkpt>
<trkpt lat="46.21375" lon="7.26305"><ele>558.4</ele><time>2016-08-28T15:02:47Z</time></trkpt>
<trkpt lat="46.21371" lon="7.26312"><ele>558.4</ele><time>2016-08-28T15:02:49Z</time></trkpt>
<trkpt lat="46.21367" lon="7.26319"><ele>558.4</ele><time>2016-08-28T15:02:51Z</time></trkpt>
<trkpt lat="46.21364" lon="7.26326"><ele>558.2</ele><time>2016-08-28T15:02:53Z</time></trkpt>
<trkpt lat="46.21355" lon="7.26331"><ele>558.2</ele><time>2016-08-28T15:02:55Z</time></trkpt>
<trkpt lat="46.2135" lon="7.26334"><ele>558.2</ele><time>2016-08-28T15:02:56Z</time></trkpt>
<trkpt lat="46.21348" lon="7.26339"><ele>558.2</ele><time>2016-08-28T15:02:57Z</time></trkpt>
<trkpt lat="46.21343" lon="7.26349"><ele>558.2</ele><time>2016-08-28T15:02:59Z</time></trkpt>
<trkpt lat="46.21339" lon="7.26359"><ele>558</ele><time>2016-08-28T15:03:01Z</time></trkpt>
<trkpt lat="46.21335" lon="7.2637"><ele>558</ele><time>2016-08-28T15:03:03Z</time></trkpt>
<trkpt lat="46.2133" lon="7.2638"><ele>558</ele><time>2016-08-28T15:03:05Z</time></trkpt>
<trkpt lat="46.21326" lon="7.2639"><ele>558</ele><time>2016-08-28T15:03:07Z</time></trkpt>
<trkpt lat="46.2132" lon="7.26402"><ele>558</ele><time>2016-08-28T15:03:09Z</time></trkpt>
<trkpt lat="46.21317" lon="7.26408"><ele>558</ele><time>2016-08-28T15:03:10Z</time></trkpt>
<trkpt lat="46.21314" lon="7.26414"><ele>558</ele><time>2016-08-28T15:03:11Z</time></trkpt>
<trkpt lat="46.21308" lon="7.26426"><ele>557.8</ele><time>2016-08-28T15:03:13Z</time></trkpt>
<trkpt lat="46.21303" lon="7.26438"><ele>557.6</ele><time>2016-08-28T15:03:15Z</time></trkpt>
<trkpt lat="46.213" lon="7.26444"><ele>557.4</ele><time>2016-08-28T15:03:16Z</time></trkpt>
<trkpt lat="46.21297" lon="7.26451"><ele>557.4</ele><time>2016-08-28T15:03:17Z</time></trkpt>
<trkpt lat="46.2129" lon="7.26464"><ele>557.2</ele><time>2016-08-28T15:03:19Z</time></trkpt>
<trkpt lat="46.21284" lon="7.26477"><ele>557</ele><time>2016-08-28T15:03:21Z</time></trkpt>
<trkpt lat="46.21278" lon="7.2649"><ele>556.6</ele><time>2016-08-28T15:03:23Z</time></trkpt>
<trkpt lat="46.21272" lon="7.26503"><ele>556.4</ele><time>2016-08-28T15:03:25Z</time></trkpt>
<trkpt lat="46.21268" lon="7.26508"><ele>556.4</ele><time>2016-08-28T15:03:26Z</time></trkpt>
<trkpt lat="46.21263" lon="7.26508"><ele>556.2</ele><time>2016-08-28T15:03:27Z</time></trkpt>
<trkpt lat="46.21258" lon="7.26508"><ele>556.2</ele><time>2016-08-28T15:03:28Z</time></trkpt>
<trkpt lat="46.21253" lon="7.26503"><ele>556</ele><time>2016-08-28T15:03:29Z</time></trkpt>
<trkpt lat="46.21245" lon="7.26492"><ele>555.8</ele><time>2016-08-28T15:03:31Z</time></trkpt>
<trkpt lat="46.21236" lon="7.26482"><ele>555.6</ele><time>2016-08-28T15:03:33Z</time></trkpt>
<trkpt lat="46.21227" lon="7.26471"><ele>555.4</ele><time>2016-08-28T15:03:35Z</time></trkpt>
<trkpt lat="46.21222" lon="7.26466"><ele>555.4</ele><time>2016-08-28T15:03:36Z</time></trkpt>
<trkpt lat="46.21218" lon="7.26461"><ele>555.2</ele><time>2016-08-28T15:03:37Z</time></trkpt>
<trkpt lat="46.21208" lon="7.26452"><ele>555.2</ele><time>2016-08-28T15:03:39Z</time></trkpt>
<trkpt lat="46.21199" lon="7.26443"><ele>555.2</ele><time>2016-08-28T15:03:41Z</time></trkpt>
<trkpt lat="46.21194" lon="7.26439"><ele>555</ele><time>2016-08-28T15:03:42Z</time></trkpt>
<trkpt lat="46.2119" lon="7.26434"><ele>555</ele><time>2016-08-28T15:03:43Z</time></trkpt>
<trkpt lat="46.21185" lon="7.26429"><ele>554.8</ele><time>2016-08-28T15:03:44Z</time></trkpt>
<trkpt lat="46.21181" lon="7.26425"><ele>554.8</ele><time>2016-08-28T15:03:45Z</time></trkpt>
<trkpt lat="46.21172" lon="7.26416"><ele>554.6</ele><time>2016-08-28T15:03:47Z</time></trkpt>
<trkpt lat="46.21163" lon="7.26406"><ele>554.4</ele><time>2016-08-28T15:03:49Z</time></trkpt>
<trkpt lat="46.21154" lon="7.26397"><ele>554.2</ele><time>2016-08-28T15:03:51Z</time></trkpt>
<trkpt lat="46.21145" lon="7.26388"><ele>553.8</ele><time>2016-08-28T15:03:53Z</time></trkpt>
<trkpt lat="46.21137" lon="7.2638"><ele>553.6</ele><time>2016-08-28T15:03:55Z</time></trkpt>
<trkpt lat="46.21128" lon="7.26372"><ele>553.4</ele><time>2016-08-28T15:03:57Z</time></trkpt>
<trkpt lat="46.21119" lon="7.26365"><ele>553.2</ele><time>2016-08-28T15:03:59Z</time></trkpt>
<trkpt lat="46.21114" lon="7.26361"><ele>553.2</ele><time>2016-08-28T15:04:00Z</time></trkpt>
<trkpt lat="46.2111" lon="7.26356"><ele>553</ele><time>2016-08-28T15:04:01Z</time></trkpt>
<trkpt lat="46.21101" lon="7.26346"><ele>552.8</ele><time>2016-08-28T15:04:03Z</time></trkpt>
<trkpt lat="46.21092" lon="7.26337"><ele>552.6</ele><time>2016-08-28T15:04:05Z</time></trkpt>
<trkpt lat="46.21086" lon="7.26324"><ele>552.4</ele><time>2016-08-28T15:04:07Z</time></trkpt>
<trkpt lat="46.2108" lon="7.2631"><ele>552.2</ele><time>2016-08-28T15:04:09Z</time></trkpt>
<trkpt lat="46.21074" lon="7.26297"><ele>552</ele><time>2016-08-28T15:04:11Z</time></trkpt>
<trkpt lat="46.21068" lon="7.26284"><ele>551.8</ele><time>2016-08-28T15:04:13Z</time></trkpt>
<trkpt lat="46.21065" lon="7.26277"><ele>551.6</ele><time>2016-08-28T15:04:14Z</time></trkpt>
<trkpt lat="46.21063" lon="7.26271"><ele>551.4</ele><time>2016-08-28T15:04:15Z</time></trkpt>
<trkpt lat="46.2106" lon="7.26266"><ele>551.4</ele><time>2016-08-28T15:04:16Z</time></trkpt>
<trkpt lat="46.21058" lon="7.2626"><ele>551.4</ele><time>2016-08-28T15:04:17Z</time></trkpt>
<trkpt lat="46.21053" lon="7.2625"><ele>551.4</ele><time>2016-08-28T15:04:19Z</time></trkpt>
<trkpt lat="46.21048" lon="7.26239"><ele>551.4</ele><time>2016-08-28T15:04:21Z</time></trkpt>
<trkpt lat="46.21046" lon="7.26233"><ele>551.4</ele><time>2016-08-28T15:04:22Z</time></trkpt>
<trkpt lat="46.21043" lon="7.26228"><ele>551.4</ele><time>2016-08-28T15:04:23Z</time></trkpt>
<trkpt lat="46.21041" lon="7.26222"><ele>551.4</ele><time>2016-08-28T15:04:24Z</time></trkpt>
<trkpt lat="46.21038" lon="7.26216"><ele>551.4</ele><time>2016-08-28T15:04:25Z</time></trkpt>
<trkpt lat="46.21033" lon="7.26204"><ele>551.2</ele><time>2016-08-28T15:04:27Z</time></trkpt>
<trkpt lat="46.21027" lon="7.26192"><ele>551.2</ele><time>2016-08-28T15:04:29Z</time></trkpt>
<trkpt lat="46.21022" lon="7.2618"><ele>551</ele><time>2016-08-28T15:04:31Z</time></trkpt>
<trkpt lat="46.21016" lon="7.26168"><ele>551</ele><time>2016-08-28T15:04:33Z</time></trkpt>
<trkpt lat="46.21013" lon="7.26163"><ele>550.8</ele><time>2016-08-28T15:04:34Z</time></trkpt>
<trkpt lat="46.2101" lon="7.26156"><ele>550.8</ele><time>2016-08-28T15:04:35Z</time></trkpt>
<trkpt lat="46.21005" lon="7.26144"><ele>550.8</ele><time>2016-08-28T15:04:37Z</time></trkpt>
<trkpt lat="46.20999" lon="7.26131"><ele>550.6</ele><time>2016-08-28T15:04:39Z</time></trkpt>
<trkpt lat="46.20993" lon="7.26119"><ele>550.6</ele><time>2016-08-28T15:04:41Z</time></trkpt>
<trkpt lat="46.20987" lon="7.26106"><ele>550.4</ele><time>2016-08-28T15:04:43Z</time></trkpt>
<trkpt lat="46.20981" lon="7.26093"><ele>550.4</ele><time>2016-08-28T15:04:45Z</time></trkpt>
<trkpt lat="46.20975" lon="7.2608"><ele>550.2</ele><time>2016-08-28T15:04:47Z</time></trkpt>
<trkpt lat="46.2097" lon="7.26069"><ele>550.2</ele><time>2016-08-28T15:04:49Z</time></trkpt>
<trkpt lat="46.20964" lon="7.26057"><ele>550</ele><time>2016-08-28T15:04:51Z</time></trkpt>
<trkpt lat="46.20959" lon="7.26045"><ele>550</ele><time>2016-08-28T15:04:53Z</time></trkpt>
<trkpt lat="46.20954" lon="7.26034"><ele>549.8</ele><time>2016-08-28T15:04:55Z</time></trkpt>
<trkpt lat="46.20948" lon="7.26022"><ele>549.8</ele><time>2016-08-28T15:04:57Z</time></trkpt>
<trkpt lat="46.20943" lon="7.2601"><ele>549.6</ele><time>2016-08-28T15:04:59Z</time></trkpt>
<trkpt lat="46.20938" lon="7.25998"><ele>549.6</ele><time>2016-08-28T15:05:01Z</time></trkpt>
<trkpt lat="46.20932" lon="7.25985"><ele>549.6</ele><time>2016-08-28T15:05:03Z</time></trkpt>
<trkpt lat="46.20927" lon="7.25973"><ele>549.4</ele><time>2016-08-28T15:05:05Z</time></trkpt>
<trkpt lat="46.20922" lon="7.25961"><ele>549.4</ele><time>2016-08-28T15:05:07Z</time></trkpt>
<trkpt lat="46.20916" lon="7.25948"><ele>549.2</ele><time>2016-08-28T15:05:09Z</time></trkpt>
<trkpt lat="46.2091" lon="7.25936"><ele>549.2</ele><time>2016-08-28T15:05:11Z</time></trkpt>
<trkpt lat="46.20904" lon="7.25923"><ele>549</ele><time>2016-08-28T15:05:13Z</time></trkpt>
<trkpt lat="46.20898" lon="7.25911"><ele>549</ele><time>2016-08-28T15:05:15Z</time></trkpt>
<trkpt lat="46.20895" lon="7.25904"><ele>548.8</ele><time>2016-08-28T15:05:16Z</time></trkpt>
<trkpt lat="46.20892" lon="7.25899"><ele>548.8</ele><time>2016-08-28T15:05:17Z</time></trkpt>
<trkpt lat="46.20887" lon="7.25888"><ele>548.8</ele><time>2016-08-28T15:05:19Z</time></trkpt>
<trkpt lat="46.20882" lon="7.25877"><ele>548.6</ele><time>2016-08-28T15:05:21Z</time></trkpt>
<trkpt lat="46.20877" lon="7.25866"><ele>548.6</ele><time>2016-08-28T15:05:23Z</time></trkpt>
<trkpt lat="46.20874" lon="7.25861"><ele>548.6</ele><time>2016-08-28T15:05:24Z</time></trkpt>
<trkpt lat="46.20871" lon="7.25855"><ele>548.4</ele><time>2016-08-28T15:05:25Z</time></trkpt>
<trkpt lat="46.20866" lon="7.25844"><ele>548.4</ele><time>2016-08-28T15:05:27Z</time></trkpt>
<trkpt lat="46.20861" lon="7.25833"><ele>548.2</ele><time>2016-08-28T15:05:29Z</time></trkpt>
<trkpt lat="46.20855" lon="7.25822"><ele>548.2</ele><time>2016-08-28T15:05:31Z</time></trkpt>
<trkpt lat="46.2085" lon="7.25812"><ele>548</ele><time>2016-08-28T15:05:33Z</time></trkpt>
<trkpt lat="46.20847" lon="7.25806"><ele>548</ele><time>2016-08-28T15:05:34Z</time></trkpt>
<trkpt lat="46.20844" lon="7.258"><ele>548</ele><time>2016-08-28T15:05:35Z</time></trkpt>
<trkpt lat="46.20838" lon="7.25787"><ele>547.8</ele><time>2016-08-28T15:05:37Z</time></trkpt>
<trkpt lat="46.20831" lon="7.25774"><ele>547.8</ele><time>2016-08-28T15:05:39Z</time></trkpt>
<trkpt lat="46.20825" lon="7.25761"><ele>547.6</ele><time>2016-08-28T15:05:41Z</time></trkpt>
<trkpt lat="46.20818" lon="7.25748"><ele>547.6</ele><time>2016-08-28T15:05:43Z</time></trkpt>
<trkpt lat="46.20813" lon="7.25736"><ele>547.4</ele><time>2016-08-28T15:05:45Z</time></trkpt>
<trkpt lat="46.20807" lon="7.25724"><ele>547.4</ele><time>2016-08-28T15:05:47Z</time></trkpt>
<trkpt lat="46.20802" lon="7.25713"><ele>547.2</ele><time>2016-08-28T15:05:49Z</time></trkpt>
<trkpt lat="46.20797" lon="7.25701"><ele>547</ele><time>2016-08-28T15:05:51Z</time></trkpt>
<trkpt lat="46.20791" lon="7.25689"><ele>547</ele><time>2016-08-28T15:05:53Z</time></trkpt>
<trkpt lat="46.20787" lon="7.25679"><ele>546.8</ele><time>2016-08-28T15:05:55Z</time></trkpt>
<trkpt lat="46.20782" lon="7.25668"><ele>546.8</ele><time>2016-08-28T15:05:57Z</time></trkpt>
<trkpt lat="46.20777" lon="7.25658"><ele>546.6</ele><time>2016-08-28T15:05:59Z</time></trkpt>
<trkpt lat="46.20772" lon="7.25647"><ele>546.6</ele><time>2016-08-28T15:06:01Z</time></trkpt>
<trkpt lat="46.20767" lon="7.25637"><ele>546.4</ele><time>2016-08-28T15:06:03Z</time></trkpt>
<trkpt lat="46.20765" lon="7.25631"><ele>546.4</ele><time>2016-08-28T15:06:04Z</time></trkpt>
<trkpt lat="46.20762" lon="7.25627"><ele>546.4</ele><time>2016-08-28T15:06:05Z</time></trkpt>
<trkpt lat="46.20757" lon="7.25617"><ele>546.2</ele><time>2016-08-28T15:06:07Z</time></trkpt>
<trkpt lat="46.20753" lon="7.25608"><ele>546.2</ele><time>2016-08-28T15:06:09Z</time></trkpt>
<trkpt lat="46.20748" lon="7.25598"><ele>546</ele><time>2016-08-28T15:06:11Z</time></trkpt>
<trkpt lat="46.20743" lon="7.25589"><ele>546</ele><time>2016-08-28T15:06:13Z</time></trkpt>
<trkpt lat="46.20738" lon="7.25579"><ele>545.8</ele><time>2016-08-28T15:06:15Z</time></trkpt>
<trkpt lat="46.2073" lon="7.25573"><ele>545.8</ele><time>2016-08-28T15:06:17Z</time></trkpt>
<trkpt lat="46.20722" lon="7.25566"><ele>545.6</ele><time>2016-08-28T15:06:19Z</time></trkpt>
<trkpt lat="46.20714" lon="7.2556"><ele>545.6</ele><time>2016-08-28T15:06:21Z</time></trkpt>
<trkpt lat="46.20706" lon="7.25554"><ele>545.4</ele><time>2016-08-28T15:06:23Z</time></trkpt>
<trkpt lat="46.20697" lon="7.25547"><ele>545.4</ele><time>2016-08-28T15:06:25Z</time></trkpt>
<trkpt lat="46.20689" lon="7.25541"><ele>545.4</ele><time>2016-08-28T15:06:27Z</time></trkpt>
<trkpt lat="46.20681" lon="7.25535"><ele>545.4</ele><time>2016-08-28T15:06:29Z</time></trkpt>
<trkpt lat="46.20673" lon="7.25529"><ele>545.4</ele><time>2016-08-28T15:06:31Z</time></trkpt>
<trkpt lat="46.20665" lon="7.25523"><ele>545.4</ele><time>2016-08-28T15:06:33Z</time></trkpt>
<trkpt lat="46.20657" lon="7.25517"><ele>545.6</ele><time>2016-08-28T15:06:35Z</time></trkpt>
<trkpt lat="46.20649" lon="7.25511"><ele>545.6</ele><time>2016-08-28T15:06:37Z</time></trkpt>
<trkpt lat="46.2064" lon="7.25505"><ele>545.6</ele><time>2016-08-28T15:06:39Z</time></trkpt>
<trkpt lat="46.20631" lon="7.25499"><ele>545.6</ele><time>2016-08-28T15:06:41Z</time></trkpt>
<trkpt lat="46.20622" lon="7.25493"><ele>545.6</ele><time>2016-08-28T15:06:43Z</time></trkpt>
<trkpt lat="46.20613" lon="7.25487"><ele>545.8</ele><time>2016-08-28T15:06:45Z</time></trkpt>
<trkpt lat="46.20605" lon="7.25482"><ele>545.8</ele><time>2016-08-28T15:06:47Z</time></trkpt>
<trkpt lat="46.20596" lon="7.25478"><ele>545.8</ele><time>2016-08-28T15:06:49Z</time></trkpt>
<trkpt lat="46.20587" lon="7.25473"><ele>545.8</ele><time>2016-08-28T15:06:51Z</time></trkpt>
<trkpt lat="46.20579" lon="7.25468"><ele>545.8</ele><time>2016-08-28T15:06:53Z</time></trkpt>
<trkpt lat="46.2057" lon="7.25464"><ele>546</ele><time>2016-08-28T15:06:55Z</time></trkpt>
<trkpt lat="46.20561" lon="7.25461"><ele>546</ele><time>2016-08-28T15:06:57Z</time></trkpt>
<trkpt lat="46.20552" lon="7.25459"><ele>546</ele><time>2016-08-28T15:06:59Z</time></trkpt>
<trkpt lat="46.20543" lon="7.25457"><ele>546</ele><time>2016-08-28T15:07:01Z</time></trkpt>
<trkpt lat="46.20534" lon="7.25454"><ele>546</ele><time>2016-08-28T15:07:03Z</time></trkpt>
<trkpt lat="46.20525" lon="7.25452"><ele>546.2</ele><time>2016-08-28T15:07:05Z</time></trkpt>
<trkpt lat="46.20515" lon="7.2545"><ele>546.2</ele><time>2016-08-28T15:07:07Z</time></trkpt>
<trkpt lat="46.20506" lon="7.25449"><ele>546.2</ele><time>2016-08-28T15:07:09Z</time></trkpt>
<trkpt lat="46.20496" lon="7.25447"><ele>546.2</ele><time>2016-08-28T15:07:11Z</time></trkpt>
<trkpt lat="46.20486" lon="7.25446"><ele>546.2</ele><time>2016-08-28T15:07:13Z</time></trkpt>
<trkpt lat="46.20477" lon="7.25444"><ele>546.4</ele><time>2016-08-28T15:07:15Z</time></trkpt>
<trkpt lat="46.20467" lon="7.25443"><ele>546.4</ele><time>2016-08-28T15:07:17Z</time></trkpt>
<trkpt lat="46.20457" lon="7.25443"><ele>546.4</ele><time>2016-08-28T15:07:19Z</time></trkpt>
<trkpt lat="46.20447" lon="7.25442"><ele>546.4</ele><time>2016-08-28T15:07:21Z</time></trkpt>
<trkpt lat="46.20437" lon="7.25441"><ele>546.4</ele><time>2016-08-28T15:07:23Z</time></trkpt>
<trkpt lat="46.20427" lon="7.25441"><ele>546.6</ele><time>2016-08-28T15:07:25Z</time></trkpt>
<trkpt lat="46.20417" lon="7.25442"><ele>546.6</ele><time>2016-08-28T15:07:27Z</time></trkpt>
<trkpt lat="46.20407" lon="7.25444"><ele>546.6</ele><time>2016-08-28T15:07:29Z</time></trkpt>
<trkpt lat="46.20396" lon="7.25445"><ele>546.6</ele><time>2016-08-28T15:07:31Z</time></trkpt>
<trkpt lat="46.20386" lon="7.25447"><ele>546.6</ele><time>2016-08-28T15:07:33Z</time></trkpt>
<trkpt lat="46.2038" lon="7.25448"><ele>546.8</ele><time>2016-08-28T15:07:34Z</time></trkpt>
<trkpt lat="46.20376" lon="7.25449"><ele>546.8</ele><time>2016-08-28T15:07:35Z</time></trkpt>
<trkpt lat="46.20368" lon="7.25453"><ele>546.8</ele><time>2016-08-28T15:07:37Z</time></trkpt>
<trkpt lat="46.20359" lon="7.25456"><ele>546.8</ele><time>2016-08-28T15:07:39Z</time></trkpt>
<trkpt lat="46.20351" lon="7.25459"><ele>546.8</ele><time>2016-08-28T15:07:41Z</time></trkpt>
<trkpt lat="46.20343" lon="7.25462"><ele>546.8</ele><time>2016-08-28T15:07:43Z</time></trkpt>
<trkpt lat="46.20334" lon="7.25465"><ele>547</ele><time>2016-08-28T15:07:45Z</time></trkpt>
<trkpt lat="46.20328" lon="7.25458"><ele>547</ele><time>2016-08-28T15:07:47Z</time></trkpt>
<trkpt lat="46.20326" lon="7.25455"><ele>547</ele><time>2016-08-28T15:07:48Z</time></trkpt>
<trkpt lat="46.20323" lon="7.2545"><ele>547</ele><time>2016-08-28T15:07:49Z</time></trkpt>
<trkpt lat="46.20318" lon="7.2544"><ele>547</ele><time>2016-08-28T15:07:51Z</time></trkpt>
<trkpt lat="46.20313" lon="7.2543"><ele>547.2</ele><time>2016-08-28T15:07:53Z</time></trkpt>
<trkpt lat="46.20308" lon="7.2542"><ele>547.2</ele><time>2016-08-28T15:07:55Z</time></trkpt>
<trkpt lat="46.20303" lon="7.25411"><ele>547.2</ele><time>2016-08-28T15:07:57Z</time></trkpt>
<trkpt lat="46.20294" lon="7.25408"><ele>547.2</ele><time>2016-08-28T15:07:59Z</time></trkpt>
<trkpt lat="46.20285" lon="7.25405"><ele>547.2</ele><time>2016-08-28T15:08:01Z</time></trkpt>
<trkpt lat="46.20275" lon="7.25403"><ele>547.4</ele><time>2016-08-28T15:08:03Z</time></trkpt>
<trkpt lat="46.20266" lon="7.25401"><ele>547.4</ele><time>2016-08-28T15:08:05Z</time></trkpt>
<trkpt lat="46.20256" lon="7.25398"><ele>547.4</ele><time>2016-08-28T15:08:07Z</time></trkpt>
<trkpt lat="46.20246" lon="7.25394"><ele>547.4</ele><time>2016-08-28T15:08:09Z</time></trkpt>
<trkpt lat="46.20237" lon="7.2539"><ele>547.4</ele><time>2016-08-28T15:08:11Z</time></trkpt>
<trkpt lat="46.20227" lon="7.25386"><ele>547.6</ele><time>2016-08-28T15:08:13Z</time></trkpt>
<trkpt lat="46.20217" lon="7.25382"><ele>547.6</ele><time>2016-08-28T15:08:15Z</time></trkpt>
<trkpt lat="46.20212" lon="7.2538"><ele>547.6</ele><time>2016-08-28T15:08:16Z</time></trkpt>
<trkpt lat="46.20207" lon="7.25378"><ele>547.6</ele><time>2016-08-28T15:08:17Z</time></trkpt>
<trkpt lat="46.20198" lon="7.25373"><ele>547.6</ele><time>2016-08-28T15:08:19Z</time></trkpt>
<trkpt lat="46.20189" lon="7.25369"><ele>547.6</ele><time>2016-08-28T15:08:21Z</time></trkpt>
<trkpt lat="46.2018" lon="7.25364"><ele>547.8</ele><time>2016-08-28T15:08:23Z</time></trkpt>
<trkpt lat="46.20171" lon="7.25359"><ele>547.8</ele><time>2016-08-28T15:08:25Z</time></trkpt>
<trkpt lat="46.20166" lon="7.25357"><ele>547.8</ele><time>2016-08-28T15:08:26Z</time></trkpt>
<trkpt lat="46.20162" lon="7.25356"><ele>547.8</ele><time>2016-08-28T15:08:27Z</time></trkpt>
<trkpt lat="46.20154" lon="7.25353"><ele>547.8</ele><time>2016-08-28T15:08:29Z</time></trkpt>
<trkpt lat="46.20145" lon="7.2535"><ele>547.8</ele><time>2016-08-28T15:08:31Z</time></trkpt>
<trkpt lat="46.20136" lon="7.25348"><ele>548</ele><time>2016-08-28T15:08:33Z</time></trkpt>
<trkpt lat="46.20128" lon="7.25345"><ele>548</ele><time>2016-08-28T15:08:35Z</time></trkpt>
<trkpt lat="46.20119" lon="7.25343"><ele>548</ele><time>2016-08-28T15:08:37Z</time></trkpt>
<trkpt lat="46.2011" lon="7.2534"><ele>548</ele><time>2016-08-28T15:08:39Z</time></trkpt>
<trkpt lat="46.20101" lon="7.25337"><ele>548</ele><time>2016-08-28T15:08:41Z</time></trkpt>
<trkpt lat="46.20092" lon="7.25334"><ele>548.2</ele><time>2016-08-28T15:08:43Z</time></trkpt>
<trkpt lat="46.20083" lon="7.25332"><ele>548.2</ele><time>2016-08-28T15:08:45Z</time></trkpt>
<trkpt lat="46.20074" lon="7.25329"><ele>548.2</ele><time>2016-08-28T15:08:47Z</time></trkpt>
<trkpt lat="46.20065" lon="7.25324"><ele>548.2</ele><time>2016-08-28T15:08:49Z</time></trkpt>
<trkpt lat="46.20056" lon="7.25319"><ele>548.2</ele><time>2016-08-28T15:08:51Z</time></trkpt>
<trkpt lat="46.20047" lon="7.25314"><ele>548.4</ele><time>2016-08-28T15:08:53Z</time></trkpt>
<trkpt lat="46.20038" lon="7.25309"><ele>548.4</ele><time>2016-08-28T15:08:55Z</time></trkpt>
<trkpt lat="46.20029" lon="7.25304"><ele>548.4</ele><time>2016-08-28T15:08:57Z</time></trkpt>
<trkpt lat="46.20021" lon="7.25298"><ele>548.4</ele><time>2016-08-28T15:08:59Z</time></trkpt>
<trkpt lat="46.20013" lon="7.25292"><ele>548.4</ele><time>2016-08-28T15:09:01Z</time></trkpt>
<trkpt lat="46.20005" lon="7.25286"><ele>548.6</ele><time>2016-08-28T15:09:03Z</time></trkpt>
<trkpt lat="46.19998" lon="7.2528"><ele>548.6</ele><time>2016-08-28T15:09:05Z</time></trkpt>
<trkpt lat="46.1999" lon="7.25274"><ele>548.6</ele><time>2016-08-28T15:09:07Z</time></trkpt>
<trkpt lat="46.19986" lon="7.25271"><ele>548.8</ele><time>2016-08-28T15:09:08Z</time></trkpt>
<trkpt lat="46.19982" lon="7.25269"><ele>548.8</ele><time>2016-08-28T15:09:09Z</time></trkpt>
<trkpt lat="46.19973" lon="7.25263"><ele>549</ele><time>2016-08-28T15:09:11Z</time></trkpt>
<trkpt lat="46.19964" lon="7.25258"><ele>549</ele><time>2016-08-28T15:09:13Z</time></trkpt>
<trkpt lat="46.19957" lon="7.25252"><ele>549.2</ele><time>2016-08-28T15:09:15Z</time></trkpt>
<trkpt lat="46.1995" lon="7.25245"><ele>549.4</ele><time>2016-08-28T15:09:17Z</time></trkpt>
<trkpt lat="46.19943" lon="7.25239"><ele>549.6</ele><time>2016-08-28T15:09:19Z</time></trkpt>
<trkpt lat="46.19936" lon="7.25232"><ele>549.6</ele><time>2016-08-28T15:09:21Z</time></trkpt>
<trkpt lat="46.19929" lon="7.25226"><ele>549.8</ele><time>2016-08-28T15:09:23Z</time></trkpt>
<trkpt lat="46.19926" lon="7.25223"><ele>549.8</ele><time>2016-08-28T15:09:24Z</time></trkpt>
<trkpt lat="46.19922" lon="7.25219"><ele>550</ele><time>2016-08-28T15:09:25Z</time></trkpt>
<trkpt lat="46.19915" lon="7.25212"><ele>550</ele><time>2016-08-28T15:09:27Z</time></trkpt>
<trkpt lat="46.19907" lon="7.25205"><ele>550.2</ele><time>2016-08-28T15:09:29Z</time></trkpt>
<trkpt lat="46.199" lon="7.25198"><ele>550.4</ele><time>2016-08-28T15:09:31Z</time></trkpt>
<trkpt lat="46.19892" lon="7.25191"><ele>550.4</ele><time>2016-08-28T15:09:33Z</time></trkpt>
<trkpt lat="46.19885" lon="7.25184"><ele>550.6</ele><time>2016-08-28T15:09:35Z</time></trkpt>
<trkpt lat="46.19878" lon="7.25176"><ele>550.8</ele><time>2016-08-28T15:09:37Z</time></trkpt>
<trkpt lat="46.19872" lon="7.25169"><ele>550.8</ele><time>2016-08-28T15:09:39Z</time></trkpt>
<trkpt lat="46.19865" lon="7.25161"><ele>551</ele><time>2016-08-28T15:09:41Z</time></trkpt>
<trkpt lat="46.19859" lon="7.25154"><ele>551.2</ele><time>2016-08-28T15:09:43Z</time></trkpt>
<trkpt lat="46.19852" lon="7.25146"><ele>551.2</ele><time>2016-08-28T15:09:45Z</time></trkpt>
<trkpt lat="46.19849" lon="7.25142"><ele>551.4</ele><time>2016-08-28T15:09:46Z</time></trkpt>
<trkpt lat="46.19845" lon="7.25139"><ele>551.4</ele><time>2016-08-28T15:09:47Z</time></trkpt>
<trkpt lat="46.19838" lon="7.25132"><ele>551.6</ele><time>2016-08-28T15:09:49Z</time></trkpt>
<trkpt lat="46.1983" lon="7.25126"><ele>551.6</ele><time>2016-08-28T15:09:51Z</time></trkpt>
<trkpt lat="46.19823" lon="7.25119"><ele>551.8</ele><time>2016-08-28T15:09:53Z</time></trkpt>
<trkpt lat="46.19816" lon="7.25112"><ele>552</ele><time>2016-08-28T15:09:55Z</time></trkpt>
<trkpt lat="46.19808" lon="7.25106"><ele>552</ele><time>2016-08-28T15:09:57Z</time></trkpt>
<trkpt lat="46.19801" lon="7.25099"><ele>552.2</ele><time>2016-08-28T15:09:59Z</time></trkpt>
<trkpt lat="46.19794" lon="7.25091"><ele>552.4</ele><time>2016-08-28T15:10:01Z</time></trkpt>
<trkpt lat="46.19787" lon="7.25084"><ele>552.6</ele><time>2016-08-28T15:10:03Z</time></trkpt>
<trkpt lat="46.19779" lon="7.25077"><ele>552.8</ele><time>2016-08-28T15:10:05Z</time></trkpt>
<trkpt lat="46.19772" lon="7.2507"><ele>552.8</ele><time>2016-08-28T15:10:07Z</time></trkpt>
<trkpt lat="46.19768" lon="7.25066"><ele>553</ele><time>2016-08-28T15:10:08Z</time></trkpt>
<trkpt lat="46.19764" lon="7.25063"><ele>553</ele><time>2016-08-28T15:10:09Z</time></trkpt>
<trkpt lat="46.19757" lon="7.25056"><ele>553.2</ele><time>2016-08-28T15:10:11Z</time></trkpt>
<trkpt lat="46.19749" lon="7.25049"><ele>553.4</ele><time>2016-08-28T15:10:13Z</time></trkpt>
<trkpt lat="46.19742" lon="7.25043"><ele>553.4</ele><time>2016-08-28T15:10:15Z</time></trkpt>
<trkpt lat="46.19734" lon="7.25036"><ele>553.6</ele><time>2016-08-28T15:10:17Z</time></trkpt>
<trkpt lat="46.19726" lon="7.25029"><ele>553.8</ele><time>2016-08-28T15:10:19Z</time></trkpt>
<trkpt lat="46.19719" lon="7.25023"><ele>554</ele><time>2016-08-28T15:10:21Z</time></trkpt>
<trkpt lat="46.19711" lon="7.25017"><ele>554.2</ele><time>2016-08-28T15:10:23Z</time></trkpt>
<trkpt lat="46.19704" lon="7.25011"><ele>554.2</ele><time>2016-08-28T15:10:25Z</time></trkpt>
<trkpt lat="46.19696" lon="7.25006"><ele>554.4</ele><time>2016-08-28T15:10:27Z</time></trkpt>
<trkpt lat="46.19688" lon="7.25"><ele>554.6</ele><time>2016-08-28T15:10:29Z</time></trkpt>
<trkpt lat="46.19685" lon="7.24997"><ele>554.6</ele><time>2016-08-28T15:10:30Z</time></trkpt>
<trkpt lat="46.19681" lon="7.24993"><ele>554.8</ele><time>2016-08-28T15:10:31Z</time></trkpt>
<trkpt lat="46.19674" lon="7.24985"><ele>555</ele><time>2016-08-28T15:10:33Z</time></trkpt>
<trkpt lat="46.19667" lon="7.24978"><ele>555</ele><time>2016-08-28T15:10:35Z</time></trkpt>
<trkpt lat="46.19664" lon="7.24974"><ele>555.2</ele><time>2016-08-28T15:10:36Z</time></trkpt>
<trkpt lat="46.1966" lon="7.2497"><ele>555.2</ele><time>2016-08-28T15:10:37Z</time></trkpt>
<trkpt lat="46.19654" lon="7.24962"><ele>555.4</ele><time>2016-08-28T15:10:39Z</time></trkpt>
<trkpt lat="46.19647" lon="7.24955"><ele>555.6</ele><time>2016-08-28T15:10:41Z</time></trkpt>
<trkpt lat="46.19642" lon="7.24947"><ele>555.8</ele><time>2016-08-28T15:10:43Z</time></trkpt>
<trkpt lat="46.19637" lon="7.24938"><ele>556</ele><time>2016-08-28T15:10:45Z</time></trkpt>
<trkpt lat="46.19632" lon="7.2493"><ele>556</ele><time>2016-08-28T15:10:47Z</time></trkpt>
<trkpt lat="46.19626" lon="7.24921"><ele>556.2</ele><time>2016-08-28T15:10:49Z</time></trkpt>
<trkpt lat="46.19621" lon="7.24913"><ele>556.4</ele><time>2016-08-28T15:10:51Z</time></trkpt>
<trkpt lat="46.19616" lon="7.24905"><ele>556.6</ele><time>2016-08-28T15:10:53Z</time></trkpt>
<trkpt lat="46.19612" lon="7.24897"><ele>556.8</ele><time>2016-08-28T15:10:55Z</time></trkpt>
<trkpt lat="46.19607" lon="7.24889"><ele>557</ele><time>2016-08-28T15:10:57Z</time></trkpt>
<trkpt lat="46.19603" lon="7.24881"><ele>557.2</ele><time>2016-08-28T15:10:59Z</time></trkpt>
<trkpt lat="46.19598" lon="7.24872"><ele>557.2</ele><time>2016-08-28T15:11:01Z</time></trkpt>
<trkpt lat="46.19594" lon="7.24864"><ele>557.4</ele><time>2016-08-28T15:11:03Z</time></trkpt>
<trkpt lat="46.19589" lon="7.24856"><ele>557.6</ele><time>2016-08-28T15:11:05Z</time></trkpt>
<trkpt lat="46.19587" lon="7.24852"><ele>557.8</ele><time>2016-08-28T15:11:06Z</time></trkpt>
<trkpt lat="46.19585" lon="7.24849"><ele>557.8</ele><time>2016-08-28T15:11:07Z</time></trkpt>
<trkpt lat="46.1958" lon="7.24842"><ele>558</ele><time>2016-08-28T15:11:09Z</time></trkpt>
<trkpt lat="46.19575" lon="7.24836"><ele>558.2</ele><time>2016-08-28T15:11:11Z</time></trkpt>
<trkpt lat="46.19571" lon="7.24829"><ele>558.4</ele><time>2016-08-28T15:11:13Z</time></trkpt>
<trkpt lat="46.19566" lon="7.24823"><ele>558</ele><time>2016-08-28T15:11:15Z</time></trkpt>
<trkpt lat="46.19561" lon="7.24816"><ele>557.8</ele><time>2016-08-28T15:11:17Z</time></trkpt>
<trkpt lat="46.19559" lon="7.24813"><ele>557.8</ele><time>2016-08-28T15:11:18Z</time></trkpt>
<trkpt lat="46.19556" lon="7.24815"><ele>557.6</ele><time>2016-08-28T15:11:19Z</time></trkpt>
<trkpt lat="46.19549" lon="7.24821"><ele>557.4</ele><time>2016-08-28T15:11:21Z</time></trkpt>
<trkpt lat="46.19543" lon="7.24826"><ele>557</ele><time>2016-08-28T15:11:23Z</time></trkpt>
<trkpt lat="46.19535" lon="7.24838"><ele>556.8</ele><time>2016-08-28T15:11:25Z</time></trkpt>
<trkpt lat="46.19524" lon="7.24843"><ele>556.6</ele><time>2016-08-28T15:11:27Z</time></trkpt>
<trkpt lat="46.19514" lon="7.24836"><ele>556.4</ele><time>2016-08-28T15:11:29Z</time></trkpt>
<trkpt lat="46.19507" lon="7.24826"><ele>556</ele><time>2016-08-28T15:11:31Z</time></trkpt>
<trkpt lat="46.195" lon="7.24816"><ele>555.8</ele><time>2016-08-28T15:11:33Z</time></trkpt>
<trkpt lat="46.19496" lon="7.24811"><ele>555.6</ele><time>2016-08-28T15:11:34Z</time></trkpt>
<trkpt lat="46.19493" lon="7.24806"><ele>555.6</ele><time>2016-08-28T15:11:35Z</time></trkpt>
<trkpt lat="46.19486" lon="7.24795"><ele>555.6</ele><time>2016-08-28T15:11:37Z</time></trkpt>
<trkpt lat="46.19482" lon="7.2479"><ele>555.6</ele><time>2016-08-28T15:11:38Z</time></trkpt>
<trkpt lat="46.19479" lon="7.24785"><ele>555.6</ele><time>2016-08-28T15:11:39Z</time></trkpt>
<trkpt lat="46.19473" lon="7.24776"><ele>555.6</ele><time>2016-08-28T15:11:41Z</time></trkpt>
<trkpt lat="46.19467" lon="7.24766"><ele>555.6</ele><time>2016-08-28T15:11:43Z</time></trkpt>
<trkpt lat="46.19462" lon="7.24757"><ele>555.6</ele><time>2016-08-28T15:11:45Z</time></trkpt>
<trkpt lat="46.19459" lon="7.24752"><ele>555.6</ele><time>2016-08-28T15:11:46Z</time></trkpt>
<trkpt lat="46.19456" lon="7.24747"><ele>555.6</ele><time>2016-08-28T15:11:47Z</time></trkpt>
<trkpt lat="46.1945" lon="7.24737"><ele>555.8</ele><time>2016-08-28T15:11:49Z</time></trkpt>
<trkpt lat="46.19445" lon="7.24728"><ele>556</ele><time>2016-08-28T15:11:51Z</time></trkpt>
<trkpt lat="46.19439" lon="7.2472"><ele>556</ele><time>2016-08-28T15:11:53Z</time></trkpt>
<trkpt lat="46.19433" lon="7.24711"><ele>556.2</ele><time>2016-08-28T15:11:55Z</time></trkpt>
<trkpt lat="46.19428" lon="7.24702"><ele>556.4</ele><time>2016-08-28T15:11:57Z</time></trkpt>
<trkpt lat="46.19422" lon="7.24693"><ele>556.6</ele><time>2016-08-28T15:11:59Z</time></trkpt>
<trkpt lat="46.1942" lon="7.24689"><ele>556.6</ele><time>2016-08-28T15:12:00Z</time></trkpt>
<trkpt lat="46.19417" lon="7.24684"><ele>556.6</ele><time>2016-08-28T15:12:01Z</time></trkpt>
<trkpt lat="46.19411" lon="7.24675"><ele>556.8</ele><time>2016-08-28T15:12:03Z</time></trkpt>
<trkpt lat="46.19405" lon="7.24666"><ele>557</ele><time>2016-08-28T15:12:05Z</time></trkpt>
<trkpt lat="46.19399" lon="7.24657"><ele>557</ele><time>2016-08-28T15:12:07Z</time></trkpt>
<trkpt lat="46.19393" lon="7.24648"><ele>557.2</ele><time>2016-08-28T15:12:09Z</time></trkpt>
<trkpt lat="46.19388" lon="7.24639"><ele>557.4</ele><time>2016-08-28T15:12:11Z</time></trkpt>
<trkpt lat="46.19383" lon="7.24632"><ele>557.4</ele><time>2016-08-28T15:12:13Z</time></trkpt>
<trkpt lat="46.19378" lon="7.24625"><ele>557.6</ele><time>2016-08-28T15:12:15Z</time></trkpt>
<trkpt lat="46.19374" lon="7.24618"><ele>557.8</ele><time>2016-08-28T15:12:17Z</time></trkpt>
<trkpt lat="46.19369" lon="7.24611"><ele>558</ele><time>2016-08-28T15:12:19Z</time></trkpt>
<trkpt lat="46.19364" lon="7.24604"><ele>558</ele><time>2016-08-28T15:12:21Z</time></trkpt>
<trkpt lat="46.1936" lon="7.24597"><ele>558.2</ele><time>2016-08-28T15:12:23Z</time></trkpt>
<trkpt lat="46.19355" lon="7.24591"><ele>558.4</ele><time>2016-08-28T15:12:25Z</time></trkpt>
<trkpt lat="46.19352" lon="7.24585"><ele>558.4</ele><time>2016-08-28T15:12:27Z</time></trkpt>
<trkpt lat="46.19349" lon="7.2458"><ele>558.6</ele><time>2016-08-28T15:12:29Z</time></trkpt>
<trkpt lat="46.19346" lon="7.24575"><ele>558.8</ele><time>2016-08-28T15:12:31Z</time></trkpt>
<trkpt lat="46.19343" lon="7.2457"><ele>559.2</ele><time>2016-08-28T15:12:33Z</time></trkpt>
<trkpt lat="46.1934" lon="7.24565"><ele>559.6</ele><time>2016-08-28T15:12:35Z</time></trkpt>
<trkpt lat="46.19337" lon="7.2456"><ele>559.8</ele><time>2016-08-28T15:12:37Z</time></trkpt>
<trkpt lat="46.19334" lon="7.24555"><ele>560.2</ele><time>2016-08-28T15:12:39Z</time></trkpt>
<trkpt lat="46.19331" lon="7.2455"><ele>560.6</ele><time>2016-08-28T15:12:41Z</time></trkpt>
<trkpt lat="46.1933" lon="7.24548"><ele>560.8</ele><time>2016-08-28T15:12:42Z</time></trkpt>
<trkpt lat="46.19328" lon="7.24545"><ele>561</ele><time>2016-08-28T15:12:43Z</time></trkpt>
<trkpt lat="46.19325" lon="7.2454"><ele>561</ele><time>2016-08-28T15:12:45Z</time></trkpt>
<trkpt lat="46.19324" lon="7.24536"><ele>561.2</ele><time>2016-08-28T15:12:47Z</time></trkpt>
<trkpt lat="46.19324" lon="7.24531"><ele>561.2</ele><time>2016-08-28T15:12:49Z</time></trkpt>
<trkpt lat="46.19323" lon="7.24526"><ele>561.4</ele><time>2016-08-28T15:12:51Z</time></trkpt>
<trkpt lat="46.19323" lon="7.24524"><ele>561.4</ele><time>2016-08-28T15:12:52Z</time></trkpt>
<trkpt lat="46.19324" lon="7.24525"><ele>561.6</ele><time>2016-08-28T15:12:53Z</time></trkpt>
<trkpt lat="46.19326" lon="7.24526"><ele>561.4</ele><time>2016-08-28T15:12:55Z</time></trkpt>
<trkpt lat="46.19329" lon="7.24528"><ele>561.2</ele><time>2016-08-28T15:12:57Z</time></trkpt>
<trkpt lat="46.1933" lon="7.24529"><ele>561</ele><time>2016-08-28T15:12:58Z</time></trkpt>
<trkpt lat="46.19328" lon="7.24531"><ele>561</ele><time>2016-08-28T15:12:59Z</time></trkpt>
<trkpt lat="46.19323" lon="7.24536"><ele>560.8</ele><time>2016-08-28T15:13:01Z</time></trkpt>
<trkpt lat="46.19317" lon="7.24541"><ele>560.6</ele><time>2016-08-28T15:13:03Z</time></trkpt>
<trkpt lat="46.19312" lon="7.24546"><ele>560.4</ele><time>2016-08-28T15:13:05Z</time></trkpt>
<trkpt lat="46.19307" lon="7.24551"><ele>560.2</ele><time>2016-08-28T15:13:07Z</time></trkpt>
<trkpt lat="46.19301" lon="7.24556"><ele>560</ele><time>2016-08-28T15:13:09Z</time></trkpt>
<trkpt lat="46.19296" lon="7.24561"><ele>559.8</ele><time>2016-08-28T15:13:11Z</time></trkpt>
<trkpt lat="46.1929" lon="7.24566"><ele>559.6</ele><time>2016-08-28T15:13:13Z</time></trkpt>
<trkpt lat="46.19282" lon="7.24575"><ele>559.4</ele><time>2016-08-28T15:13:15Z</time></trkpt>
<trkpt lat="46.19274" lon="7.24584"><ele>559.2</ele><time>2016-08-28T15:13:17Z</time></trkpt>
<trkpt lat="46.19266" lon="7.24593"><ele>559</ele><time>2016-08-28T15:13:19Z</time></trkpt>
<trkpt lat="46.19257" lon="7.24602"><ele>558.8</ele><time>2016-08-28T15:13:21Z</time></trkpt>
<trkpt lat="46.19253" lon="7.24606"><ele>558.6</ele><time>2016-08-28T15:13:22Z</time></trkpt>
<trkpt lat="46.19249" lon="7.24611"><ele>558.6</ele><time>2016-08-28T15:13:23Z</time></trkpt>
<trkpt lat="46.19242" lon="7.24622"><ele>558.4</ele><time>2016-08-28T15:13:25Z</time></trkpt>
<trkpt lat="46.19235" lon="7.24632"><ele>558.2</ele><time>2016-08-28T15:13:27Z</time></trkpt>
<trkpt lat="46.19231" lon="7.24637"><ele>558</ele><time>2016-08-28T15:13:28Z</time></trkpt>
<trkpt lat="46.19227" lon="7.24636"><ele>558</ele><time>2016-08-28T15:13:29Z</time></trkpt>
<trkpt lat="46.19223" lon="7.24634"><ele>558</ele><time>2016-08-28T15:13:30Z</time></trkpt>
<trkpt lat="46.1922" lon="7.24629"><ele>557.8</ele><time>2016-08-28T15:13:31Z</time></trkpt>
<trkpt lat="46.19213" lon="7.24617"><ele>557.6</ele><time>2016-08-28T15:13:33Z</time></trkpt>
<trkpt lat="46.19206" lon="7.24606"><ele>557.4</ele><time>2016-08-28T15:13:35Z</time></trkpt>
<trkpt lat="46.19199" lon="7.24594"><ele>557.2</ele><time>2016-08-28T15:13:37Z</time></trkpt>
<trkpt lat="46.19196" lon="7.24588"><ele>557.2</ele><time>2016-08-28T15:13:38Z</time></trkpt>
<trkpt lat="46.19192" lon="7.24582"><ele>556.8</ele><time>2016-08-28T15:13:39Z</time></trkpt>
<trkpt lat="46.19184" lon="7.24569"><ele>556.4</ele><time>2016-08-28T15:13:41Z</time></trkpt>
<trkpt lat="46.19176" lon="7.24555"><ele>555.8</ele><time>2016-08-28T15:13:43Z</time></trkpt>
<trkpt lat="46.19172" lon="7.24549"><ele>555.6</ele><time>2016-08-28T15:13:44Z</time></trkpt>
<trkpt lat="46.19168" lon="7.24542"><ele>555.4</ele><time>2016-08-28T15:13:45Z</time></trkpt>
<trkpt lat="46.1916" lon="7.24528"><ele>554.8</ele><time>2016-08-28T15:13:47Z</time></trkpt>
<trkpt lat="46.19151" lon="7.24514"><ele>554.4</ele><time>2016-08-28T15:13:49Z</time></trkpt>
<trkpt lat="46.19143" lon="7.245"><ele>554</ele><time>2016-08-28T15:13:51Z</time></trkpt>
<trkpt lat="46.19134" lon="7.24485"><ele>553.4</ele><time>2016-08-28T15:13:53Z</time></trkpt>
<trkpt lat="46.19129" lon="7.24478"><ele>553.2</ele><time>2016-08-28T15:13:54Z</time></trkpt>
<trkpt lat="46.19125" lon="7.24472"><ele>553</ele><time>2016-08-28T15:13:55Z</time></trkpt>
<trkpt lat="46.19118" lon="7.2446"><ele>552.6</ele><time>2016-08-28T15:13:57Z</time></trkpt>
<trkpt lat="46.1911" lon="7.24447"><ele>552.2</ele><time>2016-08-28T15:13:59Z</time></trkpt>
<trkpt lat="46.19102" lon="7.24435"><ele>552</ele><time>2016-08-28T15:14:01Z</time></trkpt>
<trkpt lat="46.19098" lon="7.24429"><ele>552</ele><time>2016-08-28T15:14:02Z</time></trkpt>
<trkpt lat="46.19095" lon="7.24423"><ele>551.8</ele><time>2016-08-28T15:14:03Z</time></trkpt>
<trkpt lat="46.19087" lon="7.24411"><ele>551.8</ele><time>2016-08-28T15:14:05Z</time></trkpt>
<trkpt lat="46.19079" lon="7.24398"><ele>551.6</ele><time>2016-08-28T15:14:07Z</time></trkpt>
<trkpt lat="46.19071" lon="7.24386"><ele>551.6</ele><time>2016-08-28T15:14:09Z</time></trkpt>
<trkpt lat="46.19067" lon="7.2438"><ele>551.4</ele><time>2016-08-28T15:14:10Z</time></trkpt>
<trkpt lat="46.19064" lon="7.24375"><ele>551.4</ele><time>2016-08-28T15:14:11Z</time></trkpt>
<trkpt lat="46.19057" lon="7.24365"><ele>551.2</ele><time>2016-08-28T15:14:13Z</time></trkpt>
<trkpt lat="46.1905" lon="7.24356"><ele>551.2</ele><time>2016-08-28T15:14:15Z</time></trkpt>
<trkpt lat="46.19044" lon="7.24346"><ele>551</ele><time>2016-08-28T15:14:17Z</time></trkpt>
<trkpt lat="46.19037" lon="7.24336"><ele>551</ele><time>2016-08-28T15:14:19Z</time></trkpt>
<trkpt lat="46.19034" lon="7.24331"><ele>550.8</ele><time>2016-08-28T15:14:20Z</time></trkpt>
<trkpt lat="46.1903" lon="7.24327"><ele>550.8</ele><time>2016-08-28T15:14:21Z</time></trkpt>
<trkpt lat="46.19024" lon="7.24317"><ele>550.6</ele><time>2016-08-28T15:14:23Z</time></trkpt>
<trkpt lat="46.19017" lon="7.24308"><ele>550.4</ele><time>2016-08-28T15:14:25Z</time></trkpt>
<trkpt lat="46.19011" lon="7.24298"><ele>550.4</ele><time>2016-08-28T15:14:27Z</time></trkpt>
<trkpt lat="46.19004" lon="7.24289"><ele>550.2</ele><time>2016-08-28T15:14:29Z</time></trkpt>
<trkpt lat="46.19001" lon="7.24284"><ele>550.2</ele><time>2016-08-28T15:14:30Z</time></trkpt>
<trkpt lat="46.18997" lon="7.24279"><ele>550</ele><time>2016-08-28T15:14:31Z</time></trkpt>
<trkpt lat="46.18989" lon="7.24268"><ele>550</ele><time>2016-08-28T15:14:33Z</time></trkpt>
<trkpt lat="46.18982" lon="7.24257"><ele>549.8</ele><time>2016-08-28T15:14:35Z</time></trkpt>
<trkpt lat="46.18974" lon="7.24247"><ele>549.6</ele><time>2016-08-28T15:14:37Z</time></trkpt>
<trkpt lat="46.18967" lon="7.24236"><ele>549.6</ele><time>2016-08-28T15:14:39Z</time></trkpt>
<trkpt lat="46.1896" lon="7.24225"><ele>549.4</ele><time>2016-08-28T15:14:41Z</time></trkpt>
<trkpt lat="46.18954" lon="7.24215"><ele>549.2</ele><time>2016-08-28T15:14:43Z</time></trkpt>
<trkpt lat="46.18948" lon="7.24204"><ele>549.2</ele><time>2016-08-28T15:14:45Z</time></trkpt>
<trkpt lat="46.18941" lon="7.24194"><ele>549</ele><time>2016-08-28T15:14:47Z</time></trkpt>
<trkpt lat="46.18935" lon="7.24184"><ele>548.8</ele><time>2016-08-28T15:14:49Z</time></trkpt>
<trkpt lat="46.18928" lon="7.24175"><ele>548.6</ele><time>2016-08-28T15:14:51Z</time></trkpt>
<trkpt lat="46.1892" lon="7.24166"><ele>548.6</ele><time>2016-08-28T15:14:53Z</time></trkpt>
<trkpt lat="46.18913" lon="7.24157"><ele>548.4</ele><time>2016-08-28T15:14:55Z</time></trkpt>
<trkpt lat="46.18905" lon="7.24149"><ele>548.2</ele><time>2016-08-28T15:14:57Z</time></trkpt>
<trkpt lat="46.18898" lon="7.2414"><ele>548.2</ele><time>2016-08-28T15:14:59Z</time></trkpt>
<trkpt lat="46.18892" lon="7.24132"><ele>548</ele><time>2016-08-28T15:15:01Z</time></trkpt>
<trkpt lat="46.18887" lon="7.24123"><ele>547.8</ele><time>2016-08-28T15:15:03Z</time></trkpt>
<trkpt lat="46.18882" lon="7.24115"><ele>547.8</ele><time>2016-08-28T15:15:05Z</time></trkpt>
<trkpt lat="46.18876" lon="7.24106"><ele>547.6</ele><time>2016-08-28T15:15:07Z</time></trkpt>
<trkpt lat="46.18871" lon="7.24098"><ele>547.4</ele><time>2016-08-28T15:15:09Z</time></trkpt>
<trkpt lat="46.18865" lon="7.2409"><ele>547.4</ele><time>2016-08-28T15:15:11Z</time></trkpt>
<trkpt lat="46.1886" lon="7.24082"><ele>547.2</ele><time>2016-08-28T15:15:13Z</time></trkpt>
<trkpt lat="46.18854" lon="7.24074"><ele>547</ele><time>2016-08-28T15:15:15Z</time></trkpt>
<trkpt lat="46.18848" lon="7.24066"><ele>547</ele><time>2016-08-28T15:15:17Z</time></trkpt>
<trkpt lat="46.18843" lon="7.24058"><ele>546.8</ele><time>2016-08-28T15:15:19Z</time></trkpt>
<trkpt lat="46.18837" lon="7.2405"><ele>546.6</ele><time>2016-08-28T15:15:21Z</time></trkpt>
<trkpt lat="46.18831" lon="7.24042"><ele>546.4</ele><time>2016-08-28T15:15:23Z</time></trkpt>
<trkpt lat="46.18824" lon="7.24032"><ele>546.4</ele><time>2016-08-28T15:15:25Z</time></trkpt>
<trkpt lat="46.18817" lon="7.24022"><ele>546.2</ele><time>2016-08-28T15:15:27Z</time></trkpt>
<trkpt lat="46.18813" lon="7.24017"><ele>546.2</ele><time>2016-08-28T15:15:28Z</time></trkpt>
<trkpt lat="46.18809" lon="7.24012"><ele>545.8</ele><time>2016-08-28T15:15:29Z</time></trkpt>
<trkpt lat="46.18802" lon="7.24002"><ele>544.8</ele><time>2016-08-28T15:15:31Z</time></trkpt>
<trkpt lat="46.18798" lon="7.23997"><ele>544.4</ele><time>2016-08-28T15:15:32Z</time></trkpt>
<trkpt lat="46.18796" lon="7.23993"><ele>544</ele><time>2016-08-28T15:15:33Z</time></trkpt>
<trkpt lat="46.18792" lon="7.23987"><ele>544.4</ele><time>2016-08-28T15:15:35Z</time></trkpt>
<trkpt lat="46.18789" lon="7.2398"><ele>544.6</ele><time>2016-08-28T15:15:37Z</time></trkpt>
<trkpt lat="46.18785" lon="7.23974"><ele>545</ele><time>2016-08-28T15:15:39Z</time></trkpt>
<trkpt lat="46.18781" lon="7.23968"><ele>545.2</ele><time>2016-08-28T15:15:41Z</time></trkpt>
<trkpt lat="46.18778" lon="7.23961"><ele>545.6</ele><time>2016-08-28T15:15:43Z</time></trkpt>
<trkpt lat="46.18774" lon="7.23955"><ele>545.8</ele><time>2016-08-28T15:15:45Z</time></trkpt>
<trkpt lat="46.18771" lon="7.23948"><ele>546.2</ele><time>2016-08-28T15:15:47Z</time></trkpt>
<trkpt lat="46.18769" lon="7.23945"><ele>546.4</ele><time>2016-08-28T15:15:48Z</time></trkpt>
<trkpt lat="46.18767" lon="7.23941"><ele>546.8</ele><time>2016-08-28T15:15:49Z</time></trkpt>
<trkpt lat="46.18762" lon="7.23934"><ele>547.2</ele><time>2016-08-28T15:15:51Z</time></trkpt>
<trkpt lat="46.18758" lon="7.23927"><ele>547.8</ele><time>2016-08-28T15:15:53Z</time></trkpt>
<trkpt lat="46.18753" lon="7.23919"><ele>548.2</ele><time>2016-08-28T15:15:55Z</time></trkpt>
<trkpt lat="46.18749" lon="7.23912"><ele>548.4</ele><time>2016-08-28T15:15:57Z</time></trkpt>
<trkpt lat="46.18745" lon="7.23904"><ele>548.4</ele><time>2016-08-28T15:15:59Z</time></trkpt>
<trkpt lat="46.1874" lon="7.23897"><ele>548.6</ele><time>2016-08-28T15:16:01Z</time></trkpt>
<trkpt lat="46.18738" lon="7.23893"><ele>548.6</ele><time>2016-08-28T15:16:02Z</time></trkpt>
<trkpt lat="46.18735" lon="7.23888"><ele>548.6</ele><time>2016-08-28T15:16:03Z</time></trkpt>
<trkpt lat="46.18729" lon="7.23878"><ele>548.8</ele><time>2016-08-28T15:16:05Z</time></trkpt>
<trkpt lat="46.18723" lon="7.23868"><ele>548.8</ele><time>2016-08-28T15:16:07Z</time></trkpt>
<trkpt lat="46.18716" lon="7.23858"><ele>549</ele><time>2016-08-28T15:16:09Z</time></trkpt>
<trkpt lat="46.1871" lon="7.23848"><ele>549</ele><time>2016-08-28T15:16:11Z</time></trkpt>
<trkpt lat="46.18707" lon="7.23843"><ele>549.2</ele><time>2016-08-28T15:16:12Z</time></trkpt>
<trkpt lat="46.18704" lon="7.23839"><ele>549</ele><time>2016-08-28T15:16:13Z</time></trkpt>
<trkpt lat="46.18698" lon="7.2383"><ele>549</ele><time>2016-08-28T15:16:15Z</time></trkpt>
<trkpt lat="46.18692" lon="7.23821"><ele>548.8</ele><time>2016-08-28T15:16:17Z</time></trkpt>
<trkpt lat="46.18686" lon="7.23812"><ele>548.6</ele><time>2016-08-28T15:16:19Z</time></trkpt>
<trkpt lat="46.1868" lon="7.23803"><ele>548.6</ele><time>2016-08-28T15:16:21Z</time></trkpt>
<trkpt lat="46.18674" lon="7.23795"><ele>548.4</ele><time>2016-08-28T15:16:23Z</time></trkpt>
<trkpt lat="46.18668" lon="7.23786"><ele>548.2</ele><time>2016-08-28T15:16:25Z</time></trkpt>
<trkpt lat="46.18662" lon="7.23778"><ele>548.2</ele><time>2016-08-28T15:16:27Z</time></trkpt>
<trkpt lat="46.18656" lon="7.2377"><ele>548</ele><time>2016-08-28T15:16:29Z</time></trkpt>
<trkpt lat="46.1865" lon="7.23762"><ele>547.8</ele><time>2016-08-28T15:16:31Z</time></trkpt>
<trkpt lat="46.18644" lon="7.23754"><ele>547.8</ele><time>2016-08-28T15:16:33Z</time></trkpt>
<trkpt lat="46.18638" lon="7.23746"><ele>547.6</ele><time>2016-08-28T15:16:35Z</time></trkpt>
<trkpt lat="46.18632" lon="7.23739"><ele>547.4</ele><time>2016-08-28T15:16:37Z</time></trkpt>
<trkpt lat="46.18625" lon="7.23731"><ele>547.4</ele><time>2016-08-28T15:16:39Z</time></trkpt>
<trkpt lat="46.18621" lon="7.23727"><ele>547.2</ele><time>2016-08-28T15:16:40Z</time></trkpt>
<trkpt lat="46.18616" lon="7.2373"><ele>547.2</ele><time>2016-08-28T15:16:41Z</time></trkpt>
<trkpt lat="46.18605" lon="7.23739"><ele>547.2</ele><time>2016-08-28T15:16:43Z</time></trkpt>
<trkpt lat="46.18594" lon="7.23747"><ele>547</ele><time>2016-08-28T15:16:45Z</time></trkpt>
<trkpt lat="46.18589" lon="7.23751"><ele>547</ele><time>2016-08-28T15:16:46Z</time></trkpt>
<trkpt lat="46.18583" lon="7.23756"><ele>546.8</ele><time>2016-08-28T15:16:47Z</time></trkpt>
<trkpt lat="46.18578" lon="7.2376"><ele>546.8</ele><time>2016-08-28T15:16:48Z</time></trkpt>
<trkpt lat="46.1857" lon="7.23766"><ele>546.8</ele><time>2016-08-28T15:16:49Z</time></trkpt>
<trkpt lat="46.18563" lon="7.23772"><ele>546.8</ele><time>2016-08-28T15:16:50Z</time></trkpt>
<trkpt lat="46.1856" lon="7.23772"><ele>546.8</ele><time>2016-08-28T15:16:51Z</time></trkpt>
<trkpt lat="46.18555" lon="7.2377"><ele>546.8</ele><time>2016-08-28T15:16:53Z</time></trkpt>
<trkpt lat="46.18552" lon="7.23768"><ele>546.8</ele><time>2016-08-28T15:16:54Z</time></trkpt>
<trkpt lat="46.18552" lon="7.23771"><ele>546.6</ele><time>2016-08-28T15:16:55Z</time></trkpt>
<trkpt lat="46.18553" lon="7.23778"><ele>546.6</ele><time>2016-08-28T15:16:57Z</time></trkpt>
<trkpt lat="46.18553" lon="7.23781"><ele>546.6</ele><time>2016-08-28T15:16:58Z</time></trkpt>
<trkpt lat="46.18549" lon="7.23785"><ele>546.6</ele><time>2016-08-28T15:16:59Z</time></trkpt>
<trkpt lat="46.18542" lon="7.23793"><ele>546.6</ele><time>2016-08-28T15:17:01Z</time></trkpt>
<trkpt lat="46.18534" lon="7.23801"><ele>546.4</ele><time>2016-08-28T15:17:03Z</time></trkpt>
<trkpt lat="46.1853" lon="7.23804"><ele>546.4</ele><time>2016-08-28T15:17:04Z</time></trkpt>
<trkpt lat="46.18526" lon="7.23808"><ele>546.2</ele><time>2016-08-28T15:17:05Z</time></trkpt>
<trkpt lat="46.18519" lon="7.23816"><ele>545.8</ele><time>2016-08-28T15:17:07Z</time></trkpt>
<trkpt lat="46.18515" lon="7.2382"><ele>545.4</ele><time>2016-08-28T15:17:08Z</time></trkpt>
<trkpt lat="46.18509" lon="7.23825"><ele>545.2</ele><time>2016-08-28T15:17:09Z</time></trkpt>
<trkpt lat="46.18491" lon="7.23841"><ele>544.4</ele><time>2016-08-28T15:17:12Z</time></trkpt>
<trkpt lat="46.18485" lon="7.23847"><ele>544.2</ele><time>2016-08-28T15:17:13Z</time></trkpt>
<trkpt lat="46.18479" lon="7.23852"><ele>543.8</ele><time>2016-08-28T15:17:14Z</time></trkpt>
<trkpt lat="46.18473" lon="7.23858"><ele>543.4</ele><time>2016-08-28T15:17:15Z</time></trkpt>
<trkpt lat="46.18459" lon="7.2387"><ele>542.2</ele><time>2016-08-28T15:17:17Z</time></trkpt>
<trkpt lat="46.18444" lon="7.23883"><ele>541</ele><time>2016-08-28T15:17:19Z</time></trkpt>
<trkpt lat="46.18429" lon="7.23896"><ele>540</ele><time>2016-08-28T15:17:21Z</time></trkpt>
<trkpt lat="46.18413" lon="7.23912"><ele>538.8</ele><time>2016-08-28T15:17:23Z</time></trkpt>
<trkpt lat="46.18396" lon="7.23927"><ele>537.8</ele><time>2016-08-28T15:17:25Z</time></trkpt>
<trkpt lat="46.18388" lon="7.23935"><ele>537.2</ele><time>2016-08-28T15:17:26Z</time></trkpt>
<trkpt lat="46.1838" lon="7.23942"><ele>537.2</ele><time>2016-08-28T15:17:27Z</time></trkpt>
<trkpt lat="46.18365" lon="7.23956"><ele>537</ele><time>2016-08-28T15:17:29Z</time></trkpt>
<trkpt lat="46.1835" lon="7.23971"><ele>537</ele><time>2016-08-28T15:17:31Z</time></trkpt>
<trkpt lat="46.18339" lon="7.23976"><ele>537</ele><time>2016-08-28T15:17:33Z</time></trkpt>
<trkpt lat="46.18334" lon="7.23979"><ele>537</ele><time>2016-08-28T15:17:34Z</time></trkpt>
<trkpt lat="46.18331" lon="7.23976"><ele>536.8</ele><time>2016-08-28T15:17:35Z</time></trkpt>
<trkpt lat="46.18328" lon="7.23973"><ele>536.8</ele><time>2016-08-28T15:17:36Z</time></trkpt>
<trkpt lat="46.18325" lon="7.23968"><ele>536.8</ele><time>2016-08-28T15:17:37Z</time></trkpt>
<trkpt lat="46.1832" lon="7.23956"><ele>536.8</ele><time>2016-08-28T15:17:39Z</time></trkpt>
<trkpt lat="46.18315" lon="7.23945"><ele>536.8</ele><time>2016-08-28T15:17:41Z</time></trkpt>
<trkpt lat="46.18313" lon="7.2394"><ele>536.6</ele><time>2016-08-28T15:17:42Z</time></trkpt>
<trkpt lat="46.1831" lon="7.23934"><ele>536.6</ele><time>2016-08-28T15:17:43Z</time></trkpt>
<trkpt lat="46.18306" lon="7.23923"><ele>536.6</ele><time>2016-08-28T15:17:45Z</time></trkpt>
<trkpt lat="46.18303" lon="7.23917"><ele>536.6</ele><time>2016-08-28T15:17:46Z</time></trkpt>
<trkpt lat="46.183" lon="7.23911"><ele>536.6</ele><time>2016-08-28T15:17:47Z</time></trkpt>
<trkpt lat="46.18297" lon="7.23905"><ele>536.6</ele><time>2016-08-28T15:17:48Z</time></trkpt>
<trkpt lat="46.18294" lon="7.23899"><ele>536.6</ele><time>2016-08-28T15:17:49Z</time></trkpt>
<trkpt lat="46.18288" lon="7.23887"><ele>536.6</ele><time>2016-08-28T15:17:51Z</time></trkpt>
<trkpt lat="46.18282" lon="7.23875"><ele>536.6</ele><time>2016-08-28T15:17:53Z</time></trkpt>
<trkpt lat="46.18276" lon="7.23863"><ele>536.6</ele><time>2016-08-28T15:17:55Z</time></trkpt>
<trkpt lat="46.18271" lon="7.2385"><ele>536.6</ele><time>2016-08-28T15:17:57Z</time></trkpt>
<trkpt lat="46.18266" lon="7.23837"><ele>536.6</ele><time>2016-08-28T15:17:59Z</time></trkpt>
<trkpt lat="46.1826" lon="7.23823"><ele>536.6</ele><time>2016-08-28T15:18:01Z</time></trkpt>
<trkpt lat="46.18255" lon="7.2381"><ele>536.4</ele><time>2016-08-28T15:18:03Z</time></trkpt>
<trkpt lat="46.18253" lon="7.23804"><ele>536.4</ele><time>2016-08-28T15:18:04Z</time></trkpt>
<trkpt lat="46.1825" lon="7.23797"><ele>536.4</ele><time>2016-08-28T15:18:05Z</time></trkpt>
<trkpt lat="46.18246" lon="7.23783"><ele>536.4</ele><time>2016-08-28T15:18:07Z</time></trkpt>
<trkpt lat="46.18242" lon="7.23769"><ele>536.4</ele><time>2016-08-28T15:18:09Z</time></trkpt>
<trkpt lat="46.18237" lon="7.23755"><ele>536.4</ele><time>2016-08-28T15:18:11Z</time></trkpt>
<trkpt lat="46.18233" lon="7.23741"><ele>536.4</ele><time>2016-08-28T15:18:13Z</time></trkpt>
<trkpt lat="46.18229" lon="7.23726"><ele>536.4</ele><time>2016-08-28T15:18:15Z</time></trkpt>
<trkpt lat="46.18226" lon="7.23711"><ele>536.4</ele><time>2016-08-28T15:18:17Z</time></trkpt>
<trkpt lat="46.18222" lon="7.23696"><ele>536.4</ele><time>2016-08-28T15:18:19Z</time></trkpt>
<trkpt lat="46.18218" lon="7.23681"><ele>536.4</ele><time>2016-08-28T15:18:21Z</time></trkpt>
<trkpt lat="46.18216" lon="7.23673"><ele>536.4</ele><time>2016-08-28T15:18:22Z</time></trkpt>
<trkpt lat="46.18215" lon="7.23666"><ele>536.4</ele><time>2016-08-28T15:18:23Z</time></trkpt>
<trkpt lat="46.18211" lon="7.23652"><ele>536.4</ele><time>2016-08-28T15:18:25Z</time></trkpt>
<trkpt lat="46.18208" lon="7.23637"><ele>536.4</ele><time>2016-08-28T15:18:27Z</time></trkpt>
<trkpt lat="46.18205" lon="7.23623"><ele>536.2</ele><time>2016-08-28T15:18:29Z</time></trkpt>
<trkpt lat="46.18202" lon="7.23608"><ele>536.2</ele><time>2016-08-28T15:18:31Z</time></trkpt>
<trkpt lat="46.18198" lon="7.23594"><ele>536.2</ele><time>2016-08-28T15:18:33Z</time></trkpt>
<trkpt lat="46.18195" lon="7.2358"><ele>536.2</ele><time>2016-08-28T15:18:35Z</time></trkpt>
<trkpt lat="46.18192" lon="7.23566"><ele>536.2</ele><time>2016-08-28T15:18:37Z</time></trkpt>
<trkpt lat="46.18189" lon="7.23552"><ele>536.2</ele><time>2016-08-28T15:18:39Z</time></trkpt>
<trkpt lat="46.18187" lon="7.23545"><ele>536.2</ele><time>2016-08-28T15:18:40Z</time></trkpt>
<trkpt lat="46.18185" lon="7.23538"><ele>536.2</ele><time>2016-08-28T15:18:41Z</time></trkpt>
<trkpt lat="46.18182" lon="7.23525"><ele>536.2</ele><time>2016-08-28T15:18:43Z</time></trkpt>
<trkpt lat="46.18178" lon="7.23512"><ele>536.2</ele><time>2016-08-28T15:18:45Z</time></trkpt>
<trkpt lat="46.18174" lon="7.23498"><ele>536.2</ele><time>2016-08-28T15:18:47Z</time></trkpt>
<trkpt lat="46.1817" lon="7.23485"><ele>536.2</ele><time>2016-08-28T15:18:49Z</time></trkpt>
<trkpt lat="46.18168" lon="7.23478"><ele>536.2</ele><time>2016-08-28T15:18:50Z</time></trkpt>
<trkpt lat="46.18165" lon="7.23472"><ele>536.2</ele><time>2016-08-28T15:18:51Z</time></trkpt>
<trkpt lat="46.18159" lon="7.2346"><ele>536.2</ele><time>2016-08-28T15:18:53Z</time></trkpt>
<trkpt lat="46.18153" lon="7.23447"><ele>536</ele><time>2016-08-28T15:18:55Z</time></trkpt>
<trkpt lat="46.18146" lon="7.23435"><ele>536</ele><time>2016-08-28T15:18:57Z</time></trkpt>
<trkpt lat="46.1814" lon="7.23423"><ele>536</ele><time>2016-08-28T15:18:59Z</time></trkpt>
<trkpt lat="46.18133" lon="7.23411"><ele>536</ele><time>2016-08-28T15:19:01Z</time></trkpt>
<trkpt lat="46.18126" lon="7.234"><ele>536</ele><time>2016-08-28T15:19:03Z</time></trkpt>
<trkpt lat="46.18118" lon="7.23389"><ele>536</ele><time>2016-08-28T15:19:05Z</time></trkpt>
<trkpt lat="46.18111" lon="7.23378"><ele>536</ele><time>2016-08-28T15:19:07Z</time></trkpt>
<trkpt lat="46.18108" lon="7.23373"><ele>536</ele><time>2016-08-28T15:19:08Z</time></trkpt>
<trkpt lat="46.18104" lon="7.23368"><ele>536</ele><time>2016-08-28T15:19:09Z</time></trkpt>
<trkpt lat="46.18096" lon="7.23358"><ele>536.2</ele><time>2016-08-28T15:19:11Z</time></trkpt>
<trkpt lat="46.18092" lon="7.23353"><ele>536.2</ele><time>2016-08-28T15:19:12Z</time></trkpt>
<trkpt lat="46.18089" lon="7.23348"><ele>536.2</ele><time>2016-08-28T15:19:13Z</time></trkpt>
<trkpt lat="46.18081" lon="7.23338"><ele>536.2</ele><time>2016-08-28T15:19:15Z</time></trkpt>
<trkpt lat="46.18073" lon="7.23329"><ele>536.2</ele><time>2016-08-28T15:19:17Z</time></trkpt>
<trkpt lat="46.18065" lon="7.2332"><ele>536.2</ele><time>2016-08-28T15:19:19Z</time></trkpt>
<trkpt lat="46.18057" lon="7.23311"><ele>536.2</ele><time>2016-08-28T15:19:21Z</time></trkpt>
<trkpt lat="46.18049" lon="7.23303"><ele>536.2</ele><time>2016-08-28T15:19:23Z</time></trkpt>
<trkpt lat="46.18041" lon="7.23294"><ele>536.2</ele><time>2016-08-28T15:19:25Z</time></trkpt>
<trkpt lat="46.18036" lon="7.2329"><ele>536.2</ele><time>2016-08-28T15:19:26Z</time></trkpt>
<trkpt lat="46.18032" lon="7.23285"><ele>536.2</ele><time>2016-08-28T15:19:27Z</time></trkpt>
<trkpt lat="46.18024" lon="7.23276"><ele>536.2</ele><time>2016-08-28T15:19:29Z</time></trkpt>
<trkpt lat="46.18015" lon="7.23267"><ele>536.2</ele><time>2016-08-28T15:19:31Z</time></trkpt>
<trkpt lat="46.18006" lon="7.23259"><ele>536.2</ele><time>2016-08-28T15:19:33Z</time></trkpt>
<trkpt lat="46.17998" lon="7.2325"><ele>536.2</ele><time>2016-08-28T15:19:35Z</time></trkpt>
<trkpt lat="46.1799" lon="7.23242"><ele>536.2</ele><time>2016-08-28T15:19:37Z</time></trkpt>
<trkpt lat="46.17983" lon="7.23234"><ele>536.2</ele><time>2016-08-28T15:19:39Z</time></trkpt>
<trkpt lat="46.17976" lon="7.23226"><ele>536.2</ele><time>2016-08-28T15:19:41Z</time></trkpt>
<trkpt lat="46.17968" lon="7.23218"><ele>536.4</ele><time>2016-08-28T15:19:43Z</time></trkpt>
<trkpt lat="46.17961" lon="7.2321"><ele>536.4</ele><time>2016-08-28T15:19:45Z</time></trkpt>
<trkpt lat="46.17954" lon="7.23199"><ele>536.4</ele><time>2016-08-28T15:19:47Z</time></trkpt>
<trkpt lat="46.17947" lon="7.23189"><ele>536.4</ele><time>2016-08-28T15:19:49Z</time></trkpt>
<trkpt lat="46.17941" lon="7.23178"><ele>536.4</ele><time>2016-08-28T15:19:51Z</time></trkpt>
<trkpt lat="46.17934" lon="7.23167"><ele>536.4</ele><time>2016-08-28T15:19:53Z</time></trkpt>
<trkpt lat="46.1793" lon="7.23162"><ele>536.4</ele><time>2016-08-28T15:19:54Z</time></trkpt>
<trkpt lat="46.17928" lon="7.23156"><ele>536.4</ele><time>2016-08-28T15:19:55Z</time></trkpt>
<trkpt lat="46.17922" lon="7.23145"><ele>536.4</ele><time>2016-08-28T15:19:57Z</time></trkpt>
<trkpt lat="46.17917" lon="7.23134"><ele>536.4</ele><time>2016-08-28T15:19:59Z</time></trkpt>
<trkpt lat="46.17911" lon="7.23123"><ele>536.4</ele><time>2016-08-28T15:20:01Z</time></trkpt>
<trkpt lat="46.17906" lon="7.23111"><ele>536.4</ele><time>2016-08-28T15:20:03Z</time></trkpt>
<trkpt lat="46.17903" lon="7.23106"><ele>536.4</ele><time>2016-08-28T15:20:04Z</time></trkpt>
<trkpt lat="46.17901" lon="7.231"><ele>536.4</ele><time>2016-08-28T15:20:05Z</time></trkpt>
<trkpt lat="46.17895" lon="7.23088"><ele>536.4</ele><time>2016-08-28T15:20:07Z</time></trkpt>
<trkpt lat="46.1789" lon="7.23077"><ele>536.4</ele><time>2016-08-28T15:20:09Z</time></trkpt>
<trkpt lat="46.17885" lon="7.23065"><ele>536.4</ele><time>2016-08-28T15:20:11Z</time></trkpt>
<trkpt lat="46.17879" lon="7.23054"><ele>536.4</ele><time>2016-08-28T15:20:13Z</time></trkpt>
<trkpt lat="46.17877" lon="7.23048"><ele>536.4</ele><time>2016-08-28T15:20:14Z</time></trkpt>
<trkpt lat="46.17874" lon="7.23043"><ele>536.4</ele><time>2016-08-28T15:20:15Z</time></trkpt>
<trkpt lat="46.17868" lon="7.23033"><ele>536.4</ele><time>2016-08-28T15:20:17Z</time></trkpt>
<trkpt lat="46.17861" lon="7.23022"><ele>536.4</ele><time>2016-08-28T15:20:19Z</time></trkpt>
<trkpt lat="46.17855" lon="7.23012"><ele>536.4</ele><time>2016-08-28T15:20:21Z</time></trkpt>
<trkpt lat="46.17849" lon="7.23001"><ele>536.4</ele><time>2016-08-28T15:20:23Z</time></trkpt>
<trkpt lat="46.17846" lon="7.22996"><ele>536.4</ele><time>2016-08-28T15:20:24Z</time></trkpt>
<trkpt lat="46.17844" lon="7.2299"><ele>536.4</ele><time>2016-08-28T15:20:25Z</time></trkpt>
<trkpt lat="46.17841" lon="7.22977"><ele>536.4</ele><time>2016-08-28T15:20:27Z</time></trkpt>
<trkpt lat="46.17838" lon="7.22963"><ele>536.4</ele><time>2016-08-28T15:20:29Z</time></trkpt>
<trkpt lat="46.17835" lon="7.2295"><ele>536.6</ele><time>2016-08-28T15:20:31Z</time></trkpt>
<trkpt lat="46.17831" lon="7.22937"><ele>536.6</ele><time>2016-08-28T15:20:33Z</time></trkpt>
<trkpt lat="46.1783" lon="7.22931"><ele>536.6</ele><time>2016-08-28T15:20:34Z</time></trkpt>
<trkpt lat="46.1783" lon="7.22924"><ele>536.6</ele><time>2016-08-28T15:20:35Z</time></trkpt>
<trkpt lat="46.17832" lon="7.22912"><ele>536.6</ele><time>2016-08-28T15:20:37Z</time></trkpt>
<trkpt lat="46.17833" lon="7.22899"><ele>536.6</ele><time>2016-08-28T15:20:39Z</time></trkpt>
<trkpt lat="46.17835" lon="7.22887"><ele>536.6</ele><time>2016-08-28T15:20:41Z</time></trkpt>
<trkpt lat="46.17837" lon="7.22879"><ele>536.6</ele><time>2016-08-28T15:20:43Z</time></trkpt>
<trkpt lat="46.1784" lon="7.22872"><ele>536.6</ele><time>2016-08-28T15:20:45Z</time></trkpt>
<trkpt lat="46.17842" lon="7.22865"><ele>536.6</ele><time>2016-08-28T15:20:47Z</time></trkpt>
<trkpt lat="46.17836" lon="7.2286"><ele>536.6</ele><time>2016-08-28T15:20:49Z</time></trkpt>
<trkpt lat="46.1783" lon="7.22856"><ele>536.6</ele><time>2016-08-28T15:20:51Z</time></trkpt>
<trkpt lat="46.17823" lon="7.22851"><ele>536.6</ele><time>2016-08-28T15:20:53Z</time></trkpt>
<trkpt lat="46.17817" lon="7.22847"><ele>536.6</ele><time>2016-08-28T15:20:55Z</time></trkpt>
<trkpt lat="46.1781" lon="7.22843"><ele>536.6</ele><time>2016-08-28T15:20:57Z</time></trkpt>
<trkpt lat="46.17804" lon="7.22838"><ele>536.6</ele><time>2016-08-28T15:20:59Z</time></trkpt>
<trkpt lat="46.178" lon="7.22836"><ele>536.6</ele><time>2016-08-28T15:21:00Z</time></trkpt>
<trkpt lat="46.17798" lon="7.22833"><ele>536.6</ele><time>2016-08-28T15:21:01Z</time></trkpt>
<trkpt lat="46.17792" lon="7.22827"><ele>536.6</ele><time>2016-08-28T15:21:03Z</time></trkpt>
<trkpt lat="46.17787" lon="7.22821"><ele>536.6</ele><time>2016-08-28T15:21:05Z</time></trkpt>
<trkpt lat="46.17782" lon="7.22815"><ele>536.6</ele><time>2016-08-28T15:21:07Z</time></trkpt>
<trkpt lat="46.17776" lon="7.2281"><ele>536.6</ele><time>2016-08-28T15:21:09Z</time></trkpt>
<trkpt lat="46.17774" lon="7.22807"><ele>536.6</ele><time>2016-08-28T15:21:10Z</time></trkpt>
<trkpt lat="46.17775" lon="7.22802"><ele>536.6</ele><time>2016-08-28T15:21:11Z</time></trkpt>
<trkpt lat="46.17778" lon="7.22792"><ele>536.6</ele><time>2016-08-28T15:21:13Z</time></trkpt>
<trkpt lat="46.17781" lon="7.22783"><ele>536.6</ele><time>2016-08-28T15:21:15Z</time></trkpt>
<trkpt lat="46.17784" lon="7.22773"><ele>536.8</ele><time>2016-08-28T15:21:17Z</time></trkpt>
<trkpt lat="46.17787" lon="7.22764"><ele>536.8</ele><time>2016-08-28T15:21:19Z</time></trkpt>
<trkpt lat="46.1779" lon="7.22754"><ele>536.8</ele><time>2016-08-28T15:21:21Z</time></trkpt>
<trkpt lat="46.17793" lon="7.22745"><ele>536.8</ele><time>2016-08-28T15:21:23Z</time></trkpt>
<trkpt lat="46.17797" lon="7.22733"><ele>536.8</ele><time>2016-08-28T15:21:25Z</time></trkpt>
<trkpt lat="46.17801" lon="7.22721"><ele>536.8</ele><time>2016-08-28T15:21:27Z</time></trkpt>
<trkpt lat="46.17806" lon="7.22709"><ele>536.8</ele><time>2016-08-28T15:21:29Z</time></trkpt>
<trkpt lat="46.1781" lon="7.22698"><ele>536.8</ele><time>2016-08-28T15:21:31Z</time></trkpt>
<trkpt lat="46.17814" lon="7.22686"><ele>536.8</ele><time>2016-08-28T15:21:33Z</time></trkpt>
<trkpt lat="46.17818" lon="7.22674"><ele>536.8</ele><time>2016-08-28T15:21:35Z</time></trkpt>
<trkpt lat="46.17822" lon="7.22662"><ele>536.8</ele><time>2016-08-28T15:21:37Z</time></trkpt>
<trkpt lat="46.17826" lon="7.22649"><ele>536.8</ele><time>2016-08-28T15:21:39Z</time></trkpt>
<trkpt lat="46.1783" lon="7.22637"><ele>536.8</ele><time>2016-08-28T15:21:41Z</time></trkpt>
<trkpt lat="46.17834" lon="7.22625"><ele>536.8</ele><time>2016-08-28T15:21:43Z</time></trkpt>
<trkpt lat="46.17835" lon="7.22607"><ele>536.8</ele><time>2016-08-28T15:21:45Z</time></trkpt>
<trkpt lat="46.17835" lon="7.22588"><ele>536.8</ele><time>2016-08-28T15:21:47Z</time></trkpt>
<trkpt lat="46.17835" lon="7.22579"><ele>536.8</ele><time>2016-08-28T15:21:48Z</time></trkpt>
<trkpt lat="46.17837" lon="7.2257"><ele>536.8</ele><time>2016-08-28T15:21:49Z</time></trkpt>
<trkpt lat="46.17844" lon="7.2255"><ele>536.8</ele><time>2016-08-28T15:21:51Z</time></trkpt>
<trkpt lat="46.17851" lon="7.22539"><ele>536.8</ele><time>2016-08-28T15:21:53Z</time></trkpt>
<trkpt lat="46.17858" lon="7.22528"><ele>536.8</ele><time>2016-08-28T15:21:55Z</time></trkpt>
<trkpt lat="46.17865" lon="7.22517"><ele>536.8</ele><time>2016-08-28T15:21:57Z</time></trkpt>
<trkpt lat="46.17872" lon="7.22506"><ele>536.8</ele><time>2016-08-28T15:21:59Z</time></trkpt>
<trkpt lat="46.17876" lon="7.22501"><ele>536.8</ele><time>2016-08-28T15:22:00Z</time></trkpt>
<trkpt lat="46.17879" lon="7.22495"><ele>536.8</ele><time>2016-08-28T15:22:01Z</time></trkpt>
<trkpt lat="46.17883" lon="7.22482"><ele>536.8</ele><time>2016-08-28T15:22:03Z</time></trkpt>
<trkpt lat="46.17888" lon="7.22469"><ele>537</ele><time>2016-08-28T15:22:05Z</time></trkpt>
<trkpt lat="46.17889" lon="7.22456"><ele>537</ele><time>2016-08-28T15:22:07Z</time></trkpt>
<trkpt lat="46.1789" lon="7.22444"><ele>537</ele><time>2016-08-28T15:22:09Z</time></trkpt>
<trkpt lat="46.1789" lon="7.22431"><ele>537</ele><time>2016-08-28T15:22:11Z</time></trkpt>
<trkpt lat="46.17891" lon="7.22418"><ele>537</ele><time>2016-08-28T15:22:13Z</time></trkpt>
<trkpt lat="46.17889" lon="7.22411"><ele>537</ele><time>2016-08-28T15:22:14Z</time></trkpt>
<trkpt lat="46.17889" lon="7.22403"><ele>537</ele><time>2016-08-28T15:22:15Z</time></trkpt>
<trkpt lat="46.1789" lon="7.22386"><ele>537</ele><time>2016-08-28T15:22:17Z</time></trkpt>
<trkpt lat="46.17891" lon="7.22369"><ele>537</ele><time>2016-08-28T15:22:19Z</time></trkpt>
<trkpt lat="46.17892" lon="7.22352"><ele>537</ele><time>2016-08-28T15:22:21Z</time></trkpt>
<trkpt lat="46.17892" lon="7.22344"><ele>537</ele><time>2016-08-28T15:22:22Z</time></trkpt>
<trkpt lat="46.17893" lon="7.22337"><ele>537</ele><time>2016-08-28T15:22:23Z</time></trkpt>
<trkpt lat="46.17893" lon="7.22322"><ele>537</ele><time>2016-08-28T15:22:25Z</time></trkpt>
<trkpt lat="46.17894" lon="7.22307"><ele>537</ele><time>2016-08-28T15:22:27Z</time></trkpt>
<trkpt lat="46.17895" lon="7.22293"><ele>537</ele><time>2016-08-28T15:22:29Z</time></trkpt>
<trkpt lat="46.17896" lon="7.22278"><ele>537</ele><time>2016-08-28T15:22:31Z</time></trkpt>
<trkpt lat="46.17896" lon="7.22264"><ele>537</ele><time>2016-08-28T15:22:33Z</time></trkpt>
<trkpt lat="46.17895" lon="7.2225"><ele>537</ele><time>2016-08-28T15:22:35Z</time></trkpt>
<trkpt lat="46.17895" lon="7.22235"><ele>537</ele><time>2016-08-28T15:22:37Z</time></trkpt>
<trkpt lat="46.17895" lon="7.22221"><ele>537</ele><time>2016-08-28T15:22:39Z</time></trkpt>
<trkpt lat="46.17895" lon="7.22207"><ele>537</ele><time>2016-08-28T15:22:41Z</time></trkpt>
<trkpt lat="46.17894" lon="7.2219"><ele>537</ele><time>2016-08-28T15:22:43Z</time></trkpt>
<trkpt lat="46.17893" lon="7.22174"><ele>537</ele><time>2016-08-28T15:22:45Z</time></trkpt>
<trkpt lat="46.17893" lon="7.22158"><ele>537</ele><time>2016-08-28T15:22:47Z</time></trkpt>
<trkpt lat="46.17892" lon="7.22142"><ele>537</ele><time>2016-08-28T15:22:49Z</time></trkpt>
<trkpt lat="46.17891" lon="7.22127"><ele>537</ele><time>2016-08-28T15:22:51Z</time></trkpt>
<trkpt lat="46.1789" lon="7.22112"><ele>537.2</ele><time>2016-08-28T15:22:53Z</time></trkpt>
<trkpt lat="46.17888" lon="7.22097"><ele>537.2</ele><time>2016-08-28T15:22:55Z</time></trkpt>
<trkpt lat="46.17887" lon="7.22082"><ele>537.2</ele><time>2016-08-28T15:22:57Z</time></trkpt>
<trkpt lat="46.17887" lon="7.22074"><ele>537.2</ele><time>2016-08-28T15:22:58Z</time></trkpt>
<trkpt lat="46.17886" lon="7.22067"><ele>537.2</ele><time>2016-08-28T15:22:59Z</time></trkpt>
<trkpt lat="46.17886" lon="7.22054"><ele>537.2</ele><time>2016-08-28T15:23:01Z</time></trkpt>
<trkpt lat="46.17885" lon="7.22041"><ele>537.2</ele><time>2016-08-28T15:23:03Z</time></trkpt>
<trkpt lat="46.17884" lon="7.22028"><ele>537.2</ele><time>2016-08-28T15:23:05Z</time></trkpt>
<trkpt lat="46.17884" lon="7.22015"><ele>537.2</ele><time>2016-08-28T15:23:07Z</time></trkpt>
<trkpt lat="46.17883" lon="7.22009"><ele>537.2</ele><time>2016-08-28T15:23:08Z</time></trkpt>
<trkpt lat="46.17883" lon="7.22002"><ele>537.2</ele><time>2016-08-28T15:23:09Z</time></trkpt>
<trkpt lat="46.17883" lon="7.21989"><ele>537.2</ele><time>2016-08-28T15:23:11Z</time></trkpt>
<trkpt lat="46.17882" lon="7.21976"><ele>537.2</ele><time>2016-08-28T15:23:13Z</time></trkpt>
<trkpt lat="46.17882" lon="7.21969"><ele>537.2</ele><time>2016-08-28T15:23:14Z</time></trkpt>
<trkpt lat="46.17882" lon="7.21963"><ele>537.2</ele><time>2016-08-28T15:23:15Z</time></trkpt>
<trkpt lat="46.17882" lon="7.21951"><ele>537.2</ele><time>2016-08-28T15:23:17Z</time></trkpt>
<trkpt lat="46.17882" lon="7.21938"><ele>537.2</ele><time>2016-08-28T15:23:19Z</time></trkpt>
<trkpt lat="46.17882" lon="7.21926"><ele>537.2</ele><time>2016-08-28T15:23:21Z</time></trkpt>
<trkpt lat="46.17882" lon="7.21913"><ele>537.2</ele><time>2016-08-28T15:23:23Z</time></trkpt>
<trkpt lat="46.17882" lon="7.21901"><ele>537.2</ele><time>2016-08-28T15:23:25Z</time></trkpt>
<trkpt lat="46.17881" lon="7.21888"><ele>537.2</ele><time>2016-08-28T15:23:27Z</time></trkpt>
<trkpt lat="46.17881" lon="7.21875"><ele>537.2</ele><time>2016-08-28T15:23:29Z</time></trkpt>
<trkpt lat="46.1788" lon="7.21862"><ele>537.2</ele><time>2016-08-28T15:23:31Z</time></trkpt>
<trkpt lat="46.1788" lon="7.2185"><ele>537.2</ele><time>2016-08-28T15:23:33Z</time></trkpt>
<trkpt lat="46.17879" lon="7.21837"><ele>537.2</ele><time>2016-08-28T15:23:35Z</time></trkpt>
<trkpt lat="46.17879" lon="7.2183"><ele>537.2</ele><time>2016-08-28T15:23:36Z</time></trkpt>
<trkpt lat="46.1788" lon="7.21827"><ele>537.2</ele><time>2016-08-28T15:23:37Z</time></trkpt>
<trkpt lat="46.17881" lon="7.21821"><ele>537.4</ele><time>2016-08-28T15:23:39Z</time></trkpt>
<trkpt lat="46.17883" lon="7.21815"><ele>537.4</ele><time>2016-08-28T15:23:41Z</time></trkpt>
<trkpt lat="46.17884" lon="7.21809"><ele>537.4</ele><time>2016-08-28T15:23:43Z</time></trkpt>
<trkpt lat="46.17886" lon="7.21803"><ele>537.4</ele><time>2016-08-28T15:23:45Z</time></trkpt>
<trkpt lat="46.17887" lon="7.21797"><ele>537.4</ele><time>2016-08-28T15:23:47Z</time></trkpt>
<trkpt lat="46.17889" lon="7.21791"><ele>537.4</ele><time>2016-08-28T15:23:49Z</time></trkpt>
<trkpt lat="46.17889" lon="7.21788"><ele>537.4</ele><time>2016-08-28T15:23:50Z</time></trkpt>
<trkpt lat="46.17887" lon="7.21785"><ele>537.4</ele><time>2016-08-28T15:23:51Z</time></trkpt>
<trkpt lat="46.17883" lon="7.21778"><ele>537.4</ele><time>2016-08-28T15:23:53Z</time></trkpt>
<trkpt lat="46.17878" lon="7.21772"><ele>537.4</ele><time>2016-08-28T15:23:55Z</time></trkpt>
<trkpt lat="46.17877" lon="7.21757"><ele>537.4</ele><time>2016-08-28T15:23:57Z</time></trkpt>
<trkpt lat="46.17876" lon="7.21741"><ele>537.4</ele><time>2016-08-28T15:23:59Z</time></trkpt>
<trkpt lat="46.17875" lon="7.21726"><ele>537.4</ele><time>2016-08-28T15:24:01Z</time></trkpt>
<trkpt lat="46.17874" lon="7.2171"><ele>537.4</ele><time>2016-08-28T15:24:03Z</time></trkpt>
<trkpt lat="46.17873" lon="7.21702"><ele>537.4</ele><time>2016-08-28T15:24:04Z</time></trkpt>
<trkpt lat="46.17873" lon="7.21695"><ele>537.4</ele><time>2016-08-28T15:24:05Z</time></trkpt>
<trkpt lat="46.17872" lon="7.21681"><ele>537.4</ele><time>2016-08-28T15:24:07Z</time></trkpt>
<trkpt lat="46.17871" lon="7.21667"><ele>537.4</ele><time>2016-08-28T15:24:09Z</time></trkpt>
<trkpt lat="46.1787" lon="7.21653"><ele>537.4</ele><time>2016-08-28T15:24:11Z</time></trkpt>
<trkpt lat="46.17869" lon="7.21639"><ele>537.4</ele><time>2016-08-28T15:24:13Z</time></trkpt>
<trkpt lat="46.17868" lon="7.21632"><ele>537.4</ele><time>2016-08-28T15:24:14Z</time></trkpt>
<trkpt lat="46.17868" lon="7.21625"><ele>537.4</ele><time>2016-08-28T15:24:15Z</time></trkpt>
<trkpt lat="46.17867" lon="7.2161"><ele>537.4</ele><time>2016-08-28T15:24:17Z</time></trkpt>
<trkpt lat="46.17867" lon="7.21596"><ele>537.4</ele><time>2016-08-28T15:24:19Z</time></trkpt>
<trkpt lat="46.17866" lon="7.21582"><ele>537.4</ele><time>2016-08-28T15:24:21Z</time></trkpt>
<trkpt lat="46.17866" lon="7.21575"><ele>537.4</ele><time>2016-08-28T15:24:22Z</time></trkpt>
<trkpt lat="46.17866" lon="7.21567"><ele>537.4</ele><time>2016-08-28T15:24:23Z</time></trkpt>
<trkpt lat="46.17868" lon="7.2155"><ele>537.4</ele><time>2016-08-28T15:24:25Z</time></trkpt>
<trkpt lat="46.17869" lon="7.21533"><ele>537.6</ele><time>2016-08-28T15:24:27Z</time></trkpt>
<trkpt lat="46.1787" lon="7.21516"><ele>537.6</ele><time>2016-08-28T15:24:29Z</time></trkpt>
<trkpt lat="46.17871" lon="7.21507"><ele>537.6</ele><time>2016-08-28T15:24:30Z</time></trkpt>
<trkpt lat="46.17871" lon="7.21497"><ele>537.6</ele><time>2016-08-28T15:24:31Z</time></trkpt>
<trkpt lat="46.17871" lon="7.21475"><ele>537.6</ele><time>2016-08-28T15:24:33Z</time></trkpt>
<trkpt lat="46.17871" lon="7.21454"><ele>537.6</ele><time>2016-08-28T15:24:35Z</time></trkpt>
<trkpt lat="46.17869" lon="7.21436"><ele>537.6</ele><time>2016-08-28T15:24:37Z</time></trkpt>
<trkpt lat="46.17866" lon="7.21418"><ele>537.6</ele><time>2016-08-28T15:24:39Z</time></trkpt>
<trkpt lat="46.17864" lon="7.214"><ele>537.6</ele><time>2016-08-28T15:24:41Z</time></trkpt>
<trkpt lat="46.17861" lon="7.21382"><ele>537.6</ele><time>2016-08-28T15:24:43Z</time></trkpt>
<trkpt lat="46.17859" lon="7.21365"><ele>537.6</ele><time>2016-08-28T15:24:45Z</time></trkpt>
<trkpt lat="46.17858" lon="7.21348"><ele>537.6</ele><time>2016-08-28T15:24:47Z</time></trkpt>
<trkpt lat="46.17856" lon="7.21331"><ele>537.6</ele><time>2016-08-28T15:24:49Z</time></trkpt>
<trkpt lat="46.17854" lon="7.21314"><ele>537.6</ele><time>2016-08-28T15:24:51Z</time></trkpt>
<trkpt lat="46.17854" lon="7.21299"><ele>537.6</ele><time>2016-08-28T15:24:53Z</time></trkpt>
<trkpt lat="46.17854" lon="7.21292"><ele>537.4</ele><time>2016-08-28T15:24:54Z</time></trkpt>
<trkpt lat="46.17856" lon="7.21286"><ele>537.4</ele><time>2016-08-28T15:24:55Z</time></trkpt>
<trkpt lat="46.17866" lon="7.21285"><ele>537</ele><time>2016-08-28T15:24:57Z</time></trkpt>
<trkpt lat="46.17871" lon="7.21285"><ele>537</ele><time>2016-08-28T15:24:58Z</time></trkpt>
<trkpt lat="46.17877" lon="7.21285"><ele>537</ele><time>2016-08-28T15:24:59Z</time></trkpt>
<trkpt lat="46.17881" lon="7.21283"><ele>537</ele><time>2016-08-28T15:25:00Z</time></trkpt>
<trkpt lat="46.17881" lon="7.21275"><ele>536.8</ele><time>2016-08-28T15:25:01Z</time></trkpt>
<trkpt lat="46.1788" lon="7.21257"><ele>536.8</ele><time>2016-08-28T15:25:03Z</time></trkpt>
<trkpt lat="46.17879" lon="7.2124"><ele>536.8</ele><time>2016-08-28T15:25:05Z</time></trkpt>
<trkpt lat="46.17879" lon="7.21223"><ele>536.8</ele><time>2016-08-28T15:25:07Z</time></trkpt>
<trkpt lat="46.17878" lon="7.21214"><ele>536.8</ele><time>2016-08-28T15:25:08Z</time></trkpt>
<trkpt lat="46.17878" lon="7.21205"><ele>536.8</ele><time>2016-08-28T15:25:09Z</time></trkpt>
<trkpt lat="46.17877" lon="7.21186"><ele>536.6</ele><time>2016-08-28T15:25:11Z</time></trkpt>
<trkpt lat="46.17876" lon="7.21167"><ele>536.6</ele><time>2016-08-28T15:25:13Z</time></trkpt>
<trkpt lat="46.17876" lon="7.21148"><ele>536.6</ele><time>2016-08-28T15:25:15Z</time></trkpt>
<trkpt lat="46.17875" lon="7.21128"><ele>536.6</ele><time>2016-08-28T15:25:17Z</time></trkpt>
<trkpt lat="46.17874" lon="7.21109"><ele>536.4</ele><time>2016-08-28T15:25:19Z</time></trkpt>
<trkpt lat="46.17873" lon="7.21089"><ele>536.4</ele><time>2016-08-28T15:25:21Z</time></trkpt>
<trkpt lat="46.17872" lon="7.21079"><ele>536.4</ele><time>2016-08-28T15:25:22Z</time></trkpt>
<trkpt lat="46.17872" lon="7.21071"><ele>536.4</ele><time>2016-08-28T15:25:23Z</time></trkpt>
<trkpt lat="46.17871" lon="7.21053"><ele>536.4</ele><time>2016-08-28T15:25:25Z</time></trkpt>
<trkpt lat="46.17871" lon="7.21035"><ele>536.4</ele><time>2016-08-28T15:25:27Z</time></trkpt>
<trkpt lat="46.1787" lon="7.21018"><ele>536.2</ele><time>2016-08-28T15:25:29Z</time></trkpt>
<trkpt lat="46.1787" lon="7.21009"><ele>536.2</ele><time>2016-08-28T15:25:30Z</time></trkpt>
<trkpt lat="46.17869" lon="7.20999"><ele>536.2</ele><time>2016-08-28T15:25:31Z</time></trkpt>
<trkpt lat="46.17869" lon="7.20981"><ele>536.2</ele><time>2016-08-28T15:25:33Z</time></trkpt>
<trkpt lat="46.17868" lon="7.20962"><ele>536.2</ele><time>2016-08-28T15:25:35Z</time></trkpt>
<trkpt lat="46.17867" lon="7.20943"><ele>536</ele><time>2016-08-28T15:25:37Z</time></trkpt>
<trkpt lat="46.17867" lon="7.20934"><ele>536</ele><time>2016-08-28T15:25:38Z</time></trkpt>
<trkpt lat="46.17866" lon="7.20925"><ele>536</ele><time>2016-08-28T15:25:39Z</time></trkpt>
<trkpt lat="46.17865" lon="7.20905"><ele>536</ele><time>2016-08-28T15:25:41Z</time></trkpt>
<trkpt lat="46.17864" lon="7.20886"><ele>536</ele><time>2016-08-28T15:25:43Z</time></trkpt>
<trkpt lat="46.17862" lon="7.20867"><ele>536</ele><time>2016-08-28T15:25:45Z</time></trkpt>
<trkpt lat="46.17859" lon="7.2085"><ele>535.8</ele><time>2016-08-28T15:25:47Z</time></trkpt>
<trkpt lat="46.17856" lon="7.20833"><ele>535.8</ele><time>2016-08-28T15:25:49Z</time></trkpt>
<trkpt lat="46.17853" lon="7.20816"><ele>535.8</ele><time>2016-08-28T15:25:51Z</time></trkpt>
<trkpt lat="46.1785" lon="7.20799"><ele>535.8</ele><time>2016-08-28T15:25:53Z</time></trkpt>
<trkpt lat="46.17846" lon="7.20782"><ele>535.6</ele><time>2016-08-28T15:25:55Z</time></trkpt>
<trkpt lat="46.17843" lon="7.20765"><ele>535.6</ele><time>2016-08-28T15:25:57Z</time></trkpt>
<trkpt lat="46.1784" lon="7.20748"><ele>535.6</ele><time>2016-08-28T15:25:59Z</time></trkpt>
<trkpt lat="46.17836" lon="7.20731"><ele>535.6</ele><time>2016-08-28T15:26:01Z</time></trkpt>
<trkpt lat="46.17832" lon="7.20715"><ele>535.6</ele><time>2016-08-28T15:26:03Z</time></trkpt>
<trkpt lat="46.17828" lon="7.20699"><ele>535.4</ele><time>2016-08-28T15:26:05Z</time></trkpt>
<trkpt lat="46.17824" lon="7.20683"><ele>535.4</ele><time>2016-08-28T15:26:07Z</time></trkpt>
<trkpt lat="46.17819" lon="7.20666"><ele>535.4</ele><time>2016-08-28T15:26:09Z</time></trkpt>
<trkpt lat="46.17816" lon="7.2065"><ele>535.4</ele><time>2016-08-28T15:26:11Z</time></trkpt>
<trkpt lat="46.17812" lon="7.20634"><ele>535.4</ele><time>2016-08-28T15:26:13Z</time></trkpt>
<trkpt lat="46.17808" lon="7.20618"><ele>535.2</ele><time>2016-08-28T15:26:15Z</time></trkpt>
<trkpt lat="46.17804" lon="7.20602"><ele>535.2</ele><time>2016-08-28T15:26:17Z</time></trkpt>
<trkpt lat="46.17799" lon="7.20585"><ele>535.2</ele><time>2016-08-28T15:26:19Z</time></trkpt>
<trkpt lat="46.17794" lon="7.20568"><ele>535.2</ele><time>2016-08-28T15:26:21Z</time></trkpt>
<trkpt lat="46.17789" lon="7.20551"><ele>535</ele><time>2016-08-28T15:26:23Z</time></trkpt>
<trkpt lat="46.17785" lon="7.20535"><ele>535</ele><time>2016-08-28T15:26:25Z</time></trkpt>
<trkpt lat="46.17778" lon="7.20519"><ele>535</ele><time>2016-08-28T15:26:27Z</time></trkpt>
<trkpt lat="46.17772" lon="7.20504"><ele>535</ele><time>2016-08-28T15:26:29Z</time></trkpt>
<trkpt lat="46.17765" lon="7.20489"><ele>535</ele><time>2016-08-28T15:26:31Z</time></trkpt>
<trkpt lat="46.17758" lon="7.20474"><ele>534.8</ele><time>2016-08-28T15:26:33Z</time></trkpt>
<trkpt lat="46.1775" lon="7.20458"><ele>534.8</ele><time>2016-08-28T15:26:35Z</time></trkpt>
<trkpt lat="46.17742" lon="7.20443"><ele>534.8</ele><time>2016-08-28T15:26:37Z</time></trkpt>
<trkpt lat="46.17734" lon="7.20428"><ele>534.8</ele><time>2016-08-28T15:26:39Z</time></trkpt>
<trkpt lat="46.1773" lon="7.2042"><ele>534.8</ele><time>2016-08-28T15:26:40Z</time></trkpt>
<trkpt lat="46.17726" lon="7.20413"><ele>534.6</ele><time>2016-08-28T15:26:41Z</time></trkpt>
<trkpt lat="46.17719" lon="7.204"><ele>534.6</ele><time>2016-08-28T15:26:43Z</time></trkpt>
<trkpt lat="46.17712" lon="7.20387"><ele>534.6</ele><time>2016-08-28T15:26:45Z</time></trkpt>
<trkpt lat="46.17705" lon="7.20373"><ele>534.6</ele><time>2016-08-28T15:26:47Z</time></trkpt>
<trkpt lat="46.17701" lon="7.20367"><ele>534.6</ele><time>2016-08-28T15:26:48Z</time></trkpt>
<trkpt lat="46.17697" lon="7.2036"><ele>534.6</ele><time>2016-08-28T15:26:49Z</time></trkpt>
<trkpt lat="46.1769" lon="7.20347"><ele>534.4</ele><time>2016-08-28T15:26:51Z</time></trkpt>
<trkpt lat="46.17682" lon="7.20334"><ele>534.4</ele><time>2016-08-28T15:26:53Z</time></trkpt>
<trkpt lat="46.17675" lon="7.20321"><ele>534.4</ele><time>2016-08-28T15:26:55Z</time></trkpt>
<trkpt lat="46.17671" lon="7.20314"><ele>534.4</ele><time>2016-08-28T15:26:56Z</time></trkpt>
<trkpt lat="46.17667" lon="7.20307"><ele>534.4</ele><time>2016-08-28T15:26:57Z</time></trkpt>
<trkpt lat="46.1766" lon="7.20292"><ele>534.2</ele><time>2016-08-28T15:26:59Z</time></trkpt>
<trkpt lat="46.17653" lon="7.20278"><ele>534.2</ele><time>2016-08-28T15:27:01Z</time></trkpt>
<trkpt lat="46.17646" lon="7.20263"><ele>534.2</ele><time>2016-08-28T15:27:03Z</time></trkpt>
<trkpt lat="46.17642" lon="7.20256"><ele>534.2</ele><time>2016-08-28T15:27:04Z</time></trkpt>
<trkpt lat="46.17638" lon="7.20249"><ele>534.2</ele><time>2016-08-28T15:27:05Z</time></trkpt>
<trkpt lat="46.17631" lon="7.20236"><ele>534.2</ele><time>2016-08-28T15:27:07Z</time></trkpt>
<trkpt lat="46.17624" lon="7.20223"><ele>534</ele><time>2016-08-28T15:27:09Z</time></trkpt>
<trkpt lat="46.17616" lon="7.2021"><ele>534</ele><time>2016-08-28T15:27:11Z</time></trkpt>
<trkpt lat="46.17613" lon="7.20204"><ele>534</ele><time>2016-08-28T15:27:12Z</time></trkpt>
<trkpt lat="46.17608" lon="7.20201"><ele>534</ele><time>2016-08-28T15:27:13Z</time></trkpt>
<trkpt lat="46.17599" lon="7.20195"><ele>534</ele><time>2016-08-28T15:27:15Z</time></trkpt>
<trkpt lat="46.17589" lon="7.2019"><ele>533.8</ele><time>2016-08-28T15:27:17Z</time></trkpt>
<trkpt lat="46.17579" lon="7.20185"><ele>533.8</ele><time>2016-08-28T15:27:19Z</time></trkpt>
<trkpt lat="46.1757" lon="7.2018"><ele>533.8</ele><time>2016-08-28T15:27:21Z</time></trkpt>
<trkpt lat="46.17562" lon="7.20176"><ele>533.8</ele><time>2016-08-28T15:27:23Z</time></trkpt>
<trkpt lat="46.17554" lon="7.20172"><ele>533.8</ele><time>2016-08-28T15:27:25Z</time></trkpt>
<trkpt lat="46.17546" lon="7.20167"><ele>533.6</ele><time>2016-08-28T15:27:27Z</time></trkpt>
<trkpt lat="46.17538" lon="7.20163"><ele>533.6</ele><time>2016-08-28T15:27:29Z</time></trkpt>
<trkpt lat="46.1753" lon="7.20159"><ele>533.6</ele><time>2016-08-28T15:27:31Z</time></trkpt>
<trkpt lat="46.17525" lon="7.20151"><ele>533.6</ele><time>2016-08-28T15:27:33Z</time></trkpt>
<trkpt lat="46.17522" lon="7.20146"><ele>533.6</ele><time>2016-08-28T15:27:34Z</time></trkpt>
<trkpt lat="46.17523" lon="7.20142"><ele>533.6</ele><time>2016-08-28T15:27:35Z</time></trkpt>
<trkpt lat="46.17524" lon="7.20137"><ele>533.4</ele><time>2016-08-28T15:27:36Z</time></trkpt>
<trkpt lat="46.17529" lon="7.20134"><ele>533.4</ele><time>2016-08-28T15:27:37Z</time></trkpt>
<trkpt lat="46.1754" lon="7.20128"><ele>533.4</ele><time>2016-08-28T15:27:39Z</time></trkpt>
<trkpt lat="46.17546" lon="7.20125"><ele>533.4</ele><time>2016-08-28T15:27:40Z</time></trkpt>
<trkpt lat="46.1755" lon="7.20118"><ele>533.4</ele><time>2016-08-28T15:27:41Z</time></trkpt>
<trkpt lat="46.17554" lon="7.20111"><ele>533.4</ele><time>2016-08-28T15:27:42Z</time></trkpt>
<trkpt lat="46.17555" lon="7.20101"><ele>533.4</ele><time>2016-08-28T15:27:43Z</time></trkpt>
<trkpt lat="46.17555" lon="7.20092"><ele>533.4</ele><time>2016-08-28T15:27:44Z</time></trkpt>
<trkpt lat="46.17552" lon="7.20083"><ele>533.4</ele><time>2016-08-28T15:27:45Z</time></trkpt>
<trkpt lat="46.17546" lon="7.20066"><ele>533.4</ele><time>2016-08-28T15:27:47Z</time></trkpt>
<trkpt lat="46.17541" lon="7.20049"><ele>533.4</ele><time>2016-08-28T15:27:49Z</time></trkpt>
<trkpt lat="46.17535" lon="7.20031"><ele>533.4</ele><time>2016-08-28T15:27:51Z</time></trkpt>
<trkpt lat="46.17528" lon="7.20015"><ele>533.6</ele><time>2016-08-28T15:27:53Z</time></trkpt>
<trkpt lat="46.17521" lon="7.19998"><ele>533.6</ele><time>2016-08-28T15:27:55Z</time></trkpt>
<trkpt lat="46.17515" lon="7.19982"><ele>533.6</ele><time>2016-08-28T15:27:57Z</time></trkpt>
<trkpt lat="46.17512" lon="7.19974"><ele>533.6</ele><time>2016-08-28T15:27:58Z</time></trkpt>
<trkpt lat="46.17509" lon="7.19966"><ele>533.6</ele><time>2016-08-28T15:27:59Z</time></trkpt>
<trkpt lat="46.17506" lon="7.19958"><ele>533.6</ele><time>2016-08-28T15:28:00Z</time></trkpt>
<trkpt lat="46.17504" lon="7.1995"><ele>533.6</ele><time>2016-08-28T15:28:01Z</time></trkpt>
<trkpt lat="46.17499" lon="7.19934"><ele>533.6</ele><time>2016-08-28T15:28:03Z</time></trkpt>
<trkpt lat="46.17494" lon="7.19918"><ele>533.6</ele><time>2016-08-28T15:28:05Z</time></trkpt>
<trkpt lat="46.17491" lon="7.1991"><ele>533.6</ele><time>2016-08-28T15:28:06Z</time></trkpt>
<trkpt lat="46.17488" lon="7.19902"><ele>533.4</ele><time>2016-08-28T15:28:07Z</time></trkpt>
<trkpt lat="46.17482" lon="7.19888"><ele>533.4</ele><time>2016-08-28T15:28:09Z</time></trkpt>
<trkpt lat="46.17475" lon="7.19874"><ele>533.4</ele><time>2016-08-28T15:28:11Z</time></trkpt>
<trkpt lat="46.17469" lon="7.19859"><ele>533.2</ele><time>2016-08-28T15:28:13Z</time></trkpt>
<trkpt lat="46.17466" lon="7.19852"><ele>533.2</ele><time>2016-08-28T15:28:14Z</time></trkpt>
<trkpt lat="46.17461" lon="7.19846"><ele>533.2</ele><time>2016-08-28T15:28:15Z</time></trkpt>
<trkpt lat="46.17452" lon="7.19834"><ele>533.2</ele><time>2016-08-28T15:28:17Z</time></trkpt>
<trkpt lat="46.17443" lon="7.19822"><ele>533.2</ele><time>2016-08-28T15:28:19Z</time></trkpt>
<trkpt lat="46.17433" lon="7.1981"><ele>533</ele><time>2016-08-28T15:28:21Z</time></trkpt>
<trkpt lat="46.17429" lon="7.19805"><ele>533</ele><time>2016-08-28T15:28:22Z</time></trkpt>
<trkpt lat="46.17423" lon="7.19799"><ele>533</ele><time>2016-08-28T15:28:23Z</time></trkpt>
<trkpt lat="46.17413" lon="7.1979"><ele>533</ele><time>2016-08-28T15:28:25Z</time></trkpt>
<trkpt lat="46.17403" lon="7.1978"><ele>532.8</ele><time>2016-08-28T15:28:27Z</time></trkpt>
<trkpt lat="46.17392" lon="7.1977"><ele>532.8</ele><time>2016-08-28T15:28:29Z</time></trkpt>
<trkpt lat="46.17387" lon="7.19765"><ele>532.8</ele><time>2016-08-28T15:28:30Z</time></trkpt>
<trkpt lat="46.17382" lon="7.1976"><ele>532.8</ele><time>2016-08-28T15:28:31Z</time></trkpt>
<trkpt lat="46.1737" lon="7.19751"><ele>532.6</ele><time>2016-08-28T15:28:33Z</time></trkpt>
<trkpt lat="46.17359" lon="7.19741"><ele>532.6</ele><time>2016-08-28T15:28:35Z</time></trkpt>
<trkpt lat="46.17348" lon="7.19732"><ele>532.6</ele><time>2016-08-28T15:28:37Z</time></trkpt>
<trkpt lat="46.17343" lon="7.19727"><ele>532.6</ele><time>2016-08-28T15:28:38Z</time></trkpt>
<trkpt lat="46.17337" lon="7.19722"><ele>532.4</ele><time>2016-08-28T15:28:39Z</time></trkpt>
<trkpt lat="46.17325" lon="7.19712"><ele>532.4</ele><time>2016-08-28T15:28:41Z</time></trkpt>
<trkpt lat="46.17314" lon="7.19702"><ele>532.4</ele><time>2016-08-28T15:28:43Z</time></trkpt>
<trkpt lat="46.17302" lon="7.19691"><ele>532.4</ele><time>2016-08-28T15:28:45Z</time></trkpt>
<trkpt lat="46.17291" lon="7.19682"><ele>532.2</ele><time>2016-08-28T15:28:47Z</time></trkpt>
<trkpt lat="46.17279" lon="7.19672"><ele>532.2</ele><time>2016-08-28T15:28:49Z</time></trkpt>
<trkpt lat="46.17268" lon="7.19663"><ele>532.2</ele><time>2016-08-28T15:28:51Z</time></trkpt>
<trkpt lat="46.17262" lon="7.19658"><ele>532</ele><time>2016-08-28T15:28:52Z</time></trkpt>
<trkpt lat="46.17256" lon="7.19654"><ele>532</ele><time>2016-08-28T15:28:53Z</time></trkpt>
<trkpt lat="46.17245" lon="7.19645"><ele>532</ele><time>2016-08-28T15:28:55Z</time></trkpt>
<trkpt lat="46.17234" lon="7.19636"><ele>532</ele><time>2016-08-28T15:28:57Z</time></trkpt>
<trkpt lat="46.17223" lon="7.19628"><ele>531.8</ele><time>2016-08-28T15:28:59Z</time></trkpt>
<trkpt lat="46.17213" lon="7.19619"><ele>531.8</ele><time>2016-08-28T15:29:01Z</time></trkpt>
<trkpt lat="46.17214" lon="7.19606"><ele>531.8</ele><time>2016-08-28T15:29:03Z</time></trkpt>
<trkpt lat="46.17215" lon="7.19593"><ele>531.6</ele><time>2016-08-28T15:29:05Z</time></trkpt>
<trkpt lat="46.17207" lon="7.19585"><ele>531.6</ele><time>2016-08-28T15:29:07Z</time></trkpt>
<trkpt lat="46.17197" lon="7.19577"><ele>531.6</ele><time>2016-08-28T15:29:09Z</time></trkpt>
<trkpt lat="46.17183" lon="7.19564"><ele>531.4</ele><time>2016-08-28T15:29:12Z</time></trkpt>
<trkpt lat="46.17179" lon="7.1956"><ele>531.4</ele><time>2016-08-28T15:29:13Z</time></trkpt>
<trkpt lat="46.17174" lon="7.19556"><ele>531.4</ele><time>2016-08-28T15:29:14Z</time></trkpt>
<trkpt lat="46.1717" lon="7.19552"><ele>531.4</ele><time>2016-08-28T15:29:15Z</time></trkpt>
<trkpt lat="46.17161" lon="7.19545"><ele>531.4</ele><time>2016-08-28T15:29:17Z</time></trkpt>
<trkpt lat="46.17152" lon="7.19537"><ele>531.2</ele><time>2016-08-28T15:29:19Z</time></trkpt>
<trkpt lat="46.17143" lon="7.19529"><ele>531.2</ele><time>2016-08-28T15:29:21Z</time></trkpt>
<trkpt lat="46.17135" lon="7.19521"><ele>531.2</ele><time>2016-08-28T15:29:23Z</time></trkpt>
<trkpt lat="46.17127" lon="7.19514"><ele>531</ele><time>2016-08-28T15:29:25Z</time></trkpt>
<trkpt lat="46.1712" lon="7.19508"><ele>531</ele><time>2016-08-28T15:29:27Z</time></trkpt>
<trkpt lat="46.17112" lon="7.19502"><ele>531</ele><time>2016-08-28T15:29:29Z</time></trkpt>
<trkpt lat="46.17105" lon="7.19495"><ele>530.8</ele><time>2016-08-28T15:29:31Z</time></trkpt>
<trkpt lat="46.17097" lon="7.19489"><ele>530.8</ele><time>2016-08-28T15:29:33Z</time></trkpt>
<trkpt lat="46.17094" lon="7.19486"><ele>530.8</ele><time>2016-08-28T15:29:34Z</time></trkpt>
<trkpt lat="46.17089" lon="7.19482"><ele>530.8</ele><time>2016-08-28T15:29:35Z</time></trkpt>
<trkpt lat="46.1708" lon="7.19474"><ele>530.6</ele><time>2016-08-28T15:29:37Z</time></trkpt>
<trkpt lat="46.1707" lon="7.19465"><ele>530.6</ele><time>2016-08-28T15:29:39Z</time></trkpt>
<trkpt lat="46.17061" lon="7.19457"><ele>530.6</ele><time>2016-08-28T15:29:41Z</time></trkpt>
<trkpt lat="46.17051" lon="7.19449"><ele>530.6</ele><time>2016-08-28T15:29:43Z</time></trkpt>
<trkpt lat="46.17042" lon="7.19441"><ele>530.4</ele><time>2016-08-28T15:29:45Z</time></trkpt>
<trkpt lat="46.17033" lon="7.19433"><ele>530.4</ele><time>2016-08-28T15:29:47Z</time></trkpt>
<trkpt lat="46.17024" lon="7.19425"><ele>530.4</ele><time>2016-08-28T15:29:49Z</time></trkpt>
<trkpt lat="46.1702" lon="7.19421"><ele>530.2</ele><time>2016-08-28T15:29:50Z</time></trkpt>
<trkpt lat="46.17015" lon="7.19417"><ele>530.2</ele><time>2016-08-28T15:29:51Z</time></trkpt>
<trkpt lat="46.17011" lon="7.19413"><ele>530.2</ele><time>2016-08-28T15:29:52Z</time></trkpt>
<trkpt lat="46.17007" lon="7.1941"><ele>530.2</ele><time>2016-08-28T15:29:53Z</time></trkpt>
<trkpt lat="46.17001" lon="7.19404"><ele>530.2</ele><time>2016-08-28T15:29:55Z</time></trkpt>
<trkpt lat="46.16995" lon="7.19397"><ele>530.2</ele><time>2016-08-28T15:29:57Z</time></trkpt>
<trkpt lat="46.16988" lon="7.19391"><ele>530.4</ele><time>2016-08-28T15:29:59Z</time></trkpt>
<trkpt lat="46.16982" lon="7.19384"><ele>530.4</ele><time>2016-08-28T15:30:01Z</time></trkpt>
<trkpt lat="46.16981" lon="7.19374"><ele>530.4</ele><time>2016-08-28T15:30:03Z</time></trkpt>
<trkpt lat="46.16985" lon="7.19363"><ele>530.4</ele><time>2016-08-28T15:30:05Z</time></trkpt>
<trkpt lat="46.16991" lon="7.19352"><ele>530.4</ele><time>2016-08-28T15:30:07Z</time></trkpt>
<trkpt lat="46.16996" lon="7.19341"><ele>530.4</ele><time>2016-08-28T15:30:09Z</time></trkpt>
<trkpt lat="46.17001" lon="7.1933"><ele>530.4</ele><time>2016-08-28T15:30:11Z</time></trkpt>
<trkpt lat="46.17006" lon="7.1932"><ele>530.4</ele><time>2016-08-28T15:30:13Z</time></trkpt>
<trkpt lat="46.17012" lon="7.19308"><ele>530.4</ele><time>2016-08-28T15:30:15Z</time></trkpt>
<trkpt lat="46.17018" lon="7.19297"><ele>530.4</ele><time>2016-08-28T15:30:17Z</time></trkpt>
<trkpt lat="46.17025" lon="7.19286"><ele>530.4</ele><time>2016-08-28T15:30:19Z</time></trkpt>
<trkpt lat="46.17031" lon="7.19274"><ele>530.4</ele><time>2016-08-28T15:30:21Z</time></trkpt>
<trkpt lat="46.17034" lon="7.19268"><ele>530.4</ele><time>2016-08-28T15:30:22Z</time></trkpt>
<trkpt lat="46.17037" lon="7.19263"><ele>530.4</ele><time>2016-08-28T15:30:23Z</time></trkpt>
<trkpt lat="46.17042" lon="7.19253"><ele>530.4</ele><time>2016-08-28T15:30:25Z</time></trkpt>
<trkpt lat="46.17047" lon="7.19244"><ele>530.4</ele><time>2016-08-28T15:30:27Z</time></trkpt>
<trkpt lat="46.17053" lon="7.19234"><ele>530.4</ele><time>2016-08-28T15:30:29Z</time></trkpt>
<trkpt lat="46.17058" lon="7.19224"><ele>530.4</ele><time>2016-08-28T15:30:31Z</time></trkpt>
<trkpt lat="46.17063" lon="7.19214"><ele>530.4</ele><time>2016-08-28T15:30:33Z</time></trkpt>
<trkpt lat="46.17069" lon="7.19201"><ele>530.4</ele><time>2016-08-28T15:30:35Z</time></trkpt>
<trkpt lat="46.17076" lon="7.19189"><ele>530.4</ele><time>2016-08-28T15:30:37Z</time></trkpt>
<trkpt lat="46.17083" lon="7.19176"><ele>530.4</ele><time>2016-08-28T15:30:39Z</time></trkpt>
<trkpt lat="46.17089" lon="7.19164"><ele>530.4</ele><time>2016-08-28T15:30:41Z</time></trkpt>
<trkpt lat="46.17092" lon="7.19157"><ele>530.4</ele><time>2016-08-28T15:30:42Z</time></trkpt>
<trkpt lat="46.17095" lon="7.19151"><ele>530.4</ele><time>2016-08-28T15:30:43Z</time></trkpt>
<trkpt lat="46.17102" lon="7.19139"><ele>530.4</ele><time>2016-08-28T15:30:45Z</time></trkpt>
<trkpt lat="46.17108" lon="7.19127"><ele>530.4</ele><time>2016-08-28T15:30:47Z</time></trkpt>
<trkpt lat="46.17114" lon="7.19115"><ele>530.4</ele><time>2016-08-28T15:30:49Z</time></trkpt>
<trkpt lat="46.1712" lon="7.19104"><ele>530.4</ele><time>2016-08-28T15:30:51Z</time></trkpt>
<trkpt lat="46.17128" lon="7.19095"><ele>530.4</ele><time>2016-08-28T15:30:53Z</time></trkpt>
<trkpt lat="46.17137" lon="7.19095"><ele>530.4</ele><time>2016-08-28T15:30:55Z</time></trkpt>
<trkpt lat="46.17145" lon="7.19104"><ele>530.4</ele><time>2016-08-28T15:30:57Z</time></trkpt>
<trkpt lat="46.17153" lon="7.19113"><ele>530.4</ele><time>2016-08-28T15:30:59Z</time></trkpt>
<trkpt lat="46.17161" lon="7.19123"><ele>530.4</ele><time>2016-08-28T15:31:01Z</time></trkpt>
<trkpt lat="46.17169" lon="7.19133"><ele>530.4</ele><time>2016-08-28T15:31:03Z</time></trkpt>
<trkpt lat="46.17173" lon="7.19137"><ele>530.4</ele><time>2016-08-28T15:31:04Z</time></trkpt>
<trkpt lat="46.17177" lon="7.19142"><ele>530.4</ele><time>2016-08-28T15:31:05Z</time></trkpt>
<trkpt lat="46.17185" lon="7.19151"><ele>530.4</ele><time>2016-08-28T15:31:07Z</time></trkpt>
<trkpt lat="46.17194" lon="7.1916"><ele>530.4</ele><time>2016-08-28T15:31:09Z</time></trkpt>
<trkpt lat="46.17202" lon="7.19168"><ele>530.4</ele><time>2016-08-28T15:31:11Z</time></trkpt>
<trkpt lat="46.17211" lon="7.19177"><ele>530.4</ele><time>2016-08-28T15:31:13Z</time></trkpt>
<trkpt lat="46.17218" lon="7.19185"><ele>530.4</ele><time>2016-08-28T15:31:15Z</time></trkpt>
<trkpt lat="46.17225" lon="7.19193"><ele>530.4</ele><time>2016-08-28T15:31:17Z</time></trkpt>
<trkpt lat="46.17228" lon="7.19196"><ele>530.4</ele><time>2016-08-28T15:31:18Z</time></trkpt>
<trkpt lat="46.17232" lon="7.19198"><ele>530.4</ele><time>2016-08-28T15:31:19Z</time></trkpt>
<trkpt lat="46.17236" lon="7.19198"><ele>530.4</ele><time>2016-08-28T15:31:20Z</time></trkpt>
<trkpt lat="46.17239" lon="7.19193"><ele>530.4</ele><time>2016-08-28T15:31:21Z</time></trkpt>
<trkpt lat="46.17246" lon="7.19183"><ele>530.4</ele><time>2016-08-28T15:31:23Z</time></trkpt>
<trkpt lat="46.17253" lon="7.19172"><ele>530.4</ele><time>2016-08-28T15:31:25Z</time></trkpt>
<trkpt lat="46.17259" lon="7.19161"><ele>530.4</ele><time>2016-08-28T15:31:27Z</time></trkpt>
<trkpt lat="46.17266" lon="7.1915"><ele>530.4</ele><time>2016-08-28T15:31:29Z</time></trkpt>
<trkpt lat="46.17272" lon="7.19139"><ele>530.4</ele><time>2016-08-28T15:31:31Z</time></trkpt>
<trkpt lat="46.17278" lon="7.19128"><ele>530.4</ele><time>2016-08-28T15:31:33Z</time></trkpt>
<trkpt lat="46.17285" lon="7.19116"><ele>530.4</ele><time>2016-08-28T15:31:35Z</time></trkpt>
<trkpt lat="46.17291" lon="7.19105"><ele>530.4</ele><time>2016-08-28T15:31:37Z</time></trkpt>
<trkpt lat="46.17294" lon="7.191"><ele>530.4</ele><time>2016-08-28T15:31:38Z</time></trkpt>
<trkpt lat="46.17297" lon="7.19094"><ele>530.4</ele><time>2016-08-28T15:31:39Z</time></trkpt>
<trkpt lat="46.17302" lon="7.19082"><ele>530.4</ele><time>2016-08-28T15:31:41Z</time></trkpt>
<trkpt lat="46.17305" lon="7.19076"><ele>530.4</ele><time>2016-08-28T15:31:42Z</time></trkpt>
<trkpt lat="46.17304" lon="7.1907"><ele>530.4</ele><time>2016-08-28T15:31:43Z</time></trkpt>
<trkpt lat="46.17302" lon="7.19064"><ele>530.4</ele><time>2016-08-28T15:31:44Z</time></trkpt>
<trkpt lat="46.17298" lon="7.19059"><ele>530.4</ele><time>2016-08-28T15:31:45Z</time></trkpt>
<trkpt lat="46.17289" lon="7.19049"><ele>530.4</ele><time>2016-08-28T15:31:47Z</time></trkpt>
<trkpt lat="46.17279" lon="7.1904"><ele>530.4</ele><time>2016-08-28T15:31:49Z</time></trkpt>
<trkpt lat="46.17269" lon="7.1903"><ele>530.4</ele><time>2016-08-28T15:31:51Z</time></trkpt>
<trkpt lat="46.17265" lon="7.19025"><ele>530.4</ele><time>2016-08-28T15:31:52Z</time></trkpt>
<trkpt lat="46.1726" lon="7.1902"><ele>530.4</ele><time>2016-08-28T15:31:53Z</time></trkpt>
<trkpt lat="46.17252" lon="7.19011"><ele>530.4</ele><time>2016-08-28T15:31:55Z</time></trkpt>
<trkpt lat="46.17243" lon="7.19001"><ele>530.4</ele><time>2016-08-28T15:31:57Z</time></trkpt>
<trkpt lat="46.17234" lon="7.18991"><ele>530.4</ele><time>2016-08-28T15:31:59Z</time></trkpt>
<trkpt lat="46.17225" lon="7.18982"><ele>530.4</ele><time>2016-08-28T15:32:01Z</time></trkpt>
<trkpt lat="46.17218" lon="7.18975"><ele>530.4</ele><time>2016-08-28T15:32:03Z</time></trkpt>
<trkpt lat="46.17211" lon="7.18968"><ele>530.4</ele><time>2016-08-28T15:32:05Z</time></trkpt>
<trkpt lat="46.17205" lon="7.18962"><ele>530.4</ele><time>2016-08-28T15:32:07Z</time></trkpt>
<trkpt lat="46.17197" lon="7.18967"><ele>530.4</ele><time>2016-08-28T15:32:09Z</time></trkpt>
<trkpt lat="46.17193" lon="7.1897"><ele>530.4</ele><time>2016-08-28T15:32:10Z</time></trkpt>
<trkpt lat="46.1719" lon="7.18975"><ele>530.4</ele><time>2016-08-28T15:32:11Z</time></trkpt>
<trkpt lat="46.17185" lon="7.18985"><ele>530.4</ele><time>2016-08-28T15:32:13Z</time></trkpt>
<trkpt lat="46.1718" lon="7.18996"><ele>530.4</ele><time>2016-08-28T15:32:15Z</time></trkpt>
<trkpt lat="46.17174" lon="7.19007"><ele>530.6</ele><time>2016-08-28T15:32:17Z</time></trkpt>
<trkpt lat="46.17169" lon="7.19017"><ele>530.6</ele><time>2016-08-28T15:32:19Z</time></trkpt>
<trkpt lat="46.17166" lon="7.19022"><ele>530.6</ele><time>2016-08-28T15:32:20Z</time></trkpt>
<trkpt lat="46.17163" lon="7.19027"><ele>530.6</ele><time>2016-08-28T15:32:21Z</time></trkpt>
<trkpt lat="46.17157" lon="7.19037"><ele>530.6</ele><time>2016-08-28T15:32:23Z</time></trkpt>
<trkpt lat="46.17152" lon="7.19047"><ele>530.6</ele><time>2016-08-28T15:32:25Z</time></trkpt>
<trkpt lat="46.17146" lon="7.19057"><ele>530.6</ele><time>2016-08-28T15:32:27Z</time></trkpt>
<trkpt lat="46.1714" lon="7.19067"><ele>530.6</ele><time>2016-08-28T15:32:29Z</time></trkpt>
<trkpt lat="46.17135" lon="7.19077"><ele>530.6</ele><time>2016-08-28T15:32:31Z</time></trkpt>
<trkpt lat="46.1713" lon="7.19086"><ele>530.6</ele><time>2016-08-28T15:32:33Z</time></trkpt>
<trkpt lat="46.17125" lon="7.19095"><ele>530.6</ele><time>2016-08-28T15:32:35Z</time></trkpt>
<trkpt lat="46.17121" lon="7.19104"><ele>530.6</ele><time>2016-08-28T15:32:37Z</time></trkpt>
<trkpt lat="46.17116" lon="7.19113"><ele>530.6</ele><time>2016-08-28T15:32:39Z</time></trkpt>
<trkpt lat="46.17111" lon="7.19122"><ele>530.6</ele><time>2016-08-28T15:32:41Z</time></trkpt>
<trkpt lat="46.17107" lon="7.19131"><ele>530.6</ele><time>2016-08-28T15:32:43Z</time></trkpt>
<trkpt lat="46.17102" lon="7.1914"><ele>530.6</ele><time>2016-08-28T15:32:45Z</time></trkpt>
<trkpt lat="46.17098" lon="7.19149"><ele>530.6</ele><time>2016-08-28T15:32:47Z</time></trkpt>
<trkpt lat="46.17093" lon="7.19159"><ele>530.6</ele><time>2016-08-28T15:32:49Z</time></trkpt>
<trkpt lat="46.17089" lon="7.19168"><ele>530.6</ele><time>2016-08-28T15:32:51Z</time></trkpt>
<trkpt lat="46.17084" lon="7.19178"><ele>530.6</ele><time>2016-08-28T15:32:53Z</time></trkpt>
<trkpt lat="46.1708" lon="7.19187"><ele>530.6</ele><time>2016-08-28T15:32:55Z</time></trkpt>
<trkpt lat="46.17076" lon="7.19194"><ele>530.6</ele><time>2016-08-28T15:32:57Z</time></trkpt>
<trkpt lat="46.17071" lon="7.19202"><ele>530.6</ele><time>2016-08-28T15:32:59Z</time></trkpt>
<trkpt lat="46.17067" lon="7.19209"><ele>530.6</ele><time>2016-08-28T15:33:01Z</time></trkpt>
<trkpt lat="46.17062" lon="7.19217"><ele>530.6</ele><time>2016-08-28T15:33:03Z</time></trkpt>
<trkpt lat="46.17058" lon="7.19224"><ele>530.6</ele><time>2016-08-28T15:33:05Z</time></trkpt>
<trkpt lat="46.17054" lon="7.19232"><ele>530.6</ele><time>2016-08-28T15:33:07Z</time></trkpt>
<trkpt lat="46.17051" lon="7.19229"><ele>530.6</ele><time>2016-08-28T15:33:09Z</time></trkpt>
<trkpt lat="46.17047" lon="7.19226"><ele>530.6</ele><time>2016-08-28T15:33:11Z</time></trkpt>
<trkpt lat="46.17046" lon="7.19224"><ele>530.6</ele><time>2016-08-28T15:33:12Z</time></trkpt>
<trkpt lat="46.17044" lon="7.19222"><ele>530.6</ele><time>2016-08-28T15:33:13Z</time></trkpt>
</trkseg></trk></gpx>